<?xml version="1.0" encoding="UTF-8" standalone="no" ?>
<gpx xmlns="http://www.topografix.com/GPX/1/1" xmlns:xsi="http://www.w3.org/2001/XMLSchema-instance" xsi:schemaLocation="http://www.topografix.com/GPX/1/1 http://www.topografix.com/GPX/1/1/gpx.xsd" version="1.1" creator="VisuGPX - https://www.visugpx.com">
  <metadata>
    <name>Beffia Cyclisme sur route</name>
  </metadata>
  <trk>
    <name><![CDATA[Beffia Cyclisme sur route_1]]></name>
    <trkseg>
      <trkpt lat="46.5266" lon="5.55195">
        <ele>491</ele>
        <time>2022-08-06T04:34:36Z</time>
      </trkpt>
      <trkpt lat="46.5266" lon="5.55195">
        <ele>484.8</ele>
        <time>2022-08-06T04:34:37Z</time>
      </trkpt>
      <trkpt lat="46.52665" lon="5.552">
        <ele>484.6</ele>
        <time>2022-08-06T04:35:32Z</time>
      </trkpt>
      <trkpt lat="46.5267" lon="5.55203">
        <ele>484.6</ele>
        <time>2022-08-06T04:35:35Z</time>
      </trkpt>
      <trkpt lat="46.52677" lon="5.55207">
        <ele>484.6</ele>
        <time>2022-08-06T04:35:39Z</time>
      </trkpt>
      <trkpt lat="46.52678" lon="5.55212">
        <ele>484.6</ele>
        <time>2022-08-06T04:35:41Z</time>
      </trkpt>
      <trkpt lat="46.52676" lon="5.55238">
        <ele>484.6</ele>
        <time>2022-08-06T04:35:46Z</time>
      </trkpt>
      <trkpt lat="46.52673" lon="5.55286">
        <ele>484.6</ele>
        <time>2022-08-06T04:35:53Z</time>
      </trkpt>
      <trkpt lat="46.52668" lon="5.55351">
        <ele>484.2</ele>
        <time>2022-08-06T04:36:01Z</time>
      </trkpt>
      <trkpt lat="46.52668" lon="5.5536">
        <ele>484</ele>
        <time>2022-08-06T04:36:02Z</time>
      </trkpt>
      <trkpt lat="46.52663" lon="5.55427">
        <ele>483.2</ele>
        <time>2022-08-06T04:36:09Z</time>
      </trkpt>
      <trkpt lat="46.52662" lon="5.55446">
        <ele>482.8</ele>
        <time>2022-08-06T04:36:11Z</time>
      </trkpt>
      <trkpt lat="46.52656" lon="5.55526">
        <ele>481.8</ele>
        <time>2022-08-06T04:36:19Z</time>
      </trkpt>
      <trkpt lat="46.52655" lon="5.55536">
        <ele>481.6</ele>
        <time>2022-08-06T04:36:20Z</time>
      </trkpt>
      <trkpt lat="46.52648" lon="5.55615">
        <ele>481.2</ele>
        <time>2022-08-06T04:36:28Z</time>
      </trkpt>
      <trkpt lat="46.52644" lon="5.55672">
        <ele>481.2</ele>
        <time>2022-08-06T04:36:34Z</time>
      </trkpt>
      <trkpt lat="46.52638" lon="5.55756">
        <ele>481.4</ele>
        <time>2022-08-06T04:36:43Z</time>
      </trkpt>
      <trkpt lat="46.52637" lon="5.55765">
        <ele>481.4</ele>
        <time>2022-08-06T04:36:44Z</time>
      </trkpt>
      <trkpt lat="46.52633" lon="5.55821">
        <ele>481.6</ele>
        <time>2022-08-06T04:36:50Z</time>
      </trkpt>
      <trkpt lat="46.52632" lon="5.5584">
        <ele>481.6</ele>
        <time>2022-08-06T04:36:52Z</time>
      </trkpt>
      <trkpt lat="46.52625" lon="5.55925">
        <ele>481.2</ele>
        <time>2022-08-06T04:37:01Z</time>
      </trkpt>
      <trkpt lat="46.52624" lon="5.55935">
        <ele>481.2</ele>
        <time>2022-08-06T04:37:02Z</time>
      </trkpt>
      <trkpt lat="46.52618" lon="5.56015">
        <ele>481.4</ele>
        <time>2022-08-06T04:37:11Z</time>
      </trkpt>
      <trkpt lat="46.52613" lon="5.56082">
        <ele>481.4</ele>
        <time>2022-08-06T04:37:19Z</time>
      </trkpt>
      <trkpt lat="46.52612" lon="5.56105">
        <ele>481.4</ele>
        <time>2022-08-06T04:37:22Z</time>
      </trkpt>
      <trkpt lat="46.52616" lon="5.56117">
        <ele>481.6</ele>
        <time>2022-08-06T04:37:24Z</time>
      </trkpt>
      <trkpt lat="46.52624" lon="5.5612">
        <ele>481.8</ele>
        <time>2022-08-06T04:37:26Z</time>
      </trkpt>
      <trkpt lat="46.52628" lon="5.56118">
        <ele>481.8</ele>
        <time>2022-08-06T04:37:27Z</time>
      </trkpt>
      <trkpt lat="46.52645" lon="5.56112">
        <ele>482.2</ele>
        <time>2022-08-06T04:37:32Z</time>
      </trkpt>
      <trkpt lat="46.52664" lon="5.56103">
        <ele>482.2</ele>
        <time>2022-08-06T04:37:37Z</time>
      </trkpt>
      <trkpt lat="46.52693" lon="5.5609">
        <ele>482.4</ele>
        <time>2022-08-06T04:37:44Z</time>
      </trkpt>
      <trkpt lat="46.52715" lon="5.56082">
        <ele>482.4</ele>
        <time>2022-08-06T04:37:49Z</time>
      </trkpt>
      <trkpt lat="46.5272" lon="5.56083">
        <ele>482.4</ele>
        <time>2022-08-06T04:37:50Z</time>
      </trkpt>
      <trkpt lat="46.52724" lon="5.56087">
        <ele>482.4</ele>
        <time>2022-08-06T04:37:51Z</time>
      </trkpt>
      <trkpt lat="46.52729" lon="5.56097">
        <ele>482.6</ele>
        <time>2022-08-06T04:37:53Z</time>
      </trkpt>
      <trkpt lat="46.52731" lon="5.56111">
        <ele>482.6</ele>
        <time>2022-08-06T04:37:55Z</time>
      </trkpt>
      <trkpt lat="46.52743" lon="5.56158">
        <ele>482.8</ele>
        <time>2022-08-06T04:38:02Z</time>
      </trkpt>
      <trkpt lat="46.5276" lon="5.56228">
        <ele>482.6</ele>
        <time>2022-08-06T04:38:12Z</time>
      </trkpt>
      <trkpt lat="46.52776" lon="5.56295">
        <ele>482.8</ele>
        <time>2022-08-06T04:38:22Z</time>
      </trkpt>
      <trkpt lat="46.52783" lon="5.56319">
        <ele>483</ele>
        <time>2022-08-06T04:38:27Z</time>
      </trkpt>
      <trkpt lat="46.52786" lon="5.56331">
        <ele>483.6</ele>
        <time>2022-08-06T04:38:32Z</time>
      </trkpt>
      <trkpt lat="46.52788" lon="5.56345">
        <ele>483.6</ele>
        <time>2022-08-06T04:38:38Z</time>
      </trkpt>
      <trkpt lat="46.52792" lon="5.56363">
        <ele>483.6</ele>
        <time>2022-08-06T04:38:44Z</time>
      </trkpt>
      <trkpt lat="46.528" lon="5.56397">
        <ele>483.4</ele>
        <time>2022-08-06T04:38:54Z</time>
      </trkpt>
      <trkpt lat="46.52805" lon="5.56418">
        <ele>483.2</ele>
        <time>2022-08-06T04:38:59Z</time>
      </trkpt>
      <trkpt lat="46.52811" lon="5.56444">
        <ele>483</ele>
        <time>2022-08-06T04:39:05Z</time>
      </trkpt>
      <trkpt lat="46.52821" lon="5.56482">
        <ele>483</ele>
        <time>2022-08-06T04:39:11Z</time>
      </trkpt>
      <trkpt lat="46.52831" lon="5.56521">
        <ele>483.4</ele>
        <time>2022-08-06T04:39:17Z</time>
      </trkpt>
      <trkpt lat="46.52843" lon="5.56573">
        <ele>484.2</ele>
        <time>2022-08-06T04:39:25Z</time>
      </trkpt>
      <trkpt lat="46.52845" lon="5.56579">
        <ele>484.6</ele>
        <time>2022-08-06T04:39:26Z</time>
      </trkpt>
      <trkpt lat="46.52861" lon="5.56647">
        <ele>485.6</ele>
        <time>2022-08-06T04:39:36Z</time>
      </trkpt>
      <trkpt lat="46.52863" lon="5.56654">
        <ele>485.6</ele>
        <time>2022-08-06T04:39:37Z</time>
      </trkpt>
      <trkpt lat="46.5288" lon="5.56732">
        <ele>486.4</ele>
        <time>2022-08-06T04:39:48Z</time>
      </trkpt>
      <trkpt lat="46.52887" lon="5.56761">
        <ele>486.6</ele>
        <time>2022-08-06T04:39:52Z</time>
      </trkpt>
      <trkpt lat="46.52893" lon="5.5679">
        <ele>486.8</ele>
        <time>2022-08-06T04:39:56Z</time>
      </trkpt>
      <trkpt lat="46.52909" lon="5.56867">
        <ele>487.4</ele>
        <time>2022-08-06T04:40:06Z</time>
      </trkpt>
      <trkpt lat="46.52917" lon="5.56899">
        <ele>487.4</ele>
        <time>2022-08-06T04:40:10Z</time>
      </trkpt>
      <trkpt lat="46.5292" lon="5.56917">
        <ele>487.2</ele>
        <time>2022-08-06T04:40:12Z</time>
      </trkpt>
      <trkpt lat="46.52921" lon="5.56925">
        <ele>487.2</ele>
        <time>2022-08-06T04:40:13Z</time>
      </trkpt>
      <trkpt lat="46.52929" lon="5.56955">
        <ele>487</ele>
        <time>2022-08-06T04:40:17Z</time>
      </trkpt>
      <trkpt lat="46.52934" lon="5.5697">
        <ele>487</ele>
        <time>2022-08-06T04:40:19Z</time>
      </trkpt>
      <trkpt lat="46.52947" lon="5.56998">
        <ele>486.8</ele>
        <time>2022-08-06T04:40:23Z</time>
      </trkpt>
      <trkpt lat="46.52981" lon="5.57046">
        <ele>486.2</ele>
        <time>2022-08-06T04:40:30Z</time>
      </trkpt>
      <trkpt lat="46.52988" lon="5.57059">
        <ele>486</ele>
        <time>2022-08-06T04:40:32Z</time>
      </trkpt>
      <trkpt lat="46.52998" lon="5.57084">
        <ele>485.8</ele>
        <time>2022-08-06T04:40:35Z</time>
      </trkpt>
      <trkpt lat="46.53008" lon="5.57108">
        <ele>485.4</ele>
        <time>2022-08-06T04:40:38Z</time>
      </trkpt>
      <trkpt lat="46.53033" lon="5.57168">
        <ele>484.8</ele>
        <time>2022-08-06T04:40:45Z</time>
      </trkpt>
      <trkpt lat="46.53036" lon="5.57176">
        <ele>484.8</ele>
        <time>2022-08-06T04:40:46Z</time>
      </trkpt>
      <trkpt lat="46.53054" lon="5.57219">
        <ele>485.6</ele>
        <time>2022-08-06T04:40:52Z</time>
      </trkpt>
      <trkpt lat="46.53071" lon="5.57263">
        <ele>486.4</ele>
        <time>2022-08-06T04:40:58Z</time>
      </trkpt>
      <trkpt lat="46.53077" lon="5.57279">
        <ele>486.8</ele>
        <time>2022-08-06T04:41:00Z</time>
      </trkpt>
      <trkpt lat="46.53092" lon="5.57308">
        <ele>487.4</ele>
        <time>2022-08-06T04:41:04Z</time>
      </trkpt>
      <trkpt lat="46.53097" lon="5.57315">
        <ele>487.6</ele>
        <time>2022-08-06T04:41:05Z</time>
      </trkpt>
      <trkpt lat="46.53101" lon="5.5732">
        <ele>487.6</ele>
        <time>2022-08-06T04:41:06Z</time>
      </trkpt>
      <trkpt lat="46.53124" lon="5.57344">
        <ele>488.2</ele>
        <time>2022-08-06T04:41:11Z</time>
      </trkpt>
      <trkpt lat="46.53129" lon="5.57348">
        <ele>488.2</ele>
        <time>2022-08-06T04:41:12Z</time>
      </trkpt>
      <trkpt lat="46.53144" lon="5.57357">
        <ele>488.6</ele>
        <time>2022-08-06T04:41:15Z</time>
      </trkpt>
      <trkpt lat="46.53163" lon="5.57371">
        <ele>489</ele>
        <time>2022-08-06T04:41:19Z</time>
      </trkpt>
      <trkpt lat="46.53167" lon="5.57374">
        <ele>489.2</ele>
        <time>2022-08-06T04:41:20Z</time>
      </trkpt>
      <trkpt lat="46.5318" lon="5.57383">
        <ele>489.6</ele>
        <time>2022-08-06T04:41:23Z</time>
      </trkpt>
      <trkpt lat="46.53184" lon="5.57387">
        <ele>489.8</ele>
        <time>2022-08-06T04:41:24Z</time>
      </trkpt>
      <trkpt lat="46.53216" lon="5.57416">
        <ele>490.6</ele>
        <time>2022-08-06T04:41:31Z</time>
      </trkpt>
      <trkpt lat="46.53219" lon="5.5742">
        <ele>490.6</ele>
        <time>2022-08-06T04:41:32Z</time>
      </trkpt>
      <trkpt lat="46.53236" lon="5.5744">
        <ele>491</ele>
        <time>2022-08-06T04:41:36Z</time>
      </trkpt>
      <trkpt lat="46.53244" lon="5.57453">
        <ele>491</ele>
        <time>2022-08-06T04:41:38Z</time>
      </trkpt>
      <trkpt lat="46.53259" lon="5.57479">
        <ele>491.2</ele>
        <time>2022-08-06T04:41:42Z</time>
      </trkpt>
      <trkpt lat="46.53266" lon="5.57495">
        <ele>491.2</ele>
        <time>2022-08-06T04:41:44Z</time>
      </trkpt>
      <trkpt lat="46.53281" lon="5.57555">
        <ele>490.8</ele>
        <time>2022-08-06T04:41:51Z</time>
      </trkpt>
      <trkpt lat="46.53287" lon="5.57592">
        <ele>490.8</ele>
        <time>2022-08-06T04:41:55Z</time>
      </trkpt>
      <trkpt lat="46.53287" lon="5.57603">
        <ele>491</ele>
        <time>2022-08-06T04:41:56Z</time>
      </trkpt>
      <trkpt lat="46.53286" lon="5.57659">
        <ele>491.2</ele>
        <time>2022-08-06T04:42:03Z</time>
      </trkpt>
      <trkpt lat="46.53288" lon="5.57673">
        <ele>491.6</ele>
        <time>2022-08-06T04:42:05Z</time>
      </trkpt>
      <trkpt lat="46.53292" lon="5.57687">
        <ele>491.8</ele>
        <time>2022-08-06T04:42:07Z</time>
      </trkpt>
      <trkpt lat="46.53295" lon="5.57694">
        <ele>492</ele>
        <time>2022-08-06T04:42:08Z</time>
      </trkpt>
      <trkpt lat="46.53313" lon="5.57717">
        <ele>492.2</ele>
        <time>2022-08-06T04:42:12Z</time>
      </trkpt>
      <trkpt lat="46.53318" lon="5.57723">
        <ele>492.4</ele>
        <time>2022-08-06T04:42:13Z</time>
      </trkpt>
      <trkpt lat="46.53337" lon="5.57735">
        <ele>491.8</ele>
        <time>2022-08-06T04:42:16Z</time>
      </trkpt>
      <trkpt lat="46.53374" lon="5.57748">
        <ele>490.6</ele>
        <time>2022-08-06T04:42:21Z</time>
      </trkpt>
      <trkpt lat="46.5339" lon="5.57753">
        <ele>490.2</ele>
        <time>2022-08-06T04:42:23Z</time>
      </trkpt>
      <trkpt lat="46.53413" lon="5.57761">
        <ele>489.2</ele>
        <time>2022-08-06T04:42:26Z</time>
      </trkpt>
      <trkpt lat="46.53427" lon="5.57766">
        <ele>488.8</ele>
        <time>2022-08-06T04:42:28Z</time>
      </trkpt>
      <trkpt lat="46.53466" lon="5.57789">
        <ele>488.8</ele>
        <time>2022-08-06T04:42:34Z</time>
      </trkpt>
      <trkpt lat="46.53497" lon="5.57823">
        <ele>488.6</ele>
        <time>2022-08-06T04:42:39Z</time>
      </trkpt>
      <trkpt lat="46.5352" lon="5.57844">
        <ele>488</ele>
        <time>2022-08-06T04:42:42Z</time>
      </trkpt>
      <trkpt lat="46.53537" lon="5.57857">
        <ele>487.4</ele>
        <time>2022-08-06T04:42:44Z</time>
      </trkpt>
      <trkpt lat="46.53555" lon="5.57868">
        <ele>486.6</ele>
        <time>2022-08-06T04:42:46Z</time>
      </trkpt>
      <trkpt lat="46.53574" lon="5.57878">
        <ele>485.4</ele>
        <time>2022-08-06T04:42:48Z</time>
      </trkpt>
      <trkpt lat="46.53583" lon="5.57882">
        <ele>484.4</ele>
        <time>2022-08-06T04:42:49Z</time>
      </trkpt>
      <trkpt lat="46.53592" lon="5.57885">
        <ele>484</ele>
        <time>2022-08-06T04:42:50Z</time>
      </trkpt>
      <trkpt lat="46.53629" lon="5.579">
        <ele>482.8</ele>
        <time>2022-08-06T04:42:54Z</time>
      </trkpt>
      <trkpt lat="46.53652" lon="5.57908">
        <ele>482.4</ele>
        <time>2022-08-06T04:42:57Z</time>
      </trkpt>
      <trkpt lat="46.53703" lon="5.57924">
        <ele>483.4</ele>
        <time>2022-08-06T04:43:04Z</time>
      </trkpt>
      <trkpt lat="46.53714" lon="5.57927">
        <ele>484</ele>
        <time>2022-08-06T04:43:06Z</time>
      </trkpt>
      <trkpt lat="46.53732" lon="5.57932">
        <ele>485.6</ele>
        <time>2022-08-06T04:43:09Z</time>
      </trkpt>
      <trkpt lat="46.53742" lon="5.57935">
        <ele>486.2</ele>
        <time>2022-08-06T04:43:11Z</time>
      </trkpt>
      <trkpt lat="46.53752" lon="5.57938">
        <ele>486.4</ele>
        <time>2022-08-06T04:43:13Z</time>
      </trkpt>
      <trkpt lat="46.53777" lon="5.57945">
        <ele>487.2</ele>
        <time>2022-08-06T04:43:18Z</time>
      </trkpt>
      <trkpt lat="46.53781" lon="5.57947">
        <ele>487.4</ele>
        <time>2022-08-06T04:43:19Z</time>
      </trkpt>
      <trkpt lat="46.53791" lon="5.5795">
        <ele>487.6</ele>
        <time>2022-08-06T04:43:21Z</time>
      </trkpt>
      <trkpt lat="46.538" lon="5.57952">
        <ele>488</ele>
        <time>2022-08-06T04:43:23Z</time>
      </trkpt>
      <trkpt lat="46.53813" lon="5.57957">
        <ele>488.8</ele>
        <time>2022-08-06T04:43:26Z</time>
      </trkpt>
      <trkpt lat="46.53832" lon="5.57962">
        <ele>489.8</ele>
        <time>2022-08-06T04:43:30Z</time>
      </trkpt>
      <trkpt lat="46.53836" lon="5.57963">
        <ele>490</ele>
        <time>2022-08-06T04:43:31Z</time>
      </trkpt>
      <trkpt lat="46.53856" lon="5.57968">
        <ele>490.8</ele>
        <time>2022-08-06T04:43:35Z</time>
      </trkpt>
      <trkpt lat="46.53869" lon="5.57972">
        <ele>491.4</ele>
        <time>2022-08-06T04:43:38Z</time>
      </trkpt>
      <trkpt lat="46.53873" lon="5.57973">
        <ele>491.6</ele>
        <time>2022-08-06T04:43:39Z</time>
      </trkpt>
      <trkpt lat="46.53877" lon="5.57974">
        <ele>492</ele>
        <time>2022-08-06T04:43:40Z</time>
      </trkpt>
      <trkpt lat="46.53892" lon="5.57978">
        <ele>493</ele>
        <time>2022-08-06T04:43:44Z</time>
      </trkpt>
      <trkpt lat="46.53899" lon="5.5798">
        <ele>493.4</ele>
        <time>2022-08-06T04:43:46Z</time>
      </trkpt>
      <trkpt lat="46.53909" lon="5.57981">
        <ele>494</ele>
        <time>2022-08-06T04:43:49Z</time>
      </trkpt>
      <trkpt lat="46.53919" lon="5.57981">
        <ele>494.8</ele>
        <time>2022-08-06T04:43:52Z</time>
      </trkpt>
      <trkpt lat="46.53923" lon="5.57982">
        <ele>495.2</ele>
        <time>2022-08-06T04:43:53Z</time>
      </trkpt>
      <trkpt lat="46.53934" lon="5.57984">
        <ele>496.4</ele>
        <time>2022-08-06T04:43:57Z</time>
      </trkpt>
      <trkpt lat="46.5394" lon="5.57985">
        <ele>497</ele>
        <time>2022-08-06T04:43:59Z</time>
      </trkpt>
      <trkpt lat="46.53945" lon="5.57986">
        <ele>497.4</ele>
        <time>2022-08-06T04:44:01Z</time>
      </trkpt>
      <trkpt lat="46.53955" lon="5.57988">
        <ele>499</ele>
        <time>2022-08-06T04:44:05Z</time>
      </trkpt>
      <trkpt lat="46.53957" lon="5.57989">
        <ele>499.2</ele>
        <time>2022-08-06T04:44:06Z</time>
      </trkpt>
      <trkpt lat="46.53967" lon="5.57991">
        <ele>500</ele>
        <time>2022-08-06T04:44:10Z</time>
      </trkpt>
      <trkpt lat="46.53972" lon="5.57993">
        <ele>501</ele>
        <time>2022-08-06T04:44:12Z</time>
      </trkpt>
      <trkpt lat="46.53974" lon="5.57994">
        <ele>501</ele>
        <time>2022-08-06T04:44:13Z</time>
      </trkpt>
      <trkpt lat="46.53982" lon="5.57996">
        <ele>502</ele>
        <time>2022-08-06T04:44:16Z</time>
      </trkpt>
      <trkpt lat="46.53996" lon="5.58001">
        <ele>503</ele>
        <time>2022-08-06T04:44:21Z</time>
      </trkpt>
      <trkpt lat="46.53999" lon="5.58002">
        <ele>503.2</ele>
        <time>2022-08-06T04:44:22Z</time>
      </trkpt>
      <trkpt lat="46.5402" lon="5.58018">
        <ele>504.2</ele>
        <time>2022-08-06T04:44:29Z</time>
      </trkpt>
      <trkpt lat="46.5404" lon="5.58032">
        <ele>505</ele>
        <time>2022-08-06T04:44:35Z</time>
      </trkpt>
      <trkpt lat="46.54047" lon="5.58037">
        <ele>505.2</ele>
        <time>2022-08-06T04:44:37Z</time>
      </trkpt>
      <trkpt lat="46.54063" lon="5.58054">
        <ele>505.4</ele>
        <time>2022-08-06T04:44:42Z</time>
      </trkpt>
      <trkpt lat="46.54081" lon="5.58079">
        <ele>505.2</ele>
        <time>2022-08-06T04:44:47Z</time>
      </trkpt>
      <trkpt lat="46.54091" lon="5.5809">
        <ele>505.2</ele>
        <time>2022-08-06T04:44:49Z</time>
      </trkpt>
      <trkpt lat="46.54108" lon="5.58108">
        <ele>504.6</ele>
        <time>2022-08-06T04:44:52Z</time>
      </trkpt>
      <trkpt lat="46.54121" lon="5.58121">
        <ele>503.8</ele>
        <time>2022-08-06T04:44:54Z</time>
      </trkpt>
      <trkpt lat="46.54135" lon="5.58136">
        <ele>502.6</ele>
        <time>2022-08-06T04:44:56Z</time>
      </trkpt>
      <trkpt lat="46.54141" lon="5.58144">
        <ele>502.6</ele>
        <time>2022-08-06T04:44:57Z</time>
      </trkpt>
      <trkpt lat="46.54153" lon="5.5816">
        <ele>501.2</ele>
        <time>2022-08-06T04:44:59Z</time>
      </trkpt>
      <trkpt lat="46.54158" lon="5.58169">
        <ele>500.8</ele>
        <time>2022-08-06T04:45:00Z</time>
      </trkpt>
      <trkpt lat="46.54167" lon="5.5819">
        <ele>500.2</ele>
        <time>2022-08-06T04:45:02Z</time>
      </trkpt>
      <trkpt lat="46.54176" lon="5.58229">
        <ele>499.2</ele>
        <time>2022-08-06T04:45:05Z</time>
      </trkpt>
      <trkpt lat="46.54179" lon="5.58242">
        <ele>499</ele>
        <time>2022-08-06T04:45:06Z</time>
      </trkpt>
      <trkpt lat="46.54183" lon="5.58255">
        <ele>498.8</ele>
        <time>2022-08-06T04:45:07Z</time>
      </trkpt>
      <trkpt lat="46.54195" lon="5.58277">
        <ele>497.6</ele>
        <time>2022-08-06T04:45:09Z</time>
      </trkpt>
      <trkpt lat="46.54211" lon="5.58291">
        <ele>496.8</ele>
        <time>2022-08-06T04:45:11Z</time>
      </trkpt>
      <trkpt lat="46.5422" lon="5.58296">
        <ele>496.2</ele>
        <time>2022-08-06T04:45:12Z</time>
      </trkpt>
      <trkpt lat="46.54246" lon="5.58309">
        <ele>495.2</ele>
        <time>2022-08-06T04:45:15Z</time>
      </trkpt>
      <trkpt lat="46.54295" lon="5.58335">
        <ele>494.2</ele>
        <time>2022-08-06T04:45:21Z</time>
      </trkpt>
      <trkpt lat="46.54345" lon="5.5836">
        <ele>494.6</ele>
        <time>2022-08-06T04:45:28Z</time>
      </trkpt>
      <trkpt lat="46.54369" lon="5.58371">
        <ele>495.4</ele>
        <time>2022-08-06T04:45:32Z</time>
      </trkpt>
      <trkpt lat="46.54388" lon="5.58379">
        <ele>496.2</ele>
        <time>2022-08-06T04:45:35Z</time>
      </trkpt>
      <trkpt lat="46.54394" lon="5.58382">
        <ele>496.4</ele>
        <time>2022-08-06T04:45:36Z</time>
      </trkpt>
      <trkpt lat="46.54424" lon="5.58396">
        <ele>497.4</ele>
        <time>2022-08-06T04:45:41Z</time>
      </trkpt>
      <trkpt lat="46.54443" lon="5.58403">
        <ele>498</ele>
        <time>2022-08-06T04:45:44Z</time>
      </trkpt>
      <trkpt lat="46.54479" lon="5.58414">
        <ele>498.6</ele>
        <time>2022-08-06T04:45:50Z</time>
      </trkpt>
      <trkpt lat="46.5449" lon="5.58417">
        <ele>498.8</ele>
        <time>2022-08-06T04:45:52Z</time>
      </trkpt>
      <trkpt lat="46.54518" lon="5.58423">
        <ele>500</ele>
        <time>2022-08-06T04:45:57Z</time>
      </trkpt>
      <trkpt lat="46.54547" lon="5.58429">
        <ele>501.4</ele>
        <time>2022-08-06T04:46:02Z</time>
      </trkpt>
      <trkpt lat="46.54566" lon="5.58431">
        <ele>501.8</ele>
        <time>2022-08-06T04:46:05Z</time>
      </trkpt>
      <trkpt lat="46.54573" lon="5.58434">
        <ele>501.8</ele>
        <time>2022-08-06T04:46:06Z</time>
      </trkpt>
      <trkpt lat="46.5462" lon="5.58446">
        <ele>501.6</ele>
        <time>2022-08-06T04:46:13Z</time>
      </trkpt>
      <trkpt lat="46.54674" lon="5.58458">
        <ele>501.2</ele>
        <time>2022-08-06T04:46:21Z</time>
      </trkpt>
      <trkpt lat="46.54694" lon="5.58462">
        <ele>501</ele>
        <time>2022-08-06T04:46:24Z</time>
      </trkpt>
      <trkpt lat="46.54748" lon="5.58474">
        <ele>501</ele>
        <time>2022-08-06T04:46:32Z</time>
      </trkpt>
      <trkpt lat="46.54762" lon="5.58476">
        <ele>501.2</ele>
        <time>2022-08-06T04:46:34Z</time>
      </trkpt>
      <trkpt lat="46.5482" lon="5.58488">
        <ele>501.4</ele>
        <time>2022-08-06T04:46:43Z</time>
      </trkpt>
      <trkpt lat="46.54825" lon="5.58489">
        <ele>501.2</ele>
        <time>2022-08-06T04:46:44Z</time>
      </trkpt>
      <trkpt lat="46.54884" lon="5.58507">
        <ele>501</ele>
        <time>2022-08-06T04:46:53Z</time>
      </trkpt>
      <trkpt lat="46.54918" lon="5.58525">
        <ele>500.2</ele>
        <time>2022-08-06T04:46:58Z</time>
      </trkpt>
      <trkpt lat="46.54934" lon="5.58534">
        <ele>499.4</ele>
        <time>2022-08-06T04:47:00Z</time>
      </trkpt>
      <trkpt lat="46.54947" lon="5.5854">
        <ele>499</ele>
        <time>2022-08-06T04:47:02Z</time>
      </trkpt>
      <trkpt lat="46.54998" lon="5.58568">
        <ele>498.8</ele>
        <time>2022-08-06T04:47:10Z</time>
      </trkpt>
      <trkpt lat="46.55034" lon="5.58587">
        <ele>499</ele>
        <time>2022-08-06T04:47:16Z</time>
      </trkpt>
      <trkpt lat="46.55074" lon="5.58609">
        <ele>499.6</ele>
        <time>2022-08-06T04:47:23Z</time>
      </trkpt>
      <trkpt lat="46.55091" lon="5.58618">
        <ele>500</ele>
        <time>2022-08-06T04:47:26Z</time>
      </trkpt>
      <trkpt lat="46.55101" lon="5.58624">
        <ele>500.4</ele>
        <time>2022-08-06T04:47:28Z</time>
      </trkpt>
      <trkpt lat="46.55106" lon="5.58626">
        <ele>500.4</ele>
        <time>2022-08-06T04:47:29Z</time>
      </trkpt>
      <trkpt lat="46.55132" lon="5.58638">
        <ele>501.2</ele>
        <time>2022-08-06T04:47:34Z</time>
      </trkpt>
      <trkpt lat="46.55142" lon="5.58645">
        <ele>501.4</ele>
        <time>2022-08-06T04:47:36Z</time>
      </trkpt>
      <trkpt lat="46.55155" lon="5.58653">
        <ele>502.4</ele>
        <time>2022-08-06T04:47:39Z</time>
      </trkpt>
      <trkpt lat="46.55158" lon="5.58654">
        <ele>502.6</ele>
        <time>2022-08-06T04:47:40Z</time>
      </trkpt>
      <trkpt lat="46.55167" lon="5.58658">
        <ele>502.8</ele>
        <time>2022-08-06T04:47:42Z</time>
      </trkpt>
      <trkpt lat="46.55177" lon="5.58662">
        <ele>503.4</ele>
        <time>2022-08-06T04:47:44Z</time>
      </trkpt>
      <trkpt lat="46.55197" lon="5.58672">
        <ele>504.4</ele>
        <time>2022-08-06T04:47:49Z</time>
      </trkpt>
      <trkpt lat="46.55203" lon="5.58675">
        <ele>504.8</ele>
        <time>2022-08-06T04:47:50Z</time>
      </trkpt>
      <trkpt lat="46.55206" lon="5.58677">
        <ele>505</ele>
        <time>2022-08-06T04:47:51Z</time>
      </trkpt>
      <trkpt lat="46.55217" lon="5.5868">
        <ele>505</ele>
        <time>2022-08-06T04:47:53Z</time>
      </trkpt>
      <trkpt lat="46.55226" lon="5.58685">
        <ele>505.4</ele>
        <time>2022-08-06T04:47:55Z</time>
      </trkpt>
      <trkpt lat="46.55279" lon="5.58705">
        <ele>505.2</ele>
        <time>2022-08-06T04:48:04Z</time>
      </trkpt>
      <trkpt lat="46.55324" lon="5.58719">
        <ele>504.8</ele>
        <time>2022-08-06T04:48:11Z</time>
      </trkpt>
      <trkpt lat="46.55358" lon="5.58723">
        <ele>504.8</ele>
        <time>2022-08-06T04:48:17Z</time>
      </trkpt>
      <trkpt lat="46.55363" lon="5.58721">
        <ele>504.8</ele>
        <time>2022-08-06T04:48:18Z</time>
      </trkpt>
      <trkpt lat="46.5537" lon="5.58719">
        <ele>504.8</ele>
        <time>2022-08-06T04:48:19Z</time>
      </trkpt>
      <trkpt lat="46.55379" lon="5.58713">
        <ele>505</ele>
        <time>2022-08-06T04:48:21Z</time>
      </trkpt>
      <trkpt lat="46.55384" lon="5.58709">
        <ele>505</ele>
        <time>2022-08-06T04:48:22Z</time>
      </trkpt>
      <trkpt lat="46.55397" lon="5.58694">
        <ele>505.6</ele>
        <time>2022-08-06T04:48:25Z</time>
      </trkpt>
      <trkpt lat="46.5542" lon="5.58666">
        <ele>506.4</ele>
        <time>2022-08-06T04:48:30Z</time>
      </trkpt>
      <trkpt lat="46.55433" lon="5.58646">
        <ele>506.6</ele>
        <time>2022-08-06T04:48:33Z</time>
      </trkpt>
      <trkpt lat="46.55448" lon="5.58617">
        <ele>507.2</ele>
        <time>2022-08-06T04:48:37Z</time>
      </trkpt>
      <trkpt lat="46.55453" lon="5.58602">
        <ele>507.6</ele>
        <time>2022-08-06T04:48:39Z</time>
      </trkpt>
      <trkpt lat="46.55467" lon="5.58568">
        <ele>508.2</ele>
        <time>2022-08-06T04:48:44Z</time>
      </trkpt>
      <trkpt lat="46.55471" lon="5.58562">
        <ele>508.2</ele>
        <time>2022-08-06T04:48:45Z</time>
      </trkpt>
      <trkpt lat="46.5548" lon="5.58552">
        <ele>508.2</ele>
        <time>2022-08-06T04:48:47Z</time>
      </trkpt>
      <trkpt lat="46.55484" lon="5.58551">
        <ele>508.4</ele>
        <time>2022-08-06T04:48:48Z</time>
      </trkpt>
      <trkpt lat="46.55489" lon="5.5855">
        <ele>508.4</ele>
        <time>2022-08-06T04:48:49Z</time>
      </trkpt>
      <trkpt lat="46.55495" lon="5.58549">
        <ele>508.8</ele>
        <time>2022-08-06T04:48:50Z</time>
      </trkpt>
      <trkpt lat="46.55515" lon="5.58549">
        <ele>509.2</ele>
        <time>2022-08-06T04:48:54Z</time>
      </trkpt>
      <trkpt lat="46.55557" lon="5.58558">
        <ele>509.6</ele>
        <time>2022-08-06T04:49:02Z</time>
      </trkpt>
      <trkpt lat="46.55582" lon="5.58561">
        <ele>509.8</ele>
        <time>2022-08-06T04:49:07Z</time>
      </trkpt>
      <trkpt lat="46.55595" lon="5.5856">
        <ele>510</ele>
        <time>2022-08-06T04:49:10Z</time>
      </trkpt>
      <trkpt lat="46.5562" lon="5.58558">
        <ele>510.6</ele>
        <time>2022-08-06T04:49:15Z</time>
      </trkpt>
      <trkpt lat="46.55625" lon="5.58559">
        <ele>510.8</ele>
        <time>2022-08-06T04:49:16Z</time>
      </trkpt>
      <trkpt lat="46.5563" lon="5.5856">
        <ele>510.8</ele>
        <time>2022-08-06T04:49:17Z</time>
      </trkpt>
      <trkpt lat="46.55634" lon="5.58562">
        <ele>511</ele>
        <time>2022-08-06T04:49:18Z</time>
      </trkpt>
      <trkpt lat="46.55642" lon="5.58568">
        <ele>511.2</ele>
        <time>2022-08-06T04:49:20Z</time>
      </trkpt>
      <trkpt lat="46.55644" lon="5.58574">
        <ele>511.2</ele>
        <time>2022-08-06T04:49:21Z</time>
      </trkpt>
      <trkpt lat="46.55645" lon="5.58581">
        <ele>511.2</ele>
        <time>2022-08-06T04:49:22Z</time>
      </trkpt>
      <trkpt lat="46.55643" lon="5.58599">
        <ele>511.2</ele>
        <time>2022-08-06T04:49:24Z</time>
      </trkpt>
      <trkpt lat="46.55641" lon="5.58627">
        <ele>511.2</ele>
        <time>2022-08-06T04:49:27Z</time>
      </trkpt>
      <trkpt lat="46.55644" lon="5.58645">
        <ele>510.6</ele>
        <time>2022-08-06T04:49:29Z</time>
      </trkpt>
      <trkpt lat="46.55651" lon="5.58661">
        <ele>509.6</ele>
        <time>2022-08-06T04:49:31Z</time>
      </trkpt>
      <trkpt lat="46.55656" lon="5.58668">
        <ele>509.4</ele>
        <time>2022-08-06T04:49:32Z</time>
      </trkpt>
      <trkpt lat="46.55688" lon="5.58695">
        <ele>508.8</ele>
        <time>2022-08-06T04:49:38Z</time>
      </trkpt>
      <trkpt lat="46.55723" lon="5.58728">
        <ele>509</ele>
        <time>2022-08-06T04:49:45Z</time>
      </trkpt>
      <trkpt lat="46.55727" lon="5.58732">
        <ele>509.2</ele>
        <time>2022-08-06T04:49:46Z</time>
      </trkpt>
      <trkpt lat="46.55731" lon="5.58738">
        <ele>509.2</ele>
        <time>2022-08-06T04:49:47Z</time>
      </trkpt>
      <trkpt lat="46.55734" lon="5.58752">
        <ele>509.6</ele>
        <time>2022-08-06T04:49:49Z</time>
      </trkpt>
      <trkpt lat="46.55734" lon="5.58787">
        <ele>510.4</ele>
        <time>2022-08-06T04:49:54Z</time>
      </trkpt>
      <trkpt lat="46.55733" lon="5.58802">
        <ele>510.8</ele>
        <time>2022-08-06T04:49:56Z</time>
      </trkpt>
      <trkpt lat="46.55732" lon="5.58816">
        <ele>511.4</ele>
        <time>2022-08-06T04:49:58Z</time>
      </trkpt>
      <trkpt lat="46.55732" lon="5.58824">
        <ele>511.6</ele>
        <time>2022-08-06T04:49:59Z</time>
      </trkpt>
      <trkpt lat="46.55729" lon="5.58867">
        <ele>512.8</ele>
        <time>2022-08-06T04:50:04Z</time>
      </trkpt>
      <trkpt lat="46.55728" lon="5.58884">
        <ele>512.8</ele>
        <time>2022-08-06T04:50:06Z</time>
      </trkpt>
      <trkpt lat="46.55727" lon="5.58915">
        <ele>513.8</ele>
        <time>2022-08-06T04:50:10Z</time>
      </trkpt>
      <trkpt lat="46.55724" lon="5.58959">
        <ele>514</ele>
        <time>2022-08-06T04:50:16Z</time>
      </trkpt>
      <trkpt lat="46.55726" lon="5.59014">
        <ele>513.6</ele>
        <time>2022-08-06T04:50:23Z</time>
      </trkpt>
      <trkpt lat="46.55739" lon="5.59055">
        <ele>513.4</ele>
        <time>2022-08-06T04:50:28Z</time>
      </trkpt>
      <trkpt lat="46.55754" lon="5.5909">
        <ele>512.8</ele>
        <time>2022-08-06T04:50:32Z</time>
      </trkpt>
      <trkpt lat="46.5576" lon="5.59108">
        <ele>512.4</ele>
        <time>2022-08-06T04:50:34Z</time>
      </trkpt>
      <trkpt lat="46.55767" lon="5.59129">
        <ele>511.6</ele>
        <time>2022-08-06T04:50:36Z</time>
      </trkpt>
      <trkpt lat="46.55776" lon="5.59168">
        <ele>510.8</ele>
        <time>2022-08-06T04:50:40Z</time>
      </trkpt>
      <trkpt lat="46.55784" lon="5.59208">
        <ele>511.2</ele>
        <time>2022-08-06T04:50:45Z</time>
      </trkpt>
      <trkpt lat="46.55792" lon="5.59242">
        <ele>512.6</ele>
        <time>2022-08-06T04:50:50Z</time>
      </trkpt>
      <trkpt lat="46.55796" lon="5.59261">
        <ele>513.8</ele>
        <time>2022-08-06T04:50:53Z</time>
      </trkpt>
      <trkpt lat="46.55802" lon="5.59293">
        <ele>515</ele>
        <time>2022-08-06T04:50:58Z</time>
      </trkpt>
      <trkpt lat="46.55806" lon="5.59316">
        <ele>516.4</ele>
        <time>2022-08-06T04:51:02Z</time>
      </trkpt>
      <trkpt lat="46.55814" lon="5.59344">
        <ele>517.6</ele>
        <time>2022-08-06T04:51:07Z</time>
      </trkpt>
      <trkpt lat="46.55822" lon="5.5937">
        <ele>518.4</ele>
        <time>2022-08-06T04:51:11Z</time>
      </trkpt>
      <trkpt lat="46.55827" lon="5.59383">
        <ele>518.6</ele>
        <time>2022-08-06T04:51:13Z</time>
      </trkpt>
      <trkpt lat="46.5584" lon="5.59426">
        <ele>519.4</ele>
        <time>2022-08-06T04:51:20Z</time>
      </trkpt>
      <trkpt lat="46.55847" lon="5.59445">
        <ele>519.6</ele>
        <time>2022-08-06T04:51:23Z</time>
      </trkpt>
      <trkpt lat="46.55863" lon="5.59492">
        <ele>520</ele>
        <time>2022-08-06T04:51:30Z</time>
      </trkpt>
      <trkpt lat="46.55876" lon="5.59528">
        <ele>520.8</ele>
        <time>2022-08-06T04:51:36Z</time>
      </trkpt>
      <trkpt lat="46.5588" lon="5.59539">
        <ele>521.2</ele>
        <time>2022-08-06T04:51:38Z</time>
      </trkpt>
      <trkpt lat="46.55884" lon="5.5955">
        <ele>521.6</ele>
        <time>2022-08-06T04:51:40Z</time>
      </trkpt>
      <trkpt lat="46.55885" lon="5.59556">
        <ele>521.8</ele>
        <time>2022-08-06T04:51:41Z</time>
      </trkpt>
      <trkpt lat="46.55884" lon="5.59567">
        <ele>522.4</ele>
        <time>2022-08-06T04:51:43Z</time>
      </trkpt>
      <trkpt lat="46.55883" lon="5.59576">
        <ele>522.6</ele>
        <time>2022-08-06T04:51:45Z</time>
      </trkpt>
      <trkpt lat="46.55883" lon="5.5958">
        <ele>523.2</ele>
        <time>2022-08-06T04:51:46Z</time>
      </trkpt>
      <trkpt lat="46.55884" lon="5.59587">
        <ele>523.4</ele>
        <time>2022-08-06T04:51:47Z</time>
      </trkpt>
      <trkpt lat="46.55892" lon="5.59611">
        <ele>524</ele>
        <time>2022-08-06T04:51:51Z</time>
      </trkpt>
      <trkpt lat="46.55895" lon="5.59617">
        <ele>524.2</ele>
        <time>2022-08-06T04:51:52Z</time>
      </trkpt>
      <trkpt lat="46.55899" lon="5.59622">
        <ele>524.2</ele>
        <time>2022-08-06T04:51:53Z</time>
      </trkpt>
      <trkpt lat="46.55911" lon="5.59636">
        <ele>524.4</ele>
        <time>2022-08-06T04:51:56Z</time>
      </trkpt>
      <trkpt lat="46.55915" lon="5.5964">
        <ele>524.6</ele>
        <time>2022-08-06T04:51:57Z</time>
      </trkpt>
      <trkpt lat="46.55921" lon="5.59651">
        <ele>524.6</ele>
        <time>2022-08-06T04:51:59Z</time>
      </trkpt>
      <trkpt lat="46.55925" lon="5.59662">
        <ele>524.8</ele>
        <time>2022-08-06T04:52:01Z</time>
      </trkpt>
      <trkpt lat="46.5593" lon="5.5968">
        <ele>525.6</ele>
        <time>2022-08-06T04:52:04Z</time>
      </trkpt>
      <trkpt lat="46.55936" lon="5.59705">
        <ele>526.4</ele>
        <time>2022-08-06T04:52:08Z</time>
      </trkpt>
      <trkpt lat="46.55937" lon="5.5971">
        <ele>526.6</ele>
        <time>2022-08-06T04:52:09Z</time>
      </trkpt>
      <trkpt lat="46.55945" lon="5.59759">
        <ele>527.6</ele>
        <time>2022-08-06T04:52:16Z</time>
      </trkpt>
      <trkpt lat="46.55949" lon="5.59806">
        <ele>527.6</ele>
        <time>2022-08-06T04:52:22Z</time>
      </trkpt>
      <trkpt lat="46.55949" lon="5.59814">
        <ele>527.6</ele>
        <time>2022-08-06T04:52:23Z</time>
      </trkpt>
      <trkpt lat="46.55952" lon="5.59877">
        <ele>527.8</ele>
        <time>2022-08-06T04:52:30Z</time>
      </trkpt>
      <trkpt lat="46.55958" lon="5.59933">
        <ele>527.2</ele>
        <time>2022-08-06T04:52:36Z</time>
      </trkpt>
      <trkpt lat="46.55953" lon="5.59993">
        <ele>527.2</ele>
        <time>2022-08-06T04:52:43Z</time>
      </trkpt>
      <trkpt lat="46.55949" lon="5.60031">
        <ele>528.2</ele>
        <time>2022-08-06T04:52:48Z</time>
      </trkpt>
      <trkpt lat="46.55947" lon="5.60041">
        <ele>528.2</ele>
        <time>2022-08-06T04:52:49Z</time>
      </trkpt>
      <trkpt lat="46.55942" lon="5.60075">
        <ele>528.6</ele>
        <time>2022-08-06T04:52:53Z</time>
      </trkpt>
      <trkpt lat="46.55936" lon="5.60103">
        <ele>528.6</ele>
        <time>2022-08-06T04:52:56Z</time>
      </trkpt>
      <trkpt lat="46.55923" lon="5.60165">
        <ele>527.6</ele>
        <time>2022-08-06T04:53:02Z</time>
      </trkpt>
      <trkpt lat="46.55924" lon="5.60214">
        <ele>527</ele>
        <time>2022-08-06T04:53:07Z</time>
      </trkpt>
      <trkpt lat="46.55925" lon="5.6029">
        <ele>526.8</ele>
        <time>2022-08-06T04:53:14Z</time>
      </trkpt>
      <trkpt lat="46.55926" lon="5.60316">
        <ele>526</ele>
        <time>2022-08-06T04:53:16Z</time>
      </trkpt>
      <trkpt lat="46.5593" lon="5.60342">
        <ele>525.2</ele>
        <time>2022-08-06T04:53:18Z</time>
      </trkpt>
      <trkpt lat="46.55933" lon="5.60356">
        <ele>525</ele>
        <time>2022-08-06T04:53:19Z</time>
      </trkpt>
      <trkpt lat="46.55936" lon="5.60371">
        <ele>524</ele>
        <time>2022-08-06T04:53:20Z</time>
      </trkpt>
      <trkpt lat="46.55937" lon="5.60401">
        <ele>522.8</ele>
        <time>2022-08-06T04:53:22Z</time>
      </trkpt>
      <trkpt lat="46.55933" lon="5.60418">
        <ele>521.2</ele>
        <time>2022-08-06T04:53:23Z</time>
      </trkpt>
      <trkpt lat="46.55925" lon="5.60453">
        <ele>519.2</ele>
        <time>2022-08-06T04:53:25Z</time>
      </trkpt>
      <trkpt lat="46.55918" lon="5.60489">
        <ele>517.2</ele>
        <time>2022-08-06T04:53:27Z</time>
      </trkpt>
      <trkpt lat="46.55912" lon="5.60524">
        <ele>514.2</ele>
        <time>2022-08-06T04:53:29Z</time>
      </trkpt>
      <trkpt lat="46.55909" lon="5.60539">
        <ele>513.2</ele>
        <time>2022-08-06T04:53:30Z</time>
      </trkpt>
      <trkpt lat="46.55905" lon="5.60552">
        <ele>512.2</ele>
        <time>2022-08-06T04:53:31Z</time>
      </trkpt>
      <trkpt lat="46.55901" lon="5.6056">
        <ele>511.6</ele>
        <time>2022-08-06T04:53:32Z</time>
      </trkpt>
      <trkpt lat="46.55897" lon="5.60567">
        <ele>511.4</ele>
        <time>2022-08-06T04:53:33Z</time>
      </trkpt>
      <trkpt lat="46.55892" lon="5.60572">
        <ele>511.2</ele>
        <time>2022-08-06T04:53:34Z</time>
      </trkpt>
      <trkpt lat="46.55888" lon="5.60576">
        <ele>511.2</ele>
        <time>2022-08-06T04:53:35Z</time>
      </trkpt>
      <trkpt lat="46.55884" lon="5.6059">
        <ele>510.8</ele>
        <time>2022-08-06T04:53:37Z</time>
      </trkpt>
      <trkpt lat="46.55885" lon="5.60598">
        <ele>510.6</ele>
        <time>2022-08-06T04:53:38Z</time>
      </trkpt>
      <trkpt lat="46.55886" lon="5.60606">
        <ele>510.4</ele>
        <time>2022-08-06T04:53:39Z</time>
      </trkpt>
      <trkpt lat="46.55896" lon="5.6064">
        <ele>510.8</ele>
        <time>2022-08-06T04:53:43Z</time>
      </trkpt>
      <trkpt lat="46.55913" lon="5.6071">
        <ele>511.6</ele>
        <time>2022-08-06T04:53:51Z</time>
      </trkpt>
      <trkpt lat="46.55923" lon="5.60759">
        <ele>512.4</ele>
        <time>2022-08-06T04:53:57Z</time>
      </trkpt>
      <trkpt lat="46.55928" lon="5.60818">
        <ele>513.2</ele>
        <time>2022-08-06T04:54:04Z</time>
      </trkpt>
      <trkpt lat="46.5593" lon="5.60853">
        <ele>513.4</ele>
        <time>2022-08-06T04:54:08Z</time>
      </trkpt>
      <trkpt lat="46.55934" lon="5.6089">
        <ele>513.2</ele>
        <time>2022-08-06T04:54:12Z</time>
      </trkpt>
      <trkpt lat="46.55937" lon="5.60907">
        <ele>513.2</ele>
        <time>2022-08-06T04:54:14Z</time>
      </trkpt>
      <trkpt lat="46.55945" lon="5.60944">
        <ele>512.8</ele>
        <time>2022-08-06T04:54:18Z</time>
      </trkpt>
      <trkpt lat="46.55961" lon="5.6101">
        <ele>512.2</ele>
        <time>2022-08-06T04:54:25Z</time>
      </trkpt>
      <trkpt lat="46.55966" lon="5.61029">
        <ele>512</ele>
        <time>2022-08-06T04:54:27Z</time>
      </trkpt>
      <trkpt lat="46.55989" lon="5.61101">
        <ele>511.4</ele>
        <time>2022-08-06T04:54:35Z</time>
      </trkpt>
      <trkpt lat="46.56005" lon="5.61135">
        <ele>511.2</ele>
        <time>2022-08-06T04:54:39Z</time>
      </trkpt>
      <trkpt lat="46.56017" lon="5.61161">
        <ele>511</ele>
        <time>2022-08-06T04:54:42Z</time>
      </trkpt>
      <trkpt lat="46.56049" lon="5.61224">
        <ele>510</ele>
        <time>2022-08-06T04:54:49Z</time>
      </trkpt>
      <trkpt lat="46.56058" lon="5.61243">
        <ele>509.4</ele>
        <time>2022-08-06T04:54:51Z</time>
      </trkpt>
      <trkpt lat="46.56072" lon="5.61271">
        <ele>509</ele>
        <time>2022-08-06T04:54:54Z</time>
      </trkpt>
      <trkpt lat="46.56095" lon="5.61318">
        <ele>508.4</ele>
        <time>2022-08-06T04:54:59Z</time>
      </trkpt>
      <trkpt lat="46.56104" lon="5.61337">
        <ele>508</ele>
        <time>2022-08-06T04:55:01Z</time>
      </trkpt>
      <trkpt lat="46.56123" lon="5.61375">
        <ele>506.8</ele>
        <time>2022-08-06T04:55:05Z</time>
      </trkpt>
      <trkpt lat="46.56139" lon="5.6141">
        <ele>506.6</ele>
        <time>2022-08-06T04:55:09Z</time>
      </trkpt>
      <trkpt lat="46.56172" lon="5.61477">
        <ele>506.6</ele>
        <time>2022-08-06T04:55:17Z</time>
      </trkpt>
      <trkpt lat="46.56176" lon="5.61485">
        <ele>506.6</ele>
        <time>2022-08-06T04:55:18Z</time>
      </trkpt>
      <trkpt lat="46.56207" lon="5.6155">
        <ele>506.8</ele>
        <time>2022-08-06T04:55:26Z</time>
      </trkpt>
      <trkpt lat="46.5622" lon="5.61574">
        <ele>507</ele>
        <time>2022-08-06T04:55:29Z</time>
      </trkpt>
      <trkpt lat="46.56255" lon="5.61634">
        <ele>507.4</ele>
        <time>2022-08-06T04:55:37Z</time>
      </trkpt>
      <trkpt lat="46.5626" lon="5.61641">
        <ele>507.2</ele>
        <time>2022-08-06T04:55:38Z</time>
      </trkpt>
      <trkpt lat="46.56299" lon="5.61691">
        <ele>506.8</ele>
        <time>2022-08-06T04:55:45Z</time>
      </trkpt>
      <trkpt lat="46.56344" lon="5.61747">
        <ele>506</ele>
        <time>2022-08-06T04:55:53Z</time>
      </trkpt>
      <trkpt lat="46.56355" lon="5.61761">
        <ele>506</ele>
        <time>2022-08-06T04:55:55Z</time>
      </trkpt>
      <trkpt lat="46.56362" lon="5.61778">
        <ele>505.8</ele>
        <time>2022-08-06T04:55:57Z</time>
      </trkpt>
      <trkpt lat="46.56364" lon="5.61789">
        <ele>505.8</ele>
        <time>2022-08-06T04:55:58Z</time>
      </trkpt>
      <trkpt lat="46.56364" lon="5.618">
        <ele>505.8</ele>
        <time>2022-08-06T04:55:59Z</time>
      </trkpt>
      <trkpt lat="46.56363" lon="5.61823">
        <ele>505.6</ele>
        <time>2022-08-06T04:56:01Z</time>
      </trkpt>
      <trkpt lat="46.56362" lon="5.61835">
        <ele>505.2</ele>
        <time>2022-08-06T04:56:02Z</time>
      </trkpt>
      <trkpt lat="46.56359" lon="5.61858">
        <ele>504.4</ele>
        <time>2022-08-06T04:56:04Z</time>
      </trkpt>
      <trkpt lat="46.56357" lon="5.61886">
        <ele>503.6</ele>
        <time>2022-08-06T04:56:06Z</time>
      </trkpt>
      <trkpt lat="46.56357" lon="5.61899">
        <ele>503.4</ele>
        <time>2022-08-06T04:56:07Z</time>
      </trkpt>
      <trkpt lat="46.56357" lon="5.61912">
        <ele>503</ele>
        <time>2022-08-06T04:56:08Z</time>
      </trkpt>
      <trkpt lat="46.56358" lon="5.61949">
        <ele>502</ele>
        <time>2022-08-06T04:56:11Z</time>
      </trkpt>
      <trkpt lat="46.56362" lon="5.61988">
        <ele>501</ele>
        <time>2022-08-06T04:56:14Z</time>
      </trkpt>
      <trkpt lat="46.56364" lon="5.62">
        <ele>500.6</ele>
        <time>2022-08-06T04:56:15Z</time>
      </trkpt>
      <trkpt lat="46.56372" lon="5.62037">
        <ele>499.4</ele>
        <time>2022-08-06T04:56:18Z</time>
      </trkpt>
      <trkpt lat="46.56378" lon="5.62061">
        <ele>499</ele>
        <time>2022-08-06T04:56:20Z</time>
      </trkpt>
      <trkpt lat="46.56397" lon="5.6214">
        <ele>498.6</ele>
        <time>2022-08-06T04:56:27Z</time>
      </trkpt>
      <trkpt lat="46.56418" lon="5.62224">
        <ele>498.2</ele>
        <time>2022-08-06T04:56:35Z</time>
      </trkpt>
      <trkpt lat="46.56432" lon="5.62276">
        <ele>497</ele>
        <time>2022-08-06T04:56:40Z</time>
      </trkpt>
      <trkpt lat="46.56439" lon="5.62305">
        <ele>497</ele>
        <time>2022-08-06T04:56:43Z</time>
      </trkpt>
      <trkpt lat="46.5645" lon="5.62358">
        <ele>498.2</ele>
        <time>2022-08-06T04:56:49Z</time>
      </trkpt>
      <trkpt lat="46.56452" lon="5.62366">
        <ele>498.2</ele>
        <time>2022-08-06T04:56:50Z</time>
      </trkpt>
      <trkpt lat="46.56452" lon="5.62374">
        <ele>498.4</ele>
        <time>2022-08-06T04:56:51Z</time>
      </trkpt>
      <trkpt lat="46.56453" lon="5.62398">
        <ele>498.8</ele>
        <time>2022-08-06T04:56:54Z</time>
      </trkpt>
      <trkpt lat="46.56452" lon="5.62406">
        <ele>499</ele>
        <time>2022-08-06T04:56:55Z</time>
      </trkpt>
      <trkpt lat="46.56451" lon="5.62414">
        <ele>499.2</ele>
        <time>2022-08-06T04:56:56Z</time>
      </trkpt>
      <trkpt lat="46.56447" lon="5.62438">
        <ele>499.4</ele>
        <time>2022-08-06T04:56:59Z</time>
      </trkpt>
      <trkpt lat="46.56439" lon="5.62475">
        <ele>500</ele>
        <time>2022-08-06T04:57:04Z</time>
      </trkpt>
      <trkpt lat="46.56438" lon="5.62482">
        <ele>500.4</ele>
        <time>2022-08-06T04:57:05Z</time>
      </trkpt>
      <trkpt lat="46.56429" lon="5.62526">
        <ele>501.4</ele>
        <time>2022-08-06T04:57:11Z</time>
      </trkpt>
      <trkpt lat="46.56426" lon="5.62541">
        <ele>501.6</ele>
        <time>2022-08-06T04:57:13Z</time>
      </trkpt>
      <trkpt lat="46.56416" lon="5.62599">
        <ele>502.2</ele>
        <time>2022-08-06T04:57:21Z</time>
      </trkpt>
      <trkpt lat="46.56416" lon="5.62607">
        <ele>502.4</ele>
        <time>2022-08-06T04:57:22Z</time>
      </trkpt>
      <trkpt lat="46.56416" lon="5.62631">
        <ele>502.8</ele>
        <time>2022-08-06T04:57:25Z</time>
      </trkpt>
      <trkpt lat="46.56418" lon="5.62645">
        <ele>503</ele>
        <time>2022-08-06T04:57:27Z</time>
      </trkpt>
      <trkpt lat="46.56421" lon="5.62665">
        <ele>502.8</ele>
        <time>2022-08-06T04:57:30Z</time>
      </trkpt>
      <trkpt lat="46.56423" lon="5.62672">
        <ele>503.2</ele>
        <time>2022-08-06T04:57:31Z</time>
      </trkpt>
      <trkpt lat="46.56427" lon="5.62685">
        <ele>503.4</ele>
        <time>2022-08-06T04:57:33Z</time>
      </trkpt>
      <trkpt lat="46.56431" lon="5.62695">
        <ele>503.6</ele>
        <time>2022-08-06T04:57:35Z</time>
      </trkpt>
      <trkpt lat="46.5644" lon="5.62709">
        <ele>504.2</ele>
        <time>2022-08-06T04:57:38Z</time>
      </trkpt>
      <trkpt lat="46.56444" lon="5.62714">
        <ele>504.4</ele>
        <time>2022-08-06T04:57:39Z</time>
      </trkpt>
      <trkpt lat="46.56448" lon="5.62719">
        <ele>504.6</ele>
        <time>2022-08-06T04:57:40Z</time>
      </trkpt>
      <trkpt lat="46.56461" lon="5.62736">
        <ele>504.8</ele>
        <time>2022-08-06T04:57:43Z</time>
      </trkpt>
      <trkpt lat="46.56477" lon="5.62751">
        <ele>505</ele>
        <time>2022-08-06T04:57:46Z</time>
      </trkpt>
      <trkpt lat="46.56488" lon="5.62761">
        <ele>505.4</ele>
        <time>2022-08-06T04:57:48Z</time>
      </trkpt>
      <trkpt lat="46.56498" lon="5.62771">
        <ele>505.4</ele>
        <time>2022-08-06T04:57:50Z</time>
      </trkpt>
      <trkpt lat="46.56514" lon="5.62786">
        <ele>505.6</ele>
        <time>2022-08-06T04:57:53Z</time>
      </trkpt>
      <trkpt lat="46.56525" lon="5.62795">
        <ele>506</ele>
        <time>2022-08-06T04:57:55Z</time>
      </trkpt>
      <trkpt lat="46.56545" lon="5.6281">
        <ele>506.4</ele>
        <time>2022-08-06T04:57:59Z</time>
      </trkpt>
      <trkpt lat="46.56554" lon="5.62819">
        <ele>506.6</ele>
        <time>2022-08-06T04:58:01Z</time>
      </trkpt>
      <trkpt lat="46.56573" lon="5.62836">
        <ele>507</ele>
        <time>2022-08-06T04:58:05Z</time>
      </trkpt>
      <trkpt lat="46.56576" lon="5.62841">
        <ele>507</ele>
        <time>2022-08-06T04:58:06Z</time>
      </trkpt>
      <trkpt lat="46.56584" lon="5.62849">
        <ele>507</ele>
        <time>2022-08-06T04:58:08Z</time>
      </trkpt>
      <trkpt lat="46.56594" lon="5.62858">
        <ele>507.4</ele>
        <time>2022-08-06T04:58:10Z</time>
      </trkpt>
      <trkpt lat="46.56597" lon="5.62862">
        <ele>508</ele>
        <time>2022-08-06T04:58:11Z</time>
      </trkpt>
      <trkpt lat="46.56616" lon="5.62887">
        <ele>508.8</ele>
        <time>2022-08-06T04:58:16Z</time>
      </trkpt>
      <trkpt lat="46.56624" lon="5.62896">
        <ele>508.8</ele>
        <time>2022-08-06T04:58:18Z</time>
      </trkpt>
      <trkpt lat="46.56629" lon="5.62906">
        <ele>509</ele>
        <time>2022-08-06T04:58:20Z</time>
      </trkpt>
      <trkpt lat="46.56635" lon="5.62916">
        <ele>509</ele>
        <time>2022-08-06T04:58:22Z</time>
      </trkpt>
      <trkpt lat="46.56654" lon="5.62952">
        <ele>509.4</ele>
        <time>2022-08-06T04:58:29Z</time>
      </trkpt>
      <trkpt lat="46.56657" lon="5.62964">
        <ele>509.6</ele>
        <time>2022-08-06T04:58:31Z</time>
      </trkpt>
      <trkpt lat="46.56659" lon="5.62978">
        <ele>509.6</ele>
        <time>2022-08-06T04:58:33Z</time>
      </trkpt>
      <trkpt lat="46.5666" lon="5.62985">
        <ele>509.8</ele>
        <time>2022-08-06T04:58:34Z</time>
      </trkpt>
      <trkpt lat="46.56663" lon="5.62999">
        <ele>509.8</ele>
        <time>2022-08-06T04:58:36Z</time>
      </trkpt>
      <trkpt lat="46.56666" lon="5.63013">
        <ele>510</ele>
        <time>2022-08-06T04:58:38Z</time>
      </trkpt>
      <trkpt lat="46.5667" lon="5.63028">
        <ele>510.4</ele>
        <time>2022-08-06T04:58:40Z</time>
      </trkpt>
      <trkpt lat="46.56673" lon="5.63042">
        <ele>510.8</ele>
        <time>2022-08-06T04:58:42Z</time>
      </trkpt>
      <trkpt lat="46.56675" lon="5.63049">
        <ele>511</ele>
        <time>2022-08-06T04:58:43Z</time>
      </trkpt>
      <trkpt lat="46.56679" lon="5.63077">
        <ele>511.2</ele>
        <time>2022-08-06T04:58:47Z</time>
      </trkpt>
      <trkpt lat="46.56682" lon="5.63104">
        <ele>511.6</ele>
        <time>2022-08-06T04:58:51Z</time>
      </trkpt>
      <trkpt lat="46.56681" lon="5.6311">
        <ele>512</ele>
        <time>2022-08-06T04:58:52Z</time>
      </trkpt>
      <trkpt lat="46.5668" lon="5.63125">
        <ele>512.4</ele>
        <time>2022-08-06T04:58:54Z</time>
      </trkpt>
      <trkpt lat="46.56676" lon="5.63141">
        <ele>513.2</ele>
        <time>2022-08-06T04:58:57Z</time>
      </trkpt>
      <trkpt lat="46.56675" lon="5.63148">
        <ele>513.4</ele>
        <time>2022-08-06T04:58:58Z</time>
      </trkpt>
      <trkpt lat="46.56673" lon="5.63158">
        <ele>513.8</ele>
        <time>2022-08-06T04:59:00Z</time>
      </trkpt>
      <trkpt lat="46.56671" lon="5.63171">
        <ele>514.2</ele>
        <time>2022-08-06T04:59:02Z</time>
      </trkpt>
      <trkpt lat="46.5667" lon="5.63188">
        <ele>515</ele>
        <time>2022-08-06T04:59:05Z</time>
      </trkpt>
      <trkpt lat="46.56669" lon="5.63196">
        <ele>515.2</ele>
        <time>2022-08-06T04:59:06Z</time>
      </trkpt>
      <trkpt lat="46.56669" lon="5.63202">
        <ele>515.4</ele>
        <time>2022-08-06T04:59:07Z</time>
      </trkpt>
      <trkpt lat="46.5667" lon="5.63221">
        <ele>515.8</ele>
        <time>2022-08-06T04:59:10Z</time>
      </trkpt>
      <trkpt lat="46.56674" lon="5.63237">
        <ele>516.8</ele>
        <time>2022-08-06T04:59:13Z</time>
      </trkpt>
      <trkpt lat="46.56679" lon="5.63247">
        <ele>517.2</ele>
        <time>2022-08-06T04:59:15Z</time>
      </trkpt>
      <trkpt lat="46.56685" lon="5.63256">
        <ele>517.4</ele>
        <time>2022-08-06T04:59:17Z</time>
      </trkpt>
      <trkpt lat="46.56688" lon="5.63259">
        <ele>517.6</ele>
        <time>2022-08-06T04:59:18Z</time>
      </trkpt>
      <trkpt lat="46.56692" lon="5.63263">
        <ele>517.6</ele>
        <time>2022-08-06T04:59:19Z</time>
      </trkpt>
      <trkpt lat="46.56696" lon="5.63265">
        <ele>517.8</ele>
        <time>2022-08-06T04:59:20Z</time>
      </trkpt>
      <trkpt lat="46.56712" lon="5.63272">
        <ele>518</ele>
        <time>2022-08-06T04:59:23Z</time>
      </trkpt>
      <trkpt lat="46.56747" lon="5.63285">
        <ele>518</ele>
        <time>2022-08-06T04:59:30Z</time>
      </trkpt>
      <trkpt lat="46.56798" lon="5.63307">
        <ele>518.2</ele>
        <time>2022-08-06T04:59:39Z</time>
      </trkpt>
      <trkpt lat="46.56835" lon="5.63332">
        <ele>518.2</ele>
        <time>2022-08-06T04:59:46Z</time>
      </trkpt>
      <trkpt lat="46.56867" lon="5.63368">
        <ele>518.6</ele>
        <time>2022-08-06T04:59:53Z</time>
      </trkpt>
      <trkpt lat="46.56889" lon="5.63394">
        <ele>518.8</ele>
        <time>2022-08-06T04:59:58Z</time>
      </trkpt>
      <trkpt lat="46.56905" lon="5.63414">
        <ele>519</ele>
        <time>2022-08-06T05:00:02Z</time>
      </trkpt>
      <trkpt lat="46.56944" lon="5.63456">
        <ele>519.6</ele>
        <time>2022-08-06T05:00:11Z</time>
      </trkpt>
      <trkpt lat="46.56987" lon="5.63486">
        <ele>519.2</ele>
        <time>2022-08-06T05:00:19Z</time>
      </trkpt>
      <trkpt lat="46.57031" lon="5.63516">
        <ele>518.2</ele>
        <time>2022-08-06T05:00:26Z</time>
      </trkpt>
      <trkpt lat="46.57082" lon="5.63559">
        <ele>518</ele>
        <time>2022-08-06T05:00:35Z</time>
      </trkpt>
      <trkpt lat="46.57129" lon="5.63581">
        <ele>518.6</ele>
        <time>2022-08-06T05:00:43Z</time>
      </trkpt>
      <trkpt lat="46.57135" lon="5.63583">
        <ele>518.6</ele>
        <time>2022-08-06T05:00:44Z</time>
      </trkpt>
      <trkpt lat="46.57165" lon="5.63587">
        <ele>518.2</ele>
        <time>2022-08-06T05:00:48Z</time>
      </trkpt>
      <trkpt lat="46.57186" lon="5.63585">
        <ele>517.8</ele>
        <time>2022-08-06T05:00:51Z</time>
      </trkpt>
      <trkpt lat="46.57201" lon="5.63584">
        <ele>517.4</ele>
        <time>2022-08-06T05:00:53Z</time>
      </trkpt>
      <trkpt lat="46.57209" lon="5.63584">
        <ele>517.2</ele>
        <time>2022-08-06T05:00:54Z</time>
      </trkpt>
      <trkpt lat="46.57216" lon="5.63585">
        <ele>517</ele>
        <time>2022-08-06T05:00:55Z</time>
      </trkpt>
      <trkpt lat="46.57232" lon="5.63589">
        <ele>516.8</ele>
        <time>2022-08-06T05:00:57Z</time>
      </trkpt>
      <trkpt lat="46.57239" lon="5.63592">
        <ele>516.8</ele>
        <time>2022-08-06T05:00:58Z</time>
      </trkpt>
      <trkpt lat="46.57291" lon="5.63611">
        <ele>516.4</ele>
        <time>2022-08-06T05:01:06Z</time>
      </trkpt>
      <trkpt lat="46.57333" lon="5.6362">
        <ele>517</ele>
        <time>2022-08-06T05:01:13Z</time>
      </trkpt>
      <trkpt lat="46.57345" lon="5.63631">
        <ele>517.2</ele>
        <time>2022-08-06T05:01:15Z</time>
      </trkpt>
      <trkpt lat="46.57348" lon="5.63638">
        <ele>517.2</ele>
        <time>2022-08-06T05:01:16Z</time>
      </trkpt>
      <trkpt lat="46.57353" lon="5.63654">
        <ele>517.2</ele>
        <time>2022-08-06T05:01:18Z</time>
      </trkpt>
      <trkpt lat="46.57361" lon="5.63686">
        <ele>517.4</ele>
        <time>2022-08-06T05:01:22Z</time>
      </trkpt>
      <trkpt lat="46.5738" lon="5.63752">
        <ele>517.8</ele>
        <time>2022-08-06T05:01:30Z</time>
      </trkpt>
      <trkpt lat="46.57383" lon="5.63761">
        <ele>518</ele>
        <time>2022-08-06T05:01:31Z</time>
      </trkpt>
      <trkpt lat="46.57399" lon="5.63823">
        <ele>518.4</ele>
        <time>2022-08-06T05:01:39Z</time>
      </trkpt>
      <trkpt lat="46.57405" lon="5.63839">
        <ele>518.6</ele>
        <time>2022-08-06T05:01:41Z</time>
      </trkpt>
      <trkpt lat="46.57413" lon="5.63858">
        <ele>518.8</ele>
        <time>2022-08-06T05:01:44Z</time>
      </trkpt>
      <trkpt lat="46.5742" lon="5.63871">
        <ele>518.8</ele>
        <time>2022-08-06T05:01:46Z</time>
      </trkpt>
      <trkpt lat="46.57424" lon="5.63877">
        <ele>518.8</ele>
        <time>2022-08-06T05:01:47Z</time>
      </trkpt>
      <trkpt lat="46.57433" lon="5.63887">
        <ele>518.8</ele>
        <time>2022-08-06T05:01:49Z</time>
      </trkpt>
      <trkpt lat="46.57466" lon="5.6393">
        <ele>519.4</ele>
        <time>2022-08-06T05:01:57Z</time>
      </trkpt>
      <trkpt lat="46.57495" lon="5.63961">
        <ele>519.8</ele>
        <time>2022-08-06T05:02:04Z</time>
      </trkpt>
      <trkpt lat="46.57497" lon="5.63966">
        <ele>519.8</ele>
        <time>2022-08-06T05:02:05Z</time>
      </trkpt>
      <trkpt lat="46.57498" lon="5.63972">
        <ele>520</ele>
        <time>2022-08-06T05:02:06Z</time>
      </trkpt>
      <trkpt lat="46.57494" lon="5.63984">
        <ele>520</ele>
        <time>2022-08-06T05:02:08Z</time>
      </trkpt>
      <trkpt lat="46.57488" lon="5.63994">
        <ele>520</ele>
        <time>2022-08-06T05:02:10Z</time>
      </trkpt>
      <trkpt lat="46.57487" lon="5.63999">
        <ele>520</ele>
        <time>2022-08-06T05:02:11Z</time>
      </trkpt>
      <trkpt lat="46.57487" lon="5.64005">
        <ele>519.8</ele>
        <time>2022-08-06T05:02:12Z</time>
      </trkpt>
      <trkpt lat="46.57493" lon="5.64016">
        <ele>519.8</ele>
        <time>2022-08-06T05:02:14Z</time>
      </trkpt>
      <trkpt lat="46.57509" lon="5.64043">
        <ele>519.8</ele>
        <time>2022-08-06T05:02:18Z</time>
      </trkpt>
      <trkpt lat="46.57523" lon="5.6407">
        <ele>519.8</ele>
        <time>2022-08-06T05:02:22Z</time>
      </trkpt>
      <trkpt lat="46.57527" lon="5.64075">
        <ele>519.8</ele>
        <time>2022-08-06T05:02:23Z</time>
      </trkpt>
      <trkpt lat="46.57531" lon="5.64079">
        <ele>519.8</ele>
        <time>2022-08-06T05:02:24Z</time>
      </trkpt>
      <trkpt lat="46.57547" lon="5.64085">
        <ele>519.8</ele>
        <time>2022-08-06T05:02:27Z</time>
      </trkpt>
      <trkpt lat="46.57582" lon="5.64092">
        <ele>520.8</ele>
        <time>2022-08-06T05:02:33Z</time>
      </trkpt>
      <trkpt lat="46.57589" lon="5.64096">
        <ele>520.8</ele>
        <time>2022-08-06T05:02:34Z</time>
      </trkpt>
      <trkpt lat="46.57626" lon="5.64123">
        <ele>520.6</ele>
        <time>2022-08-06T05:02:41Z</time>
      </trkpt>
      <trkpt lat="46.57665" lon="5.64151">
        <ele>520.8</ele>
        <time>2022-08-06T05:02:48Z</time>
      </trkpt>
      <trkpt lat="46.57719" lon="5.64185">
        <ele>521.2</ele>
        <time>2022-08-06T05:02:58Z</time>
      </trkpt>
      <trkpt lat="46.57726" lon="5.64189">
        <ele>521.2</ele>
        <time>2022-08-06T05:02:59Z</time>
      </trkpt>
      <trkpt lat="46.5773" lon="5.64191">
        <ele>521.2</ele>
        <time>2022-08-06T05:03:00Z</time>
      </trkpt>
      <trkpt lat="46.57762" lon="5.64205">
        <ele>521.6</ele>
        <time>2022-08-06T05:03:06Z</time>
      </trkpt>
      <trkpt lat="46.57768" lon="5.64208">
        <ele>521.8</ele>
        <time>2022-08-06T05:03:07Z</time>
      </trkpt>
      <trkpt lat="46.57803" lon="5.64227">
        <ele>522.8</ele>
        <time>2022-08-06T05:03:14Z</time>
      </trkpt>
      <trkpt lat="46.57808" lon="5.6423">
        <ele>523.2</ele>
        <time>2022-08-06T05:03:15Z</time>
      </trkpt>
      <trkpt lat="46.57842" lon="5.64248">
        <ele>524</ele>
        <time>2022-08-06T05:03:22Z</time>
      </trkpt>
      <trkpt lat="46.57866" lon="5.64261">
        <ele>524.2</ele>
        <time>2022-08-06T05:03:27Z</time>
      </trkpt>
      <trkpt lat="46.57904" lon="5.64282">
        <ele>525.2</ele>
        <time>2022-08-06T05:03:35Z</time>
      </trkpt>
      <trkpt lat="46.57913" lon="5.64287">
        <ele>525.6</ele>
        <time>2022-08-06T05:03:37Z</time>
      </trkpt>
      <trkpt lat="46.57945" lon="5.64307">
        <ele>526.6</ele>
        <time>2022-08-06T05:03:44Z</time>
      </trkpt>
      <trkpt lat="46.5796" lon="5.64315">
        <ele>527</ele>
        <time>2022-08-06T05:03:47Z</time>
      </trkpt>
      <trkpt lat="46.57983" lon="5.64329">
        <ele>527.6</ele>
        <time>2022-08-06T05:03:52Z</time>
      </trkpt>
      <trkpt lat="46.5801" lon="5.64344">
        <ele>528.2</ele>
        <time>2022-08-06T05:03:58Z</time>
      </trkpt>
      <trkpt lat="46.58029" lon="5.64356">
        <ele>528.8</ele>
        <time>2022-08-06T05:04:02Z</time>
      </trkpt>
      <trkpt lat="46.58048" lon="5.6437">
        <ele>529</ele>
        <time>2022-08-06T05:04:06Z</time>
      </trkpt>
      <trkpt lat="46.58074" lon="5.64385">
        <ele>529.8</ele>
        <time>2022-08-06T05:04:11Z</time>
      </trkpt>
      <trkpt lat="46.58093" lon="5.64397">
        <ele>530.4</ele>
        <time>2022-08-06T05:04:15Z</time>
      </trkpt>
      <trkpt lat="46.58102" lon="5.64403">
        <ele>530.8</ele>
        <time>2022-08-06T05:04:17Z</time>
      </trkpt>
      <trkpt lat="46.58126" lon="5.64416">
        <ele>531.4</ele>
        <time>2022-08-06T05:04:22Z</time>
      </trkpt>
      <trkpt lat="46.58152" lon="5.64432">
        <ele>532</ele>
        <time>2022-08-06T05:04:28Z</time>
      </trkpt>
      <trkpt lat="46.58156" lon="5.64434">
        <ele>532.2</ele>
        <time>2022-08-06T05:04:29Z</time>
      </trkpt>
      <trkpt lat="46.58181" lon="5.64449">
        <ele>533.2</ele>
        <time>2022-08-06T05:04:35Z</time>
      </trkpt>
      <trkpt lat="46.58198" lon="5.64463">
        <ele>536.6</ele>
        <time>2022-08-06T05:04:39Z</time>
      </trkpt>
      <trkpt lat="46.5821" lon="5.64475">
        <ele>534.2</ele>
        <time>2022-08-06T05:04:42Z</time>
      </trkpt>
      <trkpt lat="46.58223" lon="5.64494">
        <ele>534.8</ele>
        <time>2022-08-06T05:04:46Z</time>
      </trkpt>
      <trkpt lat="46.58232" lon="5.64511">
        <ele>535.2</ele>
        <time>2022-08-06T05:04:49Z</time>
      </trkpt>
      <trkpt lat="46.58254" lon="5.64542">
        <ele>535.8</ele>
        <time>2022-08-06T05:04:55Z</time>
      </trkpt>
      <trkpt lat="46.58283" lon="5.64574">
        <ele>536.4</ele>
        <time>2022-08-06T05:05:02Z</time>
      </trkpt>
      <trkpt lat="46.58299" lon="5.6459">
        <ele>537.2</ele>
        <time>2022-08-06T05:05:06Z</time>
      </trkpt>
      <trkpt lat="46.58304" lon="5.64594">
        <ele>537.6</ele>
        <time>2022-08-06T05:05:07Z</time>
      </trkpt>
      <trkpt lat="46.58336" lon="5.64625">
        <ele>538</ele>
        <time>2022-08-06T05:05:15Z</time>
      </trkpt>
      <trkpt lat="46.58368" lon="5.64652">
        <ele>538.6</ele>
        <time>2022-08-06T05:05:23Z</time>
      </trkpt>
      <trkpt lat="46.58392" lon="5.6467">
        <ele>539.4</ele>
        <time>2022-08-06T05:05:29Z</time>
      </trkpt>
      <trkpt lat="46.58403" lon="5.64678">
        <ele>540.4</ele>
        <time>2022-08-06T05:05:32Z</time>
      </trkpt>
      <trkpt lat="46.58407" lon="5.64681">
        <ele>540.6</ele>
        <time>2022-08-06T05:05:33Z</time>
      </trkpt>
      <trkpt lat="46.58432" lon="5.64696">
        <ele>541.6</ele>
        <time>2022-08-06T05:05:39Z</time>
      </trkpt>
      <trkpt lat="46.58436" lon="5.64699">
        <ele>541.8</ele>
        <time>2022-08-06T05:05:40Z</time>
      </trkpt>
      <trkpt lat="46.5845" lon="5.64708">
        <ele>542.8</ele>
        <time>2022-08-06T05:05:43Z</time>
      </trkpt>
      <trkpt lat="46.58476" lon="5.64725">
        <ele>542.8</ele>
        <time>2022-08-06T05:05:48Z</time>
      </trkpt>
      <trkpt lat="46.58509" lon="5.64755">
        <ele>542.2</ele>
        <time>2022-08-06T05:05:54Z</time>
      </trkpt>
      <trkpt lat="46.58522" lon="5.64761">
        <ele>542</ele>
        <time>2022-08-06T05:05:56Z</time>
      </trkpt>
      <trkpt lat="46.58529" lon="5.64762">
        <ele>541.8</ele>
        <time>2022-08-06T05:05:57Z</time>
      </trkpt>
      <trkpt lat="46.58535" lon="5.64761">
        <ele>541.4</ele>
        <time>2022-08-06T05:05:58Z</time>
      </trkpt>
      <trkpt lat="46.5857" lon="5.64753">
        <ele>541</ele>
        <time>2022-08-06T05:06:03Z</time>
      </trkpt>
      <trkpt lat="46.58603" lon="5.64758">
        <ele>541</ele>
        <time>2022-08-06T05:06:08Z</time>
      </trkpt>
      <trkpt lat="46.58614" lon="5.64761">
        <ele>541</ele>
        <time>2022-08-06T05:06:10Z</time>
      </trkpt>
      <trkpt lat="46.58625" lon="5.64761">
        <ele>541.4</ele>
        <time>2022-08-06T05:06:12Z</time>
      </trkpt>
      <trkpt lat="46.58647" lon="5.64757">
        <ele>542</ele>
        <time>2022-08-06T05:06:16Z</time>
      </trkpt>
      <trkpt lat="46.58653" lon="5.64757">
        <ele>542.2</ele>
        <time>2022-08-06T05:06:17Z</time>
      </trkpt>
      <trkpt lat="46.5866" lon="5.64758">
        <ele>542.2</ele>
        <time>2022-08-06T05:06:18Z</time>
      </trkpt>
      <trkpt lat="46.5868" lon="5.64769">
        <ele>542.8</ele>
        <time>2022-08-06T05:06:21Z</time>
      </trkpt>
      <trkpt lat="46.58716" lon="5.64791">
        <ele>541.8</ele>
        <time>2022-08-06T05:06:26Z</time>
      </trkpt>
      <trkpt lat="46.58736" lon="5.64797">
        <ele>540.8</ele>
        <time>2022-08-06T05:06:29Z</time>
      </trkpt>
      <trkpt lat="46.58744" lon="5.64798">
        <ele>540.6</ele>
        <time>2022-08-06T05:06:30Z</time>
      </trkpt>
      <trkpt lat="46.58753" lon="5.64797">
        <ele>540.4</ele>
        <time>2022-08-06T05:06:31Z</time>
      </trkpt>
      <trkpt lat="46.58773" lon="5.64788">
        <ele>540.4</ele>
        <time>2022-08-06T05:06:34Z</time>
      </trkpt>
      <trkpt lat="46.5883" lon="5.64759">
        <ele>540</ele>
        <time>2022-08-06T05:06:42Z</time>
      </trkpt>
      <trkpt lat="46.58853" lon="5.64744">
        <ele>539.4</ele>
        <time>2022-08-06T05:06:45Z</time>
      </trkpt>
      <trkpt lat="46.58861" lon="5.64738">
        <ele>539.2</ele>
        <time>2022-08-06T05:06:46Z</time>
      </trkpt>
      <trkpt lat="46.5887" lon="5.64734">
        <ele>539</ele>
        <time>2022-08-06T05:06:47Z</time>
      </trkpt>
      <trkpt lat="46.58887" lon="5.64733">
        <ele>538.8</ele>
        <time>2022-08-06T05:06:49Z</time>
      </trkpt>
      <trkpt lat="46.58903" lon="5.6474">
        <ele>538.4</ele>
        <time>2022-08-06T05:06:51Z</time>
      </trkpt>
      <trkpt lat="46.58911" lon="5.64745">
        <ele>538.4</ele>
        <time>2022-08-06T05:06:52Z</time>
      </trkpt>
      <trkpt lat="46.58926" lon="5.64755">
        <ele>537.2</ele>
        <time>2022-08-06T05:06:54Z</time>
      </trkpt>
      <trkpt lat="46.58943" lon="5.6476">
        <ele>536.8</ele>
        <time>2022-08-06T05:06:56Z</time>
      </trkpt>
      <trkpt lat="46.58969" lon="5.64756">
        <ele>536.6</ele>
        <time>2022-08-06T05:06:59Z</time>
      </trkpt>
      <trkpt lat="46.58975" lon="5.64753">
        <ele>536.4</ele>
        <time>2022-08-06T05:07:00Z</time>
      </trkpt>
      <trkpt lat="46.59009" lon="5.64726">
        <ele>536</ele>
        <time>2022-08-06T05:07:05Z</time>
      </trkpt>
      <trkpt lat="46.59058" lon="5.64684">
        <ele>536.4</ele>
        <time>2022-08-06T05:07:13Z</time>
      </trkpt>
      <trkpt lat="46.59087" lon="5.64664">
        <ele>537</ele>
        <time>2022-08-06T05:07:18Z</time>
      </trkpt>
      <trkpt lat="46.59097" lon="5.64658">
        <ele>537.4</ele>
        <time>2022-08-06T05:07:20Z</time>
      </trkpt>
      <trkpt lat="46.59122" lon="5.64642">
        <ele>538.4</ele>
        <time>2022-08-06T05:07:25Z</time>
      </trkpt>
      <trkpt lat="46.59127" lon="5.64639">
        <ele>538.6</ele>
        <time>2022-08-06T05:07:26Z</time>
      </trkpt>
      <trkpt lat="46.59146" lon="5.64626">
        <ele>539.4</ele>
        <time>2022-08-06T05:07:30Z</time>
      </trkpt>
      <trkpt lat="46.59158" lon="5.64617">
        <ele>539.8</ele>
        <time>2022-08-06T05:07:33Z</time>
      </trkpt>
      <trkpt lat="46.59175" lon="5.64603">
        <ele>540.6</ele>
        <time>2022-08-06T05:07:37Z</time>
      </trkpt>
      <trkpt lat="46.59188" lon="5.64594">
        <ele>541.2</ele>
        <time>2022-08-06T05:07:40Z</time>
      </trkpt>
      <trkpt lat="46.59202" lon="5.6459">
        <ele>541.6</ele>
        <time>2022-08-06T05:07:43Z</time>
      </trkpt>
      <trkpt lat="46.59211" lon="5.64591">
        <ele>541.8</ele>
        <time>2022-08-06T05:07:45Z</time>
      </trkpt>
      <trkpt lat="46.59236" lon="5.6459">
        <ele>543</ele>
        <time>2022-08-06T05:07:50Z</time>
      </trkpt>
      <trkpt lat="46.59247" lon="5.64588">
        <ele>543.2</ele>
        <time>2022-08-06T05:07:52Z</time>
      </trkpt>
      <trkpt lat="46.59281" lon="5.64576">
        <ele>544</ele>
        <time>2022-08-06T05:07:59Z</time>
      </trkpt>
      <trkpt lat="46.59317" lon="5.64564">
        <ele>545</ele>
        <time>2022-08-06T05:08:06Z</time>
      </trkpt>
      <trkpt lat="46.59327" lon="5.64561">
        <ele>545</ele>
        <time>2022-08-06T05:08:08Z</time>
      </trkpt>
      <trkpt lat="46.59332" lon="5.64561">
        <ele>545</ele>
        <time>2022-08-06T05:08:09Z</time>
      </trkpt>
      <trkpt lat="46.59356" lon="5.64563">
        <ele>545.6</ele>
        <time>2022-08-06T05:08:14Z</time>
      </trkpt>
      <trkpt lat="46.5937" lon="5.64567">
        <ele>546</ele>
        <time>2022-08-06T05:08:17Z</time>
      </trkpt>
      <trkpt lat="46.59398" lon="5.64576">
        <ele>547</ele>
        <time>2022-08-06T05:08:23Z</time>
      </trkpt>
      <trkpt lat="46.59402" lon="5.64578">
        <ele>547.2</ele>
        <time>2022-08-06T05:08:24Z</time>
      </trkpt>
      <trkpt lat="46.59421" lon="5.64585">
        <ele>548</ele>
        <time>2022-08-06T05:08:28Z</time>
      </trkpt>
      <trkpt lat="46.59441" lon="5.6459">
        <ele>548.6</ele>
        <time>2022-08-06T05:08:32Z</time>
      </trkpt>
      <trkpt lat="46.59455" lon="5.64594">
        <ele>549.2</ele>
        <time>2022-08-06T05:08:35Z</time>
      </trkpt>
      <trkpt lat="46.59484" lon="5.64602">
        <ele>549.4</ele>
        <time>2022-08-06T05:08:41Z</time>
      </trkpt>
      <trkpt lat="46.59526" lon="5.64613">
        <ele>549.2</ele>
        <time>2022-08-06T05:08:49Z</time>
      </trkpt>
      <trkpt lat="46.59561" lon="5.64624">
        <ele>549</ele>
        <time>2022-08-06T05:08:55Z</time>
      </trkpt>
      <trkpt lat="46.59605" lon="5.64639">
        <ele>549.6</ele>
        <time>2022-08-06T05:09:03Z</time>
      </trkpt>
      <trkpt lat="46.59625" lon="5.64642">
        <ele>550.2</ele>
        <time>2022-08-06T05:09:07Z</time>
      </trkpt>
      <trkpt lat="46.59635" lon="5.64641">
        <ele>550.6</ele>
        <time>2022-08-06T05:09:09Z</time>
      </trkpt>
      <trkpt lat="46.5964" lon="5.6464">
        <ele>550.8</ele>
        <time>2022-08-06T05:09:10Z</time>
      </trkpt>
      <trkpt lat="46.59651" lon="5.64635">
        <ele>551.4</ele>
        <time>2022-08-06T05:09:12Z</time>
      </trkpt>
      <trkpt lat="46.59662" lon="5.64629">
        <ele>551.6</ele>
        <time>2022-08-06T05:09:14Z</time>
      </trkpt>
      <trkpt lat="46.59675" lon="5.64619">
        <ele>552</ele>
        <time>2022-08-06T05:09:17Z</time>
      </trkpt>
      <trkpt lat="46.59689" lon="5.64607">
        <ele>552.4</ele>
        <time>2022-08-06T05:09:20Z</time>
      </trkpt>
      <trkpt lat="46.59693" lon="5.64604">
        <ele>552.6</ele>
        <time>2022-08-06T05:09:21Z</time>
      </trkpt>
      <trkpt lat="46.59708" lon="5.6459">
        <ele>553.2</ele>
        <time>2022-08-06T05:09:25Z</time>
      </trkpt>
      <trkpt lat="46.59712" lon="5.64586">
        <ele>553.4</ele>
        <time>2022-08-06T05:09:26Z</time>
      </trkpt>
      <trkpt lat="46.59717" lon="5.64584">
        <ele>553.6</ele>
        <time>2022-08-06T05:09:27Z</time>
      </trkpt>
      <trkpt lat="46.59725" lon="5.6458">
        <ele>554</ele>
        <time>2022-08-06T05:09:29Z</time>
      </trkpt>
      <trkpt lat="46.59732" lon="5.6457">
        <ele>554.4</ele>
        <time>2022-08-06T05:09:31Z</time>
      </trkpt>
      <trkpt lat="46.59737" lon="5.64555">
        <ele>554.6</ele>
        <time>2022-08-06T05:09:33Z</time>
      </trkpt>
      <trkpt lat="46.5974" lon="5.64539">
        <ele>554.8</ele>
        <time>2022-08-06T05:09:35Z</time>
      </trkpt>
      <trkpt lat="46.5975" lon="5.64508">
        <ele>554.8</ele>
        <time>2022-08-06T05:09:39Z</time>
      </trkpt>
      <trkpt lat="46.59757" lon="5.64493">
        <ele>554.6</ele>
        <time>2022-08-06T05:09:41Z</time>
      </trkpt>
      <trkpt lat="46.59777" lon="5.6445">
        <ele>553.8</ele>
        <time>2022-08-06T05:09:46Z</time>
      </trkpt>
      <trkpt lat="46.59786" lon="5.64431">
        <ele>553.4</ele>
        <time>2022-08-06T05:09:48Z</time>
      </trkpt>
      <trkpt lat="46.59801" lon="5.64403">
        <ele>552.2</ele>
        <time>2022-08-06T05:09:51Z</time>
      </trkpt>
      <trkpt lat="46.59812" lon="5.64382">
        <ele>551.4</ele>
        <time>2022-08-06T05:09:53Z</time>
      </trkpt>
      <trkpt lat="46.59817" lon="5.64371">
        <ele>551</ele>
        <time>2022-08-06T05:09:54Z</time>
      </trkpt>
      <trkpt lat="46.59833" lon="5.64339">
        <ele>549.8</ele>
        <time>2022-08-06T05:09:57Z</time>
      </trkpt>
      <trkpt lat="46.59844" lon="5.64319">
        <ele>549</ele>
        <time>2022-08-06T05:09:59Z</time>
      </trkpt>
      <trkpt lat="46.5985" lon="5.64308">
        <ele>548.8</ele>
        <time>2022-08-06T05:10:00Z</time>
      </trkpt>
      <trkpt lat="46.59861" lon="5.64286">
        <ele>547.4</ele>
        <time>2022-08-06T05:10:02Z</time>
      </trkpt>
      <trkpt lat="46.59877" lon="5.64254">
        <ele>546.2</ele>
        <time>2022-08-06T05:10:05Z</time>
      </trkpt>
      <trkpt lat="46.59898" lon="5.64214">
        <ele>544.8</ele>
        <time>2022-08-06T05:10:09Z</time>
      </trkpt>
      <trkpt lat="46.59914" lon="5.64186">
        <ele>544.6</ele>
        <time>2022-08-06T05:10:12Z</time>
      </trkpt>
      <trkpt lat="46.59946" lon="5.64124">
        <ele>544.4</ele>
        <time>2022-08-06T05:10:19Z</time>
      </trkpt>
      <trkpt lat="46.5996" lon="5.64102">
        <ele>544.8</ele>
        <time>2022-08-06T05:10:22Z</time>
      </trkpt>
      <trkpt lat="46.59965" lon="5.64098">
        <ele>544.8</ele>
        <time>2022-08-06T05:10:23Z</time>
      </trkpt>
      <trkpt lat="46.5997" lon="5.64096">
        <ele>545</ele>
        <time>2022-08-06T05:10:24Z</time>
      </trkpt>
      <trkpt lat="46.59983" lon="5.64096">
        <ele>545.4</ele>
        <time>2022-08-06T05:10:26Z</time>
      </trkpt>
      <trkpt lat="46.59996" lon="5.64095">
        <ele>546</ele>
        <time>2022-08-06T05:10:28Z</time>
      </trkpt>
      <trkpt lat="46.60007" lon="5.64093">
        <ele>546.2</ele>
        <time>2022-08-06T05:10:30Z</time>
      </trkpt>
      <trkpt lat="46.60019" lon="5.64091">
        <ele>546.8</ele>
        <time>2022-08-06T05:10:32Z</time>
      </trkpt>
      <trkpt lat="46.60044" lon="5.64083">
        <ele>547.4</ele>
        <time>2022-08-06T05:10:36Z</time>
      </trkpt>
      <trkpt lat="46.60063" lon="5.64079">
        <ele>547.6</ele>
        <time>2022-08-06T05:10:39Z</time>
      </trkpt>
      <trkpt lat="46.60094" lon="5.64072">
        <ele>547.8</ele>
        <time>2022-08-06T05:10:44Z</time>
      </trkpt>
      <trkpt lat="46.60101" lon="5.6407">
        <ele>547.8</ele>
        <time>2022-08-06T05:10:45Z</time>
      </trkpt>
      <trkpt lat="46.60134" lon="5.64069">
        <ele>547.8</ele>
        <time>2022-08-06T05:10:50Z</time>
      </trkpt>
      <trkpt lat="46.60168" lon="5.64077">
        <ele>547.4</ele>
        <time>2022-08-06T05:10:55Z</time>
      </trkpt>
      <trkpt lat="46.6019" lon="5.64077">
        <ele>547</ele>
        <time>2022-08-06T05:10:58Z</time>
      </trkpt>
      <trkpt lat="46.60198" lon="5.64077">
        <ele>546.8</ele>
        <time>2022-08-06T05:10:59Z</time>
      </trkpt>
      <trkpt lat="46.60242" lon="5.64077">
        <ele>546</ele>
        <time>2022-08-06T05:11:05Z</time>
      </trkpt>
      <trkpt lat="46.60249" lon="5.64077">
        <ele>546</ele>
        <time>2022-08-06T05:11:06Z</time>
      </trkpt>
      <trkpt lat="46.6027" lon="5.64085">
        <ele>545.8</ele>
        <time>2022-08-06T05:11:09Z</time>
      </trkpt>
      <trkpt lat="46.60327" lon="5.641">
        <ele>545.8</ele>
        <time>2022-08-06T05:11:17Z</time>
      </trkpt>
      <trkpt lat="46.60341" lon="5.64104">
        <ele>545.8</ele>
        <time>2022-08-06T05:11:19Z</time>
      </trkpt>
      <trkpt lat="46.60395" lon="5.64119">
        <ele>546.4</ele>
        <time>2022-08-06T05:11:27Z</time>
      </trkpt>
      <trkpt lat="46.60433" lon="5.64134">
        <ele>547</ele>
        <time>2022-08-06T05:11:33Z</time>
      </trkpt>
      <trkpt lat="46.6048" lon="5.64148">
        <ele>547.8</ele>
        <time>2022-08-06T05:11:41Z</time>
      </trkpt>
      <trkpt lat="46.60486" lon="5.64148">
        <ele>548</ele>
        <time>2022-08-06T05:11:42Z</time>
      </trkpt>
      <trkpt lat="46.60498" lon="5.64147">
        <ele>548</ele>
        <time>2022-08-06T05:11:44Z</time>
      </trkpt>
      <trkpt lat="46.60518" lon="5.64145">
        <ele>548</ele>
        <time>2022-08-06T05:11:47Z</time>
      </trkpt>
      <trkpt lat="46.60536" lon="5.64151">
        <ele>548.2</ele>
        <time>2022-08-06T05:11:50Z</time>
      </trkpt>
      <trkpt lat="46.60548" lon="5.64152">
        <ele>548.4</ele>
        <time>2022-08-06T05:11:52Z</time>
      </trkpt>
      <trkpt lat="46.60576" lon="5.64148">
        <ele>548.8</ele>
        <time>2022-08-06T05:11:57Z</time>
      </trkpt>
      <trkpt lat="46.60582" lon="5.64146">
        <ele>549</ele>
        <time>2022-08-06T05:11:58Z</time>
      </trkpt>
      <trkpt lat="46.60592" lon="5.64142">
        <ele>549.2</ele>
        <time>2022-08-06T05:12:00Z</time>
      </trkpt>
      <trkpt lat="46.60606" lon="5.64138">
        <ele>549.8</ele>
        <time>2022-08-06T05:12:03Z</time>
      </trkpt>
      <trkpt lat="46.60611" lon="5.64138">
        <ele>550</ele>
        <time>2022-08-06T05:12:04Z</time>
      </trkpt>
      <trkpt lat="46.60631" lon="5.64138">
        <ele>550.8</ele>
        <time>2022-08-06T05:12:08Z</time>
      </trkpt>
      <trkpt lat="46.60636" lon="5.6414">
        <ele>551</ele>
        <time>2022-08-06T05:12:09Z</time>
      </trkpt>
      <trkpt lat="46.60642" lon="5.64141">
        <ele>551.2</ele>
        <time>2022-08-06T05:12:10Z</time>
      </trkpt>
      <trkpt lat="46.60692" lon="5.64155">
        <ele>552.2</ele>
        <time>2022-08-06T05:12:19Z</time>
      </trkpt>
      <trkpt lat="46.6074" lon="5.64165">
        <ele>552.6</ele>
        <time>2022-08-06T05:12:27Z</time>
      </trkpt>
      <trkpt lat="46.6078" lon="5.64161">
        <ele>552.2</ele>
        <time>2022-08-06T05:12:33Z</time>
      </trkpt>
      <trkpt lat="46.60835" lon="5.64154">
        <ele>551.6</ele>
        <time>2022-08-06T05:12:41Z</time>
      </trkpt>
      <trkpt lat="46.60842" lon="5.64154">
        <ele>551.4</ele>
        <time>2022-08-06T05:12:42Z</time>
      </trkpt>
      <trkpt lat="46.60885" lon="5.64155">
        <ele>551.6</ele>
        <time>2022-08-06T05:12:48Z</time>
      </trkpt>
      <trkpt lat="46.60924" lon="5.64159">
        <ele>552.4</ele>
        <time>2022-08-06T05:12:55Z</time>
      </trkpt>
      <trkpt lat="46.60945" lon="5.6416">
        <ele>553.4</ele>
        <time>2022-08-06T05:12:59Z</time>
      </trkpt>
      <trkpt lat="46.60965" lon="5.64161">
        <ele>554.4</ele>
        <time>2022-08-06T05:13:03Z</time>
      </trkpt>
      <trkpt lat="46.61024" lon="5.64155">
        <ele>555.4</ele>
        <time>2022-08-06T05:13:14Z</time>
      </trkpt>
      <trkpt lat="46.61024" lon="5.64155">
        <ele>555.4</ele>
        <time>2022-08-06T05:13:15Z</time>
      </trkpt>
      <trkpt lat="46.61068" lon="5.6415">
        <ele>556.6</ele>
        <time>2022-08-06T05:13:22Z</time>
      </trkpt>
      <trkpt lat="46.61084" lon="5.64149">
        <ele>556.8</ele>
        <time>2022-08-06T05:13:25Z</time>
      </trkpt>
      <trkpt lat="46.61102" lon="5.64151">
        <ele>556.8</ele>
        <time>2022-08-06T05:13:28Z</time>
      </trkpt>
      <trkpt lat="46.61113" lon="5.64155">
        <ele>557</ele>
        <time>2022-08-06T05:13:30Z</time>
      </trkpt>
      <trkpt lat="46.61123" lon="5.64162">
        <ele>557</ele>
        <time>2022-08-06T05:13:32Z</time>
      </trkpt>
      <trkpt lat="46.61134" lon="5.64172">
        <ele>557</ele>
        <time>2022-08-06T05:13:34Z</time>
      </trkpt>
      <trkpt lat="46.61145" lon="5.64184">
        <ele>557</ele>
        <time>2022-08-06T05:13:36Z</time>
      </trkpt>
      <trkpt lat="46.6117" lon="5.64212">
        <ele>556.4</ele>
        <time>2022-08-06T05:13:40Z</time>
      </trkpt>
      <trkpt lat="46.61174" lon="5.64222">
        <ele>556.2</ele>
        <time>2022-08-06T05:13:41Z</time>
      </trkpt>
      <trkpt lat="46.6118" lon="5.64245">
        <ele>555.8</ele>
        <time>2022-08-06T05:13:43Z</time>
      </trkpt>
      <trkpt lat="46.61178" lon="5.64259">
        <ele>555.4</ele>
        <time>2022-08-06T05:13:44Z</time>
      </trkpt>
      <trkpt lat="46.61176" lon="5.64272">
        <ele>555.2</ele>
        <time>2022-08-06T05:13:45Z</time>
      </trkpt>
      <trkpt lat="46.61171" lon="5.64302">
        <ele>553.6</ele>
        <time>2022-08-06T05:13:47Z</time>
      </trkpt>
      <trkpt lat="46.6117" lon="5.64318">
        <ele>553.2</ele>
        <time>2022-08-06T05:13:48Z</time>
      </trkpt>
      <trkpt lat="46.61169" lon="5.64333">
        <ele>552</ele>
        <time>2022-08-06T05:13:49Z</time>
      </trkpt>
      <trkpt lat="46.61174" lon="5.64362">
        <ele>550.4</ele>
        <time>2022-08-06T05:13:51Z</time>
      </trkpt>
      <trkpt lat="46.61187" lon="5.64387">
        <ele>548.8</ele>
        <time>2022-08-06T05:13:53Z</time>
      </trkpt>
      <trkpt lat="46.61211" lon="5.64415">
        <ele>547.4</ele>
        <time>2022-08-06T05:13:56Z</time>
      </trkpt>
      <trkpt lat="46.6122" lon="5.64423">
        <ele>547</ele>
        <time>2022-08-06T05:13:57Z</time>
      </trkpt>
      <trkpt lat="46.61229" lon="5.6443">
        <ele>546.2</ele>
        <time>2022-08-06T05:13:58Z</time>
      </trkpt>
      <trkpt lat="46.61238" lon="5.64436">
        <ele>546</ele>
        <time>2022-08-06T05:13:59Z</time>
      </trkpt>
      <trkpt lat="46.61238" lon="5.64436">
        <ele>545.2</ele>
        <time>2022-08-06T05:14:00Z</time>
      </trkpt>
      <trkpt lat="46.61257" lon="5.64444">
        <ele>545</ele>
        <time>2022-08-06T05:14:01Z</time>
      </trkpt>
      <trkpt lat="46.61288" lon="5.64451">
        <ele>544</ele>
        <time>2022-08-06T05:14:04Z</time>
      </trkpt>
      <trkpt lat="46.6131" lon="5.64454">
        <ele>543.2</ele>
        <time>2022-08-06T05:14:06Z</time>
      </trkpt>
      <trkpt lat="46.61321" lon="5.64453">
        <ele>542.6</ele>
        <time>2022-08-06T05:14:07Z</time>
      </trkpt>
      <trkpt lat="46.61342" lon="5.64451">
        <ele>541.2</ele>
        <time>2022-08-06T05:14:09Z</time>
      </trkpt>
      <trkpt lat="46.61366" lon="5.64446">
        <ele>540.2</ele>
        <time>2022-08-06T05:14:11Z</time>
      </trkpt>
      <trkpt lat="46.61395" lon="5.64441">
        <ele>539</ele>
        <time>2022-08-06T05:14:14Z</time>
      </trkpt>
      <trkpt lat="46.61443" lon="5.64429">
        <ele>538</ele>
        <time>2022-08-06T05:14:19Z</time>
      </trkpt>
      <trkpt lat="46.61452" lon="5.64426">
        <ele>538</ele>
        <time>2022-08-06T05:14:20Z</time>
      </trkpt>
      <trkpt lat="46.61479" lon="5.64413">
        <ele>538</ele>
        <time>2022-08-06T05:14:23Z</time>
      </trkpt>
      <trkpt lat="46.61506" lon="5.64391">
        <ele>538.6</ele>
        <time>2022-08-06T05:14:27Z</time>
      </trkpt>
      <trkpt lat="46.61512" lon="5.64385">
        <ele>539</ele>
        <time>2022-08-06T05:14:28Z</time>
      </trkpt>
      <trkpt lat="46.61528" lon="5.64366">
        <ele>540</ele>
        <time>2022-08-06T05:14:31Z</time>
      </trkpt>
      <trkpt lat="46.61535" lon="5.64358">
        <ele>540.4</ele>
        <time>2022-08-06T05:14:32Z</time>
      </trkpt>
      <trkpt lat="46.6154" lon="5.64352">
        <ele>540.4</ele>
        <time>2022-08-06T05:14:33Z</time>
      </trkpt>
      <trkpt lat="46.61551" lon="5.6434">
        <ele>541</ele>
        <time>2022-08-06T05:14:35Z</time>
      </trkpt>
      <trkpt lat="46.61571" lon="5.64326">
        <ele>541.2</ele>
        <time>2022-08-06T05:14:38Z</time>
      </trkpt>
      <trkpt lat="46.6159" lon="5.64317">
        <ele>541.8</ele>
        <time>2022-08-06T05:14:41Z</time>
      </trkpt>
      <trkpt lat="46.61602" lon="5.64314">
        <ele>542</ele>
        <time>2022-08-06T05:14:43Z</time>
      </trkpt>
      <trkpt lat="46.61609" lon="5.64313">
        <ele>542.2</ele>
        <time>2022-08-06T05:14:44Z</time>
      </trkpt>
      <trkpt lat="46.61615" lon="5.64312">
        <ele>542.2</ele>
        <time>2022-08-06T05:14:45Z</time>
      </trkpt>
      <trkpt lat="46.61635" lon="5.64303">
        <ele>542.6</ele>
        <time>2022-08-06T05:14:48Z</time>
      </trkpt>
      <trkpt lat="46.61642" lon="5.64299">
        <ele>542.6</ele>
        <time>2022-08-06T05:14:49Z</time>
      </trkpt>
      <trkpt lat="46.61654" lon="5.64287">
        <ele>543</ele>
        <time>2022-08-06T05:14:52Z</time>
      </trkpt>
      <trkpt lat="46.6166" lon="5.6428">
        <ele>543.2</ele>
        <time>2022-08-06T05:14:53Z</time>
      </trkpt>
      <trkpt lat="46.61682" lon="5.64246">
        <ele>543.2</ele>
        <time>2022-08-06T05:14:56Z</time>
      </trkpt>
      <trkpt lat="46.61687" lon="5.64236">
        <ele>543.2</ele>
        <time>2022-08-06T05:14:57Z</time>
      </trkpt>
      <trkpt lat="46.61714" lon="5.64183">
        <ele>542.8</ele>
        <time>2022-08-06T05:15:03Z</time>
      </trkpt>
      <trkpt lat="46.61714" lon="5.64183">
        <ele>542.6</ele>
        <time>2022-08-06T05:15:04Z</time>
      </trkpt>
      <trkpt lat="46.61726" lon="5.64168">
        <ele>542.6</ele>
        <time>2022-08-06T05:15:05Z</time>
      </trkpt>
      <trkpt lat="46.61739" lon="5.64158">
        <ele>542.4</ele>
        <time>2022-08-06T05:15:07Z</time>
      </trkpt>
      <trkpt lat="46.61752" lon="5.64153">
        <ele>542.4</ele>
        <time>2022-08-06T05:15:09Z</time>
      </trkpt>
      <trkpt lat="46.61764" lon="5.64151">
        <ele>542.4</ele>
        <time>2022-08-06T05:15:11Z</time>
      </trkpt>
      <trkpt lat="46.61819" lon="5.64148">
        <ele>542.4</ele>
        <time>2022-08-06T05:15:18Z</time>
      </trkpt>
      <trkpt lat="46.61854" lon="5.64147">
        <ele>542</ele>
        <time>2022-08-06T05:15:22Z</time>
      </trkpt>
      <trkpt lat="46.61897" lon="5.64144">
        <ele>540.8</ele>
        <time>2022-08-06T05:15:27Z</time>
      </trkpt>
      <trkpt lat="46.61934" lon="5.64139">
        <ele>539.6</ele>
        <time>2022-08-06T05:15:31Z</time>
      </trkpt>
      <trkpt lat="46.61969" lon="5.64137">
        <ele>539</ele>
        <time>2022-08-06T05:15:35Z</time>
      </trkpt>
      <trkpt lat="46.61998" lon="5.64136">
        <ele>538.4</ele>
        <time>2022-08-06T05:15:38Z</time>
      </trkpt>
      <trkpt lat="46.62028" lon="5.64132">
        <ele>537.6</ele>
        <time>2022-08-06T05:15:41Z</time>
      </trkpt>
      <trkpt lat="46.62028" lon="5.64132">
        <ele>537.4</ele>
        <time>2022-08-06T05:15:42Z</time>
      </trkpt>
      <trkpt lat="46.62067" lon="5.6412">
        <ele>535.4</ele>
        <time>2022-08-06T05:15:45Z</time>
      </trkpt>
      <trkpt lat="46.62086" lon="5.64113">
        <ele>534.4</ele>
        <time>2022-08-06T05:15:47Z</time>
      </trkpt>
      <trkpt lat="46.62096" lon="5.64109">
        <ele>534</ele>
        <time>2022-08-06T05:15:48Z</time>
      </trkpt>
      <trkpt lat="46.62134" lon="5.64103">
        <ele>533.2</ele>
        <time>2022-08-06T05:15:52Z</time>
      </trkpt>
      <trkpt lat="46.62153" lon="5.64104">
        <ele>532.8</ele>
        <time>2022-08-06T05:15:54Z</time>
      </trkpt>
      <trkpt lat="46.62171" lon="5.64104">
        <ele>532.4</ele>
        <time>2022-08-06T05:15:56Z</time>
      </trkpt>
      <trkpt lat="46.62189" lon="5.641">
        <ele>532.2</ele>
        <time>2022-08-06T05:15:58Z</time>
      </trkpt>
      <trkpt lat="46.62197" lon="5.64096">
        <ele>532</ele>
        <time>2022-08-06T05:15:59Z</time>
      </trkpt>
      <trkpt lat="46.62233" lon="5.64071">
        <ele>532</ele>
        <time>2022-08-06T05:16:04Z</time>
      </trkpt>
      <trkpt lat="46.6227" lon="5.64054">
        <ele>533</ele>
        <time>2022-08-06T05:16:09Z</time>
      </trkpt>
      <trkpt lat="46.62278" lon="5.64052">
        <ele>533</ele>
        <time>2022-08-06T05:16:10Z</time>
      </trkpt>
      <trkpt lat="46.62312" lon="5.64053">
        <ele>532.6</ele>
        <time>2022-08-06T05:16:14Z</time>
      </trkpt>
      <trkpt lat="46.62322" lon="5.64056">
        <ele>532.6</ele>
        <time>2022-08-06T05:16:15Z</time>
      </trkpt>
      <trkpt lat="46.62347" lon="5.64068">
        <ele>532</ele>
        <time>2022-08-06T05:16:18Z</time>
      </trkpt>
      <trkpt lat="46.62354" lon="5.64073">
        <ele>531.6</ele>
        <time>2022-08-06T05:16:19Z</time>
      </trkpt>
      <trkpt lat="46.62395" lon="5.64096">
        <ele>531.2</ele>
        <time>2022-08-06T05:16:25Z</time>
      </trkpt>
      <trkpt lat="46.62438" lon="5.64134">
        <ele>532.2</ele>
        <time>2022-08-06T05:16:32Z</time>
      </trkpt>
      <trkpt lat="46.62456" lon="5.64151">
        <ele>532.6</ele>
        <time>2022-08-06T05:16:35Z</time>
      </trkpt>
      <trkpt lat="46.6249" lon="5.64182">
        <ele>532.6</ele>
        <time>2022-08-06T05:16:40Z</time>
      </trkpt>
      <trkpt lat="46.62525" lon="5.64219">
        <ele>531.4</ele>
        <time>2022-08-06T05:16:45Z</time>
      </trkpt>
      <trkpt lat="46.62533" lon="5.64225">
        <ele>530.2</ele>
        <time>2022-08-06T05:16:47Z</time>
      </trkpt>
      <trkpt lat="46.62551" lon="5.64234">
        <ele>529.8</ele>
        <time>2022-08-06T05:16:48Z</time>
      </trkpt>
      <trkpt lat="46.62561" lon="5.64236">
        <ele>529.4</ele>
        <time>2022-08-06T05:16:49Z</time>
      </trkpt>
      <trkpt lat="46.62569" lon="5.64236">
        <ele>529</ele>
        <time>2022-08-06T05:16:50Z</time>
      </trkpt>
      <trkpt lat="46.62591" lon="5.64236">
        <ele>528</ele>
        <time>2022-08-06T05:16:52Z</time>
      </trkpt>
      <trkpt lat="46.62621" lon="5.64236">
        <ele>526.6</ele>
        <time>2022-08-06T05:16:55Z</time>
      </trkpt>
      <trkpt lat="46.62631" lon="5.64236">
        <ele>526</ele>
        <time>2022-08-06T05:16:56Z</time>
      </trkpt>
      <trkpt lat="46.62644" lon="5.64236">
        <ele>525.4</ele>
        <time>2022-08-06T05:16:57Z</time>
      </trkpt>
      <trkpt lat="46.62675" lon="5.64238">
        <ele>523.8</ele>
        <time>2022-08-06T05:17:00Z</time>
      </trkpt>
      <trkpt lat="46.62697" lon="5.64243">
        <ele>522.6</ele>
        <time>2022-08-06T05:17:02Z</time>
      </trkpt>
      <trkpt lat="46.62725" lon="5.64256">
        <ele>521.2</ele>
        <time>2022-08-06T05:17:05Z</time>
      </trkpt>
      <trkpt lat="46.62734" lon="5.64262">
        <ele>521</ele>
        <time>2022-08-06T05:17:06Z</time>
      </trkpt>
      <trkpt lat="46.62772" lon="5.64287">
        <ele>521</ele>
        <time>2022-08-06T05:17:11Z</time>
      </trkpt>
      <trkpt lat="46.628" lon="5.64297">
        <ele>522.2</ele>
        <time>2022-08-06T05:17:15Z</time>
      </trkpt>
      <trkpt lat="46.62807" lon="5.64298">
        <ele>522.6</ele>
        <time>2022-08-06T05:17:16Z</time>
      </trkpt>
      <trkpt lat="46.62826" lon="5.64301">
        <ele>523.6</ele>
        <time>2022-08-06T05:17:19Z</time>
      </trkpt>
      <trkpt lat="46.62855" lon="5.64306">
        <ele>524.4</ele>
        <time>2022-08-06T05:17:23Z</time>
      </trkpt>
      <trkpt lat="46.62868" lon="5.64308">
        <ele>524.8</ele>
        <time>2022-08-06T05:17:25Z</time>
      </trkpt>
      <trkpt lat="46.62918" lon="5.64315">
        <ele>525.6</ele>
        <time>2022-08-06T05:17:33Z</time>
      </trkpt>
      <trkpt lat="46.62928" lon="5.64316">
        <ele>526</ele>
        <time>2022-08-06T05:17:35Z</time>
      </trkpt>
      <trkpt lat="46.62955" lon="5.64319">
        <ele>527.2</ele>
        <time>2022-08-06T05:17:40Z</time>
      </trkpt>
      <trkpt lat="46.6296" lon="5.6432">
        <ele>527.4</ele>
        <time>2022-08-06T05:17:41Z</time>
      </trkpt>
      <trkpt lat="46.62981" lon="5.64322">
        <ele>528.2</ele>
        <time>2022-08-06T05:17:45Z</time>
      </trkpt>
      <trkpt lat="46.63002" lon="5.64323">
        <ele>528.6</ele>
        <time>2022-08-06T05:17:49Z</time>
      </trkpt>
      <trkpt lat="46.63016" lon="5.64327">
        <ele>529.2</ele>
        <time>2022-08-06T05:17:52Z</time>
      </trkpt>
      <trkpt lat="46.63032" lon="5.6433">
        <ele>530.2</ele>
        <time>2022-08-06T05:17:56Z</time>
      </trkpt>
      <trkpt lat="46.63038" lon="5.64331">
        <ele>530.4</ele>
        <time>2022-08-06T05:17:57Z</time>
      </trkpt>
      <trkpt lat="46.63053" lon="5.64334">
        <ele>531.6</ele>
        <time>2022-08-06T05:18:01Z</time>
      </trkpt>
      <trkpt lat="46.63057" lon="5.64335">
        <ele>531.8</ele>
        <time>2022-08-06T05:18:02Z</time>
      </trkpt>
      <trkpt lat="46.63078" lon="5.6434">
        <ele>532.6</ele>
        <time>2022-08-06T05:18:07Z</time>
      </trkpt>
      <trkpt lat="46.63091" lon="5.64343">
        <ele>533.4</ele>
        <time>2022-08-06T05:18:10Z</time>
      </trkpt>
      <trkpt lat="46.63095" lon="5.64344">
        <ele>533.6</ele>
        <time>2022-08-06T05:18:11Z</time>
      </trkpt>
      <trkpt lat="46.63119" lon="5.64343">
        <ele>534</ele>
        <time>2022-08-06T05:18:16Z</time>
      </trkpt>
      <trkpt lat="46.6316" lon="5.64334">
        <ele>533.6</ele>
        <time>2022-08-06T05:18:22Z</time>
      </trkpt>
      <trkpt lat="46.63182" lon="5.64334">
        <ele>532.4</ele>
        <time>2022-08-06T05:18:25Z</time>
      </trkpt>
      <trkpt lat="46.63198" lon="5.64335">
        <ele>531.8</ele>
        <time>2022-08-06T05:18:27Z</time>
      </trkpt>
      <trkpt lat="46.63215" lon="5.64336">
        <ele>531</ele>
        <time>2022-08-06T05:18:29Z</time>
      </trkpt>
      <trkpt lat="46.63231" lon="5.64334">
        <ele>530.2</ele>
        <time>2022-08-06T05:18:31Z</time>
      </trkpt>
      <trkpt lat="46.63239" lon="5.6433">
        <ele>529.6</ele>
        <time>2022-08-06T05:18:32Z</time>
      </trkpt>
      <trkpt lat="46.63245" lon="5.64324">
        <ele>529.2</ele>
        <time>2022-08-06T05:18:33Z</time>
      </trkpt>
      <trkpt lat="46.63263" lon="5.64304">
        <ele>528.6</ele>
        <time>2022-08-06T05:18:36Z</time>
      </trkpt>
      <trkpt lat="46.63299" lon="5.64265">
        <ele>528.6</ele>
        <time>2022-08-06T05:18:42Z</time>
      </trkpt>
      <trkpt lat="46.63306" lon="5.64261">
        <ele>528.6</ele>
        <time>2022-08-06T05:18:43Z</time>
      </trkpt>
      <trkpt lat="46.63333" lon="5.64249">
        <ele>528.6</ele>
        <time>2022-08-06T05:18:47Z</time>
      </trkpt>
      <trkpt lat="46.63342" lon="5.64244">
        <ele>528.4</ele>
        <time>2022-08-06T05:18:48Z</time>
      </trkpt>
      <trkpt lat="46.63348" lon="5.64238">
        <ele>528.2</ele>
        <time>2022-08-06T05:18:49Z</time>
      </trkpt>
      <trkpt lat="46.63353" lon="5.64232">
        <ele>528.2</ele>
        <time>2022-08-06T05:18:50Z</time>
      </trkpt>
      <trkpt lat="46.63375" lon="5.64196">
        <ele>527.4</ele>
        <time>2022-08-06T05:18:54Z</time>
      </trkpt>
      <trkpt lat="46.63403" lon="5.64148">
        <ele>526.8</ele>
        <time>2022-08-06T05:19:00Z</time>
      </trkpt>
      <trkpt lat="46.63416" lon="5.64128">
        <ele>526.8</ele>
        <time>2022-08-06T05:19:03Z</time>
      </trkpt>
      <trkpt lat="46.63423" lon="5.64122">
        <ele>526.8</ele>
        <time>2022-08-06T05:19:04Z</time>
      </trkpt>
      <trkpt lat="46.63428" lon="5.64121">
        <ele>526.8</ele>
        <time>2022-08-06T05:19:05Z</time>
      </trkpt>
      <trkpt lat="46.63434" lon="5.64123">
        <ele>526.8</ele>
        <time>2022-08-06T05:19:06Z</time>
      </trkpt>
      <trkpt lat="46.63439" lon="5.64129">
        <ele>526.8</ele>
        <time>2022-08-06T05:19:07Z</time>
      </trkpt>
      <trkpt lat="46.63444" lon="5.64137">
        <ele>526.8</ele>
        <time>2022-08-06T05:19:08Z</time>
      </trkpt>
      <trkpt lat="46.63459" lon="5.64173">
        <ele>526.4</ele>
        <time>2022-08-06T05:19:12Z</time>
      </trkpt>
      <trkpt lat="46.63471" lon="5.64198">
        <ele>526.4</ele>
        <time>2022-08-06T05:19:15Z</time>
      </trkpt>
      <trkpt lat="46.63497" lon="5.64254">
        <ele>526.8</ele>
        <time>2022-08-06T05:19:22Z</time>
      </trkpt>
      <trkpt lat="46.63509" lon="5.64298">
        <ele>527.6</ele>
        <time>2022-08-06T05:19:27Z</time>
      </trkpt>
      <trkpt lat="46.63514" lon="5.64315">
        <ele>528</ele>
        <time>2022-08-06T05:19:29Z</time>
      </trkpt>
      <trkpt lat="46.63523" lon="5.64363">
        <ele>528.2</ele>
        <time>2022-08-06T05:19:34Z</time>
      </trkpt>
      <trkpt lat="46.63529" lon="5.64435">
        <ele>528.2</ele>
        <time>2022-08-06T05:19:41Z</time>
      </trkpt>
      <trkpt lat="46.63539" lon="5.64513">
        <ele>528.2</ele>
        <time>2022-08-06T05:19:49Z</time>
      </trkpt>
      <trkpt lat="46.63557" lon="5.646">
        <ele>527</ele>
        <time>2022-08-06T05:19:57Z</time>
      </trkpt>
      <trkpt lat="46.63565" lon="5.64631">
        <ele>526.4</ele>
        <time>2022-08-06T05:20:00Z</time>
      </trkpt>
      <trkpt lat="46.63578" lon="5.64676">
        <ele>525.8</ele>
        <time>2022-08-06T05:20:04Z</time>
      </trkpt>
      <trkpt lat="46.63588" lon="5.6471">
        <ele>525.2</ele>
        <time>2022-08-06T05:20:07Z</time>
      </trkpt>
      <trkpt lat="46.63602" lon="5.64754">
        <ele>524.8</ele>
        <time>2022-08-06T05:20:11Z</time>
      </trkpt>
      <trkpt lat="46.63613" lon="5.648">
        <ele>524.2</ele>
        <time>2022-08-06T05:20:15Z</time>
      </trkpt>
      <trkpt lat="46.63614" lon="5.64808">
        <ele>524.2</ele>
        <time>2022-08-06T05:20:16Z</time>
      </trkpt>
      <trkpt lat="46.63616" lon="5.64843">
        <ele>524</ele>
        <time>2022-08-06T05:20:19Z</time>
      </trkpt>
      <trkpt lat="46.63615" lon="5.64852">
        <ele>524</ele>
        <time>2022-08-06T05:20:20Z</time>
      </trkpt>
      <trkpt lat="46.63613" lon="5.64863">
        <ele>524.2</ele>
        <time>2022-08-06T05:20:21Z</time>
      </trkpt>
      <trkpt lat="46.63607" lon="5.64883">
        <ele>524.2</ele>
        <time>2022-08-06T05:20:23Z</time>
      </trkpt>
      <trkpt lat="46.63604" lon="5.64892">
        <ele>524.2</ele>
        <time>2022-08-06T05:20:24Z</time>
      </trkpt>
      <trkpt lat="46.63576" lon="5.64961">
        <ele>523.4</ele>
        <time>2022-08-06T05:20:31Z</time>
      </trkpt>
      <trkpt lat="46.63566" lon="5.64983">
        <ele>522.8</ele>
        <time>2022-08-06T05:20:33Z</time>
      </trkpt>
      <trkpt lat="46.63541" lon="5.65042">
        <ele>522</ele>
        <time>2022-08-06T05:20:38Z</time>
      </trkpt>
      <trkpt lat="46.63536" lon="5.65054">
        <ele>521.6</ele>
        <time>2022-08-06T05:20:39Z</time>
      </trkpt>
      <trkpt lat="46.63527" lon="5.65078">
        <ele>520.4</ele>
        <time>2022-08-06T05:20:41Z</time>
      </trkpt>
      <trkpt lat="46.63518" lon="5.65101">
        <ele>519.2</ele>
        <time>2022-08-06T05:20:43Z</time>
      </trkpt>
      <trkpt lat="46.63513" lon="5.65113">
        <ele>518.8</ele>
        <time>2022-08-06T05:20:44Z</time>
      </trkpt>
      <trkpt lat="46.63497" lon="5.65159">
        <ele>518.2</ele>
        <time>2022-08-06T05:20:48Z</time>
      </trkpt>
      <trkpt lat="46.63489" lon="5.6518">
        <ele>518.2</ele>
        <time>2022-08-06T05:20:50Z</time>
      </trkpt>
      <trkpt lat="46.63468" lon="5.65231">
        <ele>518.2</ele>
        <time>2022-08-06T05:20:55Z</time>
      </trkpt>
      <trkpt lat="46.6346" lon="5.65252">
        <ele>518.2</ele>
        <time>2022-08-06T05:20:57Z</time>
      </trkpt>
      <trkpt lat="46.63455" lon="5.65276">
        <ele>518.2</ele>
        <time>2022-08-06T05:20:59Z</time>
      </trkpt>
      <trkpt lat="46.63458" lon="5.65302">
        <ele>518</ele>
        <time>2022-08-06T05:21:01Z</time>
      </trkpt>
      <trkpt lat="46.63462" lon="5.65314">
        <ele>518</ele>
        <time>2022-08-06T05:21:02Z</time>
      </trkpt>
      <trkpt lat="46.63472" lon="5.65337">
        <ele>517.2</ele>
        <time>2022-08-06T05:21:04Z</time>
      </trkpt>
      <trkpt lat="46.63478" lon="5.65348">
        <ele>516.8</ele>
        <time>2022-08-06T05:21:05Z</time>
      </trkpt>
      <trkpt lat="46.6349" lon="5.65369">
        <ele>516</ele>
        <time>2022-08-06T05:21:07Z</time>
      </trkpt>
      <trkpt lat="46.63497" lon="5.6538">
        <ele>515.8</ele>
        <time>2022-08-06T05:21:08Z</time>
      </trkpt>
      <trkpt lat="46.63503" lon="5.65391">
        <ele>515.2</ele>
        <time>2022-08-06T05:21:09Z</time>
      </trkpt>
      <trkpt lat="46.63515" lon="5.65413">
        <ele>514.6</ele>
        <time>2022-08-06T05:21:11Z</time>
      </trkpt>
      <trkpt lat="46.63533" lon="5.65446">
        <ele>513</ele>
        <time>2022-08-06T05:21:14Z</time>
      </trkpt>
      <trkpt lat="46.63543" lon="5.65471">
        <ele>512.4</ele>
        <time>2022-08-06T05:21:16Z</time>
      </trkpt>
      <trkpt lat="46.63545" lon="5.65485">
        <ele>512</ele>
        <time>2022-08-06T05:21:17Z</time>
      </trkpt>
      <trkpt lat="46.63549" lon="5.65513">
        <ele>511.4</ele>
        <time>2022-08-06T05:21:19Z</time>
      </trkpt>
      <trkpt lat="46.63551" lon="5.65526">
        <ele>510.4</ele>
        <time>2022-08-06T05:21:20Z</time>
      </trkpt>
      <trkpt lat="46.63558" lon="5.6555">
        <ele>509.8</ele>
        <time>2022-08-06T05:21:22Z</time>
      </trkpt>
      <trkpt lat="46.63582" lon="5.65584">
        <ele>509.4</ele>
        <time>2022-08-06T05:21:26Z</time>
      </trkpt>
      <trkpt lat="46.63608" lon="5.65614">
        <ele>510.4</ele>
        <time>2022-08-06T05:21:31Z</time>
      </trkpt>
      <trkpt lat="46.63612" lon="5.6562">
        <ele>511.4</ele>
        <time>2022-08-06T05:21:32Z</time>
      </trkpt>
      <trkpt lat="46.63616" lon="5.65626">
        <ele>511.8</ele>
        <time>2022-08-06T05:21:33Z</time>
      </trkpt>
      <trkpt lat="46.63621" lon="5.65641">
        <ele>512.8</ele>
        <time>2022-08-06T05:21:35Z</time>
      </trkpt>
      <trkpt lat="46.63623" lon="5.65648">
        <ele>513.2</ele>
        <time>2022-08-06T05:21:36Z</time>
      </trkpt>
      <trkpt lat="46.63626" lon="5.65663">
        <ele>514</ele>
        <time>2022-08-06T05:21:38Z</time>
      </trkpt>
      <trkpt lat="46.6363" lon="5.65684">
        <ele>515</ele>
        <time>2022-08-06T05:21:41Z</time>
      </trkpt>
      <trkpt lat="46.63631" lon="5.6569">
        <ele>515.4</ele>
        <time>2022-08-06T05:21:42Z</time>
      </trkpt>
      <trkpt lat="46.63634" lon="5.65709">
        <ele>517.2</ele>
        <time>2022-08-06T05:21:45Z</time>
      </trkpt>
      <trkpt lat="46.63636" lon="5.65722">
        <ele>518</ele>
        <time>2022-08-06T05:21:47Z</time>
      </trkpt>
      <trkpt lat="46.63637" lon="5.65728">
        <ele>518.8</ele>
        <time>2022-08-06T05:21:48Z</time>
      </trkpt>
      <trkpt lat="46.63638" lon="5.65734">
        <ele>519</ele>
        <time>2022-08-06T05:21:49Z</time>
      </trkpt>
      <trkpt lat="46.63639" lon="5.65757">
        <ele>520</ele>
        <time>2022-08-06T05:21:52Z</time>
      </trkpt>
      <trkpt lat="46.6364" lon="5.65782">
        <ele>520.6</ele>
        <time>2022-08-06T05:21:55Z</time>
      </trkpt>
      <trkpt lat="46.63641" lon="5.65803">
        <ele>520.8</ele>
        <time>2022-08-06T05:21:58Z</time>
      </trkpt>
      <trkpt lat="46.63648" lon="5.65836">
        <ele>521</ele>
        <time>2022-08-06T05:22:02Z</time>
      </trkpt>
      <trkpt lat="46.63657" lon="5.6586">
        <ele>520.8</ele>
        <time>2022-08-06T05:22:05Z</time>
      </trkpt>
      <trkpt lat="46.63666" lon="5.65874">
        <ele>520.8</ele>
        <time>2022-08-06T05:22:07Z</time>
      </trkpt>
      <trkpt lat="46.63704" lon="5.65912">
        <ele>521</ele>
        <time>2022-08-06T05:22:15Z</time>
      </trkpt>
      <trkpt lat="46.63708" lon="5.65916">
        <ele>521.2</ele>
        <time>2022-08-06T05:22:16Z</time>
      </trkpt>
      <trkpt lat="46.63713" lon="5.65923">
        <ele>521.4</ele>
        <time>2022-08-06T05:22:17Z</time>
      </trkpt>
      <trkpt lat="46.63725" lon="5.65943">
        <ele>521.6</ele>
        <time>2022-08-06T05:22:20Z</time>
      </trkpt>
      <trkpt lat="46.6374" lon="5.65973">
        <ele>521.6</ele>
        <time>2022-08-06T05:22:24Z</time>
      </trkpt>
      <trkpt lat="46.63745" lon="5.65979">
        <ele>521.6</ele>
        <time>2022-08-06T05:22:25Z</time>
      </trkpt>
      <trkpt lat="46.63752" lon="5.65985">
        <ele>521.4</ele>
        <time>2022-08-06T05:22:26Z</time>
      </trkpt>
      <trkpt lat="46.63771" lon="5.66">
        <ele>520.4</ele>
        <time>2022-08-06T05:22:29Z</time>
      </trkpt>
      <trkpt lat="46.63778" lon="5.66006">
        <ele>520</ele>
        <time>2022-08-06T05:22:30Z</time>
      </trkpt>
      <trkpt lat="46.63785" lon="5.66014">
        <ele>519.6</ele>
        <time>2022-08-06T05:22:31Z</time>
      </trkpt>
      <trkpt lat="46.63798" lon="5.66033">
        <ele>519.2</ele>
        <time>2022-08-06T05:22:33Z</time>
      </trkpt>
      <trkpt lat="46.63812" lon="5.66051">
        <ele>518.6</ele>
        <time>2022-08-06T05:22:35Z</time>
      </trkpt>
      <trkpt lat="46.63827" lon="5.66066">
        <ele>517.4</ele>
        <time>2022-08-06T05:22:37Z</time>
      </trkpt>
      <trkpt lat="46.63834" lon="5.66074">
        <ele>516.8</ele>
        <time>2022-08-06T05:22:38Z</time>
      </trkpt>
      <trkpt lat="46.63857" lon="5.66097">
        <ele>516.2</ele>
        <time>2022-08-06T05:22:41Z</time>
      </trkpt>
      <trkpt lat="46.63874" lon="5.66108">
        <ele>515.2</ele>
        <time>2022-08-06T05:22:43Z</time>
      </trkpt>
      <trkpt lat="46.63885" lon="5.66115">
        <ele>515.2</ele>
        <time>2022-08-06T05:22:44Z</time>
      </trkpt>
      <trkpt lat="46.63916" lon="5.66135">
        <ele>514.2</ele>
        <time>2022-08-06T05:22:48Z</time>
      </trkpt>
      <trkpt lat="46.63934" lon="5.66151">
        <ele>513.8</ele>
        <time>2022-08-06T05:22:50Z</time>
      </trkpt>
      <trkpt lat="46.63945" lon="5.66168">
        <ele>513.2</ele>
        <time>2022-08-06T05:22:52Z</time>
      </trkpt>
      <trkpt lat="46.63951" lon="5.66179">
        <ele>513</ele>
        <time>2022-08-06T05:22:53Z</time>
      </trkpt>
      <trkpt lat="46.63955" lon="5.6619">
        <ele>512.8</ele>
        <time>2022-08-06T05:22:54Z</time>
      </trkpt>
      <trkpt lat="46.63971" lon="5.66221">
        <ele>512.4</ele>
        <time>2022-08-06T05:22:57Z</time>
      </trkpt>
      <trkpt lat="46.63977" lon="5.6623">
        <ele>512</ele>
        <time>2022-08-06T05:22:58Z</time>
      </trkpt>
      <trkpt lat="46.63985" lon="5.66238">
        <ele>511.8</ele>
        <time>2022-08-06T05:22:59Z</time>
      </trkpt>
      <trkpt lat="46.64005" lon="5.66253">
        <ele>511.6</ele>
        <time>2022-08-06T05:23:02Z</time>
      </trkpt>
      <trkpt lat="46.64046" lon="5.66273">
        <ele>512.2</ele>
        <time>2022-08-06T05:23:08Z</time>
      </trkpt>
      <trkpt lat="46.64052" lon="5.66277">
        <ele>512.4</ele>
        <time>2022-08-06T05:23:09Z</time>
      </trkpt>
      <trkpt lat="46.64061" lon="5.66284">
        <ele>513.2</ele>
        <time>2022-08-06T05:23:11Z</time>
      </trkpt>
      <trkpt lat="46.64065" lon="5.66289">
        <ele>513.6</ele>
        <time>2022-08-06T05:23:12Z</time>
      </trkpt>
      <trkpt lat="46.64073" lon="5.66301">
        <ele>514.6</ele>
        <time>2022-08-06T05:23:14Z</time>
      </trkpt>
      <trkpt lat="46.64076" lon="5.66306">
        <ele>514.8</ele>
        <time>2022-08-06T05:23:15Z</time>
      </trkpt>
      <trkpt lat="46.64079" lon="5.66313">
        <ele>515</ele>
        <time>2022-08-06T05:23:16Z</time>
      </trkpt>
      <trkpt lat="46.64085" lon="5.66327">
        <ele>515.4</ele>
        <time>2022-08-06T05:23:18Z</time>
      </trkpt>
      <trkpt lat="46.6409" lon="5.66345">
        <ele>515.8</ele>
        <time>2022-08-06T05:23:20Z</time>
      </trkpt>
      <trkpt lat="46.64092" lon="5.66354">
        <ele>516.2</ele>
        <time>2022-08-06T05:23:21Z</time>
      </trkpt>
      <trkpt lat="46.64095" lon="5.66372">
        <ele>516.6</ele>
        <time>2022-08-06T05:23:23Z</time>
      </trkpt>
      <trkpt lat="46.641" lon="5.66408">
        <ele>517</ele>
        <time>2022-08-06T05:23:27Z</time>
      </trkpt>
      <trkpt lat="46.64109" lon="5.66458">
        <ele>517.6</ele>
        <time>2022-08-06T05:23:33Z</time>
      </trkpt>
      <trkpt lat="46.64114" lon="5.66487">
        <ele>518</ele>
        <time>2022-08-06T05:23:36Z</time>
      </trkpt>
      <trkpt lat="46.64126" lon="5.66554">
        <ele>518.4</ele>
        <time>2022-08-06T05:23:43Z</time>
      </trkpt>
      <trkpt lat="46.64139" lon="5.66637">
        <ele>517.8</ele>
        <time>2022-08-06T05:23:51Z</time>
      </trkpt>
      <trkpt lat="46.64153" lon="5.66722">
        <ele>517</ele>
        <time>2022-08-06T05:23:59Z</time>
      </trkpt>
      <trkpt lat="46.64163" lon="5.66778">
        <ele>516.8</ele>
        <time>2022-08-06T05:24:04Z</time>
      </trkpt>
      <trkpt lat="46.64165" lon="5.6679">
        <ele>516.4</ele>
        <time>2022-08-06T05:24:05Z</time>
      </trkpt>
      <trkpt lat="46.64176" lon="5.66859">
        <ele>515.2</ele>
        <time>2022-08-06T05:24:11Z</time>
      </trkpt>
      <trkpt lat="46.64179" lon="5.6688">
        <ele>514.8</ele>
        <time>2022-08-06T05:24:13Z</time>
      </trkpt>
      <trkpt lat="46.64189" lon="5.66943">
        <ele>513.8</ele>
        <time>2022-08-06T05:24:18Z</time>
      </trkpt>
      <trkpt lat="46.64191" lon="5.66956">
        <ele>513.6</ele>
        <time>2022-08-06T05:24:19Z</time>
      </trkpt>
      <trkpt lat="46.64195" lon="5.66984">
        <ele>512.6</ele>
        <time>2022-08-06T05:24:21Z</time>
      </trkpt>
      <trkpt lat="46.64202" lon="5.67011">
        <ele>511.4</ele>
        <time>2022-08-06T05:24:23Z</time>
      </trkpt>
      <trkpt lat="46.64208" lon="5.67024">
        <ele>511</ele>
        <time>2022-08-06T05:24:24Z</time>
      </trkpt>
      <trkpt lat="46.64214" lon="5.67036">
        <ele>510.4</ele>
        <time>2022-08-06T05:24:25Z</time>
      </trkpt>
      <trkpt lat="46.64228" lon="5.6706">
        <ele>509.4</ele>
        <time>2022-08-06T05:24:27Z</time>
      </trkpt>
      <trkpt lat="46.64242" lon="5.67084">
        <ele>508</ele>
        <time>2022-08-06T05:24:29Z</time>
      </trkpt>
      <trkpt lat="46.64249" lon="5.67099">
        <ele>507.4</ele>
        <time>2022-08-06T05:24:30Z</time>
      </trkpt>
      <trkpt lat="46.64261" lon="5.67122">
        <ele>506.4</ele>
        <time>2022-08-06T05:24:32Z</time>
      </trkpt>
      <trkpt lat="46.64285" lon="5.67171">
        <ele>505</ele>
        <time>2022-08-06T05:24:36Z</time>
      </trkpt>
      <trkpt lat="46.6429" lon="5.67182">
        <ele>504.4</ele>
        <time>2022-08-06T05:24:37Z</time>
      </trkpt>
      <trkpt lat="46.64302" lon="5.67202">
        <ele>503.4</ele>
        <time>2022-08-06T05:24:39Z</time>
      </trkpt>
      <trkpt lat="46.64309" lon="5.67212">
        <ele>503.4</ele>
        <time>2022-08-06T05:24:40Z</time>
      </trkpt>
      <trkpt lat="46.64315" lon="5.67223">
        <ele>503</ele>
        <time>2022-08-06T05:24:41Z</time>
      </trkpt>
      <trkpt lat="46.64331" lon="5.67255">
        <ele>502.4</ele>
        <time>2022-08-06T05:24:44Z</time>
      </trkpt>
      <trkpt lat="46.64358" lon="5.67302">
        <ele>502</ele>
        <time>2022-08-06T05:24:49Z</time>
      </trkpt>
      <trkpt lat="46.64376" lon="5.67333">
        <ele>502.6</ele>
        <time>2022-08-06T05:24:53Z</time>
      </trkpt>
      <trkpt lat="46.64381" lon="5.67339">
        <ele>502.8</ele>
        <time>2022-08-06T05:24:54Z</time>
      </trkpt>
      <trkpt lat="46.64399" lon="5.67355">
        <ele>503.6</ele>
        <time>2022-08-06T05:24:57Z</time>
      </trkpt>
      <trkpt lat="46.6442" lon="5.67368">
        <ele>503.8</ele>
        <time>2022-08-06T05:25:00Z</time>
      </trkpt>
      <trkpt lat="46.64461" lon="5.67386">
        <ele>503</ele>
        <time>2022-08-06T05:25:05Z</time>
      </trkpt>
      <trkpt lat="46.64479" lon="5.67394">
        <ele>502.6</ele>
        <time>2022-08-06T05:25:07Z</time>
      </trkpt>
      <trkpt lat="46.64511" lon="5.6741">
        <ele>501.4</ele>
        <time>2022-08-06T05:25:11Z</time>
      </trkpt>
      <trkpt lat="46.64527" lon="5.67418">
        <ele>501.2</ele>
        <time>2022-08-06T05:25:13Z</time>
      </trkpt>
      <trkpt lat="46.64578" lon="5.67447">
        <ele>501.4</ele>
        <time>2022-08-06T05:25:20Z</time>
      </trkpt>
      <trkpt lat="46.6461" lon="5.67483">
        <ele>501.4</ele>
        <time>2022-08-06T05:25:25Z</time>
      </trkpt>
      <trkpt lat="46.64653" lon="5.67533">
        <ele>501</ele>
        <time>2022-08-06T05:25:32Z</time>
      </trkpt>
      <trkpt lat="46.64695" lon="5.67582">
        <ele>501</ele>
        <time>2022-08-06T05:25:39Z</time>
      </trkpt>
      <trkpt lat="46.64714" lon="5.67603">
        <ele>501</ele>
        <time>2022-08-06T05:25:42Z</time>
      </trkpt>
      <trkpt lat="46.64738" lon="5.67633">
        <ele>500.4</ele>
        <time>2022-08-06T05:25:46Z</time>
      </trkpt>
      <trkpt lat="46.64744" lon="5.67639">
        <ele>500.2</ele>
        <time>2022-08-06T05:25:47Z</time>
      </trkpt>
      <trkpt lat="46.64751" lon="5.67644">
        <ele>500.2</ele>
        <time>2022-08-06T05:25:48Z</time>
      </trkpt>
      <trkpt lat="46.64797" lon="5.67682">
        <ele>500.4</ele>
        <time>2022-08-06T05:25:55Z</time>
      </trkpt>
      <trkpt lat="46.64843" lon="5.67734">
        <ele>500.6</ele>
        <time>2022-08-06T05:26:03Z</time>
      </trkpt>
      <trkpt lat="46.64859" lon="5.67752">
        <ele>500.6</ele>
        <time>2022-08-06T05:26:06Z</time>
      </trkpt>
      <trkpt lat="46.64897" lon="5.6779">
        <ele>500.4</ele>
        <time>2022-08-06T05:26:12Z</time>
      </trkpt>
      <trkpt lat="46.64937" lon="5.67831">
        <ele>500.4</ele>
        <time>2022-08-06T05:26:19Z</time>
      </trkpt>
      <trkpt lat="46.64976" lon="5.67869">
        <ele>500.8</ele>
        <time>2022-08-06T05:26:26Z</time>
      </trkpt>
      <trkpt lat="46.65023" lon="5.67908">
        <ele>501</ele>
        <time>2022-08-06T05:26:34Z</time>
      </trkpt>
      <trkpt lat="46.65063" lon="5.67933">
        <ele>501.2</ele>
        <time>2022-08-06T05:26:41Z</time>
      </trkpt>
      <trkpt lat="46.6507" lon="5.67937">
        <ele>501.4</ele>
        <time>2022-08-06T05:26:42Z</time>
      </trkpt>
      <trkpt lat="46.65117" lon="5.67968">
        <ele>502</ele>
        <time>2022-08-06T05:26:50Z</time>
      </trkpt>
      <trkpt lat="46.65159" lon="5.68001">
        <ele>502</ele>
        <time>2022-08-06T05:26:58Z</time>
      </trkpt>
      <trkpt lat="46.65179" lon="5.68019">
        <ele>502.4</ele>
        <time>2022-08-06T05:27:02Z</time>
      </trkpt>
      <trkpt lat="46.65189" lon="5.68027">
        <ele>502.8</ele>
        <time>2022-08-06T05:27:04Z</time>
      </trkpt>
      <trkpt lat="46.65204" lon="5.68041">
        <ele>503.6</ele>
        <time>2022-08-06T05:27:07Z</time>
      </trkpt>
      <trkpt lat="46.65229" lon="5.68068">
        <ele>504.4</ele>
        <time>2022-08-06T05:27:12Z</time>
      </trkpt>
      <trkpt lat="46.65249" lon="5.68089">
        <ele>504.6</ele>
        <time>2022-08-06T05:27:16Z</time>
      </trkpt>
      <trkpt lat="46.65259" lon="5.68104">
        <ele>504.8</ele>
        <time>2022-08-06T05:27:18Z</time>
      </trkpt>
      <trkpt lat="46.65264" lon="5.68118">
        <ele>504.8</ele>
        <time>2022-08-06T05:27:20Z</time>
      </trkpt>
      <trkpt lat="46.65267" lon="5.68129">
        <ele>504.8</ele>
        <time>2022-08-06T05:27:21Z</time>
      </trkpt>
      <trkpt lat="46.65272" lon="5.68153">
        <ele>504.8</ele>
        <time>2022-08-06T05:27:24Z</time>
      </trkpt>
      <trkpt lat="46.65275" lon="5.6817">
        <ele>504.8</ele>
        <time>2022-08-06T05:27:26Z</time>
      </trkpt>
      <trkpt lat="46.65277" lon="5.68187">
        <ele>504.8</ele>
        <time>2022-08-06T05:27:28Z</time>
      </trkpt>
      <trkpt lat="46.65284" lon="5.68203">
        <ele>505</ele>
        <time>2022-08-06T05:27:30Z</time>
      </trkpt>
      <trkpt lat="46.65293" lon="5.68211">
        <ele>505</ele>
        <time>2022-08-06T05:27:32Z</time>
      </trkpt>
      <trkpt lat="46.65297" lon="5.68212">
        <ele>505.2</ele>
        <time>2022-08-06T05:27:33Z</time>
      </trkpt>
      <trkpt lat="46.65304" lon="5.68214">
        <ele>505.2</ele>
        <time>2022-08-06T05:27:34Z</time>
      </trkpt>
      <trkpt lat="46.65323" lon="5.68213">
        <ele>505.6</ele>
        <time>2022-08-06T05:27:38Z</time>
      </trkpt>
      <trkpt lat="46.65328" lon="5.68213">
        <ele>506</ele>
        <time>2022-08-06T05:27:39Z</time>
      </trkpt>
      <trkpt lat="46.65354" lon="5.68214">
        <ele>507.4</ele>
        <time>2022-08-06T05:27:44Z</time>
      </trkpt>
      <trkpt lat="46.65358" lon="5.68217">
        <ele>507.4</ele>
        <time>2022-08-06T05:27:45Z</time>
      </trkpt>
      <trkpt lat="46.65361" lon="5.6822">
        <ele>507.6</ele>
        <time>2022-08-06T05:27:46Z</time>
      </trkpt>
      <trkpt lat="46.65367" lon="5.68232">
        <ele>507.8</ele>
        <time>2022-08-06T05:27:48Z</time>
      </trkpt>
      <trkpt lat="46.65369" lon="5.68247">
        <ele>508.4</ele>
        <time>2022-08-06T05:27:50Z</time>
      </trkpt>
      <trkpt lat="46.65367" lon="5.68261">
        <ele>508.8</ele>
        <time>2022-08-06T05:27:52Z</time>
      </trkpt>
      <trkpt lat="46.65367" lon="5.68269">
        <ele>508.8</ele>
        <time>2022-08-06T05:27:53Z</time>
      </trkpt>
      <trkpt lat="46.65365" lon="5.68303">
        <ele>509</ele>
        <time>2022-08-06T05:27:57Z</time>
      </trkpt>
      <trkpt lat="46.65363" lon="5.68341">
        <ele>508.6</ele>
        <time>2022-08-06T05:28:01Z</time>
      </trkpt>
      <trkpt lat="46.65364" lon="5.68352">
        <ele>508.4</ele>
        <time>2022-08-06T05:28:02Z</time>
      </trkpt>
      <trkpt lat="46.65365" lon="5.68362">
        <ele>508.4</ele>
        <time>2022-08-06T05:28:03Z</time>
      </trkpt>
      <trkpt lat="46.65373" lon="5.68377">
        <ele>507.8</ele>
        <time>2022-08-06T05:28:05Z</time>
      </trkpt>
      <trkpt lat="46.6538" lon="5.68383">
        <ele>507.4</ele>
        <time>2022-08-06T05:28:06Z</time>
      </trkpt>
      <trkpt lat="46.65386" lon="5.68386">
        <ele>507</ele>
        <time>2022-08-06T05:28:07Z</time>
      </trkpt>
      <trkpt lat="46.65398" lon="5.68391">
        <ele>506.8</ele>
        <time>2022-08-06T05:28:09Z</time>
      </trkpt>
      <trkpt lat="46.65414" lon="5.684">
        <ele>506.6</ele>
        <time>2022-08-06T05:28:12Z</time>
      </trkpt>
      <trkpt lat="46.65419" lon="5.68404">
        <ele>506.6</ele>
        <time>2022-08-06T05:28:13Z</time>
      </trkpt>
      <trkpt lat="46.65424" lon="5.68409">
        <ele>506.6</ele>
        <time>2022-08-06T05:28:14Z</time>
      </trkpt>
      <trkpt lat="46.6544" lon="5.68424">
        <ele>507.4</ele>
        <time>2022-08-06T05:28:17Z</time>
      </trkpt>
      <trkpt lat="46.65451" lon="5.68437">
        <ele>508.2</ele>
        <time>2022-08-06T05:28:20Z</time>
      </trkpt>
      <trkpt lat="46.65459" lon="5.68448">
        <ele>508.4</ele>
        <time>2022-08-06T05:28:22Z</time>
      </trkpt>
      <trkpt lat="46.65475" lon="5.68471">
        <ele>509</ele>
        <time>2022-08-06T05:28:26Z</time>
      </trkpt>
      <trkpt lat="46.65484" lon="5.68483">
        <ele>509.4</ele>
        <time>2022-08-06T05:28:28Z</time>
      </trkpt>
      <trkpt lat="46.65488" lon="5.68488">
        <ele>509.6</ele>
        <time>2022-08-06T05:28:29Z</time>
      </trkpt>
      <trkpt lat="46.65506" lon="5.68503">
        <ele>510</ele>
        <time>2022-08-06T05:28:32Z</time>
      </trkpt>
      <trkpt lat="46.65536" lon="5.68531">
        <ele>510.2</ele>
        <time>2022-08-06T05:28:37Z</time>
      </trkpt>
      <trkpt lat="46.65566" lon="5.68568">
        <ele>509.2</ele>
        <time>2022-08-06T05:28:43Z</time>
      </trkpt>
      <trkpt lat="46.65572" lon="5.68573">
        <ele>509</ele>
        <time>2022-08-06T05:28:44Z</time>
      </trkpt>
      <trkpt lat="46.65593" lon="5.68585">
        <ele>508.4</ele>
        <time>2022-08-06T05:28:47Z</time>
      </trkpt>
      <trkpt lat="46.65608" lon="5.68595">
        <ele>508</ele>
        <time>2022-08-06T05:28:49Z</time>
      </trkpt>
      <trkpt lat="46.65614" lon="5.686">
        <ele>507.8</ele>
        <time>2022-08-06T05:28:50Z</time>
      </trkpt>
      <trkpt lat="46.65621" lon="5.68608">
        <ele>507.6</ele>
        <time>2022-08-06T05:28:51Z</time>
      </trkpt>
      <trkpt lat="46.65627" lon="5.68616">
        <ele>507.4</ele>
        <time>2022-08-06T05:28:52Z</time>
      </trkpt>
      <trkpt lat="46.65645" lon="5.6864">
        <ele>506</ele>
        <time>2022-08-06T05:28:55Z</time>
      </trkpt>
      <trkpt lat="46.65694" lon="5.68684">
        <ele>505</ele>
        <time>2022-08-06T05:29:02Z</time>
      </trkpt>
      <trkpt lat="46.65701" lon="5.68688">
        <ele>504.8</ele>
        <time>2022-08-06T05:29:03Z</time>
      </trkpt>
      <trkpt lat="46.6572" lon="5.68699">
        <ele>504.8</ele>
        <time>2022-08-06T05:29:06Z</time>
      </trkpt>
      <trkpt lat="46.65725" lon="5.68701">
        <ele>504.8</ele>
        <time>2022-08-06T05:29:07Z</time>
      </trkpt>
      <trkpt lat="46.65764" lon="5.6871">
        <ele>505.6</ele>
        <time>2022-08-06T05:29:13Z</time>
      </trkpt>
      <trkpt lat="46.65781" lon="5.68714">
        <ele>506</ele>
        <time>2022-08-06T05:29:16Z</time>
      </trkpt>
      <trkpt lat="46.658" lon="5.68717">
        <ele>506.4</ele>
        <time>2022-08-06T05:29:19Z</time>
      </trkpt>
      <trkpt lat="46.65809" lon="5.68718">
        <ele>506.6</ele>
        <time>2022-08-06T05:29:21Z</time>
      </trkpt>
      <trkpt lat="46.65818" lon="5.68719">
        <ele>507</ele>
        <time>2022-08-06T05:29:23Z</time>
      </trkpt>
      <trkpt lat="46.65822" lon="5.68719">
        <ele>507.4</ele>
        <time>2022-08-06T05:29:24Z</time>
      </trkpt>
      <trkpt lat="46.65825" lon="5.68719">
        <ele>508.2</ele>
        <time>2022-08-06T05:29:27Z</time>
      </trkpt>
      <trkpt lat="46.65825" lon="5.68719">
        <ele>508.8</ele>
        <time>2022-08-06T05:29:29Z</time>
      </trkpt>
      <trkpt lat="46.65833" lon="5.68718">
        <ele>508.8</ele>
        <time>2022-08-06T05:30:11Z</time>
      </trkpt>
      <trkpt lat="46.65837" lon="5.68718">
        <ele>508.8</ele>
        <time>2022-08-06T05:30:12Z</time>
      </trkpt>
      <trkpt lat="46.65858" lon="5.6872">
        <ele>508.6</ele>
        <time>2022-08-06T05:30:15Z</time>
      </trkpt>
      <trkpt lat="46.65892" lon="5.68723">
        <ele>508</ele>
        <time>2022-08-06T05:30:19Z</time>
      </trkpt>
      <trkpt lat="46.65915" lon="5.6873">
        <ele>507.4</ele>
        <time>2022-08-06T05:30:22Z</time>
      </trkpt>
      <trkpt lat="46.65923" lon="5.68735">
        <ele>507.2</ele>
        <time>2022-08-06T05:30:23Z</time>
      </trkpt>
      <trkpt lat="46.65929" lon="5.6874">
        <ele>506.8</ele>
        <time>2022-08-06T05:30:24Z</time>
      </trkpt>
      <trkpt lat="46.65949" lon="5.68754">
        <ele>506.6</ele>
        <time>2022-08-06T05:30:27Z</time>
      </trkpt>
      <trkpt lat="46.65969" lon="5.68764">
        <ele>506.6</ele>
        <time>2022-08-06T05:30:30Z</time>
      </trkpt>
      <trkpt lat="46.65989" lon="5.68772">
        <ele>507</ele>
        <time>2022-08-06T05:30:33Z</time>
      </trkpt>
      <trkpt lat="46.66002" lon="5.68773">
        <ele>507.2</ele>
        <time>2022-08-06T05:30:35Z</time>
      </trkpt>
      <trkpt lat="46.66016" lon="5.68773">
        <ele>507.6</ele>
        <time>2022-08-06T05:30:37Z</time>
      </trkpt>
      <trkpt lat="46.66033" lon="5.68768">
        <ele>507.8</ele>
        <time>2022-08-06T05:30:40Z</time>
      </trkpt>
      <trkpt lat="46.66047" lon="5.68767">
        <ele>507.8</ele>
        <time>2022-08-06T05:30:42Z</time>
      </trkpt>
      <trkpt lat="46.66058" lon="5.6877">
        <ele>508</ele>
        <time>2022-08-06T05:30:44Z</time>
      </trkpt>
      <trkpt lat="46.66071" lon="5.68777">
        <ele>508</ele>
        <time>2022-08-06T05:30:46Z</time>
      </trkpt>
      <trkpt lat="46.66084" lon="5.6879">
        <ele>508</ele>
        <time>2022-08-06T05:30:48Z</time>
      </trkpt>
      <trkpt lat="46.66125" lon="5.68839">
        <ele>508.2</ele>
        <time>2022-08-06T05:30:56Z</time>
      </trkpt>
      <trkpt lat="46.66134" lon="5.68855">
        <ele>508.4</ele>
        <time>2022-08-06T05:30:58Z</time>
      </trkpt>
      <trkpt lat="46.66142" lon="5.68867">
        <ele>508.6</ele>
        <time>2022-08-06T05:31:00Z</time>
      </trkpt>
      <trkpt lat="46.66153" lon="5.6888">
        <ele>508.8</ele>
        <time>2022-08-06T05:31:02Z</time>
      </trkpt>
      <trkpt lat="46.66174" lon="5.689">
        <ele>509.2</ele>
        <time>2022-08-06T05:31:06Z</time>
      </trkpt>
      <trkpt lat="46.66187" lon="5.68907">
        <ele>509.4</ele>
        <time>2022-08-06T05:31:08Z</time>
      </trkpt>
      <trkpt lat="46.66227" lon="5.68938">
        <ele>510</ele>
        <time>2022-08-06T05:31:15Z</time>
      </trkpt>
      <trkpt lat="46.66247" lon="5.68957">
        <ele>510.4</ele>
        <time>2022-08-06T05:31:19Z</time>
      </trkpt>
      <trkpt lat="46.66257" lon="5.68966">
        <ele>510.6</ele>
        <time>2022-08-06T05:31:21Z</time>
      </trkpt>
      <trkpt lat="46.66262" lon="5.68971">
        <ele>510.8</ele>
        <time>2022-08-06T05:31:22Z</time>
      </trkpt>
      <trkpt lat="46.6628" lon="5.68993">
        <ele>511.6</ele>
        <time>2022-08-06T05:31:26Z</time>
      </trkpt>
      <trkpt lat="46.66288" lon="5.69003">
        <ele>511.8</ele>
        <time>2022-08-06T05:31:28Z</time>
      </trkpt>
      <trkpt lat="46.66322" lon="5.69046">
        <ele>512.2</ele>
        <time>2022-08-06T05:31:35Z</time>
      </trkpt>
      <trkpt lat="46.66357" lon="5.69089">
        <ele>512.4</ele>
        <time>2022-08-06T05:31:42Z</time>
      </trkpt>
      <trkpt lat="46.66381" lon="5.69116">
        <ele>512.2</ele>
        <time>2022-08-06T05:31:46Z</time>
      </trkpt>
      <trkpt lat="46.66387" lon="5.69124">
        <ele>512.2</ele>
        <time>2022-08-06T05:31:47Z</time>
      </trkpt>
      <trkpt lat="46.66417" lon="5.69168">
        <ele>511.6</ele>
        <time>2022-08-06T05:31:53Z</time>
      </trkpt>
      <trkpt lat="46.66437" lon="5.69207">
        <ele>511.6</ele>
        <time>2022-08-06T05:31:58Z</time>
      </trkpt>
      <trkpt lat="46.66465" lon="5.69259">
        <ele>512.4</ele>
        <time>2022-08-06T05:32:05Z</time>
      </trkpt>
      <trkpt lat="46.66497" lon="5.69308">
        <ele>512.2</ele>
        <time>2022-08-06T05:32:12Z</time>
      </trkpt>
      <trkpt lat="46.66541" lon="5.69369">
        <ele>512</ele>
        <time>2022-08-06T05:32:21Z</time>
      </trkpt>
      <trkpt lat="46.66546" lon="5.69377">
        <ele>512</ele>
        <time>2022-08-06T05:32:22Z</time>
      </trkpt>
      <trkpt lat="46.66583" lon="5.69432">
        <ele>511.2</ele>
        <time>2022-08-06T05:32:29Z</time>
      </trkpt>
      <trkpt lat="46.66605" lon="5.69474">
        <ele>510.4</ele>
        <time>2022-08-06T05:32:34Z</time>
      </trkpt>
      <trkpt lat="46.66631" lon="5.69513">
        <ele>510</ele>
        <time>2022-08-06T05:32:39Z</time>
      </trkpt>
      <trkpt lat="46.66651" lon="5.69533">
        <ele>510.4</ele>
        <time>2022-08-06T05:32:43Z</time>
      </trkpt>
      <trkpt lat="46.66694" lon="5.69564">
        <ele>511.2</ele>
        <time>2022-08-06T05:32:50Z</time>
      </trkpt>
      <trkpt lat="46.667" lon="5.69569">
        <ele>511.4</ele>
        <time>2022-08-06T05:32:51Z</time>
      </trkpt>
      <trkpt lat="46.66712" lon="5.69579">
        <ele>511.4</ele>
        <time>2022-08-06T05:32:53Z</time>
      </trkpt>
      <trkpt lat="46.66727" lon="5.69596">
        <ele>511</ele>
        <time>2022-08-06T05:32:56Z</time>
      </trkpt>
      <trkpt lat="46.66742" lon="5.69614">
        <ele>511.4</ele>
        <time>2022-08-06T05:33:00Z</time>
      </trkpt>
      <trkpt lat="46.66745" lon="5.69618">
        <ele>511.4</ele>
        <time>2022-08-06T05:33:01Z</time>
      </trkpt>
      <trkpt lat="46.66749" lon="5.69622">
        <ele>512</ele>
        <time>2022-08-06T05:33:02Z</time>
      </trkpt>
      <trkpt lat="46.66755" lon="5.69633">
        <ele>512.4</ele>
        <time>2022-08-06T05:33:04Z</time>
      </trkpt>
      <trkpt lat="46.66756" lon="5.69639">
        <ele>512.6</ele>
        <time>2022-08-06T05:33:05Z</time>
      </trkpt>
      <trkpt lat="46.66755" lon="5.69645">
        <ele>513</ele>
        <time>2022-08-06T05:33:06Z</time>
      </trkpt>
      <trkpt lat="46.66751" lon="5.69658">
        <ele>513.6</ele>
        <time>2022-08-06T05:33:08Z</time>
      </trkpt>
      <trkpt lat="46.66746" lon="5.69693">
        <ele>514.8</ele>
        <time>2022-08-06T05:33:13Z</time>
      </trkpt>
      <trkpt lat="46.66742" lon="5.69715">
        <ele>515.2</ele>
        <time>2022-08-06T05:33:16Z</time>
      </trkpt>
      <trkpt lat="46.66736" lon="5.69757">
        <ele>515.8</ele>
        <time>2022-08-06T05:33:22Z</time>
      </trkpt>
      <trkpt lat="46.66733" lon="5.69778">
        <ele>516.4</ele>
        <time>2022-08-06T05:33:25Z</time>
      </trkpt>
      <trkpt lat="46.66728" lon="5.69806">
        <ele>517</ele>
        <time>2022-08-06T05:33:29Z</time>
      </trkpt>
      <trkpt lat="46.66723" lon="5.6984">
        <ele>517.6</ele>
        <time>2022-08-06T05:33:34Z</time>
      </trkpt>
      <trkpt lat="46.66722" lon="5.69847">
        <ele>517.6</ele>
        <time>2022-08-06T05:33:35Z</time>
      </trkpt>
      <trkpt lat="46.66717" lon="5.69874">
        <ele>518.2</ele>
        <time>2022-08-06T05:33:39Z</time>
      </trkpt>
      <trkpt lat="46.66713" lon="5.699">
        <ele>519</ele>
        <time>2022-08-06T05:33:43Z</time>
      </trkpt>
      <trkpt lat="46.66712" lon="5.69913">
        <ele>519.4</ele>
        <time>2022-08-06T05:33:45Z</time>
      </trkpt>
      <trkpt lat="46.6671" lon="5.69944">
        <ele>520.4</ele>
        <time>2022-08-06T05:33:50Z</time>
      </trkpt>
      <trkpt lat="46.6671" lon="5.69951">
        <ele>520.4</ele>
        <time>2022-08-06T05:33:51Z</time>
      </trkpt>
      <trkpt lat="46.6671" lon="5.69977">
        <ele>521.4</ele>
        <time>2022-08-06T05:33:55Z</time>
      </trkpt>
      <trkpt lat="46.6671" lon="5.69984">
        <ele>521.4</ele>
        <time>2022-08-06T05:33:56Z</time>
      </trkpt>
      <trkpt lat="46.66712" lon="5.70003">
        <ele>522</ele>
        <time>2022-08-06T05:33:59Z</time>
      </trkpt>
      <trkpt lat="46.66715" lon="5.70031">
        <ele>522.4</ele>
        <time>2022-08-06T05:34:03Z</time>
      </trkpt>
      <trkpt lat="46.66723" lon="5.70064">
        <ele>523.2</ele>
        <time>2022-08-06T05:34:08Z</time>
      </trkpt>
      <trkpt lat="46.66726" lon="5.70076">
        <ele>523.2</ele>
        <time>2022-08-06T05:34:10Z</time>
      </trkpt>
      <trkpt lat="46.66737" lon="5.70105">
        <ele>523.8</ele>
        <time>2022-08-06T05:34:15Z</time>
      </trkpt>
      <trkpt lat="46.66745" lon="5.70122">
        <ele>524.4</ele>
        <time>2022-08-06T05:34:18Z</time>
      </trkpt>
      <trkpt lat="46.66758" lon="5.70148">
        <ele>525.2</ele>
        <time>2022-08-06T05:34:23Z</time>
      </trkpt>
      <trkpt lat="46.66761" lon="5.70154">
        <ele>525.6</ele>
        <time>2022-08-06T05:34:24Z</time>
      </trkpt>
      <trkpt lat="46.66777" lon="5.70185">
        <ele>526.4</ele>
        <time>2022-08-06T05:34:30Z</time>
      </trkpt>
      <trkpt lat="46.6678" lon="5.7019">
        <ele>526.8</ele>
        <time>2022-08-06T05:34:31Z</time>
      </trkpt>
      <trkpt lat="46.66796" lon="5.70215">
        <ele>527.6</ele>
        <time>2022-08-06T05:34:36Z</time>
      </trkpt>
      <trkpt lat="46.66806" lon="5.70229">
        <ele>528</ele>
        <time>2022-08-06T05:34:39Z</time>
      </trkpt>
      <trkpt lat="46.66824" lon="5.70248">
        <ele>528.6</ele>
        <time>2022-08-06T05:34:44Z</time>
      </trkpt>
      <trkpt lat="46.66846" lon="5.70271">
        <ele>529.6</ele>
        <time>2022-08-06T05:34:50Z</time>
      </trkpt>
      <trkpt lat="46.66866" lon="5.70294">
        <ele>530.6</ele>
        <time>2022-08-06T05:34:56Z</time>
      </trkpt>
      <trkpt lat="46.66879" lon="5.7031">
        <ele>531.6</ele>
        <time>2022-08-06T05:35:00Z</time>
      </trkpt>
      <trkpt lat="46.66883" lon="5.70315">
        <ele>531.8</ele>
        <time>2022-08-06T05:35:01Z</time>
      </trkpt>
      <trkpt lat="46.66908" lon="5.70346">
        <ele>533</ele>
        <time>2022-08-06T05:35:08Z</time>
      </trkpt>
      <trkpt lat="46.66914" lon="5.70355">
        <ele>533.2</ele>
        <time>2022-08-06T05:35:10Z</time>
      </trkpt>
      <trkpt lat="46.66929" lon="5.70379">
        <ele>534.2</ele>
        <time>2022-08-06T05:35:15Z</time>
      </trkpt>
      <trkpt lat="46.66937" lon="5.70395">
        <ele>534.4</ele>
        <time>2022-08-06T05:35:18Z</time>
      </trkpt>
      <trkpt lat="46.66946" lon="5.70422">
        <ele>535.2</ele>
        <time>2022-08-06T05:35:23Z</time>
      </trkpt>
      <trkpt lat="46.6695" lon="5.70431">
        <ele>535.6</ele>
        <time>2022-08-06T05:35:25Z</time>
      </trkpt>
      <trkpt lat="46.66953" lon="5.70444">
        <ele>536</ele>
        <time>2022-08-06T05:35:27Z</time>
      </trkpt>
      <trkpt lat="46.66956" lon="5.70455">
        <ele>536.2</ele>
        <time>2022-08-06T05:35:29Z</time>
      </trkpt>
      <trkpt lat="46.66963" lon="5.70476">
        <ele>537.2</ele>
        <time>2022-08-06T05:35:33Z</time>
      </trkpt>
      <trkpt lat="46.66969" lon="5.70494">
        <ele>537.6</ele>
        <time>2022-08-06T05:35:36Z</time>
      </trkpt>
      <trkpt lat="46.66977" lon="5.70518">
        <ele>538.2</ele>
        <time>2022-08-06T05:35:40Z</time>
      </trkpt>
      <trkpt lat="46.66984" lon="5.70541">
        <ele>538.6</ele>
        <time>2022-08-06T05:35:44Z</time>
      </trkpt>
      <trkpt lat="46.66989" lon="5.70559">
        <ele>539.2</ele>
        <time>2022-08-06T05:35:47Z</time>
      </trkpt>
      <trkpt lat="46.66992" lon="5.70577">
        <ele>539.6</ele>
        <time>2022-08-06T05:35:50Z</time>
      </trkpt>
      <trkpt lat="46.66997" lon="5.70597">
        <ele>540.4</ele>
        <time>2022-08-06T05:35:53Z</time>
      </trkpt>
      <trkpt lat="46.66999" lon="5.70603">
        <ele>540.4</ele>
        <time>2022-08-06T05:35:54Z</time>
      </trkpt>
      <trkpt lat="46.66999" lon="5.7061">
        <ele>540.8</ele>
        <time>2022-08-06T05:35:55Z</time>
      </trkpt>
      <trkpt lat="46.67003" lon="5.70631">
        <ele>541</ele>
        <time>2022-08-06T05:35:58Z</time>
      </trkpt>
      <trkpt lat="46.67004" lon="5.70638">
        <ele>541.2</ele>
        <time>2022-08-06T05:35:59Z</time>
      </trkpt>
      <trkpt lat="46.67006" lon="5.70646">
        <ele>541.4</ele>
        <time>2022-08-06T05:36:00Z</time>
      </trkpt>
      <trkpt lat="46.67007" lon="5.70653">
        <ele>541.4</ele>
        <time>2022-08-06T05:36:01Z</time>
      </trkpt>
      <trkpt lat="46.67013" lon="5.7068">
        <ele>542.4</ele>
        <time>2022-08-06T05:36:05Z</time>
      </trkpt>
      <trkpt lat="46.67017" lon="5.70705">
        <ele>543.2</ele>
        <time>2022-08-06T05:36:09Z</time>
      </trkpt>
      <trkpt lat="46.67017" lon="5.70717">
        <ele>543.4</ele>
        <time>2022-08-06T05:36:11Z</time>
      </trkpt>
      <trkpt lat="46.67019" lon="5.70726">
        <ele>543.8</ele>
        <time>2022-08-06T05:36:12Z</time>
      </trkpt>
      <trkpt lat="46.6702" lon="5.70744">
        <ele>544.4</ele>
        <time>2022-08-06T05:36:15Z</time>
      </trkpt>
      <trkpt lat="46.6702" lon="5.7075">
        <ele>544.6</ele>
        <time>2022-08-06T05:36:16Z</time>
      </trkpt>
      <trkpt lat="46.6702" lon="5.70758">
        <ele>544.6</ele>
        <time>2022-08-06T05:36:17Z</time>
      </trkpt>
      <trkpt lat="46.67019" lon="5.70764">
        <ele>544.8</ele>
        <time>2022-08-06T05:36:18Z</time>
      </trkpt>
      <trkpt lat="46.67016" lon="5.70775">
        <ele>544.8</ele>
        <time>2022-08-06T05:36:20Z</time>
      </trkpt>
      <trkpt lat="46.67012" lon="5.70785">
        <ele>545.2</ele>
        <time>2022-08-06T05:36:22Z</time>
      </trkpt>
      <trkpt lat="46.67009" lon="5.70789">
        <ele>545.4</ele>
        <time>2022-08-06T05:36:23Z</time>
      </trkpt>
      <trkpt lat="46.67005" lon="5.70793">
        <ele>545.6</ele>
        <time>2022-08-06T05:36:24Z</time>
      </trkpt>
      <trkpt lat="46.66998" lon="5.70799">
        <ele>545.8</ele>
        <time>2022-08-06T05:36:26Z</time>
      </trkpt>
      <trkpt lat="46.66974" lon="5.70804">
        <ele>546.6</ele>
        <time>2022-08-06T05:36:31Z</time>
      </trkpt>
      <trkpt lat="46.66969" lon="5.70805">
        <ele>546.6</ele>
        <time>2022-08-06T05:36:32Z</time>
      </trkpt>
      <trkpt lat="46.66936" lon="5.70807">
        <ele>546.8</ele>
        <time>2022-08-06T05:36:38Z</time>
      </trkpt>
      <trkpt lat="46.66889" lon="5.7081">
        <ele>547.4</ele>
        <time>2022-08-06T05:36:47Z</time>
      </trkpt>
      <trkpt lat="46.66873" lon="5.70811">
        <ele>547.6</ele>
        <time>2022-08-06T05:36:50Z</time>
      </trkpt>
      <trkpt lat="46.66836" lon="5.70814">
        <ele>548.4</ele>
        <time>2022-08-06T05:36:57Z</time>
      </trkpt>
      <trkpt lat="46.66831" lon="5.70814">
        <ele>548.8</ele>
        <time>2022-08-06T05:36:58Z</time>
      </trkpt>
      <trkpt lat="46.66782" lon="5.70817">
        <ele>549.6</ele>
        <time>2022-08-06T05:37:07Z</time>
      </trkpt>
      <trkpt lat="46.66744" lon="5.70819">
        <ele>549.2</ele>
        <time>2022-08-06T05:37:13Z</time>
      </trkpt>
      <trkpt lat="46.66696" lon="5.70822">
        <ele>548.8</ele>
        <time>2022-08-06T05:37:20Z</time>
      </trkpt>
      <trkpt lat="46.66647" lon="5.70827">
        <ele>548.4</ele>
        <time>2022-08-06T05:37:27Z</time>
      </trkpt>
      <trkpt lat="46.66618" lon="5.70836">
        <ele>548</ele>
        <time>2022-08-06T05:37:31Z</time>
      </trkpt>
      <trkpt lat="46.66598" lon="5.70842">
        <ele>548.2</ele>
        <time>2022-08-06T05:37:34Z</time>
      </trkpt>
      <trkpt lat="46.66555" lon="5.7086">
        <ele>548.8</ele>
        <time>2022-08-06T05:37:41Z</time>
      </trkpt>
      <trkpt lat="46.66528" lon="5.70881">
        <ele>549.6</ele>
        <time>2022-08-06T05:37:46Z</time>
      </trkpt>
      <trkpt lat="46.66523" lon="5.70885">
        <ele>549.6</ele>
        <time>2022-08-06T05:37:47Z</time>
      </trkpt>
      <trkpt lat="46.66478" lon="5.7094">
        <ele>550</ele>
        <time>2022-08-06T05:37:56Z</time>
      </trkpt>
      <trkpt lat="46.66453" lon="5.70971">
        <ele>550</ele>
        <time>2022-08-06T05:38:01Z</time>
      </trkpt>
      <trkpt lat="46.6641" lon="5.71024">
        <ele>549.6</ele>
        <time>2022-08-06T05:38:09Z</time>
      </trkpt>
      <trkpt lat="46.66405" lon="5.71031">
        <ele>549.6</ele>
        <time>2022-08-06T05:38:10Z</time>
      </trkpt>
      <trkpt lat="46.66361" lon="5.71084">
        <ele>548.6</ele>
        <time>2022-08-06T05:38:18Z</time>
      </trkpt>
      <trkpt lat="46.6635" lon="5.71097">
        <ele>548.6</ele>
        <time>2022-08-06T05:38:20Z</time>
      </trkpt>
      <trkpt lat="46.66308" lon="5.71147">
        <ele>548.2</ele>
        <time>2022-08-06T05:38:27Z</time>
      </trkpt>
      <trkpt lat="46.66275" lon="5.71189">
        <ele>547.6</ele>
        <time>2022-08-06T05:38:33Z</time>
      </trkpt>
      <trkpt lat="46.66232" lon="5.71241">
        <ele>547.8</ele>
        <time>2022-08-06T05:38:41Z</time>
      </trkpt>
      <trkpt lat="46.66189" lon="5.71294">
        <ele>548</ele>
        <time>2022-08-06T05:38:49Z</time>
      </trkpt>
      <trkpt lat="46.66184" lon="5.713">
        <ele>548</ele>
        <time>2022-08-06T05:38:50Z</time>
      </trkpt>
      <trkpt lat="46.66161" lon="5.71329">
        <ele>548.4</ele>
        <time>2022-08-06T05:38:55Z</time>
      </trkpt>
      <trkpt lat="46.66144" lon="5.71348">
        <ele>549.6</ele>
        <time>2022-08-06T05:38:59Z</time>
      </trkpt>
      <trkpt lat="46.66132" lon="5.71362">
        <ele>550</ele>
        <time>2022-08-06T05:39:02Z</time>
      </trkpt>
      <trkpt lat="46.6612" lon="5.71376">
        <ele>550.6</ele>
        <time>2022-08-06T05:39:05Z</time>
      </trkpt>
      <trkpt lat="46.66101" lon="5.71399">
        <ele>551.8</ele>
        <time>2022-08-06T05:39:10Z</time>
      </trkpt>
      <trkpt lat="46.66085" lon="5.71425">
        <ele>552.8</ele>
        <time>2022-08-06T05:39:15Z</time>
      </trkpt>
      <trkpt lat="46.66083" lon="5.7143">
        <ele>553</ele>
        <time>2022-08-06T05:39:16Z</time>
      </trkpt>
      <trkpt lat="46.66074" lon="5.71457">
        <ele>554</ele>
        <time>2022-08-06T05:39:21Z</time>
      </trkpt>
      <trkpt lat="46.6607" lon="5.71474">
        <ele>555.4</ele>
        <time>2022-08-06T05:39:24Z</time>
      </trkpt>
      <trkpt lat="46.66067" lon="5.71495">
        <ele>556.2</ele>
        <time>2022-08-06T05:39:28Z</time>
      </trkpt>
      <trkpt lat="46.66066" lon="5.715">
        <ele>556.4</ele>
        <time>2022-08-06T05:39:29Z</time>
      </trkpt>
      <trkpt lat="46.66066" lon="5.7152">
        <ele>557.6</ele>
        <time>2022-08-06T05:39:33Z</time>
      </trkpt>
      <trkpt lat="46.66066" lon="5.71535">
        <ele>558</ele>
        <time>2022-08-06T05:39:36Z</time>
      </trkpt>
      <trkpt lat="46.66067" lon="5.71545">
        <ele>558.8</ele>
        <time>2022-08-06T05:39:38Z</time>
      </trkpt>
      <trkpt lat="46.66071" lon="5.71573">
        <ele>559.8</ele>
        <time>2022-08-06T05:39:44Z</time>
      </trkpt>
      <trkpt lat="46.66072" lon="5.71578">
        <ele>560</ele>
        <time>2022-08-06T05:39:45Z</time>
      </trkpt>
      <trkpt lat="46.66076" lon="5.71595">
        <ele>561</ele>
        <time>2022-08-06T05:39:49Z</time>
      </trkpt>
      <trkpt lat="46.66082" lon="5.71617">
        <ele>562</ele>
        <time>2022-08-06T05:39:54Z</time>
      </trkpt>
      <trkpt lat="46.66083" lon="5.71621">
        <ele>562</ele>
        <time>2022-08-06T05:39:55Z</time>
      </trkpt>
      <trkpt lat="46.66089" lon="5.71643">
        <ele>563.2</ele>
        <time>2022-08-06T05:40:00Z</time>
      </trkpt>
      <trkpt lat="46.66093" lon="5.71659">
        <ele>564</ele>
        <time>2022-08-06T05:40:04Z</time>
      </trkpt>
      <trkpt lat="46.66094" lon="5.71663">
        <ele>564.4</ele>
        <time>2022-08-06T05:40:05Z</time>
      </trkpt>
      <trkpt lat="46.66099" lon="5.71685">
        <ele>565.4</ele>
        <time>2022-08-06T05:40:10Z</time>
      </trkpt>
      <trkpt lat="46.66103" lon="5.71707">
        <ele>566.2</ele>
        <time>2022-08-06T05:40:15Z</time>
      </trkpt>
      <trkpt lat="46.66104" lon="5.71717">
        <ele>566.6</ele>
        <time>2022-08-06T05:40:17Z</time>
      </trkpt>
      <trkpt lat="46.66104" lon="5.71754">
        <ele>568.2</ele>
        <time>2022-08-06T05:40:25Z</time>
      </trkpt>
      <trkpt lat="46.66101" lon="5.71777">
        <ele>569.4</ele>
        <time>2022-08-06T05:40:30Z</time>
      </trkpt>
      <trkpt lat="46.66097" lon="5.71789">
        <ele>569.8</ele>
        <time>2022-08-06T05:40:33Z</time>
      </trkpt>
      <trkpt lat="46.66092" lon="5.71806">
        <ele>570.6</ele>
        <time>2022-08-06T05:40:37Z</time>
      </trkpt>
      <trkpt lat="46.66088" lon="5.71823">
        <ele>571.8</ele>
        <time>2022-08-06T05:40:41Z</time>
      </trkpt>
      <trkpt lat="46.66082" lon="5.71841">
        <ele>572.4</ele>
        <time>2022-08-06T05:40:45Z</time>
      </trkpt>
      <trkpt lat="46.66077" lon="5.71856">
        <ele>573</ele>
        <time>2022-08-06T05:40:48Z</time>
      </trkpt>
      <trkpt lat="46.66068" lon="5.71877">
        <ele>573.4</ele>
        <time>2022-08-06T05:40:52Z</time>
      </trkpt>
      <trkpt lat="46.66054" lon="5.71917">
        <ele>573.2</ele>
        <time>2022-08-06T05:40:57Z</time>
      </trkpt>
      <trkpt lat="46.66033" lon="5.71979">
        <ele>572</ele>
        <time>2022-08-06T05:41:03Z</time>
      </trkpt>
      <trkpt lat="46.66025" lon="5.72001">
        <ele>570.6</ele>
        <time>2022-08-06T05:41:05Z</time>
      </trkpt>
      <trkpt lat="46.66018" lon="5.72021">
        <ele>569.6</ele>
        <time>2022-08-06T05:41:07Z</time>
      </trkpt>
      <trkpt lat="46.66005" lon="5.72056">
        <ele>568.4</ele>
        <time>2022-08-06T05:41:10Z</time>
      </trkpt>
      <trkpt lat="46.65996" lon="5.72095">
        <ele>567</ele>
        <time>2022-08-06T05:41:13Z</time>
      </trkpt>
      <trkpt lat="46.65995" lon="5.72111">
        <ele>566.6</ele>
        <time>2022-08-06T05:41:14Z</time>
      </trkpt>
      <trkpt lat="46.65997" lon="5.72122">
        <ele>566.4</ele>
        <time>2022-08-06T05:41:15Z</time>
      </trkpt>
      <trkpt lat="46.66" lon="5.72135">
        <ele>565.8</ele>
        <time>2022-08-06T05:41:16Z</time>
      </trkpt>
      <trkpt lat="46.66005" lon="5.72147">
        <ele>565.4</ele>
        <time>2022-08-06T05:41:17Z</time>
      </trkpt>
      <trkpt lat="46.66018" lon="5.72169">
        <ele>564.6</ele>
        <time>2022-08-06T05:41:19Z</time>
      </trkpt>
      <trkpt lat="46.66032" lon="5.72189">
        <ele>563.6</ele>
        <time>2022-08-06T05:41:21Z</time>
      </trkpt>
      <trkpt lat="46.6604" lon="5.722">
        <ele>563.2</ele>
        <time>2022-08-06T05:41:22Z</time>
      </trkpt>
      <trkpt lat="46.66061" lon="5.72232">
        <ele>562.2</ele>
        <time>2022-08-06T05:41:25Z</time>
      </trkpt>
      <trkpt lat="46.66074" lon="5.72254">
        <ele>561.2</ele>
        <time>2022-08-06T05:41:27Z</time>
      </trkpt>
      <trkpt lat="46.66084" lon="5.72265">
        <ele>560.8</ele>
        <time>2022-08-06T05:41:28Z</time>
      </trkpt>
      <trkpt lat="46.66091" lon="5.7227">
        <ele>559.6</ele>
        <time>2022-08-06T05:41:29Z</time>
      </trkpt>
      <trkpt lat="46.661" lon="5.72274">
        <ele>558.8</ele>
        <time>2022-08-06T05:41:30Z</time>
      </trkpt>
      <trkpt lat="46.6611" lon="5.72277">
        <ele>558.8</ele>
        <time>2022-08-06T05:41:31Z</time>
      </trkpt>
      <trkpt lat="46.6612" lon="5.72279">
        <ele>558.2</ele>
        <time>2022-08-06T05:41:32Z</time>
      </trkpt>
      <trkpt lat="46.66143" lon="5.72283">
        <ele>556.4</ele>
        <time>2022-08-06T05:41:34Z</time>
      </trkpt>
      <trkpt lat="46.66152" lon="5.72288">
        <ele>556.2</ele>
        <time>2022-08-06T05:41:35Z</time>
      </trkpt>
      <trkpt lat="46.66162" lon="5.72295">
        <ele>555.6</ele>
        <time>2022-08-06T05:41:36Z</time>
      </trkpt>
      <trkpt lat="46.6617" lon="5.72305">
        <ele>555.4</ele>
        <time>2022-08-06T05:41:37Z</time>
      </trkpt>
      <trkpt lat="46.66177" lon="5.72314">
        <ele>554.4</ele>
        <time>2022-08-06T05:41:38Z</time>
      </trkpt>
      <trkpt lat="46.66186" lon="5.72325">
        <ele>554</ele>
        <time>2022-08-06T05:41:39Z</time>
      </trkpt>
      <trkpt lat="46.66202" lon="5.72348">
        <ele>552.8</ele>
        <time>2022-08-06T05:41:41Z</time>
      </trkpt>
      <trkpt lat="46.66219" lon="5.72373">
        <ele>551.2</ele>
        <time>2022-08-06T05:41:43Z</time>
      </trkpt>
      <trkpt lat="46.66226" lon="5.72382">
        <ele>550.6</ele>
        <time>2022-08-06T05:41:44Z</time>
      </trkpt>
      <trkpt lat="46.66236" lon="5.72393">
        <ele>549.6</ele>
        <time>2022-08-06T05:41:45Z</time>
      </trkpt>
      <trkpt lat="46.66255" lon="5.72418">
        <ele>548.4</ele>
        <time>2022-08-06T05:41:47Z</time>
      </trkpt>
      <trkpt lat="46.66262" lon="5.72428">
        <ele>547.2</ele>
        <time>2022-08-06T05:41:48Z</time>
      </trkpt>
      <trkpt lat="46.66279" lon="5.72455">
        <ele>545.6</ele>
        <time>2022-08-06T05:41:50Z</time>
      </trkpt>
      <trkpt lat="46.66293" lon="5.72478">
        <ele>544.4</ele>
        <time>2022-08-06T05:41:52Z</time>
      </trkpt>
      <trkpt lat="46.663" lon="5.72492">
        <ele>544</ele>
        <time>2022-08-06T05:41:53Z</time>
      </trkpt>
      <trkpt lat="46.66307" lon="5.7251">
        <ele>543.4</ele>
        <time>2022-08-06T05:41:54Z</time>
      </trkpt>
      <trkpt lat="46.66311" lon="5.72526">
        <ele>542.2</ele>
        <time>2022-08-06T05:41:55Z</time>
      </trkpt>
      <trkpt lat="46.66318" lon="5.72555">
        <ele>541</ele>
        <time>2022-08-06T05:41:57Z</time>
      </trkpt>
      <trkpt lat="46.66323" lon="5.72589">
        <ele>539.8</ele>
        <time>2022-08-06T05:41:59Z</time>
      </trkpt>
      <trkpt lat="46.66322" lon="5.72626">
        <ele>538.4</ele>
        <time>2022-08-06T05:42:01Z</time>
      </trkpt>
      <trkpt lat="46.66319" lon="5.72642">
        <ele>537</ele>
        <time>2022-08-06T05:42:02Z</time>
      </trkpt>
      <trkpt lat="46.6631" lon="5.72673">
        <ele>535.2</ele>
        <time>2022-08-06T05:42:04Z</time>
      </trkpt>
      <trkpt lat="46.66301" lon="5.727">
        <ele>534.2</ele>
        <time>2022-08-06T05:42:06Z</time>
      </trkpt>
      <trkpt lat="46.66289" lon="5.72732">
        <ele>532.6</ele>
        <time>2022-08-06T05:42:08Z</time>
      </trkpt>
      <trkpt lat="46.66276" lon="5.72759">
        <ele>531.6</ele>
        <time>2022-08-06T05:42:10Z</time>
      </trkpt>
      <trkpt lat="46.66267" lon="5.7277">
        <ele>530.8</ele>
        <time>2022-08-06T05:42:11Z</time>
      </trkpt>
      <trkpt lat="46.66258" lon="5.72781">
        <ele>530.4</ele>
        <time>2022-08-06T05:42:12Z</time>
      </trkpt>
      <trkpt lat="46.66248" lon="5.7279">
        <ele>530.2</ele>
        <time>2022-08-06T05:42:13Z</time>
      </trkpt>
      <trkpt lat="46.66237" lon="5.72798">
        <ele>529.8</ele>
        <time>2022-08-06T05:42:14Z</time>
      </trkpt>
      <trkpt lat="46.66204" lon="5.72818">
        <ele>528.4</ele>
        <time>2022-08-06T05:42:17Z</time>
      </trkpt>
      <trkpt lat="46.66192" lon="5.72825">
        <ele>527.4</ele>
        <time>2022-08-06T05:42:18Z</time>
      </trkpt>
      <trkpt lat="46.66171" lon="5.72835">
        <ele>526.2</ele>
        <time>2022-08-06T05:42:20Z</time>
      </trkpt>
      <trkpt lat="46.66134" lon="5.72854">
        <ele>524.8</ele>
        <time>2022-08-06T05:42:23Z</time>
      </trkpt>
      <trkpt lat="46.66113" lon="5.72865">
        <ele>523.4</ele>
        <time>2022-08-06T05:42:25Z</time>
      </trkpt>
      <trkpt lat="46.66099" lon="5.72873">
        <ele>522.6</ele>
        <time>2022-08-06T05:42:26Z</time>
      </trkpt>
      <trkpt lat="46.66091" lon="5.7288">
        <ele>521.6</ele>
        <time>2022-08-06T05:42:27Z</time>
      </trkpt>
      <trkpt lat="46.6608" lon="5.7289">
        <ele>521</ele>
        <time>2022-08-06T05:42:28Z</time>
      </trkpt>
      <trkpt lat="46.66068" lon="5.72905">
        <ele>519.8</ele>
        <time>2022-08-06T05:42:29Z</time>
      </trkpt>
      <trkpt lat="46.66053" lon="5.72929">
        <ele>519</ele>
        <time>2022-08-06T05:42:31Z</time>
      </trkpt>
      <trkpt lat="46.66041" lon="5.72945">
        <ele>518.8</ele>
        <time>2022-08-06T05:42:32Z</time>
      </trkpt>
      <trkpt lat="46.66032" lon="5.72957">
        <ele>518.2</ele>
        <time>2022-08-06T05:42:33Z</time>
      </trkpt>
      <trkpt lat="46.66023" lon="5.72967">
        <ele>517.4</ele>
        <time>2022-08-06T05:42:34Z</time>
      </trkpt>
      <trkpt lat="46.66011" lon="5.72981">
        <ele>517.2</ele>
        <time>2022-08-06T05:42:35Z</time>
      </trkpt>
      <trkpt lat="46.65993" lon="5.73005">
        <ele>516.2</ele>
        <time>2022-08-06T05:42:37Z</time>
      </trkpt>
      <trkpt lat="46.65978" lon="5.73026">
        <ele>514.8</ele>
        <time>2022-08-06T05:42:39Z</time>
      </trkpt>
      <trkpt lat="46.65964" lon="5.73044">
        <ele>514.2</ele>
        <time>2022-08-06T05:42:41Z</time>
      </trkpt>
      <trkpt lat="46.65957" lon="5.7305">
        <ele>513.8</ele>
        <time>2022-08-06T05:42:42Z</time>
      </trkpt>
      <trkpt lat="46.65949" lon="5.73052">
        <ele>513.4</ele>
        <time>2022-08-06T05:42:43Z</time>
      </trkpt>
      <trkpt lat="46.6593" lon="5.7305">
        <ele>512.6</ele>
        <time>2022-08-06T05:42:45Z</time>
      </trkpt>
      <trkpt lat="46.65916" lon="5.73041">
        <ele>512.2</ele>
        <time>2022-08-06T05:42:47Z</time>
      </trkpt>
      <trkpt lat="46.6591" lon="5.73034">
        <ele>512</ele>
        <time>2022-08-06T05:42:48Z</time>
      </trkpt>
      <trkpt lat="46.65903" lon="5.73022">
        <ele>511.6</ele>
        <time>2022-08-06T05:42:49Z</time>
      </trkpt>
      <trkpt lat="46.65894" lon="5.73001">
        <ele>511</ele>
        <time>2022-08-06T05:42:51Z</time>
      </trkpt>
      <trkpt lat="46.65873" lon="5.7293">
        <ele>510.8</ele>
        <time>2022-08-06T05:42:57Z</time>
      </trkpt>
      <trkpt lat="46.65869" lon="5.72915">
        <ele>510.6</ele>
        <time>2022-08-06T05:42:58Z</time>
      </trkpt>
      <trkpt lat="46.65854" lon="5.72843">
        <ele>509.8</ele>
        <time>2022-08-06T05:43:04Z</time>
      </trkpt>
      <trkpt lat="46.65848" lon="5.72819">
        <ele>509.4</ele>
        <time>2022-08-06T05:43:06Z</time>
      </trkpt>
      <trkpt lat="46.65844" lon="5.72808">
        <ele>509.4</ele>
        <time>2022-08-06T05:43:07Z</time>
      </trkpt>
      <trkpt lat="46.65834" lon="5.72786">
        <ele>509.2</ele>
        <time>2022-08-06T05:43:09Z</time>
      </trkpt>
      <trkpt lat="46.65816" lon="5.72755">
        <ele>508.8</ele>
        <time>2022-08-06T05:43:12Z</time>
      </trkpt>
      <trkpt lat="46.65811" lon="5.72743">
        <ele>508.6</ele>
        <time>2022-08-06T05:43:13Z</time>
      </trkpt>
      <trkpt lat="46.65809" lon="5.72729">
        <ele>507.8</ele>
        <time>2022-08-06T05:43:14Z</time>
      </trkpt>
      <trkpt lat="46.65805" lon="5.72701">
        <ele>506.8</ele>
        <time>2022-08-06T05:43:16Z</time>
      </trkpt>
      <trkpt lat="46.65803" lon="5.72688">
        <ele>506</ele>
        <time>2022-08-06T05:43:17Z</time>
      </trkpt>
      <trkpt lat="46.658" lon="5.72677">
        <ele>505.6</ele>
        <time>2022-08-06T05:43:18Z</time>
      </trkpt>
      <trkpt lat="46.65795" lon="5.72668">
        <ele>505</ele>
        <time>2022-08-06T05:43:19Z</time>
      </trkpt>
      <trkpt lat="46.65787" lon="5.72661">
        <ele>504.8</ele>
        <time>2022-08-06T05:43:20Z</time>
      </trkpt>
      <trkpt lat="46.65779" lon="5.72662">
        <ele>504.2</ele>
        <time>2022-08-06T05:43:21Z</time>
      </trkpt>
      <trkpt lat="46.65774" lon="5.72672">
        <ele>503.2</ele>
        <time>2022-08-06T05:43:22Z</time>
      </trkpt>
      <trkpt lat="46.65772" lon="5.72684">
        <ele>502.8</ele>
        <time>2022-08-06T05:43:23Z</time>
      </trkpt>
      <trkpt lat="46.65771" lon="5.72695">
        <ele>502.2</ele>
        <time>2022-08-06T05:43:24Z</time>
      </trkpt>
      <trkpt lat="46.65771" lon="5.72711">
        <ele>502</ele>
        <time>2022-08-06T05:43:25Z</time>
      </trkpt>
      <trkpt lat="46.65771" lon="5.72737">
        <ele>501.2</ele>
        <time>2022-08-06T05:43:27Z</time>
      </trkpt>
      <trkpt lat="46.65771" lon="5.7275">
        <ele>500.6</ele>
        <time>2022-08-06T05:43:28Z</time>
      </trkpt>
      <trkpt lat="46.65774" lon="5.72801">
        <ele>499.4</ele>
        <time>2022-08-06T05:43:32Z</time>
      </trkpt>
      <trkpt lat="46.65779" lon="5.72844">
        <ele>498.4</ele>
        <time>2022-08-06T05:43:35Z</time>
      </trkpt>
      <trkpt lat="46.65783" lon="5.72885">
        <ele>496.8</ele>
        <time>2022-08-06T05:43:38Z</time>
      </trkpt>
      <trkpt lat="46.65786" lon="5.72913">
        <ele>496.2</ele>
        <time>2022-08-06T05:43:40Z</time>
      </trkpt>
      <trkpt lat="46.65787" lon="5.72927">
        <ele>495.8</ele>
        <time>2022-08-06T05:43:41Z</time>
      </trkpt>
      <trkpt lat="46.65792" lon="5.72971">
        <ele>494.4</ele>
        <time>2022-08-06T05:43:44Z</time>
      </trkpt>
      <trkpt lat="46.65797" lon="5.73015">
        <ele>493.2</ele>
        <time>2022-08-06T05:43:47Z</time>
      </trkpt>
      <trkpt lat="46.65799" lon="5.7303">
        <ele>492.6</ele>
        <time>2022-08-06T05:43:48Z</time>
      </trkpt>
      <trkpt lat="46.65801" lon="5.73045">
        <ele>491.8</ele>
        <time>2022-08-06T05:43:49Z</time>
      </trkpt>
      <trkpt lat="46.65804" lon="5.73074">
        <ele>490.6</ele>
        <time>2022-08-06T05:43:51Z</time>
      </trkpt>
      <trkpt lat="46.6581" lon="5.7312">
        <ele>489.2</ele>
        <time>2022-08-06T05:43:54Z</time>
      </trkpt>
      <trkpt lat="46.65815" lon="5.7315">
        <ele>488</ele>
        <time>2022-08-06T05:43:56Z</time>
      </trkpt>
      <trkpt lat="46.65835" lon="5.73205">
        <ele>486.6</ele>
        <time>2022-08-06T05:44:00Z</time>
      </trkpt>
      <trkpt lat="46.65842" lon="5.73217">
        <ele>485.8</ele>
        <time>2022-08-06T05:44:01Z</time>
      </trkpt>
      <trkpt lat="46.6585" lon="5.73227">
        <ele>485.4</ele>
        <time>2022-08-06T05:44:02Z</time>
      </trkpt>
      <trkpt lat="46.65857" lon="5.73233">
        <ele>484.6</ele>
        <time>2022-08-06T05:44:03Z</time>
      </trkpt>
      <trkpt lat="46.65868" lon="5.7324">
        <ele>484.2</ele>
        <time>2022-08-06T05:44:04Z</time>
      </trkpt>
      <trkpt lat="46.65877" lon="5.73244">
        <ele>483.2</ele>
        <time>2022-08-06T05:44:05Z</time>
      </trkpt>
      <trkpt lat="46.65887" lon="5.73247">
        <ele>482.8</ele>
        <time>2022-08-06T05:44:06Z</time>
      </trkpt>
      <trkpt lat="46.65916" lon="5.73256">
        <ele>481.6</ele>
        <time>2022-08-06T05:44:09Z</time>
      </trkpt>
      <trkpt lat="46.65925" lon="5.73262">
        <ele>481.2</ele>
        <time>2022-08-06T05:44:10Z</time>
      </trkpt>
      <trkpt lat="46.65932" lon="5.7327">
        <ele>481.2</ele>
        <time>2022-08-06T05:44:11Z</time>
      </trkpt>
      <trkpt lat="46.65938" lon="5.73281">
        <ele>480.4</ele>
        <time>2022-08-06T05:44:12Z</time>
      </trkpt>
      <trkpt lat="46.65941" lon="5.73308">
        <ele>479.8</ele>
        <time>2022-08-06T05:44:14Z</time>
      </trkpt>
      <trkpt lat="46.65928" lon="5.73325">
        <ele>479.4</ele>
        <time>2022-08-06T05:44:16Z</time>
      </trkpt>
      <trkpt lat="46.6591" lon="5.7333">
        <ele>478.8</ele>
        <time>2022-08-06T05:44:18Z</time>
      </trkpt>
      <trkpt lat="46.659" lon="5.7333">
        <ele>478.4</ele>
        <time>2022-08-06T05:44:19Z</time>
      </trkpt>
      <trkpt lat="46.65879" lon="5.73331">
        <ele>478</ele>
        <time>2022-08-06T05:44:21Z</time>
      </trkpt>
      <trkpt lat="46.65847" lon="5.73331">
        <ele>476.6</ele>
        <time>2022-08-06T05:44:24Z</time>
      </trkpt>
      <trkpt lat="46.65836" lon="5.73332">
        <ele>476.4</ele>
        <time>2022-08-06T05:44:25Z</time>
      </trkpt>
      <trkpt lat="46.65804" lon="5.73334">
        <ele>475.4</ele>
        <time>2022-08-06T05:44:28Z</time>
      </trkpt>
      <trkpt lat="46.65783" lon="5.73336">
        <ele>474.4</ele>
        <time>2022-08-06T05:44:30Z</time>
      </trkpt>
      <trkpt lat="46.6575" lon="5.73339">
        <ele>473</ele>
        <time>2022-08-06T05:44:33Z</time>
      </trkpt>
      <trkpt lat="46.65728" lon="5.73341">
        <ele>472</ele>
        <time>2022-08-06T05:44:35Z</time>
      </trkpt>
      <trkpt lat="46.65717" lon="5.73342">
        <ele>471.6</ele>
        <time>2022-08-06T05:44:36Z</time>
      </trkpt>
      <trkpt lat="46.65683" lon="5.73344">
        <ele>470.4</ele>
        <time>2022-08-06T05:44:39Z</time>
      </trkpt>
      <trkpt lat="46.65649" lon="5.73346">
        <ele>469.2</ele>
        <time>2022-08-06T05:44:42Z</time>
      </trkpt>
      <trkpt lat="46.65615" lon="5.73351">
        <ele>468</ele>
        <time>2022-08-06T05:44:45Z</time>
      </trkpt>
      <trkpt lat="46.65593" lon="5.73359">
        <ele>466.6</ele>
        <time>2022-08-06T05:44:47Z</time>
      </trkpt>
      <trkpt lat="46.65572" lon="5.73369">
        <ele>465.6</ele>
        <time>2022-08-06T05:44:49Z</time>
      </trkpt>
      <trkpt lat="46.65561" lon="5.73376">
        <ele>465.2</ele>
        <time>2022-08-06T05:44:50Z</time>
      </trkpt>
      <trkpt lat="46.65551" lon="5.73383">
        <ele>464.4</ele>
        <time>2022-08-06T05:44:51Z</time>
      </trkpt>
      <trkpt lat="46.65542" lon="5.73392">
        <ele>464.2</ele>
        <time>2022-08-06T05:44:52Z</time>
      </trkpt>
      <trkpt lat="46.65533" lon="5.73402">
        <ele>463.8</ele>
        <time>2022-08-06T05:44:53Z</time>
      </trkpt>
      <trkpt lat="46.65519" lon="5.73424">
        <ele>463.2</ele>
        <time>2022-08-06T05:44:55Z</time>
      </trkpt>
      <trkpt lat="46.65513" lon="5.73438">
        <ele>462.8</ele>
        <time>2022-08-06T05:44:56Z</time>
      </trkpt>
      <trkpt lat="46.65509" lon="5.73453">
        <ele>462.6</ele>
        <time>2022-08-06T05:44:57Z</time>
      </trkpt>
      <trkpt lat="46.65506" lon="5.73468">
        <ele>462</ele>
        <time>2022-08-06T05:44:58Z</time>
      </trkpt>
      <trkpt lat="46.65501" lon="5.73497">
        <ele>461.2</ele>
        <time>2022-08-06T05:45:00Z</time>
      </trkpt>
      <trkpt lat="46.65497" lon="5.73525">
        <ele>460.8</ele>
        <time>2022-08-06T05:45:02Z</time>
      </trkpt>
      <trkpt lat="46.65493" lon="5.73565">
        <ele>460.2</ele>
        <time>2022-08-06T05:45:05Z</time>
      </trkpt>
      <trkpt lat="46.65489" lon="5.73641">
        <ele>460</ele>
        <time>2022-08-06T05:45:11Z</time>
      </trkpt>
      <trkpt lat="46.65486" lon="5.73703">
        <ele>459.8</ele>
        <time>2022-08-06T05:45:16Z</time>
      </trkpt>
      <trkpt lat="46.65485" lon="5.73753">
        <ele>459.6</ele>
        <time>2022-08-06T05:45:20Z</time>
      </trkpt>
      <trkpt lat="46.65482" lon="5.73839">
        <ele>459</ele>
        <time>2022-08-06T05:45:27Z</time>
      </trkpt>
      <trkpt lat="46.65481" lon="5.73852">
        <ele>458.6</ele>
        <time>2022-08-06T05:45:28Z</time>
      </trkpt>
      <trkpt lat="46.65479" lon="5.73905">
        <ele>457.6</ele>
        <time>2022-08-06T05:45:32Z</time>
      </trkpt>
      <trkpt lat="46.65477" lon="5.73958">
        <ele>456.6</ele>
        <time>2022-08-06T05:45:36Z</time>
      </trkpt>
      <trkpt lat="46.65476" lon="5.73971">
        <ele>456.2</ele>
        <time>2022-08-06T05:45:37Z</time>
      </trkpt>
      <trkpt lat="46.65468" lon="5.74012">
        <ele>455.2</ele>
        <time>2022-08-06T05:45:40Z</time>
      </trkpt>
      <trkpt lat="46.65465" lon="5.74021">
        <ele>454.8</ele>
        <time>2022-08-06T05:45:41Z</time>
      </trkpt>
      <trkpt lat="46.6545" lon="5.74053">
        <ele>454.2</ele>
        <time>2022-08-06T05:45:44Z</time>
      </trkpt>
      <trkpt lat="46.65422" lon="5.74099">
        <ele>454</ele>
        <time>2022-08-06T05:45:49Z</time>
      </trkpt>
      <trkpt lat="46.65406" lon="5.74122">
        <ele>454</ele>
        <time>2022-08-06T05:45:52Z</time>
      </trkpt>
      <trkpt lat="46.65401" lon="5.74133">
        <ele>454</ele>
        <time>2022-08-06T05:45:53Z</time>
      </trkpt>
      <trkpt lat="46.65398" lon="5.74143">
        <ele>454.2</ele>
        <time>2022-08-06T05:45:54Z</time>
      </trkpt>
      <trkpt lat="46.65396" lon="5.74161">
        <ele>454.4</ele>
        <time>2022-08-06T05:45:56Z</time>
      </trkpt>
      <trkpt lat="46.65396" lon="5.74169">
        <ele>454.8</ele>
        <time>2022-08-06T05:45:57Z</time>
      </trkpt>
      <trkpt lat="46.65397" lon="5.74177">
        <ele>455</ele>
        <time>2022-08-06T05:45:58Z</time>
      </trkpt>
      <trkpt lat="46.65401" lon="5.74192">
        <ele>455.4</ele>
        <time>2022-08-06T05:46:00Z</time>
      </trkpt>
      <trkpt lat="46.65403" lon="5.74199">
        <ele>455.6</ele>
        <time>2022-08-06T05:46:01Z</time>
      </trkpt>
      <trkpt lat="46.65411" lon="5.74216">
        <ele>456.4</ele>
        <time>2022-08-06T05:46:04Z</time>
      </trkpt>
      <trkpt lat="46.65421" lon="5.7424">
        <ele>457.4</ele>
        <time>2022-08-06T05:46:08Z</time>
      </trkpt>
      <trkpt lat="46.65435" lon="5.74268">
        <ele>458.6</ele>
        <time>2022-08-06T05:46:13Z</time>
      </trkpt>
      <trkpt lat="46.65442" lon="5.74284">
        <ele>459.2</ele>
        <time>2022-08-06T05:46:16Z</time>
      </trkpt>
      <trkpt lat="46.65447" lon="5.74294">
        <ele>459.8</ele>
        <time>2022-08-06T05:46:18Z</time>
      </trkpt>
      <trkpt lat="46.65449" lon="5.74298">
        <ele>459.8</ele>
        <time>2022-08-06T05:46:19Z</time>
      </trkpt>
      <trkpt lat="46.6546" lon="5.74313">
        <ele>460.6</ele>
        <time>2022-08-06T05:46:22Z</time>
      </trkpt>
      <trkpt lat="46.65464" lon="5.74319">
        <ele>460.8</ele>
        <time>2022-08-06T05:46:23Z</time>
      </trkpt>
      <trkpt lat="46.65468" lon="5.7433">
        <ele>461.6</ele>
        <time>2022-08-06T05:46:25Z</time>
      </trkpt>
      <trkpt lat="46.65473" lon="5.7434">
        <ele>462</ele>
        <time>2022-08-06T05:46:27Z</time>
      </trkpt>
      <trkpt lat="46.65475" lon="5.74346">
        <ele>462</ele>
        <time>2022-08-06T05:46:28Z</time>
      </trkpt>
      <trkpt lat="46.6548" lon="5.74357">
        <ele>462.4</ele>
        <time>2022-08-06T05:46:30Z</time>
      </trkpt>
      <trkpt lat="46.65482" lon="5.74363">
        <ele>462.6</ele>
        <time>2022-08-06T05:46:31Z</time>
      </trkpt>
      <trkpt lat="46.65486" lon="5.74375">
        <ele>463</ele>
        <time>2022-08-06T05:46:33Z</time>
      </trkpt>
      <trkpt lat="46.65489" lon="5.74384">
        <ele>463.4</ele>
        <time>2022-08-06T05:46:35Z</time>
      </trkpt>
      <trkpt lat="46.65495" lon="5.74395">
        <ele>464</ele>
        <time>2022-08-06T05:46:37Z</time>
      </trkpt>
      <trkpt lat="46.65503" lon="5.7441">
        <ele>464.6</ele>
        <time>2022-08-06T05:46:40Z</time>
      </trkpt>
      <trkpt lat="46.65507" lon="5.7442">
        <ele>465.2</ele>
        <time>2022-08-06T05:46:42Z</time>
      </trkpt>
      <trkpt lat="46.65515" lon="5.7444">
        <ele>465.8</ele>
        <time>2022-08-06T05:46:46Z</time>
      </trkpt>
      <trkpt lat="46.65519" lon="5.74449">
        <ele>466.2</ele>
        <time>2022-08-06T05:46:48Z</time>
      </trkpt>
      <trkpt lat="46.65531" lon="5.74473">
        <ele>467</ele>
        <time>2022-08-06T05:46:53Z</time>
      </trkpt>
      <trkpt lat="46.65534" lon="5.74478">
        <ele>467.2</ele>
        <time>2022-08-06T05:46:54Z</time>
      </trkpt>
      <trkpt lat="46.65543" lon="5.74502">
        <ele>468</ele>
        <time>2022-08-06T05:46:59Z</time>
      </trkpt>
      <trkpt lat="46.65546" lon="5.74511">
        <ele>468.2</ele>
        <time>2022-08-06T05:47:01Z</time>
      </trkpt>
      <trkpt lat="46.65556" lon="5.74528">
        <ele>469</ele>
        <time>2022-08-06T05:47:05Z</time>
      </trkpt>
      <trkpt lat="46.65558" lon="5.74531">
        <ele>469.2</ele>
        <time>2022-08-06T05:47:06Z</time>
      </trkpt>
      <trkpt lat="46.65572" lon="5.74549">
        <ele>470.2</ele>
        <time>2022-08-06T05:47:11Z</time>
      </trkpt>
      <trkpt lat="46.65575" lon="5.74553">
        <ele>470.4</ele>
        <time>2022-08-06T05:47:12Z</time>
      </trkpt>
      <trkpt lat="46.65585" lon="5.74564">
        <ele>471.2</ele>
        <time>2022-08-06T05:47:16Z</time>
      </trkpt>
      <trkpt lat="46.65591" lon="5.7457">
        <ele>471.6</ele>
        <time>2022-08-06T05:47:18Z</time>
      </trkpt>
      <trkpt lat="46.656" lon="5.74581">
        <ele>472</ele>
        <time>2022-08-06T05:47:21Z</time>
      </trkpt>
      <trkpt lat="46.65608" lon="5.74594">
        <ele>472.6</ele>
        <time>2022-08-06T05:47:24Z</time>
      </trkpt>
      <trkpt lat="46.65613" lon="5.74604">
        <ele>473</ele>
        <time>2022-08-06T05:47:26Z</time>
      </trkpt>
      <trkpt lat="46.65622" lon="5.74618">
        <ele>473.6</ele>
        <time>2022-08-06T05:47:29Z</time>
      </trkpt>
      <trkpt lat="46.65631" lon="5.74637">
        <ele>474.2</ele>
        <time>2022-08-06T05:47:33Z</time>
      </trkpt>
      <trkpt lat="46.65635" lon="5.74648">
        <ele>474.8</ele>
        <time>2022-08-06T05:47:35Z</time>
      </trkpt>
      <trkpt lat="46.6564" lon="5.74664">
        <ele>475.4</ele>
        <time>2022-08-06T05:47:38Z</time>
      </trkpt>
      <trkpt lat="46.65644" lon="5.74677">
        <ele>476</ele>
        <time>2022-08-06T05:47:41Z</time>
      </trkpt>
      <trkpt lat="46.65653" lon="5.74698">
        <ele>476.8</ele>
        <time>2022-08-06T05:47:45Z</time>
      </trkpt>
      <trkpt lat="46.65657" lon="5.74708">
        <ele>477</ele>
        <time>2022-08-06T05:47:47Z</time>
      </trkpt>
      <trkpt lat="46.65663" lon="5.74726">
        <ele>477.8</ele>
        <time>2022-08-06T05:47:51Z</time>
      </trkpt>
      <trkpt lat="46.65665" lon="5.74732">
        <ele>478.2</ele>
        <time>2022-08-06T05:47:52Z</time>
      </trkpt>
      <trkpt lat="46.65674" lon="5.74756">
        <ele>479.2</ele>
        <time>2022-08-06T05:47:57Z</time>
      </trkpt>
      <trkpt lat="46.65683" lon="5.74786">
        <ele>480.4</ele>
        <time>2022-08-06T05:48:03Z</time>
      </trkpt>
      <trkpt lat="46.65688" lon="5.74823">
        <ele>481.4</ele>
        <time>2022-08-06T05:48:10Z</time>
      </trkpt>
      <trkpt lat="46.65689" lon="5.74828">
        <ele>481.6</ele>
        <time>2022-08-06T05:48:11Z</time>
      </trkpt>
      <trkpt lat="46.65693" lon="5.74855">
        <ele>482.6</ele>
        <time>2022-08-06T05:48:16Z</time>
      </trkpt>
      <trkpt lat="46.65696" lon="5.74871">
        <ele>483.2</ele>
        <time>2022-08-06T05:48:19Z</time>
      </trkpt>
      <trkpt lat="46.657" lon="5.74887">
        <ele>484</ele>
        <time>2022-08-06T05:48:22Z</time>
      </trkpt>
      <trkpt lat="46.65704" lon="5.74908">
        <ele>484.4</ele>
        <time>2022-08-06T05:48:26Z</time>
      </trkpt>
      <trkpt lat="46.65707" lon="5.74927">
        <ele>485.2</ele>
        <time>2022-08-06T05:48:30Z</time>
      </trkpt>
      <trkpt lat="46.65708" lon="5.74936">
        <ele>485.6</ele>
        <time>2022-08-06T05:48:32Z</time>
      </trkpt>
      <trkpt lat="46.65713" lon="5.74955">
        <ele>486.4</ele>
        <time>2022-08-06T05:48:36Z</time>
      </trkpt>
      <trkpt lat="46.65718" lon="5.7497">
        <ele>486.8</ele>
        <time>2022-08-06T05:48:39Z</time>
      </trkpt>
      <trkpt lat="46.65729" lon="5.74982">
        <ele>487.6</ele>
        <time>2022-08-06T05:48:42Z</time>
      </trkpt>
      <trkpt lat="46.65735" lon="5.74989">
        <ele>487.8</ele>
        <time>2022-08-06T05:48:44Z</time>
      </trkpt>
      <trkpt lat="46.65752" lon="5.75">
        <ele>488.4</ele>
        <time>2022-08-06T05:48:49Z</time>
      </trkpt>
      <trkpt lat="46.65756" lon="5.75003">
        <ele>488.6</ele>
        <time>2022-08-06T05:48:50Z</time>
      </trkpt>
      <trkpt lat="46.65789" lon="5.75019">
        <ele>489.8</ele>
        <time>2022-08-06T05:48:58Z</time>
      </trkpt>
      <trkpt lat="46.65793" lon="5.75021">
        <ele>489.8</ele>
        <time>2022-08-06T05:48:59Z</time>
      </trkpt>
      <trkpt lat="46.65815" lon="5.75039">
        <ele>490.6</ele>
        <time>2022-08-06T05:49:05Z</time>
      </trkpt>
      <trkpt lat="46.65819" lon="5.75042">
        <ele>490.8</ele>
        <time>2022-08-06T05:49:06Z</time>
      </trkpt>
      <trkpt lat="46.65834" lon="5.75059">
        <ele>491.8</ele>
        <time>2022-08-06T05:49:11Z</time>
      </trkpt>
      <trkpt lat="46.65837" lon="5.75064">
        <ele>492</ele>
        <time>2022-08-06T05:49:12Z</time>
      </trkpt>
      <trkpt lat="46.65848" lon="5.75086">
        <ele>493</ele>
        <time>2022-08-06T05:49:17Z</time>
      </trkpt>
      <trkpt lat="46.6585" lon="5.7509">
        <ele>493</ele>
        <time>2022-08-06T05:49:18Z</time>
      </trkpt>
      <trkpt lat="46.65864" lon="5.75123">
        <ele>494</ele>
        <time>2022-08-06T05:49:25Z</time>
      </trkpt>
      <trkpt lat="46.65875" lon="5.75142">
        <ele>494.4</ele>
        <time>2022-08-06T05:49:30Z</time>
      </trkpt>
      <trkpt lat="46.65883" lon="5.75153">
        <ele>495.2</ele>
        <time>2022-08-06T05:49:33Z</time>
      </trkpt>
      <trkpt lat="46.65888" lon="5.75161">
        <ele>495.6</ele>
        <time>2022-08-06T05:49:35Z</time>
      </trkpt>
      <trkpt lat="46.65899" lon="5.75178">
        <ele>496.2</ele>
        <time>2022-08-06T05:49:39Z</time>
      </trkpt>
      <trkpt lat="46.65905" lon="5.75189">
        <ele>496.4</ele>
        <time>2022-08-06T05:49:41Z</time>
      </trkpt>
      <trkpt lat="46.65916" lon="5.75211">
        <ele>497.2</ele>
        <time>2022-08-06T05:49:45Z</time>
      </trkpt>
      <trkpt lat="46.65917" lon="5.75219">
        <ele>497.4</ele>
        <time>2022-08-06T05:49:46Z</time>
      </trkpt>
      <trkpt lat="46.65917" lon="5.75225">
        <ele>497.6</ele>
        <time>2022-08-06T05:49:47Z</time>
      </trkpt>
      <trkpt lat="46.65918" lon="5.75246">
        <ele>497.8</ele>
        <time>2022-08-06T05:49:50Z</time>
      </trkpt>
      <trkpt lat="46.65916" lon="5.75257">
        <ele>498.2</ele>
        <time>2022-08-06T05:49:52Z</time>
      </trkpt>
      <trkpt lat="46.65914" lon="5.75268">
        <ele>498.4</ele>
        <time>2022-08-06T05:49:54Z</time>
      </trkpt>
      <trkpt lat="46.65911" lon="5.75278">
        <ele>498.6</ele>
        <time>2022-08-06T05:49:56Z</time>
      </trkpt>
      <trkpt lat="46.65905" lon="5.75299">
        <ele>499.6</ele>
        <time>2022-08-06T05:50:00Z</time>
      </trkpt>
      <trkpt lat="46.65898" lon="5.75321">
        <ele>500.4</ele>
        <time>2022-08-06T05:50:04Z</time>
      </trkpt>
      <trkpt lat="46.65897" lon="5.75325">
        <ele>500.6</ele>
        <time>2022-08-06T05:50:05Z</time>
      </trkpt>
      <trkpt lat="46.65884" lon="5.75368">
        <ele>501.8</ele>
        <time>2022-08-06T05:50:13Z</time>
      </trkpt>
      <trkpt lat="46.65876" lon="5.754">
        <ele>503</ele>
        <time>2022-08-06T05:50:19Z</time>
      </trkpt>
      <trkpt lat="46.65871" lon="5.75423">
        <ele>503.6</ele>
        <time>2022-08-06T05:50:23Z</time>
      </trkpt>
      <trkpt lat="46.65869" lon="5.75429">
        <ele>503.8</ele>
        <time>2022-08-06T05:50:24Z</time>
      </trkpt>
      <trkpt lat="46.65864" lon="5.75445">
        <ele>504</ele>
        <time>2022-08-06T05:50:27Z</time>
      </trkpt>
      <trkpt lat="46.6586" lon="5.75458">
        <ele>504.2</ele>
        <time>2022-08-06T05:50:29Z</time>
      </trkpt>
      <trkpt lat="46.65849" lon="5.75495">
        <ele>505</ele>
        <time>2022-08-06T05:50:35Z</time>
      </trkpt>
      <trkpt lat="46.65844" lon="5.75512">
        <ele>505.2</ele>
        <time>2022-08-06T05:50:38Z</time>
      </trkpt>
      <trkpt lat="46.65827" lon="5.75563">
        <ele>505.4</ele>
        <time>2022-08-06T05:50:46Z</time>
      </trkpt>
      <trkpt lat="46.6582" lon="5.75588">
        <ele>505.8</ele>
        <time>2022-08-06T05:50:50Z</time>
      </trkpt>
      <trkpt lat="46.65818" lon="5.75595">
        <ele>506</ele>
        <time>2022-08-06T05:50:51Z</time>
      </trkpt>
      <trkpt lat="46.65816" lon="5.75608">
        <ele>506.2</ele>
        <time>2022-08-06T05:50:53Z</time>
      </trkpt>
      <trkpt lat="46.65811" lon="5.75645">
        <ele>507</ele>
        <time>2022-08-06T05:50:58Z</time>
      </trkpt>
      <trkpt lat="46.65811" lon="5.75653">
        <ele>507.2</ele>
        <time>2022-08-06T05:50:59Z</time>
      </trkpt>
      <trkpt lat="46.65811" lon="5.75671">
        <ele>507.4</ele>
        <time>2022-08-06T05:51:01Z</time>
      </trkpt>
      <trkpt lat="46.65815" lon="5.75693">
        <ele>507.6</ele>
        <time>2022-08-06T05:51:04Z</time>
      </trkpt>
      <trkpt lat="46.65826" lon="5.75731">
        <ele>508.2</ele>
        <time>2022-08-06T05:51:09Z</time>
      </trkpt>
      <trkpt lat="46.65829" lon="5.75736">
        <ele>508.2</ele>
        <time>2022-08-06T05:51:10Z</time>
      </trkpt>
      <trkpt lat="46.65842" lon="5.75755">
        <ele>508.2</ele>
        <time>2022-08-06T05:51:13Z</time>
      </trkpt>
      <trkpt lat="46.65851" lon="5.75763">
        <ele>508.2</ele>
        <time>2022-08-06T05:51:15Z</time>
      </trkpt>
      <trkpt lat="46.6586" lon="5.75769">
        <ele>508.2</ele>
        <time>2022-08-06T05:51:17Z</time>
      </trkpt>
      <trkpt lat="46.65893" lon="5.75794">
        <ele>508.4</ele>
        <time>2022-08-06T05:51:24Z</time>
      </trkpt>
      <trkpt lat="46.65922" lon="5.75819">
        <ele>509.2</ele>
        <time>2022-08-06T05:51:31Z</time>
      </trkpt>
      <trkpt lat="46.65926" lon="5.75822">
        <ele>509.4</ele>
        <time>2022-08-06T05:51:32Z</time>
      </trkpt>
      <trkpt lat="46.65943" lon="5.75835">
        <ele>510.4</ele>
        <time>2022-08-06T05:51:36Z</time>
      </trkpt>
      <trkpt lat="46.65954" lon="5.75844">
        <ele>511</ele>
        <time>2022-08-06T05:51:39Z</time>
      </trkpt>
      <trkpt lat="46.65963" lon="5.75851">
        <ele>511.6</ele>
        <time>2022-08-06T05:51:41Z</time>
      </trkpt>
      <trkpt lat="46.65982" lon="5.75866">
        <ele>512.8</ele>
        <time>2022-08-06T05:51:46Z</time>
      </trkpt>
      <trkpt lat="46.65986" lon="5.75869">
        <ele>512.8</ele>
        <time>2022-08-06T05:51:47Z</time>
      </trkpt>
      <trkpt lat="46.66006" lon="5.75884">
        <ele>514</ele>
        <time>2022-08-06T05:51:52Z</time>
      </trkpt>
      <trkpt lat="46.66023" lon="5.75895">
        <ele>515</ele>
        <time>2022-08-06T05:51:56Z</time>
      </trkpt>
      <trkpt lat="46.66028" lon="5.75899">
        <ele>515</ele>
        <time>2022-08-06T05:51:57Z</time>
      </trkpt>
      <trkpt lat="46.66036" lon="5.75904">
        <ele>515.2</ele>
        <time>2022-08-06T05:51:59Z</time>
      </trkpt>
      <trkpt lat="46.66053" lon="5.75917">
        <ele>515.8</ele>
        <time>2022-08-06T05:52:03Z</time>
      </trkpt>
      <trkpt lat="46.66061" lon="5.75923">
        <ele>516</ele>
        <time>2022-08-06T05:52:05Z</time>
      </trkpt>
      <trkpt lat="46.66087" lon="5.7595">
        <ele>517</ele>
        <time>2022-08-06T05:52:12Z</time>
      </trkpt>
      <trkpt lat="46.66093" lon="5.75959">
        <ele>517.2</ele>
        <time>2022-08-06T05:52:14Z</time>
      </trkpt>
      <trkpt lat="46.66107" lon="5.75989">
        <ele>517.6</ele>
        <time>2022-08-06T05:52:19Z</time>
      </trkpt>
      <trkpt lat="46.66116" lon="5.76018">
        <ele>518.2</ele>
        <time>2022-08-06T05:52:24Z</time>
      </trkpt>
      <trkpt lat="46.66123" lon="5.76043">
        <ele>519</ele>
        <time>2022-08-06T05:52:28Z</time>
      </trkpt>
      <trkpt lat="46.66125" lon="5.7605">
        <ele>519.2</ele>
        <time>2022-08-06T05:52:29Z</time>
      </trkpt>
      <trkpt lat="46.66137" lon="5.76091">
        <ele>520.2</ele>
        <time>2022-08-06T05:52:35Z</time>
      </trkpt>
      <trkpt lat="46.66144" lon="5.76117">
        <ele>520.6</ele>
        <time>2022-08-06T05:52:39Z</time>
      </trkpt>
      <trkpt lat="46.66152" lon="5.76142">
        <ele>521.4</ele>
        <time>2022-08-06T05:52:43Z</time>
      </trkpt>
      <trkpt lat="46.66161" lon="5.76172">
        <ele>522</ele>
        <time>2022-08-06T05:52:48Z</time>
      </trkpt>
      <trkpt lat="46.66165" lon="5.76184">
        <ele>522.4</ele>
        <time>2022-08-06T05:52:50Z</time>
      </trkpt>
      <trkpt lat="46.66181" lon="5.76235">
        <ele>523.4</ele>
        <time>2022-08-06T05:52:57Z</time>
      </trkpt>
      <trkpt lat="46.66203" lon="5.76309">
        <ele>523.2</ele>
        <time>2022-08-06T05:53:06Z</time>
      </trkpt>
      <trkpt lat="46.66225" lon="5.76378">
        <ele>523.4</ele>
        <time>2022-08-06T05:53:14Z</time>
      </trkpt>
      <trkpt lat="46.66247" lon="5.76456">
        <ele>523</ele>
        <time>2022-08-06T05:53:23Z</time>
      </trkpt>
      <trkpt lat="46.6625" lon="5.76464">
        <ele>522.8</ele>
        <time>2022-08-06T05:53:24Z</time>
      </trkpt>
      <trkpt lat="46.66273" lon="5.76541">
        <ele>523</ele>
        <time>2022-08-06T05:53:33Z</time>
      </trkpt>
      <trkpt lat="46.66276" lon="5.76549">
        <ele>523.2</ele>
        <time>2022-08-06T05:53:34Z</time>
      </trkpt>
      <trkpt lat="46.66289" lon="5.76591">
        <ele>523.8</ele>
        <time>2022-08-06T05:53:39Z</time>
      </trkpt>
      <trkpt lat="46.66296" lon="5.76612">
        <ele>523.8</ele>
        <time>2022-08-06T05:53:42Z</time>
      </trkpt>
      <trkpt lat="46.66314" lon="5.76677">
        <ele>524.6</ele>
        <time>2022-08-06T05:53:50Z</time>
      </trkpt>
      <trkpt lat="46.66316" lon="5.76685">
        <ele>524.8</ele>
        <time>2022-08-06T05:53:51Z</time>
      </trkpt>
      <trkpt lat="46.66332" lon="5.76739">
        <ele>525.4</ele>
        <time>2022-08-06T05:53:58Z</time>
      </trkpt>
      <trkpt lat="46.66354" lon="5.76813">
        <ele>525.4</ele>
        <time>2022-08-06T05:54:07Z</time>
      </trkpt>
      <trkpt lat="46.66357" lon="5.76821">
        <ele>525.4</ele>
        <time>2022-08-06T05:54:08Z</time>
      </trkpt>
      <trkpt lat="46.66379" lon="5.76894">
        <ele>525.6</ele>
        <time>2022-08-06T05:54:17Z</time>
      </trkpt>
      <trkpt lat="46.66385" lon="5.76916">
        <ele>525.6</ele>
        <time>2022-08-06T05:54:20Z</time>
      </trkpt>
      <trkpt lat="46.6639" lon="5.76941">
        <ele>525.8</ele>
        <time>2022-08-06T05:54:23Z</time>
      </trkpt>
      <trkpt lat="46.66391" lon="5.7695">
        <ele>525.8</ele>
        <time>2022-08-06T05:54:24Z</time>
      </trkpt>
      <trkpt lat="46.66391" lon="5.76959">
        <ele>525.8</ele>
        <time>2022-08-06T05:54:25Z</time>
      </trkpt>
      <trkpt lat="46.66389" lon="5.76978">
        <ele>526</ele>
        <time>2022-08-06T05:54:27Z</time>
      </trkpt>
      <trkpt lat="46.66387" lon="5.76985">
        <ele>526</ele>
        <time>2022-08-06T05:54:28Z</time>
      </trkpt>
      <trkpt lat="46.66363" lon="5.77045">
        <ele>525.8</ele>
        <time>2022-08-06T05:54:35Z</time>
      </trkpt>
      <trkpt lat="46.66333" lon="5.77116">
        <ele>525</ele>
        <time>2022-08-06T05:54:43Z</time>
      </trkpt>
      <trkpt lat="46.66325" lon="5.77134">
        <ele>524.8</ele>
        <time>2022-08-06T05:54:45Z</time>
      </trkpt>
      <trkpt lat="46.66304" lon="5.77179">
        <ele>523.8</ele>
        <time>2022-08-06T05:54:50Z</time>
      </trkpt>
      <trkpt lat="46.66281" lon="5.77225">
        <ele>523.2</ele>
        <time>2022-08-06T05:54:55Z</time>
      </trkpt>
      <trkpt lat="46.66263" lon="5.77262">
        <ele>522.8</ele>
        <time>2022-08-06T05:54:59Z</time>
      </trkpt>
      <trkpt lat="46.66245" lon="5.77299">
        <ele>522.2</ele>
        <time>2022-08-06T05:55:03Z</time>
      </trkpt>
      <trkpt lat="46.66212" lon="5.77368">
        <ele>522.4</ele>
        <time>2022-08-06T05:55:11Z</time>
      </trkpt>
      <trkpt lat="46.66185" lon="5.77413">
        <ele>522.4</ele>
        <time>2022-08-06T05:55:17Z</time>
      </trkpt>
      <trkpt lat="46.66181" lon="5.7742">
        <ele>522.4</ele>
        <time>2022-08-06T05:55:18Z</time>
      </trkpt>
      <trkpt lat="46.66175" lon="5.77436">
        <ele>522.4</ele>
        <time>2022-08-06T05:55:20Z</time>
      </trkpt>
      <trkpt lat="46.66173" lon="5.77445">
        <ele>522.2</ele>
        <time>2022-08-06T05:55:21Z</time>
      </trkpt>
      <trkpt lat="46.66172" lon="5.77454">
        <ele>522.2</ele>
        <time>2022-08-06T05:55:22Z</time>
      </trkpt>
      <trkpt lat="46.66175" lon="5.77469">
        <ele>522</ele>
        <time>2022-08-06T05:55:24Z</time>
      </trkpt>
      <trkpt lat="46.66176" lon="5.77474">
        <ele>522</ele>
        <time>2022-08-06T05:55:25Z</time>
      </trkpt>
      <trkpt lat="46.66178" lon="5.77479">
        <ele>522</ele>
        <time>2022-08-06T05:55:27Z</time>
      </trkpt>
      <trkpt lat="46.66177" lon="5.7748">
        <ele>522</ele>
        <time>2022-08-06T05:55:28Z</time>
      </trkpt>
      <trkpt lat="46.66177" lon="5.77484">
        <ele>522</ele>
        <time>2022-08-06T05:55:30Z</time>
      </trkpt>
      <trkpt lat="46.66181" lon="5.77489">
        <ele>522.2</ele>
        <time>2022-08-06T05:55:32Z</time>
      </trkpt>
      <trkpt lat="46.66187" lon="5.77486">
        <ele>522.2</ele>
        <time>2022-08-06T05:55:34Z</time>
      </trkpt>
      <trkpt lat="46.66191" lon="5.77481">
        <ele>522.2</ele>
        <time>2022-08-06T05:55:35Z</time>
      </trkpt>
      <trkpt lat="46.66216" lon="5.77456">
        <ele>522</ele>
        <time>2022-08-06T05:55:40Z</time>
      </trkpt>
      <trkpt lat="46.66258" lon="5.77416">
        <ele>521.6</ele>
        <time>2022-08-06T05:55:47Z</time>
      </trkpt>
      <trkpt lat="46.66295" lon="5.77382">
        <ele>521</ele>
        <time>2022-08-06T05:55:53Z</time>
      </trkpt>
      <trkpt lat="46.66302" lon="5.77377">
        <ele>520.8</ele>
        <time>2022-08-06T05:55:54Z</time>
      </trkpt>
      <trkpt lat="46.66351" lon="5.77333">
        <ele>520.6</ele>
        <time>2022-08-06T05:56:02Z</time>
      </trkpt>
      <trkpt lat="46.66357" lon="5.77327">
        <ele>520.6</ele>
        <time>2022-08-06T05:56:03Z</time>
      </trkpt>
      <trkpt lat="46.66405" lon="5.77285">
        <ele>521</ele>
        <time>2022-08-06T05:56:11Z</time>
      </trkpt>
      <trkpt lat="46.66417" lon="5.77276">
        <ele>521</ele>
        <time>2022-08-06T05:56:13Z</time>
      </trkpt>
      <trkpt lat="46.66466" lon="5.77232">
        <ele>521</ele>
        <time>2022-08-06T05:56:21Z</time>
      </trkpt>
      <trkpt lat="46.66473" lon="5.77226">
        <ele>521</ele>
        <time>2022-08-06T05:56:22Z</time>
      </trkpt>
      <trkpt lat="46.66504" lon="5.77185">
        <ele>519.8</ele>
        <time>2022-08-06T05:56:27Z</time>
      </trkpt>
      <trkpt lat="46.66509" lon="5.77175">
        <ele>519.6</ele>
        <time>2022-08-06T05:56:28Z</time>
      </trkpt>
      <trkpt lat="46.66522" lon="5.77143">
        <ele>518.8</ele>
        <time>2022-08-06T05:56:31Z</time>
      </trkpt>
      <trkpt lat="46.66525" lon="5.77131">
        <ele>518.6</ele>
        <time>2022-08-06T05:56:32Z</time>
      </trkpt>
      <trkpt lat="46.66533" lon="5.77103">
        <ele>517.4</ele>
        <time>2022-08-06T05:56:34Z</time>
      </trkpt>
      <trkpt lat="46.66545" lon="5.77055">
        <ele>516.4</ele>
        <time>2022-08-06T05:56:38Z</time>
      </trkpt>
      <trkpt lat="46.66553" lon="5.77029">
        <ele>516.2</ele>
        <time>2022-08-06T05:56:40Z</time>
      </trkpt>
      <trkpt lat="46.66566" lon="5.76991">
        <ele>515</ele>
        <time>2022-08-06T05:56:43Z</time>
      </trkpt>
      <trkpt lat="46.66581" lon="5.76956">
        <ele>514.2</ele>
        <time>2022-08-06T05:56:46Z</time>
      </trkpt>
      <trkpt lat="46.66586" lon="5.76945">
        <ele>513.6</ele>
        <time>2022-08-06T05:56:47Z</time>
      </trkpt>
      <trkpt lat="46.66601" lon="5.7691">
        <ele>512.2</ele>
        <time>2022-08-06T05:56:50Z</time>
      </trkpt>
      <trkpt lat="46.66616" lon="5.76875">
        <ele>511.2</ele>
        <time>2022-08-06T05:56:53Z</time>
      </trkpt>
      <trkpt lat="46.66635" lon="5.76827">
        <ele>509.8</ele>
        <time>2022-08-06T05:56:57Z</time>
      </trkpt>
      <trkpt lat="46.6665" lon="5.76791">
        <ele>508.6</ele>
        <time>2022-08-06T05:57:00Z</time>
      </trkpt>
      <trkpt lat="46.66657" lon="5.76777">
        <ele>507.8</ele>
        <time>2022-08-06T05:57:01Z</time>
      </trkpt>
      <trkpt lat="46.66664" lon="5.76767">
        <ele>507.6</ele>
        <time>2022-08-06T05:57:02Z</time>
      </trkpt>
      <trkpt lat="46.6667" lon="5.7676">
        <ele>507.2</ele>
        <time>2022-08-06T05:57:03Z</time>
      </trkpt>
      <trkpt lat="46.6668" lon="5.7675">
        <ele>506.4</ele>
        <time>2022-08-06T05:57:04Z</time>
      </trkpt>
      <trkpt lat="46.66689" lon="5.76743">
        <ele>506.2</ele>
        <time>2022-08-06T05:57:05Z</time>
      </trkpt>
      <trkpt lat="46.66696" lon="5.76739">
        <ele>505.6</ele>
        <time>2022-08-06T05:57:06Z</time>
      </trkpt>
      <trkpt lat="46.66718" lon="5.76734">
        <ele>504.8</ele>
        <time>2022-08-06T05:57:08Z</time>
      </trkpt>
      <trkpt lat="46.66726" lon="5.76735">
        <ele>504.4</ele>
        <time>2022-08-06T05:57:09Z</time>
      </trkpt>
      <trkpt lat="46.66738" lon="5.76737">
        <ele>504</ele>
        <time>2022-08-06T05:57:10Z</time>
      </trkpt>
      <trkpt lat="46.66746" lon="5.76739">
        <ele>503.6</ele>
        <time>2022-08-06T05:57:11Z</time>
      </trkpt>
      <trkpt lat="46.66765" lon="5.76747">
        <ele>502.2</ele>
        <time>2022-08-06T05:57:13Z</time>
      </trkpt>
      <trkpt lat="46.66784" lon="5.76755">
        <ele>501</ele>
        <time>2022-08-06T05:57:15Z</time>
      </trkpt>
      <trkpt lat="46.66805" lon="5.76763">
        <ele>499.8</ele>
        <time>2022-08-06T05:57:17Z</time>
      </trkpt>
      <trkpt lat="46.66831" lon="5.76774">
        <ele>498.4</ele>
        <time>2022-08-06T05:57:20Z</time>
      </trkpt>
      <trkpt lat="46.66849" lon="5.76781">
        <ele>497.6</ele>
        <time>2022-08-06T05:57:22Z</time>
      </trkpt>
      <trkpt lat="46.6686" lon="5.76785">
        <ele>497</ele>
        <time>2022-08-06T05:57:23Z</time>
      </trkpt>
      <trkpt lat="46.66876" lon="5.76792">
        <ele>496</ele>
        <time>2022-08-06T05:57:25Z</time>
      </trkpt>
      <trkpt lat="46.66911" lon="5.76806">
        <ele>494.8</ele>
        <time>2022-08-06T05:57:29Z</time>
      </trkpt>
      <trkpt lat="46.6697" lon="5.76829">
        <ele>494</ele>
        <time>2022-08-06T05:57:36Z</time>
      </trkpt>
      <trkpt lat="46.66976" lon="5.76831">
        <ele>493.8</ele>
        <time>2022-08-06T05:57:37Z</time>
      </trkpt>
      <trkpt lat="46.67032" lon="5.76855">
        <ele>493.2</ele>
        <time>2022-08-06T05:57:44Z</time>
      </trkpt>
      <trkpt lat="46.67048" lon="5.76861">
        <ele>493</ele>
        <time>2022-08-06T05:57:46Z</time>
      </trkpt>
      <trkpt lat="46.67077" lon="5.76872">
        <ele>492.8</ele>
        <time>2022-08-06T05:57:50Z</time>
      </trkpt>
      <trkpt lat="46.6711" lon="5.76885">
        <ele>492.6</ele>
        <time>2022-08-06T05:57:54Z</time>
      </trkpt>
      <trkpt lat="46.67164" lon="5.76905">
        <ele>491.8</ele>
        <time>2022-08-06T05:58:01Z</time>
      </trkpt>
      <trkpt lat="46.67178" lon="5.7691">
        <ele>491.6</ele>
        <time>2022-08-06T05:58:03Z</time>
      </trkpt>
      <trkpt lat="46.672" lon="5.76919">
        <ele>491.6</ele>
        <time>2022-08-06T05:58:06Z</time>
      </trkpt>
      <trkpt lat="46.67252" lon="5.76943">
        <ele>491</ele>
        <time>2022-08-06T05:58:13Z</time>
      </trkpt>
      <trkpt lat="46.67265" lon="5.76951">
        <ele>491</ele>
        <time>2022-08-06T05:58:15Z</time>
      </trkpt>
      <trkpt lat="46.67297" lon="5.76979">
        <ele>490.8</ele>
        <time>2022-08-06T05:58:20Z</time>
      </trkpt>
      <trkpt lat="46.6734" lon="5.77036">
        <ele>491.2</ele>
        <time>2022-08-06T05:58:28Z</time>
      </trkpt>
      <trkpt lat="46.67351" lon="5.77051">
        <ele>491.2</ele>
        <time>2022-08-06T05:58:30Z</time>
      </trkpt>
      <trkpt lat="46.67385" lon="5.77095">
        <ele>490.8</ele>
        <time>2022-08-06T05:58:36Z</time>
      </trkpt>
      <trkpt lat="46.67401" lon="5.77117">
        <ele>490.4</ele>
        <time>2022-08-06T05:58:39Z</time>
      </trkpt>
      <trkpt lat="46.67446" lon="5.77176">
        <ele>490</ele>
        <time>2022-08-06T05:58:47Z</time>
      </trkpt>
      <trkpt lat="46.67463" lon="5.77198">
        <ele>490</ele>
        <time>2022-08-06T05:58:50Z</time>
      </trkpt>
      <trkpt lat="46.67468" lon="5.77205">
        <ele>489.8</ele>
        <time>2022-08-06T05:58:51Z</time>
      </trkpt>
      <trkpt lat="46.6751" lon="5.7726">
        <ele>489.2</ele>
        <time>2022-08-06T05:58:59Z</time>
      </trkpt>
      <trkpt lat="46.67552" lon="5.77315">
        <ele>489</ele>
        <time>2022-08-06T05:59:07Z</time>
      </trkpt>
      <trkpt lat="46.67573" lon="5.77342">
        <ele>489</ele>
        <time>2022-08-06T05:59:11Z</time>
      </trkpt>
      <trkpt lat="46.67616" lon="5.77398">
        <ele>489.4</ele>
        <time>2022-08-06T05:59:20Z</time>
      </trkpt>
      <trkpt lat="46.67639" lon="5.77441">
        <ele>490</ele>
        <time>2022-08-06T05:59:26Z</time>
      </trkpt>
      <trkpt lat="46.67657" lon="5.77503">
        <ele>490.4</ele>
        <time>2022-08-06T05:59:33Z</time>
      </trkpt>
      <trkpt lat="46.67669" lon="5.77581">
        <ele>490</ele>
        <time>2022-08-06T05:59:41Z</time>
      </trkpt>
      <trkpt lat="46.6767" lon="5.77591">
        <ele>490.2</ele>
        <time>2022-08-06T05:59:42Z</time>
      </trkpt>
      <trkpt lat="46.67682" lon="5.77671">
        <ele>489.8</ele>
        <time>2022-08-06T05:59:50Z</time>
      </trkpt>
      <trkpt lat="46.67686" lon="5.77691">
        <ele>490</ele>
        <time>2022-08-06T05:59:52Z</time>
      </trkpt>
      <trkpt lat="46.67696" lon="5.77768">
        <ele>489.8</ele>
        <time>2022-08-06T06:00:00Z</time>
      </trkpt>
      <trkpt lat="46.67698" lon="5.77778">
        <ele>489.8</ele>
        <time>2022-08-06T06:00:01Z</time>
      </trkpt>
      <trkpt lat="46.67709" lon="5.77858">
        <ele>489.2</ele>
        <time>2022-08-06T06:00:09Z</time>
      </trkpt>
      <trkpt lat="46.6771" lon="5.77868">
        <ele>489</ele>
        <time>2022-08-06T06:00:10Z</time>
      </trkpt>
      <trkpt lat="46.67713" lon="5.77885">
        <ele>488.8</ele>
        <time>2022-08-06T06:00:12Z</time>
      </trkpt>
      <trkpt lat="46.67723" lon="5.77934">
        <ele>488.8</ele>
        <time>2022-08-06T06:00:17Z</time>
      </trkpt>
      <trkpt lat="46.67729" lon="5.77951">
        <ele>488.8</ele>
        <time>2022-08-06T06:00:19Z</time>
      </trkpt>
      <trkpt lat="46.67737" lon="5.77966">
        <ele>489</ele>
        <time>2022-08-06T06:00:21Z</time>
      </trkpt>
      <trkpt lat="46.67762" lon="5.77994">
        <ele>489</ele>
        <time>2022-08-06T06:00:26Z</time>
      </trkpt>
      <trkpt lat="46.67768" lon="5.77999">
        <ele>489.2</ele>
        <time>2022-08-06T06:00:27Z</time>
      </trkpt>
      <trkpt lat="46.67786" lon="5.78008">
        <ele>489.4</ele>
        <time>2022-08-06T06:00:30Z</time>
      </trkpt>
      <trkpt lat="46.67792" lon="5.7801">
        <ele>489.4</ele>
        <time>2022-08-06T06:00:31Z</time>
      </trkpt>
      <trkpt lat="46.67799" lon="5.78011">
        <ele>489.4</ele>
        <time>2022-08-06T06:00:32Z</time>
      </trkpt>
      <trkpt lat="46.67812" lon="5.7801">
        <ele>489.6</ele>
        <time>2022-08-06T06:00:34Z</time>
      </trkpt>
      <trkpt lat="46.67826" lon="5.78007">
        <ele>489.8</ele>
        <time>2022-08-06T06:00:36Z</time>
      </trkpt>
      <trkpt lat="46.67882" lon="5.77995">
        <ele>489.4</ele>
        <time>2022-08-06T06:00:44Z</time>
      </trkpt>
      <trkpt lat="46.67937" lon="5.77983">
        <ele>489</ele>
        <time>2022-08-06T06:00:52Z</time>
      </trkpt>
      <trkpt lat="46.67944" lon="5.77982">
        <ele>488.8</ele>
        <time>2022-08-06T06:00:53Z</time>
      </trkpt>
      <trkpt lat="46.67983" lon="5.77964">
        <ele>488.8</ele>
        <time>2022-08-06T06:00:59Z</time>
      </trkpt>
      <trkpt lat="46.68031" lon="5.77924">
        <ele>488.6</ele>
        <time>2022-08-06T06:01:07Z</time>
      </trkpt>
      <trkpt lat="46.6807" lon="5.77889">
        <ele>488.6</ele>
        <time>2022-08-06T06:01:14Z</time>
      </trkpt>
      <trkpt lat="46.68105" lon="5.77865">
        <ele>489.2</ele>
        <time>2022-08-06T06:01:21Z</time>
      </trkpt>
      <trkpt lat="46.68125" lon="5.77859">
        <ele>490</ele>
        <time>2022-08-06T06:01:25Z</time>
      </trkpt>
      <trkpt lat="46.6813" lon="5.77858">
        <ele>490</ele>
        <time>2022-08-06T06:01:26Z</time>
      </trkpt>
      <trkpt lat="46.68162" lon="5.77859">
        <ele>491</ele>
        <time>2022-08-06T06:01:32Z</time>
      </trkpt>
      <trkpt lat="46.68167" lon="5.77859">
        <ele>491.6</ele>
        <time>2022-08-06T06:01:33Z</time>
      </trkpt>
      <trkpt lat="46.68194" lon="5.77859">
        <ele>492.4</ele>
        <time>2022-08-06T06:01:38Z</time>
      </trkpt>
      <trkpt lat="46.68211" lon="5.77859">
        <ele>493</ele>
        <time>2022-08-06T06:01:41Z</time>
      </trkpt>
      <trkpt lat="46.68235" lon="5.7786">
        <ele>493.4</ele>
        <time>2022-08-06T06:01:45Z</time>
      </trkpt>
      <trkpt lat="46.68264" lon="5.7786">
        <ele>493.6</ele>
        <time>2022-08-06T06:01:50Z</time>
      </trkpt>
      <trkpt lat="46.68321" lon="5.77862">
        <ele>494.6</ele>
        <time>2022-08-06T06:02:00Z</time>
      </trkpt>
      <trkpt lat="46.68327" lon="5.77862">
        <ele>494.6</ele>
        <time>2022-08-06T06:02:01Z</time>
      </trkpt>
      <trkpt lat="46.68382" lon="5.77862">
        <ele>495.2</ele>
        <time>2022-08-06T06:02:11Z</time>
      </trkpt>
      <trkpt lat="46.68404" lon="5.77862">
        <ele>495.6</ele>
        <time>2022-08-06T06:02:15Z</time>
      </trkpt>
      <trkpt lat="46.6844" lon="5.77864">
        <ele>496.6</ele>
        <time>2022-08-06T06:02:22Z</time>
      </trkpt>
      <trkpt lat="46.68483" lon="5.77876">
        <ele>497.4</ele>
        <time>2022-08-06T06:02:30Z</time>
      </trkpt>
      <trkpt lat="46.68488" lon="5.77878">
        <ele>497.6</ele>
        <time>2022-08-06T06:02:31Z</time>
      </trkpt>
      <trkpt lat="46.68528" lon="5.77897">
        <ele>498.2</ele>
        <time>2022-08-06T06:02:39Z</time>
      </trkpt>
      <trkpt lat="46.68539" lon="5.77902">
        <ele>498.6</ele>
        <time>2022-08-06T06:02:41Z</time>
      </trkpt>
      <trkpt lat="46.68584" lon="5.77923">
        <ele>499.6</ele>
        <time>2022-08-06T06:02:50Z</time>
      </trkpt>
      <trkpt lat="46.68594" lon="5.77927">
        <ele>499.8</ele>
        <time>2022-08-06T06:02:52Z</time>
      </trkpt>
      <trkpt lat="46.68634" lon="5.77945">
        <ele>500.6</ele>
        <time>2022-08-06T06:03:00Z</time>
      </trkpt>
      <trkpt lat="46.68639" lon="5.77947">
        <ele>500.8</ele>
        <time>2022-08-06T06:03:01Z</time>
      </trkpt>
      <trkpt lat="46.68674" lon="5.77962">
        <ele>501.8</ele>
        <time>2022-08-06T06:03:08Z</time>
      </trkpt>
      <trkpt lat="46.68679" lon="5.77964">
        <ele>501.8</ele>
        <time>2022-08-06T06:03:09Z</time>
      </trkpt>
      <trkpt lat="46.68734" lon="5.77988">
        <ele>502.8</ele>
        <time>2022-08-06T06:03:20Z</time>
      </trkpt>
      <trkpt lat="46.6875" lon="5.77995">
        <ele>502.8</ele>
        <time>2022-08-06T06:03:23Z</time>
      </trkpt>
      <trkpt lat="46.68808" lon="5.78021">
        <ele>503</ele>
        <time>2022-08-06T06:03:33Z</time>
      </trkpt>
      <trkpt lat="46.68855" lon="5.78042">
        <ele>502</ele>
        <time>2022-08-06T06:03:40Z</time>
      </trkpt>
      <trkpt lat="46.68869" lon="5.78048">
        <ele>501.6</ele>
        <time>2022-08-06T06:03:42Z</time>
      </trkpt>
      <trkpt lat="46.68918" lon="5.7807">
        <ele>500.6</ele>
        <time>2022-08-06T06:03:49Z</time>
      </trkpt>
      <trkpt lat="46.68939" lon="5.78079">
        <ele>499.4</ele>
        <time>2022-08-06T06:03:52Z</time>
      </trkpt>
      <trkpt lat="46.68979" lon="5.78096">
        <ele>498.2</ele>
        <time>2022-08-06T06:03:58Z</time>
      </trkpt>
      <trkpt lat="46.68985" lon="5.78099">
        <ele>497.8</ele>
        <time>2022-08-06T06:03:59Z</time>
      </trkpt>
      <trkpt lat="46.69022" lon="5.78118">
        <ele>497.4</ele>
        <time>2022-08-06T06:04:05Z</time>
      </trkpt>
      <trkpt lat="46.69025" lon="5.78124">
        <ele>497.2</ele>
        <time>2022-08-06T06:04:06Z</time>
      </trkpt>
      <trkpt lat="46.69025" lon="5.7813">
        <ele>497.2</ele>
        <time>2022-08-06T06:04:07Z</time>
      </trkpt>
      <trkpt lat="46.69024" lon="5.78136">
        <ele>497.2</ele>
        <time>2022-08-06T06:04:08Z</time>
      </trkpt>
      <trkpt lat="46.69022" lon="5.78142">
        <ele>497.2</ele>
        <time>2022-08-06T06:04:09Z</time>
      </trkpt>
      <trkpt lat="46.69025" lon="5.78151">
        <ele>497.2</ele>
        <time>2022-08-06T06:04:11Z</time>
      </trkpt>
      <trkpt lat="46.69041" lon="5.78157">
        <ele>497</ele>
        <time>2022-08-06T06:04:14Z</time>
      </trkpt>
      <trkpt lat="46.69066" lon="5.78179">
        <ele>496.4</ele>
        <time>2022-08-06T06:04:18Z</time>
      </trkpt>
      <trkpt lat="46.69071" lon="5.78185">
        <ele>496.2</ele>
        <time>2022-08-06T06:04:19Z</time>
      </trkpt>
      <trkpt lat="46.69101" lon="5.78218">
        <ele>495.2</ele>
        <time>2022-08-06T06:04:24Z</time>
      </trkpt>
      <trkpt lat="46.69113" lon="5.78232">
        <ele>494.6</ele>
        <time>2022-08-06T06:04:26Z</time>
      </trkpt>
      <trkpt lat="46.69125" lon="5.78247">
        <ele>494</ele>
        <time>2022-08-06T06:04:28Z</time>
      </trkpt>
      <trkpt lat="46.69157" lon="5.78285">
        <ele>492.8</ele>
        <time>2022-08-06T06:04:33Z</time>
      </trkpt>
      <trkpt lat="46.69162" lon="5.78292">
        <ele>492.8</ele>
        <time>2022-08-06T06:04:34Z</time>
      </trkpt>
      <trkpt lat="46.69182" lon="5.78315">
        <ele>491.2</ele>
        <time>2022-08-06T06:04:37Z</time>
      </trkpt>
      <trkpt lat="46.69195" lon="5.78332">
        <ele>490.2</ele>
        <time>2022-08-06T06:04:39Z</time>
      </trkpt>
      <trkpt lat="46.69215" lon="5.78357">
        <ele>489</ele>
        <time>2022-08-06T06:04:42Z</time>
      </trkpt>
      <trkpt lat="46.69222" lon="5.78365">
        <ele>488.8</ele>
        <time>2022-08-06T06:04:43Z</time>
      </trkpt>
      <trkpt lat="46.69236" lon="5.78382">
        <ele>487.8</ele>
        <time>2022-08-06T06:04:45Z</time>
      </trkpt>
      <trkpt lat="46.69263" lon="5.78415">
        <ele>486.6</ele>
        <time>2022-08-06T06:04:49Z</time>
      </trkpt>
      <trkpt lat="46.69276" lon="5.78432">
        <ele>486</ele>
        <time>2022-08-06T06:04:51Z</time>
      </trkpt>
      <trkpt lat="46.69297" lon="5.78457">
        <ele>485.4</ele>
        <time>2022-08-06T06:04:54Z</time>
      </trkpt>
      <trkpt lat="46.69318" lon="5.78482">
        <ele>484.4</ele>
        <time>2022-08-06T06:04:57Z</time>
      </trkpt>
      <trkpt lat="46.69335" lon="5.78503">
        <ele>483.6</ele>
        <time>2022-08-06T06:05:00Z</time>
      </trkpt>
      <trkpt lat="46.6934" lon="5.78516">
        <ele>483.4</ele>
        <time>2022-08-06T06:05:02Z</time>
      </trkpt>
      <trkpt lat="46.6934" lon="5.78522">
        <ele>483</ele>
        <time>2022-08-06T06:05:03Z</time>
      </trkpt>
      <trkpt lat="46.69341" lon="5.78528">
        <ele>482.8</ele>
        <time>2022-08-06T06:05:04Z</time>
      </trkpt>
      <trkpt lat="46.69347" lon="5.78535">
        <ele>482.4</ele>
        <time>2022-08-06T06:05:06Z</time>
      </trkpt>
      <trkpt lat="46.69372" lon="5.78547">
        <ele>482.2</ele>
        <time>2022-08-06T06:05:11Z</time>
      </trkpt>
      <trkpt lat="46.694" lon="5.78559">
        <ele>482</ele>
        <time>2022-08-06T06:05:15Z</time>
      </trkpt>
      <trkpt lat="46.69407" lon="5.78561">
        <ele>481.8</ele>
        <time>2022-08-06T06:05:16Z</time>
      </trkpt>
      <trkpt lat="46.69462" lon="5.78572">
        <ele>481.2</ele>
        <time>2022-08-06T06:05:24Z</time>
      </trkpt>
      <trkpt lat="46.69514" lon="5.78588">
        <ele>481.4</ele>
        <time>2022-08-06T06:05:32Z</time>
      </trkpt>
      <trkpt lat="46.69569" lon="5.78611">
        <ele>482</ele>
        <time>2022-08-06T06:05:41Z</time>
      </trkpt>
      <trkpt lat="46.69575" lon="5.78613">
        <ele>482</ele>
        <time>2022-08-06T06:05:42Z</time>
      </trkpt>
      <trkpt lat="46.69623" lon="5.78632">
        <ele>482.8</ele>
        <time>2022-08-06T06:05:50Z</time>
      </trkpt>
      <trkpt lat="46.69642" lon="5.78637">
        <ele>482.8</ele>
        <time>2022-08-06T06:05:53Z</time>
      </trkpt>
      <trkpt lat="46.6966" lon="5.78642">
        <ele>482.8</ele>
        <time>2022-08-06T06:05:56Z</time>
      </trkpt>
      <trkpt lat="46.69679" lon="5.7865">
        <ele>482.8</ele>
        <time>2022-08-06T06:05:59Z</time>
      </trkpt>
      <trkpt lat="46.69695" lon="5.78659">
        <ele>482.8</ele>
        <time>2022-08-06T06:06:02Z</time>
      </trkpt>
      <trkpt lat="46.69708" lon="5.78662">
        <ele>482.8</ele>
        <time>2022-08-06T06:06:04Z</time>
      </trkpt>
      <trkpt lat="46.69718" lon="5.78662">
        <ele>483</ele>
        <time>2022-08-06T06:06:06Z</time>
      </trkpt>
      <trkpt lat="46.69767" lon="5.78678">
        <ele>483.6</ele>
        <time>2022-08-06T06:06:14Z</time>
      </trkpt>
      <trkpt lat="46.69803" lon="5.7869">
        <ele>484</ele>
        <time>2022-08-06T06:06:21Z</time>
      </trkpt>
      <trkpt lat="46.6983" lon="5.78695">
        <ele>485.2</ele>
        <time>2022-08-06T06:06:27Z</time>
      </trkpt>
      <trkpt lat="46.69834" lon="5.78696">
        <ele>485.4</ele>
        <time>2022-08-06T06:06:28Z</time>
      </trkpt>
      <trkpt lat="46.69852" lon="5.78695">
        <ele>486.4</ele>
        <time>2022-08-06T06:06:32Z</time>
      </trkpt>
      <trkpt lat="46.69869" lon="5.78693">
        <ele>487.4</ele>
        <time>2022-08-06T06:06:36Z</time>
      </trkpt>
      <trkpt lat="46.69873" lon="5.78693">
        <ele>487.6</ele>
        <time>2022-08-06T06:06:37Z</time>
      </trkpt>
      <trkpt lat="46.69897" lon="5.78694">
        <ele>488.4</ele>
        <time>2022-08-06T06:06:42Z</time>
      </trkpt>
      <trkpt lat="46.69927" lon="5.78693">
        <ele>489.2</ele>
        <time>2022-08-06T06:06:48Z</time>
      </trkpt>
      <trkpt lat="46.69948" lon="5.78692">
        <ele>489.6</ele>
        <time>2022-08-06T06:06:52Z</time>
      </trkpt>
      <trkpt lat="46.69975" lon="5.7869">
        <ele>489.6</ele>
        <time>2022-08-06T06:06:57Z</time>
      </trkpt>
      <trkpt lat="46.7003" lon="5.78689">
        <ele>489.8</ele>
        <time>2022-08-06T06:07:07Z</time>
      </trkpt>
      <trkpt lat="46.7008" lon="5.78687">
        <ele>490.2</ele>
        <time>2022-08-06T06:07:16Z</time>
      </trkpt>
      <trkpt lat="46.70108" lon="5.78686">
        <ele>490.6</ele>
        <time>2022-08-06T06:07:21Z</time>
      </trkpt>
      <trkpt lat="46.70126" lon="5.78685">
        <ele>490.8</ele>
        <time>2022-08-06T06:07:24Z</time>
      </trkpt>
      <trkpt lat="46.70181" lon="5.78683">
        <ele>490.6</ele>
        <time>2022-08-06T06:07:33Z</time>
      </trkpt>
      <trkpt lat="46.7024" lon="5.7868">
        <ele>490.2</ele>
        <time>2022-08-06T06:07:42Z</time>
      </trkpt>
      <trkpt lat="46.70289" lon="5.78679">
        <ele>489.4</ele>
        <time>2022-08-06T06:07:49Z</time>
      </trkpt>
      <trkpt lat="46.70317" lon="5.78678">
        <ele>488.8</ele>
        <time>2022-08-06T06:07:53Z</time>
      </trkpt>
      <trkpt lat="46.70372" lon="5.78677">
        <ele>488.8</ele>
        <time>2022-08-06T06:08:01Z</time>
      </trkpt>
      <trkpt lat="46.70379" lon="5.78676">
        <ele>488.8</ele>
        <time>2022-08-06T06:08:02Z</time>
      </trkpt>
      <trkpt lat="46.70438" lon="5.78674">
        <ele>489.2</ele>
        <time>2022-08-06T06:08:11Z</time>
      </trkpt>
      <trkpt lat="46.70499" lon="5.78672">
        <ele>490.2</ele>
        <time>2022-08-06T06:08:21Z</time>
      </trkpt>
      <trkpt lat="46.70547" lon="5.7867">
        <ele>490.4</ele>
        <time>2022-08-06T06:08:29Z</time>
      </trkpt>
      <trkpt lat="46.70603" lon="5.78669">
        <ele>490.6</ele>
        <time>2022-08-06T06:08:38Z</time>
      </trkpt>
      <trkpt lat="46.70611" lon="5.78668">
        <ele>490.6</ele>
        <time>2022-08-06T06:08:39Z</time>
      </trkpt>
      <trkpt lat="46.70661" lon="5.78668">
        <ele>490.6</ele>
        <time>2022-08-06T06:08:47Z</time>
      </trkpt>
      <trkpt lat="46.70703" lon="5.78668">
        <ele>490.6</ele>
        <time>2022-08-06T06:08:54Z</time>
      </trkpt>
      <trkpt lat="46.70751" lon="5.78659">
        <ele>490.8</ele>
        <time>2022-08-06T06:09:02Z</time>
      </trkpt>
      <trkpt lat="46.70762" lon="5.78656">
        <ele>490.8</ele>
        <time>2022-08-06T06:09:04Z</time>
      </trkpt>
      <trkpt lat="46.70786" lon="5.78654">
        <ele>491</ele>
        <time>2022-08-06T06:09:08Z</time>
      </trkpt>
      <trkpt lat="46.70834" lon="5.78652">
        <ele>491.2</ele>
        <time>2022-08-06T06:09:16Z</time>
      </trkpt>
      <trkpt lat="46.70872" lon="5.78652">
        <ele>491.2</ele>
        <time>2022-08-06T06:09:23Z</time>
      </trkpt>
      <trkpt lat="46.70894" lon="5.78654">
        <ele>491.2</ele>
        <time>2022-08-06T06:09:27Z</time>
      </trkpt>
      <trkpt lat="46.70934" lon="5.78657">
        <ele>490.6</ele>
        <time>2022-08-06T06:09:33Z</time>
      </trkpt>
      <trkpt lat="46.70982" lon="5.78656">
        <ele>490.2</ele>
        <time>2022-08-06T06:09:40Z</time>
      </trkpt>
      <trkpt lat="46.71037" lon="5.78654">
        <ele>489.8</ele>
        <time>2022-08-06T06:09:48Z</time>
      </trkpt>
      <trkpt lat="46.71054" lon="5.78653">
        <ele>489.8</ele>
        <time>2022-08-06T06:09:51Z</time>
      </trkpt>
      <trkpt lat="46.71059" lon="5.78653">
        <ele>489.6</ele>
        <time>2022-08-06T06:09:52Z</time>
      </trkpt>
      <trkpt lat="46.71065" lon="5.78654">
        <ele>489.6</ele>
        <time>2022-08-06T06:09:53Z</time>
      </trkpt>
      <trkpt lat="46.71074" lon="5.78658">
        <ele>489.6</ele>
        <time>2022-08-06T06:09:55Z</time>
      </trkpt>
      <trkpt lat="46.71081" lon="5.7867">
        <ele>489.8</ele>
        <time>2022-08-06T06:09:57Z</time>
      </trkpt>
      <trkpt lat="46.71082" lon="5.78677">
        <ele>489.8</ele>
        <time>2022-08-06T06:09:58Z</time>
      </trkpt>
      <trkpt lat="46.71092" lon="5.78725">
        <ele>490</ele>
        <time>2022-08-06T06:10:04Z</time>
      </trkpt>
      <trkpt lat="46.71102" lon="5.78778">
        <ele>490.8</ele>
        <time>2022-08-06T06:10:10Z</time>
      </trkpt>
      <trkpt lat="46.7111" lon="5.78826">
        <ele>491.2</ele>
        <time>2022-08-06T06:10:16Z</time>
      </trkpt>
      <trkpt lat="46.71115" lon="5.78849">
        <ele>492</ele>
        <time>2022-08-06T06:10:19Z</time>
      </trkpt>
      <trkpt lat="46.71122" lon="5.7888">
        <ele>492.4</ele>
        <time>2022-08-06T06:10:23Z</time>
      </trkpt>
      <trkpt lat="46.71127" lon="5.78894">
        <ele>492.4</ele>
        <time>2022-08-06T06:10:25Z</time>
      </trkpt>
      <trkpt lat="46.7115" lon="5.7895">
        <ele>492.8</ele>
        <time>2022-08-06T06:10:33Z</time>
      </trkpt>
      <trkpt lat="46.71161" lon="5.78978">
        <ele>493</ele>
        <time>2022-08-06T06:10:37Z</time>
      </trkpt>
      <trkpt lat="46.71175" lon="5.79013">
        <ele>493.2</ele>
        <time>2022-08-06T06:10:42Z</time>
      </trkpt>
      <trkpt lat="46.712" lon="5.79076">
        <ele>493</ele>
        <time>2022-08-06T06:10:51Z</time>
      </trkpt>
      <trkpt lat="46.71228" lon="5.79145">
        <ele>494</ele>
        <time>2022-08-06T06:11:01Z</time>
      </trkpt>
      <trkpt lat="46.71231" lon="5.79152">
        <ele>494</ele>
        <time>2022-08-06T06:11:02Z</time>
      </trkpt>
      <trkpt lat="46.71236" lon="5.79166">
        <ele>494</ele>
        <time>2022-08-06T06:11:04Z</time>
      </trkpt>
      <trkpt lat="46.71245" lon="5.79187">
        <ele>494.2</ele>
        <time>2022-08-06T06:11:07Z</time>
      </trkpt>
      <trkpt lat="46.71251" lon="5.792">
        <ele>494.2</ele>
        <time>2022-08-06T06:11:09Z</time>
      </trkpt>
      <trkpt lat="46.71254" lon="5.79206">
        <ele>494.2</ele>
        <time>2022-08-06T06:11:10Z</time>
      </trkpt>
      <trkpt lat="46.71284" lon="5.79245">
        <ele>494.2</ele>
        <time>2022-08-06T06:11:17Z</time>
      </trkpt>
      <trkpt lat="46.71311" lon="5.79282">
        <ele>494.6</ele>
        <time>2022-08-06T06:11:24Z</time>
      </trkpt>
      <trkpt lat="46.71315" lon="5.79288">
        <ele>494.6</ele>
        <time>2022-08-06T06:11:25Z</time>
      </trkpt>
      <trkpt lat="46.71331" lon="5.79316">
        <ele>495.2</ele>
        <time>2022-08-06T06:11:31Z</time>
      </trkpt>
      <trkpt lat="46.71333" lon="5.79319">
        <ele>495.8</ele>
        <time>2022-08-06T06:11:34Z</time>
      </trkpt>
      <trkpt lat="46.71333" lon="5.79319">
        <ele>496.2</ele>
        <time>2022-08-06T06:11:35Z</time>
      </trkpt>
      <trkpt lat="46.71335" lon="5.79323">
        <ele>496.6</ele>
        <time>2022-08-06T06:12:26Z</time>
      </trkpt>
      <trkpt lat="46.71339" lon="5.79329">
        <ele>496.8</ele>
        <time>2022-08-06T06:12:29Z</time>
      </trkpt>
      <trkpt lat="46.71342" lon="5.79336">
        <ele>496.8</ele>
        <time>2022-08-06T06:12:31Z</time>
      </trkpt>
      <trkpt lat="46.7135" lon="5.79349">
        <ele>496.8</ele>
        <time>2022-08-06T06:12:34Z</time>
      </trkpt>
      <trkpt lat="46.71363" lon="5.79377">
        <ele>497.2</ele>
        <time>2022-08-06T06:12:39Z</time>
      </trkpt>
      <trkpt lat="46.71364" lon="5.79382">
        <ele>497.2</ele>
        <time>2022-08-06T06:12:40Z</time>
      </trkpt>
      <trkpt lat="46.71372" lon="5.79408">
        <ele>497.6</ele>
        <time>2022-08-06T06:12:44Z</time>
      </trkpt>
      <trkpt lat="46.71374" lon="5.79421">
        <ele>497.8</ele>
        <time>2022-08-06T06:12:46Z</time>
      </trkpt>
      <trkpt lat="46.71375" lon="5.79428">
        <ele>497.8</ele>
        <time>2022-08-06T06:12:47Z</time>
      </trkpt>
      <trkpt lat="46.71379" lon="5.79446">
        <ele>498.2</ele>
        <time>2022-08-06T06:12:50Z</time>
      </trkpt>
      <trkpt lat="46.71384" lon="5.79464">
        <ele>499</ele>
        <time>2022-08-06T06:12:53Z</time>
      </trkpt>
      <trkpt lat="46.71387" lon="5.7947">
        <ele>499.2</ele>
        <time>2022-08-06T06:12:54Z</time>
      </trkpt>
      <trkpt lat="46.71389" lon="5.79475">
        <ele>499.4</ele>
        <time>2022-08-06T06:12:55Z</time>
      </trkpt>
      <trkpt lat="46.71395" lon="5.79486">
        <ele>499.6</ele>
        <time>2022-08-06T06:12:57Z</time>
      </trkpt>
      <trkpt lat="46.71405" lon="5.79499">
        <ele>499.8</ele>
        <time>2022-08-06T06:13:00Z</time>
      </trkpt>
      <trkpt lat="46.71412" lon="5.79506">
        <ele>500</ele>
        <time>2022-08-06T06:13:02Z</time>
      </trkpt>
      <trkpt lat="46.71435" lon="5.79525">
        <ele>500.6</ele>
        <time>2022-08-06T06:13:08Z</time>
      </trkpt>
      <trkpt lat="46.71464" lon="5.79552">
        <ele>501.2</ele>
        <time>2022-08-06T06:13:15Z</time>
      </trkpt>
      <trkpt lat="46.71471" lon="5.79561">
        <ele>501.2</ele>
        <time>2022-08-06T06:13:17Z</time>
      </trkpt>
      <trkpt lat="46.71492" lon="5.79591">
        <ele>501.8</ele>
        <time>2022-08-06T06:13:23Z</time>
      </trkpt>
      <trkpt lat="46.71529" lon="5.7964">
        <ele>502</ele>
        <time>2022-08-06T06:13:33Z</time>
      </trkpt>
      <trkpt lat="46.71532" lon="5.79651">
        <ele>501.8</ele>
        <time>2022-08-06T06:13:35Z</time>
      </trkpt>
      <trkpt lat="46.71532" lon="5.79656">
        <ele>501.8</ele>
        <time>2022-08-06T06:13:36Z</time>
      </trkpt>
      <trkpt lat="46.71528" lon="5.79664">
        <ele>502</ele>
        <time>2022-08-06T06:13:38Z</time>
      </trkpt>
      <trkpt lat="46.71525" lon="5.79668">
        <ele>502</ele>
        <time>2022-08-06T06:13:39Z</time>
      </trkpt>
      <trkpt lat="46.71514" lon="5.79678">
        <ele>502.4</ele>
        <time>2022-08-06T06:13:42Z</time>
      </trkpt>
      <trkpt lat="46.715" lon="5.79692">
        <ele>503</ele>
        <time>2022-08-06T06:13:46Z</time>
      </trkpt>
      <trkpt lat="46.71494" lon="5.79699">
        <ele>503.6</ele>
        <time>2022-08-06T06:13:48Z</time>
      </trkpt>
      <trkpt lat="46.71489" lon="5.79703">
        <ele>503.8</ele>
        <time>2022-08-06T06:13:49Z</time>
      </trkpt>
      <trkpt lat="46.71479" lon="5.79712">
        <ele>504.2</ele>
        <time>2022-08-06T06:13:52Z</time>
      </trkpt>
      <trkpt lat="46.71471" lon="5.7972">
        <ele>504.4</ele>
        <time>2022-08-06T06:13:54Z</time>
      </trkpt>
      <trkpt lat="46.71468" lon="5.79724">
        <ele>504.6</ele>
        <time>2022-08-06T06:13:55Z</time>
      </trkpt>
      <trkpt lat="46.71461" lon="5.79732">
        <ele>504.8</ele>
        <time>2022-08-06T06:13:57Z</time>
      </trkpt>
      <trkpt lat="46.71458" lon="5.79735">
        <ele>505</ele>
        <time>2022-08-06T06:13:58Z</time>
      </trkpt>
      <trkpt lat="46.71438" lon="5.79756">
        <ele>506</ele>
        <time>2022-08-06T06:14:04Z</time>
      </trkpt>
      <trkpt lat="46.71434" lon="5.79759">
        <ele>506.2</ele>
        <time>2022-08-06T06:14:05Z</time>
      </trkpt>
      <trkpt lat="46.71418" lon="5.79776">
        <ele>507</ele>
        <time>2022-08-06T06:14:10Z</time>
      </trkpt>
      <trkpt lat="46.71408" lon="5.79785">
        <ele>507.8</ele>
        <time>2022-08-06T06:14:13Z</time>
      </trkpt>
      <trkpt lat="46.71401" lon="5.79792">
        <ele>508.2</ele>
        <time>2022-08-06T06:14:15Z</time>
      </trkpt>
      <trkpt lat="46.71389" lon="5.79804">
        <ele>509.2</ele>
        <time>2022-08-06T06:14:19Z</time>
      </trkpt>
      <trkpt lat="46.71382" lon="5.79811">
        <ele>509.8</ele>
        <time>2022-08-06T06:14:21Z</time>
      </trkpt>
      <trkpt lat="46.71373" lon="5.7982">
        <ele>510</ele>
        <time>2022-08-06T06:14:24Z</time>
      </trkpt>
      <trkpt lat="46.71365" lon="5.79829">
        <ele>511.2</ele>
        <time>2022-08-06T06:14:27Z</time>
      </trkpt>
      <trkpt lat="46.7135" lon="5.79844">
        <ele>512.2</ele>
        <time>2022-08-06T06:14:32Z</time>
      </trkpt>
      <trkpt lat="46.71345" lon="5.79851">
        <ele>512.6</ele>
        <time>2022-08-06T06:14:34Z</time>
      </trkpt>
      <trkpt lat="46.71334" lon="5.79863">
        <ele>513.2</ele>
        <time>2022-08-06T06:14:38Z</time>
      </trkpt>
      <trkpt lat="46.71332" lon="5.79866">
        <ele>513.6</ele>
        <time>2022-08-06T06:14:39Z</time>
      </trkpt>
      <trkpt lat="46.71324" lon="5.79875">
        <ele>514.6</ele>
        <time>2022-08-06T06:14:42Z</time>
      </trkpt>
      <trkpt lat="46.71315" lon="5.79889">
        <ele>515.6</ele>
        <time>2022-08-06T06:14:46Z</time>
      </trkpt>
      <trkpt lat="46.7131" lon="5.79898">
        <ele>515.8</ele>
        <time>2022-08-06T06:14:48Z</time>
      </trkpt>
      <trkpt lat="46.71298" lon="5.79917">
        <ele>517</ele>
        <time>2022-08-06T06:14:53Z</time>
      </trkpt>
      <trkpt lat="46.71291" lon="5.79929">
        <ele>517.6</ele>
        <time>2022-08-06T06:14:56Z</time>
      </trkpt>
      <trkpt lat="46.71284" lon="5.79941">
        <ele>518</ele>
        <time>2022-08-06T06:14:59Z</time>
      </trkpt>
      <trkpt lat="46.71272" lon="5.79963">
        <ele>519.2</ele>
        <time>2022-08-06T06:15:04Z</time>
      </trkpt>
      <trkpt lat="46.71267" lon="5.79971">
        <ele>519.6</ele>
        <time>2022-08-06T06:15:06Z</time>
      </trkpt>
      <trkpt lat="46.71259" lon="5.79982">
        <ele>520.2</ele>
        <time>2022-08-06T06:15:09Z</time>
      </trkpt>
      <trkpt lat="46.71246" lon="5.8">
        <ele>521.2</ele>
        <time>2022-08-06T06:15:14Z</time>
      </trkpt>
      <trkpt lat="46.71239" lon="5.80011">
        <ele>522</ele>
        <time>2022-08-06T06:15:17Z</time>
      </trkpt>
      <trkpt lat="46.71234" lon="5.80017">
        <ele>522.4</ele>
        <time>2022-08-06T06:15:19Z</time>
      </trkpt>
      <trkpt lat="46.71221" lon="5.80033">
        <ele>523.6</ele>
        <time>2022-08-06T06:15:24Z</time>
      </trkpt>
      <trkpt lat="46.71214" lon="5.80042">
        <ele>524.2</ele>
        <time>2022-08-06T06:15:27Z</time>
      </trkpt>
      <trkpt lat="46.71206" lon="5.80052">
        <ele>524.6</ele>
        <time>2022-08-06T06:15:30Z</time>
      </trkpt>
      <trkpt lat="46.71194" lon="5.8007">
        <ele>526</ele>
        <time>2022-08-06T06:15:35Z</time>
      </trkpt>
      <trkpt lat="46.71191" lon="5.80073">
        <ele>526</ele>
        <time>2022-08-06T06:15:36Z</time>
      </trkpt>
      <trkpt lat="46.71178" lon="5.80095">
        <ele>527</ele>
        <time>2022-08-06T06:15:42Z</time>
      </trkpt>
      <trkpt lat="46.71171" lon="5.80107">
        <ele>528</ele>
        <time>2022-08-06T06:15:45Z</time>
      </trkpt>
      <trkpt lat="46.71169" lon="5.80111">
        <ele>528.2</ele>
        <time>2022-08-06T06:15:46Z</time>
      </trkpt>
      <trkpt lat="46.71159" lon="5.80131">
        <ele>529.2</ele>
        <time>2022-08-06T06:15:51Z</time>
      </trkpt>
      <trkpt lat="46.71153" lon="5.80148">
        <ele>530</ele>
        <time>2022-08-06T06:15:55Z</time>
      </trkpt>
      <trkpt lat="46.71149" lon="5.80156">
        <ele>530.4</ele>
        <time>2022-08-06T06:15:57Z</time>
      </trkpt>
      <trkpt lat="46.71138" lon="5.80183">
        <ele>531.4</ele>
        <time>2022-08-06T06:16:03Z</time>
      </trkpt>
      <trkpt lat="46.71136" lon="5.80187">
        <ele>532</ele>
        <time>2022-08-06T06:16:04Z</time>
      </trkpt>
      <trkpt lat="46.71131" lon="5.80196">
        <ele>532.6</ele>
        <time>2022-08-06T06:16:06Z</time>
      </trkpt>
      <trkpt lat="46.71115" lon="5.80222">
        <ele>533.6</ele>
        <time>2022-08-06T06:16:13Z</time>
      </trkpt>
      <trkpt lat="46.71102" lon="5.8024">
        <ele>534.6</ele>
        <time>2022-08-06T06:16:18Z</time>
      </trkpt>
      <trkpt lat="46.71092" lon="5.80253">
        <ele>535.4</ele>
        <time>2022-08-06T06:16:22Z</time>
      </trkpt>
      <trkpt lat="46.71089" lon="5.80257">
        <ele>535.8</ele>
        <time>2022-08-06T06:16:23Z</time>
      </trkpt>
      <trkpt lat="46.71076" lon="5.80274">
        <ele>537</ele>
        <time>2022-08-06T06:16:28Z</time>
      </trkpt>
      <trkpt lat="46.71067" lon="5.80285">
        <ele>537.4</ele>
        <time>2022-08-06T06:16:31Z</time>
      </trkpt>
      <trkpt lat="46.71056" lon="5.80298">
        <ele>538</ele>
        <time>2022-08-06T06:16:35Z</time>
      </trkpt>
      <trkpt lat="46.71043" lon="5.80309">
        <ele>538.8</ele>
        <time>2022-08-06T06:16:39Z</time>
      </trkpt>
      <trkpt lat="46.71035" lon="5.80313">
        <ele>539.2</ele>
        <time>2022-08-06T06:16:41Z</time>
      </trkpt>
      <trkpt lat="46.71024" lon="5.80315">
        <ele>539.8</ele>
        <time>2022-08-06T06:16:44Z</time>
      </trkpt>
      <trkpt lat="46.71012" lon="5.80306">
        <ele>540.2</ele>
        <time>2022-08-06T06:16:48Z</time>
      </trkpt>
      <trkpt lat="46.7101" lon="5.80287">
        <ele>540.8</ele>
        <time>2022-08-06T06:16:52Z</time>
      </trkpt>
      <trkpt lat="46.7101" lon="5.80281">
        <ele>541.2</ele>
        <time>2022-08-06T06:16:53Z</time>
      </trkpt>
      <trkpt lat="46.71014" lon="5.80261">
        <ele>542</ele>
        <time>2022-08-06T06:16:57Z</time>
      </trkpt>
      <trkpt lat="46.71014" lon="5.80256">
        <ele>542.2</ele>
        <time>2022-08-06T06:16:58Z</time>
      </trkpt>
      <trkpt lat="46.71017" lon="5.80236">
        <ele>543.2</ele>
        <time>2022-08-06T06:17:02Z</time>
      </trkpt>
      <trkpt lat="46.71019" lon="5.80231">
        <ele>543.4</ele>
        <time>2022-08-06T06:17:03Z</time>
      </trkpt>
      <trkpt lat="46.71023" lon="5.80215">
        <ele>544.2</ele>
        <time>2022-08-06T06:17:07Z</time>
      </trkpt>
      <trkpt lat="46.71024" lon="5.80198">
        <ele>545</ele>
        <time>2022-08-06T06:17:10Z</time>
      </trkpt>
      <trkpt lat="46.71026" lon="5.80186">
        <ele>545.4</ele>
        <time>2022-08-06T06:17:12Z</time>
      </trkpt>
      <trkpt lat="46.71027" lon="5.80171">
        <ele>546</ele>
        <time>2022-08-06T06:17:15Z</time>
      </trkpt>
      <trkpt lat="46.7103" lon="5.80162">
        <ele>546.4</ele>
        <time>2022-08-06T06:17:17Z</time>
      </trkpt>
      <trkpt lat="46.7103" lon="5.80156">
        <ele>546.6</ele>
        <time>2022-08-06T06:17:18Z</time>
      </trkpt>
      <trkpt lat="46.71026" lon="5.80128">
        <ele>547.2</ele>
        <time>2022-08-06T06:17:22Z</time>
      </trkpt>
      <trkpt lat="46.71024" lon="5.80122">
        <ele>547.6</ele>
        <time>2022-08-06T06:17:23Z</time>
      </trkpt>
      <trkpt lat="46.71022" lon="5.80096">
        <ele>548.2</ele>
        <time>2022-08-06T06:17:27Z</time>
      </trkpt>
      <trkpt lat="46.71021" lon="5.80075">
        <ele>549</ele>
        <time>2022-08-06T06:17:30Z</time>
      </trkpt>
      <trkpt lat="46.71021" lon="5.80048">
        <ele>549.8</ele>
        <time>2022-08-06T06:17:35Z</time>
      </trkpt>
      <trkpt lat="46.71022" lon="5.80041">
        <ele>550</ele>
        <time>2022-08-06T06:17:36Z</time>
      </trkpt>
      <trkpt lat="46.71028" lon="5.80022">
        <ele>551</ele>
        <time>2022-08-06T06:17:40Z</time>
      </trkpt>
      <trkpt lat="46.71029" lon="5.80018">
        <ele>551.2</ele>
        <time>2022-08-06T06:17:41Z</time>
      </trkpt>
      <trkpt lat="46.71037" lon="5.79992">
        <ele>552.2</ele>
        <time>2022-08-06T06:17:47Z</time>
      </trkpt>
      <trkpt lat="46.71039" lon="5.79988">
        <ele>552.2</ele>
        <time>2022-08-06T06:17:48Z</time>
      </trkpt>
      <trkpt lat="46.71044" lon="5.79966">
        <ele>553.2</ele>
        <time>2022-08-06T06:17:53Z</time>
      </trkpt>
      <trkpt lat="46.71046" lon="5.79956">
        <ele>553.8</ele>
        <time>2022-08-06T06:17:55Z</time>
      </trkpt>
      <trkpt lat="46.7105" lon="5.79936">
        <ele>554.4</ele>
        <time>2022-08-06T06:17:59Z</time>
      </trkpt>
      <trkpt lat="46.71054" lon="5.79917">
        <ele>554.8</ele>
        <time>2022-08-06T06:18:03Z</time>
      </trkpt>
      <trkpt lat="46.71057" lon="5.79901">
        <ele>555.4</ele>
        <time>2022-08-06T06:18:06Z</time>
      </trkpt>
      <trkpt lat="46.71061" lon="5.7988">
        <ele>555.8</ele>
        <time>2022-08-06T06:18:10Z</time>
      </trkpt>
      <trkpt lat="46.71063" lon="5.79866">
        <ele>556.4</ele>
        <time>2022-08-06T06:18:13Z</time>
      </trkpt>
      <trkpt lat="46.71065" lon="5.79848">
        <ele>557.4</ele>
        <time>2022-08-06T06:18:17Z</time>
      </trkpt>
      <trkpt lat="46.71065" lon="5.79843">
        <ele>557.6</ele>
        <time>2022-08-06T06:18:18Z</time>
      </trkpt>
      <trkpt lat="46.71071" lon="5.79818">
        <ele>558.6</ele>
        <time>2022-08-06T06:18:23Z</time>
      </trkpt>
      <trkpt lat="46.71073" lon="5.79802">
        <ele>558.8</ele>
        <time>2022-08-06T06:18:26Z</time>
      </trkpt>
      <trkpt lat="46.71075" lon="5.79783">
        <ele>559.6</ele>
        <time>2022-08-06T06:18:30Z</time>
      </trkpt>
      <trkpt lat="46.71075" lon="5.79778">
        <ele>559.8</ele>
        <time>2022-08-06T06:18:31Z</time>
      </trkpt>
      <trkpt lat="46.71071" lon="5.79758">
        <ele>560.6</ele>
        <time>2022-08-06T06:18:35Z</time>
      </trkpt>
      <trkpt lat="46.71064" lon="5.79735">
        <ele>561.6</ele>
        <time>2022-08-06T06:18:40Z</time>
      </trkpt>
      <trkpt lat="46.71062" lon="5.79731">
        <ele>562</ele>
        <time>2022-08-06T06:18:41Z</time>
      </trkpt>
      <trkpt lat="46.71053" lon="5.79717">
        <ele>562.8</ele>
        <time>2022-08-06T06:18:45Z</time>
      </trkpt>
      <trkpt lat="46.71047" lon="5.79711">
        <ele>563.2</ele>
        <time>2022-08-06T06:18:47Z</time>
      </trkpt>
      <trkpt lat="46.71038" lon="5.79704">
        <ele>563.8</ele>
        <time>2022-08-06T06:18:50Z</time>
      </trkpt>
      <trkpt lat="46.71028" lon="5.79698">
        <ele>564.4</ele>
        <time>2022-08-06T06:18:53Z</time>
      </trkpt>
      <trkpt lat="46.71016" lon="5.79692">
        <ele>565</ele>
        <time>2022-08-06T06:18:57Z</time>
      </trkpt>
      <trkpt lat="46.71007" lon="5.79689">
        <ele>565.8</ele>
        <time>2022-08-06T06:19:00Z</time>
      </trkpt>
      <trkpt lat="46.71" lon="5.79688">
        <ele>566.2</ele>
        <time>2022-08-06T06:19:02Z</time>
      </trkpt>
      <trkpt lat="46.70979" lon="5.79685">
        <ele>567.2</ele>
        <time>2022-08-06T06:19:08Z</time>
      </trkpt>
      <trkpt lat="46.70971" lon="5.79684">
        <ele>567.6</ele>
        <time>2022-08-06T06:19:10Z</time>
      </trkpt>
      <trkpt lat="46.7096" lon="5.79683">
        <ele>568.6</ele>
        <time>2022-08-06T06:19:13Z</time>
      </trkpt>
      <trkpt lat="46.70938" lon="5.79679">
        <ele>569.6</ele>
        <time>2022-08-06T06:19:19Z</time>
      </trkpt>
      <trkpt lat="46.70916" lon="5.79679">
        <ele>570.8</ele>
        <time>2022-08-06T06:19:25Z</time>
      </trkpt>
      <trkpt lat="46.70905" lon="5.7968">
        <ele>571.4</ele>
        <time>2022-08-06T06:19:28Z</time>
      </trkpt>
      <trkpt lat="46.70895" lon="5.79681">
        <ele>572</ele>
        <time>2022-08-06T06:19:31Z</time>
      </trkpt>
      <trkpt lat="46.70869" lon="5.79684">
        <ele>573</ele>
        <time>2022-08-06T06:19:38Z</time>
      </trkpt>
      <trkpt lat="46.70866" lon="5.79685">
        <ele>573.4</ele>
        <time>2022-08-06T06:19:39Z</time>
      </trkpt>
      <trkpt lat="46.70851" lon="5.79688">
        <ele>574.2</ele>
        <time>2022-08-06T06:19:43Z</time>
      </trkpt>
      <trkpt lat="46.70841" lon="5.79688">
        <ele>574.6</ele>
        <time>2022-08-06T06:19:46Z</time>
      </trkpt>
      <trkpt lat="46.70831" lon="5.79689">
        <ele>575</ele>
        <time>2022-08-06T06:19:49Z</time>
      </trkpt>
      <trkpt lat="46.70824" lon="5.7969">
        <ele>575.6</ele>
        <time>2022-08-06T06:19:51Z</time>
      </trkpt>
      <trkpt lat="46.70818" lon="5.7969">
        <ele>576</ele>
        <time>2022-08-06T06:19:53Z</time>
      </trkpt>
      <trkpt lat="46.70814" lon="5.79691">
        <ele>576.2</ele>
        <time>2022-08-06T06:19:54Z</time>
      </trkpt>
      <trkpt lat="46.70794" lon="5.79692">
        <ele>577</ele>
        <time>2022-08-06T06:20:00Z</time>
      </trkpt>
      <trkpt lat="46.70783" lon="5.79695">
        <ele>577.6</ele>
        <time>2022-08-06T06:20:03Z</time>
      </trkpt>
      <trkpt lat="46.70771" lon="5.797">
        <ele>578.2</ele>
        <time>2022-08-06T06:20:06Z</time>
      </trkpt>
      <trkpt lat="46.70763" lon="5.79702">
        <ele>578.4</ele>
        <time>2022-08-06T06:20:08Z</time>
      </trkpt>
      <trkpt lat="46.70751" lon="5.79706">
        <ele>579.2</ele>
        <time>2022-08-06T06:20:11Z</time>
      </trkpt>
      <trkpt lat="46.70741" lon="5.79715">
        <ele>579.6</ele>
        <time>2022-08-06T06:20:14Z</time>
      </trkpt>
      <trkpt lat="46.70735" lon="5.79722">
        <ele>580.2</ele>
        <time>2022-08-06T06:20:16Z</time>
      </trkpt>
      <trkpt lat="46.70727" lon="5.79735">
        <ele>580.6</ele>
        <time>2022-08-06T06:20:19Z</time>
      </trkpt>
      <trkpt lat="46.70724" lon="5.7975">
        <ele>581.4</ele>
        <time>2022-08-06T06:20:22Z</time>
      </trkpt>
      <trkpt lat="46.70723" lon="5.79761">
        <ele>582</ele>
        <time>2022-08-06T06:20:24Z</time>
      </trkpt>
      <trkpt lat="46.70723" lon="5.79767">
        <ele>582.2</ele>
        <time>2022-08-06T06:20:25Z</time>
      </trkpt>
      <trkpt lat="46.70723" lon="5.79772">
        <ele>582.4</ele>
        <time>2022-08-06T06:20:26Z</time>
      </trkpt>
      <trkpt lat="46.70726" lon="5.79783">
        <ele>582.8</ele>
        <time>2022-08-06T06:20:28Z</time>
      </trkpt>
      <trkpt lat="46.70732" lon="5.79801">
        <ele>583.6</ele>
        <time>2022-08-06T06:20:31Z</time>
      </trkpt>
      <trkpt lat="46.70738" lon="5.7981">
        <ele>583.8</ele>
        <time>2022-08-06T06:20:33Z</time>
      </trkpt>
      <trkpt lat="46.70753" lon="5.79828">
        <ele>584.6</ele>
        <time>2022-08-06T06:20:38Z</time>
      </trkpt>
      <trkpt lat="46.70756" lon="5.79829">
        <ele>585</ele>
        <time>2022-08-06T06:20:39Z</time>
      </trkpt>
      <trkpt lat="46.70768" lon="5.79835">
        <ele>585.6</ele>
        <time>2022-08-06T06:20:43Z</time>
      </trkpt>
      <trkpt lat="46.70775" lon="5.79837">
        <ele>586</ele>
        <time>2022-08-06T06:20:45Z</time>
      </trkpt>
      <trkpt lat="46.70792" lon="5.7984">
        <ele>586.8</ele>
        <time>2022-08-06T06:20:50Z</time>
      </trkpt>
      <trkpt lat="46.70805" lon="5.79843">
        <ele>587.4</ele>
        <time>2022-08-06T06:20:54Z</time>
      </trkpt>
      <trkpt lat="46.70819" lon="5.79846">
        <ele>587.8</ele>
        <time>2022-08-06T06:20:58Z</time>
      </trkpt>
      <trkpt lat="46.70831" lon="5.7985">
        <ele>588.8</ele>
        <time>2022-08-06T06:21:01Z</time>
      </trkpt>
      <trkpt lat="46.70838" lon="5.79855">
        <ele>589</ele>
        <time>2022-08-06T06:21:03Z</time>
      </trkpt>
      <trkpt lat="46.70845" lon="5.79867">
        <ele>589.6</ele>
        <time>2022-08-06T06:21:06Z</time>
      </trkpt>
      <trkpt lat="46.7085" lon="5.79881">
        <ele>590</ele>
        <time>2022-08-06T06:21:09Z</time>
      </trkpt>
      <trkpt lat="46.70853" lon="5.799">
        <ele>590.8</ele>
        <time>2022-08-06T06:21:13Z</time>
      </trkpt>
      <trkpt lat="46.70853" lon="5.7991">
        <ele>591.2</ele>
        <time>2022-08-06T06:21:15Z</time>
      </trkpt>
      <trkpt lat="46.70852" lon="5.79934">
        <ele>592.2</ele>
        <time>2022-08-06T06:21:20Z</time>
      </trkpt>
      <trkpt lat="46.70852" lon="5.7994">
        <ele>592.4</ele>
        <time>2022-08-06T06:21:21Z</time>
      </trkpt>
      <trkpt lat="46.70849" lon="5.7998">
        <ele>593.4</ele>
        <time>2022-08-06T06:21:29Z</time>
      </trkpt>
      <trkpt lat="46.70849" lon="5.79991">
        <ele>593.8</ele>
        <time>2022-08-06T06:21:31Z</time>
      </trkpt>
      <trkpt lat="46.70848" lon="5.80015">
        <ele>594.4</ele>
        <time>2022-08-06T06:21:36Z</time>
      </trkpt>
      <trkpt lat="46.70847" lon="5.80032">
        <ele>595.6</ele>
        <time>2022-08-06T06:21:39Z</time>
      </trkpt>
      <trkpt lat="46.70847" lon="5.80043">
        <ele>596</ele>
        <time>2022-08-06T06:21:41Z</time>
      </trkpt>
      <trkpt lat="46.70846" lon="5.80059">
        <ele>596.6</ele>
        <time>2022-08-06T06:21:44Z</time>
      </trkpt>
      <trkpt lat="46.70846" lon="5.80093">
        <ele>597.6</ele>
        <time>2022-08-06T06:21:50Z</time>
      </trkpt>
      <trkpt lat="46.70846" lon="5.80103">
        <ele>597.8</ele>
        <time>2022-08-06T06:21:52Z</time>
      </trkpt>
      <trkpt lat="46.70845" lon="5.80131">
        <ele>598.6</ele>
        <time>2022-08-06T06:21:57Z</time>
      </trkpt>
      <trkpt lat="46.70845" lon="5.80158">
        <ele>599.6</ele>
        <time>2022-08-06T06:22:02Z</time>
      </trkpt>
      <trkpt lat="46.70845" lon="5.80163">
        <ele>599.6</ele>
        <time>2022-08-06T06:22:03Z</time>
      </trkpt>
      <trkpt lat="46.70847" lon="5.80201">
        <ele>600.6</ele>
        <time>2022-08-06T06:22:10Z</time>
      </trkpt>
      <trkpt lat="46.70853" lon="5.80236">
        <ele>601.8</ele>
        <time>2022-08-06T06:22:16Z</time>
      </trkpt>
      <trkpt lat="46.70862" lon="5.8028">
        <ele>602.8</ele>
        <time>2022-08-06T06:22:23Z</time>
      </trkpt>
      <trkpt lat="46.70863" lon="5.80287">
        <ele>603</ele>
        <time>2022-08-06T06:22:24Z</time>
      </trkpt>
      <trkpt lat="46.70874" lon="5.80335">
        <ele>603.4</ele>
        <time>2022-08-06T06:22:31Z</time>
      </trkpt>
      <trkpt lat="46.70876" lon="5.80342">
        <ele>603.4</ele>
        <time>2022-08-06T06:22:32Z</time>
      </trkpt>
      <trkpt lat="46.70882" lon="5.80386">
        <ele>603.4</ele>
        <time>2022-08-06T06:22:38Z</time>
      </trkpt>
      <trkpt lat="46.70885" lon="5.80401">
        <ele>603.8</ele>
        <time>2022-08-06T06:22:40Z</time>
      </trkpt>
      <trkpt lat="46.70887" lon="5.80416">
        <ele>603.8</ele>
        <time>2022-08-06T06:22:42Z</time>
      </trkpt>
      <trkpt lat="46.7089" lon="5.80431">
        <ele>604</ele>
        <time>2022-08-06T06:22:44Z</time>
      </trkpt>
      <trkpt lat="46.70894" lon="5.80463">
        <ele>604.4</ele>
        <time>2022-08-06T06:22:48Z</time>
      </trkpt>
      <trkpt lat="46.70893" lon="5.80479">
        <ele>604.4</ele>
        <time>2022-08-06T06:22:50Z</time>
      </trkpt>
      <trkpt lat="46.70889" lon="5.80508">
        <ele>604.4</ele>
        <time>2022-08-06T06:22:54Z</time>
      </trkpt>
      <trkpt lat="46.70885" lon="5.80537">
        <ele>604.4</ele>
        <time>2022-08-06T06:22:58Z</time>
      </trkpt>
      <trkpt lat="46.70883" lon="5.80551">
        <ele>604.8</ele>
        <time>2022-08-06T06:23:00Z</time>
      </trkpt>
      <trkpt lat="46.7088" lon="5.80558">
        <ele>605</ele>
        <time>2022-08-06T06:23:01Z</time>
      </trkpt>
      <trkpt lat="46.70875" lon="5.80579">
        <ele>605</ele>
        <time>2022-08-06T06:23:04Z</time>
      </trkpt>
      <trkpt lat="46.7086" lon="5.80645">
        <ele>605.8</ele>
        <time>2022-08-06T06:23:13Z</time>
      </trkpt>
      <trkpt lat="46.70847" lon="5.80689">
        <ele>605.8</ele>
        <time>2022-08-06T06:23:18Z</time>
      </trkpt>
      <trkpt lat="46.70826" lon="5.80754">
        <ele>605.4</ele>
        <time>2022-08-06T06:23:26Z</time>
      </trkpt>
      <trkpt lat="46.70806" lon="5.8081">
        <ele>605.4</ele>
        <time>2022-08-06T06:23:33Z</time>
      </trkpt>
      <trkpt lat="46.7079" lon="5.80872">
        <ele>605.6</ele>
        <time>2022-08-06T06:23:40Z</time>
      </trkpt>
      <trkpt lat="46.70782" lon="5.8095">
        <ele>605.6</ele>
        <time>2022-08-06T06:23:49Z</time>
      </trkpt>
      <trkpt lat="46.70781" lon="5.80956">
        <ele>605.8</ele>
        <time>2022-08-06T06:23:50Z</time>
      </trkpt>
      <trkpt lat="46.70776" lon="5.81">
        <ele>607</ele>
        <time>2022-08-06T06:23:56Z</time>
      </trkpt>
      <trkpt lat="46.70775" lon="5.81008">
        <ele>607.2</ele>
        <time>2022-08-06T06:23:57Z</time>
      </trkpt>
      <trkpt lat="46.70773" lon="5.81036">
        <ele>608.2</ele>
        <time>2022-08-06T06:24:01Z</time>
      </trkpt>
      <trkpt lat="46.70771" lon="5.81055">
        <ele>608.8</ele>
        <time>2022-08-06T06:24:04Z</time>
      </trkpt>
      <trkpt lat="46.7077" lon="5.81064">
        <ele>609.2</ele>
        <time>2022-08-06T06:24:05Z</time>
      </trkpt>
      <trkpt lat="46.7077" lon="5.81071">
        <ele>609.4</ele>
        <time>2022-08-06T06:24:06Z</time>
      </trkpt>
      <trkpt lat="46.70769" lon="5.81092">
        <ele>610</ele>
        <time>2022-08-06T06:24:09Z</time>
      </trkpt>
      <trkpt lat="46.70768" lon="5.81099">
        <ele>610.2</ele>
        <time>2022-08-06T06:24:10Z</time>
      </trkpt>
      <trkpt lat="46.70767" lon="5.81105">
        <ele>610.2</ele>
        <time>2022-08-06T06:24:11Z</time>
      </trkpt>
      <trkpt lat="46.70765" lon="5.81147">
        <ele>611.2</ele>
        <time>2022-08-06T06:24:17Z</time>
      </trkpt>
      <trkpt lat="46.70764" lon="5.81155">
        <ele>611.6</ele>
        <time>2022-08-06T06:24:18Z</time>
      </trkpt>
      <trkpt lat="46.70759" lon="5.81198">
        <ele>612.6</ele>
        <time>2022-08-06T06:24:24Z</time>
      </trkpt>
      <trkpt lat="46.70759" lon="5.81205">
        <ele>613</ele>
        <time>2022-08-06T06:24:25Z</time>
      </trkpt>
      <trkpt lat="46.70757" lon="5.81227">
        <ele>613.8</ele>
        <time>2022-08-06T06:24:28Z</time>
      </trkpt>
      <trkpt lat="46.70752" lon="5.81277">
        <ele>614.8</ele>
        <time>2022-08-06T06:24:35Z</time>
      </trkpt>
      <trkpt lat="46.70751" lon="5.81286">
        <ele>614.8</ele>
        <time>2022-08-06T06:24:36Z</time>
      </trkpt>
      <trkpt lat="46.70745" lon="5.81336">
        <ele>615.6</ele>
        <time>2022-08-06T06:24:43Z</time>
      </trkpt>
      <trkpt lat="46.70743" lon="5.81371">
        <ele>615.8</ele>
        <time>2022-08-06T06:24:48Z</time>
      </trkpt>
      <trkpt lat="46.70741" lon="5.81397">
        <ele>616.2</ele>
        <time>2022-08-06T06:24:52Z</time>
      </trkpt>
      <trkpt lat="46.7074" lon="5.81411">
        <ele>616.6</ele>
        <time>2022-08-06T06:24:54Z</time>
      </trkpt>
      <trkpt lat="46.70741" lon="5.81417">
        <ele>617</ele>
        <time>2022-08-06T06:24:55Z</time>
      </trkpt>
      <trkpt lat="46.70739" lon="5.81431">
        <ele>617.2</ele>
        <time>2022-08-06T06:24:57Z</time>
      </trkpt>
      <trkpt lat="46.70738" lon="5.81452">
        <ele>618</ele>
        <time>2022-08-06T06:25:00Z</time>
      </trkpt>
      <trkpt lat="46.70734" lon="5.81487">
        <ele>618.4</ele>
        <time>2022-08-06T06:25:05Z</time>
      </trkpt>
      <trkpt lat="46.70732" lon="5.8152">
        <ele>618.8</ele>
        <time>2022-08-06T06:25:10Z</time>
      </trkpt>
      <trkpt lat="46.70731" lon="5.81528">
        <ele>619</ele>
        <time>2022-08-06T06:25:11Z</time>
      </trkpt>
      <trkpt lat="46.7073" lon="5.81542">
        <ele>619.2</ele>
        <time>2022-08-06T06:25:13Z</time>
      </trkpt>
      <trkpt lat="46.70729" lon="5.81554">
        <ele>619.4</ele>
        <time>2022-08-06T06:25:15Z</time>
      </trkpt>
      <trkpt lat="46.70726" lon="5.81575">
        <ele>619.6</ele>
        <time>2022-08-06T06:25:18Z</time>
      </trkpt>
      <trkpt lat="46.70724" lon="5.81601">
        <ele>620.2</ele>
        <time>2022-08-06T06:25:22Z</time>
      </trkpt>
      <trkpt lat="46.70722" lon="5.81628">
        <ele>620.8</ele>
        <time>2022-08-06T06:25:26Z</time>
      </trkpt>
      <trkpt lat="46.70723" lon="5.81634">
        <ele>620.8</ele>
        <time>2022-08-06T06:25:27Z</time>
      </trkpt>
      <trkpt lat="46.70725" lon="5.81646">
        <ele>620.8</ele>
        <time>2022-08-06T06:25:29Z</time>
      </trkpt>
      <trkpt lat="46.70728" lon="5.81658">
        <ele>621.2</ele>
        <time>2022-08-06T06:25:31Z</time>
      </trkpt>
      <trkpt lat="46.7073" lon="5.81662">
        <ele>621.4</ele>
        <time>2022-08-06T06:25:32Z</time>
      </trkpt>
      <trkpt lat="46.70731" lon="5.81668">
        <ele>621.4</ele>
        <time>2022-08-06T06:25:33Z</time>
      </trkpt>
      <trkpt lat="46.70733" lon="5.81682">
        <ele>621.8</ele>
        <time>2022-08-06T06:25:35Z</time>
      </trkpt>
      <trkpt lat="46.70741" lon="5.81701">
        <ele>622.6</ele>
        <time>2022-08-06T06:25:38Z</time>
      </trkpt>
      <trkpt lat="46.70746" lon="5.81714">
        <ele>623</ele>
        <time>2022-08-06T06:25:40Z</time>
      </trkpt>
      <trkpt lat="46.70758" lon="5.81745">
        <ele>623.6</ele>
        <time>2022-08-06T06:25:45Z</time>
      </trkpt>
      <trkpt lat="46.70768" lon="5.8177">
        <ele>624.2</ele>
        <time>2022-08-06T06:25:49Z</time>
      </trkpt>
      <trkpt lat="46.70776" lon="5.81787">
        <ele>624.6</ele>
        <time>2022-08-06T06:25:52Z</time>
      </trkpt>
      <trkpt lat="46.7079" lon="5.81822">
        <ele>625.2</ele>
        <time>2022-08-06T06:25:58Z</time>
      </trkpt>
      <trkpt lat="46.70796" lon="5.81837">
        <ele>625.6</ele>
        <time>2022-08-06T06:26:01Z</time>
      </trkpt>
      <trkpt lat="46.70813" lon="5.81882">
        <ele>626.6</ele>
        <time>2022-08-06T06:26:09Z</time>
      </trkpt>
      <trkpt lat="46.70834" lon="5.81931">
        <ele>627.8</ele>
        <time>2022-08-06T06:26:18Z</time>
      </trkpt>
      <trkpt lat="46.70838" lon="5.81942">
        <ele>628</ele>
        <time>2022-08-06T06:26:20Z</time>
      </trkpt>
      <trkpt lat="46.70849" lon="5.81969">
        <ele>628.8</ele>
        <time>2022-08-06T06:26:25Z</time>
      </trkpt>
      <trkpt lat="46.70864" lon="5.82006">
        <ele>629.6</ele>
        <time>2022-08-06T06:26:32Z</time>
      </trkpt>
      <trkpt lat="46.70867" lon="5.82011">
        <ele>629.8</ele>
        <time>2022-08-06T06:26:33Z</time>
      </trkpt>
      <trkpt lat="46.70877" lon="5.82038">
        <ele>630.2</ele>
        <time>2022-08-06T06:26:38Z</time>
      </trkpt>
      <trkpt lat="46.70887" lon="5.82061">
        <ele>630.8</ele>
        <time>2022-08-06T06:26:42Z</time>
      </trkpt>
      <trkpt lat="46.70889" lon="5.82066">
        <ele>631</ele>
        <time>2022-08-06T06:26:43Z</time>
      </trkpt>
      <trkpt lat="46.70905" lon="5.82104">
        <ele>632.2</ele>
        <time>2022-08-06T06:26:50Z</time>
      </trkpt>
      <trkpt lat="46.70917" lon="5.82136">
        <ele>633.4</ele>
        <time>2022-08-06T06:26:56Z</time>
      </trkpt>
      <trkpt lat="46.70927" lon="5.82159">
        <ele>633.8</ele>
        <time>2022-08-06T06:27:00Z</time>
      </trkpt>
      <trkpt lat="46.7094" lon="5.82193">
        <ele>634.4</ele>
        <time>2022-08-06T06:27:06Z</time>
      </trkpt>
      <trkpt lat="46.70949" lon="5.82216">
        <ele>634.8</ele>
        <time>2022-08-06T06:27:10Z</time>
      </trkpt>
      <trkpt lat="46.7096" lon="5.82241">
        <ele>635.6</ele>
        <time>2022-08-06T06:27:15Z</time>
      </trkpt>
      <trkpt lat="46.70969" lon="5.82263">
        <ele>636.4</ele>
        <time>2022-08-06T06:27:19Z</time>
      </trkpt>
      <trkpt lat="46.70975" lon="5.8228">
        <ele>636.6</ele>
        <time>2022-08-06T06:27:22Z</time>
      </trkpt>
      <trkpt lat="46.70977" lon="5.82284">
        <ele>636.8</ele>
        <time>2022-08-06T06:27:23Z</time>
      </trkpt>
      <trkpt lat="46.70979" lon="5.8229">
        <ele>636.8</ele>
        <time>2022-08-06T06:27:24Z</time>
      </trkpt>
      <trkpt lat="46.70982" lon="5.82302">
        <ele>637</ele>
        <time>2022-08-06T06:27:26Z</time>
      </trkpt>
      <trkpt lat="46.70992" lon="5.82327">
        <ele>637.6</ele>
        <time>2022-08-06T06:27:31Z</time>
      </trkpt>
      <trkpt lat="46.70996" lon="5.82338">
        <ele>638</ele>
        <time>2022-08-06T06:27:33Z</time>
      </trkpt>
      <trkpt lat="46.71003" lon="5.82353">
        <ele>638.8</ele>
        <time>2022-08-06T06:27:36Z</time>
      </trkpt>
      <trkpt lat="46.71008" lon="5.82364">
        <ele>639</ele>
        <time>2022-08-06T06:27:38Z</time>
      </trkpt>
      <trkpt lat="46.7102" lon="5.82392">
        <ele>640.2</ele>
        <time>2022-08-06T06:27:43Z</time>
      </trkpt>
      <trkpt lat="46.71037" lon="5.82433">
        <ele>641.4</ele>
        <time>2022-08-06T06:27:51Z</time>
      </trkpt>
      <trkpt lat="46.71041" lon="5.82443">
        <ele>641.6</ele>
        <time>2022-08-06T06:27:53Z</time>
      </trkpt>
      <trkpt lat="46.71051" lon="5.82468">
        <ele>642.4</ele>
        <time>2022-08-06T06:27:58Z</time>
      </trkpt>
      <trkpt lat="46.71059" lon="5.82487">
        <ele>643</ele>
        <time>2022-08-06T06:28:02Z</time>
      </trkpt>
      <trkpt lat="46.71068" lon="5.82506">
        <ele>643.4</ele>
        <time>2022-08-06T06:28:06Z</time>
      </trkpt>
      <trkpt lat="46.71075" lon="5.82525">
        <ele>644.4</ele>
        <time>2022-08-06T06:28:10Z</time>
      </trkpt>
      <trkpt lat="46.71079" lon="5.82534">
        <ele>644.6</ele>
        <time>2022-08-06T06:28:12Z</time>
      </trkpt>
      <trkpt lat="46.71092" lon="5.82564">
        <ele>645.6</ele>
        <time>2022-08-06T06:28:18Z</time>
      </trkpt>
      <trkpt lat="46.71094" lon="5.82568">
        <ele>645.8</ele>
        <time>2022-08-06T06:28:19Z</time>
      </trkpt>
      <trkpt lat="46.71105" lon="5.82592">
        <ele>646.8</ele>
        <time>2022-08-06T06:28:24Z</time>
      </trkpt>
      <trkpt lat="46.71112" lon="5.82608">
        <ele>647.4</ele>
        <time>2022-08-06T06:28:27Z</time>
      </trkpt>
      <trkpt lat="46.71124" lon="5.82642">
        <ele>647.6</ele>
        <time>2022-08-06T06:28:32Z</time>
      </trkpt>
      <trkpt lat="46.71126" lon="5.82651">
        <ele>647.4</ele>
        <time>2022-08-06T06:28:33Z</time>
      </trkpt>
      <trkpt lat="46.7113" lon="5.82679">
        <ele>647.2</ele>
        <time>2022-08-06T06:28:36Z</time>
      </trkpt>
      <trkpt lat="46.7113" lon="5.82697">
        <ele>646.8</ele>
        <time>2022-08-06T06:28:38Z</time>
      </trkpt>
      <trkpt lat="46.71128" lon="5.82717">
        <ele>646</ele>
        <time>2022-08-06T06:28:40Z</time>
      </trkpt>
      <trkpt lat="46.71126" lon="5.82727">
        <ele>645.8</ele>
        <time>2022-08-06T06:28:41Z</time>
      </trkpt>
      <trkpt lat="46.71123" lon="5.82746">
        <ele>645.6</ele>
        <time>2022-08-06T06:28:43Z</time>
      </trkpt>
      <trkpt lat="46.71109" lon="5.82821">
        <ele>644.8</ele>
        <time>2022-08-06T06:28:51Z</time>
      </trkpt>
      <trkpt lat="46.71106" lon="5.82839">
        <ele>644.6</ele>
        <time>2022-08-06T06:28:53Z</time>
      </trkpt>
      <trkpt lat="46.71093" lon="5.82918">
        <ele>643.8</ele>
        <time>2022-08-06T06:29:01Z</time>
      </trkpt>
      <trkpt lat="46.71085" lon="5.82968">
        <ele>644.6</ele>
        <time>2022-08-06T06:29:07Z</time>
      </trkpt>
      <trkpt lat="46.71075" lon="5.8304">
        <ele>644.8</ele>
        <time>2022-08-06T06:29:15Z</time>
      </trkpt>
      <trkpt lat="46.71061" lon="5.83117">
        <ele>644.6</ele>
        <time>2022-08-06T06:29:23Z</time>
      </trkpt>
      <trkpt lat="46.71052" lon="5.83164">
        <ele>643.2</ele>
        <time>2022-08-06T06:29:28Z</time>
      </trkpt>
      <trkpt lat="46.71048" lon="5.83181">
        <ele>642.8</ele>
        <time>2022-08-06T06:29:30Z</time>
      </trkpt>
      <trkpt lat="46.7103" lon="5.83252">
        <ele>642.2</ele>
        <time>2022-08-06T06:29:38Z</time>
      </trkpt>
      <trkpt lat="46.71008" lon="5.83304">
        <ele>641.2</ele>
        <time>2022-08-06T06:29:44Z</time>
      </trkpt>
      <trkpt lat="46.70995" lon="5.83331">
        <ele>641.2</ele>
        <time>2022-08-06T06:29:47Z</time>
      </trkpt>
      <trkpt lat="46.70978" lon="5.83371">
        <ele>641.6</ele>
        <time>2022-08-06T06:29:52Z</time>
      </trkpt>
      <trkpt lat="46.7097" lon="5.83394">
        <ele>642.2</ele>
        <time>2022-08-06T06:29:55Z</time>
      </trkpt>
      <trkpt lat="46.70961" lon="5.83424">
        <ele>643.4</ele>
        <time>2022-08-06T06:29:59Z</time>
      </trkpt>
      <trkpt lat="46.7095" lon="5.83458">
        <ele>644.6</ele>
        <time>2022-08-06T06:30:04Z</time>
      </trkpt>
      <trkpt lat="46.70944" lon="5.83477">
        <ele>645.6</ele>
        <time>2022-08-06T06:30:07Z</time>
      </trkpt>
      <trkpt lat="46.70937" lon="5.83498">
        <ele>646.2</ele>
        <time>2022-08-06T06:30:10Z</time>
      </trkpt>
      <trkpt lat="46.70935" lon="5.83502">
        <ele>646.4</ele>
        <time>2022-08-06T06:30:11Z</time>
      </trkpt>
      <trkpt lat="46.70933" lon="5.83508">
        <ele>646.6</ele>
        <time>2022-08-06T06:30:12Z</time>
      </trkpt>
      <trkpt lat="46.70919" lon="5.83539">
        <ele>647.4</ele>
        <time>2022-08-06T06:30:17Z</time>
      </trkpt>
      <trkpt lat="46.70917" lon="5.83544">
        <ele>647.8</ele>
        <time>2022-08-06T06:30:18Z</time>
      </trkpt>
      <trkpt lat="46.70904" lon="5.83578">
        <ele>649</ele>
        <time>2022-08-06T06:30:23Z</time>
      </trkpt>
      <trkpt lat="46.70901" lon="5.83586">
        <ele>649.2</ele>
        <time>2022-08-06T06:30:24Z</time>
      </trkpt>
      <trkpt lat="46.70876" lon="5.83654">
        <ele>649.2</ele>
        <time>2022-08-06T06:30:34Z</time>
      </trkpt>
      <trkpt lat="46.70854" lon="5.83718">
        <ele>649</ele>
        <time>2022-08-06T06:30:43Z</time>
      </trkpt>
      <trkpt lat="46.70841" lon="5.83759">
        <ele>648.6</ele>
        <time>2022-08-06T06:30:48Z</time>
      </trkpt>
      <trkpt lat="46.7084" lon="5.83765">
        <ele>648.2</ele>
        <time>2022-08-06T06:30:49Z</time>
      </trkpt>
      <trkpt lat="46.70843" lon="5.83771">
        <ele>647.6</ele>
        <time>2022-08-06T06:30:50Z</time>
      </trkpt>
      <trkpt lat="46.70846" lon="5.83776">
        <ele>647.4</ele>
        <time>2022-08-06T06:30:51Z</time>
      </trkpt>
      <trkpt lat="46.70857" lon="5.83784">
        <ele>647</ele>
        <time>2022-08-06T06:30:54Z</time>
      </trkpt>
      <trkpt lat="46.70873" lon="5.83792">
        <ele>646.4</ele>
        <time>2022-08-06T06:30:57Z</time>
      </trkpt>
      <trkpt lat="46.70884" lon="5.838">
        <ele>646.4</ele>
        <time>2022-08-06T06:30:59Z</time>
      </trkpt>
      <trkpt lat="46.70896" lon="5.83813">
        <ele>646.2</ele>
        <time>2022-08-06T06:31:01Z</time>
      </trkpt>
      <trkpt lat="46.709" lon="5.83821">
        <ele>646</ele>
        <time>2022-08-06T06:31:02Z</time>
      </trkpt>
      <trkpt lat="46.70908" lon="5.83841">
        <ele>646</ele>
        <time>2022-08-06T06:31:04Z</time>
      </trkpt>
      <trkpt lat="46.70912" lon="5.83848">
        <ele>645.4</ele>
        <time>2022-08-06T06:31:05Z</time>
      </trkpt>
      <trkpt lat="46.70922" lon="5.83865">
        <ele>644.8</ele>
        <time>2022-08-06T06:31:07Z</time>
      </trkpt>
      <trkpt lat="46.70933" lon="5.83879">
        <ele>644.4</ele>
        <time>2022-08-06T06:31:09Z</time>
      </trkpt>
      <trkpt lat="46.70965" lon="5.83922">
        <ele>643.4</ele>
        <time>2022-08-06T06:31:15Z</time>
      </trkpt>
      <trkpt lat="46.70984" lon="5.83945">
        <ele>643.2</ele>
        <time>2022-08-06T06:31:19Z</time>
      </trkpt>
      <trkpt lat="46.70989" lon="5.8395">
        <ele>643.2</ele>
        <time>2022-08-06T06:31:20Z</time>
      </trkpt>
      <trkpt lat="46.70995" lon="5.83953">
        <ele>643.4</ele>
        <time>2022-08-06T06:31:21Z</time>
      </trkpt>
      <trkpt lat="46.71025" lon="5.8396">
        <ele>643.6</ele>
        <time>2022-08-06T06:31:26Z</time>
      </trkpt>
      <trkpt lat="46.71064" lon="5.8398">
        <ele>643.8</ele>
        <time>2022-08-06T06:31:33Z</time>
      </trkpt>
      <trkpt lat="46.71105" lon="5.8401">
        <ele>644.4</ele>
        <time>2022-08-06T06:31:41Z</time>
      </trkpt>
      <trkpt lat="46.7111" lon="5.84014">
        <ele>644.6</ele>
        <time>2022-08-06T06:31:42Z</time>
      </trkpt>
      <trkpt lat="46.71158" lon="5.84053">
        <ele>645.4</ele>
        <time>2022-08-06T06:31:52Z</time>
      </trkpt>
      <trkpt lat="46.71176" lon="5.84067">
        <ele>645.6</ele>
        <time>2022-08-06T06:31:56Z</time>
      </trkpt>
      <trkpt lat="46.71204" lon="5.84092">
        <ele>646</ele>
        <time>2022-08-06T06:32:02Z</time>
      </trkpt>
      <trkpt lat="46.71253" lon="5.84136">
        <ele>646.4</ele>
        <time>2022-08-06T06:32:12Z</time>
      </trkpt>
      <trkpt lat="46.71264" lon="5.84145">
        <ele>646.4</ele>
        <time>2022-08-06T06:32:14Z</time>
      </trkpt>
      <trkpt lat="46.71314" lon="5.84191">
        <ele>645.8</ele>
        <time>2022-08-06T06:32:24Z</time>
      </trkpt>
      <trkpt lat="46.71338" lon="5.8421">
        <ele>645.8</ele>
        <time>2022-08-06T06:32:29Z</time>
      </trkpt>
      <trkpt lat="46.71343" lon="5.84212">
        <ele>646</ele>
        <time>2022-08-06T06:32:30Z</time>
      </trkpt>
      <trkpt lat="46.71357" lon="5.84215">
        <ele>646.6</ele>
        <time>2022-08-06T06:32:33Z</time>
      </trkpt>
      <trkpt lat="46.71379" lon="5.84219">
        <ele>647.4</ele>
        <time>2022-08-06T06:32:37Z</time>
      </trkpt>
      <trkpt lat="46.71389" lon="5.84222">
        <ele>647.6</ele>
        <time>2022-08-06T06:32:39Z</time>
      </trkpt>
      <trkpt lat="46.71412" lon="5.84236">
        <ele>648.4</ele>
        <time>2022-08-06T06:32:44Z</time>
      </trkpt>
      <trkpt lat="46.71421" lon="5.84243">
        <ele>648.8</ele>
        <time>2022-08-06T06:32:46Z</time>
      </trkpt>
      <trkpt lat="46.71445" lon="5.84267">
        <ele>649.8</ele>
        <time>2022-08-06T06:32:51Z</time>
      </trkpt>
      <trkpt lat="46.7145" lon="5.84271">
        <ele>649.8</ele>
        <time>2022-08-06T06:32:52Z</time>
      </trkpt>
      <trkpt lat="46.71481" lon="5.84299">
        <ele>650.6</ele>
        <time>2022-08-06T06:32:58Z</time>
      </trkpt>
      <trkpt lat="46.71517" lon="5.84319">
        <ele>650.4</ele>
        <time>2022-08-06T06:33:04Z</time>
      </trkpt>
      <trkpt lat="46.71568" lon="5.84331">
        <ele>650.6</ele>
        <time>2022-08-06T06:33:12Z</time>
      </trkpt>
      <trkpt lat="46.71614" lon="5.84341">
        <ele>650.6</ele>
        <time>2022-08-06T06:33:19Z</time>
      </trkpt>
      <trkpt lat="46.71659" lon="5.84358">
        <ele>650.2</ele>
        <time>2022-08-06T06:33:26Z</time>
      </trkpt>
      <trkpt lat="46.71665" lon="5.84363">
        <ele>650.2</ele>
        <time>2022-08-06T06:33:27Z</time>
      </trkpt>
      <trkpt lat="46.71689" lon="5.84387">
        <ele>650</ele>
        <time>2022-08-06T06:33:31Z</time>
      </trkpt>
      <trkpt lat="46.71726" lon="5.84435">
        <ele>648.6</ele>
        <time>2022-08-06T06:33:37Z</time>
      </trkpt>
      <trkpt lat="46.71752" lon="5.84467">
        <ele>647.4</ele>
        <time>2022-08-06T06:33:41Z</time>
      </trkpt>
      <trkpt lat="46.71765" lon="5.84483">
        <ele>646.6</ele>
        <time>2022-08-06T06:33:43Z</time>
      </trkpt>
      <trkpt lat="46.71771" lon="5.84491">
        <ele>646.2</ele>
        <time>2022-08-06T06:33:44Z</time>
      </trkpt>
      <trkpt lat="46.71807" lon="5.84538">
        <ele>645.4</ele>
        <time>2022-08-06T06:33:50Z</time>
      </trkpt>
      <trkpt lat="46.71813" lon="5.84546">
        <ele>645</ele>
        <time>2022-08-06T06:33:51Z</time>
      </trkpt>
      <trkpt lat="46.71853" lon="5.84597">
        <ele>644.4</ele>
        <time>2022-08-06T06:33:58Z</time>
      </trkpt>
      <trkpt lat="46.71885" lon="5.8465">
        <ele>644.2</ele>
        <time>2022-08-06T06:34:05Z</time>
      </trkpt>
      <trkpt lat="46.71902" lon="5.84683">
        <ele>644</ele>
        <time>2022-08-06T06:34:09Z</time>
      </trkpt>
      <trkpt lat="46.71926" lon="5.84724">
        <ele>643.6</ele>
        <time>2022-08-06T06:34:14Z</time>
      </trkpt>
      <trkpt lat="46.71955" lon="5.84772">
        <ele>643</ele>
        <time>2022-08-06T06:34:20Z</time>
      </trkpt>
      <trkpt lat="46.7197" lon="5.84794">
        <ele>642.8</ele>
        <time>2022-08-06T06:34:23Z</time>
      </trkpt>
      <trkpt lat="46.72004" lon="5.84845">
        <ele>642.2</ele>
        <time>2022-08-06T06:34:29Z</time>
      </trkpt>
      <trkpt lat="46.7201" lon="5.84854">
        <ele>641.4</ele>
        <time>2022-08-06T06:34:30Z</time>
      </trkpt>
      <trkpt lat="46.72023" lon="5.84872">
        <ele>640.2</ele>
        <time>2022-08-06T06:34:32Z</time>
      </trkpt>
      <trkpt lat="46.72036" lon="5.8489">
        <ele>638.8</ele>
        <time>2022-08-06T06:34:34Z</time>
      </trkpt>
      <trkpt lat="46.72043" lon="5.84898">
        <ele>638.2</ele>
        <time>2022-08-06T06:34:35Z</time>
      </trkpt>
      <trkpt lat="46.72057" lon="5.84914">
        <ele>637.4</ele>
        <time>2022-08-06T06:34:37Z</time>
      </trkpt>
      <trkpt lat="46.72078" lon="5.84936">
        <ele>636</ele>
        <time>2022-08-06T06:34:40Z</time>
      </trkpt>
      <trkpt lat="46.72091" lon="5.84952">
        <ele>635.4</ele>
        <time>2022-08-06T06:34:42Z</time>
      </trkpt>
      <trkpt lat="46.72097" lon="5.8496">
        <ele>635.4</ele>
        <time>2022-08-06T06:34:43Z</time>
      </trkpt>
      <trkpt lat="46.72106" lon="5.8498">
        <ele>635</ele>
        <time>2022-08-06T06:34:45Z</time>
      </trkpt>
      <trkpt lat="46.7211" lon="5.84992">
        <ele>634.8</ele>
        <time>2022-08-06T06:34:46Z</time>
      </trkpt>
      <trkpt lat="46.72114" lon="5.85015">
        <ele>634.4</ele>
        <time>2022-08-06T06:34:48Z</time>
      </trkpt>
      <trkpt lat="46.72117" lon="5.8504">
        <ele>633.8</ele>
        <time>2022-08-06T06:34:50Z</time>
      </trkpt>
      <trkpt lat="46.72131" lon="5.85101">
        <ele>633.4</ele>
        <time>2022-08-06T06:34:55Z</time>
      </trkpt>
      <trkpt lat="46.72135" lon="5.85111">
        <ele>633</ele>
        <time>2022-08-06T06:34:56Z</time>
      </trkpt>
      <trkpt lat="46.72139" lon="5.8512">
        <ele>632.8</ele>
        <time>2022-08-06T06:34:57Z</time>
      </trkpt>
      <trkpt lat="46.72144" lon="5.85128">
        <ele>632.6</ele>
        <time>2022-08-06T06:34:58Z</time>
      </trkpt>
      <trkpt lat="46.72149" lon="5.85136">
        <ele>632.4</ele>
        <time>2022-08-06T06:34:59Z</time>
      </trkpt>
      <trkpt lat="46.72168" lon="5.85158">
        <ele>631.8</ele>
        <time>2022-08-06T06:35:02Z</time>
      </trkpt>
      <trkpt lat="46.72193" lon="5.85188">
        <ele>631.2</ele>
        <time>2022-08-06T06:35:06Z</time>
      </trkpt>
      <trkpt lat="46.72203" lon="5.85203">
        <ele>630.8</ele>
        <time>2022-08-06T06:35:08Z</time>
      </trkpt>
      <trkpt lat="46.72218" lon="5.8523">
        <ele>630</ele>
        <time>2022-08-06T06:35:11Z</time>
      </trkpt>
      <trkpt lat="46.72234" lon="5.85255">
        <ele>629.8</ele>
        <time>2022-08-06T06:35:14Z</time>
      </trkpt>
      <trkpt lat="46.72239" lon="5.85261">
        <ele>629.8</ele>
        <time>2022-08-06T06:35:15Z</time>
      </trkpt>
      <trkpt lat="46.7227" lon="5.85288">
        <ele>631</ele>
        <time>2022-08-06T06:35:20Z</time>
      </trkpt>
      <trkpt lat="46.72281" lon="5.853">
        <ele>631.2</ele>
        <time>2022-08-06T06:35:22Z</time>
      </trkpt>
      <trkpt lat="46.72286" lon="5.85307">
        <ele>631.2</ele>
        <time>2022-08-06T06:35:23Z</time>
      </trkpt>
      <trkpt lat="46.72304" lon="5.85335">
        <ele>631</ele>
        <time>2022-08-06T06:35:27Z</time>
      </trkpt>
      <trkpt lat="46.72334" lon="5.85377">
        <ele>630.2</ele>
        <time>2022-08-06T06:35:33Z</time>
      </trkpt>
      <trkpt lat="46.72344" lon="5.85393">
        <ele>629.6</ele>
        <time>2022-08-06T06:35:35Z</time>
      </trkpt>
      <trkpt lat="46.72362" lon="5.8542">
        <ele>628.6</ele>
        <time>2022-08-06T06:35:38Z</time>
      </trkpt>
      <trkpt lat="46.72369" lon="5.8543">
        <ele>628.2</ele>
        <time>2022-08-06T06:35:39Z</time>
      </trkpt>
      <trkpt lat="46.72385" lon="5.85451">
        <ele>626.6</ele>
        <time>2022-08-06T06:35:41Z</time>
      </trkpt>
      <trkpt lat="46.72393" lon="5.85459">
        <ele>625.8</ele>
        <time>2022-08-06T06:35:42Z</time>
      </trkpt>
      <trkpt lat="46.72411" lon="5.85471">
        <ele>624.8</ele>
        <time>2022-08-06T06:35:44Z</time>
      </trkpt>
      <trkpt lat="46.72421" lon="5.85475">
        <ele>624.2</ele>
        <time>2022-08-06T06:35:45Z</time>
      </trkpt>
      <trkpt lat="46.72432" lon="5.85476">
        <ele>623.2</ele>
        <time>2022-08-06T06:35:46Z</time>
      </trkpt>
      <trkpt lat="46.72453" lon="5.85477">
        <ele>622</ele>
        <time>2022-08-06T06:35:48Z</time>
      </trkpt>
      <trkpt lat="46.72465" lon="5.85478">
        <ele>620.6</ele>
        <time>2022-08-06T06:35:49Z</time>
      </trkpt>
      <trkpt lat="46.72477" lon="5.85479">
        <ele>620</ele>
        <time>2022-08-06T06:35:50Z</time>
      </trkpt>
      <trkpt lat="46.72489" lon="5.8548">
        <ele>618.4</ele>
        <time>2022-08-06T06:35:51Z</time>
      </trkpt>
      <trkpt lat="46.72514" lon="5.85484">
        <ele>616.2</ele>
        <time>2022-08-06T06:35:53Z</time>
      </trkpt>
      <trkpt lat="46.72527" lon="5.85489">
        <ele>615.8</ele>
        <time>2022-08-06T06:35:54Z</time>
      </trkpt>
      <trkpt lat="46.7254" lon="5.85494">
        <ele>614.8</ele>
        <time>2022-08-06T06:35:55Z</time>
      </trkpt>
      <trkpt lat="46.72565" lon="5.85505">
        <ele>613</ele>
        <time>2022-08-06T06:35:57Z</time>
      </trkpt>
      <trkpt lat="46.72578" lon="5.8551">
        <ele>611.4</ele>
        <time>2022-08-06T06:35:58Z</time>
      </trkpt>
      <trkpt lat="46.72605" lon="5.8552">
        <ele>609.4</ele>
        <time>2022-08-06T06:36:00Z</time>
      </trkpt>
      <trkpt lat="46.72631" lon="5.8553">
        <ele>607.6</ele>
        <time>2022-08-06T06:36:02Z</time>
      </trkpt>
      <trkpt lat="46.7266" lon="5.85542">
        <ele>605.8</ele>
        <time>2022-08-06T06:36:04Z</time>
      </trkpt>
      <trkpt lat="46.72673" lon="5.85547">
        <ele>604.6</ele>
        <time>2022-08-06T06:36:05Z</time>
      </trkpt>
      <trkpt lat="46.727" lon="5.85557">
        <ele>602.4</ele>
        <time>2022-08-06T06:36:07Z</time>
      </trkpt>
      <trkpt lat="46.72714" lon="5.85563">
        <ele>601.4</ele>
        <time>2022-08-06T06:36:08Z</time>
      </trkpt>
      <trkpt lat="46.72725" lon="5.85568">
        <ele>599.8</ele>
        <time>2022-08-06T06:36:09Z</time>
      </trkpt>
      <trkpt lat="46.72755" lon="5.85582">
        <ele>597.8</ele>
        <time>2022-08-06T06:36:11Z</time>
      </trkpt>
      <trkpt lat="46.72768" lon="5.8559">
        <ele>596.2</ele>
        <time>2022-08-06T06:36:12Z</time>
      </trkpt>
      <trkpt lat="46.72791" lon="5.85607">
        <ele>594.4</ele>
        <time>2022-08-06T06:36:14Z</time>
      </trkpt>
      <trkpt lat="46.72816" lon="5.85629">
        <ele>592.4</ele>
        <time>2022-08-06T06:36:16Z</time>
      </trkpt>
      <trkpt lat="46.7284" lon="5.85651">
        <ele>590</ele>
        <time>2022-08-06T06:36:18Z</time>
      </trkpt>
      <trkpt lat="46.72866" lon="5.85678">
        <ele>588.4</ele>
        <time>2022-08-06T06:36:20Z</time>
      </trkpt>
      <trkpt lat="46.72877" lon="5.85691">
        <ele>587.2</ele>
        <time>2022-08-06T06:36:21Z</time>
      </trkpt>
      <trkpt lat="46.72898" lon="5.85714">
        <ele>585.2</ele>
        <time>2022-08-06T06:36:23Z</time>
      </trkpt>
      <trkpt lat="46.72922" lon="5.85744">
        <ele>582.6</ele>
        <time>2022-08-06T06:36:25Z</time>
      </trkpt>
      <trkpt lat="46.72942" lon="5.85769">
        <ele>580.6</ele>
        <time>2022-08-06T06:36:27Z</time>
      </trkpt>
      <trkpt lat="46.72964" lon="5.85796">
        <ele>579.4</ele>
        <time>2022-08-06T06:36:29Z</time>
      </trkpt>
      <trkpt lat="46.72978" lon="5.85811">
        <ele>578.2</ele>
        <time>2022-08-06T06:36:30Z</time>
      </trkpt>
      <trkpt lat="46.72987" lon="5.85821">
        <ele>577</ele>
        <time>2022-08-06T06:36:31Z</time>
      </trkpt>
      <trkpt lat="46.72998" lon="5.85833">
        <ele>575.4</ele>
        <time>2022-08-06T06:36:32Z</time>
      </trkpt>
      <trkpt lat="46.73024" lon="5.8586">
        <ele>572.8</ele>
        <time>2022-08-06T06:36:34Z</time>
      </trkpt>
      <trkpt lat="46.73045" lon="5.85882">
        <ele>571.6</ele>
        <time>2022-08-06T06:36:36Z</time>
      </trkpt>
      <trkpt lat="46.73058" lon="5.85896">
        <ele>570.6</ele>
        <time>2022-08-06T06:36:37Z</time>
      </trkpt>
      <trkpt lat="46.73067" lon="5.85905">
        <ele>570</ele>
        <time>2022-08-06T06:36:38Z</time>
      </trkpt>
      <trkpt lat="46.73079" lon="5.85917">
        <ele>568.4</ele>
        <time>2022-08-06T06:36:39Z</time>
      </trkpt>
      <trkpt lat="46.73097" lon="5.85934">
        <ele>565.6</ele>
        <time>2022-08-06T06:36:41Z</time>
      </trkpt>
      <trkpt lat="46.73109" lon="5.85943">
        <ele>564.8</ele>
        <time>2022-08-06T06:36:42Z</time>
      </trkpt>
      <trkpt lat="46.73116" lon="5.85948">
        <ele>563.4</ele>
        <time>2022-08-06T06:36:43Z</time>
      </trkpt>
      <trkpt lat="46.73133" lon="5.85956">
        <ele>561.8</ele>
        <time>2022-08-06T06:36:45Z</time>
      </trkpt>
      <trkpt lat="46.73142" lon="5.85959">
        <ele>561</ele>
        <time>2022-08-06T06:36:46Z</time>
      </trkpt>
      <trkpt lat="46.73147" lon="5.85962">
        <ele>560.6</ele>
        <time>2022-08-06T06:36:47Z</time>
      </trkpt>
      <trkpt lat="46.73154" lon="5.85966">
        <ele>559.8</ele>
        <time>2022-08-06T06:36:48Z</time>
      </trkpt>
      <trkpt lat="46.73156" lon="5.85971">
        <ele>559.4</ele>
        <time>2022-08-06T06:36:49Z</time>
      </trkpt>
      <trkpt lat="46.73156" lon="5.85978">
        <ele>559</ele>
        <time>2022-08-06T06:36:50Z</time>
      </trkpt>
      <trkpt lat="46.73151" lon="5.85982">
        <ele>558.8</ele>
        <time>2022-08-06T06:36:51Z</time>
      </trkpt>
      <trkpt lat="46.7314" lon="5.8598">
        <ele>558.4</ele>
        <time>2022-08-06T06:36:53Z</time>
      </trkpt>
      <trkpt lat="46.73133" lon="5.85976">
        <ele>558.4</ele>
        <time>2022-08-06T06:36:54Z</time>
      </trkpt>
      <trkpt lat="46.73108" lon="5.85967">
        <ele>557.6</ele>
        <time>2022-08-06T06:36:57Z</time>
      </trkpt>
      <trkpt lat="46.73096" lon="5.85967">
        <ele>557.4</ele>
        <time>2022-08-06T06:36:58Z</time>
      </trkpt>
      <trkpt lat="46.73076" lon="5.8597">
        <ele>557</ele>
        <time>2022-08-06T06:37:00Z</time>
      </trkpt>
      <trkpt lat="46.73057" lon="5.85978">
        <ele>556</ele>
        <time>2022-08-06T06:37:02Z</time>
      </trkpt>
      <trkpt lat="46.73048" lon="5.85982">
        <ele>554.6</ele>
        <time>2022-08-06T06:37:03Z</time>
      </trkpt>
      <trkpt lat="46.73035" lon="5.85988">
        <ele>553</ele>
        <time>2022-08-06T06:37:04Z</time>
      </trkpt>
      <trkpt lat="46.73013" lon="5.86">
        <ele>551.4</ele>
        <time>2022-08-06T06:37:06Z</time>
      </trkpt>
      <trkpt lat="46.73002" lon="5.86005">
        <ele>550.2</ele>
        <time>2022-08-06T06:37:07Z</time>
      </trkpt>
      <trkpt lat="46.72978" lon="5.86018">
        <ele>548.8</ele>
        <time>2022-08-06T06:37:09Z</time>
      </trkpt>
      <trkpt lat="46.72955" lon="5.86033">
        <ele>547.2</ele>
        <time>2022-08-06T06:37:11Z</time>
      </trkpt>
      <trkpt lat="46.72946" lon="5.8604">
        <ele>546.4</ele>
        <time>2022-08-06T06:37:12Z</time>
      </trkpt>
      <trkpt lat="46.72934" lon="5.86052">
        <ele>545.4</ele>
        <time>2022-08-06T06:37:13Z</time>
      </trkpt>
      <trkpt lat="46.72924" lon="5.86065">
        <ele>544.4</ele>
        <time>2022-08-06T06:37:14Z</time>
      </trkpt>
      <trkpt lat="46.72917" lon="5.86076">
        <ele>543.8</ele>
        <time>2022-08-06T06:37:15Z</time>
      </trkpt>
      <trkpt lat="46.7291" lon="5.8609">
        <ele>542.4</ele>
        <time>2022-08-06T06:37:16Z</time>
      </trkpt>
      <trkpt lat="46.72896" lon="5.8612">
        <ele>541</ele>
        <time>2022-08-06T06:37:18Z</time>
      </trkpt>
      <trkpt lat="46.72889" lon="5.86137">
        <ele>540.8</ele>
        <time>2022-08-06T06:37:19Z</time>
      </trkpt>
      <trkpt lat="46.72883" lon="5.86166">
        <ele>539.4</ele>
        <time>2022-08-06T06:37:21Z</time>
      </trkpt>
      <trkpt lat="46.72884" lon="5.86186">
        <ele>539</ele>
        <time>2022-08-06T06:37:22Z</time>
      </trkpt>
      <trkpt lat="46.72887" lon="5.86202">
        <ele>536.8</ele>
        <time>2022-08-06T06:37:23Z</time>
      </trkpt>
      <trkpt lat="46.72893" lon="5.86217">
        <ele>535.8</ele>
        <time>2022-08-06T06:37:24Z</time>
      </trkpt>
      <trkpt lat="46.72899" lon="5.86228">
        <ele>534.6</ele>
        <time>2022-08-06T06:37:25Z</time>
      </trkpt>
      <trkpt lat="46.72916" lon="5.86257">
        <ele>533.4</ele>
        <time>2022-08-06T06:37:27Z</time>
      </trkpt>
      <trkpt lat="46.72924" lon="5.8627">
        <ele>533</ele>
        <time>2022-08-06T06:37:28Z</time>
      </trkpt>
      <trkpt lat="46.72933" lon="5.86283">
        <ele>532</ele>
        <time>2022-08-06T06:37:29Z</time>
      </trkpt>
      <trkpt lat="46.72951" lon="5.86311">
        <ele>530.4</ele>
        <time>2022-08-06T06:37:31Z</time>
      </trkpt>
      <trkpt lat="46.7296" lon="5.86324">
        <ele>529.2</ele>
        <time>2022-08-06T06:37:32Z</time>
      </trkpt>
      <trkpt lat="46.72968" lon="5.86337">
        <ele>528.4</ele>
        <time>2022-08-06T06:37:33Z</time>
      </trkpt>
      <trkpt lat="46.72975" lon="5.86348">
        <ele>527.4</ele>
        <time>2022-08-06T06:37:34Z</time>
      </trkpt>
      <trkpt lat="46.72983" lon="5.86364">
        <ele>527</ele>
        <time>2022-08-06T06:37:35Z</time>
      </trkpt>
      <trkpt lat="46.72988" lon="5.86377">
        <ele>525.4</ele>
        <time>2022-08-06T06:37:36Z</time>
      </trkpt>
      <trkpt lat="46.72993" lon="5.86393">
        <ele>524.6</ele>
        <time>2022-08-06T06:37:37Z</time>
      </trkpt>
      <trkpt lat="46.72998" lon="5.8641">
        <ele>524.2</ele>
        <time>2022-08-06T06:37:38Z</time>
      </trkpt>
      <trkpt lat="46.73001" lon="5.86431">
        <ele>523.4</ele>
        <time>2022-08-06T06:37:39Z</time>
      </trkpt>
      <trkpt lat="46.73002" lon="5.86445">
        <ele>523</ele>
        <time>2022-08-06T06:37:40Z</time>
      </trkpt>
      <trkpt lat="46.73004" lon="5.86466">
        <ele>521.8</ele>
        <time>2022-08-06T06:37:41Z</time>
      </trkpt>
      <trkpt lat="46.73003" lon="5.86479">
        <ele>521.2</ele>
        <time>2022-08-06T06:37:42Z</time>
      </trkpt>
      <trkpt lat="46.73001" lon="5.86494">
        <ele>520</ele>
        <time>2022-08-06T06:37:43Z</time>
      </trkpt>
      <trkpt lat="46.72997" lon="5.86511">
        <ele>519.6</ele>
        <time>2022-08-06T06:37:44Z</time>
      </trkpt>
      <trkpt lat="46.72989" lon="5.86532">
        <ele>519.2</ele>
        <time>2022-08-06T06:37:46Z</time>
      </trkpt>
      <trkpt lat="46.72979" lon="5.86555">
        <ele>519</ele>
        <time>2022-08-06T06:37:48Z</time>
      </trkpt>
      <trkpt lat="46.72971" lon="5.86586">
        <ele>519.2</ele>
        <time>2022-08-06T06:37:51Z</time>
      </trkpt>
      <trkpt lat="46.72969" lon="5.86611">
        <ele>519.4</ele>
        <time>2022-08-06T06:37:53Z</time>
      </trkpt>
      <trkpt lat="46.7297" lon="5.86635">
        <ele>519.6</ele>
        <time>2022-08-06T06:37:55Z</time>
      </trkpt>
      <trkpt lat="46.72976" lon="5.8669">
        <ele>520.2</ele>
        <time>2022-08-06T06:38:00Z</time>
      </trkpt>
      <trkpt lat="46.72985" lon="5.86766">
        <ele>520.8</ele>
        <time>2022-08-06T06:38:07Z</time>
      </trkpt>
      <trkpt lat="46.72995" lon="5.86844">
        <ele>520.2</ele>
        <time>2022-08-06T06:38:14Z</time>
      </trkpt>
      <trkpt lat="46.72999" lon="5.86877">
        <ele>520</ele>
        <time>2022-08-06T06:38:17Z</time>
      </trkpt>
      <trkpt lat="46.73008" lon="5.8694">
        <ele>520</ele>
        <time>2022-08-06T06:38:23Z</time>
      </trkpt>
      <trkpt lat="46.73031" lon="5.87015">
        <ele>520</ele>
        <time>2022-08-06T06:38:31Z</time>
      </trkpt>
      <trkpt lat="46.73045" lon="5.87057">
        <ele>520.4</ele>
        <time>2022-08-06T06:38:36Z</time>
      </trkpt>
      <trkpt lat="46.73049" lon="5.87065">
        <ele>520.6</ele>
        <time>2022-08-06T06:38:37Z</time>
      </trkpt>
      <trkpt lat="46.73062" lon="5.8709">
        <ele>521</ele>
        <time>2022-08-06T06:38:40Z</time>
      </trkpt>
      <trkpt lat="46.73094" lon="5.87148">
        <ele>520.8</ele>
        <time>2022-08-06T06:38:47Z</time>
      </trkpt>
      <trkpt lat="46.73106" lon="5.87186">
        <ele>520.2</ele>
        <time>2022-08-06T06:38:51Z</time>
      </trkpt>
      <trkpt lat="46.73107" lon="5.87196">
        <ele>520.2</ele>
        <time>2022-08-06T06:38:52Z</time>
      </trkpt>
      <trkpt lat="46.73107" lon="5.87215">
        <ele>520.2</ele>
        <time>2022-08-06T06:38:54Z</time>
      </trkpt>
      <trkpt lat="46.73103" lon="5.87235">
        <ele>520.2</ele>
        <time>2022-08-06T06:38:56Z</time>
      </trkpt>
      <trkpt lat="46.73087" lon="5.87268">
        <ele>520.2</ele>
        <time>2022-08-06T06:39:00Z</time>
      </trkpt>
      <trkpt lat="46.73072" lon="5.87296">
        <ele>520.2</ele>
        <time>2022-08-06T06:39:04Z</time>
      </trkpt>
      <trkpt lat="46.7307" lon="5.87304">
        <ele>520.2</ele>
        <time>2022-08-06T06:39:05Z</time>
      </trkpt>
      <trkpt lat="46.73068" lon="5.87313">
        <ele>520.4</ele>
        <time>2022-08-06T06:39:06Z</time>
      </trkpt>
      <trkpt lat="46.73065" lon="5.87334">
        <ele>520.4</ele>
        <time>2022-08-06T06:39:08Z</time>
      </trkpt>
      <trkpt lat="46.73065" lon="5.87347">
        <ele>520.2</ele>
        <time>2022-08-06T06:39:09Z</time>
      </trkpt>
      <trkpt lat="46.73068" lon="5.87403">
        <ele>520</ele>
        <time>2022-08-06T06:39:14Z</time>
      </trkpt>
      <trkpt lat="46.7307" lon="5.87423">
        <ele>519.8</ele>
        <time>2022-08-06T06:39:16Z</time>
      </trkpt>
      <trkpt lat="46.73074" lon="5.87476">
        <ele>519.8</ele>
        <time>2022-08-06T06:39:21Z</time>
      </trkpt>
      <trkpt lat="46.73076" lon="5.87497">
        <ele>520</ele>
        <time>2022-08-06T06:39:23Z</time>
      </trkpt>
      <trkpt lat="46.73084" lon="5.87579">
        <ele>520.4</ele>
        <time>2022-08-06T06:39:31Z</time>
      </trkpt>
      <trkpt lat="46.73085" lon="5.87596">
        <ele>520.2</ele>
        <time>2022-08-06T06:39:33Z</time>
      </trkpt>
      <trkpt lat="46.73091" lon="5.87666">
        <ele>520.6</ele>
        <time>2022-08-06T06:39:40Z</time>
      </trkpt>
      <trkpt lat="46.73099" lon="5.87703">
        <ele>520.6</ele>
        <time>2022-08-06T06:39:44Z</time>
      </trkpt>
      <trkpt lat="46.73101" lon="5.8771">
        <ele>520.8</ele>
        <time>2022-08-06T06:39:45Z</time>
      </trkpt>
      <trkpt lat="46.73106" lon="5.8772">
        <ele>520.8</ele>
        <time>2022-08-06T06:39:46Z</time>
      </trkpt>
      <trkpt lat="46.73119" lon="5.87742">
        <ele>521</ele>
        <time>2022-08-06T06:39:49Z</time>
      </trkpt>
      <trkpt lat="46.73141" lon="5.87775">
        <ele>521.2</ele>
        <time>2022-08-06T06:39:54Z</time>
      </trkpt>
      <trkpt lat="46.73155" lon="5.87797">
        <ele>521.2</ele>
        <time>2022-08-06T06:39:57Z</time>
      </trkpt>
      <trkpt lat="46.73191" lon="5.87851">
        <ele>521.4</ele>
        <time>2022-08-06T06:40:05Z</time>
      </trkpt>
      <trkpt lat="46.73231" lon="5.87911">
        <ele>521.8</ele>
        <time>2022-08-06T06:40:14Z</time>
      </trkpt>
      <trkpt lat="46.7326" lon="5.87949">
        <ele>522.2</ele>
        <time>2022-08-06T06:40:20Z</time>
      </trkpt>
      <trkpt lat="46.73274" lon="5.87967">
        <ele>522.4</ele>
        <time>2022-08-06T06:40:23Z</time>
      </trkpt>
      <trkpt lat="46.73308" lon="5.88014">
        <ele>522.4</ele>
        <time>2022-08-06T06:40:30Z</time>
      </trkpt>
      <trkpt lat="46.73351" lon="5.88072">
        <ele>522.8</ele>
        <time>2022-08-06T06:40:39Z</time>
      </trkpt>
      <trkpt lat="46.73359" lon="5.88083">
        <ele>522.8</ele>
        <time>2022-08-06T06:40:41Z</time>
      </trkpt>
      <trkpt lat="46.7337" lon="5.88097">
        <ele>523</ele>
        <time>2022-08-06T06:40:43Z</time>
      </trkpt>
      <trkpt lat="46.73406" lon="5.88146">
        <ele>522.8</ele>
        <time>2022-08-06T06:40:51Z</time>
      </trkpt>
      <trkpt lat="46.73435" lon="5.88186">
        <ele>523.2</ele>
        <time>2022-08-06T06:40:57Z</time>
      </trkpt>
      <trkpt lat="46.73443" lon="5.88197">
        <ele>523.4</ele>
        <time>2022-08-06T06:40:59Z</time>
      </trkpt>
      <trkpt lat="46.73475" lon="5.88241">
        <ele>523.4</ele>
        <time>2022-08-06T06:41:06Z</time>
      </trkpt>
      <trkpt lat="46.73511" lon="5.88291">
        <ele>523.2</ele>
        <time>2022-08-06T06:41:14Z</time>
      </trkpt>
      <trkpt lat="46.73519" lon="5.88304">
        <ele>523.2</ele>
        <time>2022-08-06T06:41:16Z</time>
      </trkpt>
      <trkpt lat="46.73539" lon="5.88338">
        <ele>523.2</ele>
        <time>2022-08-06T06:41:21Z</time>
      </trkpt>
      <trkpt lat="46.7357" lon="5.88388">
        <ele>523.8</ele>
        <time>2022-08-06T06:41:29Z</time>
      </trkpt>
      <trkpt lat="46.73581" lon="5.88408">
        <ele>524</ele>
        <time>2022-08-06T06:41:32Z</time>
      </trkpt>
      <trkpt lat="46.73593" lon="5.88426">
        <ele>524.2</ele>
        <time>2022-08-06T06:41:35Z</time>
      </trkpt>
      <trkpt lat="46.73596" lon="5.88432">
        <ele>524.4</ele>
        <time>2022-08-06T06:41:36Z</time>
      </trkpt>
      <trkpt lat="46.73608" lon="5.88453">
        <ele>524.6</ele>
        <time>2022-08-06T06:41:40Z</time>
      </trkpt>
      <trkpt lat="46.73617" lon="5.88467">
        <ele>525.2</ele>
        <time>2022-08-06T06:41:45Z</time>
      </trkpt>
      <trkpt lat="46.73617" lon="5.88469">
        <ele>525.6</ele>
        <time>2022-08-06T06:41:46Z</time>
      </trkpt>
      <trkpt lat="46.73619" lon="5.88487">
        <ele>526.6</ele>
        <time>2022-08-06T06:41:50Z</time>
      </trkpt>
      <trkpt lat="46.73618" lon="5.88527">
        <ele>527.4</ele>
        <time>2022-08-06T06:41:56Z</time>
      </trkpt>
      <trkpt lat="46.73618" lon="5.8854">
        <ele>527.8</ele>
        <time>2022-08-06T06:41:58Z</time>
      </trkpt>
      <trkpt lat="46.73618" lon="5.88561">
        <ele>528.4</ele>
        <time>2022-08-06T06:42:01Z</time>
      </trkpt>
      <trkpt lat="46.73618" lon="5.88568">
        <ele>528.6</ele>
        <time>2022-08-06T06:42:02Z</time>
      </trkpt>
      <trkpt lat="46.73618" lon="5.88575">
        <ele>529</ele>
        <time>2022-08-06T06:42:03Z</time>
      </trkpt>
      <trkpt lat="46.7362" lon="5.8861">
        <ele>530</ele>
        <time>2022-08-06T06:42:08Z</time>
      </trkpt>
      <trkpt lat="46.7362" lon="5.88617">
        <ele>530.2</ele>
        <time>2022-08-06T06:42:09Z</time>
      </trkpt>
      <trkpt lat="46.73621" lon="5.88624">
        <ele>530.6</ele>
        <time>2022-08-06T06:42:10Z</time>
      </trkpt>
      <trkpt lat="46.73622" lon="5.88637">
        <ele>531.2</ele>
        <time>2022-08-06T06:42:12Z</time>
      </trkpt>
      <trkpt lat="46.73619" lon="5.88667">
        <ele>532</ele>
        <time>2022-08-06T06:42:16Z</time>
      </trkpt>
      <trkpt lat="46.73618" lon="5.88674">
        <ele>532.2</ele>
        <time>2022-08-06T06:42:17Z</time>
      </trkpt>
      <trkpt lat="46.73615" lon="5.88695">
        <ele>532.6</ele>
        <time>2022-08-06T06:42:20Z</time>
      </trkpt>
      <trkpt lat="46.73607" lon="5.88703">
        <ele>532.6</ele>
        <time>2022-08-06T06:42:22Z</time>
      </trkpt>
      <trkpt lat="46.73597" lon="5.88703">
        <ele>532.6</ele>
        <time>2022-08-06T06:42:24Z</time>
      </trkpt>
      <trkpt lat="46.73592" lon="5.887">
        <ele>532.6</ele>
        <time>2022-08-06T06:42:25Z</time>
      </trkpt>
      <trkpt lat="46.73552" lon="5.88672">
        <ele>531.6</ele>
        <time>2022-08-06T06:42:33Z</time>
      </trkpt>
      <trkpt lat="46.73527" lon="5.88655">
        <ele>531.2</ele>
        <time>2022-08-06T06:42:38Z</time>
      </trkpt>
      <trkpt lat="46.73521" lon="5.88654">
        <ele>531.2</ele>
        <time>2022-08-06T06:42:39Z</time>
      </trkpt>
      <trkpt lat="46.73516" lon="5.88654">
        <ele>531.2</ele>
        <time>2022-08-06T06:42:40Z</time>
      </trkpt>
      <trkpt lat="46.73505" lon="5.88659">
        <ele>531.2</ele>
        <time>2022-08-06T06:42:42Z</time>
      </trkpt>
      <trkpt lat="46.735" lon="5.88663">
        <ele>531.2</ele>
        <time>2022-08-06T06:42:43Z</time>
      </trkpt>
      <trkpt lat="46.73472" lon="5.88683">
        <ele>531.4</ele>
        <time>2022-08-06T06:42:49Z</time>
      </trkpt>
      <trkpt lat="46.73469" lon="5.88686">
        <ele>531.4</ele>
        <time>2022-08-06T06:42:50Z</time>
      </trkpt>
      <trkpt lat="46.73448" lon="5.88699">
        <ele>533</ele>
        <time>2022-08-06T06:42:56Z</time>
      </trkpt>
      <trkpt lat="46.73444" lon="5.88702">
        <ele>533.4</ele>
        <time>2022-08-06T06:42:57Z</time>
      </trkpt>
      <trkpt lat="46.73432" lon="5.8871">
        <ele>534.4</ele>
        <time>2022-08-06T06:43:01Z</time>
      </trkpt>
      <trkpt lat="46.73426" lon="5.88713">
        <ele>534.6</ele>
        <time>2022-08-06T06:43:03Z</time>
      </trkpt>
      <trkpt lat="46.73407" lon="5.88726">
        <ele>535.6</ele>
        <time>2022-08-06T06:43:08Z</time>
      </trkpt>
      <trkpt lat="46.73389" lon="5.88741">
        <ele>536.8</ele>
        <time>2022-08-06T06:43:13Z</time>
      </trkpt>
      <trkpt lat="46.73382" lon="5.88746">
        <ele>537</ele>
        <time>2022-08-06T06:43:15Z</time>
      </trkpt>
      <trkpt lat="46.73362" lon="5.88762">
        <ele>537.8</ele>
        <time>2022-08-06T06:43:21Z</time>
      </trkpt>
      <trkpt lat="46.73343" lon="5.88778">
        <ele>538.8</ele>
        <time>2022-08-06T06:43:27Z</time>
      </trkpt>
      <trkpt lat="46.7334" lon="5.8878">
        <ele>539.2</ele>
        <time>2022-08-06T06:43:28Z</time>
      </trkpt>
      <trkpt lat="46.7333" lon="5.88787">
        <ele>540</ele>
        <time>2022-08-06T06:43:31Z</time>
      </trkpt>
      <trkpt lat="46.73314" lon="5.88796">
        <ele>540.8</ele>
        <time>2022-08-06T06:43:36Z</time>
      </trkpt>
      <trkpt lat="46.73307" lon="5.88801">
        <ele>541.2</ele>
        <time>2022-08-06T06:43:38Z</time>
      </trkpt>
      <trkpt lat="46.73294" lon="5.88807">
        <ele>542</ele>
        <time>2022-08-06T06:43:42Z</time>
      </trkpt>
      <trkpt lat="46.7329" lon="5.88809">
        <ele>542.2</ele>
        <time>2022-08-06T06:43:43Z</time>
      </trkpt>
      <trkpt lat="46.73274" lon="5.8881">
        <ele>543.2</ele>
        <time>2022-08-06T06:43:47Z</time>
      </trkpt>
      <trkpt lat="46.73266" lon="5.88812">
        <ele>543.4</ele>
        <time>2022-08-06T06:43:49Z</time>
      </trkpt>
      <trkpt lat="46.73255" lon="5.88818">
        <ele>543.8</ele>
        <time>2022-08-06T06:43:52Z</time>
      </trkpt>
      <trkpt lat="46.73238" lon="5.8883">
        <ele>544.6</ele>
        <time>2022-08-06T06:43:57Z</time>
      </trkpt>
      <trkpt lat="46.73234" lon="5.88832">
        <ele>544.8</ele>
        <time>2022-08-06T06:43:58Z</time>
      </trkpt>
      <trkpt lat="46.73219" lon="5.88836">
        <ele>545.6</ele>
        <time>2022-08-06T06:44:02Z</time>
      </trkpt>
      <trkpt lat="46.73212" lon="5.88837">
        <ele>546.2</ele>
        <time>2022-08-06T06:44:04Z</time>
      </trkpt>
      <trkpt lat="46.73206" lon="5.88838">
        <ele>546.8</ele>
        <time>2022-08-06T06:44:06Z</time>
      </trkpt>
      <trkpt lat="46.73189" lon="5.88843">
        <ele>547.6</ele>
        <time>2022-08-06T06:44:11Z</time>
      </trkpt>
      <trkpt lat="46.73186" lon="5.88845">
        <ele>547.8</ele>
        <time>2022-08-06T06:44:12Z</time>
      </trkpt>
      <trkpt lat="46.73168" lon="5.88857">
        <ele>549</ele>
        <time>2022-08-06T06:44:18Z</time>
      </trkpt>
      <trkpt lat="46.73165" lon="5.88859">
        <ele>549</ele>
        <time>2022-08-06T06:44:19Z</time>
      </trkpt>
      <trkpt lat="46.73146" lon="5.88871">
        <ele>550</ele>
        <time>2022-08-06T06:44:25Z</time>
      </trkpt>
      <trkpt lat="46.73142" lon="5.88873">
        <ele>550.4</ele>
        <time>2022-08-06T06:44:26Z</time>
      </trkpt>
      <trkpt lat="46.73129" lon="5.88881">
        <ele>551</ele>
        <time>2022-08-06T06:44:30Z</time>
      </trkpt>
      <trkpt lat="46.7312" lon="5.88887">
        <ele>551.4</ele>
        <time>2022-08-06T06:44:33Z</time>
      </trkpt>
      <trkpt lat="46.73108" lon="5.8889">
        <ele>552.2</ele>
        <time>2022-08-06T06:44:37Z</time>
      </trkpt>
      <trkpt lat="46.73105" lon="5.88892">
        <ele>552.6</ele>
        <time>2022-08-06T06:44:38Z</time>
      </trkpt>
      <trkpt lat="46.73099" lon="5.88895">
        <ele>553</ele>
        <time>2022-08-06T06:44:40Z</time>
      </trkpt>
      <trkpt lat="46.73096" lon="5.88897">
        <ele>553.2</ele>
        <time>2022-08-06T06:44:41Z</time>
      </trkpt>
      <trkpt lat="46.73094" lon="5.889">
        <ele>553.4</ele>
        <time>2022-08-06T06:44:42Z</time>
      </trkpt>
      <trkpt lat="46.73076" lon="5.88917">
        <ele>554</ele>
        <time>2022-08-06T06:44:47Z</time>
      </trkpt>
      <trkpt lat="46.73067" lon="5.88927">
        <ele>554.4</ele>
        <time>2022-08-06T06:44:50Z</time>
      </trkpt>
      <trkpt lat="46.73055" lon="5.88937">
        <ele>555.4</ele>
        <time>2022-08-06T06:44:54Z</time>
      </trkpt>
      <trkpt lat="46.73045" lon="5.88947">
        <ele>555.8</ele>
        <time>2022-08-06T06:44:57Z</time>
      </trkpt>
      <trkpt lat="46.73034" lon="5.88958">
        <ele>556.6</ele>
        <time>2022-08-06T06:45:01Z</time>
      </trkpt>
      <trkpt lat="46.73024" lon="5.88971">
        <ele>557.4</ele>
        <time>2022-08-06T06:45:04Z</time>
      </trkpt>
      <trkpt lat="46.73015" lon="5.88977">
        <ele>557.8</ele>
        <time>2022-08-06T06:45:07Z</time>
      </trkpt>
      <trkpt lat="46.73002" lon="5.88983">
        <ele>558.6</ele>
        <time>2022-08-06T06:45:11Z</time>
      </trkpt>
      <trkpt lat="46.72999" lon="5.88985">
        <ele>558.8</ele>
        <time>2022-08-06T06:45:12Z</time>
      </trkpt>
      <trkpt lat="46.72985" lon="5.88992">
        <ele>560</ele>
        <time>2022-08-06T06:45:17Z</time>
      </trkpt>
      <trkpt lat="46.7298" lon="5.88994">
        <ele>560.4</ele>
        <time>2022-08-06T06:45:19Z</time>
      </trkpt>
      <trkpt lat="46.72973" lon="5.88998">
        <ele>560.8</ele>
        <time>2022-08-06T06:45:22Z</time>
      </trkpt>
      <trkpt lat="46.72965" lon="5.89002">
        <ele>561.2</ele>
        <time>2022-08-06T06:45:25Z</time>
      </trkpt>
      <trkpt lat="46.72955" lon="5.8901">
        <ele>562</ele>
        <time>2022-08-06T06:45:28Z</time>
      </trkpt>
      <trkpt lat="46.72942" lon="5.89026">
        <ele>562.6</ele>
        <time>2022-08-06T06:45:32Z</time>
      </trkpt>
      <trkpt lat="46.72929" lon="5.89037">
        <ele>563</ele>
        <time>2022-08-06T06:45:35Z</time>
      </trkpt>
      <trkpt lat="46.72923" lon="5.89045">
        <ele>563.4</ele>
        <time>2022-08-06T06:45:37Z</time>
      </trkpt>
      <trkpt lat="46.7291" lon="5.89059">
        <ele>564</ele>
        <time>2022-08-06T06:45:41Z</time>
      </trkpt>
      <trkpt lat="46.72907" lon="5.89062">
        <ele>564.2</ele>
        <time>2022-08-06T06:45:42Z</time>
      </trkpt>
      <trkpt lat="46.72896" lon="5.89074">
        <ele>565</ele>
        <time>2022-08-06T06:45:46Z</time>
      </trkpt>
      <trkpt lat="46.72892" lon="5.89077">
        <ele>565.4</ele>
        <time>2022-08-06T06:45:47Z</time>
      </trkpt>
      <trkpt lat="46.72882" lon="5.89085">
        <ele>566</ele>
        <time>2022-08-06T06:45:50Z</time>
      </trkpt>
      <trkpt lat="46.72879" lon="5.89091">
        <ele>566.2</ele>
        <time>2022-08-06T06:45:51Z</time>
      </trkpt>
      <trkpt lat="46.72876" lon="5.89095">
        <ele>566.4</ele>
        <time>2022-08-06T06:45:52Z</time>
      </trkpt>
      <trkpt lat="46.72874" lon="5.89098">
        <ele>566.6</ele>
        <time>2022-08-06T06:45:53Z</time>
      </trkpt>
      <trkpt lat="46.72873" lon="5.89103">
        <ele>566.8</ele>
        <time>2022-08-06T06:45:54Z</time>
      </trkpt>
      <trkpt lat="46.72861" lon="5.89117">
        <ele>567.4</ele>
        <time>2022-08-06T06:45:57Z</time>
      </trkpt>
      <trkpt lat="46.72858" lon="5.8912">
        <ele>567.8</ele>
        <time>2022-08-06T06:45:58Z</time>
      </trkpt>
      <trkpt lat="46.72851" lon="5.89128">
        <ele>568.4</ele>
        <time>2022-08-06T06:46:01Z</time>
      </trkpt>
      <trkpt lat="46.72849" lon="5.89132">
        <ele>568.6</ele>
        <time>2022-08-06T06:46:02Z</time>
      </trkpt>
      <trkpt lat="46.72848" lon="5.89137">
        <ele>568.8</ele>
        <time>2022-08-06T06:46:03Z</time>
      </trkpt>
      <trkpt lat="46.72832" lon="5.89159">
        <ele>569.8</ele>
        <time>2022-08-06T06:46:08Z</time>
      </trkpt>
      <trkpt lat="46.72829" lon="5.89164">
        <ele>570</ele>
        <time>2022-08-06T06:46:09Z</time>
      </trkpt>
      <trkpt lat="46.72816" lon="5.89174">
        <ele>570.8</ele>
        <time>2022-08-06T06:46:13Z</time>
      </trkpt>
      <trkpt lat="46.72812" lon="5.89177">
        <ele>571.4</ele>
        <time>2022-08-06T06:46:14Z</time>
      </trkpt>
      <trkpt lat="46.72806" lon="5.8918">
        <ele>571.8</ele>
        <time>2022-08-06T06:46:16Z</time>
      </trkpt>
      <trkpt lat="46.72802" lon="5.89185">
        <ele>572.2</ele>
        <time>2022-08-06T06:46:18Z</time>
      </trkpt>
      <trkpt lat="46.72795" lon="5.89195">
        <ele>572.6</ele>
        <time>2022-08-06T06:46:21Z</time>
      </trkpt>
      <trkpt lat="46.72786" lon="5.89203">
        <ele>573.4</ele>
        <time>2022-08-06T06:46:25Z</time>
      </trkpt>
      <trkpt lat="46.72779" lon="5.8921">
        <ele>574</ele>
        <time>2022-08-06T06:46:28Z</time>
      </trkpt>
      <trkpt lat="46.72774" lon="5.89214">
        <ele>574.4</ele>
        <time>2022-08-06T06:46:30Z</time>
      </trkpt>
      <trkpt lat="46.72767" lon="5.89217">
        <ele>575</ele>
        <time>2022-08-06T06:46:33Z</time>
      </trkpt>
      <trkpt lat="46.72758" lon="5.89224">
        <ele>575.6</ele>
        <time>2022-08-06T06:46:36Z</time>
      </trkpt>
      <trkpt lat="46.72751" lon="5.89232">
        <ele>576.2</ele>
        <time>2022-08-06T06:46:38Z</time>
      </trkpt>
      <trkpt lat="46.7274" lon="5.89241">
        <ele>577.2</ele>
        <time>2022-08-06T06:46:42Z</time>
      </trkpt>
      <trkpt lat="46.72736" lon="5.89243">
        <ele>577.4</ele>
        <time>2022-08-06T06:46:43Z</time>
      </trkpt>
      <trkpt lat="46.72725" lon="5.89253">
        <ele>578</ele>
        <time>2022-08-06T06:46:47Z</time>
      </trkpt>
      <trkpt lat="46.72718" lon="5.89258">
        <ele>578.6</ele>
        <time>2022-08-06T06:46:49Z</time>
      </trkpt>
      <trkpt lat="46.72705" lon="5.89267">
        <ele>579.4</ele>
        <time>2022-08-06T06:46:53Z</time>
      </trkpt>
      <trkpt lat="46.72697" lon="5.89274">
        <ele>579.8</ele>
        <time>2022-08-06T06:46:56Z</time>
      </trkpt>
      <trkpt lat="46.72691" lon="5.89281">
        <ele>580.4</ele>
        <time>2022-08-06T06:46:58Z</time>
      </trkpt>
      <trkpt lat="46.7268" lon="5.89293">
        <ele>581.2</ele>
        <time>2022-08-06T06:47:02Z</time>
      </trkpt>
      <trkpt lat="46.72676" lon="5.89294">
        <ele>581.4</ele>
        <time>2022-08-06T06:47:03Z</time>
      </trkpt>
      <trkpt lat="46.72663" lon="5.89308">
        <ele>582.2</ele>
        <time>2022-08-06T06:47:07Z</time>
      </trkpt>
      <trkpt lat="46.72659" lon="5.89311">
        <ele>582.2</ele>
        <time>2022-08-06T06:47:08Z</time>
      </trkpt>
      <trkpt lat="46.72654" lon="5.89326">
        <ele>582.6</ele>
        <time>2022-08-06T06:47:11Z</time>
      </trkpt>
      <trkpt lat="46.72645" lon="5.89337">
        <ele>583</ele>
        <time>2022-08-06T06:47:14Z</time>
      </trkpt>
      <trkpt lat="46.72628" lon="5.89359">
        <ele>583.6</ele>
        <time>2022-08-06T06:47:20Z</time>
      </trkpt>
      <trkpt lat="46.72623" lon="5.89366">
        <ele>583.8</ele>
        <time>2022-08-06T06:47:22Z</time>
      </trkpt>
      <trkpt lat="46.72608" lon="5.89389">
        <ele>584.6</ele>
        <time>2022-08-06T06:47:28Z</time>
      </trkpt>
      <trkpt lat="46.72602" lon="5.89398">
        <ele>585</ele>
        <time>2022-08-06T06:47:30Z</time>
      </trkpt>
      <trkpt lat="46.72588" lon="5.89421">
        <ele>585.4</ele>
        <time>2022-08-06T06:47:36Z</time>
      </trkpt>
      <trkpt lat="46.72585" lon="5.89426">
        <ele>586</ele>
        <time>2022-08-06T06:47:37Z</time>
      </trkpt>
      <trkpt lat="46.72577" lon="5.8944">
        <ele>587</ele>
        <time>2022-08-06T06:47:41Z</time>
      </trkpt>
      <trkpt lat="46.72568" lon="5.89461">
        <ele>588.2</ele>
        <time>2022-08-06T06:47:46Z</time>
      </trkpt>
      <trkpt lat="46.72554" lon="5.89487">
        <ele>589.4</ele>
        <time>2022-08-06T06:47:53Z</time>
      </trkpt>
      <trkpt lat="46.7254" lon="5.89504">
        <ele>590.6</ele>
        <time>2022-08-06T06:47:58Z</time>
      </trkpt>
      <trkpt lat="46.72536" lon="5.89511">
        <ele>591</ele>
        <time>2022-08-06T06:48:00Z</time>
      </trkpt>
      <trkpt lat="46.72529" lon="5.89525">
        <ele>591.6</ele>
        <time>2022-08-06T06:48:04Z</time>
      </trkpt>
      <trkpt lat="46.72525" lon="5.89525">
        <ele>591.8</ele>
        <time>2022-08-06T06:48:05Z</time>
      </trkpt>
      <trkpt lat="46.7251" lon="5.89543">
        <ele>592.6</ele>
        <time>2022-08-06T06:48:10Z</time>
      </trkpt>
      <trkpt lat="46.72508" lon="5.89547">
        <ele>592.8</ele>
        <time>2022-08-06T06:48:11Z</time>
      </trkpt>
      <trkpt lat="46.72495" lon="5.89567">
        <ele>593.8</ele>
        <time>2022-08-06T06:48:16Z</time>
      </trkpt>
      <trkpt lat="46.72493" lon="5.8957">
        <ele>593.8</ele>
        <time>2022-08-06T06:48:17Z</time>
      </trkpt>
      <trkpt lat="46.7248" lon="5.89595">
        <ele>594.8</ele>
        <time>2022-08-06T06:48:22Z</time>
      </trkpt>
      <trkpt lat="46.72479" lon="5.89599">
        <ele>595.2</ele>
        <time>2022-08-06T06:48:23Z</time>
      </trkpt>
      <trkpt lat="46.72471" lon="5.89613">
        <ele>595.8</ele>
        <time>2022-08-06T06:48:27Z</time>
      </trkpt>
      <trkpt lat="46.72469" lon="5.89617">
        <ele>596</ele>
        <time>2022-08-06T06:48:28Z</time>
      </trkpt>
      <trkpt lat="46.7246" lon="5.89637">
        <ele>597.4</ele>
        <time>2022-08-06T06:48:34Z</time>
      </trkpt>
      <trkpt lat="46.72449" lon="5.89651">
        <ele>598.4</ele>
        <time>2022-08-06T06:48:38Z</time>
      </trkpt>
      <trkpt lat="46.72447" lon="5.89655">
        <ele>599</ele>
        <time>2022-08-06T06:48:39Z</time>
      </trkpt>
      <trkpt lat="46.72446" lon="5.89659">
        <ele>599.2</ele>
        <time>2022-08-06T06:48:40Z</time>
      </trkpt>
      <trkpt lat="46.72444" lon="5.89662">
        <ele>599.4</ele>
        <time>2022-08-06T06:48:41Z</time>
      </trkpt>
      <trkpt lat="46.72437" lon="5.8967">
        <ele>599.8</ele>
        <time>2022-08-06T06:48:43Z</time>
      </trkpt>
      <trkpt lat="46.72432" lon="5.89674">
        <ele>600</ele>
        <time>2022-08-06T06:48:44Z</time>
      </trkpt>
      <trkpt lat="46.72426" lon="5.89681">
        <ele>600.4</ele>
        <time>2022-08-06T06:48:46Z</time>
      </trkpt>
      <trkpt lat="46.72415" lon="5.89689">
        <ele>601.4</ele>
        <time>2022-08-06T06:48:50Z</time>
      </trkpt>
      <trkpt lat="46.72412" lon="5.89691">
        <ele>601.6</ele>
        <time>2022-08-06T06:48:51Z</time>
      </trkpt>
      <trkpt lat="46.72396" lon="5.89709">
        <ele>602.6</ele>
        <time>2022-08-06T06:48:56Z</time>
      </trkpt>
      <trkpt lat="46.72394" lon="5.89716">
        <ele>602.6</ele>
        <time>2022-08-06T06:48:57Z</time>
      </trkpt>
      <trkpt lat="46.72384" lon="5.89733">
        <ele>603.4</ele>
        <time>2022-08-06T06:49:01Z</time>
      </trkpt>
      <trkpt lat="46.7238" lon="5.89738">
        <ele>603.6</ele>
        <time>2022-08-06T06:49:02Z</time>
      </trkpt>
      <trkpt lat="46.72365" lon="5.89751">
        <ele>604.2</ele>
        <time>2022-08-06T06:49:07Z</time>
      </trkpt>
      <trkpt lat="46.72359" lon="5.89757">
        <ele>604.8</ele>
        <time>2022-08-06T06:49:09Z</time>
      </trkpt>
      <trkpt lat="46.7235" lon="5.89775">
        <ele>605.4</ele>
        <time>2022-08-06T06:49:13Z</time>
      </trkpt>
      <trkpt lat="46.72345" lon="5.89778">
        <ele>606</ele>
        <time>2022-08-06T06:49:15Z</time>
      </trkpt>
      <trkpt lat="46.72342" lon="5.89782">
        <ele>606.4</ele>
        <time>2022-08-06T06:49:17Z</time>
      </trkpt>
      <trkpt lat="46.72339" lon="5.89792">
        <ele>606.8</ele>
        <time>2022-08-06T06:49:19Z</time>
      </trkpt>
      <trkpt lat="46.72336" lon="5.89794">
        <ele>607.2</ele>
        <time>2022-08-06T06:49:20Z</time>
      </trkpt>
      <trkpt lat="46.72331" lon="5.89802">
        <ele>607.6</ele>
        <time>2022-08-06T06:49:23Z</time>
      </trkpt>
      <trkpt lat="46.72327" lon="5.89808">
        <ele>608.2</ele>
        <time>2022-08-06T06:49:25Z</time>
      </trkpt>
      <trkpt lat="46.72315" lon="5.89822">
        <ele>608.8</ele>
        <time>2022-08-06T06:49:30Z</time>
      </trkpt>
      <trkpt lat="46.72303" lon="5.89833">
        <ele>609.2</ele>
        <time>2022-08-06T06:49:35Z</time>
      </trkpt>
      <trkpt lat="46.72301" lon="5.89836">
        <ele>609.4</ele>
        <time>2022-08-06T06:49:36Z</time>
      </trkpt>
      <trkpt lat="46.72285" lon="5.89854">
        <ele>610.6</ele>
        <time>2022-08-06T06:49:41Z</time>
      </trkpt>
      <trkpt lat="46.72272" lon="5.89872">
        <ele>611.4</ele>
        <time>2022-08-06T06:49:45Z</time>
      </trkpt>
      <trkpt lat="46.72267" lon="5.89879">
        <ele>611.8</ele>
        <time>2022-08-06T06:49:47Z</time>
      </trkpt>
      <trkpt lat="46.72259" lon="5.89893">
        <ele>612.6</ele>
        <time>2022-08-06T06:49:51Z</time>
      </trkpt>
      <trkpt lat="46.72256" lon="5.89895">
        <ele>612.8</ele>
        <time>2022-08-06T06:49:52Z</time>
      </trkpt>
      <trkpt lat="46.72243" lon="5.89906">
        <ele>613.8</ele>
        <time>2022-08-06T06:49:57Z</time>
      </trkpt>
      <trkpt lat="46.72238" lon="5.8991">
        <ele>614.2</ele>
        <time>2022-08-06T06:49:59Z</time>
      </trkpt>
      <trkpt lat="46.7223" lon="5.89916">
        <ele>614.8</ele>
        <time>2022-08-06T06:50:02Z</time>
      </trkpt>
      <trkpt lat="46.72227" lon="5.89917">
        <ele>615</ele>
        <time>2022-08-06T06:50:03Z</time>
      </trkpt>
      <trkpt lat="46.72222" lon="5.89918">
        <ele>615.6</ele>
        <time>2022-08-06T06:50:05Z</time>
      </trkpt>
      <trkpt lat="46.72216" lon="5.89924">
        <ele>616.2</ele>
        <time>2022-08-06T06:50:08Z</time>
      </trkpt>
      <trkpt lat="46.72211" lon="5.89929">
        <ele>616.6</ele>
        <time>2022-08-06T06:50:10Z</time>
      </trkpt>
      <trkpt lat="46.72204" lon="5.89936">
        <ele>617.2</ele>
        <time>2022-08-06T06:50:13Z</time>
      </trkpt>
      <trkpt lat="46.72195" lon="5.89942">
        <ele>618</ele>
        <time>2022-08-06T06:50:16Z</time>
      </trkpt>
      <trkpt lat="46.72191" lon="5.89946">
        <ele>618.4</ele>
        <time>2022-08-06T06:50:17Z</time>
      </trkpt>
      <trkpt lat="46.72178" lon="5.89957">
        <ele>619</ele>
        <time>2022-08-06T06:50:21Z</time>
      </trkpt>
      <trkpt lat="46.72176" lon="5.89958">
        <ele>619.2</ele>
        <time>2022-08-06T06:50:22Z</time>
      </trkpt>
      <trkpt lat="46.72172" lon="5.89961">
        <ele>619.4</ele>
        <time>2022-08-06T06:50:24Z</time>
      </trkpt>
      <trkpt lat="46.72166" lon="5.89967">
        <ele>620</ele>
        <time>2022-08-06T06:50:27Z</time>
      </trkpt>
      <trkpt lat="46.72157" lon="5.89976">
        <ele>620.6</ele>
        <time>2022-08-06T06:50:30Z</time>
      </trkpt>
      <trkpt lat="46.7215" lon="5.8998">
        <ele>621.2</ele>
        <time>2022-08-06T06:50:32Z</time>
      </trkpt>
      <trkpt lat="46.72141" lon="5.89978">
        <ele>621.6</ele>
        <time>2022-08-06T06:50:34Z</time>
      </trkpt>
      <trkpt lat="46.72129" lon="5.89975">
        <ele>622.4</ele>
        <time>2022-08-06T06:50:37Z</time>
      </trkpt>
      <trkpt lat="46.72126" lon="5.89974">
        <ele>622.8</ele>
        <time>2022-08-06T06:50:38Z</time>
      </trkpt>
      <trkpt lat="46.72116" lon="5.89966">
        <ele>623</ele>
        <time>2022-08-06T06:50:41Z</time>
      </trkpt>
      <trkpt lat="46.72093" lon="5.89946">
        <ele>623.8</ele>
        <time>2022-08-06T06:50:47Z</time>
      </trkpt>
      <trkpt lat="46.72073" lon="5.89937">
        <ele>624.8</ele>
        <time>2022-08-06T06:50:53Z</time>
      </trkpt>
      <trkpt lat="46.72069" lon="5.89936">
        <ele>625</ele>
        <time>2022-08-06T06:50:54Z</time>
      </trkpt>
      <trkpt lat="46.72055" lon="5.89942">
        <ele>625.6</ele>
        <time>2022-08-06T06:50:58Z</time>
      </trkpt>
      <trkpt lat="46.7204" lon="5.89942">
        <ele>626</ele>
        <time>2022-08-06T06:51:02Z</time>
      </trkpt>
      <trkpt lat="46.72033" lon="5.89939">
        <ele>626.2</ele>
        <time>2022-08-06T06:51:04Z</time>
      </trkpt>
      <trkpt lat="46.72021" lon="5.89936">
        <ele>627.2</ele>
        <time>2022-08-06T06:51:08Z</time>
      </trkpt>
      <trkpt lat="46.72017" lon="5.89935">
        <ele>627.4</ele>
        <time>2022-08-06T06:51:09Z</time>
      </trkpt>
      <trkpt lat="46.72008" lon="5.89936">
        <ele>628.2</ele>
        <time>2022-08-06T06:51:12Z</time>
      </trkpt>
      <trkpt lat="46.71999" lon="5.8994">
        <ele>629.2</ele>
        <time>2022-08-06T06:51:15Z</time>
      </trkpt>
      <trkpt lat="46.71985" lon="5.89943">
        <ele>630.4</ele>
        <time>2022-08-06T06:51:19Z</time>
      </trkpt>
      <trkpt lat="46.71979" lon="5.89941">
        <ele>631</ele>
        <time>2022-08-06T06:51:21Z</time>
      </trkpt>
      <trkpt lat="46.71971" lon="5.89932">
        <ele>631.4</ele>
        <time>2022-08-06T06:51:24Z</time>
      </trkpt>
      <trkpt lat="46.71966" lon="5.89923">
        <ele>631.8</ele>
        <time>2022-08-06T06:51:26Z</time>
      </trkpt>
      <trkpt lat="46.71944" lon="5.89889">
        <ele>632.4</ele>
        <time>2022-08-06T06:51:33Z</time>
      </trkpt>
      <trkpt lat="46.7194" lon="5.89884">
        <ele>632.4</ele>
        <time>2022-08-06T06:51:34Z</time>
      </trkpt>
      <trkpt lat="46.71932" lon="5.89876">
        <ele>632.4</ele>
        <time>2022-08-06T06:51:36Z</time>
      </trkpt>
      <trkpt lat="46.71924" lon="5.89868">
        <ele>632.6</ele>
        <time>2022-08-06T06:51:38Z</time>
      </trkpt>
      <trkpt lat="46.7192" lon="5.89865">
        <ele>632.6</ele>
        <time>2022-08-06T06:51:39Z</time>
      </trkpt>
      <trkpt lat="46.71906" lon="5.89853">
        <ele>632.8</ele>
        <time>2022-08-06T06:51:43Z</time>
      </trkpt>
      <trkpt lat="46.71903" lon="5.8985">
        <ele>633.2</ele>
        <time>2022-08-06T06:51:44Z</time>
      </trkpt>
      <trkpt lat="46.71896" lon="5.89843">
        <ele>633.6</ele>
        <time>2022-08-06T06:51:46Z</time>
      </trkpt>
      <trkpt lat="46.71889" lon="5.89835">
        <ele>634</ele>
        <time>2022-08-06T06:51:48Z</time>
      </trkpt>
      <trkpt lat="46.71884" lon="5.89824">
        <ele>634</ele>
        <time>2022-08-06T06:51:50Z</time>
      </trkpt>
      <trkpt lat="46.71868" lon="5.89792">
        <ele>634.4</ele>
        <time>2022-08-06T06:51:56Z</time>
      </trkpt>
      <trkpt lat="46.71865" lon="5.89785">
        <ele>634.4</ele>
        <time>2022-08-06T06:51:57Z</time>
      </trkpt>
      <trkpt lat="46.71863" lon="5.89779">
        <ele>634.6</ele>
        <time>2022-08-06T06:51:58Z</time>
      </trkpt>
      <trkpt lat="46.7185" lon="5.89746">
        <ele>634.8</ele>
        <time>2022-08-06T06:52:03Z</time>
      </trkpt>
      <trkpt lat="46.71834" lon="5.89697">
        <ele>634.6</ele>
        <time>2022-08-06T06:52:09Z</time>
      </trkpt>
      <trkpt lat="46.71825" lon="5.89677">
        <ele>634.6</ele>
        <time>2022-08-06T06:52:12Z</time>
      </trkpt>
      <trkpt lat="46.71814" lon="5.89648">
        <ele>634.6</ele>
        <time>2022-08-06T06:52:15Z</time>
      </trkpt>
      <trkpt lat="46.71801" lon="5.89618">
        <ele>634.6</ele>
        <time>2022-08-06T06:52:19Z</time>
      </trkpt>
      <trkpt lat="46.71794" lon="5.89596">
        <ele>634.6</ele>
        <time>2022-08-06T06:52:22Z</time>
      </trkpt>
      <trkpt lat="46.71771" lon="5.89528">
        <ele>634.4</ele>
        <time>2022-08-06T06:52:29Z</time>
      </trkpt>
      <trkpt lat="46.71766" lon="5.89508">
        <ele>634.2</ele>
        <time>2022-08-06T06:52:31Z</time>
      </trkpt>
      <trkpt lat="46.71763" lon="5.89498">
        <ele>634.2</ele>
        <time>2022-08-06T06:52:32Z</time>
      </trkpt>
      <trkpt lat="46.7176" lon="5.89487">
        <ele>633.8</ele>
        <time>2022-08-06T06:52:33Z</time>
      </trkpt>
      <trkpt lat="46.71742" lon="5.89421">
        <ele>632.8</ele>
        <time>2022-08-06T06:52:39Z</time>
      </trkpt>
      <trkpt lat="46.71739" lon="5.89411">
        <ele>632.8</ele>
        <time>2022-08-06T06:52:40Z</time>
      </trkpt>
      <trkpt lat="46.7172" lon="5.89348">
        <ele>632</ele>
        <time>2022-08-06T06:52:46Z</time>
      </trkpt>
      <trkpt lat="46.71713" lon="5.89328">
        <ele>631.8</ele>
        <time>2022-08-06T06:52:48Z</time>
      </trkpt>
      <trkpt lat="46.71704" lon="5.89303">
        <ele>631.6</ele>
        <time>2022-08-06T06:52:51Z</time>
      </trkpt>
      <trkpt lat="46.71701" lon="5.89293">
        <ele>631.6</ele>
        <time>2022-08-06T06:52:52Z</time>
      </trkpt>
      <trkpt lat="46.71695" lon="5.89267">
        <ele>631.6</ele>
        <time>2022-08-06T06:52:55Z</time>
      </trkpt>
      <trkpt lat="46.71691" lon="5.89249">
        <ele>631.8</ele>
        <time>2022-08-06T06:52:57Z</time>
      </trkpt>
      <trkpt lat="46.71688" lon="5.89233">
        <ele>632.2</ele>
        <time>2022-08-06T06:52:59Z</time>
      </trkpt>
      <trkpt lat="46.71678" lon="5.89207">
        <ele>632.6</ele>
        <time>2022-08-06T06:53:02Z</time>
      </trkpt>
      <trkpt lat="46.71675" lon="5.89201">
        <ele>632.8</ele>
        <time>2022-08-06T06:53:03Z</time>
      </trkpt>
      <trkpt lat="46.71668" lon="5.89193">
        <ele>633</ele>
        <time>2022-08-06T06:53:04Z</time>
      </trkpt>
      <trkpt lat="46.71657" lon="5.89185">
        <ele>633.2</ele>
        <time>2022-08-06T06:53:06Z</time>
      </trkpt>
      <trkpt lat="46.71641" lon="5.89175">
        <ele>633.4</ele>
        <time>2022-08-06T06:53:09Z</time>
      </trkpt>
      <trkpt lat="46.71636" lon="5.89173">
        <ele>633.6</ele>
        <time>2022-08-06T06:53:10Z</time>
      </trkpt>
      <trkpt lat="46.71626" lon="5.89169">
        <ele>633.8</ele>
        <time>2022-08-06T06:53:12Z</time>
      </trkpt>
      <trkpt lat="46.71622" lon="5.89166">
        <ele>634.2</ele>
        <time>2022-08-06T06:53:13Z</time>
      </trkpt>
      <trkpt lat="46.71618" lon="5.89161">
        <ele>634.4</ele>
        <time>2022-08-06T06:53:14Z</time>
      </trkpt>
      <trkpt lat="46.7161" lon="5.89149">
        <ele>635.2</ele>
        <time>2022-08-06T06:53:17Z</time>
      </trkpt>
      <trkpt lat="46.71606" lon="5.8914">
        <ele>636</ele>
        <time>2022-08-06T06:53:19Z</time>
      </trkpt>
      <trkpt lat="46.71604" lon="5.89135">
        <ele>636.2</ele>
        <time>2022-08-06T06:53:20Z</time>
      </trkpt>
      <trkpt lat="46.71594" lon="5.8912">
        <ele>637.2</ele>
        <time>2022-08-06T06:53:24Z</time>
      </trkpt>
      <trkpt lat="46.71577" lon="5.89107">
        <ele>638.2</ele>
        <time>2022-08-06T06:53:29Z</time>
      </trkpt>
      <trkpt lat="46.71574" lon="5.89106">
        <ele>638.6</ele>
        <time>2022-08-06T06:53:30Z</time>
      </trkpt>
      <trkpt lat="46.71564" lon="5.89105">
        <ele>639.2</ele>
        <time>2022-08-06T06:53:33Z</time>
      </trkpt>
      <trkpt lat="46.71557" lon="5.89105">
        <ele>639.8</ele>
        <time>2022-08-06T06:53:35Z</time>
      </trkpt>
      <trkpt lat="46.71537" lon="5.8911">
        <ele>640.4</ele>
        <time>2022-08-06T06:53:41Z</time>
      </trkpt>
      <trkpt lat="46.71524" lon="5.89114">
        <ele>641.6</ele>
        <time>2022-08-06T06:53:46Z</time>
      </trkpt>
      <trkpt lat="46.71503" lon="5.89122">
        <ele>642.6</ele>
        <time>2022-08-06T06:53:52Z</time>
      </trkpt>
      <trkpt lat="46.71499" lon="5.89123">
        <ele>643</ele>
        <time>2022-08-06T06:53:53Z</time>
      </trkpt>
      <trkpt lat="46.71475" lon="5.89132">
        <ele>643.8</ele>
        <time>2022-08-06T06:53:59Z</time>
      </trkpt>
      <trkpt lat="46.71471" lon="5.89132">
        <ele>644</ele>
        <time>2022-08-06T06:54:00Z</time>
      </trkpt>
      <trkpt lat="46.71456" lon="5.89124">
        <ele>644.6</ele>
        <time>2022-08-06T06:54:04Z</time>
      </trkpt>
      <trkpt lat="46.71455" lon="5.89119">
        <ele>644.6</ele>
        <time>2022-08-06T06:54:05Z</time>
      </trkpt>
      <trkpt lat="46.71454" lon="5.89108">
        <ele>645</ele>
        <time>2022-08-06T06:54:07Z</time>
      </trkpt>
      <trkpt lat="46.71454" lon="5.89093">
        <ele>645.2</ele>
        <time>2022-08-06T06:54:10Z</time>
      </trkpt>
      <trkpt lat="46.71457" lon="5.89079">
        <ele>646.2</ele>
        <time>2022-08-06T06:54:13Z</time>
      </trkpt>
      <trkpt lat="46.7146" lon="5.8907">
        <ele>646.6</ele>
        <time>2022-08-06T06:54:15Z</time>
      </trkpt>
      <trkpt lat="46.71464" lon="5.89062">
        <ele>647</ele>
        <time>2022-08-06T06:54:17Z</time>
      </trkpt>
      <trkpt lat="46.71478" lon="5.89044">
        <ele>648</ele>
        <time>2022-08-06T06:54:22Z</time>
      </trkpt>
      <trkpt lat="46.71499" lon="5.89027">
        <ele>648.4</ele>
        <time>2022-08-06T06:54:27Z</time>
      </trkpt>
      <trkpt lat="46.71503" lon="5.89024">
        <ele>648.4</ele>
        <time>2022-08-06T06:54:28Z</time>
      </trkpt>
      <trkpt lat="46.71526" lon="5.89008">
        <ele>649</ele>
        <time>2022-08-06T06:54:34Z</time>
      </trkpt>
      <trkpt lat="46.71529" lon="5.89007">
        <ele>649</ele>
        <time>2022-08-06T06:54:35Z</time>
      </trkpt>
      <trkpt lat="46.71533" lon="5.89004">
        <ele>649.2</ele>
        <time>2022-08-06T06:54:36Z</time>
      </trkpt>
      <trkpt lat="46.71546" lon="5.88994">
        <ele>650</ele>
        <time>2022-08-06T06:54:41Z</time>
      </trkpt>
      <trkpt lat="46.71551" lon="5.88991">
        <ele>650.2</ele>
        <time>2022-08-06T06:54:43Z</time>
      </trkpt>
      <trkpt lat="46.71562" lon="5.88984">
        <ele>651</ele>
        <time>2022-08-06T06:54:47Z</time>
      </trkpt>
      <trkpt lat="46.71565" lon="5.88982">
        <ele>651.4</ele>
        <time>2022-08-06T06:54:48Z</time>
      </trkpt>
      <trkpt lat="46.71585" lon="5.8897">
        <ele>651.6</ele>
        <time>2022-08-06T06:54:53Z</time>
      </trkpt>
      <trkpt lat="46.71599" lon="5.88955">
        <ele>652</ele>
        <time>2022-08-06T06:54:57Z</time>
      </trkpt>
      <trkpt lat="46.71603" lon="5.88945">
        <ele>652.4</ele>
        <time>2022-08-06T06:54:59Z</time>
      </trkpt>
      <trkpt lat="46.71605" lon="5.88934">
        <ele>653.2</ele>
        <time>2022-08-06T06:55:01Z</time>
      </trkpt>
      <trkpt lat="46.71607" lon="5.88928">
        <ele>653.6</ele>
        <time>2022-08-06T06:55:02Z</time>
      </trkpt>
      <trkpt lat="46.7161" lon="5.88909">
        <ele>654.2</ele>
        <time>2022-08-06T06:55:05Z</time>
      </trkpt>
      <trkpt lat="46.71607" lon="5.88896">
        <ele>654.6</ele>
        <time>2022-08-06T06:55:07Z</time>
      </trkpt>
      <trkpt lat="46.71605" lon="5.88889">
        <ele>654.8</ele>
        <time>2022-08-06T06:55:08Z</time>
      </trkpt>
      <trkpt lat="46.71601" lon="5.88882">
        <ele>654.8</ele>
        <time>2022-08-06T06:55:09Z</time>
      </trkpt>
      <trkpt lat="46.71579" lon="5.88849">
        <ele>654.8</ele>
        <time>2022-08-06T06:55:14Z</time>
      </trkpt>
      <trkpt lat="46.71551" lon="5.88817">
        <ele>654</ele>
        <time>2022-08-06T06:55:19Z</time>
      </trkpt>
      <trkpt lat="46.71526" lon="5.88789">
        <ele>653.6</ele>
        <time>2022-08-06T06:55:23Z</time>
      </trkpt>
      <trkpt lat="46.7152" lon="5.88781">
        <ele>653.4</ele>
        <time>2022-08-06T06:55:24Z</time>
      </trkpt>
      <trkpt lat="46.71507" lon="5.88767">
        <ele>652.4</ele>
        <time>2022-08-06T06:55:26Z</time>
      </trkpt>
      <trkpt lat="46.71487" lon="5.88747">
        <ele>651</ele>
        <time>2022-08-06T06:55:29Z</time>
      </trkpt>
      <trkpt lat="46.71466" lon="5.88729">
        <ele>650.4</ele>
        <time>2022-08-06T06:55:32Z</time>
      </trkpt>
      <trkpt lat="46.71451" lon="5.88718">
        <ele>649.8</ele>
        <time>2022-08-06T06:55:34Z</time>
      </trkpt>
      <trkpt lat="46.71437" lon="5.88709">
        <ele>649.6</ele>
        <time>2022-08-06T06:55:36Z</time>
      </trkpt>
      <trkpt lat="46.71422" lon="5.88706">
        <ele>649.6</ele>
        <time>2022-08-06T06:55:38Z</time>
      </trkpt>
      <trkpt lat="46.71386" lon="5.88708">
        <ele>649.4</ele>
        <time>2022-08-06T06:55:43Z</time>
      </trkpt>
      <trkpt lat="46.71346" lon="5.88715">
        <ele>651</ele>
        <time>2022-08-06T06:55:50Z</time>
      </trkpt>
      <trkpt lat="46.7133" lon="5.88718">
        <ele>652.2</ele>
        <time>2022-08-06T06:55:53Z</time>
      </trkpt>
      <trkpt lat="46.71315" lon="5.88719">
        <ele>653</ele>
        <time>2022-08-06T06:55:56Z</time>
      </trkpt>
      <trkpt lat="46.7131" lon="5.88719">
        <ele>653.2</ele>
        <time>2022-08-06T06:55:57Z</time>
      </trkpt>
      <trkpt lat="46.71279" lon="5.8871">
        <ele>654.2</ele>
        <time>2022-08-06T06:56:03Z</time>
      </trkpt>
      <trkpt lat="46.7127" lon="5.88706">
        <ele>654.2</ele>
        <time>2022-08-06T06:56:05Z</time>
      </trkpt>
      <trkpt lat="46.71251" lon="5.88695">
        <ele>655.4</ele>
        <time>2022-08-06T06:56:09Z</time>
      </trkpt>
      <trkpt lat="46.71247" lon="5.88692">
        <ele>655.4</ele>
        <time>2022-08-06T06:56:10Z</time>
      </trkpt>
      <trkpt lat="46.71243" lon="5.88688">
        <ele>655.6</ele>
        <time>2022-08-06T06:56:11Z</time>
      </trkpt>
      <trkpt lat="46.71235" lon="5.88682">
        <ele>656</ele>
        <time>2022-08-06T06:56:13Z</time>
      </trkpt>
      <trkpt lat="46.71229" lon="5.88674">
        <ele>656.6</ele>
        <time>2022-08-06T06:56:15Z</time>
      </trkpt>
      <trkpt lat="46.71223" lon="5.88665">
        <ele>657.2</ele>
        <time>2022-08-06T06:56:17Z</time>
      </trkpt>
      <trkpt lat="46.71217" lon="5.88656">
        <ele>657.8</ele>
        <time>2022-08-06T06:56:19Z</time>
      </trkpt>
      <trkpt lat="46.71206" lon="5.88635">
        <ele>658.8</ele>
        <time>2022-08-06T06:56:24Z</time>
      </trkpt>
      <trkpt lat="46.71202" lon="5.88627">
        <ele>659.2</ele>
        <time>2022-08-06T06:56:26Z</time>
      </trkpt>
      <trkpt lat="46.71197" lon="5.88618">
        <ele>660</ele>
        <time>2022-08-06T06:56:28Z</time>
      </trkpt>
      <trkpt lat="46.71189" lon="5.886">
        <ele>661.2</ele>
        <time>2022-08-06T06:56:32Z</time>
      </trkpt>
      <trkpt lat="46.71187" lon="5.88596">
        <ele>661.6</ele>
        <time>2022-08-06T06:56:33Z</time>
      </trkpt>
      <trkpt lat="46.71182" lon="5.88583">
        <ele>662.6</ele>
        <time>2022-08-06T06:56:36Z</time>
      </trkpt>
      <trkpt lat="46.71176" lon="5.88562">
        <ele>663.6</ele>
        <time>2022-08-06T06:56:41Z</time>
      </trkpt>
      <trkpt lat="46.71175" lon="5.88558">
        <ele>664</ele>
        <time>2022-08-06T06:56:42Z</time>
      </trkpt>
      <trkpt lat="46.71171" lon="5.88535">
        <ele>665.2</ele>
        <time>2022-08-06T06:56:47Z</time>
      </trkpt>
      <trkpt lat="46.7117" lon="5.88531">
        <ele>665.4</ele>
        <time>2022-08-06T06:56:48Z</time>
      </trkpt>
      <trkpt lat="46.71164" lon="5.88513">
        <ele>666.2</ele>
        <time>2022-08-06T06:56:52Z</time>
      </trkpt>
      <trkpt lat="46.71161" lon="5.88503">
        <ele>666.4</ele>
        <time>2022-08-06T06:56:54Z</time>
      </trkpt>
      <trkpt lat="46.7115" lon="5.88467">
        <ele>667.2</ele>
        <time>2022-08-06T06:57:01Z</time>
      </trkpt>
      <trkpt lat="46.71141" lon="5.88437">
        <ele>668.4</ele>
        <time>2022-08-06T06:57:07Z</time>
      </trkpt>
      <trkpt lat="46.71137" lon="5.88422">
        <ele>668.8</ele>
        <time>2022-08-06T06:57:10Z</time>
      </trkpt>
      <trkpt lat="46.71132" lon="5.88406">
        <ele>669.6</ele>
        <time>2022-08-06T06:57:14Z</time>
      </trkpt>
      <trkpt lat="46.71127" lon="5.88396">
        <ele>670.4</ele>
        <time>2022-08-06T06:57:17Z</time>
      </trkpt>
      <trkpt lat="46.71122" lon="5.88388">
        <ele>670.8</ele>
        <time>2022-08-06T06:57:19Z</time>
      </trkpt>
      <trkpt lat="46.71109" lon="5.88365">
        <ele>672</ele>
        <time>2022-08-06T06:57:25Z</time>
      </trkpt>
      <trkpt lat="46.71107" lon="5.88361">
        <ele>672.4</ele>
        <time>2022-08-06T06:57:26Z</time>
      </trkpt>
      <trkpt lat="46.71093" lon="5.88343">
        <ele>673.2</ele>
        <time>2022-08-06T06:57:31Z</time>
      </trkpt>
      <trkpt lat="46.71085" lon="5.88332">
        <ele>673.6</ele>
        <time>2022-08-06T06:57:34Z</time>
      </trkpt>
      <trkpt lat="46.71067" lon="5.88311">
        <ele>674.2</ele>
        <time>2022-08-06T06:57:39Z</time>
      </trkpt>
      <trkpt lat="46.71063" lon="5.88307">
        <ele>674.4</ele>
        <time>2022-08-06T06:57:40Z</time>
      </trkpt>
      <trkpt lat="46.71053" lon="5.88301">
        <ele>674.4</ele>
        <time>2022-08-06T06:57:42Z</time>
      </trkpt>
      <trkpt lat="46.71042" lon="5.88297">
        <ele>674.4</ele>
        <time>2022-08-06T06:57:44Z</time>
      </trkpt>
      <trkpt lat="46.71005" lon="5.88295">
        <ele>673.8</ele>
        <time>2022-08-06T06:57:50Z</time>
      </trkpt>
      <trkpt lat="46.7096" lon="5.88292">
        <ele>673.4</ele>
        <time>2022-08-06T06:57:57Z</time>
      </trkpt>
      <trkpt lat="46.70939" lon="5.88291">
        <ele>673.4</ele>
        <time>2022-08-06T06:58:00Z</time>
      </trkpt>
      <trkpt lat="46.70918" lon="5.88287">
        <ele>673</ele>
        <time>2022-08-06T06:58:03Z</time>
      </trkpt>
      <trkpt lat="46.70912" lon="5.88285">
        <ele>673</ele>
        <time>2022-08-06T06:58:04Z</time>
      </trkpt>
      <trkpt lat="46.70905" lon="5.88282">
        <ele>672.8</ele>
        <time>2022-08-06T06:58:05Z</time>
      </trkpt>
      <trkpt lat="46.70871" lon="5.88267">
        <ele>672.4</ele>
        <time>2022-08-06T06:58:10Z</time>
      </trkpt>
      <trkpt lat="46.70857" lon="5.88262">
        <ele>672.2</ele>
        <time>2022-08-06T06:58:12Z</time>
      </trkpt>
      <trkpt lat="46.70846" lon="5.88256">
        <ele>672</ele>
        <time>2022-08-06T06:58:14Z</time>
      </trkpt>
      <trkpt lat="46.70837" lon="5.8825">
        <ele>671.6</ele>
        <time>2022-08-06T06:58:16Z</time>
      </trkpt>
      <trkpt lat="46.70826" lon="5.88253">
        <ele>671.6</ele>
        <time>2022-08-06T06:58:18Z</time>
      </trkpt>
      <trkpt lat="46.70821" lon="5.88257">
        <ele>671.4</ele>
        <time>2022-08-06T06:58:19Z</time>
      </trkpt>
      <trkpt lat="46.70817" lon="5.88263">
        <ele>671.4</ele>
        <time>2022-08-06T06:58:20Z</time>
      </trkpt>
      <trkpt lat="46.70806" lon="5.88281">
        <ele>671.4</ele>
        <time>2022-08-06T06:58:23Z</time>
      </trkpt>
      <trkpt lat="46.70803" lon="5.88287">
        <ele>671.6</ele>
        <time>2022-08-06T06:58:24Z</time>
      </trkpt>
      <trkpt lat="46.70795" lon="5.88304">
        <ele>671.8</ele>
        <time>2022-08-06T06:58:27Z</time>
      </trkpt>
      <trkpt lat="46.70792" lon="5.88309">
        <ele>672</ele>
        <time>2022-08-06T06:58:28Z</time>
      </trkpt>
      <trkpt lat="46.7079" lon="5.88314">
        <ele>672.2</ele>
        <time>2022-08-06T06:58:29Z</time>
      </trkpt>
      <trkpt lat="46.70781" lon="5.88329">
        <ele>673.2</ele>
        <time>2022-08-06T06:58:32Z</time>
      </trkpt>
      <trkpt lat="46.70779" lon="5.88335">
        <ele>673.6</ele>
        <time>2022-08-06T06:58:33Z</time>
      </trkpt>
      <trkpt lat="46.70775" lon="5.88347">
        <ele>673.8</ele>
        <time>2022-08-06T06:58:35Z</time>
      </trkpt>
      <trkpt lat="46.7077" lon="5.88357">
        <ele>674.2</ele>
        <time>2022-08-06T06:58:37Z</time>
      </trkpt>
      <trkpt lat="46.70762" lon="5.88379">
        <ele>675.4</ele>
        <time>2022-08-06T06:58:41Z</time>
      </trkpt>
      <trkpt lat="46.70758" lon="5.8839">
        <ele>676.2</ele>
        <time>2022-08-06T06:58:43Z</time>
      </trkpt>
      <trkpt lat="46.70757" lon="5.88395">
        <ele>676.6</ele>
        <time>2022-08-06T06:58:44Z</time>
      </trkpt>
      <trkpt lat="46.70754" lon="5.88413">
        <ele>677</ele>
        <time>2022-08-06T06:58:47Z</time>
      </trkpt>
      <trkpt lat="46.70754" lon="5.88427">
        <ele>677.8</ele>
        <time>2022-08-06T06:58:49Z</time>
      </trkpt>
      <trkpt lat="46.70754" lon="5.88434">
        <ele>678</ele>
        <time>2022-08-06T06:58:50Z</time>
      </trkpt>
      <trkpt lat="46.70755" lon="5.88448">
        <ele>678.8</ele>
        <time>2022-08-06T06:58:52Z</time>
      </trkpt>
      <trkpt lat="46.7076" lon="5.88475">
        <ele>679.8</ele>
        <time>2022-08-06T06:58:56Z</time>
      </trkpt>
      <trkpt lat="46.70763" lon="5.88487">
        <ele>680</ele>
        <time>2022-08-06T06:58:58Z</time>
      </trkpt>
      <trkpt lat="46.70767" lon="5.88498">
        <ele>680.2</ele>
        <time>2022-08-06T06:59:00Z</time>
      </trkpt>
      <trkpt lat="46.70769" lon="5.88503">
        <ele>680.4</ele>
        <time>2022-08-06T06:59:01Z</time>
      </trkpt>
      <trkpt lat="46.70773" lon="5.88513">
        <ele>681</ele>
        <time>2022-08-06T06:59:03Z</time>
      </trkpt>
      <trkpt lat="46.70781" lon="5.8854">
        <ele>682</ele>
        <time>2022-08-06T06:59:08Z</time>
      </trkpt>
      <trkpt lat="46.70781" lon="5.88546">
        <ele>682.2</ele>
        <time>2022-08-06T06:59:09Z</time>
      </trkpt>
      <trkpt lat="46.70783" lon="5.88562">
        <ele>683.4</ele>
        <time>2022-08-06T06:59:12Z</time>
      </trkpt>
      <trkpt lat="46.70786" lon="5.88587">
        <ele>684.6</ele>
        <time>2022-08-06T06:59:16Z</time>
      </trkpt>
      <trkpt lat="46.70793" lon="5.88642">
        <ele>685</ele>
        <time>2022-08-06T06:59:24Z</time>
      </trkpt>
      <trkpt lat="46.70793" lon="5.88695">
        <ele>685.2</ele>
        <time>2022-08-06T06:59:31Z</time>
      </trkpt>
      <trkpt lat="46.70791" lon="5.88713">
        <ele>685.2</ele>
        <time>2022-08-06T06:59:33Z</time>
      </trkpt>
      <trkpt lat="46.70784" lon="5.88732">
        <ele>685</ele>
        <time>2022-08-06T06:59:35Z</time>
      </trkpt>
      <trkpt lat="46.70763" lon="5.88775">
        <ele>684</ele>
        <time>2022-08-06T06:59:40Z</time>
      </trkpt>
      <trkpt lat="46.70761" lon="5.88784">
        <ele>684</ele>
        <time>2022-08-06T06:59:41Z</time>
      </trkpt>
      <trkpt lat="46.70759" lon="5.88793">
        <ele>684</ele>
        <time>2022-08-06T06:59:42Z</time>
      </trkpt>
      <trkpt lat="46.70755" lon="5.88829">
        <ele>684.2</ele>
        <time>2022-08-06T06:59:46Z</time>
      </trkpt>
      <trkpt lat="46.70752" lon="5.88847">
        <ele>684.2</ele>
        <time>2022-08-06T06:59:48Z</time>
      </trkpt>
      <trkpt lat="46.70746" lon="5.88865">
        <ele>684.2</ele>
        <time>2022-08-06T06:59:50Z</time>
      </trkpt>
      <trkpt lat="46.70726" lon="5.88897">
        <ele>684.2</ele>
        <time>2022-08-06T06:59:54Z</time>
      </trkpt>
      <trkpt lat="46.70714" lon="5.88915">
        <ele>683.4</ele>
        <time>2022-08-06T06:59:56Z</time>
      </trkpt>
      <trkpt lat="46.70694" lon="5.88945">
        <ele>682.6</ele>
        <time>2022-08-06T06:59:59Z</time>
      </trkpt>
      <trkpt lat="46.70688" lon="5.88955">
        <ele>682.2</ele>
        <time>2022-08-06T07:00:00Z</time>
      </trkpt>
      <trkpt lat="46.70676" lon="5.88979">
        <ele>680.6</ele>
        <time>2022-08-06T07:00:02Z</time>
      </trkpt>
      <trkpt lat="46.70669" lon="5.88994">
        <ele>679.4</ele>
        <time>2022-08-06T07:00:03Z</time>
      </trkpt>
      <trkpt lat="46.70663" lon="5.89008">
        <ele>678.8</ele>
        <time>2022-08-06T07:00:04Z</time>
      </trkpt>
      <trkpt lat="46.70658" lon="5.89023">
        <ele>678</ele>
        <time>2022-08-06T07:00:05Z</time>
      </trkpt>
      <trkpt lat="46.70646" lon="5.89052">
        <ele>676</ele>
        <time>2022-08-06T07:00:07Z</time>
      </trkpt>
      <trkpt lat="46.70639" lon="5.89066">
        <ele>675.6</ele>
        <time>2022-08-06T07:00:08Z</time>
      </trkpt>
      <trkpt lat="46.70632" lon="5.89078">
        <ele>674.6</ele>
        <time>2022-08-06T07:00:09Z</time>
      </trkpt>
      <trkpt lat="46.70624" lon="5.89088">
        <ele>673.4</ele>
        <time>2022-08-06T07:00:10Z</time>
      </trkpt>
      <trkpt lat="46.70604" lon="5.89103">
        <ele>672.8</ele>
        <time>2022-08-06T07:00:12Z</time>
      </trkpt>
      <trkpt lat="46.70569" lon="5.89122">
        <ele>672.6</ele>
        <time>2022-08-06T07:00:16Z</time>
      </trkpt>
      <trkpt lat="46.70557" lon="5.89139">
        <ele>672.6</ele>
        <time>2022-08-06T07:00:18Z</time>
      </trkpt>
      <trkpt lat="46.70553" lon="5.89149">
        <ele>672.6</ele>
        <time>2022-08-06T07:00:19Z</time>
      </trkpt>
      <trkpt lat="46.70539" lon="5.89209">
        <ele>673</ele>
        <time>2022-08-06T07:00:24Z</time>
      </trkpt>
      <trkpt lat="46.70532" lon="5.89234">
        <ele>672.6</ele>
        <time>2022-08-06T07:00:26Z</time>
      </trkpt>
      <trkpt lat="46.70527" lon="5.89245">
        <ele>672.4</ele>
        <time>2022-08-06T07:00:27Z</time>
      </trkpt>
      <trkpt lat="46.70521" lon="5.89256">
        <ele>671.8</ele>
        <time>2022-08-06T07:00:28Z</time>
      </trkpt>
      <trkpt lat="46.70505" lon="5.89276">
        <ele>670.6</ele>
        <time>2022-08-06T07:00:30Z</time>
      </trkpt>
      <trkpt lat="46.7049" lon="5.89298">
        <ele>669.4</ele>
        <time>2022-08-06T07:00:32Z</time>
      </trkpt>
      <trkpt lat="46.70478" lon="5.8932">
        <ele>667.8</ele>
        <time>2022-08-06T07:00:34Z</time>
      </trkpt>
      <trkpt lat="46.70462" lon="5.89353">
        <ele>666.6</ele>
        <time>2022-08-06T07:00:37Z</time>
      </trkpt>
      <trkpt lat="46.70439" lon="5.89399">
        <ele>666.8</ele>
        <time>2022-08-06T07:00:42Z</time>
      </trkpt>
      <trkpt lat="46.70435" lon="5.89408">
        <ele>667</ele>
        <time>2022-08-06T07:00:43Z</time>
      </trkpt>
      <trkpt lat="46.70424" lon="5.89432">
        <ele>667.8</ele>
        <time>2022-08-06T07:00:46Z</time>
      </trkpt>
      <trkpt lat="46.70418" lon="5.89449">
        <ele>668.4</ele>
        <time>2022-08-06T07:00:48Z</time>
      </trkpt>
      <trkpt lat="46.70415" lon="5.89458">
        <ele>669.2</ele>
        <time>2022-08-06T07:00:49Z</time>
      </trkpt>
      <trkpt lat="46.7041" lon="5.89482">
        <ele>670.2</ele>
        <time>2022-08-06T07:00:52Z</time>
      </trkpt>
      <trkpt lat="46.70409" lon="5.8949">
        <ele>670.8</ele>
        <time>2022-08-06T07:00:53Z</time>
      </trkpt>
      <trkpt lat="46.70405" lon="5.89507">
        <ele>671.6</ele>
        <time>2022-08-06T07:00:55Z</time>
      </trkpt>
      <trkpt lat="46.70399" lon="5.89532">
        <ele>672.8</ele>
        <time>2022-08-06T07:00:58Z</time>
      </trkpt>
      <trkpt lat="46.70397" lon="5.89541">
        <ele>673</ele>
        <time>2022-08-06T07:00:59Z</time>
      </trkpt>
      <trkpt lat="46.70391" lon="5.89586">
        <ele>673.8</ele>
        <time>2022-08-06T07:01:04Z</time>
      </trkpt>
      <trkpt lat="46.70391" lon="5.89594">
        <ele>674</ele>
        <time>2022-08-06T07:01:05Z</time>
      </trkpt>
      <trkpt lat="46.70399" lon="5.8964">
        <ele>675.2</ele>
        <time>2022-08-06T07:01:11Z</time>
      </trkpt>
      <trkpt lat="46.70399" lon="5.89655">
        <ele>675.4</ele>
        <time>2022-08-06T07:01:13Z</time>
      </trkpt>
      <trkpt lat="46.70396" lon="5.8967">
        <ele>675.6</ele>
        <time>2022-08-06T07:01:15Z</time>
      </trkpt>
      <trkpt lat="46.70388" lon="5.89684">
        <ele>675.8</ele>
        <time>2022-08-06T07:01:17Z</time>
      </trkpt>
      <trkpt lat="46.70377" lon="5.89698">
        <ele>675.8</ele>
        <time>2022-08-06T07:01:19Z</time>
      </trkpt>
      <trkpt lat="46.70347" lon="5.89735">
        <ele>675.4</ele>
        <time>2022-08-06T07:01:24Z</time>
      </trkpt>
      <trkpt lat="46.70342" lon="5.89743">
        <ele>674.8</ele>
        <time>2022-08-06T07:01:25Z</time>
      </trkpt>
      <trkpt lat="46.70335" lon="5.89753">
        <ele>674.4</ele>
        <time>2022-08-06T07:01:26Z</time>
      </trkpt>
      <trkpt lat="46.70331" lon="5.89761">
        <ele>673.6</ele>
        <time>2022-08-06T07:01:27Z</time>
      </trkpt>
      <trkpt lat="46.70327" lon="5.89772">
        <ele>673</ele>
        <time>2022-08-06T07:01:28Z</time>
      </trkpt>
      <trkpt lat="46.70324" lon="5.89796">
        <ele>672.4</ele>
        <time>2022-08-06T07:01:30Z</time>
      </trkpt>
      <trkpt lat="46.70324" lon="5.89808">
        <ele>672.2</ele>
        <time>2022-08-06T07:01:31Z</time>
      </trkpt>
      <trkpt lat="46.70326" lon="5.89844">
        <ele>671</ele>
        <time>2022-08-06T07:01:34Z</time>
      </trkpt>
      <trkpt lat="46.70328" lon="5.89888">
        <ele>670.2</ele>
        <time>2022-08-06T07:01:38Z</time>
      </trkpt>
      <trkpt lat="46.70329" lon="5.89918">
        <ele>670</ele>
        <time>2022-08-06T07:01:41Z</time>
      </trkpt>
      <trkpt lat="46.70331" lon="5.89967">
        <ele>670</ele>
        <time>2022-08-06T07:01:46Z</time>
      </trkpt>
      <trkpt lat="46.70332" lon="5.90029">
        <ele>671.2</ele>
        <time>2022-08-06T07:01:53Z</time>
      </trkpt>
      <trkpt lat="46.70335" lon="5.90082">
        <ele>672.4</ele>
        <time>2022-08-06T07:01:59Z</time>
      </trkpt>
      <trkpt lat="46.70336" lon="5.9009">
        <ele>672.6</ele>
        <time>2022-08-06T07:02:00Z</time>
      </trkpt>
      <trkpt lat="46.70337" lon="5.90122">
        <ele>673.6</ele>
        <time>2022-08-06T07:02:04Z</time>
      </trkpt>
      <trkpt lat="46.70336" lon="5.90164">
        <ele>674.6</ele>
        <time>2022-08-06T07:02:09Z</time>
      </trkpt>
      <trkpt lat="46.70337" lon="5.90172">
        <ele>674.8</ele>
        <time>2022-08-06T07:02:10Z</time>
      </trkpt>
      <trkpt lat="46.70338" lon="5.90205">
        <ele>676</ele>
        <time>2022-08-06T07:02:14Z</time>
      </trkpt>
      <trkpt lat="46.7034" lon="5.90221">
        <ele>676.2</ele>
        <time>2022-08-06T07:02:16Z</time>
      </trkpt>
      <trkpt lat="46.70342" lon="5.90228">
        <ele>676.2</ele>
        <time>2022-08-06T07:02:17Z</time>
      </trkpt>
      <trkpt lat="46.70346" lon="5.90241">
        <ele>676.6</ele>
        <time>2022-08-06T07:02:19Z</time>
      </trkpt>
      <trkpt lat="46.70353" lon="5.90253">
        <ele>677.2</ele>
        <time>2022-08-06T07:02:21Z</time>
      </trkpt>
      <trkpt lat="46.70357" lon="5.90259">
        <ele>677.2</ele>
        <time>2022-08-06T07:02:22Z</time>
      </trkpt>
      <trkpt lat="46.70362" lon="5.90264">
        <ele>677.4</ele>
        <time>2022-08-06T07:02:23Z</time>
      </trkpt>
      <trkpt lat="46.70372" lon="5.90274">
        <ele>677.4</ele>
        <time>2022-08-06T07:02:25Z</time>
      </trkpt>
      <trkpt lat="46.70378" lon="5.90277">
        <ele>677.4</ele>
        <time>2022-08-06T07:02:26Z</time>
      </trkpt>
      <trkpt lat="46.70384" lon="5.9028">
        <ele>677.4</ele>
        <time>2022-08-06T07:02:27Z</time>
      </trkpt>
      <trkpt lat="46.70402" lon="5.90281">
        <ele>677.2</ele>
        <time>2022-08-06T07:02:30Z</time>
      </trkpt>
      <trkpt lat="46.70432" lon="5.90273">
        <ele>676.8</ele>
        <time>2022-08-06T07:02:35Z</time>
      </trkpt>
      <trkpt lat="46.70444" lon="5.90274">
        <ele>676.6</ele>
        <time>2022-08-06T07:02:37Z</time>
      </trkpt>
      <trkpt lat="46.70455" lon="5.90283">
        <ele>676.6</ele>
        <time>2022-08-06T07:02:39Z</time>
      </trkpt>
      <trkpt lat="46.70456" lon="5.90296">
        <ele>676.6</ele>
        <time>2022-08-06T07:02:41Z</time>
      </trkpt>
      <trkpt lat="46.70449" lon="5.90306">
        <ele>676.4</ele>
        <time>2022-08-06T07:02:43Z</time>
      </trkpt>
      <trkpt lat="46.70444" lon="5.90308">
        <ele>676</ele>
        <time>2022-08-06T07:02:44Z</time>
      </trkpt>
      <trkpt lat="46.70438" lon="5.9031">
        <ele>675.8</ele>
        <time>2022-08-06T07:02:45Z</time>
      </trkpt>
      <trkpt lat="46.70417" lon="5.9031">
        <ele>674.6</ele>
        <time>2022-08-06T07:02:48Z</time>
      </trkpt>
      <trkpt lat="46.70401" lon="5.90309">
        <ele>673.8</ele>
        <time>2022-08-06T07:02:50Z</time>
      </trkpt>
      <trkpt lat="46.70393" lon="5.9031">
        <ele>673.2</ele>
        <time>2022-08-06T07:02:51Z</time>
      </trkpt>
      <trkpt lat="46.70377" lon="5.90312">
        <ele>672.8</ele>
        <time>2022-08-06T07:02:53Z</time>
      </trkpt>
      <trkpt lat="46.70362" lon="5.90315">
        <ele>671.8</ele>
        <time>2022-08-06T07:02:55Z</time>
      </trkpt>
      <trkpt lat="46.70347" lon="5.90319">
        <ele>671</ele>
        <time>2022-08-06T07:02:57Z</time>
      </trkpt>
      <trkpt lat="46.70339" lon="5.90321">
        <ele>670.2</ele>
        <time>2022-08-06T07:02:58Z</time>
      </trkpt>
      <trkpt lat="46.70312" lon="5.90324">
        <ele>669</ele>
        <time>2022-08-06T07:03:01Z</time>
      </trkpt>
      <trkpt lat="46.70302" lon="5.90325">
        <ele>668.2</ele>
        <time>2022-08-06T07:03:02Z</time>
      </trkpt>
      <trkpt lat="46.70292" lon="5.90327">
        <ele>667.4</ele>
        <time>2022-08-06T07:03:03Z</time>
      </trkpt>
      <trkpt lat="46.70271" lon="5.9033">
        <ele>666</ele>
        <time>2022-08-06T07:03:05Z</time>
      </trkpt>
      <trkpt lat="46.7026" lon="5.90333">
        <ele>664.2</ele>
        <time>2022-08-06T07:03:06Z</time>
      </trkpt>
      <trkpt lat="46.70249" lon="5.90336">
        <ele>663</ele>
        <time>2022-08-06T07:03:07Z</time>
      </trkpt>
      <trkpt lat="46.70238" lon="5.90341">
        <ele>662.4</ele>
        <time>2022-08-06T07:03:08Z</time>
      </trkpt>
      <trkpt lat="46.70227" lon="5.90344">
        <ele>661.4</ele>
        <time>2022-08-06T07:03:09Z</time>
      </trkpt>
      <trkpt lat="46.70204" lon="5.90353">
        <ele>659.8</ele>
        <time>2022-08-06T07:03:11Z</time>
      </trkpt>
      <trkpt lat="46.70193" lon="5.90359">
        <ele>659.2</ele>
        <time>2022-08-06T07:03:12Z</time>
      </trkpt>
      <trkpt lat="46.7018" lon="5.90366">
        <ele>658.4</ele>
        <time>2022-08-06T07:03:13Z</time>
      </trkpt>
      <trkpt lat="46.70149" lon="5.90385">
        <ele>656.4</ele>
        <time>2022-08-06T07:03:16Z</time>
      </trkpt>
      <trkpt lat="46.7014" lon="5.90392">
        <ele>656</ele>
        <time>2022-08-06T07:03:17Z</time>
      </trkpt>
      <trkpt lat="46.70133" lon="5.90399">
        <ele>655.2</ele>
        <time>2022-08-06T07:03:18Z</time>
      </trkpt>
      <trkpt lat="46.70127" lon="5.9041">
        <ele>654.8</ele>
        <time>2022-08-06T07:03:19Z</time>
      </trkpt>
      <trkpt lat="46.70119" lon="5.90436">
        <ele>653.6</ele>
        <time>2022-08-06T07:03:21Z</time>
      </trkpt>
      <trkpt lat="46.70116" lon="5.90449">
        <ele>653.4</ele>
        <time>2022-08-06T07:03:22Z</time>
      </trkpt>
      <trkpt lat="46.70103" lon="5.90524">
        <ele>652.6</ele>
        <time>2022-08-06T07:03:28Z</time>
      </trkpt>
      <trkpt lat="46.70101" lon="5.90536">
        <ele>652.6</ele>
        <time>2022-08-06T07:03:29Z</time>
      </trkpt>
      <trkpt lat="46.70088" lon="5.90608">
        <ele>653.2</ele>
        <time>2022-08-06T07:03:36Z</time>
      </trkpt>
      <trkpt lat="46.70087" lon="5.90617">
        <ele>653.6</ele>
        <time>2022-08-06T07:03:37Z</time>
      </trkpt>
      <trkpt lat="46.70082" lon="5.90645">
        <ele>654.4</ele>
        <time>2022-08-06T07:03:40Z</time>
      </trkpt>
      <trkpt lat="46.70077" lon="5.9066">
        <ele>654.6</ele>
        <time>2022-08-06T07:03:42Z</time>
      </trkpt>
      <trkpt lat="46.70075" lon="5.90665">
        <ele>655</ele>
        <time>2022-08-06T07:03:43Z</time>
      </trkpt>
      <trkpt lat="46.70073" lon="5.90673">
        <ele>655.4</ele>
        <time>2022-08-06T07:03:45Z</time>
      </trkpt>
      <trkpt lat="46.70064" lon="5.90691">
        <ele>655.6</ele>
        <time>2022-08-06T07:03:49Z</time>
      </trkpt>
      <trkpt lat="46.70051" lon="5.90705">
        <ele>656</ele>
        <time>2022-08-06T07:03:53Z</time>
      </trkpt>
      <trkpt lat="46.70047" lon="5.90707">
        <ele>656</ele>
        <time>2022-08-06T07:03:54Z</time>
      </trkpt>
      <trkpt lat="46.70043" lon="5.90709">
        <ele>656.2</ele>
        <time>2022-08-06T07:03:55Z</time>
      </trkpt>
      <trkpt lat="46.70034" lon="5.90709">
        <ele>656.6</ele>
        <time>2022-08-06T07:03:57Z</time>
      </trkpt>
      <trkpt lat="46.7003" lon="5.90709">
        <ele>656.8</ele>
        <time>2022-08-06T07:03:58Z</time>
      </trkpt>
      <trkpt lat="46.70015" lon="5.90709">
        <ele>657</ele>
        <time>2022-08-06T07:04:01Z</time>
      </trkpt>
      <trkpt lat="46.70001" lon="5.90708">
        <ele>657.8</ele>
        <time>2022-08-06T07:04:04Z</time>
      </trkpt>
      <trkpt lat="46.69996" lon="5.90708">
        <ele>658</ele>
        <time>2022-08-06T07:04:05Z</time>
      </trkpt>
      <trkpt lat="46.69991" lon="5.90709">
        <ele>658.2</ele>
        <time>2022-08-06T07:04:06Z</time>
      </trkpt>
      <trkpt lat="46.69956" lon="5.90714">
        <ele>659.4</ele>
        <time>2022-08-06T07:04:13Z</time>
      </trkpt>
      <trkpt lat="46.69933" lon="5.90719">
        <ele>660.4</ele>
        <time>2022-08-06T07:04:18Z</time>
      </trkpt>
      <trkpt lat="46.6992" lon="5.90722">
        <ele>661</ele>
        <time>2022-08-06T07:04:21Z</time>
      </trkpt>
      <trkpt lat="46.69905" lon="5.90727">
        <ele>661.4</ele>
        <time>2022-08-06T07:04:24Z</time>
      </trkpt>
      <trkpt lat="46.69885" lon="5.9073">
        <ele>662.4</ele>
        <time>2022-08-06T07:04:28Z</time>
      </trkpt>
      <trkpt lat="46.6988" lon="5.9073">
        <ele>662.6</ele>
        <time>2022-08-06T07:04:29Z</time>
      </trkpt>
      <trkpt lat="46.69853" lon="5.9073">
        <ele>663.2</ele>
        <time>2022-08-06T07:04:34Z</time>
      </trkpt>
      <trkpt lat="46.69835" lon="5.90728">
        <ele>663.2</ele>
        <time>2022-08-06T07:04:37Z</time>
      </trkpt>
      <trkpt lat="46.69817" lon="5.90724">
        <ele>663.2</ele>
        <time>2022-08-06T07:04:40Z</time>
      </trkpt>
      <trkpt lat="46.69771" lon="5.90714">
        <ele>663.2</ele>
        <time>2022-08-06T07:04:48Z</time>
      </trkpt>
      <trkpt lat="46.69743" lon="5.90708">
        <ele>663.6</ele>
        <time>2022-08-06T07:04:53Z</time>
      </trkpt>
      <trkpt lat="46.69728" lon="5.9071">
        <ele>664</ele>
        <time>2022-08-06T07:04:56Z</time>
      </trkpt>
      <trkpt lat="46.69708" lon="5.90715">
        <ele>664.8</ele>
        <time>2022-08-06T07:05:00Z</time>
      </trkpt>
      <trkpt lat="46.69689" lon="5.90719">
        <ele>665.4</ele>
        <time>2022-08-06T07:05:04Z</time>
      </trkpt>
      <trkpt lat="46.69669" lon="5.90722">
        <ele>666.2</ele>
        <time>2022-08-06T07:05:08Z</time>
      </trkpt>
      <trkpt lat="46.69642" lon="5.90727">
        <ele>666.8</ele>
        <time>2022-08-06T07:05:13Z</time>
      </trkpt>
      <trkpt lat="46.69632" lon="5.90728">
        <ele>667.2</ele>
        <time>2022-08-06T07:05:15Z</time>
      </trkpt>
      <trkpt lat="46.69617" lon="5.90731">
        <ele>667.8</ele>
        <time>2022-08-06T07:05:18Z</time>
      </trkpt>
      <trkpt lat="46.69603" lon="5.90733">
        <ele>668.4</ele>
        <time>2022-08-06T07:05:21Z</time>
      </trkpt>
      <trkpt lat="46.69589" lon="5.90737">
        <ele>669.4</ele>
        <time>2022-08-06T07:05:24Z</time>
      </trkpt>
      <trkpt lat="46.69584" lon="5.90737">
        <ele>669.6</ele>
        <time>2022-08-06T07:05:25Z</time>
      </trkpt>
      <trkpt lat="46.69574" lon="5.90738">
        <ele>669.8</ele>
        <time>2022-08-06T07:05:27Z</time>
      </trkpt>
      <trkpt lat="46.69557" lon="5.90744">
        <ele>670.2</ele>
        <time>2022-08-06T07:05:31Z</time>
      </trkpt>
      <trkpt lat="46.69547" lon="5.90747">
        <ele>670.6</ele>
        <time>2022-08-06T07:05:33Z</time>
      </trkpt>
      <trkpt lat="46.69529" lon="5.90753">
        <ele>671</ele>
        <time>2022-08-06T07:05:37Z</time>
      </trkpt>
      <trkpt lat="46.6952" lon="5.90757">
        <ele>671.4</ele>
        <time>2022-08-06T07:05:39Z</time>
      </trkpt>
      <trkpt lat="46.69516" lon="5.90759">
        <ele>671.6</ele>
        <time>2022-08-06T07:05:40Z</time>
      </trkpt>
      <trkpt lat="46.69492" lon="5.90765">
        <ele>672.8</ele>
        <time>2022-08-06T07:05:45Z</time>
      </trkpt>
      <trkpt lat="46.69486" lon="5.90766">
        <ele>673</ele>
        <time>2022-08-06T07:05:46Z</time>
      </trkpt>
      <trkpt lat="46.69459" lon="5.90773">
        <ele>673.8</ele>
        <time>2022-08-06T07:05:52Z</time>
      </trkpt>
      <trkpt lat="46.69449" lon="5.90775">
        <ele>674.2</ele>
        <time>2022-08-06T07:05:54Z</time>
      </trkpt>
      <trkpt lat="46.6944" lon="5.90778">
        <ele>674.4</ele>
        <time>2022-08-06T07:05:56Z</time>
      </trkpt>
      <trkpt lat="46.69431" lon="5.90783">
        <ele>675</ele>
        <time>2022-08-06T07:05:58Z</time>
      </trkpt>
      <trkpt lat="46.69427" lon="5.90787">
        <ele>675</ele>
        <time>2022-08-06T07:05:59Z</time>
      </trkpt>
      <trkpt lat="46.69422" lon="5.90791">
        <ele>675.2</ele>
        <time>2022-08-06T07:06:00Z</time>
      </trkpt>
      <trkpt lat="46.69404" lon="5.90811">
        <ele>675.6</ele>
        <time>2022-08-06T07:06:05Z</time>
      </trkpt>
      <trkpt lat="46.69396" lon="5.90818">
        <ele>675.8</ele>
        <time>2022-08-06T07:06:07Z</time>
      </trkpt>
      <trkpt lat="46.6939" lon="5.90823">
        <ele>676</ele>
        <time>2022-08-06T07:06:09Z</time>
      </trkpt>
      <trkpt lat="46.69377" lon="5.90833">
        <ele>676.6</ele>
        <time>2022-08-06T07:06:13Z</time>
      </trkpt>
      <trkpt lat="46.69367" lon="5.90838">
        <ele>677.4</ele>
        <time>2022-08-06T07:06:16Z</time>
      </trkpt>
      <trkpt lat="46.6935" lon="5.90845">
        <ele>678.4</ele>
        <time>2022-08-06T07:06:21Z</time>
      </trkpt>
      <trkpt lat="46.69347" lon="5.90847">
        <ele>678.6</ele>
        <time>2022-08-06T07:06:22Z</time>
      </trkpt>
      <trkpt lat="46.6933" lon="5.90851">
        <ele>679.6</ele>
        <time>2022-08-06T07:06:27Z</time>
      </trkpt>
      <trkpt lat="46.69309" lon="5.90847">
        <ele>680.8</ele>
        <time>2022-08-06T07:06:32Z</time>
      </trkpt>
      <trkpt lat="46.693" lon="5.90844">
        <ele>681</ele>
        <time>2022-08-06T07:06:34Z</time>
      </trkpt>
      <trkpt lat="46.69296" lon="5.90842">
        <ele>681</ele>
        <time>2022-08-06T07:06:35Z</time>
      </trkpt>
      <trkpt lat="46.69281" lon="5.90833">
        <ele>682</ele>
        <time>2022-08-06T07:06:39Z</time>
      </trkpt>
      <trkpt lat="46.69274" lon="5.90828">
        <ele>682.4</ele>
        <time>2022-08-06T07:06:41Z</time>
      </trkpt>
      <trkpt lat="46.6926" lon="5.90823">
        <ele>682.8</ele>
        <time>2022-08-06T07:06:45Z</time>
      </trkpt>
      <trkpt lat="46.69257" lon="5.90822">
        <ele>683</ele>
        <time>2022-08-06T07:06:46Z</time>
      </trkpt>
      <trkpt lat="46.69253" lon="5.90822">
        <ele>683.2</ele>
        <time>2022-08-06T07:06:47Z</time>
      </trkpt>
      <trkpt lat="46.69241" lon="5.90826">
        <ele>684.4</ele>
        <time>2022-08-06T07:06:50Z</time>
      </trkpt>
      <trkpt lat="46.69233" lon="5.90831">
        <ele>685</ele>
        <time>2022-08-06T07:06:52Z</time>
      </trkpt>
      <trkpt lat="46.69229" lon="5.90833">
        <ele>685.4</ele>
        <time>2022-08-06T07:06:53Z</time>
      </trkpt>
      <trkpt lat="46.69212" lon="5.90844">
        <ele>686.2</ele>
        <time>2022-08-06T07:06:57Z</time>
      </trkpt>
      <trkpt lat="46.69204" lon="5.90852">
        <ele>686.6</ele>
        <time>2022-08-06T07:06:59Z</time>
      </trkpt>
      <trkpt lat="46.69197" lon="5.90863">
        <ele>687.2</ele>
        <time>2022-08-06T07:07:01Z</time>
      </trkpt>
      <trkpt lat="46.69194" lon="5.90869">
        <ele>687.6</ele>
        <time>2022-08-06T07:07:02Z</time>
      </trkpt>
      <trkpt lat="46.69191" lon="5.90874">
        <ele>687.6</ele>
        <time>2022-08-06T07:07:03Z</time>
      </trkpt>
      <trkpt lat="46.6918" lon="5.90906">
        <ele>688</ele>
        <time>2022-08-06T07:07:09Z</time>
      </trkpt>
      <trkpt lat="46.69178" lon="5.90911">
        <ele>688</ele>
        <time>2022-08-06T07:07:10Z</time>
      </trkpt>
      <trkpt lat="46.69172" lon="5.90924">
        <ele>688.8</ele>
        <time>2022-08-06T07:07:13Z</time>
      </trkpt>
      <trkpt lat="46.69166" lon="5.90937">
        <ele>689.4</ele>
        <time>2022-08-06T07:07:16Z</time>
      </trkpt>
      <trkpt lat="46.69162" lon="5.90945">
        <ele>689.6</ele>
        <time>2022-08-06T07:07:18Z</time>
      </trkpt>
      <trkpt lat="46.69155" lon="5.90958">
        <ele>690.8</ele>
        <time>2022-08-06T07:07:22Z</time>
      </trkpt>
      <trkpt lat="46.69145" lon="5.90967">
        <ele>691.6</ele>
        <time>2022-08-06T07:07:25Z</time>
      </trkpt>
      <trkpt lat="46.69139" lon="5.90973">
        <ele>692</ele>
        <time>2022-08-06T07:07:27Z</time>
      </trkpt>
      <trkpt lat="46.69123" lon="5.90986">
        <ele>693.4</ele>
        <time>2022-08-06T07:07:32Z</time>
      </trkpt>
      <trkpt lat="46.69114" lon="5.90994">
        <ele>693.8</ele>
        <time>2022-08-06T07:07:35Z</time>
      </trkpt>
      <trkpt lat="46.69102" lon="5.91005">
        <ele>694.8</ele>
        <time>2022-08-06T07:07:39Z</time>
      </trkpt>
      <trkpt lat="46.69088" lon="5.91019">
        <ele>695.8</ele>
        <time>2022-08-06T07:07:44Z</time>
      </trkpt>
      <trkpt lat="46.69085" lon="5.91021">
        <ele>696.2</ele>
        <time>2022-08-06T07:07:45Z</time>
      </trkpt>
      <trkpt lat="46.69073" lon="5.91033">
        <ele>697</ele>
        <time>2022-08-06T07:07:49Z</time>
      </trkpt>
      <trkpt lat="46.69052" lon="5.91055">
        <ele>697.8</ele>
        <time>2022-08-06T07:07:56Z</time>
      </trkpt>
      <trkpt lat="46.69049" lon="5.91058">
        <ele>698.2</ele>
        <time>2022-08-06T07:07:57Z</time>
      </trkpt>
      <trkpt lat="46.6903" lon="5.91075">
        <ele>699.4</ele>
        <time>2022-08-06T07:08:03Z</time>
      </trkpt>
      <trkpt lat="46.69024" lon="5.91079">
        <ele>700</ele>
        <time>2022-08-06T07:08:05Z</time>
      </trkpt>
      <trkpt lat="46.6901" lon="5.91079">
        <ele>700.4</ele>
        <time>2022-08-06T07:08:09Z</time>
      </trkpt>
      <trkpt lat="46.69006" lon="5.91078">
        <ele>700.6</ele>
        <time>2022-08-06T07:08:10Z</time>
      </trkpt>
      <trkpt lat="46.68992" lon="5.91083">
        <ele>701.2</ele>
        <time>2022-08-06T07:08:14Z</time>
      </trkpt>
      <trkpt lat="46.68986" lon="5.9109">
        <ele>701.8</ele>
        <time>2022-08-06T07:08:16Z</time>
      </trkpt>
      <trkpt lat="46.68979" lon="5.91103">
        <ele>702.2</ele>
        <time>2022-08-06T07:08:19Z</time>
      </trkpt>
      <trkpt lat="46.68968" lon="5.91128">
        <ele>703</ele>
        <time>2022-08-06T07:08:25Z</time>
      </trkpt>
      <trkpt lat="46.68964" lon="5.91135">
        <ele>703.4</ele>
        <time>2022-08-06T07:08:27Z</time>
      </trkpt>
      <trkpt lat="46.68957" lon="5.91145">
        <ele>704.2</ele>
        <time>2022-08-06T07:08:30Z</time>
      </trkpt>
      <trkpt lat="46.68944" lon="5.91159">
        <ele>705.4</ele>
        <time>2022-08-06T07:08:35Z</time>
      </trkpt>
      <trkpt lat="46.68941" lon="5.91161">
        <ele>706</ele>
        <time>2022-08-06T07:08:36Z</time>
      </trkpt>
      <trkpt lat="46.68936" lon="5.91166">
        <ele>706.4</ele>
        <time>2022-08-06T07:08:38Z</time>
      </trkpt>
      <trkpt lat="46.6892" lon="5.91181">
        <ele>707.6</ele>
        <time>2022-08-06T07:08:44Z</time>
      </trkpt>
      <trkpt lat="46.68905" lon="5.91195">
        <ele>708.8</ele>
        <time>2022-08-06T07:08:50Z</time>
      </trkpt>
      <trkpt lat="46.68896" lon="5.91205">
        <ele>709.2</ele>
        <time>2022-08-06T07:08:54Z</time>
      </trkpt>
      <trkpt lat="46.68888" lon="5.91212">
        <ele>710.2</ele>
        <time>2022-08-06T07:08:57Z</time>
      </trkpt>
      <trkpt lat="46.6888" lon="5.91223">
        <ele>711.2</ele>
        <time>2022-08-06T07:09:01Z</time>
      </trkpt>
      <trkpt lat="46.68875" lon="5.91229">
        <ele>711.6</ele>
        <time>2022-08-06T07:09:03Z</time>
      </trkpt>
      <trkpt lat="46.68866" lon="5.91241">
        <ele>712.6</ele>
        <time>2022-08-06T07:09:07Z</time>
      </trkpt>
      <trkpt lat="46.68855" lon="5.91258">
        <ele>713.6</ele>
        <time>2022-08-06T07:09:12Z</time>
      </trkpt>
      <trkpt lat="46.68852" lon="5.91261">
        <ele>713.8</ele>
        <time>2022-08-06T07:09:13Z</time>
      </trkpt>
      <trkpt lat="46.68846" lon="5.91271">
        <ele>714.6</ele>
        <time>2022-08-06T07:09:16Z</time>
      </trkpt>
      <trkpt lat="46.68832" lon="5.91291">
        <ele>715.6</ele>
        <time>2022-08-06T07:09:22Z</time>
      </trkpt>
      <trkpt lat="46.68829" lon="5.91295">
        <ele>715.8</ele>
        <time>2022-08-06T07:09:23Z</time>
      </trkpt>
      <trkpt lat="46.68812" lon="5.91315">
        <ele>716.8</ele>
        <time>2022-08-06T07:09:29Z</time>
      </trkpt>
      <trkpt lat="46.68801" lon="5.91327">
        <ele>717.2</ele>
        <time>2022-08-06T07:09:32Z</time>
      </trkpt>
      <trkpt lat="46.68774" lon="5.91357">
        <ele>717.8</ele>
        <time>2022-08-06T07:09:40Z</time>
      </trkpt>
      <trkpt lat="46.68767" lon="5.91364">
        <ele>718</ele>
        <time>2022-08-06T07:09:42Z</time>
      </trkpt>
      <trkpt lat="46.6874" lon="5.91394">
        <ele>719</ele>
        <time>2022-08-06T07:09:50Z</time>
      </trkpt>
      <trkpt lat="46.68738" lon="5.91397">
        <ele>719</ele>
        <time>2022-08-06T07:09:51Z</time>
      </trkpt>
      <trkpt lat="46.68726" lon="5.9141">
        <ele>720</ele>
        <time>2022-08-06T07:09:55Z</time>
      </trkpt>
      <trkpt lat="46.6872" lon="5.91417">
        <ele>720.6</ele>
        <time>2022-08-06T07:09:57Z</time>
      </trkpt>
      <trkpt lat="46.68711" lon="5.91428">
        <ele>721.4</ele>
        <time>2022-08-06T07:10:00Z</time>
      </trkpt>
      <trkpt lat="46.68697" lon="5.91442">
        <ele>722.4</ele>
        <time>2022-08-06T07:10:04Z</time>
      </trkpt>
      <trkpt lat="46.68694" lon="5.91444">
        <ele>722.4</ele>
        <time>2022-08-06T07:10:05Z</time>
      </trkpt>
      <trkpt lat="46.68675" lon="5.91456">
        <ele>723.6</ele>
        <time>2022-08-06T07:10:10Z</time>
      </trkpt>
      <trkpt lat="46.68663" lon="5.9146">
        <ele>724.2</ele>
        <time>2022-08-06T07:10:13Z</time>
      </trkpt>
      <trkpt lat="46.68648" lon="5.91465">
        <ele>724.6</ele>
        <time>2022-08-06T07:10:17Z</time>
      </trkpt>
      <trkpt lat="46.68618" lon="5.91474">
        <ele>725.6</ele>
        <time>2022-08-06T07:10:24Z</time>
      </trkpt>
      <trkpt lat="46.68588" lon="5.91486">
        <ele>726.4</ele>
        <time>2022-08-06T07:10:31Z</time>
      </trkpt>
      <trkpt lat="46.68573" lon="5.91493">
        <ele>726.6</ele>
        <time>2022-08-06T07:10:34Z</time>
      </trkpt>
      <trkpt lat="46.68562" lon="5.91497">
        <ele>726.6</ele>
        <time>2022-08-06T07:10:36Z</time>
      </trkpt>
      <trkpt lat="46.68521" lon="5.91506">
        <ele>726</ele>
        <time>2022-08-06T07:10:42Z</time>
      </trkpt>
      <trkpt lat="46.68491" lon="5.91505">
        <ele>725.6</ele>
        <time>2022-08-06T07:10:46Z</time>
      </trkpt>
      <trkpt lat="46.68484" lon="5.91504">
        <ele>725.6</ele>
        <time>2022-08-06T07:10:47Z</time>
      </trkpt>
      <trkpt lat="46.68436" lon="5.91491">
        <ele>724.8</ele>
        <time>2022-08-06T07:10:54Z</time>
      </trkpt>
      <trkpt lat="46.6839" lon="5.91477">
        <ele>724.6</ele>
        <time>2022-08-06T07:11:01Z</time>
      </trkpt>
      <trkpt lat="46.68354" lon="5.91456">
        <ele>724.6</ele>
        <time>2022-08-06T07:11:07Z</time>
      </trkpt>
      <trkpt lat="46.68333" lon="5.91442">
        <ele>724.8</ele>
        <time>2022-08-06T07:11:10Z</time>
      </trkpt>
      <trkpt lat="46.68319" lon="5.91437">
        <ele>725</ele>
        <time>2022-08-06T07:11:12Z</time>
      </trkpt>
      <trkpt lat="46.68279" lon="5.9144">
        <ele>725.2</ele>
        <time>2022-08-06T07:11:18Z</time>
      </trkpt>
      <trkpt lat="46.68234" lon="5.91446">
        <ele>726.2</ele>
        <time>2022-08-06T07:11:25Z</time>
      </trkpt>
      <trkpt lat="46.68177" lon="5.91455">
        <ele>726.6</ele>
        <time>2022-08-06T07:11:34Z</time>
      </trkpt>
      <trkpt lat="46.68146" lon="5.91459">
        <ele>727.8</ele>
        <time>2022-08-06T07:11:40Z</time>
      </trkpt>
      <trkpt lat="46.68131" lon="5.91461">
        <ele>728.8</ele>
        <time>2022-08-06T07:11:43Z</time>
      </trkpt>
      <trkpt lat="46.68126" lon="5.91461">
        <ele>729</ele>
        <time>2022-08-06T07:11:44Z</time>
      </trkpt>
      <trkpt lat="46.68111" lon="5.91465">
        <ele>729.6</ele>
        <time>2022-08-06T07:11:47Z</time>
      </trkpt>
      <trkpt lat="46.68106" lon="5.91466">
        <ele>730</ele>
        <time>2022-08-06T07:11:48Z</time>
      </trkpt>
      <trkpt lat="46.6808" lon="5.91471">
        <ele>731</ele>
        <time>2022-08-06T07:11:53Z</time>
      </trkpt>
      <trkpt lat="46.68071" lon="5.91471">
        <ele>731.6</ele>
        <time>2022-08-06T07:11:55Z</time>
      </trkpt>
      <trkpt lat="46.68062" lon="5.91473">
        <ele>732.2</ele>
        <time>2022-08-06T07:11:57Z</time>
      </trkpt>
      <trkpt lat="46.68042" lon="5.91476">
        <ele>733.4</ele>
        <time>2022-08-06T07:12:02Z</time>
      </trkpt>
      <trkpt lat="46.68021" lon="5.91479">
        <ele>734.6</ele>
        <time>2022-08-06T07:12:07Z</time>
      </trkpt>
      <trkpt lat="46.68006" lon="5.9148">
        <ele>735.6</ele>
        <time>2022-08-06T07:12:10Z</time>
      </trkpt>
      <trkpt lat="46.67968" lon="5.91477">
        <ele>736.4</ele>
        <time>2022-08-06T07:12:17Z</time>
      </trkpt>
      <trkpt lat="46.67946" lon="5.91472">
        <ele>736.6</ele>
        <time>2022-08-06T07:12:21Z</time>
      </trkpt>
      <trkpt lat="46.67926" lon="5.91467">
        <ele>736.8</ele>
        <time>2022-08-06T07:12:25Z</time>
      </trkpt>
      <trkpt lat="46.67891" lon="5.91466">
        <ele>737.2</ele>
        <time>2022-08-06T07:12:31Z</time>
      </trkpt>
      <trkpt lat="46.67847" lon="5.91471">
        <ele>737.4</ele>
        <time>2022-08-06T07:12:38Z</time>
      </trkpt>
      <trkpt lat="46.67841" lon="5.91472">
        <ele>737.4</ele>
        <time>2022-08-06T07:12:39Z</time>
      </trkpt>
      <trkpt lat="46.67832" lon="5.91477">
        <ele>737.6</ele>
        <time>2022-08-06T07:12:41Z</time>
      </trkpt>
      <trkpt lat="46.67827" lon="5.91481">
        <ele>737.6</ele>
        <time>2022-08-06T07:12:42Z</time>
      </trkpt>
      <trkpt lat="46.67819" lon="5.91487">
        <ele>738</ele>
        <time>2022-08-06T07:12:44Z</time>
      </trkpt>
      <trkpt lat="46.6781" lon="5.91498">
        <ele>739.2</ele>
        <time>2022-08-06T07:12:47Z</time>
      </trkpt>
      <trkpt lat="46.67798" lon="5.91512">
        <ele>740.4</ele>
        <time>2022-08-06T07:12:51Z</time>
      </trkpt>
      <trkpt lat="46.67792" lon="5.91519">
        <ele>741.2</ele>
        <time>2022-08-06T07:12:53Z</time>
      </trkpt>
      <trkpt lat="46.6779" lon="5.91521">
        <ele>741.4</ele>
        <time>2022-08-06T07:12:54Z</time>
      </trkpt>
      <trkpt lat="46.67773" lon="5.91531">
        <ele>742.6</ele>
        <time>2022-08-06T07:12:59Z</time>
      </trkpt>
      <trkpt lat="46.67769" lon="5.91533">
        <ele>742.8</ele>
        <time>2022-08-06T07:13:00Z</time>
      </trkpt>
      <trkpt lat="46.67759" lon="5.91536">
        <ele>744</ele>
        <time>2022-08-06T07:13:03Z</time>
      </trkpt>
      <trkpt lat="46.67748" lon="5.9154">
        <ele>745</ele>
        <time>2022-08-06T07:13:06Z</time>
      </trkpt>
      <trkpt lat="46.67737" lon="5.91544">
        <ele>745.6</ele>
        <time>2022-08-06T07:13:09Z</time>
      </trkpt>
      <trkpt lat="46.67731" lon="5.91548">
        <ele>746</ele>
        <time>2022-08-06T07:13:11Z</time>
      </trkpt>
      <trkpt lat="46.67716" lon="5.91555">
        <ele>747</ele>
        <time>2022-08-06T07:13:16Z</time>
      </trkpt>
      <trkpt lat="46.67713" lon="5.91556">
        <ele>747.4</ele>
        <time>2022-08-06T07:13:17Z</time>
      </trkpt>
      <trkpt lat="46.67704" lon="5.91557">
        <ele>748.4</ele>
        <time>2022-08-06T07:13:20Z</time>
      </trkpt>
      <trkpt lat="46.67698" lon="5.91554">
        <ele>748.8</ele>
        <time>2022-08-06T07:13:22Z</time>
      </trkpt>
      <trkpt lat="46.67692" lon="5.91551">
        <ele>749.4</ele>
        <time>2022-08-06T07:13:24Z</time>
      </trkpt>
      <trkpt lat="46.67679" lon="5.91545">
        <ele>750.6</ele>
        <time>2022-08-06T07:13:28Z</time>
      </trkpt>
      <trkpt lat="46.67673" lon="5.91543">
        <ele>750.8</ele>
        <time>2022-08-06T07:13:30Z</time>
      </trkpt>
      <trkpt lat="46.67658" lon="5.91543">
        <ele>751.6</ele>
        <time>2022-08-06T07:13:34Z</time>
      </trkpt>
      <trkpt lat="46.67645" lon="5.91543">
        <ele>751.8</ele>
        <time>2022-08-06T07:13:37Z</time>
      </trkpt>
      <trkpt lat="46.67613" lon="5.91545">
        <ele>752.4</ele>
        <time>2022-08-06T07:13:44Z</time>
      </trkpt>
      <trkpt lat="46.67591" lon="5.91545">
        <ele>752.6</ele>
        <time>2022-08-06T07:13:49Z</time>
      </trkpt>
      <trkpt lat="46.67583" lon="5.91544">
        <ele>753</ele>
        <time>2022-08-06T07:13:51Z</time>
      </trkpt>
      <trkpt lat="46.67557" lon="5.91534">
        <ele>753.8</ele>
        <time>2022-08-06T07:13:57Z</time>
      </trkpt>
      <trkpt lat="46.67533" lon="5.91525">
        <ele>755</ele>
        <time>2022-08-06T07:14:04Z</time>
      </trkpt>
      <trkpt lat="46.67526" lon="5.91524">
        <ele>755.2</ele>
        <time>2022-08-06T07:14:06Z</time>
      </trkpt>
      <trkpt lat="46.67516" lon="5.91524">
        <ele>756</ele>
        <time>2022-08-06T07:14:09Z</time>
      </trkpt>
      <trkpt lat="46.67502" lon="5.91526">
        <ele>757</ele>
        <time>2022-08-06T07:14:13Z</time>
      </trkpt>
      <trkpt lat="46.67488" lon="5.91531">
        <ele>758.2</ele>
        <time>2022-08-06T07:14:18Z</time>
      </trkpt>
      <trkpt lat="46.67482" lon="5.91533">
        <ele>758.6</ele>
        <time>2022-08-06T07:14:20Z</time>
      </trkpt>
      <trkpt lat="46.6747" lon="5.91538">
        <ele>759.8</ele>
        <time>2022-08-06T07:14:24Z</time>
      </trkpt>
      <trkpt lat="46.67461" lon="5.91543">
        <ele>760.4</ele>
        <time>2022-08-06T07:14:27Z</time>
      </trkpt>
      <trkpt lat="46.67455" lon="5.91547">
        <ele>760.8</ele>
        <time>2022-08-06T07:14:29Z</time>
      </trkpt>
      <trkpt lat="46.67447" lon="5.91556">
        <ele>761.4</ele>
        <time>2022-08-06T07:14:32Z</time>
      </trkpt>
      <trkpt lat="46.67443" lon="5.91566">
        <ele>762</ele>
        <time>2022-08-06T07:14:34Z</time>
      </trkpt>
      <trkpt lat="46.67442" lon="5.91575">
        <ele>762.4</ele>
        <time>2022-08-06T07:14:36Z</time>
      </trkpt>
      <trkpt lat="46.67446" lon="5.91598">
        <ele>763.2</ele>
        <time>2022-08-06T07:14:41Z</time>
      </trkpt>
      <trkpt lat="46.67447" lon="5.91601">
        <ele>763.6</ele>
        <time>2022-08-06T07:14:42Z</time>
      </trkpt>
      <trkpt lat="46.67449" lon="5.91608">
        <ele>764.2</ele>
        <time>2022-08-06T07:14:44Z</time>
      </trkpt>
      <trkpt lat="46.67454" lon="5.91623">
        <ele>765.2</ele>
        <time>2022-08-06T07:14:48Z</time>
      </trkpt>
      <trkpt lat="46.67463" lon="5.91641">
        <ele>766.2</ele>
        <time>2022-08-06T07:14:53Z</time>
      </trkpt>
      <trkpt lat="46.67465" lon="5.91644">
        <ele>766.4</ele>
        <time>2022-08-06T07:14:54Z</time>
      </trkpt>
      <trkpt lat="46.67479" lon="5.91658">
        <ele>767.4</ele>
        <time>2022-08-06T07:14:59Z</time>
      </trkpt>
      <trkpt lat="46.67482" lon="5.91661">
        <ele>767.6</ele>
        <time>2022-08-06T07:15:00Z</time>
      </trkpt>
      <trkpt lat="46.6749" lon="5.91666">
        <ele>768.6</ele>
        <time>2022-08-06T07:15:03Z</time>
      </trkpt>
      <trkpt lat="46.67506" lon="5.91672">
        <ele>769.8</ele>
        <time>2022-08-06T07:15:08Z</time>
      </trkpt>
      <trkpt lat="46.67522" lon="5.91672">
        <ele>771</ele>
        <time>2022-08-06T07:15:13Z</time>
      </trkpt>
      <trkpt lat="46.67531" lon="5.9167">
        <ele>771.2</ele>
        <time>2022-08-06T07:15:16Z</time>
      </trkpt>
      <trkpt lat="46.67543" lon="5.91667">
        <ele>772</ele>
        <time>2022-08-06T07:15:20Z</time>
      </trkpt>
      <trkpt lat="46.67553" lon="5.91669">
        <ele>772.6</ele>
        <time>2022-08-06T07:15:23Z</time>
      </trkpt>
      <trkpt lat="46.67559" lon="5.91679">
        <ele>773</ele>
        <time>2022-08-06T07:15:26Z</time>
      </trkpt>
      <trkpt lat="46.67559" lon="5.91684">
        <ele>773.2</ele>
        <time>2022-08-06T07:15:27Z</time>
      </trkpt>
      <trkpt lat="46.67559" lon="5.91697">
        <ele>774.2</ele>
        <time>2022-08-06T07:15:30Z</time>
      </trkpt>
      <trkpt lat="46.67556" lon="5.91706">
        <ele>774.6</ele>
        <time>2022-08-06T07:15:32Z</time>
      </trkpt>
      <trkpt lat="46.67542" lon="5.91716">
        <ele>775.2</ele>
        <time>2022-08-06T07:15:36Z</time>
      </trkpt>
      <trkpt lat="46.67538" lon="5.91717">
        <ele>775.2</ele>
        <time>2022-08-06T07:15:37Z</time>
      </trkpt>
      <trkpt lat="46.67524" lon="5.91717">
        <ele>775.8</ele>
        <time>2022-08-06T07:15:41Z</time>
      </trkpt>
      <trkpt lat="46.6751" lon="5.91715">
        <ele>776.4</ele>
        <time>2022-08-06T07:15:45Z</time>
      </trkpt>
      <trkpt lat="46.67499" lon="5.91714">
        <ele>776.8</ele>
        <time>2022-08-06T07:15:48Z</time>
      </trkpt>
      <trkpt lat="46.67472" lon="5.91707">
        <ele>777.2</ele>
        <time>2022-08-06T07:15:54Z</time>
      </trkpt>
      <trkpt lat="46.67437" lon="5.91689">
        <ele>777.2</ele>
        <time>2022-08-06T07:16:01Z</time>
      </trkpt>
      <trkpt lat="46.67405" lon="5.91658">
        <ele>776.8</ele>
        <time>2022-08-06T07:16:08Z</time>
      </trkpt>
      <trkpt lat="46.67392" lon="5.91642">
        <ele>776.8</ele>
        <time>2022-08-06T07:16:11Z</time>
      </trkpt>
      <trkpt lat="46.67382" lon="5.91625">
        <ele>777</ele>
        <time>2022-08-06T07:16:14Z</time>
      </trkpt>
      <trkpt lat="46.6738" lon="5.9162">
        <ele>777</ele>
        <time>2022-08-06T07:16:15Z</time>
      </trkpt>
      <trkpt lat="46.67374" lon="5.9161">
        <ele>777.6</ele>
        <time>2022-08-06T07:16:17Z</time>
      </trkpt>
      <trkpt lat="46.67368" lon="5.91601">
        <ele>778</ele>
        <time>2022-08-06T07:16:19Z</time>
      </trkpt>
      <trkpt lat="46.67353" lon="5.91584">
        <ele>778.2</ele>
        <time>2022-08-06T07:16:23Z</time>
      </trkpt>
      <trkpt lat="46.67349" lon="5.91581">
        <ele>778.2</ele>
        <time>2022-08-06T07:16:24Z</time>
      </trkpt>
      <trkpt lat="46.67338" lon="5.91578">
        <ele>778.2</ele>
        <time>2022-08-06T07:16:26Z</time>
      </trkpt>
      <trkpt lat="46.67325" lon="5.91578">
        <ele>777.6</ele>
        <time>2022-08-06T07:16:28Z</time>
      </trkpt>
      <trkpt lat="46.67283" lon="5.9158">
        <ele>776.4</ele>
        <time>2022-08-06T07:16:35Z</time>
      </trkpt>
      <trkpt lat="46.67244" lon="5.9158">
        <ele>776.2</ele>
        <time>2022-08-06T07:16:41Z</time>
      </trkpt>
      <trkpt lat="46.67208" lon="5.91582">
        <ele>776.8</ele>
        <time>2022-08-06T07:16:47Z</time>
      </trkpt>
      <trkpt lat="46.67201" lon="5.91584">
        <ele>776.8</ele>
        <time>2022-08-06T07:16:48Z</time>
      </trkpt>
      <trkpt lat="46.67195" lon="5.91585">
        <ele>777</ele>
        <time>2022-08-06T07:16:49Z</time>
      </trkpt>
      <trkpt lat="46.67168" lon="5.91585">
        <ele>777.2</ele>
        <time>2022-08-06T07:16:53Z</time>
      </trkpt>
      <trkpt lat="46.67161" lon="5.91585">
        <ele>777.4</ele>
        <time>2022-08-06T07:16:54Z</time>
      </trkpt>
      <trkpt lat="46.67136" lon="5.91586">
        <ele>778</ele>
        <time>2022-08-06T07:16:58Z</time>
      </trkpt>
      <trkpt lat="46.6713" lon="5.91587">
        <ele>778.2</ele>
        <time>2022-08-06T07:16:59Z</time>
      </trkpt>
      <trkpt lat="46.67123" lon="5.91589">
        <ele>778.2</ele>
        <time>2022-08-06T07:17:00Z</time>
      </trkpt>
      <trkpt lat="46.67103" lon="5.91596">
        <ele>778.4</ele>
        <time>2022-08-06T07:17:03Z</time>
      </trkpt>
      <trkpt lat="46.67098" lon="5.91597">
        <ele>778.6</ele>
        <time>2022-08-06T07:17:04Z</time>
      </trkpt>
      <trkpt lat="46.67081" lon="5.91604">
        <ele>778.8</ele>
        <time>2022-08-06T07:17:07Z</time>
      </trkpt>
      <trkpt lat="46.67065" lon="5.91616">
        <ele>779</ele>
        <time>2022-08-06T07:17:10Z</time>
      </trkpt>
      <trkpt lat="46.67028" lon="5.91646">
        <ele>779.4</ele>
        <time>2022-08-06T07:17:17Z</time>
      </trkpt>
      <trkpt lat="46.67017" lon="5.91654">
        <ele>779.4</ele>
        <time>2022-08-06T07:17:19Z</time>
      </trkpt>
      <trkpt lat="46.67012" lon="5.91658">
        <ele>779.6</ele>
        <time>2022-08-06T07:17:20Z</time>
      </trkpt>
      <trkpt lat="46.66964" lon="5.91703">
        <ele>780</ele>
        <time>2022-08-06T07:17:29Z</time>
      </trkpt>
      <trkpt lat="46.66928" lon="5.91733">
        <ele>780.6</ele>
        <time>2022-08-06T07:17:36Z</time>
      </trkpt>
      <trkpt lat="46.66908" lon="5.91755">
        <ele>781</ele>
        <time>2022-08-06T07:17:40Z</time>
      </trkpt>
      <trkpt lat="46.66903" lon="5.91761">
        <ele>781.2</ele>
        <time>2022-08-06T07:17:41Z</time>
      </trkpt>
      <trkpt lat="46.66887" lon="5.91792">
        <ele>781.2</ele>
        <time>2022-08-06T07:17:45Z</time>
      </trkpt>
      <trkpt lat="46.66856" lon="5.91858">
        <ele>780.4</ele>
        <time>2022-08-06T07:17:53Z</time>
      </trkpt>
      <trkpt lat="46.66851" lon="5.91874">
        <ele>780.4</ele>
        <time>2022-08-06T07:17:55Z</time>
      </trkpt>
      <trkpt lat="46.6685" lon="5.91884">
        <ele>780.2</ele>
        <time>2022-08-06T07:17:56Z</time>
      </trkpt>
      <trkpt lat="46.66851" lon="5.91894">
        <ele>780</ele>
        <time>2022-08-06T07:17:57Z</time>
      </trkpt>
      <trkpt lat="46.66858" lon="5.91912">
        <ele>780</ele>
        <time>2022-08-06T07:17:59Z</time>
      </trkpt>
      <trkpt lat="46.66869" lon="5.91925">
        <ele>779.8</ele>
        <time>2022-08-06T07:18:01Z</time>
      </trkpt>
      <trkpt lat="46.6688" lon="5.91936">
        <ele>779.6</ele>
        <time>2022-08-06T07:18:03Z</time>
      </trkpt>
      <trkpt lat="46.669" lon="5.91949">
        <ele>779.4</ele>
        <time>2022-08-06T07:18:06Z</time>
      </trkpt>
      <trkpt lat="46.6692" lon="5.91963">
        <ele>779</ele>
        <time>2022-08-06T07:18:09Z</time>
      </trkpt>
      <trkpt lat="46.66926" lon="5.91968">
        <ele>779</ele>
        <time>2022-08-06T07:18:10Z</time>
      </trkpt>
      <trkpt lat="46.66936" lon="5.91984">
        <ele>779</ele>
        <time>2022-08-06T07:18:12Z</time>
      </trkpt>
      <trkpt lat="46.6694" lon="5.92005">
        <ele>778.8</ele>
        <time>2022-08-06T07:18:14Z</time>
      </trkpt>
      <trkpt lat="46.6694" lon="5.92016">
        <ele>778.4</ele>
        <time>2022-08-06T07:18:15Z</time>
      </trkpt>
      <trkpt lat="46.66938" lon="5.92027">
        <ele>778.4</ele>
        <time>2022-08-06T07:18:16Z</time>
      </trkpt>
      <trkpt lat="46.6693" lon="5.92045">
        <ele>778.2</ele>
        <time>2022-08-06T07:18:18Z</time>
      </trkpt>
      <trkpt lat="46.6692" lon="5.92057">
        <ele>778.2</ele>
        <time>2022-08-06T07:18:20Z</time>
      </trkpt>
      <trkpt lat="46.66914" lon="5.92061">
        <ele>778.2</ele>
        <time>2022-08-06T07:18:21Z</time>
      </trkpt>
      <trkpt lat="46.66888" lon="5.9208">
        <ele>778</ele>
        <time>2022-08-06T07:18:25Z</time>
      </trkpt>
      <trkpt lat="46.66883" lon="5.92089">
        <ele>778</ele>
        <time>2022-08-06T07:18:26Z</time>
      </trkpt>
      <trkpt lat="46.66878" lon="5.92099">
        <ele>778</ele>
        <time>2022-08-06T07:18:27Z</time>
      </trkpt>
      <trkpt lat="46.6687" lon="5.92124">
        <ele>778</ele>
        <time>2022-08-06T07:18:29Z</time>
      </trkpt>
      <trkpt lat="46.66865" lon="5.92146">
        <ele>777.8</ele>
        <time>2022-08-06T07:18:31Z</time>
      </trkpt>
      <trkpt lat="46.66858" lon="5.92167">
        <ele>777.8</ele>
        <time>2022-08-06T07:18:33Z</time>
      </trkpt>
      <trkpt lat="46.66852" lon="5.92178">
        <ele>777.8</ele>
        <time>2022-08-06T07:18:34Z</time>
      </trkpt>
      <trkpt lat="46.66836" lon="5.92203">
        <ele>777.2</ele>
        <time>2022-08-06T07:18:37Z</time>
      </trkpt>
      <trkpt lat="46.66812" lon="5.9223">
        <ele>776.8</ele>
        <time>2022-08-06T07:18:41Z</time>
      </trkpt>
      <trkpt lat="46.66779" lon="5.9228">
        <ele>776.2</ele>
        <time>2022-08-06T07:18:47Z</time>
      </trkpt>
      <trkpt lat="46.66743" lon="5.92331">
        <ele>776.2</ele>
        <time>2022-08-06T07:18:53Z</time>
      </trkpt>
      <trkpt lat="46.66731" lon="5.92345">
        <ele>776</ele>
        <time>2022-08-06T07:18:55Z</time>
      </trkpt>
      <trkpt lat="46.66717" lon="5.92356">
        <ele>775.6</ele>
        <time>2022-08-06T07:18:57Z</time>
      </trkpt>
      <trkpt lat="46.66709" lon="5.92361">
        <ele>775.6</ele>
        <time>2022-08-06T07:18:58Z</time>
      </trkpt>
      <trkpt lat="46.66686" lon="5.92372">
        <ele>775.2</ele>
        <time>2022-08-06T07:19:01Z</time>
      </trkpt>
      <trkpt lat="46.6667" lon="5.92375">
        <ele>775</ele>
        <time>2022-08-06T07:19:03Z</time>
      </trkpt>
      <trkpt lat="46.66614" lon="5.92383">
        <ele>774.6</ele>
        <time>2022-08-06T07:19:10Z</time>
      </trkpt>
      <trkpt lat="46.66606" lon="5.92384">
        <ele>774.6</ele>
        <time>2022-08-06T07:19:11Z</time>
      </trkpt>
      <trkpt lat="46.66581" lon="5.92387">
        <ele>774.4</ele>
        <time>2022-08-06T07:19:14Z</time>
      </trkpt>
      <trkpt lat="46.66565" lon="5.92387">
        <ele>774.2</ele>
        <time>2022-08-06T07:19:16Z</time>
      </trkpt>
      <trkpt lat="46.66526" lon="5.92393">
        <ele>774.4</ele>
        <time>2022-08-06T07:19:21Z</time>
      </trkpt>
      <trkpt lat="46.66496" lon="5.92401">
        <ele>774.6</ele>
        <time>2022-08-06T07:19:25Z</time>
      </trkpt>
      <trkpt lat="46.66481" lon="5.92404">
        <ele>774.6</ele>
        <time>2022-08-06T07:19:27Z</time>
      </trkpt>
      <trkpt lat="46.6642" lon="5.92414">
        <ele>774.2</ele>
        <time>2022-08-06T07:19:35Z</time>
      </trkpt>
      <trkpt lat="46.66413" lon="5.92416">
        <ele>774.2</ele>
        <time>2022-08-06T07:19:36Z</time>
      </trkpt>
      <trkpt lat="46.66382" lon="5.92425">
        <ele>774.2</ele>
        <time>2022-08-06T07:19:40Z</time>
      </trkpt>
      <trkpt lat="46.66375" lon="5.92426">
        <ele>774.2</ele>
        <time>2022-08-06T07:19:41Z</time>
      </trkpt>
      <trkpt lat="46.66351" lon="5.92422">
        <ele>774.2</ele>
        <time>2022-08-06T07:19:44Z</time>
      </trkpt>
      <trkpt lat="46.66324" lon="5.92417">
        <ele>773.6</ele>
        <time>2022-08-06T07:19:47Z</time>
      </trkpt>
      <trkpt lat="46.663" lon="5.92415">
        <ele>773.4</ele>
        <time>2022-08-06T07:19:50Z</time>
      </trkpt>
      <trkpt lat="46.66281" lon="5.92416">
        <ele>773.2</ele>
        <time>2022-08-06T07:19:53Z</time>
      </trkpt>
      <trkpt lat="46.66272" lon="5.92418">
        <ele>773.2</ele>
        <time>2022-08-06T07:19:54Z</time>
      </trkpt>
      <trkpt lat="46.66247" lon="5.92431">
        <ele>773</ele>
        <time>2022-08-06T07:19:58Z</time>
      </trkpt>
      <trkpt lat="46.66241" lon="5.92438">
        <ele>773</ele>
        <time>2022-08-06T07:19:59Z</time>
      </trkpt>
      <trkpt lat="46.66231" lon="5.92454">
        <ele>772.8</ele>
        <time>2022-08-06T07:20:01Z</time>
      </trkpt>
      <trkpt lat="46.66223" lon="5.92473">
        <ele>773</ele>
        <time>2022-08-06T07:20:03Z</time>
      </trkpt>
      <trkpt lat="46.66206" lon="5.92525">
        <ele>772.8</ele>
        <time>2022-08-06T07:20:08Z</time>
      </trkpt>
      <trkpt lat="46.66194" lon="5.92565">
        <ele>772.8</ele>
        <time>2022-08-06T07:20:12Z</time>
      </trkpt>
      <trkpt lat="46.66184" lon="5.92586">
        <ele>772.8</ele>
        <time>2022-08-06T07:20:14Z</time>
      </trkpt>
      <trkpt lat="46.6617" lon="5.926">
        <ele>772.8</ele>
        <time>2022-08-06T07:20:16Z</time>
      </trkpt>
      <trkpt lat="46.66162" lon="5.92604">
        <ele>772.8</ele>
        <time>2022-08-06T07:20:17Z</time>
      </trkpt>
      <trkpt lat="46.66141" lon="5.92614">
        <ele>772.8</ele>
        <time>2022-08-06T07:20:20Z</time>
      </trkpt>
      <trkpt lat="46.66127" lon="5.92619">
        <ele>772.8</ele>
        <time>2022-08-06T07:20:22Z</time>
      </trkpt>
      <trkpt lat="46.66115" lon="5.92629">
        <ele>772.8</ele>
        <time>2022-08-06T07:20:24Z</time>
      </trkpt>
      <trkpt lat="46.66104" lon="5.92641">
        <ele>773</ele>
        <time>2022-08-06T07:20:26Z</time>
      </trkpt>
      <trkpt lat="46.661" lon="5.9265">
        <ele>773.2</ele>
        <time>2022-08-06T07:20:27Z</time>
      </trkpt>
      <trkpt lat="46.66096" lon="5.9266">
        <ele>773.2</ele>
        <time>2022-08-06T07:20:28Z</time>
      </trkpt>
      <trkpt lat="46.66092" lon="5.92677">
        <ele>773.4</ele>
        <time>2022-08-06T07:20:30Z</time>
      </trkpt>
      <trkpt lat="46.66089" lon="5.92695">
        <ele>773.4</ele>
        <time>2022-08-06T07:20:32Z</time>
      </trkpt>
      <trkpt lat="46.66086" lon="5.92723">
        <ele>773.6</ele>
        <time>2022-08-06T07:20:35Z</time>
      </trkpt>
      <trkpt lat="46.66077" lon="5.92765">
        <ele>774.2</ele>
        <time>2022-08-06T07:20:40Z</time>
      </trkpt>
      <trkpt lat="46.66073" lon="5.92789">
        <ele>774.8</ele>
        <time>2022-08-06T07:20:43Z</time>
      </trkpt>
      <trkpt lat="46.66069" lon="5.92805">
        <ele>775.4</ele>
        <time>2022-08-06T07:20:45Z</time>
      </trkpt>
      <trkpt lat="46.66064" lon="5.92818">
        <ele>775.6</ele>
        <time>2022-08-06T07:20:47Z</time>
      </trkpt>
      <trkpt lat="46.6606" lon="5.92824">
        <ele>775.8</ele>
        <time>2022-08-06T07:20:48Z</time>
      </trkpt>
      <trkpt lat="46.66048" lon="5.92839">
        <ele>776.2</ele>
        <time>2022-08-06T07:20:51Z</time>
      </trkpt>
      <trkpt lat="46.66044" lon="5.92843">
        <ele>776.6</ele>
        <time>2022-08-06T07:20:52Z</time>
      </trkpt>
      <trkpt lat="46.66035" lon="5.92853">
        <ele>777</ele>
        <time>2022-08-06T07:20:54Z</time>
      </trkpt>
      <trkpt lat="46.66016" lon="5.92876">
        <ele>777.6</ele>
        <time>2022-08-06T07:20:59Z</time>
      </trkpt>
      <trkpt lat="46.66008" lon="5.92886">
        <ele>777.6</ele>
        <time>2022-08-06T07:21:01Z</time>
      </trkpt>
      <trkpt lat="46.66002" lon="5.92895">
        <ele>777.8</ele>
        <time>2022-08-06T07:21:03Z</time>
      </trkpt>
      <trkpt lat="46.65994" lon="5.92906">
        <ele>778</ele>
        <time>2022-08-06T07:21:05Z</time>
      </trkpt>
      <trkpt lat="46.65983" lon="5.92922">
        <ele>778.8</ele>
        <time>2022-08-06T07:21:08Z</time>
      </trkpt>
      <trkpt lat="46.6597" lon="5.92946">
        <ele>779.4</ele>
        <time>2022-08-06T07:21:12Z</time>
      </trkpt>
      <trkpt lat="46.65962" lon="5.92957">
        <ele>779.6</ele>
        <time>2022-08-06T07:21:14Z</time>
      </trkpt>
      <trkpt lat="46.65952" lon="5.92966">
        <ele>779.8</ele>
        <time>2022-08-06T07:21:16Z</time>
      </trkpt>
      <trkpt lat="46.65947" lon="5.92968">
        <ele>779.8</ele>
        <time>2022-08-06T07:21:17Z</time>
      </trkpt>
      <trkpt lat="46.65943" lon="5.92968">
        <ele>779.8</ele>
        <time>2022-08-06T07:21:18Z</time>
      </trkpt>
      <trkpt lat="46.65927" lon="5.92965">
        <ele>780.2</ele>
        <time>2022-08-06T07:21:21Z</time>
      </trkpt>
      <trkpt lat="46.65917" lon="5.92961">
        <ele>780.6</ele>
        <time>2022-08-06T07:21:23Z</time>
      </trkpt>
      <trkpt lat="46.65905" lon="5.92958">
        <ele>780.8</ele>
        <time>2022-08-06T07:21:25Z</time>
      </trkpt>
      <trkpt lat="46.65874" lon="5.92949">
        <ele>781.2</ele>
        <time>2022-08-06T07:21:30Z</time>
      </trkpt>
      <trkpt lat="46.6584" lon="5.9294">
        <ele>780.8</ele>
        <time>2022-08-06T07:21:35Z</time>
      </trkpt>
      <trkpt lat="46.65832" lon="5.92938">
        <ele>780.8</ele>
        <time>2022-08-06T07:21:36Z</time>
      </trkpt>
      <trkpt lat="46.65795" lon="5.92929">
        <ele>780.2</ele>
        <time>2022-08-06T07:21:41Z</time>
      </trkpt>
      <trkpt lat="46.65774" lon="5.9293">
        <ele>779.8</ele>
        <time>2022-08-06T07:21:44Z</time>
      </trkpt>
      <trkpt lat="46.6576" lon="5.9293">
        <ele>779.6</ele>
        <time>2022-08-06T07:21:46Z</time>
      </trkpt>
      <trkpt lat="46.65724" lon="5.92928">
        <ele>778.8</ele>
        <time>2022-08-06T07:21:50Z</time>
      </trkpt>
      <trkpt lat="46.65715" lon="5.92927">
        <ele>778.2</ele>
        <time>2022-08-06T07:21:51Z</time>
      </trkpt>
      <trkpt lat="46.65696" lon="5.92929">
        <ele>777</ele>
        <time>2022-08-06T07:21:53Z</time>
      </trkpt>
      <trkpt lat="46.65687" lon="5.92932">
        <ele>775.8</ele>
        <time>2022-08-06T07:21:54Z</time>
      </trkpt>
      <trkpt lat="46.65678" lon="5.92938">
        <ele>775.4</ele>
        <time>2022-08-06T07:21:55Z</time>
      </trkpt>
      <trkpt lat="46.65659" lon="5.92952">
        <ele>774.6</ele>
        <time>2022-08-06T07:21:57Z</time>
      </trkpt>
      <trkpt lat="46.6565" lon="5.9296">
        <ele>774</ele>
        <time>2022-08-06T07:21:58Z</time>
      </trkpt>
      <trkpt lat="46.65643" lon="5.92968">
        <ele>773.8</ele>
        <time>2022-08-06T07:21:59Z</time>
      </trkpt>
      <trkpt lat="46.65636" lon="5.9298">
        <ele>772.8</ele>
        <time>2022-08-06T07:22:00Z</time>
      </trkpt>
      <trkpt lat="46.65632" lon="5.92991">
        <ele>771.6</ele>
        <time>2022-08-06T07:22:01Z</time>
      </trkpt>
      <trkpt lat="46.6563" lon="5.93001">
        <ele>770.6</ele>
        <time>2022-08-06T07:22:02Z</time>
      </trkpt>
      <trkpt lat="46.65628" lon="5.93015">
        <ele>768.4</ele>
        <time>2022-08-06T07:22:03Z</time>
      </trkpt>
      <trkpt lat="46.65628" lon="5.93026">
        <ele>767.4</ele>
        <time>2022-08-06T07:22:04Z</time>
      </trkpt>
      <trkpt lat="46.6563" lon="5.93038">
        <ele>766.2</ele>
        <time>2022-08-06T07:22:05Z</time>
      </trkpt>
      <trkpt lat="46.65634" lon="5.9305">
        <ele>766</ele>
        <time>2022-08-06T07:22:06Z</time>
      </trkpt>
      <trkpt lat="46.65644" lon="5.93059">
        <ele>764.8</ele>
        <time>2022-08-06T07:22:07Z</time>
      </trkpt>
      <trkpt lat="46.65654" lon="5.93068">
        <ele>764.2</ele>
        <time>2022-08-06T07:22:08Z</time>
      </trkpt>
      <trkpt lat="46.65665" lon="5.93077">
        <ele>763.8</ele>
        <time>2022-08-06T07:22:09Z</time>
      </trkpt>
      <trkpt lat="46.65676" lon="5.93083">
        <ele>763.4</ele>
        <time>2022-08-06T07:22:10Z</time>
      </trkpt>
      <trkpt lat="46.65687" lon="5.93089">
        <ele>763.2</ele>
        <time>2022-08-06T07:22:11Z</time>
      </trkpt>
      <trkpt lat="46.65697" lon="5.93096">
        <ele>762</ele>
        <time>2022-08-06T07:22:12Z</time>
      </trkpt>
      <trkpt lat="46.65717" lon="5.9311">
        <ele>760.6</ele>
        <time>2022-08-06T07:22:14Z</time>
      </trkpt>
      <trkpt lat="46.65727" lon="5.93119">
        <ele>760.2</ele>
        <time>2022-08-06T07:22:15Z</time>
      </trkpt>
      <trkpt lat="46.65744" lon="5.93139">
        <ele>759</ele>
        <time>2022-08-06T07:22:17Z</time>
      </trkpt>
      <trkpt lat="46.6576" lon="5.9316">
        <ele>758.4</ele>
        <time>2022-08-06T07:22:19Z</time>
      </trkpt>
      <trkpt lat="46.65778" lon="5.93179">
        <ele>757.8</ele>
        <time>2022-08-06T07:22:21Z</time>
      </trkpt>
      <trkpt lat="46.65793" lon="5.93194">
        <ele>757.6</ele>
        <time>2022-08-06T07:22:23Z</time>
      </trkpt>
      <trkpt lat="46.65819" lon="5.9322">
        <ele>756.6</ele>
        <time>2022-08-06T07:22:26Z</time>
      </trkpt>
      <trkpt lat="46.65834" lon="5.93237">
        <ele>755.6</ele>
        <time>2022-08-06T07:22:28Z</time>
      </trkpt>
      <trkpt lat="46.65841" lon="5.93248">
        <ele>755.4</ele>
        <time>2022-08-06T07:22:29Z</time>
      </trkpt>
      <trkpt lat="46.65853" lon="5.93269">
        <ele>754.2</ele>
        <time>2022-08-06T07:22:31Z</time>
      </trkpt>
      <trkpt lat="46.65859" lon="5.93281">
        <ele>754</ele>
        <time>2022-08-06T07:22:32Z</time>
      </trkpt>
      <trkpt lat="46.65863" lon="5.9329">
        <ele>753.8</ele>
        <time>2022-08-06T07:22:33Z</time>
      </trkpt>
      <trkpt lat="46.65866" lon="5.933">
        <ele>753.6</ele>
        <time>2022-08-06T07:22:34Z</time>
      </trkpt>
      <trkpt lat="46.65872" lon="5.93324">
        <ele>753.2</ele>
        <time>2022-08-06T07:22:36Z</time>
      </trkpt>
      <trkpt lat="46.65877" lon="5.93336">
        <ele>752.8</ele>
        <time>2022-08-06T07:22:37Z</time>
      </trkpt>
      <trkpt lat="46.65889" lon="5.93356">
        <ele>752.4</ele>
        <time>2022-08-06T07:22:39Z</time>
      </trkpt>
      <trkpt lat="46.65903" lon="5.93374">
        <ele>752</ele>
        <time>2022-08-06T07:22:41Z</time>
      </trkpt>
      <trkpt lat="46.65938" lon="5.93423">
        <ele>751</ele>
        <time>2022-08-06T07:22:46Z</time>
      </trkpt>
      <trkpt lat="46.65945" lon="5.93431">
        <ele>750.8</ele>
        <time>2022-08-06T07:22:47Z</time>
      </trkpt>
      <trkpt lat="46.65962" lon="5.93447">
        <ele>750</ele>
        <time>2022-08-06T07:22:49Z</time>
      </trkpt>
      <trkpt lat="46.6597" lon="5.93455">
        <ele>749.8</ele>
        <time>2022-08-06T07:22:50Z</time>
      </trkpt>
      <trkpt lat="46.65985" lon="5.93476">
        <ele>749.2</ele>
        <time>2022-08-06T07:22:52Z</time>
      </trkpt>
      <trkpt lat="46.65991" lon="5.93487">
        <ele>748.6</ele>
        <time>2022-08-06T07:22:53Z</time>
      </trkpt>
      <trkpt lat="46.65996" lon="5.935">
        <ele>748</ele>
        <time>2022-08-06T07:22:54Z</time>
      </trkpt>
      <trkpt lat="46.65999" lon="5.93513">
        <ele>747.8</ele>
        <time>2022-08-06T07:22:55Z</time>
      </trkpt>
      <trkpt lat="46.66" lon="5.93526">
        <ele>747.2</ele>
        <time>2022-08-06T07:22:56Z</time>
      </trkpt>
      <trkpt lat="46.65997" lon="5.93537">
        <ele>746.6</ele>
        <time>2022-08-06T07:22:57Z</time>
      </trkpt>
      <trkpt lat="46.65993" lon="5.93548">
        <ele>745.8</ele>
        <time>2022-08-06T07:22:58Z</time>
      </trkpt>
      <trkpt lat="46.6598" lon="5.93563">
        <ele>744.2</ele>
        <time>2022-08-06T07:23:00Z</time>
      </trkpt>
      <trkpt lat="46.65973" lon="5.93569">
        <ele>743.8</ele>
        <time>2022-08-06T07:23:01Z</time>
      </trkpt>
      <trkpt lat="46.65958" lon="5.93575">
        <ele>743.4</ele>
        <time>2022-08-06T07:23:03Z</time>
      </trkpt>
      <trkpt lat="46.65923" lon="5.93584">
        <ele>743.8</ele>
        <time>2022-08-06T07:23:08Z</time>
      </trkpt>
      <trkpt lat="46.65889" lon="5.93581">
        <ele>744.6</ele>
        <time>2022-08-06T07:23:12Z</time>
      </trkpt>
      <trkpt lat="46.65882" lon="5.9358">
        <ele>744.8</ele>
        <time>2022-08-06T07:23:13Z</time>
      </trkpt>
      <trkpt lat="46.65877" lon="5.9358">
        <ele>745</ele>
        <time>2022-08-06T07:23:14Z</time>
      </trkpt>
      <trkpt lat="46.6587" lon="5.93577">
        <ele>745.2</ele>
        <time>2022-08-06T07:23:15Z</time>
      </trkpt>
      <trkpt lat="46.65862" lon="5.93571">
        <ele>745.2</ele>
        <time>2022-08-06T07:23:16Z</time>
      </trkpt>
      <trkpt lat="46.65837" lon="5.93555">
        <ele>746</ele>
        <time>2022-08-06T07:23:20Z</time>
      </trkpt>
      <trkpt lat="46.65832" lon="5.93553">
        <ele>746.4</ele>
        <time>2022-08-06T07:23:21Z</time>
      </trkpt>
      <trkpt lat="46.65815" lon="5.93551">
        <ele>747</ele>
        <time>2022-08-06T07:23:24Z</time>
      </trkpt>
      <trkpt lat="46.65805" lon="5.93549">
        <ele>747.6</ele>
        <time>2022-08-06T07:23:26Z</time>
      </trkpt>
      <trkpt lat="46.6579" lon="5.93545">
        <ele>748.6</ele>
        <time>2022-08-06T07:23:29Z</time>
      </trkpt>
      <trkpt lat="46.65781" lon="5.93542">
        <ele>749.4</ele>
        <time>2022-08-06T07:23:31Z</time>
      </trkpt>
      <trkpt lat="46.65777" lon="5.93541">
        <ele>749.4</ele>
        <time>2022-08-06T07:23:32Z</time>
      </trkpt>
      <trkpt lat="46.65772" lon="5.93539">
        <ele>749.8</ele>
        <time>2022-08-06T07:23:33Z</time>
      </trkpt>
      <trkpt lat="46.65759" lon="5.93533">
        <ele>750.4</ele>
        <time>2022-08-06T07:23:36Z</time>
      </trkpt>
      <trkpt lat="46.6575" lon="5.9353">
        <ele>750.6</ele>
        <time>2022-08-06T07:23:38Z</time>
      </trkpt>
      <trkpt lat="46.65735" lon="5.93525">
        <ele>751.8</ele>
        <time>2022-08-06T07:23:42Z</time>
      </trkpt>
      <trkpt lat="46.65723" lon="5.93526">
        <ele>752.8</ele>
        <time>2022-08-06T07:23:45Z</time>
      </trkpt>
      <trkpt lat="46.65719" lon="5.93528">
        <ele>753.2</ele>
        <time>2022-08-06T07:23:46Z</time>
      </trkpt>
      <trkpt lat="46.65703" lon="5.9354">
        <ele>753.8</ele>
        <time>2022-08-06T07:23:50Z</time>
      </trkpt>
      <trkpt lat="46.65692" lon="5.93554">
        <ele>754.2</ele>
        <time>2022-08-06T07:23:53Z</time>
      </trkpt>
      <trkpt lat="46.65687" lon="5.93564">
        <ele>754.4</ele>
        <time>2022-08-06T07:23:55Z</time>
      </trkpt>
      <trkpt lat="46.65685" lon="5.93569">
        <ele>754.6</ele>
        <time>2022-08-06T07:23:56Z</time>
      </trkpt>
      <trkpt lat="46.65674" lon="5.93599">
        <ele>755.4</ele>
        <time>2022-08-06T07:24:01Z</time>
      </trkpt>
      <trkpt lat="46.65672" lon="5.93606">
        <ele>755.6</ele>
        <time>2022-08-06T07:24:02Z</time>
      </trkpt>
      <trkpt lat="46.65665" lon="5.93651">
        <ele>756</ele>
        <time>2022-08-06T07:24:07Z</time>
      </trkpt>
      <trkpt lat="46.65663" lon="5.9368">
        <ele>755.6</ele>
        <time>2022-08-06T07:24:10Z</time>
      </trkpt>
      <trkpt lat="46.65665" lon="5.937">
        <ele>755.4</ele>
        <time>2022-08-06T07:24:12Z</time>
      </trkpt>
      <trkpt lat="46.65666" lon="5.93769">
        <ele>754.6</ele>
        <time>2022-08-06T07:24:19Z</time>
      </trkpt>
      <trkpt lat="46.65658" lon="5.93818">
        <ele>753.8</ele>
        <time>2022-08-06T07:24:23Z</time>
      </trkpt>
      <trkpt lat="46.6565" lon="5.93845">
        <ele>752.8</ele>
        <time>2022-08-06T07:24:25Z</time>
      </trkpt>
      <trkpt lat="46.65645" lon="5.93859">
        <ele>751.6</ele>
        <time>2022-08-06T07:24:26Z</time>
      </trkpt>
      <trkpt lat="46.6564" lon="5.93872">
        <ele>751.2</ele>
        <time>2022-08-06T07:24:27Z</time>
      </trkpt>
      <trkpt lat="46.65635" lon="5.93886">
        <ele>750.2</ele>
        <time>2022-08-06T07:24:28Z</time>
      </trkpt>
      <trkpt lat="46.65631" lon="5.93901">
        <ele>749.8</ele>
        <time>2022-08-06T07:24:29Z</time>
      </trkpt>
      <trkpt lat="46.6563" lon="5.93917">
        <ele>748.4</ele>
        <time>2022-08-06T07:24:30Z</time>
      </trkpt>
      <trkpt lat="46.6563" lon="5.93933">
        <ele>746.4</ele>
        <time>2022-08-06T07:24:31Z</time>
      </trkpt>
      <trkpt lat="46.65633" lon="5.93948">
        <ele>745.4</ele>
        <time>2022-08-06T07:24:32Z</time>
      </trkpt>
      <trkpt lat="46.65638" lon="5.93964">
        <ele>743.8</ele>
        <time>2022-08-06T07:24:33Z</time>
      </trkpt>
      <trkpt lat="46.65652" lon="5.93994">
        <ele>741.6</ele>
        <time>2022-08-06T07:24:35Z</time>
      </trkpt>
      <trkpt lat="46.65662" lon="5.94011">
        <ele>741.2</ele>
        <time>2022-08-06T07:24:36Z</time>
      </trkpt>
      <trkpt lat="46.65668" lon="5.94022">
        <ele>739.8</ele>
        <time>2022-08-06T07:24:37Z</time>
      </trkpt>
      <trkpt lat="46.65682" lon="5.94052">
        <ele>737.6</ele>
        <time>2022-08-06T07:24:39Z</time>
      </trkpt>
      <trkpt lat="46.65688" lon="5.94066">
        <ele>736.2</ele>
        <time>2022-08-06T07:24:40Z</time>
      </trkpt>
      <trkpt lat="46.65692" lon="5.9408">
        <ele>735.2</ele>
        <time>2022-08-06T07:24:41Z</time>
      </trkpt>
      <trkpt lat="46.65695" lon="5.94091">
        <ele>733.8</ele>
        <time>2022-08-06T07:24:42Z</time>
      </trkpt>
      <trkpt lat="46.65698" lon="5.9411">
        <ele>733.2</ele>
        <time>2022-08-06T07:24:43Z</time>
      </trkpt>
      <trkpt lat="46.65699" lon="5.94122">
        <ele>732.2</ele>
        <time>2022-08-06T07:24:44Z</time>
      </trkpt>
      <trkpt lat="46.65699" lon="5.94141">
        <ele>731.6</ele>
        <time>2022-08-06T07:24:45Z</time>
      </trkpt>
      <trkpt lat="46.65697" lon="5.94154">
        <ele>730.6</ele>
        <time>2022-08-06T07:24:46Z</time>
      </trkpt>
      <trkpt lat="46.65695" lon="5.94169">
        <ele>729.2</ele>
        <time>2022-08-06T07:24:47Z</time>
      </trkpt>
      <trkpt lat="46.65689" lon="5.94184">
        <ele>728.6</ele>
        <time>2022-08-06T07:24:48Z</time>
      </trkpt>
      <trkpt lat="46.65684" lon="5.94195">
        <ele>727.6</ele>
        <time>2022-08-06T07:24:49Z</time>
      </trkpt>
      <trkpt lat="46.65669" lon="5.9421">
        <ele>726</ele>
        <time>2022-08-06T07:24:51Z</time>
      </trkpt>
      <trkpt lat="46.65649" lon="5.94215">
        <ele>724.6</ele>
        <time>2022-08-06T07:24:53Z</time>
      </trkpt>
      <trkpt lat="46.65639" lon="5.94213">
        <ele>723.6</ele>
        <time>2022-08-06T07:24:54Z</time>
      </trkpt>
      <trkpt lat="46.65629" lon="5.94209">
        <ele>722.8</ele>
        <time>2022-08-06T07:24:55Z</time>
      </trkpt>
      <trkpt lat="46.65622" lon="5.94203">
        <ele>721.4</ele>
        <time>2022-08-06T07:24:56Z</time>
      </trkpt>
      <trkpt lat="46.65614" lon="5.94191">
        <ele>721</ele>
        <time>2022-08-06T07:24:57Z</time>
      </trkpt>
      <trkpt lat="46.65608" lon="5.94178">
        <ele>720</ele>
        <time>2022-08-06T07:24:58Z</time>
      </trkpt>
      <trkpt lat="46.65597" lon="5.94152">
        <ele>717.6</ele>
        <time>2022-08-06T07:25:00Z</time>
      </trkpt>
      <trkpt lat="46.6559" lon="5.94138">
        <ele>717.2</ele>
        <time>2022-08-06T07:25:01Z</time>
      </trkpt>
      <trkpt lat="46.65584" lon="5.94125">
        <ele>716.4</ele>
        <time>2022-08-06T07:25:02Z</time>
      </trkpt>
      <trkpt lat="46.65571" lon="5.94099">
        <ele>714.8</ele>
        <time>2022-08-06T07:25:04Z</time>
      </trkpt>
      <trkpt lat="46.65558" lon="5.94077">
        <ele>713.8</ele>
        <time>2022-08-06T07:25:06Z</time>
      </trkpt>
      <trkpt lat="46.65532" lon="5.94039">
        <ele>713</ele>
        <time>2022-08-06T07:25:10Z</time>
      </trkpt>
      <trkpt lat="46.65526" lon="5.9403">
        <ele>712.8</ele>
        <time>2022-08-06T07:25:11Z</time>
      </trkpt>
      <trkpt lat="46.65498" lon="5.93991">
        <ele>713</ele>
        <time>2022-08-06T07:25:16Z</time>
      </trkpt>
      <trkpt lat="46.65458" lon="5.93941">
        <ele>713.2</ele>
        <time>2022-08-06T07:25:23Z</time>
      </trkpt>
      <trkpt lat="46.65445" lon="5.9394">
        <ele>713</ele>
        <time>2022-08-06T07:25:25Z</time>
      </trkpt>
      <trkpt lat="46.65435" lon="5.93936">
        <ele>712.8</ele>
        <time>2022-08-06T07:25:27Z</time>
      </trkpt>
      <trkpt lat="46.65431" lon="5.93932">
        <ele>712.6</ele>
        <time>2022-08-06T07:25:28Z</time>
      </trkpt>
      <trkpt lat="46.65427" lon="5.93926">
        <ele>712.6</ele>
        <time>2022-08-06T07:25:29Z</time>
      </trkpt>
      <trkpt lat="46.65422" lon="5.93915">
        <ele>712.4</ele>
        <time>2022-08-06T07:25:31Z</time>
      </trkpt>
      <trkpt lat="46.6542" lon="5.93909">
        <ele>712.2</ele>
        <time>2022-08-06T07:25:32Z</time>
      </trkpt>
      <trkpt lat="46.65412" lon="5.93892">
        <ele>712</ele>
        <time>2022-08-06T07:25:35Z</time>
      </trkpt>
      <trkpt lat="46.65399" lon="5.93869">
        <ele>712.6</ele>
        <time>2022-08-06T07:25:39Z</time>
      </trkpt>
      <trkpt lat="46.65389" lon="5.93854">
        <ele>713</ele>
        <time>2022-08-06T07:25:42Z</time>
      </trkpt>
      <trkpt lat="46.65374" lon="5.93833">
        <ele>713.8</ele>
        <time>2022-08-06T07:25:46Z</time>
      </trkpt>
      <trkpt lat="46.65362" lon="5.93816">
        <ele>714.4</ele>
        <time>2022-08-06T07:25:49Z</time>
      </trkpt>
      <trkpt lat="46.65339" lon="5.9379">
        <ele>715</ele>
        <time>2022-08-06T07:25:54Z</time>
      </trkpt>
      <trkpt lat="46.6532" lon="5.9377">
        <ele>715.2</ele>
        <time>2022-08-06T07:25:58Z</time>
      </trkpt>
      <trkpt lat="46.65281" lon="5.93734">
        <ele>715.4</ele>
        <time>2022-08-06T07:26:06Z</time>
      </trkpt>
      <trkpt lat="46.65237" lon="5.93695">
        <ele>715.8</ele>
        <time>2022-08-06T07:26:14Z</time>
      </trkpt>
      <trkpt lat="46.65189" lon="5.93654">
        <ele>716</ele>
        <time>2022-08-06T07:26:23Z</time>
      </trkpt>
      <trkpt lat="46.65183" lon="5.93648">
        <ele>716</ele>
        <time>2022-08-06T07:26:24Z</time>
      </trkpt>
      <trkpt lat="46.65144" lon="5.93615">
        <ele>716.6</ele>
        <time>2022-08-06T07:26:31Z</time>
      </trkpt>
      <trkpt lat="46.65139" lon="5.9361">
        <ele>716.6</ele>
        <time>2022-08-06T07:26:32Z</time>
      </trkpt>
      <trkpt lat="46.65133" lon="5.93605">
        <ele>716.8</ele>
        <time>2022-08-06T07:26:33Z</time>
      </trkpt>
      <trkpt lat="46.65094" lon="5.93567">
        <ele>717.6</ele>
        <time>2022-08-06T07:26:40Z</time>
      </trkpt>
      <trkpt lat="46.65089" lon="5.93562">
        <ele>717.6</ele>
        <time>2022-08-06T07:26:41Z</time>
      </trkpt>
      <trkpt lat="46.65085" lon="5.93557">
        <ele>717.8</ele>
        <time>2022-08-06T07:26:42Z</time>
      </trkpt>
      <trkpt lat="46.65056" lon="5.93518">
        <ele>718.2</ele>
        <time>2022-08-06T07:26:48Z</time>
      </trkpt>
      <trkpt lat="46.65015" lon="5.93463">
        <ele>718.4</ele>
        <time>2022-08-06T07:26:56Z</time>
      </trkpt>
      <trkpt lat="46.6498" lon="5.93413">
        <ele>718.6</ele>
        <time>2022-08-06T07:27:03Z</time>
      </trkpt>
      <trkpt lat="46.64949" lon="5.93382">
        <ele>718.4</ele>
        <time>2022-08-06T07:27:08Z</time>
      </trkpt>
      <trkpt lat="46.64942" lon="5.93378">
        <ele>718.2</ele>
        <time>2022-08-06T07:27:09Z</time>
      </trkpt>
      <trkpt lat="46.64906" lon="5.93368">
        <ele>718</ele>
        <time>2022-08-06T07:27:14Z</time>
      </trkpt>
      <trkpt lat="46.64846" lon="5.93361">
        <ele>718.4</ele>
        <time>2022-08-06T07:27:22Z</time>
      </trkpt>
      <trkpt lat="46.64832" lon="5.93355">
        <ele>718.8</ele>
        <time>2022-08-06T07:27:24Z</time>
      </trkpt>
      <trkpt lat="46.64819" lon="5.93347">
        <ele>718.8</ele>
        <time>2022-08-06T07:27:26Z</time>
      </trkpt>
      <trkpt lat="46.64812" lon="5.93342">
        <ele>718.8</ele>
        <time>2022-08-06T07:27:27Z</time>
      </trkpt>
      <trkpt lat="46.64774" lon="5.93314">
        <ele>719.4</ele>
        <time>2022-08-06T07:27:33Z</time>
      </trkpt>
      <trkpt lat="46.64756" lon="5.93301">
        <ele>720</ele>
        <time>2022-08-06T07:27:36Z</time>
      </trkpt>
      <trkpt lat="46.6473" lon="5.93286">
        <ele>720.6</ele>
        <time>2022-08-06T07:27:40Z</time>
      </trkpt>
      <trkpt lat="46.64712" lon="5.93277">
        <ele>720.8</ele>
        <time>2022-08-06T07:27:43Z</time>
      </trkpt>
      <trkpt lat="46.64664" lon="5.93256">
        <ele>721</ele>
        <time>2022-08-06T07:27:51Z</time>
      </trkpt>
      <trkpt lat="46.64645" lon="5.93248">
        <ele>721.4</ele>
        <time>2022-08-06T07:27:54Z</time>
      </trkpt>
      <trkpt lat="46.64641" lon="5.93245">
        <ele>721.8</ele>
        <time>2022-08-06T07:27:55Z</time>
      </trkpt>
      <trkpt lat="46.64612" lon="5.93235">
        <ele>722.4</ele>
        <time>2022-08-06T07:28:00Z</time>
      </trkpt>
      <trkpt lat="46.646" lon="5.93233">
        <ele>722.4</ele>
        <time>2022-08-06T07:28:02Z</time>
      </trkpt>
      <trkpt lat="46.64564" lon="5.93232">
        <ele>723.2</ele>
        <time>2022-08-06T07:28:08Z</time>
      </trkpt>
      <trkpt lat="46.64558" lon="5.93233">
        <ele>723.8</ele>
        <time>2022-08-06T07:28:09Z</time>
      </trkpt>
      <trkpt lat="46.64516" lon="5.93238">
        <ele>724.8</ele>
        <time>2022-08-06T07:28:16Z</time>
      </trkpt>
      <trkpt lat="46.64504" lon="5.93237">
        <ele>725</ele>
        <time>2022-08-06T07:28:18Z</time>
      </trkpt>
      <trkpt lat="46.6448" lon="5.93229">
        <ele>725.2</ele>
        <time>2022-08-06T07:28:22Z</time>
      </trkpt>
      <trkpt lat="46.64464" lon="5.93219">
        <ele>725.8</ele>
        <time>2022-08-06T07:28:25Z</time>
      </trkpt>
      <trkpt lat="46.6446" lon="5.93217">
        <ele>726.2</ele>
        <time>2022-08-06T07:28:26Z</time>
      </trkpt>
      <trkpt lat="46.6443" lon="5.93197">
        <ele>727</ele>
        <time>2022-08-06T07:28:32Z</time>
      </trkpt>
      <trkpt lat="46.64399" lon="5.93174">
        <ele>728</ele>
        <time>2022-08-06T07:28:38Z</time>
      </trkpt>
      <trkpt lat="46.6438" lon="5.93158">
        <ele>729</ele>
        <time>2022-08-06T07:28:42Z</time>
      </trkpt>
      <trkpt lat="46.6437" lon="5.93149">
        <ele>729.2</ele>
        <time>2022-08-06T07:28:44Z</time>
      </trkpt>
      <trkpt lat="46.64345" lon="5.93126">
        <ele>730.4</ele>
        <time>2022-08-06T07:28:49Z</time>
      </trkpt>
      <trkpt lat="46.64329" lon="5.93113">
        <ele>730.6</ele>
        <time>2022-08-06T07:28:52Z</time>
      </trkpt>
      <trkpt lat="46.64304" lon="5.93093">
        <ele>731.4</ele>
        <time>2022-08-06T07:28:57Z</time>
      </trkpt>
      <trkpt lat="46.64293" lon="5.93085">
        <ele>731.8</ele>
        <time>2022-08-06T07:28:59Z</time>
      </trkpt>
      <trkpt lat="46.64274" lon="5.93068">
        <ele>732.8</ele>
        <time>2022-08-06T07:29:03Z</time>
      </trkpt>
      <trkpt lat="46.64265" lon="5.9306">
        <ele>733.2</ele>
        <time>2022-08-06T07:29:05Z</time>
      </trkpt>
      <trkpt lat="46.64251" lon="5.93047">
        <ele>733.6</ele>
        <time>2022-08-06T07:29:08Z</time>
      </trkpt>
      <trkpt lat="46.64241" lon="5.93038">
        <ele>734.2</ele>
        <time>2022-08-06T07:29:10Z</time>
      </trkpt>
      <trkpt lat="46.64222" lon="5.93023">
        <ele>735.2</ele>
        <time>2022-08-06T07:29:14Z</time>
      </trkpt>
      <trkpt lat="46.64205" lon="5.93008">
        <ele>736</ele>
        <time>2022-08-06T07:29:18Z</time>
      </trkpt>
      <trkpt lat="46.642" lon="5.93004">
        <ele>736.2</ele>
        <time>2022-08-06T07:29:19Z</time>
      </trkpt>
      <trkpt lat="46.64167" lon="5.92976">
        <ele>737.2</ele>
        <time>2022-08-06T07:29:26Z</time>
      </trkpt>
      <trkpt lat="46.64147" lon="5.9296">
        <ele>737.4</ele>
        <time>2022-08-06T07:29:30Z</time>
      </trkpt>
      <trkpt lat="46.64114" lon="5.92932">
        <ele>738.2</ele>
        <time>2022-08-06T07:29:37Z</time>
      </trkpt>
      <trkpt lat="46.64094" lon="5.92916">
        <ele>738.6</ele>
        <time>2022-08-06T07:29:41Z</time>
      </trkpt>
      <trkpt lat="46.64067" lon="5.9289">
        <ele>739.6</ele>
        <time>2022-08-06T07:29:47Z</time>
      </trkpt>
      <trkpt lat="46.6403" lon="5.92854">
        <ele>740.6</ele>
        <time>2022-08-06T07:29:55Z</time>
      </trkpt>
      <trkpt lat="46.64024" lon="5.92849">
        <ele>741</ele>
        <time>2022-08-06T07:29:56Z</time>
      </trkpt>
      <trkpt lat="46.63992" lon="5.92817">
        <ele>742</ele>
        <time>2022-08-06T07:30:03Z</time>
      </trkpt>
      <trkpt lat="46.63978" lon="5.92803">
        <ele>742</ele>
        <time>2022-08-06T07:30:06Z</time>
      </trkpt>
      <trkpt lat="46.63937" lon="5.92762">
        <ele>742.4</ele>
        <time>2022-08-06T07:30:15Z</time>
      </trkpt>
      <trkpt lat="46.63914" lon="5.9274">
        <ele>743</ele>
        <time>2022-08-06T07:30:20Z</time>
      </trkpt>
      <trkpt lat="46.63883" lon="5.92708">
        <ele>744</ele>
        <time>2022-08-06T07:30:27Z</time>
      </trkpt>
      <trkpt lat="46.63879" lon="5.92703">
        <ele>744.2</ele>
        <time>2022-08-06T07:30:28Z</time>
      </trkpt>
      <trkpt lat="46.63853" lon="5.92676">
        <ele>745.2</ele>
        <time>2022-08-06T07:30:34Z</time>
      </trkpt>
      <trkpt lat="46.63833" lon="5.92654">
        <ele>746.2</ele>
        <time>2022-08-06T07:30:39Z</time>
      </trkpt>
      <trkpt lat="46.6383" lon="5.92649">
        <ele>746.2</ele>
        <time>2022-08-06T07:30:40Z</time>
      </trkpt>
      <trkpt lat="46.63814" lon="5.92632">
        <ele>747.4</ele>
        <time>2022-08-06T07:30:44Z</time>
      </trkpt>
      <trkpt lat="46.63791" lon="5.92606">
        <ele>748</ele>
        <time>2022-08-06T07:30:50Z</time>
      </trkpt>
      <trkpt lat="46.63779" lon="5.92592">
        <ele>748.6</ele>
        <time>2022-08-06T07:30:53Z</time>
      </trkpt>
      <trkpt lat="46.63747" lon="5.92557">
        <ele>749.4</ele>
        <time>2022-08-06T07:31:01Z</time>
      </trkpt>
      <trkpt lat="46.63744" lon="5.92553">
        <ele>749.6</ele>
        <time>2022-08-06T07:31:02Z</time>
      </trkpt>
      <trkpt lat="46.63717" lon="5.92524">
        <ele>751.2</ele>
        <time>2022-08-06T07:31:09Z</time>
      </trkpt>
      <trkpt lat="46.63705" lon="5.92511">
        <ele>752.2</ele>
        <time>2022-08-06T07:31:12Z</time>
      </trkpt>
      <trkpt lat="46.63678" lon="5.9248">
        <ele>753.2</ele>
        <time>2022-08-06T07:31:19Z</time>
      </trkpt>
      <trkpt lat="46.63649" lon="5.92449">
        <ele>754.4</ele>
        <time>2022-08-06T07:31:26Z</time>
      </trkpt>
      <trkpt lat="46.63642" lon="5.9244">
        <ele>754.8</ele>
        <time>2022-08-06T07:31:28Z</time>
      </trkpt>
      <trkpt lat="46.63629" lon="5.92427">
        <ele>755.4</ele>
        <time>2022-08-06T07:31:31Z</time>
      </trkpt>
      <trkpt lat="46.63606" lon="5.92399">
        <ele>756.4</ele>
        <time>2022-08-06T07:31:37Z</time>
      </trkpt>
      <trkpt lat="46.63566" lon="5.92348">
        <ele>757.4</ele>
        <time>2022-08-06T07:31:47Z</time>
      </trkpt>
      <trkpt lat="46.63562" lon="5.92343">
        <ele>757.6</ele>
        <time>2022-08-06T07:31:48Z</time>
      </trkpt>
      <trkpt lat="46.63539" lon="5.923">
        <ele>758.4</ele>
        <time>2022-08-06T07:31:55Z</time>
      </trkpt>
      <trkpt lat="46.63533" lon="5.92287">
        <ele>758.6</ele>
        <time>2022-08-06T07:31:57Z</time>
      </trkpt>
      <trkpt lat="46.63508" lon="5.92237">
        <ele>759.4</ele>
        <time>2022-08-06T07:32:05Z</time>
      </trkpt>
      <trkpt lat="46.63502" lon="5.92226">
        <ele>759.6</ele>
        <time>2022-08-06T07:32:07Z</time>
      </trkpt>
      <trkpt lat="46.63486" lon="5.92196">
        <ele>760.4</ele>
        <time>2022-08-06T07:32:12Z</time>
      </trkpt>
      <trkpt lat="46.6348" lon="5.92184">
        <ele>760.6</ele>
        <time>2022-08-06T07:32:14Z</time>
      </trkpt>
      <trkpt lat="46.63466" lon="5.92154">
        <ele>761.2</ele>
        <time>2022-08-06T07:32:19Z</time>
      </trkpt>
      <trkpt lat="46.63453" lon="5.9213">
        <ele>761.8</ele>
        <time>2022-08-06T07:32:23Z</time>
      </trkpt>
      <trkpt lat="46.63427" lon="5.92081">
        <ele>763</ele>
        <time>2022-08-06T07:32:31Z</time>
      </trkpt>
      <trkpt lat="46.63408" lon="5.92038">
        <ele>763.8</ele>
        <time>2022-08-06T07:32:38Z</time>
      </trkpt>
      <trkpt lat="46.63402" lon="5.92019">
        <ele>764.2</ele>
        <time>2022-08-06T07:32:41Z</time>
      </trkpt>
      <trkpt lat="46.63397" lon="5.9199">
        <ele>764.8</ele>
        <time>2022-08-06T07:32:45Z</time>
      </trkpt>
      <trkpt lat="46.63397" lon="5.91975">
        <ele>765</ele>
        <time>2022-08-06T07:32:47Z</time>
      </trkpt>
      <trkpt lat="46.63397" lon="5.9196">
        <ele>765.6</ele>
        <time>2022-08-06T07:32:49Z</time>
      </trkpt>
      <trkpt lat="46.63398" lon="5.91943">
        <ele>766</ele>
        <time>2022-08-06T07:32:51Z</time>
      </trkpt>
      <trkpt lat="46.63399" lon="5.91909">
        <ele>766.4</ele>
        <time>2022-08-06T07:32:55Z</time>
      </trkpt>
      <trkpt lat="46.63401" lon="5.91844">
        <ele>766.6</ele>
        <time>2022-08-06T07:33:02Z</time>
      </trkpt>
      <trkpt lat="46.63401" lon="5.91825">
        <ele>766.6</ele>
        <time>2022-08-06T07:33:04Z</time>
      </trkpt>
      <trkpt lat="46.63404" lon="5.91778">
        <ele>766.6</ele>
        <time>2022-08-06T07:33:09Z</time>
      </trkpt>
      <trkpt lat="46.63407" lon="5.9176">
        <ele>766.8</ele>
        <time>2022-08-06T07:33:11Z</time>
      </trkpt>
      <trkpt lat="46.63415" lon="5.91735">
        <ele>767</ele>
        <time>2022-08-06T07:33:14Z</time>
      </trkpt>
      <trkpt lat="46.63418" lon="5.91726">
        <ele>767</ele>
        <time>2022-08-06T07:33:15Z</time>
      </trkpt>
      <trkpt lat="46.63439" lon="5.91671">
        <ele>767.4</ele>
        <time>2022-08-06T07:33:22Z</time>
      </trkpt>
      <trkpt lat="46.63455" lon="5.91644">
        <ele>768</ele>
        <time>2022-08-06T07:33:26Z</time>
      </trkpt>
      <trkpt lat="46.63467" lon="5.91624">
        <ele>768.2</ele>
        <time>2022-08-06T07:33:29Z</time>
      </trkpt>
      <trkpt lat="46.63493" lon="5.91585">
        <ele>769</ele>
        <time>2022-08-06T07:33:35Z</time>
      </trkpt>
      <trkpt lat="46.63498" lon="5.91579">
        <ele>769.2</ele>
        <time>2022-08-06T07:33:36Z</time>
      </trkpt>
      <trkpt lat="46.63526" lon="5.91534">
        <ele>770</ele>
        <time>2022-08-06T07:33:43Z</time>
      </trkpt>
      <trkpt lat="46.63535" lon="5.91523">
        <ele>770.2</ele>
        <time>2022-08-06T07:33:45Z</time>
      </trkpt>
      <trkpt lat="46.63551" lon="5.91511">
        <ele>770.6</ele>
        <time>2022-08-06T07:33:48Z</time>
      </trkpt>
      <trkpt lat="46.63568" lon="5.91501">
        <ele>771.2</ele>
        <time>2022-08-06T07:33:51Z</time>
      </trkpt>
      <trkpt lat="46.63595" lon="5.91481">
        <ele>772</ele>
        <time>2022-08-06T07:33:56Z</time>
      </trkpt>
      <trkpt lat="46.63605" lon="5.91471">
        <ele>772.2</ele>
        <time>2022-08-06T07:33:58Z</time>
      </trkpt>
      <trkpt lat="46.63609" lon="5.91465">
        <ele>772.4</ele>
        <time>2022-08-06T07:33:59Z</time>
      </trkpt>
      <trkpt lat="46.63621" lon="5.91444">
        <ele>772.6</ele>
        <time>2022-08-06T07:34:02Z</time>
      </trkpt>
      <trkpt lat="46.63628" lon="5.91429">
        <ele>772.8</ele>
        <time>2022-08-06T07:34:04Z</time>
      </trkpt>
      <trkpt lat="46.63636" lon="5.91405">
        <ele>772.8</ele>
        <time>2022-08-06T07:34:07Z</time>
      </trkpt>
      <trkpt lat="46.63639" lon="5.91397">
        <ele>772.8</ele>
        <time>2022-08-06T07:34:08Z</time>
      </trkpt>
      <trkpt lat="46.63663" lon="5.91328">
        <ele>772.6</ele>
        <time>2022-08-06T07:34:16Z</time>
      </trkpt>
      <trkpt lat="46.63677" lon="5.91271">
        <ele>772.2</ele>
        <time>2022-08-06T07:34:22Z</time>
      </trkpt>
      <trkpt lat="46.63678" lon="5.91261">
        <ele>772.2</ele>
        <time>2022-08-06T07:34:23Z</time>
      </trkpt>
      <trkpt lat="46.6368" lon="5.91205">
        <ele>771.6</ele>
        <time>2022-08-06T07:34:29Z</time>
      </trkpt>
      <trkpt lat="46.63677" lon="5.91171">
        <ele>771.6</ele>
        <time>2022-08-06T07:34:33Z</time>
      </trkpt>
      <trkpt lat="46.63677" lon="5.91163">
        <ele>771.6</ele>
        <time>2022-08-06T07:34:34Z</time>
      </trkpt>
      <trkpt lat="46.63684" lon="5.91111">
        <ele>771.4</ele>
        <time>2022-08-06T07:34:40Z</time>
      </trkpt>
      <trkpt lat="46.63693" lon="5.91087">
        <ele>771.4</ele>
        <time>2022-08-06T07:34:43Z</time>
      </trkpt>
      <trkpt lat="46.637" lon="5.91071">
        <ele>771.4</ele>
        <time>2022-08-06T07:34:45Z</time>
      </trkpt>
      <trkpt lat="46.63714" lon="5.91038">
        <ele>771.4</ele>
        <time>2022-08-06T07:34:49Z</time>
      </trkpt>
      <trkpt lat="46.63718" lon="5.91019">
        <ele>771.4</ele>
        <time>2022-08-06T07:34:51Z</time>
      </trkpt>
      <trkpt lat="46.63718" lon="5.90999">
        <ele>771.4</ele>
        <time>2022-08-06T07:34:53Z</time>
      </trkpt>
      <trkpt lat="46.63716" lon="5.90979">
        <ele>771.4</ele>
        <time>2022-08-06T07:34:55Z</time>
      </trkpt>
      <trkpt lat="46.63711" lon="5.9094">
        <ele>771.4</ele>
        <time>2022-08-06T07:34:59Z</time>
      </trkpt>
      <trkpt lat="46.63711" lon="5.90921">
        <ele>771.6</ele>
        <time>2022-08-06T07:35:01Z</time>
      </trkpt>
      <trkpt lat="46.63713" lon="5.90901">
        <ele>771.8</ele>
        <time>2022-08-06T07:35:03Z</time>
      </trkpt>
      <trkpt lat="46.63718" lon="5.90882">
        <ele>772</ele>
        <time>2022-08-06T07:35:05Z</time>
      </trkpt>
      <trkpt lat="46.6373" lon="5.9086">
        <ele>772</ele>
        <time>2022-08-06T07:35:08Z</time>
      </trkpt>
      <trkpt lat="46.63735" lon="5.90853">
        <ele>772.2</ele>
        <time>2022-08-06T07:35:09Z</time>
      </trkpt>
      <trkpt lat="46.63771" lon="5.90817">
        <ele>772.8</ele>
        <time>2022-08-06T07:35:16Z</time>
      </trkpt>
      <trkpt lat="46.63819" lon="5.90773">
        <ele>773.2</ele>
        <time>2022-08-06T07:35:25Z</time>
      </trkpt>
      <trkpt lat="46.63829" lon="5.90763">
        <ele>773.4</ele>
        <time>2022-08-06T07:35:27Z</time>
      </trkpt>
      <trkpt lat="46.63848" lon="5.90739">
        <ele>773.8</ele>
        <time>2022-08-06T07:35:31Z</time>
      </trkpt>
      <trkpt lat="46.63852" lon="5.90732">
        <ele>774</ele>
        <time>2022-08-06T07:35:32Z</time>
      </trkpt>
      <trkpt lat="46.63868" lon="5.90693">
        <ele>774.2</ele>
        <time>2022-08-06T07:35:37Z</time>
      </trkpt>
      <trkpt lat="46.63871" lon="5.90685">
        <ele>774.2</ele>
        <time>2022-08-06T07:35:38Z</time>
      </trkpt>
      <trkpt lat="46.63876" lon="5.90658">
        <ele>774.6</ele>
        <time>2022-08-06T07:35:41Z</time>
      </trkpt>
      <trkpt lat="46.63879" lon="5.9064">
        <ele>774.8</ele>
        <time>2022-08-06T07:35:43Z</time>
      </trkpt>
      <trkpt lat="46.63892" lon="5.90575">
        <ele>775.2</ele>
        <time>2022-08-06T07:35:50Z</time>
      </trkpt>
      <trkpt lat="46.63902" lon="5.9052">
        <ele>775.6</ele>
        <time>2022-08-06T07:35:56Z</time>
      </trkpt>
      <trkpt lat="46.63911" lon="5.90475">
        <ele>776.2</ele>
        <time>2022-08-06T07:36:01Z</time>
      </trkpt>
      <trkpt lat="46.63921" lon="5.9042">
        <ele>776.6</ele>
        <time>2022-08-06T07:36:07Z</time>
      </trkpt>
      <trkpt lat="46.63926" lon="5.90393">
        <ele>776.8</ele>
        <time>2022-08-06T07:36:10Z</time>
      </trkpt>
      <trkpt lat="46.63933" lon="5.90343">
        <ele>778</ele>
        <time>2022-08-06T07:36:16Z</time>
      </trkpt>
      <trkpt lat="46.63934" lon="5.90326">
        <ele>778.2</ele>
        <time>2022-08-06T07:36:18Z</time>
      </trkpt>
      <trkpt lat="46.63931" lon="5.90292">
        <ele>779</ele>
        <time>2022-08-06T07:36:22Z</time>
      </trkpt>
      <trkpt lat="46.63927" lon="5.90275">
        <ele>779.2</ele>
        <time>2022-08-06T07:36:24Z</time>
      </trkpt>
      <trkpt lat="46.63918" lon="5.90234">
        <ele>779.8</ele>
        <time>2022-08-06T07:36:29Z</time>
      </trkpt>
      <trkpt lat="46.63916" lon="5.90217">
        <ele>780</ele>
        <time>2022-08-06T07:36:31Z</time>
      </trkpt>
      <trkpt lat="46.63916" lon="5.90209">
        <ele>780.2</ele>
        <time>2022-08-06T07:36:32Z</time>
      </trkpt>
      <trkpt lat="46.63917" lon="5.90168">
        <ele>781.2</ele>
        <time>2022-08-06T07:36:37Z</time>
      </trkpt>
      <trkpt lat="46.63917" lon="5.9016">
        <ele>781.4</ele>
        <time>2022-08-06T07:36:38Z</time>
      </trkpt>
      <trkpt lat="46.63918" lon="5.90122">
        <ele>782.2</ele>
        <time>2022-08-06T07:36:43Z</time>
      </trkpt>
      <trkpt lat="46.63917" lon="5.90107">
        <ele>782.6</ele>
        <time>2022-08-06T07:36:45Z</time>
      </trkpt>
      <trkpt lat="46.63907" lon="5.90064">
        <ele>783.4</ele>
        <time>2022-08-06T07:36:51Z</time>
      </trkpt>
      <trkpt lat="46.63904" lon="5.90058">
        <ele>783.6</ele>
        <time>2022-08-06T07:36:52Z</time>
      </trkpt>
      <trkpt lat="46.63901" lon="5.90052">
        <ele>784</ele>
        <time>2022-08-06T07:36:53Z</time>
      </trkpt>
      <trkpt lat="46.63887" lon="5.90028">
        <ele>784.8</ele>
        <time>2022-08-06T07:36:57Z</time>
      </trkpt>
      <trkpt lat="46.63878" lon="5.90019">
        <ele>785</ele>
        <time>2022-08-06T07:36:59Z</time>
      </trkpt>
      <trkpt lat="46.63867" lon="5.9001">
        <ele>785</ele>
        <time>2022-08-06T07:37:01Z</time>
      </trkpt>
      <trkpt lat="46.63861" lon="5.90005">
        <ele>784.8</ele>
        <time>2022-08-06T07:37:02Z</time>
      </trkpt>
      <trkpt lat="46.63827" lon="5.89988">
        <ele>783.8</ele>
        <time>2022-08-06T07:37:07Z</time>
      </trkpt>
      <trkpt lat="46.6382" lon="5.89985">
        <ele>783.6</ele>
        <time>2022-08-06T07:37:08Z</time>
      </trkpt>
      <trkpt lat="46.63782" lon="5.89969">
        <ele>782.6</ele>
        <time>2022-08-06T07:37:13Z</time>
      </trkpt>
      <trkpt lat="46.63774" lon="5.89966">
        <ele>782.6</ele>
        <time>2022-08-06T07:37:14Z</time>
      </trkpt>
      <trkpt lat="46.63738" lon="5.89956">
        <ele>781.4</ele>
        <time>2022-08-06T07:37:18Z</time>
      </trkpt>
      <trkpt lat="46.63728" lon="5.89951">
        <ele>781.2</ele>
        <time>2022-08-06T07:37:19Z</time>
      </trkpt>
      <trkpt lat="46.6371" lon="5.89941">
        <ele>780</ele>
        <time>2022-08-06T07:37:21Z</time>
      </trkpt>
      <trkpt lat="46.63693" lon="5.89928">
        <ele>778.6</ele>
        <time>2022-08-06T07:37:23Z</time>
      </trkpt>
      <trkpt lat="46.6366" lon="5.89888">
        <ele>777.8</ele>
        <time>2022-08-06T07:37:28Z</time>
      </trkpt>
      <trkpt lat="46.63633" lon="5.89848">
        <ele>778.2</ele>
        <time>2022-08-06T07:37:33Z</time>
      </trkpt>
      <trkpt lat="46.63598" lon="5.89811">
        <ele>779.2</ele>
        <time>2022-08-06T07:37:39Z</time>
      </trkpt>
      <trkpt lat="46.63578" lon="5.89799">
        <ele>779.4</ele>
        <time>2022-08-06T07:37:42Z</time>
      </trkpt>
      <trkpt lat="46.63571" lon="5.89796">
        <ele>779.6</ele>
        <time>2022-08-06T07:37:43Z</time>
      </trkpt>
      <trkpt lat="46.63564" lon="5.89794">
        <ele>779.6</ele>
        <time>2022-08-06T07:37:44Z</time>
      </trkpt>
      <trkpt lat="46.63516" lon="5.89783">
        <ele>779.4</ele>
        <time>2022-08-06T07:37:50Z</time>
      </trkpt>
      <trkpt lat="46.63488" lon="5.89779">
        <ele>778.2</ele>
        <time>2022-08-06T07:37:53Z</time>
      </trkpt>
      <trkpt lat="46.63478" lon="5.8978">
        <ele>777.8</ele>
        <time>2022-08-06T07:37:54Z</time>
      </trkpt>
      <trkpt lat="46.63468" lon="5.8978">
        <ele>776.8</ele>
        <time>2022-08-06T07:37:55Z</time>
      </trkpt>
      <trkpt lat="46.63447" lon="5.89782">
        <ele>775.6</ele>
        <time>2022-08-06T07:37:57Z</time>
      </trkpt>
      <trkpt lat="46.63425" lon="5.89786">
        <ele>774.4</ele>
        <time>2022-08-06T07:37:59Z</time>
      </trkpt>
      <trkpt lat="46.63414" lon="5.89788">
        <ele>773.2</ele>
        <time>2022-08-06T07:38:00Z</time>
      </trkpt>
      <trkpt lat="46.63403" lon="5.89788">
        <ele>772.4</ele>
        <time>2022-08-06T07:38:01Z</time>
      </trkpt>
      <trkpt lat="46.63392" lon="5.89786">
        <ele>771.2</ele>
        <time>2022-08-06T07:38:02Z</time>
      </trkpt>
      <trkpt lat="46.63382" lon="5.89782">
        <ele>770.8</ele>
        <time>2022-08-06T07:38:03Z</time>
      </trkpt>
      <trkpt lat="46.63372" lon="5.89776">
        <ele>770</ele>
        <time>2022-08-06T07:38:04Z</time>
      </trkpt>
      <trkpt lat="46.63355" lon="5.89761">
        <ele>769.6</ele>
        <time>2022-08-06T07:38:06Z</time>
      </trkpt>
      <trkpt lat="46.63305" lon="5.89722">
        <ele>769.2</ele>
        <time>2022-08-06T07:38:12Z</time>
      </trkpt>
      <trkpt lat="46.6327" lon="5.897">
        <ele>769</ele>
        <time>2022-08-06T07:38:16Z</time>
      </trkpt>
      <trkpt lat="46.63222" lon="5.89671">
        <ele>769.2</ele>
        <time>2022-08-06T07:38:22Z</time>
      </trkpt>
      <trkpt lat="46.63181" lon="5.89632">
        <ele>769.4</ele>
        <time>2022-08-06T07:38:28Z</time>
      </trkpt>
      <trkpt lat="46.63132" lon="5.89584">
        <ele>769.4</ele>
        <time>2022-08-06T07:38:35Z</time>
      </trkpt>
      <trkpt lat="46.63118" lon="5.89571">
        <ele>769.2</ele>
        <time>2022-08-06T07:38:37Z</time>
      </trkpt>
      <trkpt lat="46.63072" lon="5.89527">
        <ele>769.6</ele>
        <time>2022-08-06T07:38:44Z</time>
      </trkpt>
      <trkpt lat="46.63054" lon="5.89509">
        <ele>770.2</ele>
        <time>2022-08-06T07:38:47Z</time>
      </trkpt>
      <trkpt lat="46.63012" lon="5.89465">
        <ele>771.2</ele>
        <time>2022-08-06T07:38:54Z</time>
      </trkpt>
      <trkpt lat="46.62968" lon="5.89418">
        <ele>770.4</ele>
        <time>2022-08-06T07:39:01Z</time>
      </trkpt>
      <trkpt lat="46.62934" lon="5.89385">
        <ele>770</ele>
        <time>2022-08-06T07:39:06Z</time>
      </trkpt>
      <trkpt lat="46.6292" lon="5.89372">
        <ele>769.8</ele>
        <time>2022-08-06T07:39:08Z</time>
      </trkpt>
      <trkpt lat="46.6287" lon="5.89328">
        <ele>769.8</ele>
        <time>2022-08-06T07:39:15Z</time>
      </trkpt>
      <trkpt lat="46.6285" lon="5.89309">
        <ele>770</ele>
        <time>2022-08-06T07:39:18Z</time>
      </trkpt>
      <trkpt lat="46.62805" lon="5.89269">
        <ele>770.2</ele>
        <time>2022-08-06T07:39:25Z</time>
      </trkpt>
      <trkpt lat="46.62756" lon="5.89226">
        <ele>770.8</ele>
        <time>2022-08-06T07:39:33Z</time>
      </trkpt>
      <trkpt lat="46.62703" lon="5.89181">
        <ele>770.2</ele>
        <time>2022-08-06T07:39:41Z</time>
      </trkpt>
      <trkpt lat="46.62696" lon="5.89176">
        <ele>770.2</ele>
        <time>2022-08-06T07:39:42Z</time>
      </trkpt>
      <trkpt lat="46.62644" lon="5.89144">
        <ele>769.6</ele>
        <time>2022-08-06T07:39:49Z</time>
      </trkpt>
      <trkpt lat="46.62597" lon="5.89118">
        <ele>769.2</ele>
        <time>2022-08-06T07:39:55Z</time>
      </trkpt>
      <trkpt lat="46.62572" lon="5.89102">
        <ele>768.6</ele>
        <time>2022-08-06T07:39:58Z</time>
      </trkpt>
      <trkpt lat="46.62564" lon="5.89097">
        <ele>768</ele>
        <time>2022-08-06T07:39:59Z</time>
      </trkpt>
      <trkpt lat="46.62522" lon="5.89069">
        <ele>767</ele>
        <time>2022-08-06T07:40:04Z</time>
      </trkpt>
      <trkpt lat="46.62504" lon="5.89058">
        <ele>766.8</ele>
        <time>2022-08-06T07:40:06Z</time>
      </trkpt>
      <trkpt lat="46.62455" lon="5.89033">
        <ele>766.2</ele>
        <time>2022-08-06T07:40:12Z</time>
      </trkpt>
      <trkpt lat="46.62438" lon="5.89026">
        <ele>766</ele>
        <time>2022-08-06T07:40:14Z</time>
      </trkpt>
      <trkpt lat="46.62428" lon="5.89022">
        <ele>765.8</ele>
        <time>2022-08-06T07:40:15Z</time>
      </trkpt>
      <trkpt lat="46.6237" lon="5.88996">
        <ele>765.4</ele>
        <time>2022-08-06T07:40:21Z</time>
      </trkpt>
      <trkpt lat="46.6237" lon="5.88996">
        <ele>765.4</ele>
        <time>2022-08-06T07:40:22Z</time>
      </trkpt>
      <trkpt lat="46.62319" lon="5.88974">
        <ele>764.6</ele>
        <time>2022-08-06T07:40:27Z</time>
      </trkpt>
      <trkpt lat="46.62278" lon="5.88957">
        <ele>764.2</ele>
        <time>2022-08-06T07:40:32Z</time>
      </trkpt>
      <trkpt lat="46.62225" lon="5.88925">
        <ele>763.6</ele>
        <time>2022-08-06T07:40:39Z</time>
      </trkpt>
      <trkpt lat="46.62217" lon="5.8892">
        <ele>763.6</ele>
        <time>2022-08-06T07:40:40Z</time>
      </trkpt>
      <trkpt lat="46.62162" lon="5.88895">
        <ele>763.8</ele>
        <time>2022-08-06T07:40:47Z</time>
      </trkpt>
      <trkpt lat="46.62106" lon="5.88875">
        <ele>763.6</ele>
        <time>2022-08-06T07:40:54Z</time>
      </trkpt>
      <trkpt lat="46.62098" lon="5.88872">
        <ele>763.4</ele>
        <time>2022-08-06T07:40:55Z</time>
      </trkpt>
      <trkpt lat="46.62042" lon="5.88845">
        <ele>763.2</ele>
        <time>2022-08-06T07:41:02Z</time>
      </trkpt>
      <trkpt lat="46.62034" lon="5.8884">
        <ele>763.2</ele>
        <time>2022-08-06T07:41:03Z</time>
      </trkpt>
      <trkpt lat="46.61981" lon="5.88808">
        <ele>763</ele>
        <time>2022-08-06T07:41:10Z</time>
      </trkpt>
      <trkpt lat="46.61966" lon="5.888">
        <ele>762.8</ele>
        <time>2022-08-06T07:41:12Z</time>
      </trkpt>
      <trkpt lat="46.61911" lon="5.88782">
        <ele>762.6</ele>
        <time>2022-08-06T07:41:19Z</time>
      </trkpt>
      <trkpt lat="46.61902" lon="5.88781">
        <ele>762.6</ele>
        <time>2022-08-06T07:41:20Z</time>
      </trkpt>
      <trkpt lat="46.61855" lon="5.88766">
        <ele>762.8</ele>
        <time>2022-08-06T07:41:26Z</time>
      </trkpt>
      <trkpt lat="46.61799" lon="5.88733">
        <ele>763.2</ele>
        <time>2022-08-06T07:41:34Z</time>
      </trkpt>
      <trkpt lat="46.61786" lon="5.88724">
        <ele>763.4</ele>
        <time>2022-08-06T07:41:36Z</time>
      </trkpt>
      <trkpt lat="46.61757" lon="5.88707">
        <ele>763.4</ele>
        <time>2022-08-06T07:41:40Z</time>
      </trkpt>
      <trkpt lat="46.61701" lon="5.88675">
        <ele>763.4</ele>
        <time>2022-08-06T07:41:48Z</time>
      </trkpt>
      <trkpt lat="46.61694" lon="5.88671">
        <ele>763.4</ele>
        <time>2022-08-06T07:41:49Z</time>
      </trkpt>
      <trkpt lat="46.61643" lon="5.8865">
        <ele>763.6</ele>
        <time>2022-08-06T07:41:56Z</time>
      </trkpt>
      <trkpt lat="46.61636" lon="5.88649">
        <ele>763.6</ele>
        <time>2022-08-06T07:41:57Z</time>
      </trkpt>
      <trkpt lat="46.61606" lon="5.88652">
        <ele>763.4</ele>
        <time>2022-08-06T07:42:01Z</time>
      </trkpt>
      <trkpt lat="46.61564" lon="5.88661">
        <ele>762</ele>
        <time>2022-08-06T07:42:07Z</time>
      </trkpt>
      <trkpt lat="46.61527" lon="5.88668">
        <ele>761.2</ele>
        <time>2022-08-06T07:42:10Z</time>
      </trkpt>
      <trkpt lat="46.61509" lon="5.88671">
        <ele>760.4</ele>
        <time>2022-08-06T07:42:12Z</time>
      </trkpt>
      <trkpt lat="46.61501" lon="5.88672">
        <ele>760</ele>
        <time>2022-08-06T07:42:13Z</time>
      </trkpt>
      <trkpt lat="46.61493" lon="5.88672">
        <ele>759.4</ele>
        <time>2022-08-06T07:42:14Z</time>
      </trkpt>
      <trkpt lat="46.61486" lon="5.88671">
        <ele>758.8</ele>
        <time>2022-08-06T07:42:15Z</time>
      </trkpt>
      <trkpt lat="46.61486" lon="5.88671">
        <ele>758.2</ele>
        <time>2022-08-06T07:42:16Z</time>
      </trkpt>
      <trkpt lat="46.61472" lon="5.88669">
        <ele>757.8</ele>
        <time>2022-08-06T07:42:17Z</time>
      </trkpt>
      <trkpt lat="46.61466" lon="5.88673">
        <ele>757.2</ele>
        <time>2022-08-06T07:42:18Z</time>
      </trkpt>
      <trkpt lat="46.61462" lon="5.88681">
        <ele>757</ele>
        <time>2022-08-06T07:42:19Z</time>
      </trkpt>
      <trkpt lat="46.61459" lon="5.8869">
        <ele>756.4</ele>
        <time>2022-08-06T07:42:20Z</time>
      </trkpt>
      <trkpt lat="46.61454" lon="5.88712">
        <ele>755.8</ele>
        <time>2022-08-06T07:42:22Z</time>
      </trkpt>
      <trkpt lat="46.61452" lon="5.88726">
        <ele>755.6</ele>
        <time>2022-08-06T07:42:23Z</time>
      </trkpt>
      <trkpt lat="46.61445" lon="5.88771">
        <ele>754.8</ele>
        <time>2022-08-06T07:42:27Z</time>
      </trkpt>
      <trkpt lat="46.61437" lon="5.88818">
        <ele>754</ele>
        <time>2022-08-06T07:42:31Z</time>
      </trkpt>
      <trkpt lat="46.61431" lon="5.88864">
        <ele>754</ele>
        <time>2022-08-06T07:42:35Z</time>
      </trkpt>
      <trkpt lat="46.6143" lon="5.88887">
        <ele>754.2</ele>
        <time>2022-08-06T07:42:37Z</time>
      </trkpt>
      <trkpt lat="46.61429" lon="5.88934">
        <ele>755.4</ele>
        <time>2022-08-06T07:42:42Z</time>
      </trkpt>
      <trkpt lat="46.61428" lon="5.88949">
        <ele>756.4</ele>
        <time>2022-08-06T07:42:44Z</time>
      </trkpt>
      <trkpt lat="46.61428" lon="5.88961">
        <ele>757.2</ele>
        <time>2022-08-06T07:42:47Z</time>
      </trkpt>
      <trkpt lat="46.6143" lon="5.88974">
        <ele>757.2</ele>
        <time>2022-08-06T07:42:48Z</time>
      </trkpt>
      <trkpt lat="46.61432" lon="5.8898">
        <ele>757.6</ele>
        <time>2022-08-06T07:42:49Z</time>
      </trkpt>
      <trkpt lat="46.61435" lon="5.88992">
        <ele>758</ele>
        <time>2022-08-06T07:42:51Z</time>
      </trkpt>
      <trkpt lat="46.61435" lon="5.88992">
        <ele>758.6</ele>
        <time>2022-08-06T07:42:52Z</time>
      </trkpt>
      <trkpt lat="46.6145" lon="5.89027">
        <ele>759.8</ele>
        <time>2022-08-06T07:42:57Z</time>
      </trkpt>
      <trkpt lat="46.61453" lon="5.89033">
        <ele>759.8</ele>
        <time>2022-08-06T07:42:58Z</time>
      </trkpt>
      <trkpt lat="46.61457" lon="5.89038">
        <ele>760.2</ele>
        <time>2022-08-06T07:42:59Z</time>
      </trkpt>
      <trkpt lat="46.61465" lon="5.89048">
        <ele>760.8</ele>
        <time>2022-08-06T07:43:01Z</time>
      </trkpt>
      <trkpt lat="46.61488" lon="5.89075">
        <ele>761.4</ele>
        <time>2022-08-06T07:43:07Z</time>
      </trkpt>
      <trkpt lat="46.61505" lon="5.89093">
        <ele>761.6</ele>
        <time>2022-08-06T07:43:11Z</time>
      </trkpt>
      <trkpt lat="46.61511" lon="5.89101">
        <ele>762.2</ele>
        <time>2022-08-06T07:43:13Z</time>
      </trkpt>
      <trkpt lat="46.61513" lon="5.89107">
        <ele>762.4</ele>
        <time>2022-08-06T07:43:14Z</time>
      </trkpt>
      <trkpt lat="46.61514" lon="5.89112">
        <ele>762.4</ele>
        <time>2022-08-06T07:43:15Z</time>
      </trkpt>
      <trkpt lat="46.61512" lon="5.89123">
        <ele>762.8</ele>
        <time>2022-08-06T07:43:17Z</time>
      </trkpt>
      <trkpt lat="46.61506" lon="5.8913">
        <ele>763.2</ele>
        <time>2022-08-06T07:43:19Z</time>
      </trkpt>
      <trkpt lat="46.61502" lon="5.89132">
        <ele>763.6</ele>
        <time>2022-08-06T07:43:20Z</time>
      </trkpt>
      <trkpt lat="46.61498" lon="5.89133">
        <ele>764</ele>
        <time>2022-08-06T07:43:21Z</time>
      </trkpt>
      <trkpt lat="46.61478" lon="5.89133">
        <ele>765.2</ele>
        <time>2022-08-06T07:43:26Z</time>
      </trkpt>
      <trkpt lat="46.61463" lon="5.89136">
        <ele>766.2</ele>
        <time>2022-08-06T07:43:30Z</time>
      </trkpt>
      <trkpt lat="46.61447" lon="5.89143">
        <ele>766.8</ele>
        <time>2022-08-06T07:43:34Z</time>
      </trkpt>
      <trkpt lat="46.61432" lon="5.89149">
        <ele>767.2</ele>
        <time>2022-08-06T07:43:38Z</time>
      </trkpt>
      <trkpt lat="46.61418" lon="5.89154">
        <ele>768.4</ele>
        <time>2022-08-06T07:43:42Z</time>
      </trkpt>
      <trkpt lat="46.61404" lon="5.8916">
        <ele>769.6</ele>
        <time>2022-08-06T07:43:46Z</time>
      </trkpt>
      <trkpt lat="46.61393" lon="5.89168">
        <ele>770.8</ele>
        <time>2022-08-06T07:43:51Z</time>
      </trkpt>
      <trkpt lat="46.61372" lon="5.89188">
        <ele>772</ele>
        <time>2022-08-06T07:43:57Z</time>
      </trkpt>
      <trkpt lat="46.61363" lon="5.89196">
        <ele>772.4</ele>
        <time>2022-08-06T07:44:00Z</time>
      </trkpt>
      <trkpt lat="46.61349" lon="5.89212">
        <ele>773</ele>
        <time>2022-08-06T07:44:05Z</time>
      </trkpt>
      <trkpt lat="46.61338" lon="5.89223">
        <ele>773.8</ele>
        <time>2022-08-06T07:44:09Z</time>
      </trkpt>
      <trkpt lat="46.61332" lon="5.89229">
        <ele>774.2</ele>
        <time>2022-08-06T07:44:11Z</time>
      </trkpt>
      <trkpt lat="46.61318" lon="5.89245">
        <ele>775.2</ele>
        <time>2022-08-06T07:44:16Z</time>
      </trkpt>
      <trkpt lat="46.61305" lon="5.8926">
        <ele>776.4</ele>
        <time>2022-08-06T07:44:21Z</time>
      </trkpt>
      <trkpt lat="46.613" lon="5.89267">
        <ele>776.8</ele>
        <time>2022-08-06T07:44:23Z</time>
      </trkpt>
      <trkpt lat="46.61292" lon="5.89277">
        <ele>777.6</ele>
        <time>2022-08-06T07:44:26Z</time>
      </trkpt>
      <trkpt lat="46.61281" lon="5.89298">
        <ele>778.4</ele>
        <time>2022-08-06T07:44:31Z</time>
      </trkpt>
      <trkpt lat="46.61281" lon="5.89303">
        <ele>778.8</ele>
        <time>2022-08-06T07:44:32Z</time>
      </trkpt>
      <trkpt lat="46.61282" lon="5.89323">
        <ele>779.6</ele>
        <time>2022-08-06T07:44:36Z</time>
      </trkpt>
      <trkpt lat="46.61284" lon="5.89332">
        <ele>780</ele>
        <time>2022-08-06T07:44:38Z</time>
      </trkpt>
      <trkpt lat="46.6129" lon="5.89343">
        <ele>781.4</ele>
        <time>2022-08-06T07:44:41Z</time>
      </trkpt>
      <trkpt lat="46.61302" lon="5.89354">
        <ele>782.4</ele>
        <time>2022-08-06T07:44:45Z</time>
      </trkpt>
      <trkpt lat="46.61311" lon="5.89362">
        <ele>783</ele>
        <time>2022-08-06T07:44:48Z</time>
      </trkpt>
      <trkpt lat="46.61321" lon="5.8937">
        <ele>783.6</ele>
        <time>2022-08-06T07:44:51Z</time>
      </trkpt>
      <trkpt lat="46.6133" lon="5.89376">
        <ele>784.2</ele>
        <time>2022-08-06T07:44:54Z</time>
      </trkpt>
      <trkpt lat="46.61338" lon="5.89378">
        <ele>784.6</ele>
        <time>2022-08-06T07:44:56Z</time>
      </trkpt>
      <trkpt lat="46.61351" lon="5.89384">
        <ele>785.2</ele>
        <time>2022-08-06T07:44:59Z</time>
      </trkpt>
      <trkpt lat="46.61363" lon="5.89388">
        <ele>786</ele>
        <time>2022-08-06T07:45:02Z</time>
      </trkpt>
      <trkpt lat="46.61384" lon="5.89395">
        <ele>786.6</ele>
        <time>2022-08-06T07:45:07Z</time>
      </trkpt>
      <trkpt lat="46.61399" lon="5.89401">
        <ele>787</ele>
        <time>2022-08-06T07:45:11Z</time>
      </trkpt>
      <trkpt lat="46.61419" lon="5.89411">
        <ele>787.6</ele>
        <time>2022-08-06T07:45:16Z</time>
      </trkpt>
      <trkpt lat="46.61422" lon="5.89414">
        <ele>787.8</ele>
        <time>2022-08-06T07:45:17Z</time>
      </trkpt>
      <trkpt lat="46.61428" lon="5.89424">
        <ele>788</ele>
        <time>2022-08-06T07:45:19Z</time>
      </trkpt>
      <trkpt lat="46.6143" lon="5.89429">
        <ele>788.2</ele>
        <time>2022-08-06T07:45:20Z</time>
      </trkpt>
      <trkpt lat="46.61431" lon="5.89436">
        <ele>788.4</ele>
        <time>2022-08-06T07:45:21Z</time>
      </trkpt>
      <trkpt lat="46.61429" lon="5.89447">
        <ele>788.6</ele>
        <time>2022-08-06T07:45:23Z</time>
      </trkpt>
      <trkpt lat="46.61428" lon="5.89452">
        <ele>788.6</ele>
        <time>2022-08-06T07:45:24Z</time>
      </trkpt>
      <trkpt lat="46.61425" lon="5.89457">
        <ele>788.8</ele>
        <time>2022-08-06T07:45:25Z</time>
      </trkpt>
      <trkpt lat="46.61419" lon="5.89464">
        <ele>789</ele>
        <time>2022-08-06T07:45:27Z</time>
      </trkpt>
      <trkpt lat="46.61416" lon="5.89466">
        <ele>789.2</ele>
        <time>2022-08-06T07:45:28Z</time>
      </trkpt>
      <trkpt lat="46.61402" lon="5.89468">
        <ele>790.4</ele>
        <time>2022-08-06T07:45:32Z</time>
      </trkpt>
      <trkpt lat="46.61398" lon="5.89469">
        <ele>790.4</ele>
        <time>2022-08-06T07:45:33Z</time>
      </trkpt>
      <trkpt lat="46.61382" lon="5.89473">
        <ele>791.8</ele>
        <time>2022-08-06T07:45:37Z</time>
      </trkpt>
      <trkpt lat="46.61368" lon="5.89475">
        <ele>792.2</ele>
        <time>2022-08-06T07:45:40Z</time>
      </trkpt>
      <trkpt lat="46.61356" lon="5.89477">
        <ele>792.8</ele>
        <time>2022-08-06T07:45:43Z</time>
      </trkpt>
      <trkpt lat="46.61336" lon="5.89479">
        <ele>793.8</ele>
        <time>2022-08-06T07:45:48Z</time>
      </trkpt>
      <trkpt lat="46.61332" lon="5.89479">
        <ele>794.2</ele>
        <time>2022-08-06T07:45:49Z</time>
      </trkpt>
      <trkpt lat="46.61317" lon="5.89482">
        <ele>795</ele>
        <time>2022-08-06T07:45:53Z</time>
      </trkpt>
      <trkpt lat="46.61298" lon="5.89486">
        <ele>796</ele>
        <time>2022-08-06T07:45:58Z</time>
      </trkpt>
      <trkpt lat="46.61273" lon="5.8949">
        <ele>797.2</ele>
        <time>2022-08-06T07:46:04Z</time>
      </trkpt>
      <trkpt lat="46.61269" lon="5.8949">
        <ele>797.2</ele>
        <time>2022-08-06T07:46:05Z</time>
      </trkpt>
      <trkpt lat="46.6125" lon="5.89493">
        <ele>798.2</ele>
        <time>2022-08-06T07:46:10Z</time>
      </trkpt>
      <trkpt lat="46.61244" lon="5.89494">
        <ele>798.6</ele>
        <time>2022-08-06T07:46:12Z</time>
      </trkpt>
      <trkpt lat="46.61227" lon="5.89497">
        <ele>799.4</ele>
        <time>2022-08-06T07:46:17Z</time>
      </trkpt>
      <trkpt lat="46.61218" lon="5.89499">
        <ele>800.6</ele>
        <time>2022-08-06T07:46:20Z</time>
      </trkpt>
      <trkpt lat="46.61206" lon="5.895">
        <ele>801.6</ele>
        <time>2022-08-06T07:46:24Z</time>
      </trkpt>
      <trkpt lat="46.61194" lon="5.89502">
        <ele>802.8</ele>
        <time>2022-08-06T07:46:28Z</time>
      </trkpt>
      <trkpt lat="46.61192" lon="5.89502">
        <ele>802.8</ele>
        <time>2022-08-06T07:46:29Z</time>
      </trkpt>
      <trkpt lat="46.61181" lon="5.89504">
        <ele>804.2</ele>
        <time>2022-08-06T07:46:33Z</time>
      </trkpt>
      <trkpt lat="46.6117" lon="5.89505">
        <ele>805.2</ele>
        <time>2022-08-06T07:46:37Z</time>
      </trkpt>
      <trkpt lat="46.61168" lon="5.89504">
        <ele>805.4</ele>
        <time>2022-08-06T07:46:38Z</time>
      </trkpt>
      <trkpt lat="46.61164" lon="5.89499">
        <ele>806.4</ele>
        <time>2022-08-06T07:46:41Z</time>
      </trkpt>
      <trkpt lat="46.61163" lon="5.89497">
        <ele>806.8</ele>
        <time>2022-08-06T07:46:42Z</time>
      </trkpt>
      <trkpt lat="46.61161" lon="5.89494">
        <ele>807.6</ele>
        <time>2022-08-06T07:46:44Z</time>
      </trkpt>
      <trkpt lat="46.61159" lon="5.89495">
        <ele>807.6</ele>
        <time>2022-08-06T07:46:45Z</time>
      </trkpt>
      <trkpt lat="46.61157" lon="5.89498">
        <ele>807.6</ele>
        <time>2022-08-06T07:46:46Z</time>
      </trkpt>
      <trkpt lat="46.61152" lon="5.89511">
        <ele>808</ele>
        <time>2022-08-06T07:46:49Z</time>
      </trkpt>
      <trkpt lat="46.61143" lon="5.89539">
        <ele>808.2</ele>
        <time>2022-08-06T07:46:55Z</time>
      </trkpt>
      <trkpt lat="46.61142" lon="5.89544">
        <ele>808.4</ele>
        <time>2022-08-06T07:46:56Z</time>
      </trkpt>
      <trkpt lat="46.61138" lon="5.89559">
        <ele>808.8</ele>
        <time>2022-08-06T07:46:59Z</time>
      </trkpt>
      <trkpt lat="46.61134" lon="5.89581">
        <ele>809.4</ele>
        <time>2022-08-06T07:47:03Z</time>
      </trkpt>
      <trkpt lat="46.61133" lon="5.89592">
        <ele>809.8</ele>
        <time>2022-08-06T07:47:05Z</time>
      </trkpt>
      <trkpt lat="46.61131" lon="5.89609">
        <ele>810.6</ele>
        <time>2022-08-06T07:47:08Z</time>
      </trkpt>
      <trkpt lat="46.6113" lon="5.8962">
        <ele>811.4</ele>
        <time>2022-08-06T07:47:10Z</time>
      </trkpt>
      <trkpt lat="46.6113" lon="5.89625">
        <ele>811.6</ele>
        <time>2022-08-06T07:47:11Z</time>
      </trkpt>
      <trkpt lat="46.61125" lon="5.89653">
        <ele>812.6</ele>
        <time>2022-08-06T07:47:16Z</time>
      </trkpt>
      <trkpt lat="46.6112" lon="5.89679">
        <ele>813.6</ele>
        <time>2022-08-06T07:47:21Z</time>
      </trkpt>
      <trkpt lat="46.61118" lon="5.89683">
        <ele>813.6</ele>
        <time>2022-08-06T07:47:22Z</time>
      </trkpt>
      <trkpt lat="46.61107" lon="5.89701">
        <ele>815</ele>
        <time>2022-08-06T07:47:26Z</time>
      </trkpt>
      <trkpt lat="46.61102" lon="5.89708">
        <ele>815.4</ele>
        <time>2022-08-06T07:47:28Z</time>
      </trkpt>
      <trkpt lat="46.6109" lon="5.8972">
        <ele>815.8</ele>
        <time>2022-08-06T07:47:32Z</time>
      </trkpt>
      <trkpt lat="46.61081" lon="5.89726">
        <ele>816.8</ele>
        <time>2022-08-06T07:47:35Z</time>
      </trkpt>
      <trkpt lat="46.61075" lon="5.89729">
        <ele>817.2</ele>
        <time>2022-08-06T07:47:37Z</time>
      </trkpt>
      <trkpt lat="46.6106" lon="5.89739">
        <ele>818.2</ele>
        <time>2022-08-06T07:47:42Z</time>
      </trkpt>
      <trkpt lat="46.6105" lon="5.89746">
        <ele>818.6</ele>
        <time>2022-08-06T07:47:45Z</time>
      </trkpt>
      <trkpt lat="46.61037" lon="5.89754">
        <ele>819.6</ele>
        <time>2022-08-06T07:47:49Z</time>
      </trkpt>
      <trkpt lat="46.61023" lon="5.8976">
        <ele>820.8</ele>
        <time>2022-08-06T07:47:53Z</time>
      </trkpt>
      <trkpt lat="46.61005" lon="5.8976">
        <ele>822</ele>
        <time>2022-08-06T07:47:58Z</time>
      </trkpt>
      <trkpt lat="46.61001" lon="5.89758">
        <ele>822.2</ele>
        <time>2022-08-06T07:47:59Z</time>
      </trkpt>
      <trkpt lat="46.60987" lon="5.89752">
        <ele>823.2</ele>
        <time>2022-08-06T07:48:03Z</time>
      </trkpt>
      <trkpt lat="46.60967" lon="5.89744">
        <ele>823.6</ele>
        <time>2022-08-06T07:48:09Z</time>
      </trkpt>
      <trkpt lat="46.60956" lon="5.89741">
        <ele>824.4</ele>
        <time>2022-08-06T07:48:12Z</time>
      </trkpt>
      <trkpt lat="46.60942" lon="5.89738">
        <ele>825.6</ele>
        <time>2022-08-06T07:48:16Z</time>
      </trkpt>
      <trkpt lat="46.60932" lon="5.89734">
        <ele>826.2</ele>
        <time>2022-08-06T07:48:19Z</time>
      </trkpt>
      <trkpt lat="46.60926" lon="5.89729">
        <ele>826.6</ele>
        <time>2022-08-06T07:48:21Z</time>
      </trkpt>
      <trkpt lat="46.60916" lon="5.89716">
        <ele>827.2</ele>
        <time>2022-08-06T07:48:25Z</time>
      </trkpt>
      <trkpt lat="46.60907" lon="5.89701">
        <ele>827.4</ele>
        <time>2022-08-06T07:48:29Z</time>
      </trkpt>
      <trkpt lat="46.60898" lon="5.89687">
        <ele>828.4</ele>
        <time>2022-08-06T07:48:33Z</time>
      </trkpt>
      <trkpt lat="46.60893" lon="5.89681">
        <ele>828.6</ele>
        <time>2022-08-06T07:48:35Z</time>
      </trkpt>
      <trkpt lat="46.60887" lon="5.89668">
        <ele>829.2</ele>
        <time>2022-08-06T07:48:38Z</time>
      </trkpt>
      <trkpt lat="46.60883" lon="5.89662">
        <ele>829.8</ele>
        <time>2022-08-06T07:48:40Z</time>
      </trkpt>
      <trkpt lat="46.60878" lon="5.89654">
        <ele>830.4</ele>
        <time>2022-08-06T07:48:42Z</time>
      </trkpt>
      <trkpt lat="46.60875" lon="5.89652">
        <ele>830.6</ele>
        <time>2022-08-06T07:48:43Z</time>
      </trkpt>
      <trkpt lat="46.6087" lon="5.89644">
        <ele>830.8</ele>
        <time>2022-08-06T07:48:45Z</time>
      </trkpt>
      <trkpt lat="46.6086" lon="5.89632">
        <ele>832</ele>
        <time>2022-08-06T07:48:49Z</time>
      </trkpt>
      <trkpt lat="46.60848" lon="5.8962">
        <ele>832.6</ele>
        <time>2022-08-06T07:48:53Z</time>
      </trkpt>
      <trkpt lat="46.60846" lon="5.89616">
        <ele>833</ele>
        <time>2022-08-06T07:48:54Z</time>
      </trkpt>
      <trkpt lat="46.60838" lon="5.89608">
        <ele>833.6</ele>
        <time>2022-08-06T07:48:57Z</time>
      </trkpt>
      <trkpt lat="46.60825" lon="5.89597">
        <ele>834.4</ele>
        <time>2022-08-06T07:49:01Z</time>
      </trkpt>
      <trkpt lat="46.60816" lon="5.8959">
        <ele>834.8</ele>
        <time>2022-08-06T07:49:03Z</time>
      </trkpt>
      <trkpt lat="46.60808" lon="5.89587">
        <ele>835.2</ele>
        <time>2022-08-06T07:49:05Z</time>
      </trkpt>
      <trkpt lat="46.60804" lon="5.89585">
        <ele>835.4</ele>
        <time>2022-08-06T07:49:06Z</time>
      </trkpt>
      <trkpt lat="46.60797" lon="5.89583">
        <ele>835.8</ele>
        <time>2022-08-06T07:49:08Z</time>
      </trkpt>
      <trkpt lat="46.60789" lon="5.89585">
        <ele>835.8</ele>
        <time>2022-08-06T07:49:10Z</time>
      </trkpt>
      <trkpt lat="46.60782" lon="5.89591">
        <ele>835.8</ele>
        <time>2022-08-06T07:49:12Z</time>
      </trkpt>
      <trkpt lat="46.60774" lon="5.89604">
        <ele>836.4</ele>
        <time>2022-08-06T07:49:15Z</time>
      </trkpt>
      <trkpt lat="46.6077" lon="5.89615">
        <ele>836.6</ele>
        <time>2022-08-06T07:49:17Z</time>
      </trkpt>
      <trkpt lat="46.60768" lon="5.89637">
        <ele>837.6</ele>
        <time>2022-08-06T07:49:21Z</time>
      </trkpt>
      <trkpt lat="46.60768" lon="5.89643">
        <ele>837.8</ele>
        <time>2022-08-06T07:49:22Z</time>
      </trkpt>
      <trkpt lat="46.60771" lon="5.89666">
        <ele>839</ele>
        <time>2022-08-06T07:49:26Z</time>
      </trkpt>
      <trkpt lat="46.60773" lon="5.89679">
        <ele>839.4</ele>
        <time>2022-08-06T07:49:28Z</time>
      </trkpt>
      <trkpt lat="46.60775" lon="5.89684">
        <ele>839.4</ele>
        <time>2022-08-06T07:49:29Z</time>
      </trkpt>
      <trkpt lat="46.60776" lon="5.8969">
        <ele>839.8</ele>
        <time>2022-08-06T07:49:30Z</time>
      </trkpt>
      <trkpt lat="46.60781" lon="5.89713">
        <ele>840.2</ele>
        <time>2022-08-06T07:49:34Z</time>
      </trkpt>
      <trkpt lat="46.60784" lon="5.89725">
        <ele>840.6</ele>
        <time>2022-08-06T07:49:36Z</time>
      </trkpt>
      <trkpt lat="46.60789" lon="5.89748">
        <ele>841</ele>
        <time>2022-08-06T07:49:40Z</time>
      </trkpt>
      <trkpt lat="46.6079" lon="5.89755">
        <ele>841</ele>
        <time>2022-08-06T07:49:41Z</time>
      </trkpt>
      <trkpt lat="46.60792" lon="5.89761">
        <ele>841.4</ele>
        <time>2022-08-06T07:49:42Z</time>
      </trkpt>
      <trkpt lat="46.60799" lon="5.89781">
        <ele>842.4</ele>
        <time>2022-08-06T07:49:45Z</time>
      </trkpt>
      <trkpt lat="46.60805" lon="5.89798">
        <ele>842.8</ele>
        <time>2022-08-06T07:49:48Z</time>
      </trkpt>
      <trkpt lat="46.60811" lon="5.89816">
        <ele>843.8</ele>
        <time>2022-08-06T07:49:51Z</time>
      </trkpt>
      <trkpt lat="46.60815" lon="5.89828">
        <ele>844.2</ele>
        <time>2022-08-06T07:49:53Z</time>
      </trkpt>
      <trkpt lat="46.60818" lon="5.89833">
        <ele>844.2</ele>
        <time>2022-08-06T07:49:54Z</time>
      </trkpt>
      <trkpt lat="46.60828" lon="5.89851">
        <ele>844.6</ele>
        <time>2022-08-06T07:49:57Z</time>
      </trkpt>
      <trkpt lat="46.60836" lon="5.89866">
        <ele>845.6</ele>
        <time>2022-08-06T07:50:00Z</time>
      </trkpt>
      <trkpt lat="46.6084" lon="5.8987">
        <ele>845.8</ele>
        <time>2022-08-06T07:50:01Z</time>
      </trkpt>
      <trkpt lat="46.60843" lon="5.89875">
        <ele>846</ele>
        <time>2022-08-06T07:50:02Z</time>
      </trkpt>
      <trkpt lat="46.60849" lon="5.89886">
        <ele>846.2</ele>
        <time>2022-08-06T07:50:04Z</time>
      </trkpt>
      <trkpt lat="46.60851" lon="5.89891">
        <ele>846.8</ele>
        <time>2022-08-06T07:50:05Z</time>
      </trkpt>
      <trkpt lat="46.6085" lon="5.89898">
        <ele>847</ele>
        <time>2022-08-06T07:50:06Z</time>
      </trkpt>
      <trkpt lat="46.60851" lon="5.89914">
        <ele>847.6</ele>
        <time>2022-08-06T07:50:09Z</time>
      </trkpt>
      <trkpt lat="46.60853" lon="5.8993">
        <ele>848</ele>
        <time>2022-08-06T07:50:12Z</time>
      </trkpt>
      <trkpt lat="46.60857" lon="5.89949">
        <ele>848.6</ele>
        <time>2022-08-06T07:50:16Z</time>
      </trkpt>
      <trkpt lat="46.60858" lon="5.89959">
        <ele>849.4</ele>
        <time>2022-08-06T07:50:18Z</time>
      </trkpt>
      <trkpt lat="46.6086" lon="5.89978">
        <ele>850.8</ele>
        <time>2022-08-06T07:50:22Z</time>
      </trkpt>
      <trkpt lat="46.60865" lon="5.90008">
        <ele>851.8</ele>
        <time>2022-08-06T07:50:28Z</time>
      </trkpt>
      <trkpt lat="46.60871" lon="5.90025">
        <ele>852.4</ele>
        <time>2022-08-06T07:50:32Z</time>
      </trkpt>
      <trkpt lat="46.60875" lon="5.90038">
        <ele>853.2</ele>
        <time>2022-08-06T07:50:35Z</time>
      </trkpt>
      <trkpt lat="46.60883" lon="5.9006">
        <ele>854.4</ele>
        <time>2022-08-06T07:50:40Z</time>
      </trkpt>
      <trkpt lat="46.60892" lon="5.90082">
        <ele>855.2</ele>
        <time>2022-08-06T07:50:45Z</time>
      </trkpt>
      <trkpt lat="46.60899" lon="5.90095">
        <ele>855.6</ele>
        <time>2022-08-06T07:50:48Z</time>
      </trkpt>
      <trkpt lat="46.60912" lon="5.90114">
        <ele>856.4</ele>
        <time>2022-08-06T07:50:53Z</time>
      </trkpt>
      <trkpt lat="46.60914" lon="5.90117">
        <ele>856.6</ele>
        <time>2022-08-06T07:50:54Z</time>
      </trkpt>
      <trkpt lat="46.60925" lon="5.9013">
        <ele>857.4</ele>
        <time>2022-08-06T07:50:58Z</time>
      </trkpt>
      <trkpt lat="46.60934" lon="5.90139">
        <ele>858.4</ele>
        <time>2022-08-06T07:51:01Z</time>
      </trkpt>
      <trkpt lat="46.60937" lon="5.90142">
        <ele>858.6</ele>
        <time>2022-08-06T07:51:02Z</time>
      </trkpt>
      <trkpt lat="46.60961" lon="5.90168">
        <ele>859.2</ele>
        <time>2022-08-06T07:51:10Z</time>
      </trkpt>
      <trkpt lat="46.60962" lon="5.90178">
        <ele>859.6</ele>
        <time>2022-08-06T07:51:12Z</time>
      </trkpt>
      <trkpt lat="46.60962" lon="5.90189">
        <ele>860.2</ele>
        <time>2022-08-06T07:51:14Z</time>
      </trkpt>
      <trkpt lat="46.60954" lon="5.90215">
        <ele>860.8</ele>
        <time>2022-08-06T07:51:19Z</time>
      </trkpt>
      <trkpt lat="46.60946" lon="5.90238">
        <ele>861.8</ele>
        <time>2022-08-06T07:51:24Z</time>
      </trkpt>
      <trkpt lat="46.60933" lon="5.90267">
        <ele>863</ele>
        <time>2022-08-06T07:51:30Z</time>
      </trkpt>
      <trkpt lat="46.60929" lon="5.90276">
        <ele>863.4</ele>
        <time>2022-08-06T07:51:32Z</time>
      </trkpt>
      <trkpt lat="46.6092" lon="5.90288">
        <ele>864</ele>
        <time>2022-08-06T07:51:35Z</time>
      </trkpt>
      <trkpt lat="46.60906" lon="5.90309">
        <ele>864.8</ele>
        <time>2022-08-06T07:51:40Z</time>
      </trkpt>
      <trkpt lat="46.60903" lon="5.90313">
        <ele>865.2</ele>
        <time>2022-08-06T07:51:41Z</time>
      </trkpt>
      <trkpt lat="46.60886" lon="5.90332">
        <ele>866.2</ele>
        <time>2022-08-06T07:51:47Z</time>
      </trkpt>
      <trkpt lat="46.60882" lon="5.90335">
        <ele>866.4</ele>
        <time>2022-08-06T07:51:48Z</time>
      </trkpt>
      <trkpt lat="46.6087" lon="5.90346">
        <ele>867.2</ele>
        <time>2022-08-06T07:51:52Z</time>
      </trkpt>
      <trkpt lat="46.60854" lon="5.90356">
        <ele>868</ele>
        <time>2022-08-06T07:51:57Z</time>
      </trkpt>
      <trkpt lat="46.6085" lon="5.90357">
        <ele>868.2</ele>
        <time>2022-08-06T07:51:58Z</time>
      </trkpt>
      <trkpt lat="46.60832" lon="5.90364">
        <ele>869.4</ele>
        <time>2022-08-06T07:52:03Z</time>
      </trkpt>
      <trkpt lat="46.60824" lon="5.90367">
        <ele>869.8</ele>
        <time>2022-08-06T07:52:05Z</time>
      </trkpt>
      <trkpt lat="46.60803" lon="5.90373">
        <ele>870.4</ele>
        <time>2022-08-06T07:52:10Z</time>
      </trkpt>
      <trkpt lat="46.60794" lon="5.90375">
        <ele>870.6</ele>
        <time>2022-08-06T07:52:12Z</time>
      </trkpt>
      <trkpt lat="46.6079" lon="5.90377">
        <ele>870.6</ele>
        <time>2022-08-06T07:52:13Z</time>
      </trkpt>
      <trkpt lat="46.60755" lon="5.90385">
        <ele>871</ele>
        <time>2022-08-06T07:52:20Z</time>
      </trkpt>
      <trkpt lat="46.60701" lon="5.90386">
        <ele>870.6</ele>
        <time>2022-08-06T07:52:29Z</time>
      </trkpt>
      <trkpt lat="46.60665" lon="5.90377">
        <ele>870.6</ele>
        <time>2022-08-06T07:52:35Z</time>
      </trkpt>
      <trkpt lat="46.60658" lon="5.90373">
        <ele>870.6</ele>
        <time>2022-08-06T07:52:36Z</time>
      </trkpt>
      <trkpt lat="46.60626" lon="5.90348">
        <ele>871</ele>
        <time>2022-08-06T07:52:42Z</time>
      </trkpt>
      <trkpt lat="46.6062" lon="5.90344">
        <ele>871</ele>
        <time>2022-08-06T07:52:43Z</time>
      </trkpt>
      <trkpt lat="46.60614" lon="5.90341">
        <ele>871.2</ele>
        <time>2022-08-06T07:52:44Z</time>
      </trkpt>
      <trkpt lat="46.60596" lon="5.90337">
        <ele>871.6</ele>
        <time>2022-08-06T07:52:47Z</time>
      </trkpt>
      <trkpt lat="46.60548" lon="5.90341">
        <ele>872.4</ele>
        <time>2022-08-06T07:52:55Z</time>
      </trkpt>
      <trkpt lat="46.60536" lon="5.90342">
        <ele>872.6</ele>
        <time>2022-08-06T07:52:57Z</time>
      </trkpt>
      <trkpt lat="46.60493" lon="5.90349">
        <ele>872.8</ele>
        <time>2022-08-06T07:53:04Z</time>
      </trkpt>
      <trkpt lat="46.60458" lon="5.90368">
        <ele>872.4</ele>
        <time>2022-08-06T07:53:10Z</time>
      </trkpt>
      <trkpt lat="46.60445" lon="5.90376">
        <ele>872</ele>
        <time>2022-08-06T07:53:12Z</time>
      </trkpt>
      <trkpt lat="46.6043" lon="5.90378">
        <ele>871.6</ele>
        <time>2022-08-06T07:53:14Z</time>
      </trkpt>
      <trkpt lat="46.60413" lon="5.90376">
        <ele>871.2</ele>
        <time>2022-08-06T07:53:16Z</time>
      </trkpt>
      <trkpt lat="46.60397" lon="5.90367">
        <ele>870.8</ele>
        <time>2022-08-06T07:53:18Z</time>
      </trkpt>
      <trkpt lat="46.60389" lon="5.9036">
        <ele>870.2</ele>
        <time>2022-08-06T07:53:19Z</time>
      </trkpt>
      <trkpt lat="46.60374" lon="5.90344">
        <ele>869.2</ele>
        <time>2022-08-06T07:53:21Z</time>
      </trkpt>
      <trkpt lat="46.60367" lon="5.90335">
        <ele>869</ele>
        <time>2022-08-06T07:53:22Z</time>
      </trkpt>
      <trkpt lat="46.60352" lon="5.90316">
        <ele>868</ele>
        <time>2022-08-06T07:53:24Z</time>
      </trkpt>
      <trkpt lat="46.60324" lon="5.90276">
        <ele>866.6</ele>
        <time>2022-08-06T07:53:28Z</time>
      </trkpt>
      <trkpt lat="46.603" lon="5.90248">
        <ele>865.2</ele>
        <time>2022-08-06T07:53:31Z</time>
      </trkpt>
      <trkpt lat="46.60282" lon="5.90234">
        <ele>864.4</ele>
        <time>2022-08-06T07:53:33Z</time>
      </trkpt>
      <trkpt lat="46.60272" lon="5.90229">
        <ele>864</ele>
        <time>2022-08-06T07:53:34Z</time>
      </trkpt>
      <trkpt lat="46.60261" lon="5.90226">
        <ele>863.6</ele>
        <time>2022-08-06T07:53:35Z</time>
      </trkpt>
      <trkpt lat="46.60251" lon="5.90225">
        <ele>863.4</ele>
        <time>2022-08-06T07:53:36Z</time>
      </trkpt>
      <trkpt lat="46.6024" lon="5.90225">
        <ele>862.8</ele>
        <time>2022-08-06T07:53:37Z</time>
      </trkpt>
      <trkpt lat="46.60219" lon="5.9023">
        <ele>862</ele>
        <time>2022-08-06T07:53:39Z</time>
      </trkpt>
      <trkpt lat="46.60208" lon="5.90234">
        <ele>861.2</ele>
        <time>2022-08-06T07:53:40Z</time>
      </trkpt>
      <trkpt lat="46.60178" lon="5.90251">
        <ele>860.2</ele>
        <time>2022-08-06T07:53:43Z</time>
      </trkpt>
      <trkpt lat="46.60148" lon="5.9027">
        <ele>859</ele>
        <time>2022-08-06T07:53:46Z</time>
      </trkpt>
      <trkpt lat="46.60129" lon="5.90284">
        <ele>858</ele>
        <time>2022-08-06T07:53:48Z</time>
      </trkpt>
      <trkpt lat="46.6011" lon="5.90296">
        <ele>856.8</ele>
        <time>2022-08-06T07:53:50Z</time>
      </trkpt>
      <trkpt lat="46.6008" lon="5.90315">
        <ele>855.2</ele>
        <time>2022-08-06T07:53:53Z</time>
      </trkpt>
      <trkpt lat="46.6007" lon="5.9032">
        <ele>854.6</ele>
        <time>2022-08-06T07:53:54Z</time>
      </trkpt>
      <trkpt lat="46.60059" lon="5.90323">
        <ele>854.4</ele>
        <time>2022-08-06T07:53:55Z</time>
      </trkpt>
      <trkpt lat="46.60048" lon="5.90325">
        <ele>854</ele>
        <time>2022-08-06T07:53:56Z</time>
      </trkpt>
      <trkpt lat="46.60037" lon="5.90325">
        <ele>853.8</ele>
        <time>2022-08-06T07:53:57Z</time>
      </trkpt>
      <trkpt lat="46.60015" lon="5.9032">
        <ele>853.2</ele>
        <time>2022-08-06T07:53:59Z</time>
      </trkpt>
      <trkpt lat="46.60004" lon="5.90315">
        <ele>852</ele>
        <time>2022-08-06T07:54:00Z</time>
      </trkpt>
      <trkpt lat="46.59994" lon="5.90308">
        <ele>851.2</ele>
        <time>2022-08-06T07:54:01Z</time>
      </trkpt>
      <trkpt lat="46.59984" lon="5.90299">
        <ele>850.8</ele>
        <time>2022-08-06T07:54:02Z</time>
      </trkpt>
      <trkpt lat="46.59975" lon="5.90288">
        <ele>850.2</ele>
        <time>2022-08-06T07:54:03Z</time>
      </trkpt>
      <trkpt lat="46.59959" lon="5.90262">
        <ele>849</ele>
        <time>2022-08-06T07:54:05Z</time>
      </trkpt>
      <trkpt lat="46.59945" lon="5.90235">
        <ele>847.6</ele>
        <time>2022-08-06T07:54:07Z</time>
      </trkpt>
      <trkpt lat="46.59929" lon="5.9021">
        <ele>846.8</ele>
        <time>2022-08-06T07:54:09Z</time>
      </trkpt>
      <trkpt lat="46.5992" lon="5.90199">
        <ele>846.4</ele>
        <time>2022-08-06T07:54:10Z</time>
      </trkpt>
      <trkpt lat="46.5991" lon="5.90189">
        <ele>845.8</ele>
        <time>2022-08-06T07:54:11Z</time>
      </trkpt>
      <trkpt lat="46.599" lon="5.90181">
        <ele>844.6</ele>
        <time>2022-08-06T07:54:12Z</time>
      </trkpt>
      <trkpt lat="46.59889" lon="5.90175">
        <ele>844</ele>
        <time>2022-08-06T07:54:13Z</time>
      </trkpt>
      <trkpt lat="46.59877" lon="5.90171">
        <ele>843.4</ele>
        <time>2022-08-06T07:54:14Z</time>
      </trkpt>
      <trkpt lat="46.59866" lon="5.90168">
        <ele>842.8</ele>
        <time>2022-08-06T07:54:15Z</time>
      </trkpt>
      <trkpt lat="46.59854" lon="5.90167">
        <ele>842</ele>
        <time>2022-08-06T07:54:16Z</time>
      </trkpt>
      <trkpt lat="46.59842" lon="5.90167">
        <ele>841.2</ele>
        <time>2022-08-06T07:54:17Z</time>
      </trkpt>
      <trkpt lat="46.59831" lon="5.90167">
        <ele>840.8</ele>
        <time>2022-08-06T07:54:18Z</time>
      </trkpt>
      <trkpt lat="46.59798" lon="5.90168">
        <ele>839.8</ele>
        <time>2022-08-06T07:54:21Z</time>
      </trkpt>
      <trkpt lat="46.59755" lon="5.90172">
        <ele>838.8</ele>
        <time>2022-08-06T07:54:25Z</time>
      </trkpt>
      <trkpt lat="46.59745" lon="5.90176">
        <ele>838.6</ele>
        <time>2022-08-06T07:54:26Z</time>
      </trkpt>
      <trkpt lat="46.59725" lon="5.90187">
        <ele>838.4</ele>
        <time>2022-08-06T07:54:28Z</time>
      </trkpt>
      <trkpt lat="46.59716" lon="5.90195">
        <ele>838.4</ele>
        <time>2022-08-06T07:54:29Z</time>
      </trkpt>
      <trkpt lat="46.59691" lon="5.90224">
        <ele>837.4</ele>
        <time>2022-08-06T07:54:32Z</time>
      </trkpt>
      <trkpt lat="46.59683" lon="5.90235">
        <ele>836.8</ele>
        <time>2022-08-06T07:54:33Z</time>
      </trkpt>
      <trkpt lat="46.59668" lon="5.90257">
        <ele>835.8</ele>
        <time>2022-08-06T07:54:35Z</time>
      </trkpt>
      <trkpt lat="46.59651" lon="5.90276">
        <ele>834.8</ele>
        <time>2022-08-06T07:54:37Z</time>
      </trkpt>
      <trkpt lat="46.59641" lon="5.90284">
        <ele>834.6</ele>
        <time>2022-08-06T07:54:38Z</time>
      </trkpt>
      <trkpt lat="46.59631" lon="5.9029">
        <ele>834.2</ele>
        <time>2022-08-06T07:54:39Z</time>
      </trkpt>
      <trkpt lat="46.59599" lon="5.90305">
        <ele>832.8</ele>
        <time>2022-08-06T07:54:42Z</time>
      </trkpt>
      <trkpt lat="46.5958" lon="5.90317">
        <ele>831.8</ele>
        <time>2022-08-06T07:54:44Z</time>
      </trkpt>
      <trkpt lat="46.59571" lon="5.90326">
        <ele>831.2</ele>
        <time>2022-08-06T07:54:45Z</time>
      </trkpt>
      <trkpt lat="46.59563" lon="5.90336">
        <ele>830.6</ele>
        <time>2022-08-06T07:54:46Z</time>
      </trkpt>
      <trkpt lat="46.5955" lon="5.90359">
        <ele>830</ele>
        <time>2022-08-06T07:54:48Z</time>
      </trkpt>
      <trkpt lat="46.59539" lon="5.90383">
        <ele>829.4</ele>
        <time>2022-08-06T07:54:50Z</time>
      </trkpt>
      <trkpt lat="46.59516" lon="5.90442">
        <ele>828.4</ele>
        <time>2022-08-06T07:54:55Z</time>
      </trkpt>
      <trkpt lat="46.5951" lon="5.90465">
        <ele>828.2</ele>
        <time>2022-08-06T07:54:57Z</time>
      </trkpt>
      <trkpt lat="46.59508" lon="5.90488">
        <ele>828.2</ele>
        <time>2022-08-06T07:54:59Z</time>
      </trkpt>
      <trkpt lat="46.59509" lon="5.90533">
        <ele>828.6</ele>
        <time>2022-08-06T07:55:03Z</time>
      </trkpt>
      <trkpt lat="46.59524" lon="5.90585">
        <ele>828.8</ele>
        <time>2022-08-06T07:55:08Z</time>
      </trkpt>
      <trkpt lat="46.59549" lon="5.90658">
        <ele>829.2</ele>
        <time>2022-08-06T07:55:16Z</time>
      </trkpt>
      <trkpt lat="46.59564" lon="5.90701">
        <ele>829.6</ele>
        <time>2022-08-06T07:55:21Z</time>
      </trkpt>
      <trkpt lat="46.59571" lon="5.90717">
        <ele>829.8</ele>
        <time>2022-08-06T07:55:23Z</time>
      </trkpt>
      <trkpt lat="46.59597" lon="5.90766">
        <ele>830.8</ele>
        <time>2022-08-06T07:55:30Z</time>
      </trkpt>
      <trkpt lat="46.59601" lon="5.90773">
        <ele>830.8</ele>
        <time>2022-08-06T07:55:31Z</time>
      </trkpt>
      <trkpt lat="46.59625" lon="5.90813">
        <ele>831.8</ele>
        <time>2022-08-06T07:55:37Z</time>
      </trkpt>
      <trkpt lat="46.59653" lon="5.90858">
        <ele>832.4</ele>
        <time>2022-08-06T07:55:44Z</time>
      </trkpt>
      <trkpt lat="46.59678" lon="5.90893">
        <ele>832.8</ele>
        <time>2022-08-06T07:55:50Z</time>
      </trkpt>
      <trkpt lat="46.59692" lon="5.90909">
        <ele>833.2</ele>
        <time>2022-08-06T07:55:53Z</time>
      </trkpt>
      <trkpt lat="46.59716" lon="5.90937">
        <ele>834</ele>
        <time>2022-08-06T07:55:58Z</time>
      </trkpt>
      <trkpt lat="46.5973" lon="5.90953">
        <ele>834.2</ele>
        <time>2022-08-06T07:56:01Z</time>
      </trkpt>
      <trkpt lat="46.59769" lon="5.90991">
        <ele>834.6</ele>
        <time>2022-08-06T07:56:09Z</time>
      </trkpt>
      <trkpt lat="46.59788" lon="5.91011">
        <ele>835</ele>
        <time>2022-08-06T07:56:13Z</time>
      </trkpt>
      <trkpt lat="46.59801" lon="5.91027">
        <ele>835.4</ele>
        <time>2022-08-06T07:56:16Z</time>
      </trkpt>
      <trkpt lat="46.59827" lon="5.91062">
        <ele>836</ele>
        <time>2022-08-06T07:56:22Z</time>
      </trkpt>
      <trkpt lat="46.59835" lon="5.91074">
        <ele>836.4</ele>
        <time>2022-08-06T07:56:24Z</time>
      </trkpt>
      <trkpt lat="46.59854" lon="5.91105">
        <ele>837</ele>
        <time>2022-08-06T07:56:29Z</time>
      </trkpt>
      <trkpt lat="46.59858" lon="5.91111">
        <ele>837.2</ele>
        <time>2022-08-06T07:56:30Z</time>
      </trkpt>
      <trkpt lat="46.59865" lon="5.91124">
        <ele>837.4</ele>
        <time>2022-08-06T07:56:32Z</time>
      </trkpt>
      <trkpt lat="46.5989" lon="5.91166">
        <ele>837.8</ele>
        <time>2022-08-06T07:56:39Z</time>
      </trkpt>
      <trkpt lat="46.59901" lon="5.91183">
        <ele>838.2</ele>
        <time>2022-08-06T07:56:42Z</time>
      </trkpt>
      <trkpt lat="46.59925" lon="5.91216">
        <ele>839.2</ele>
        <time>2022-08-06T07:56:48Z</time>
      </trkpt>
      <trkpt lat="46.5993" lon="5.91222">
        <ele>839.4</ele>
        <time>2022-08-06T07:56:49Z</time>
      </trkpt>
      <trkpt lat="46.59965" lon="5.91264">
        <ele>840</ele>
        <time>2022-08-06T07:56:57Z</time>
      </trkpt>
      <trkpt lat="46.59997" lon="5.91299">
        <ele>840.4</ele>
        <time>2022-08-06T07:57:04Z</time>
      </trkpt>
      <trkpt lat="46.60009" lon="5.91315">
        <ele>840.8</ele>
        <time>2022-08-06T07:57:07Z</time>
      </trkpt>
      <trkpt lat="46.60013" lon="5.91321">
        <ele>840.8</ele>
        <time>2022-08-06T07:57:08Z</time>
      </trkpt>
      <trkpt lat="46.60028" lon="5.91355">
        <ele>841</ele>
        <time>2022-08-06T07:57:13Z</time>
      </trkpt>
      <trkpt lat="46.6003" lon="5.91371">
        <ele>841.2</ele>
        <time>2022-08-06T07:57:15Z</time>
      </trkpt>
      <trkpt lat="46.60031" lon="5.91378">
        <ele>841.6</ele>
        <time>2022-08-06T07:57:16Z</time>
      </trkpt>
      <trkpt lat="46.60032" lon="5.91392">
        <ele>841.8</ele>
        <time>2022-08-06T07:57:18Z</time>
      </trkpt>
      <trkpt lat="46.60025" lon="5.91445">
        <ele>842.4</ele>
        <time>2022-08-06T07:57:25Z</time>
      </trkpt>
      <trkpt lat="46.60023" lon="5.91452">
        <ele>842.6</ele>
        <time>2022-08-06T07:57:26Z</time>
      </trkpt>
      <trkpt lat="46.6002" lon="5.91467">
        <ele>842.8</ele>
        <time>2022-08-06T07:57:28Z</time>
      </trkpt>
      <trkpt lat="46.60015" lon="5.9148">
        <ele>843</ele>
        <time>2022-08-06T07:57:30Z</time>
      </trkpt>
      <trkpt lat="46.60012" lon="5.91487">
        <ele>843.2</ele>
        <time>2022-08-06T07:57:31Z</time>
      </trkpt>
      <trkpt lat="46.60006" lon="5.915">
        <ele>843.4</ele>
        <time>2022-08-06T07:57:33Z</time>
      </trkpt>
      <trkpt lat="46.59999" lon="5.9151">
        <ele>843.6</ele>
        <time>2022-08-06T07:57:35Z</time>
      </trkpt>
      <trkpt lat="46.59995" lon="5.91515">
        <ele>843.8</ele>
        <time>2022-08-06T07:57:36Z</time>
      </trkpt>
      <trkpt lat="46.59987" lon="5.91523">
        <ele>844.4</ele>
        <time>2022-08-06T07:57:38Z</time>
      </trkpt>
      <trkpt lat="46.59979" lon="5.91528">
        <ele>845</ele>
        <time>2022-08-06T07:57:40Z</time>
      </trkpt>
      <trkpt lat="46.59974" lon="5.91531">
        <ele>845.2</ele>
        <time>2022-08-06T07:57:41Z</time>
      </trkpt>
      <trkpt lat="46.59957" lon="5.91538">
        <ele>845.8</ele>
        <time>2022-08-06T07:57:45Z</time>
      </trkpt>
      <trkpt lat="46.59953" lon="5.91538">
        <ele>846.2</ele>
        <time>2022-08-06T07:57:46Z</time>
      </trkpt>
      <trkpt lat="46.59948" lon="5.9154">
        <ele>846.6</ele>
        <time>2022-08-06T07:57:47Z</time>
      </trkpt>
      <trkpt lat="46.5994" lon="5.91541">
        <ele>847.4</ele>
        <time>2022-08-06T07:57:49Z</time>
      </trkpt>
      <trkpt lat="46.59935" lon="5.91542">
        <ele>847.6</ele>
        <time>2022-08-06T07:57:50Z</time>
      </trkpt>
      <trkpt lat="46.59918" lon="5.91538">
        <ele>848.6</ele>
        <time>2022-08-06T07:57:54Z</time>
      </trkpt>
      <trkpt lat="46.59906" lon="5.91535">
        <ele>849</ele>
        <time>2022-08-06T07:57:56Z</time>
      </trkpt>
      <trkpt lat="46.59894" lon="5.91534">
        <ele>849.6</ele>
        <time>2022-08-06T07:57:58Z</time>
      </trkpt>
      <trkpt lat="46.59872" lon="5.91531">
        <ele>850.6</ele>
        <time>2022-08-06T07:58:03Z</time>
      </trkpt>
      <trkpt lat="46.59851" lon="5.91526">
        <ele>851.8</ele>
        <time>2022-08-06T07:58:08Z</time>
      </trkpt>
      <trkpt lat="46.59847" lon="5.91525">
        <ele>852</ele>
        <time>2022-08-06T07:58:09Z</time>
      </trkpt>
      <trkpt lat="46.59835" lon="5.91525">
        <ele>852.8</ele>
        <time>2022-08-06T07:58:12Z</time>
      </trkpt>
      <trkpt lat="46.59811" lon="5.91522">
        <ele>853.6</ele>
        <time>2022-08-06T07:58:18Z</time>
      </trkpt>
      <trkpt lat="46.59802" lon="5.91521">
        <ele>853.8</ele>
        <time>2022-08-06T07:58:20Z</time>
      </trkpt>
      <trkpt lat="46.59793" lon="5.91517">
        <ele>854.2</ele>
        <time>2022-08-06T07:58:22Z</time>
      </trkpt>
      <trkpt lat="46.59786" lon="5.91514">
        <ele>854.4</ele>
        <time>2022-08-06T07:58:24Z</time>
      </trkpt>
      <trkpt lat="46.59781" lon="5.91511">
        <ele>854.6</ele>
        <time>2022-08-06T07:58:25Z</time>
      </trkpt>
      <trkpt lat="46.59778" lon="5.91508">
        <ele>854.8</ele>
        <time>2022-08-06T07:58:26Z</time>
      </trkpt>
      <trkpt lat="46.59768" lon="5.91501">
        <ele>855</ele>
        <time>2022-08-06T07:58:29Z</time>
      </trkpt>
      <trkpt lat="46.59758" lon="5.91493">
        <ele>855.2</ele>
        <time>2022-08-06T07:58:32Z</time>
      </trkpt>
      <trkpt lat="46.59747" lon="5.91487">
        <ele>856</ele>
        <time>2022-08-06T07:58:35Z</time>
      </trkpt>
      <trkpt lat="46.59732" lon="5.91483">
        <ele>857.2</ele>
        <time>2022-08-06T07:58:39Z</time>
      </trkpt>
      <trkpt lat="46.597" lon="5.91483">
        <ele>858.4</ele>
        <time>2022-08-06T07:58:47Z</time>
      </trkpt>
      <trkpt lat="46.59668" lon="5.91498">
        <ele>859.4</ele>
        <time>2022-08-06T07:58:55Z</time>
      </trkpt>
      <trkpt lat="46.59647" lon="5.91503">
        <ele>860.2</ele>
        <time>2022-08-06T07:59:00Z</time>
      </trkpt>
      <trkpt lat="46.59639" lon="5.91504">
        <ele>860.4</ele>
        <time>2022-08-06T07:59:02Z</time>
      </trkpt>
      <trkpt lat="46.59631" lon="5.91503">
        <ele>860.6</ele>
        <time>2022-08-06T07:59:04Z</time>
      </trkpt>
      <trkpt lat="46.5961" lon="5.915">
        <ele>861.6</ele>
        <time>2022-08-06T07:59:09Z</time>
      </trkpt>
      <trkpt lat="46.59588" lon="5.91496">
        <ele>862.4</ele>
        <time>2022-08-06T07:59:14Z</time>
      </trkpt>
      <trkpt lat="46.59578" lon="5.91497">
        <ele>862.8</ele>
        <time>2022-08-06T07:59:16Z</time>
      </trkpt>
      <trkpt lat="46.59553" lon="5.91501">
        <ele>863</ele>
        <time>2022-08-06T07:59:21Z</time>
      </trkpt>
      <trkpt lat="46.59537" lon="5.91508">
        <ele>863.2</ele>
        <time>2022-08-06T07:59:24Z</time>
      </trkpt>
      <trkpt lat="46.59524" lon="5.91517">
        <ele>863.4</ele>
        <time>2022-08-06T07:59:27Z</time>
      </trkpt>
      <trkpt lat="46.59518" lon="5.91521">
        <ele>863.8</ele>
        <time>2022-08-06T07:59:28Z</time>
      </trkpt>
      <trkpt lat="46.59474" lon="5.91553">
        <ele>864.8</ele>
        <time>2022-08-06T07:59:37Z</time>
      </trkpt>
      <trkpt lat="46.59444" lon="5.91574">
        <ele>865.8</ele>
        <time>2022-08-06T07:59:43Z</time>
      </trkpt>
      <trkpt lat="46.59434" lon="5.9158">
        <ele>866</ele>
        <time>2022-08-06T07:59:45Z</time>
      </trkpt>
      <trkpt lat="46.59418" lon="5.91594">
        <ele>866.8</ele>
        <time>2022-08-06T07:59:49Z</time>
      </trkpt>
      <trkpt lat="46.59409" lon="5.91602">
        <ele>867.4</ele>
        <time>2022-08-06T07:59:51Z</time>
      </trkpt>
      <trkpt lat="46.59405" lon="5.91606">
        <ele>867.6</ele>
        <time>2022-08-06T07:59:52Z</time>
      </trkpt>
      <trkpt lat="46.59401" lon="5.91611">
        <ele>868.2</ele>
        <time>2022-08-06T07:59:53Z</time>
      </trkpt>
      <trkpt lat="46.59396" lon="5.91615">
        <ele>868.4</ele>
        <time>2022-08-06T07:59:54Z</time>
      </trkpt>
      <trkpt lat="46.59391" lon="5.91619">
        <ele>868.6</ele>
        <time>2022-08-06T07:59:55Z</time>
      </trkpt>
      <trkpt lat="46.59386" lon="5.91624">
        <ele>868.8</ele>
        <time>2022-08-06T07:59:56Z</time>
      </trkpt>
      <trkpt lat="46.59367" lon="5.91643">
        <ele>868.8</ele>
        <time>2022-08-06T08:00:00Z</time>
      </trkpt>
      <trkpt lat="46.59331" lon="5.91677">
        <ele>868.6</ele>
        <time>2022-08-06T08:00:07Z</time>
      </trkpt>
      <trkpt lat="46.59316" lon="5.91692">
        <ele>868.8</ele>
        <time>2022-08-06T08:00:10Z</time>
      </trkpt>
      <trkpt lat="46.59305" lon="5.91703">
        <ele>868.8</ele>
        <time>2022-08-06T08:00:12Z</time>
      </trkpt>
      <trkpt lat="46.5927" lon="5.91745">
        <ele>869</ele>
        <time>2022-08-06T08:00:19Z</time>
      </trkpt>
      <trkpt lat="46.59245" lon="5.91783">
        <ele>869</ele>
        <time>2022-08-06T08:00:24Z</time>
      </trkpt>
      <trkpt lat="46.59237" lon="5.91797">
        <ele>868.8</ele>
        <time>2022-08-06T08:00:26Z</time>
      </trkpt>
      <trkpt lat="46.59227" lon="5.91813">
        <ele>868.2</ele>
        <time>2022-08-06T08:00:28Z</time>
      </trkpt>
      <trkpt lat="46.59218" lon="5.91829">
        <ele>867.4</ele>
        <time>2022-08-06T08:00:30Z</time>
      </trkpt>
      <trkpt lat="46.59208" lon="5.91846">
        <ele>866.8</ele>
        <time>2022-08-06T08:00:32Z</time>
      </trkpt>
      <trkpt lat="46.59201" lon="5.91855">
        <ele>866.6</ele>
        <time>2022-08-06T08:00:33Z</time>
      </trkpt>
      <trkpt lat="46.59189" lon="5.91869">
        <ele>866.4</ele>
        <time>2022-08-06T08:00:35Z</time>
      </trkpt>
      <trkpt lat="46.59176" lon="5.91881">
        <ele>865.8</ele>
        <time>2022-08-06T08:00:37Z</time>
      </trkpt>
      <trkpt lat="46.59162" lon="5.91891">
        <ele>865.2</ele>
        <time>2022-08-06T08:00:39Z</time>
      </trkpt>
      <trkpt lat="46.59128" lon="5.91915">
        <ele>864.4</ele>
        <time>2022-08-06T08:00:44Z</time>
      </trkpt>
      <trkpt lat="46.59096" lon="5.91936">
        <ele>864.4</ele>
        <time>2022-08-06T08:00:49Z</time>
      </trkpt>
      <trkpt lat="46.59049" lon="5.91968">
        <ele>865</ele>
        <time>2022-08-06T08:00:57Z</time>
      </trkpt>
      <trkpt lat="46.59004" lon="5.91999">
        <ele>866.2</ele>
        <time>2022-08-06T08:01:05Z</time>
      </trkpt>
      <trkpt lat="46.58998" lon="5.92004">
        <ele>866.2</ele>
        <time>2022-08-06T08:01:06Z</time>
      </trkpt>
      <trkpt lat="46.58963" lon="5.92028">
        <ele>867</ele>
        <time>2022-08-06T08:01:13Z</time>
      </trkpt>
      <trkpt lat="46.58958" lon="5.92032">
        <ele>867</ele>
        <time>2022-08-06T08:01:14Z</time>
      </trkpt>
      <trkpt lat="46.58949" lon="5.92039">
        <ele>867.2</ele>
        <time>2022-08-06T08:01:16Z</time>
      </trkpt>
      <trkpt lat="46.58925" lon="5.92055">
        <ele>868.2</ele>
        <time>2022-08-06T08:01:21Z</time>
      </trkpt>
      <trkpt lat="46.58916" lon="5.92061">
        <ele>868.8</ele>
        <time>2022-08-06T08:01:23Z</time>
      </trkpt>
      <trkpt lat="46.58903" lon="5.92071">
        <ele>869.2</ele>
        <time>2022-08-06T08:01:26Z</time>
      </trkpt>
      <trkpt lat="46.58875" lon="5.92091">
        <ele>870.2</ele>
        <time>2022-08-06T08:01:33Z</time>
      </trkpt>
      <trkpt lat="46.58871" lon="5.92094">
        <ele>870.2</ele>
        <time>2022-08-06T08:01:34Z</time>
      </trkpt>
      <trkpt lat="46.58866" lon="5.92096">
        <ele>870.4</ele>
        <time>2022-08-06T08:01:35Z</time>
      </trkpt>
      <trkpt lat="46.58848" lon="5.92103">
        <ele>871.6</ele>
        <time>2022-08-06T08:01:39Z</time>
      </trkpt>
      <trkpt lat="46.5881" lon="5.92107">
        <ele>872.6</ele>
        <time>2022-08-06T08:01:47Z</time>
      </trkpt>
      <trkpt lat="46.58773" lon="5.92114">
        <ele>873</ele>
        <time>2022-08-06T08:01:55Z</time>
      </trkpt>
      <trkpt lat="46.58757" lon="5.92122">
        <ele>873.4</ele>
        <time>2022-08-06T08:01:59Z</time>
      </trkpt>
      <trkpt lat="46.58754" lon="5.92126">
        <ele>873.8</ele>
        <time>2022-08-06T08:02:00Z</time>
      </trkpt>
      <trkpt lat="46.58751" lon="5.92129">
        <ele>874</ele>
        <time>2022-08-06T08:02:01Z</time>
      </trkpt>
      <trkpt lat="46.58745" lon="5.92139">
        <ele>874.8</ele>
        <time>2022-08-06T08:02:05Z</time>
      </trkpt>
      <trkpt lat="46.58744" lon="5.9214">
        <ele>874.8</ele>
        <time>2022-08-06T08:02:06Z</time>
      </trkpt>
      <trkpt lat="46.58745" lon="5.9214">
        <ele>875</ele>
        <time>2022-08-06T08:02:09Z</time>
      </trkpt>
      <trkpt lat="46.58745" lon="5.9214">
        <ele>875.2</ele>
        <time>2022-08-06T08:02:11Z</time>
      </trkpt>
      <trkpt lat="46.58737" lon="5.92139">
        <ele>876.2</ele>
        <time>2022-08-06T08:04:04Z</time>
      </trkpt>
      <trkpt lat="46.58735" lon="5.92143">
        <ele>876.2</ele>
        <time>2022-08-06T08:04:05Z</time>
      </trkpt>
      <trkpt lat="46.58719" lon="5.92163">
        <ele>876</ele>
        <time>2022-08-06T08:04:10Z</time>
      </trkpt>
      <trkpt lat="46.58703" lon="5.92199">
        <ele>876.4</ele>
        <time>2022-08-06T08:04:16Z</time>
      </trkpt>
      <trkpt lat="46.58691" lon="5.9223">
        <ele>877.2</ele>
        <time>2022-08-06T08:04:21Z</time>
      </trkpt>
      <trkpt lat="46.58684" lon="5.92247">
        <ele>877.4</ele>
        <time>2022-08-06T08:04:24Z</time>
      </trkpt>
      <trkpt lat="46.58678" lon="5.92263">
        <ele>878.2</ele>
        <time>2022-08-06T08:04:27Z</time>
      </trkpt>
      <trkpt lat="46.58672" lon="5.9228">
        <ele>879</ele>
        <time>2022-08-06T08:04:30Z</time>
      </trkpt>
      <trkpt lat="46.58667" lon="5.92291">
        <ele>879.4</ele>
        <time>2022-08-06T08:04:32Z</time>
      </trkpt>
      <trkpt lat="46.58656" lon="5.92323">
        <ele>880.2</ele>
        <time>2022-08-06T08:04:38Z</time>
      </trkpt>
      <trkpt lat="46.58655" lon="5.92328">
        <ele>880.4</ele>
        <time>2022-08-06T08:04:39Z</time>
      </trkpt>
      <trkpt lat="46.58653" lon="5.92333">
        <ele>880.8</ele>
        <time>2022-08-06T08:04:40Z</time>
      </trkpt>
      <trkpt lat="46.58645" lon="5.92353">
        <ele>881.6</ele>
        <time>2022-08-06T08:04:44Z</time>
      </trkpt>
      <trkpt lat="46.58623" lon="5.9239">
        <ele>882.4</ele>
        <time>2022-08-06T08:04:52Z</time>
      </trkpt>
      <trkpt lat="46.5862" lon="5.92394">
        <ele>882.6</ele>
        <time>2022-08-06T08:04:53Z</time>
      </trkpt>
      <trkpt lat="46.58596" lon="5.92421">
        <ele>883.8</ele>
        <time>2022-08-06T08:05:00Z</time>
      </trkpt>
      <trkpt lat="46.58585" lon="5.9243">
        <ele>884</ele>
        <time>2022-08-06T08:05:03Z</time>
      </trkpt>
      <trkpt lat="46.58571" lon="5.92441">
        <ele>884.8</ele>
        <time>2022-08-06T08:05:07Z</time>
      </trkpt>
      <trkpt lat="46.5855" lon="5.92455">
        <ele>885.2</ele>
        <time>2022-08-06T08:05:12Z</time>
      </trkpt>
      <trkpt lat="46.58532" lon="5.92464">
        <ele>885.8</ele>
        <time>2022-08-06T08:05:16Z</time>
      </trkpt>
      <trkpt lat="46.58509" lon="5.92472">
        <ele>886.8</ele>
        <time>2022-08-06T08:05:21Z</time>
      </trkpt>
      <trkpt lat="46.58505" lon="5.92473">
        <ele>886.8</ele>
        <time>2022-08-06T08:05:22Z</time>
      </trkpt>
      <trkpt lat="46.58496" lon="5.92475">
        <ele>887.2</ele>
        <time>2022-08-06T08:05:24Z</time>
      </trkpt>
      <trkpt lat="46.58468" lon="5.9248">
        <ele>887.8</ele>
        <time>2022-08-06T08:05:30Z</time>
      </trkpt>
      <trkpt lat="46.58463" lon="5.92481">
        <ele>888</ele>
        <time>2022-08-06T08:05:31Z</time>
      </trkpt>
      <trkpt lat="46.58421" lon="5.92489">
        <ele>888.8</ele>
        <time>2022-08-06T08:05:39Z</time>
      </trkpt>
      <trkpt lat="46.58411" lon="5.92492">
        <ele>889</ele>
        <time>2022-08-06T08:05:41Z</time>
      </trkpt>
      <trkpt lat="46.58379" lon="5.92501">
        <ele>890</ele>
        <time>2022-08-06T08:05:47Z</time>
      </trkpt>
      <trkpt lat="46.58367" lon="5.92505">
        <ele>890.4</ele>
        <time>2022-08-06T08:05:49Z</time>
      </trkpt>
      <trkpt lat="46.5834" lon="5.92522">
        <ele>891</ele>
        <time>2022-08-06T08:05:54Z</time>
      </trkpt>
      <trkpt lat="46.58293" lon="5.9257">
        <ele>891.4</ele>
        <time>2022-08-06T08:06:03Z</time>
      </trkpt>
      <trkpt lat="46.58246" lon="5.92627">
        <ele>891.4</ele>
        <time>2022-08-06T08:06:12Z</time>
      </trkpt>
      <trkpt lat="46.5824" lon="5.92635">
        <ele>891.2</ele>
        <time>2022-08-06T08:06:13Z</time>
      </trkpt>
      <trkpt lat="46.58199" lon="5.92686">
        <ele>890.6</ele>
        <time>2022-08-06T08:06:20Z</time>
      </trkpt>
      <trkpt lat="46.58193" lon="5.92693">
        <ele>890.2</ele>
        <time>2022-08-06T08:06:21Z</time>
      </trkpt>
      <trkpt lat="46.58149" lon="5.92748">
        <ele>888.6</ele>
        <time>2022-08-06T08:06:28Z</time>
      </trkpt>
      <trkpt lat="46.58121" lon="5.9278">
        <ele>887</ele>
        <time>2022-08-06T08:06:32Z</time>
      </trkpt>
      <trkpt lat="46.58099" lon="5.92805">
        <ele>886</ele>
        <time>2022-08-06T08:06:35Z</time>
      </trkpt>
      <trkpt lat="46.58078" lon="5.92828">
        <ele>885.4</ele>
        <time>2022-08-06T08:06:38Z</time>
      </trkpt>
      <trkpt lat="46.58064" lon="5.92844">
        <ele>884.6</ele>
        <time>2022-08-06T08:06:40Z</time>
      </trkpt>
      <trkpt lat="46.58024" lon="5.92893">
        <ele>883.8</ele>
        <time>2022-08-06T08:06:46Z</time>
      </trkpt>
      <trkpt lat="46.58016" lon="5.92898">
        <ele>883.6</ele>
        <time>2022-08-06T08:06:47Z</time>
      </trkpt>
      <trkpt lat="46.58008" lon="5.92898">
        <ele>883.6</ele>
        <time>2022-08-06T08:06:48Z</time>
      </trkpt>
      <trkpt lat="46.58001" lon="5.92895">
        <ele>883.6</ele>
        <time>2022-08-06T08:06:49Z</time>
      </trkpt>
      <trkpt lat="46.57995" lon="5.9289">
        <ele>883.6</ele>
        <time>2022-08-06T08:06:50Z</time>
      </trkpt>
      <trkpt lat="46.57979" lon="5.92878">
        <ele>883.2</ele>
        <time>2022-08-06T08:06:52Z</time>
      </trkpt>
      <trkpt lat="46.57961" lon="5.92871">
        <ele>883</ele>
        <time>2022-08-06T08:06:54Z</time>
      </trkpt>
      <trkpt lat="46.57942" lon="5.92867">
        <ele>882.4</ele>
        <time>2022-08-06T08:06:56Z</time>
      </trkpt>
      <trkpt lat="46.579" lon="5.92852">
        <ele>881.4</ele>
        <time>2022-08-06T08:07:01Z</time>
      </trkpt>
      <trkpt lat="46.57856" lon="5.92826">
        <ele>881.4</ele>
        <time>2022-08-06T08:07:07Z</time>
      </trkpt>
      <trkpt lat="46.57813" lon="5.92815">
        <ele>881.8</ele>
        <time>2022-08-06T08:07:13Z</time>
      </trkpt>
      <trkpt lat="46.578" lon="5.92813">
        <ele>882.4</ele>
        <time>2022-08-06T08:07:15Z</time>
      </trkpt>
      <trkpt lat="46.57771" lon="5.92805">
        <ele>883.4</ele>
        <time>2022-08-06T08:07:20Z</time>
      </trkpt>
      <trkpt lat="46.57755" lon="5.92802">
        <ele>884.4</ele>
        <time>2022-08-06T08:07:23Z</time>
      </trkpt>
      <trkpt lat="46.57749" lon="5.92802">
        <ele>884.6</ele>
        <time>2022-08-06T08:07:24Z</time>
      </trkpt>
      <trkpt lat="46.57745" lon="5.92802">
        <ele>885.4</ele>
        <time>2022-08-06T08:07:25Z</time>
      </trkpt>
      <trkpt lat="46.5774" lon="5.92803">
        <ele>886</ele>
        <time>2022-08-06T08:07:26Z</time>
      </trkpt>
      <trkpt lat="46.5772" lon="5.92803">
        <ele>887.4</ele>
        <time>2022-08-06T08:07:30Z</time>
      </trkpt>
      <trkpt lat="46.57715" lon="5.92802">
        <ele>887.6</ele>
        <time>2022-08-06T08:07:31Z</time>
      </trkpt>
      <trkpt lat="46.57711" lon="5.92802">
        <ele>888.2</ele>
        <time>2022-08-06T08:07:32Z</time>
      </trkpt>
      <trkpt lat="46.57705" lon="5.92801">
        <ele>888.6</ele>
        <time>2022-08-06T08:07:33Z</time>
      </trkpt>
      <trkpt lat="46.57701" lon="5.928">
        <ele>888.8</ele>
        <time>2022-08-06T08:07:34Z</time>
      </trkpt>
      <trkpt lat="46.57692" lon="5.92796">
        <ele>889.2</ele>
        <time>2022-08-06T08:07:36Z</time>
      </trkpt>
      <trkpt lat="46.57678" lon="5.92785">
        <ele>889.8</ele>
        <time>2022-08-06T08:07:39Z</time>
      </trkpt>
      <trkpt lat="46.57663" lon="5.92769">
        <ele>890.8</ele>
        <time>2022-08-06T08:07:42Z</time>
      </trkpt>
      <trkpt lat="46.57658" lon="5.92763">
        <ele>890.8</ele>
        <time>2022-08-06T08:07:43Z</time>
      </trkpt>
      <trkpt lat="46.57643" lon="5.92745">
        <ele>891</ele>
        <time>2022-08-06T08:07:46Z</time>
      </trkpt>
      <trkpt lat="46.57615" lon="5.92715">
        <ele>890.6</ele>
        <time>2022-08-06T08:07:50Z</time>
      </trkpt>
      <trkpt lat="46.57599" lon="5.92702">
        <ele>889.8</ele>
        <time>2022-08-06T08:07:52Z</time>
      </trkpt>
      <trkpt lat="46.57582" lon="5.92689">
        <ele>888.6</ele>
        <time>2022-08-06T08:07:54Z</time>
      </trkpt>
      <trkpt lat="46.57574" lon="5.92683">
        <ele>887.6</ele>
        <time>2022-08-06T08:07:55Z</time>
      </trkpt>
      <trkpt lat="46.57565" lon="5.92676">
        <ele>886.6</ele>
        <time>2022-08-06T08:07:56Z</time>
      </trkpt>
      <trkpt lat="46.57557" lon="5.92669">
        <ele>886.4</ele>
        <time>2022-08-06T08:07:57Z</time>
      </trkpt>
      <trkpt lat="46.57516" lon="5.92645">
        <ele>885.2</ele>
        <time>2022-08-06T08:08:02Z</time>
      </trkpt>
      <trkpt lat="46.57507" lon="5.9264">
        <ele>885</ele>
        <time>2022-08-06T08:08:03Z</time>
      </trkpt>
      <trkpt lat="46.5747" lon="5.92617">
        <ele>884.6</ele>
        <time>2022-08-06T08:08:08Z</time>
      </trkpt>
      <trkpt lat="46.57456" lon="5.92605">
        <ele>884.4</ele>
        <time>2022-08-06T08:08:10Z</time>
      </trkpt>
      <trkpt lat="46.57441" lon="5.92587">
        <ele>884.4</ele>
        <time>2022-08-06T08:08:12Z</time>
      </trkpt>
      <trkpt lat="46.57427" lon="5.92564">
        <ele>884.2</ele>
        <time>2022-08-06T08:08:14Z</time>
      </trkpt>
      <trkpt lat="46.57409" lon="5.92531">
        <ele>882.4</ele>
        <time>2022-08-06T08:08:17Z</time>
      </trkpt>
      <trkpt lat="46.57398" lon="5.92508">
        <ele>881.4</ele>
        <time>2022-08-06T08:08:19Z</time>
      </trkpt>
      <trkpt lat="46.57389" lon="5.92486">
        <ele>880.6</ele>
        <time>2022-08-06T08:08:21Z</time>
      </trkpt>
      <trkpt lat="46.5737" lon="5.92444">
        <ele>880.2</ele>
        <time>2022-08-06T08:08:25Z</time>
      </trkpt>
      <trkpt lat="46.57359" lon="5.9242">
        <ele>880</ele>
        <time>2022-08-06T08:08:27Z</time>
      </trkpt>
      <trkpt lat="46.57327" lon="5.9235">
        <ele>879.4</ele>
        <time>2022-08-06T08:08:32Z</time>
      </trkpt>
      <trkpt lat="46.5732" lon="5.92335">
        <ele>878.2</ele>
        <time>2022-08-06T08:08:33Z</time>
      </trkpt>
      <trkpt lat="46.57305" lon="5.92308">
        <ele>875.6</ele>
        <time>2022-08-06T08:08:35Z</time>
      </trkpt>
      <trkpt lat="46.57288" lon="5.92283">
        <ele>873.4</ele>
        <time>2022-08-06T08:08:37Z</time>
      </trkpt>
      <trkpt lat="46.57279" lon="5.92272">
        <ele>872.6</ele>
        <time>2022-08-06T08:08:38Z</time>
      </trkpt>
      <trkpt lat="46.57269" lon="5.92262">
        <ele>871.6</ele>
        <time>2022-08-06T08:08:39Z</time>
      </trkpt>
      <trkpt lat="46.57256" lon="5.92252">
        <ele>871</ele>
        <time>2022-08-06T08:08:40Z</time>
      </trkpt>
      <trkpt lat="46.57247" lon="5.92246">
        <ele>870.6</ele>
        <time>2022-08-06T08:08:41Z</time>
      </trkpt>
      <trkpt lat="46.57211" lon="5.92223">
        <ele>869.2</ele>
        <time>2022-08-06T08:08:44Z</time>
      </trkpt>
      <trkpt lat="46.57187" lon="5.92207">
        <ele>868</ele>
        <time>2022-08-06T08:08:46Z</time>
      </trkpt>
      <trkpt lat="46.57175" lon="5.92198">
        <ele>866.8</ele>
        <time>2022-08-06T08:08:47Z</time>
      </trkpt>
      <trkpt lat="46.57153" lon="5.92182">
        <ele>865.8</ele>
        <time>2022-08-06T08:08:49Z</time>
      </trkpt>
      <trkpt lat="46.5713" lon="5.92165">
        <ele>864.4</ele>
        <time>2022-08-06T08:08:51Z</time>
      </trkpt>
      <trkpt lat="46.57119" lon="5.92157">
        <ele>863.2</ele>
        <time>2022-08-06T08:08:52Z</time>
      </trkpt>
      <trkpt lat="46.57108" lon="5.92148">
        <ele>861.6</ele>
        <time>2022-08-06T08:08:53Z</time>
      </trkpt>
      <trkpt lat="46.57089" lon="5.9213">
        <ele>860.4</ele>
        <time>2022-08-06T08:08:55Z</time>
      </trkpt>
      <trkpt lat="46.5705" lon="5.92088">
        <ele>859.8</ele>
        <time>2022-08-06T08:09:00Z</time>
      </trkpt>
      <trkpt lat="46.57015" lon="5.92037">
        <ele>861.4</ele>
        <time>2022-08-06T08:09:06Z</time>
      </trkpt>
      <trkpt lat="46.57009" lon="5.92029">
        <ele>861.8</ele>
        <time>2022-08-06T08:09:07Z</time>
      </trkpt>
      <trkpt lat="46.56992" lon="5.92005">
        <ele>862.2</ele>
        <time>2022-08-06T08:09:10Z</time>
      </trkpt>
      <trkpt lat="46.56979" lon="5.91992">
        <ele>862.2</ele>
        <time>2022-08-06T08:09:12Z</time>
      </trkpt>
      <trkpt lat="46.56953" lon="5.91972">
        <ele>863</ele>
        <time>2022-08-06T08:09:16Z</time>
      </trkpt>
      <trkpt lat="46.56947" lon="5.91968">
        <ele>863.2</ele>
        <time>2022-08-06T08:09:17Z</time>
      </trkpt>
      <trkpt lat="46.56927" lon="5.91957">
        <ele>864</ele>
        <time>2022-08-06T08:09:20Z</time>
      </trkpt>
      <trkpt lat="46.56921" lon="5.91953">
        <ele>864.2</ele>
        <time>2022-08-06T08:09:21Z</time>
      </trkpt>
      <trkpt lat="46.56917" lon="5.9195">
        <ele>864.4</ele>
        <time>2022-08-06T08:09:22Z</time>
      </trkpt>
      <trkpt lat="46.56899" lon="5.91937">
        <ele>865.4</ele>
        <time>2022-08-06T08:09:25Z</time>
      </trkpt>
      <trkpt lat="46.56874" lon="5.91921">
        <ele>866.4</ele>
        <time>2022-08-06T08:09:29Z</time>
      </trkpt>
      <trkpt lat="46.56838" lon="5.91893">
        <ele>867.4</ele>
        <time>2022-08-06T08:09:35Z</time>
      </trkpt>
      <trkpt lat="46.56821" lon="5.91878">
        <ele>867.6</ele>
        <time>2022-08-06T08:09:38Z</time>
      </trkpt>
      <trkpt lat="46.56795" lon="5.9185">
        <ele>868</ele>
        <time>2022-08-06T08:09:43Z</time>
      </trkpt>
      <trkpt lat="46.5677" lon="5.91824">
        <ele>868.6</ele>
        <time>2022-08-06T08:09:48Z</time>
      </trkpt>
      <trkpt lat="46.5676" lon="5.91815">
        <ele>869</ele>
        <time>2022-08-06T08:09:50Z</time>
      </trkpt>
      <trkpt lat="46.56741" lon="5.91795">
        <ele>869.6</ele>
        <time>2022-08-06T08:09:54Z</time>
      </trkpt>
      <trkpt lat="46.56726" lon="5.91776">
        <ele>870.4</ele>
        <time>2022-08-06T08:09:57Z</time>
      </trkpt>
      <trkpt lat="46.56721" lon="5.91771">
        <ele>870.8</ele>
        <time>2022-08-06T08:09:58Z</time>
      </trkpt>
      <trkpt lat="46.56715" lon="5.91766">
        <ele>871</ele>
        <time>2022-08-06T08:09:59Z</time>
      </trkpt>
      <trkpt lat="46.56698" lon="5.91756">
        <ele>871.4</ele>
        <time>2022-08-06T08:10:02Z</time>
      </trkpt>
      <trkpt lat="46.56657" lon="5.91738">
        <ele>871.8</ele>
        <time>2022-08-06T08:10:08Z</time>
      </trkpt>
      <trkpt lat="46.56608" lon="5.91721">
        <ele>871.4</ele>
        <time>2022-08-06T08:10:14Z</time>
      </trkpt>
      <trkpt lat="46.56568" lon="5.91714">
        <ele>869.8</ele>
        <time>2022-08-06T08:10:19Z</time>
      </trkpt>
      <trkpt lat="46.56561" lon="5.91713">
        <ele>869.6</ele>
        <time>2022-08-06T08:10:20Z</time>
      </trkpt>
      <trkpt lat="46.56504" lon="5.91703">
        <ele>870.4</ele>
        <time>2022-08-06T08:10:28Z</time>
      </trkpt>
      <trkpt lat="46.56469" lon="5.9169">
        <ele>871</ele>
        <time>2022-08-06T08:10:33Z</time>
      </trkpt>
      <trkpt lat="46.56446" lon="5.91679">
        <ele>871</ele>
        <time>2022-08-06T08:10:36Z</time>
      </trkpt>
      <trkpt lat="46.56398" lon="5.91656">
        <ele>870.6</ele>
        <time>2022-08-06T08:10:42Z</time>
      </trkpt>
      <trkpt lat="46.56364" lon="5.91644">
        <ele>870.2</ele>
        <time>2022-08-06T08:10:46Z</time>
      </trkpt>
      <trkpt lat="46.56347" lon="5.91643">
        <ele>870</ele>
        <time>2022-08-06T08:10:48Z</time>
      </trkpt>
      <trkpt lat="46.5634" lon="5.91643">
        <ele>869.8</ele>
        <time>2022-08-06T08:10:49Z</time>
      </trkpt>
      <trkpt lat="46.56287" lon="5.91639">
        <ele>869.4</ele>
        <time>2022-08-06T08:10:55Z</time>
      </trkpt>
      <trkpt lat="46.56244" lon="5.91623">
        <ele>868.6</ele>
        <time>2022-08-06T08:11:00Z</time>
      </trkpt>
      <trkpt lat="46.56204" lon="5.91607">
        <ele>868.2</ele>
        <time>2022-08-06T08:11:05Z</time>
      </trkpt>
      <trkpt lat="46.5618" lon="5.91593">
        <ele>868</ele>
        <time>2022-08-06T08:11:08Z</time>
      </trkpt>
      <trkpt lat="46.56165" lon="5.9158">
        <ele>868</ele>
        <time>2022-08-06T08:11:10Z</time>
      </trkpt>
      <trkpt lat="46.56159" lon="5.91572">
        <ele>868</ele>
        <time>2022-08-06T08:11:11Z</time>
      </trkpt>
      <trkpt lat="46.56142" lon="5.91546">
        <ele>868</ele>
        <time>2022-08-06T08:11:14Z</time>
      </trkpt>
      <trkpt lat="46.5612" lon="5.91504">
        <ele>868.4</ele>
        <time>2022-08-06T08:11:19Z</time>
      </trkpt>
      <trkpt lat="46.56106" lon="5.91475">
        <ele>869.8</ele>
        <time>2022-08-06T08:11:23Z</time>
      </trkpt>
      <trkpt lat="46.56103" lon="5.91468">
        <ele>870</ele>
        <time>2022-08-06T08:11:24Z</time>
      </trkpt>
      <trkpt lat="46.561" lon="5.91462">
        <ele>870.6</ele>
        <time>2022-08-06T08:11:25Z</time>
      </trkpt>
      <trkpt lat="46.56097" lon="5.91456">
        <ele>871</ele>
        <time>2022-08-06T08:11:26Z</time>
      </trkpt>
      <trkpt lat="46.56084" lon="5.91438">
        <ele>872.4</ele>
        <time>2022-08-06T08:11:29Z</time>
      </trkpt>
      <trkpt lat="46.56075" lon="5.91428">
        <ele>873.4</ele>
        <time>2022-08-06T08:11:31Z</time>
      </trkpt>
      <trkpt lat="46.5607" lon="5.91424">
        <ele>874</ele>
        <time>2022-08-06T08:11:32Z</time>
      </trkpt>
      <trkpt lat="46.56049" lon="5.91411">
        <ele>874.4</ele>
        <time>2022-08-06T08:11:35Z</time>
      </trkpt>
      <trkpt lat="46.56014" lon="5.91396">
        <ele>874</ele>
        <time>2022-08-06T08:11:39Z</time>
      </trkpt>
      <trkpt lat="46.55994" lon="5.91388">
        <ele>873</ele>
        <time>2022-08-06T08:11:41Z</time>
      </trkpt>
      <trkpt lat="46.55973" lon="5.91381">
        <ele>871.6</ele>
        <time>2022-08-06T08:11:43Z</time>
      </trkpt>
      <trkpt lat="46.55962" lon="5.91379">
        <ele>870.8</ele>
        <time>2022-08-06T08:11:44Z</time>
      </trkpt>
      <trkpt lat="46.5595" lon="5.91378">
        <ele>870.2</ele>
        <time>2022-08-06T08:11:45Z</time>
      </trkpt>
      <trkpt lat="46.55938" lon="5.91377">
        <ele>868.8</ele>
        <time>2022-08-06T08:11:46Z</time>
      </trkpt>
      <trkpt lat="46.55926" lon="5.91377">
        <ele>867.8</ele>
        <time>2022-08-06T08:11:47Z</time>
      </trkpt>
      <trkpt lat="46.55914" lon="5.91376">
        <ele>867.4</ele>
        <time>2022-08-06T08:11:48Z</time>
      </trkpt>
      <trkpt lat="46.55902" lon="5.91375">
        <ele>866.4</ele>
        <time>2022-08-06T08:11:49Z</time>
      </trkpt>
      <trkpt lat="46.55877" lon="5.91367">
        <ele>864.4</ele>
        <time>2022-08-06T08:11:51Z</time>
      </trkpt>
      <trkpt lat="46.55865" lon="5.91363">
        <ele>863.6</ele>
        <time>2022-08-06T08:11:52Z</time>
      </trkpt>
      <trkpt lat="46.55853" lon="5.91358">
        <ele>862.4</ele>
        <time>2022-08-06T08:11:53Z</time>
      </trkpt>
      <trkpt lat="46.55829" lon="5.91351">
        <ele>860.6</ele>
        <time>2022-08-06T08:11:55Z</time>
      </trkpt>
      <trkpt lat="46.55819" lon="5.9135">
        <ele>859.8</ele>
        <time>2022-08-06T08:11:56Z</time>
      </trkpt>
      <trkpt lat="46.55807" lon="5.91352">
        <ele>859.2</ele>
        <time>2022-08-06T08:11:57Z</time>
      </trkpt>
      <trkpt lat="46.55784" lon="5.9136">
        <ele>858</ele>
        <time>2022-08-06T08:11:59Z</time>
      </trkpt>
      <trkpt lat="46.55773" lon="5.91362">
        <ele>857.2</ele>
        <time>2022-08-06T08:12:00Z</time>
      </trkpt>
      <trkpt lat="46.55759" lon="5.9136">
        <ele>856.6</ele>
        <time>2022-08-06T08:12:01Z</time>
      </trkpt>
      <trkpt lat="46.55738" lon="5.91352">
        <ele>855.4</ele>
        <time>2022-08-06T08:12:03Z</time>
      </trkpt>
      <trkpt lat="46.55726" lon="5.91348">
        <ele>855.4</ele>
        <time>2022-08-06T08:12:04Z</time>
      </trkpt>
      <trkpt lat="46.55714" lon="5.91346">
        <ele>855</ele>
        <time>2022-08-06T08:12:05Z</time>
      </trkpt>
      <trkpt lat="46.55702" lon="5.91347">
        <ele>854.4</ele>
        <time>2022-08-06T08:12:06Z</time>
      </trkpt>
      <trkpt lat="46.55688" lon="5.91349">
        <ele>853.4</ele>
        <time>2022-08-06T08:12:07Z</time>
      </trkpt>
      <trkpt lat="46.55678" lon="5.91351">
        <ele>852.8</ele>
        <time>2022-08-06T08:12:08Z</time>
      </trkpt>
      <trkpt lat="46.55666" lon="5.91353">
        <ele>851.8</ele>
        <time>2022-08-06T08:12:09Z</time>
      </trkpt>
      <trkpt lat="46.55642" lon="5.91348">
        <ele>850.4</ele>
        <time>2022-08-06T08:12:11Z</time>
      </trkpt>
      <trkpt lat="46.55618" lon="5.91337">
        <ele>849.4</ele>
        <time>2022-08-06T08:12:13Z</time>
      </trkpt>
      <trkpt lat="46.55595" lon="5.91324">
        <ele>848.2</ele>
        <time>2022-08-06T08:12:15Z</time>
      </trkpt>
      <trkpt lat="46.5557" lon="5.9131">
        <ele>847.4</ele>
        <time>2022-08-06T08:12:17Z</time>
      </trkpt>
      <trkpt lat="46.55545" lon="5.91299">
        <ele>845.8</ele>
        <time>2022-08-06T08:12:19Z</time>
      </trkpt>
      <trkpt lat="46.55532" lon="5.91295">
        <ele>845.4</ele>
        <time>2022-08-06T08:12:20Z</time>
      </trkpt>
      <trkpt lat="46.55519" lon="5.91294">
        <ele>844.4</ele>
        <time>2022-08-06T08:12:21Z</time>
      </trkpt>
      <trkpt lat="46.55505" lon="5.91296">
        <ele>843.6</ele>
        <time>2022-08-06T08:12:22Z</time>
      </trkpt>
      <trkpt lat="46.55492" lon="5.91302">
        <ele>842.6</ele>
        <time>2022-08-06T08:12:23Z</time>
      </trkpt>
      <trkpt lat="46.5548" lon="5.91309">
        <ele>841.6</ele>
        <time>2022-08-06T08:12:24Z</time>
      </trkpt>
      <trkpt lat="46.55458" lon="5.91325">
        <ele>839.8</ele>
        <time>2022-08-06T08:12:26Z</time>
      </trkpt>
      <trkpt lat="46.55437" lon="5.91342">
        <ele>839.2</ele>
        <time>2022-08-06T08:12:28Z</time>
      </trkpt>
      <trkpt lat="46.55419" lon="5.91364">
        <ele>838.8</ele>
        <time>2022-08-06T08:12:30Z</time>
      </trkpt>
      <trkpt lat="46.55404" lon="5.91387">
        <ele>838.8</ele>
        <time>2022-08-06T08:12:32Z</time>
      </trkpt>
      <trkpt lat="46.55389" lon="5.91407">
        <ele>838.8</ele>
        <time>2022-08-06T08:12:34Z</time>
      </trkpt>
      <trkpt lat="46.55371" lon="5.91421">
        <ele>838.8</ele>
        <time>2022-08-06T08:12:36Z</time>
      </trkpt>
      <trkpt lat="46.55336" lon="5.9143">
        <ele>839.8</ele>
        <time>2022-08-06T08:12:40Z</time>
      </trkpt>
      <trkpt lat="46.55328" lon="5.9143">
        <ele>840</ele>
        <time>2022-08-06T08:12:41Z</time>
      </trkpt>
      <trkpt lat="46.55306" lon="5.91427">
        <ele>841.2</ele>
        <time>2022-08-06T08:12:44Z</time>
      </trkpt>
      <trkpt lat="46.553" lon="5.91426">
        <ele>841.4</ele>
        <time>2022-08-06T08:12:45Z</time>
      </trkpt>
      <trkpt lat="46.55293" lon="5.91424">
        <ele>842.4</ele>
        <time>2022-08-06T08:12:46Z</time>
      </trkpt>
      <trkpt lat="46.55287" lon="5.91423">
        <ele>843.4</ele>
        <time>2022-08-06T08:12:47Z</time>
      </trkpt>
      <trkpt lat="46.55268" lon="5.91421">
        <ele>844.6</ele>
        <time>2022-08-06T08:12:50Z</time>
      </trkpt>
      <trkpt lat="46.55262" lon="5.91419">
        <ele>845</ele>
        <time>2022-08-06T08:12:51Z</time>
      </trkpt>
      <trkpt lat="46.5525" lon="5.91416">
        <ele>845.8</ele>
        <time>2022-08-06T08:12:53Z</time>
      </trkpt>
      <trkpt lat="46.55226" lon="5.91412">
        <ele>846.8</ele>
        <time>2022-08-06T08:12:57Z</time>
      </trkpt>
      <trkpt lat="46.55209" lon="5.91413">
        <ele>848</ele>
        <time>2022-08-06T08:13:00Z</time>
      </trkpt>
      <trkpt lat="46.55178" lon="5.91422">
        <ele>849.4</ele>
        <time>2022-08-06T08:13:05Z</time>
      </trkpt>
      <trkpt lat="46.55172" lon="5.91425">
        <ele>849.8</ele>
        <time>2022-08-06T08:13:06Z</time>
      </trkpt>
      <trkpt lat="46.55152" lon="5.91447">
        <ele>850.4</ele>
        <time>2022-08-06T08:13:10Z</time>
      </trkpt>
      <trkpt lat="46.55148" lon="5.91454">
        <ele>850.6</ele>
        <time>2022-08-06T08:13:11Z</time>
      </trkpt>
      <trkpt lat="46.55144" lon="5.91461">
        <ele>850.8</ele>
        <time>2022-08-06T08:13:12Z</time>
      </trkpt>
      <trkpt lat="46.55136" lon="5.91486">
        <ele>851</ele>
        <time>2022-08-06T08:13:15Z</time>
      </trkpt>
      <trkpt lat="46.55119" lon="5.91543">
        <ele>850.8</ele>
        <time>2022-08-06T08:13:21Z</time>
      </trkpt>
      <trkpt lat="46.5511" lon="5.91586">
        <ele>850.8</ele>
        <time>2022-08-06T08:13:25Z</time>
      </trkpt>
      <trkpt lat="46.5511" lon="5.91597">
        <ele>850.4</ele>
        <time>2022-08-06T08:13:26Z</time>
      </trkpt>
      <trkpt lat="46.5511" lon="5.91675">
        <ele>849.6</ele>
        <time>2022-08-06T08:13:33Z</time>
      </trkpt>
      <trkpt lat="46.5511" lon="5.91687">
        <ele>849.4</ele>
        <time>2022-08-06T08:13:34Z</time>
      </trkpt>
      <trkpt lat="46.55104" lon="5.91709">
        <ele>849.4</ele>
        <time>2022-08-06T08:13:36Z</time>
      </trkpt>
      <trkpt lat="46.55095" lon="5.91729">
        <ele>849.2</ele>
        <time>2022-08-06T08:13:38Z</time>
      </trkpt>
      <trkpt lat="46.55083" lon="5.91746">
        <ele>849</ele>
        <time>2022-08-06T08:13:40Z</time>
      </trkpt>
      <trkpt lat="46.55057" lon="5.91775">
        <ele>848.4</ele>
        <time>2022-08-06T08:13:44Z</time>
      </trkpt>
      <trkpt lat="46.55038" lon="5.91795">
        <ele>847.6</ele>
        <time>2022-08-06T08:13:47Z</time>
      </trkpt>
      <trkpt lat="46.55026" lon="5.91809">
        <ele>847.2</ele>
        <time>2022-08-06T08:13:49Z</time>
      </trkpt>
      <trkpt lat="46.54986" lon="5.91854">
        <ele>846.8</ele>
        <time>2022-08-06T08:13:56Z</time>
      </trkpt>
      <trkpt lat="46.54952" lon="5.91904">
        <ele>846.6</ele>
        <time>2022-08-06T08:14:02Z</time>
      </trkpt>
      <trkpt lat="46.54921" lon="5.91962">
        <ele>846</ele>
        <time>2022-08-06T08:14:08Z</time>
      </trkpt>
      <trkpt lat="46.54917" lon="5.9197">
        <ele>845.6</ele>
        <time>2022-08-06T08:14:09Z</time>
      </trkpt>
      <trkpt lat="46.54902" lon="5.91999">
        <ele>844.8</ele>
        <time>2022-08-06T08:14:12Z</time>
      </trkpt>
      <trkpt lat="46.54876" lon="5.9205">
        <ele>843.6</ele>
        <time>2022-08-06T08:14:17Z</time>
      </trkpt>
      <trkpt lat="46.54866" lon="5.92068">
        <ele>843.2</ele>
        <time>2022-08-06T08:14:19Z</time>
      </trkpt>
      <trkpt lat="46.54857" lon="5.92082">
        <ele>843</ele>
        <time>2022-08-06T08:14:21Z</time>
      </trkpt>
      <trkpt lat="46.54851" lon="5.92086">
        <ele>843</ele>
        <time>2022-08-06T08:14:22Z</time>
      </trkpt>
      <trkpt lat="46.54842" lon="5.92087">
        <ele>842.8</ele>
        <time>2022-08-06T08:14:23Z</time>
      </trkpt>
      <trkpt lat="46.54827" lon="5.92079">
        <ele>842.8</ele>
        <time>2022-08-06T08:14:25Z</time>
      </trkpt>
      <trkpt lat="46.54813" lon="5.9207">
        <ele>842.6</ele>
        <time>2022-08-06T08:14:27Z</time>
      </trkpt>
      <trkpt lat="46.54761" lon="5.92034">
        <ele>842</ele>
        <time>2022-08-06T08:14:34Z</time>
      </trkpt>
      <trkpt lat="46.54715" lon="5.91983">
        <ele>841.6</ele>
        <time>2022-08-06T08:14:41Z</time>
      </trkpt>
      <trkpt lat="46.54674" lon="5.91938">
        <ele>842.4</ele>
        <time>2022-08-06T08:14:48Z</time>
      </trkpt>
      <trkpt lat="46.54644" lon="5.91904">
        <ele>843.6</ele>
        <time>2022-08-06T08:14:54Z</time>
      </trkpt>
      <trkpt lat="46.54639" lon="5.91898">
        <ele>843.8</ele>
        <time>2022-08-06T08:14:55Z</time>
      </trkpt>
      <trkpt lat="46.54609" lon="5.91868">
        <ele>845</ele>
        <time>2022-08-06T08:15:01Z</time>
      </trkpt>
      <trkpt lat="46.54604" lon="5.91864">
        <ele>845.2</ele>
        <time>2022-08-06T08:15:02Z</time>
      </trkpt>
      <trkpt lat="46.54578" lon="5.91837">
        <ele>846.4</ele>
        <time>2022-08-06T08:15:08Z</time>
      </trkpt>
      <trkpt lat="46.54573" lon="5.91832">
        <ele>846.6</ele>
        <time>2022-08-06T08:15:09Z</time>
      </trkpt>
      <trkpt lat="46.5455" lon="5.9181">
        <ele>847.6</ele>
        <time>2022-08-06T08:15:14Z</time>
      </trkpt>
      <trkpt lat="46.54537" lon="5.91798">
        <ele>848.2</ele>
        <time>2022-08-06T08:15:17Z</time>
      </trkpt>
      <trkpt lat="46.54517" lon="5.91782">
        <ele>848.8</ele>
        <time>2022-08-06T08:15:21Z</time>
      </trkpt>
      <trkpt lat="46.54492" lon="5.91758">
        <ele>849.2</ele>
        <time>2022-08-06T08:15:26Z</time>
      </trkpt>
      <trkpt lat="46.54484" lon="5.91746">
        <ele>849.2</ele>
        <time>2022-08-06T08:15:28Z</time>
      </trkpt>
      <trkpt lat="46.54469" lon="5.91722">
        <ele>849.6</ele>
        <time>2022-08-06T08:15:32Z</time>
      </trkpt>
      <trkpt lat="46.5446" lon="5.91712">
        <ele>849.8</ele>
        <time>2022-08-06T08:15:34Z</time>
      </trkpt>
      <trkpt lat="46.54437" lon="5.91691">
        <ele>850.4</ele>
        <time>2022-08-06T08:15:39Z</time>
      </trkpt>
      <trkpt lat="46.54427" lon="5.91685">
        <ele>850.6</ele>
        <time>2022-08-06T08:15:41Z</time>
      </trkpt>
      <trkpt lat="46.54422" lon="5.91683">
        <ele>851</ele>
        <time>2022-08-06T08:15:42Z</time>
      </trkpt>
      <trkpt lat="46.54406" lon="5.91678">
        <ele>851.4</ele>
        <time>2022-08-06T08:15:45Z</time>
      </trkpt>
      <trkpt lat="46.54376" lon="5.91668">
        <ele>852.4</ele>
        <time>2022-08-06T08:15:51Z</time>
      </trkpt>
      <trkpt lat="46.54363" lon="5.91664">
        <ele>853</ele>
        <time>2022-08-06T08:15:54Z</time>
      </trkpt>
      <trkpt lat="46.54346" lon="5.9166">
        <ele>853.6</ele>
        <time>2022-08-06T08:15:58Z</time>
      </trkpt>
      <trkpt lat="46.54323" lon="5.91655">
        <ele>854.4</ele>
        <time>2022-08-06T08:16:03Z</time>
      </trkpt>
      <trkpt lat="46.54314" lon="5.91653">
        <ele>854.8</ele>
        <time>2022-08-06T08:16:05Z</time>
      </trkpt>
      <trkpt lat="46.54287" lon="5.91647">
        <ele>855.8</ele>
        <time>2022-08-06T08:16:11Z</time>
      </trkpt>
      <trkpt lat="46.54274" lon="5.91642">
        <ele>856.2</ele>
        <time>2022-08-06T08:16:14Z</time>
      </trkpt>
      <trkpt lat="46.54265" lon="5.91637">
        <ele>856.4</ele>
        <time>2022-08-06T08:16:16Z</time>
      </trkpt>
      <trkpt lat="46.54253" lon="5.91628">
        <ele>857</ele>
        <time>2022-08-06T08:16:19Z</time>
      </trkpt>
      <trkpt lat="46.54244" lon="5.91624">
        <ele>857.2</ele>
        <time>2022-08-06T08:16:21Z</time>
      </trkpt>
      <trkpt lat="46.54226" lon="5.91617">
        <ele>858.2</ele>
        <time>2022-08-06T08:16:25Z</time>
      </trkpt>
      <trkpt lat="46.54207" lon="5.91614">
        <ele>858.8</ele>
        <time>2022-08-06T08:16:29Z</time>
      </trkpt>
      <trkpt lat="46.54202" lon="5.91614">
        <ele>859</ele>
        <time>2022-08-06T08:16:30Z</time>
      </trkpt>
      <trkpt lat="46.54192" lon="5.91614">
        <ele>859.2</ele>
        <time>2022-08-06T08:16:32Z</time>
      </trkpt>
      <trkpt lat="46.54166" lon="5.91614">
        <ele>860.4</ele>
        <time>2022-08-06T08:16:38Z</time>
      </trkpt>
      <trkpt lat="46.54162" lon="5.91614">
        <ele>860.6</ele>
        <time>2022-08-06T08:16:39Z</time>
      </trkpt>
      <trkpt lat="46.5414" lon="5.91614">
        <ele>861.4</ele>
        <time>2022-08-06T08:16:44Z</time>
      </trkpt>
      <trkpt lat="46.54118" lon="5.91616">
        <ele>862.4</ele>
        <time>2022-08-06T08:16:49Z</time>
      </trkpt>
      <trkpt lat="46.54114" lon="5.91615">
        <ele>862.4</ele>
        <time>2022-08-06T08:16:50Z</time>
      </trkpt>
      <trkpt lat="46.5411" lon="5.91612">
        <ele>862.8</ele>
        <time>2022-08-06T08:16:51Z</time>
      </trkpt>
      <trkpt lat="46.54107" lon="5.91607">
        <ele>863</ele>
        <time>2022-08-06T08:16:52Z</time>
      </trkpt>
      <trkpt lat="46.54105" lon="5.91602">
        <ele>863.2</ele>
        <time>2022-08-06T08:16:53Z</time>
      </trkpt>
      <trkpt lat="46.54104" lon="5.91589">
        <ele>863.6</ele>
        <time>2022-08-06T08:16:55Z</time>
      </trkpt>
      <trkpt lat="46.54113" lon="5.91557">
        <ele>864.6</ele>
        <time>2022-08-06T08:17:00Z</time>
      </trkpt>
      <trkpt lat="46.54115" lon="5.9155">
        <ele>864.6</ele>
        <time>2022-08-06T08:17:01Z</time>
      </trkpt>
      <trkpt lat="46.54131" lon="5.91507">
        <ele>865.8</ele>
        <time>2022-08-06T08:17:08Z</time>
      </trkpt>
      <trkpt lat="46.54138" lon="5.91486">
        <ele>866.4</ele>
        <time>2022-08-06T08:17:11Z</time>
      </trkpt>
      <trkpt lat="46.54143" lon="5.91469">
        <ele>866.8</ele>
        <time>2022-08-06T08:17:14Z</time>
      </trkpt>
      <trkpt lat="46.54147" lon="5.91449">
        <ele>867.4</ele>
        <time>2022-08-06T08:17:17Z</time>
      </trkpt>
      <trkpt lat="46.54148" lon="5.91442">
        <ele>867.6</ele>
        <time>2022-08-06T08:17:18Z</time>
      </trkpt>
      <trkpt lat="46.54148" lon="5.9143">
        <ele>868</ele>
        <time>2022-08-06T08:17:20Z</time>
      </trkpt>
      <trkpt lat="46.54147" lon="5.91404">
        <ele>869</ele>
        <time>2022-08-06T08:17:24Z</time>
      </trkpt>
      <trkpt lat="46.54143" lon="5.91381">
        <ele>869.8</ele>
        <time>2022-08-06T08:17:28Z</time>
      </trkpt>
      <trkpt lat="46.54141" lon="5.91375">
        <ele>870.2</ele>
        <time>2022-08-06T08:17:29Z</time>
      </trkpt>
      <trkpt lat="46.54138" lon="5.91365">
        <ele>870.4</ele>
        <time>2022-08-06T08:17:31Z</time>
      </trkpt>
      <trkpt lat="46.54124" lon="5.91338">
        <ele>871.2</ele>
        <time>2022-08-06T08:17:36Z</time>
      </trkpt>
      <trkpt lat="46.5411" lon="5.91315">
        <ele>872</ele>
        <time>2022-08-06T08:17:40Z</time>
      </trkpt>
      <trkpt lat="46.54095" lon="5.91295">
        <ele>872.2</ele>
        <time>2022-08-06T08:17:44Z</time>
      </trkpt>
      <trkpt lat="46.54082" lon="5.91279">
        <ele>872.2</ele>
        <time>2022-08-06T08:17:47Z</time>
      </trkpt>
      <trkpt lat="46.54077" lon="5.91274">
        <ele>872.2</ele>
        <time>2022-08-06T08:17:48Z</time>
      </trkpt>
      <trkpt lat="46.54047" lon="5.91243">
        <ele>872.4</ele>
        <time>2022-08-06T08:17:54Z</time>
      </trkpt>
      <trkpt lat="46.54011" lon="5.91199">
        <ele>872.8</ele>
        <time>2022-08-06T08:18:02Z</time>
      </trkpt>
      <trkpt lat="46.53997" lon="5.91184">
        <ele>873.4</ele>
        <time>2022-08-06T08:18:05Z</time>
      </trkpt>
      <trkpt lat="46.53975" lon="5.91157">
        <ele>874.2</ele>
        <time>2022-08-06T08:18:10Z</time>
      </trkpt>
      <trkpt lat="46.53966" lon="5.91147">
        <ele>874.6</ele>
        <time>2022-08-06T08:18:12Z</time>
      </trkpt>
      <trkpt lat="46.53942" lon="5.9112">
        <ele>875.6</ele>
        <time>2022-08-06T08:18:18Z</time>
      </trkpt>
      <trkpt lat="46.53932" lon="5.91109">
        <ele>876.2</ele>
        <time>2022-08-06T08:18:20Z</time>
      </trkpt>
      <trkpt lat="46.53906" lon="5.91076">
        <ele>876.8</ele>
        <time>2022-08-06T08:18:26Z</time>
      </trkpt>
      <trkpt lat="46.53899" lon="5.91063">
        <ele>877</ele>
        <time>2022-08-06T08:18:28Z</time>
      </trkpt>
      <trkpt lat="46.53863" lon="5.91006">
        <ele>877.4</ele>
        <time>2022-08-06T08:18:36Z</time>
      </trkpt>
      <trkpt lat="46.53823" lon="5.90955">
        <ele>877</ele>
        <time>2022-08-06T08:18:43Z</time>
      </trkpt>
      <trkpt lat="46.53798" lon="5.9092">
        <ele>875.6</ele>
        <time>2022-08-06T08:18:47Z</time>
      </trkpt>
      <trkpt lat="46.53774" lon="5.90886">
        <ele>874.6</ele>
        <time>2022-08-06T08:18:51Z</time>
      </trkpt>
      <trkpt lat="46.53757" lon="5.90862">
        <ele>873.4</ele>
        <time>2022-08-06T08:18:54Z</time>
      </trkpt>
      <trkpt lat="46.5374" lon="5.90835">
        <ele>872.8</ele>
        <time>2022-08-06T08:18:57Z</time>
      </trkpt>
      <trkpt lat="46.53705" lon="5.90767">
        <ele>872.4</ele>
        <time>2022-08-06T08:19:04Z</time>
      </trkpt>
      <trkpt lat="46.53687" lon="5.90723">
        <ele>872.4</ele>
        <time>2022-08-06T08:19:08Z</time>
      </trkpt>
      <trkpt lat="46.53673" lon="5.90692">
        <ele>872</ele>
        <time>2022-08-06T08:19:11Z</time>
      </trkpt>
      <trkpt lat="46.53637" lon="5.90627">
        <ele>871.8</ele>
        <time>2022-08-06T08:19:18Z</time>
      </trkpt>
      <trkpt lat="46.5363" lon="5.90616">
        <ele>871.6</ele>
        <time>2022-08-06T08:19:19Z</time>
      </trkpt>
      <trkpt lat="46.53591" lon="5.90552">
        <ele>871.4</ele>
        <time>2022-08-06T08:19:26Z</time>
      </trkpt>
      <trkpt lat="46.53586" lon="5.90543">
        <ele>871.4</ele>
        <time>2022-08-06T08:19:27Z</time>
      </trkpt>
      <trkpt lat="46.5355" lon="5.90484">
        <ele>871.4</ele>
        <time>2022-08-06T08:19:34Z</time>
      </trkpt>
      <trkpt lat="46.53516" lon="5.90439">
        <ele>872.2</ele>
        <time>2022-08-06T08:19:40Z</time>
      </trkpt>
      <trkpt lat="46.53502" lon="5.90429">
        <ele>872.2</ele>
        <time>2022-08-06T08:19:42Z</time>
      </trkpt>
      <trkpt lat="46.53489" lon="5.90423">
        <ele>872.2</ele>
        <time>2022-08-06T08:19:44Z</time>
      </trkpt>
      <trkpt lat="46.53444" lon="5.90411">
        <ele>872.6</ele>
        <time>2022-08-06T08:19:50Z</time>
      </trkpt>
      <trkpt lat="46.53417" lon="5.90412">
        <ele>873</ele>
        <time>2022-08-06T08:19:54Z</time>
      </trkpt>
      <trkpt lat="46.53404" lon="5.90417">
        <ele>873.6</ele>
        <time>2022-08-06T08:19:56Z</time>
      </trkpt>
      <trkpt lat="46.53386" lon="5.90428">
        <ele>874.2</ele>
        <time>2022-08-06T08:19:59Z</time>
      </trkpt>
      <trkpt lat="46.53368" lon="5.90435">
        <ele>874.6</ele>
        <time>2022-08-06T08:20:02Z</time>
      </trkpt>
      <trkpt lat="46.53344" lon="5.90439">
        <ele>875.6</ele>
        <time>2022-08-06T08:20:06Z</time>
      </trkpt>
      <trkpt lat="46.53338" lon="5.90439">
        <ele>875.6</ele>
        <time>2022-08-06T08:20:07Z</time>
      </trkpt>
      <trkpt lat="46.53332" lon="5.90438">
        <ele>875.8</ele>
        <time>2022-08-06T08:20:08Z</time>
      </trkpt>
      <trkpt lat="46.53315" lon="5.90432">
        <ele>876.6</ele>
        <time>2022-08-06T08:20:11Z</time>
      </trkpt>
      <trkpt lat="46.53304" lon="5.90426">
        <ele>876.8</ele>
        <time>2022-08-06T08:20:13Z</time>
      </trkpt>
      <trkpt lat="46.53289" lon="5.90413">
        <ele>877</ele>
        <time>2022-08-06T08:20:16Z</time>
      </trkpt>
      <trkpt lat="46.53261" lon="5.90381">
        <ele>877.6</ele>
        <time>2022-08-06T08:20:22Z</time>
      </trkpt>
      <trkpt lat="46.53254" lon="5.90368">
        <ele>877.8</ele>
        <time>2022-08-06T08:20:24Z</time>
      </trkpt>
      <trkpt lat="46.53245" lon="5.90345">
        <ele>878</ele>
        <time>2022-08-06T08:20:27Z</time>
      </trkpt>
      <trkpt lat="46.53226" lon="5.90275">
        <ele>878.8</ele>
        <time>2022-08-06T08:20:35Z</time>
      </trkpt>
      <trkpt lat="46.53209" lon="5.90232">
        <ele>879</ele>
        <time>2022-08-06T08:20:40Z</time>
      </trkpt>
      <trkpt lat="46.53181" lon="5.90192">
        <ele>879.4</ele>
        <time>2022-08-06T08:20:46Z</time>
      </trkpt>
      <trkpt lat="46.53153" lon="5.90154">
        <ele>880</ele>
        <time>2022-08-06T08:20:52Z</time>
      </trkpt>
      <trkpt lat="46.53141" lon="5.90133">
        <ele>880.2</ele>
        <time>2022-08-06T08:20:55Z</time>
      </trkpt>
      <trkpt lat="46.53118" lon="5.90083">
        <ele>881</ele>
        <time>2022-08-06T08:21:01Z</time>
      </trkpt>
      <trkpt lat="46.5311" lon="5.90065">
        <ele>881</ele>
        <time>2022-08-06T08:21:03Z</time>
      </trkpt>
      <trkpt lat="46.5308" lon="5.89997">
        <ele>881</ele>
        <time>2022-08-06T08:21:10Z</time>
      </trkpt>
      <trkpt lat="46.53054" lon="5.89919">
        <ele>880.4</ele>
        <time>2022-08-06T08:21:18Z</time>
      </trkpt>
      <trkpt lat="46.53051" lon="5.8991">
        <ele>880.4</ele>
        <time>2022-08-06T08:21:19Z</time>
      </trkpt>
      <trkpt lat="46.53028" lon="5.8987">
        <ele>881.2</ele>
        <time>2022-08-06T08:21:24Z</time>
      </trkpt>
      <trkpt lat="46.53005" lon="5.89844">
        <ele>881.8</ele>
        <time>2022-08-06T08:21:28Z</time>
      </trkpt>
      <trkpt lat="46.52998" lon="5.89839">
        <ele>881.8</ele>
        <time>2022-08-06T08:21:29Z</time>
      </trkpt>
      <trkpt lat="46.5296" lon="5.8982">
        <ele>881.6</ele>
        <time>2022-08-06T08:21:34Z</time>
      </trkpt>
      <trkpt lat="46.52903" lon="5.89796">
        <ele>880.6</ele>
        <time>2022-08-06T08:21:41Z</time>
      </trkpt>
      <trkpt lat="46.52862" lon="5.89787">
        <ele>880.4</ele>
        <time>2022-08-06T08:21:46Z</time>
      </trkpt>
      <trkpt lat="46.5283" lon="5.8978">
        <ele>880.4</ele>
        <time>2022-08-06T08:21:50Z</time>
      </trkpt>
      <trkpt lat="46.52805" lon="5.89771">
        <ele>880.2</ele>
        <time>2022-08-06T08:21:53Z</time>
      </trkpt>
      <trkpt lat="46.52787" lon="5.89763">
        <ele>879.8</ele>
        <time>2022-08-06T08:21:55Z</time>
      </trkpt>
      <trkpt lat="46.52744" lon="5.89734">
        <ele>879</ele>
        <time>2022-08-06T08:22:00Z</time>
      </trkpt>
      <trkpt lat="46.52726" lon="5.89724">
        <ele>878.4</ele>
        <time>2022-08-06T08:22:02Z</time>
      </trkpt>
      <trkpt lat="46.5271" lon="5.89718">
        <ele>878.2</ele>
        <time>2022-08-06T08:22:04Z</time>
      </trkpt>
      <trkpt lat="46.52693" lon="5.89717">
        <ele>878.2</ele>
        <time>2022-08-06T08:22:06Z</time>
      </trkpt>
      <trkpt lat="46.5265" lon="5.89718">
        <ele>878.8</ele>
        <time>2022-08-06T08:22:12Z</time>
      </trkpt>
      <trkpt lat="46.5262" lon="5.89704">
        <ele>879.6</ele>
        <time>2022-08-06T08:22:16Z</time>
      </trkpt>
      <trkpt lat="46.52607" lon="5.89692">
        <ele>880</ele>
        <time>2022-08-06T08:22:18Z</time>
      </trkpt>
      <trkpt lat="46.52589" lon="5.89672">
        <ele>880.2</ele>
        <time>2022-08-06T08:22:21Z</time>
      </trkpt>
      <trkpt lat="46.52548" lon="5.89622">
        <ele>880</ele>
        <time>2022-08-06T08:22:28Z</time>
      </trkpt>
      <trkpt lat="46.52524" lon="5.89592">
        <ele>879.6</ele>
        <time>2022-08-06T08:22:32Z</time>
      </trkpt>
      <trkpt lat="46.52489" lon="5.89533">
        <ele>879.4</ele>
        <time>2022-08-06T08:22:39Z</time>
      </trkpt>
      <trkpt lat="46.52484" lon="5.89524">
        <ele>879.4</ele>
        <time>2022-08-06T08:22:40Z</time>
      </trkpt>
      <trkpt lat="46.52456" lon="5.89462">
        <ele>878.8</ele>
        <time>2022-08-06T08:22:46Z</time>
      </trkpt>
      <trkpt lat="46.52436" lon="5.89397">
        <ele>878.4</ele>
        <time>2022-08-06T08:22:52Z</time>
      </trkpt>
      <trkpt lat="46.5241" lon="5.89348">
        <ele>877.8</ele>
        <time>2022-08-06T08:22:57Z</time>
      </trkpt>
      <trkpt lat="46.52383" lon="5.89292">
        <ele>877.6</ele>
        <time>2022-08-06T08:23:03Z</time>
      </trkpt>
      <trkpt lat="46.5238" lon="5.89282">
        <ele>877.6</ele>
        <time>2022-08-06T08:23:04Z</time>
      </trkpt>
      <trkpt lat="46.52373" lon="5.89246">
        <ele>877.6</ele>
        <time>2022-08-06T08:23:07Z</time>
      </trkpt>
      <trkpt lat="46.52358" lon="5.89168">
        <ele>877</ele>
        <time>2022-08-06T08:23:13Z</time>
      </trkpt>
      <trkpt lat="46.52355" lon="5.89156">
        <ele>876.8</ele>
        <time>2022-08-06T08:23:14Z</time>
      </trkpt>
      <trkpt lat="46.52338" lon="5.89112">
        <ele>875.6</ele>
        <time>2022-08-06T08:23:18Z</time>
      </trkpt>
      <trkpt lat="46.52303" lon="5.89042">
        <ele>875.2</ele>
        <time>2022-08-06T08:23:25Z</time>
      </trkpt>
      <trkpt lat="46.52278" lon="5.88981">
        <ele>875.2</ele>
        <time>2022-08-06T08:23:31Z</time>
      </trkpt>
      <trkpt lat="46.52261" lon="5.88921">
        <ele>875.8</ele>
        <time>2022-08-06T08:23:37Z</time>
      </trkpt>
      <trkpt lat="46.52249" lon="5.88873">
        <ele>876.6</ele>
        <time>2022-08-06T08:23:42Z</time>
      </trkpt>
      <trkpt lat="46.52239" lon="5.88839">
        <ele>877.6</ele>
        <time>2022-08-06T08:23:46Z</time>
      </trkpt>
      <trkpt lat="46.52236" lon="5.88828">
        <ele>877.8</ele>
        <time>2022-08-06T08:23:47Z</time>
      </trkpt>
      <trkpt lat="46.52227" lon="5.88803">
        <ele>878.8</ele>
        <time>2022-08-06T08:23:50Z</time>
      </trkpt>
      <trkpt lat="46.52223" lon="5.88795">
        <ele>879</ele>
        <time>2022-08-06T08:23:51Z</time>
      </trkpt>
      <trkpt lat="46.52204" lon="5.88766">
        <ele>879.8</ele>
        <time>2022-08-06T08:23:55Z</time>
      </trkpt>
      <trkpt lat="46.52199" lon="5.88759">
        <ele>879.8</ele>
        <time>2022-08-06T08:23:56Z</time>
      </trkpt>
      <trkpt lat="46.52192" lon="5.88754">
        <ele>879.8</ele>
        <time>2022-08-06T08:23:57Z</time>
      </trkpt>
      <trkpt lat="46.52173" lon="5.88742">
        <ele>880</ele>
        <time>2022-08-06T08:24:00Z</time>
      </trkpt>
      <trkpt lat="46.52166" lon="5.8874">
        <ele>880</ele>
        <time>2022-08-06T08:24:01Z</time>
      </trkpt>
      <trkpt lat="46.52126" lon="5.8873">
        <ele>879.8</ele>
        <time>2022-08-06T08:24:06Z</time>
      </trkpt>
      <trkpt lat="46.52118" lon="5.88726">
        <ele>879.6</ele>
        <time>2022-08-06T08:24:07Z</time>
      </trkpt>
      <trkpt lat="46.5211" lon="5.88721">
        <ele>879.6</ele>
        <time>2022-08-06T08:24:08Z</time>
      </trkpt>
      <trkpt lat="46.52089" lon="5.88699">
        <ele>879.4</ele>
        <time>2022-08-06T08:24:11Z</time>
      </trkpt>
      <trkpt lat="46.52077" lon="5.8868">
        <ele>878.8</ele>
        <time>2022-08-06T08:24:13Z</time>
      </trkpt>
      <trkpt lat="46.52053" lon="5.88639">
        <ele>878.2</ele>
        <time>2022-08-06T08:24:17Z</time>
      </trkpt>
      <trkpt lat="46.52036" lon="5.88612">
        <ele>877.8</ele>
        <time>2022-08-06T08:24:20Z</time>
      </trkpt>
      <trkpt lat="46.52001" lon="5.88551">
        <ele>877</ele>
        <time>2022-08-06T08:24:26Z</time>
      </trkpt>
      <trkpt lat="46.51994" lon="5.88539">
        <ele>876.6</ele>
        <time>2022-08-06T08:24:27Z</time>
      </trkpt>
      <trkpt lat="46.51961" lon="5.88465">
        <ele>875.6</ele>
        <time>2022-08-06T08:24:34Z</time>
      </trkpt>
      <trkpt lat="46.51943" lon="5.88394">
        <ele>875</ele>
        <time>2022-08-06T08:24:40Z</time>
      </trkpt>
      <trkpt lat="46.51925" lon="5.88311">
        <ele>874.8</ele>
        <time>2022-08-06T08:24:47Z</time>
      </trkpt>
      <trkpt lat="46.51919" lon="5.88288">
        <ele>875</ele>
        <time>2022-08-06T08:24:49Z</time>
      </trkpt>
      <trkpt lat="46.51903" lon="5.88207">
        <ele>875.2</ele>
        <time>2022-08-06T08:24:56Z</time>
      </trkpt>
      <trkpt lat="46.51901" lon="5.88191">
        <ele>875.2</ele>
        <time>2022-08-06T08:24:57Z</time>
      </trkpt>
      <trkpt lat="46.51901" lon="5.88178">
        <ele>875.2</ele>
        <time>2022-08-06T08:24:58Z</time>
      </trkpt>
      <trkpt lat="46.51904" lon="5.88141">
        <ele>874.8</ele>
        <time>2022-08-06T08:25:01Z</time>
      </trkpt>
      <trkpt lat="46.51907" lon="5.88128">
        <ele>874.4</ele>
        <time>2022-08-06T08:25:02Z</time>
      </trkpt>
      <trkpt lat="46.51913" lon="5.88089">
        <ele>873.8</ele>
        <time>2022-08-06T08:25:05Z</time>
      </trkpt>
      <trkpt lat="46.51914" lon="5.88075">
        <ele>873.4</ele>
        <time>2022-08-06T08:25:06Z</time>
      </trkpt>
      <trkpt lat="46.51913" lon="5.88061">
        <ele>872.6</ele>
        <time>2022-08-06T08:25:07Z</time>
      </trkpt>
      <trkpt lat="46.51907" lon="5.88033">
        <ele>872.2</ele>
        <time>2022-08-06T08:25:09Z</time>
      </trkpt>
      <trkpt lat="46.51895" lon="5.88009">
        <ele>871.6</ele>
        <time>2022-08-06T08:25:11Z</time>
      </trkpt>
      <trkpt lat="46.51887" lon="5.87999">
        <ele>871.4</ele>
        <time>2022-08-06T08:25:12Z</time>
      </trkpt>
      <trkpt lat="46.51878" lon="5.8799">
        <ele>870.4</ele>
        <time>2022-08-06T08:25:13Z</time>
      </trkpt>
      <trkpt lat="46.51856" lon="5.8798">
        <ele>869.6</ele>
        <time>2022-08-06T08:25:15Z</time>
      </trkpt>
      <trkpt lat="46.51845" lon="5.87975">
        <ele>868.6</ele>
        <time>2022-08-06T08:25:16Z</time>
      </trkpt>
      <trkpt lat="46.51821" lon="5.87966">
        <ele>867.4</ele>
        <time>2022-08-06T08:25:18Z</time>
      </trkpt>
      <trkpt lat="46.51798" lon="5.87954">
        <ele>866.4</ele>
        <time>2022-08-06T08:25:20Z</time>
      </trkpt>
      <trkpt lat="46.51786" lon="5.87948">
        <ele>866</ele>
        <time>2022-08-06T08:25:21Z</time>
      </trkpt>
      <trkpt lat="46.51775" lon="5.87941">
        <ele>864.8</ele>
        <time>2022-08-06T08:25:22Z</time>
      </trkpt>
      <trkpt lat="46.51754" lon="5.87923">
        <ele>863.8</ele>
        <time>2022-08-06T08:25:24Z</time>
      </trkpt>
      <trkpt lat="46.5172" lon="5.87875">
        <ele>863</ele>
        <time>2022-08-06T08:25:28Z</time>
      </trkpt>
      <trkpt lat="46.51714" lon="5.87866">
        <ele>862.6</ele>
        <time>2022-08-06T08:25:29Z</time>
      </trkpt>
      <trkpt lat="46.5167" lon="5.87798">
        <ele>862.2</ele>
        <time>2022-08-06T08:25:35Z</time>
      </trkpt>
      <trkpt lat="46.51642" lon="5.87738">
        <ele>862</ele>
        <time>2022-08-06T08:25:40Z</time>
      </trkpt>
      <trkpt lat="46.5161" lon="5.8766">
        <ele>861.4</ele>
        <time>2022-08-06T08:25:46Z</time>
      </trkpt>
      <trkpt lat="46.51593" lon="5.87624">
        <ele>860.8</ele>
        <time>2022-08-06T08:25:49Z</time>
      </trkpt>
      <trkpt lat="46.51569" lon="5.87572">
        <ele>860.2</ele>
        <time>2022-08-06T08:25:53Z</time>
      </trkpt>
      <trkpt lat="46.51556" lon="5.8755">
        <ele>859</ele>
        <time>2022-08-06T08:25:55Z</time>
      </trkpt>
      <trkpt lat="46.51526" lon="5.87515">
        <ele>857.8</ele>
        <time>2022-08-06T08:25:59Z</time>
      </trkpt>
      <trkpt lat="46.51517" lon="5.87505">
        <ele>857.6</ele>
        <time>2022-08-06T08:26:00Z</time>
      </trkpt>
      <trkpt lat="46.51469" lon="5.87464">
        <ele>857</ele>
        <time>2022-08-06T08:26:06Z</time>
      </trkpt>
      <trkpt lat="46.51456" lon="5.87452">
        <ele>857</ele>
        <time>2022-08-06T08:26:08Z</time>
      </trkpt>
      <trkpt lat="46.51418" lon="5.87415">
        <ele>856.8</ele>
        <time>2022-08-06T08:26:13Z</time>
      </trkpt>
      <trkpt lat="46.51386" lon="5.87375">
        <ele>856</ele>
        <time>2022-08-06T08:26:18Z</time>
      </trkpt>
      <trkpt lat="46.5138" lon="5.87363">
        <ele>855.8</ele>
        <time>2022-08-06T08:26:19Z</time>
      </trkpt>
      <trkpt lat="46.51376" lon="5.87351">
        <ele>855.6</ele>
        <time>2022-08-06T08:26:20Z</time>
      </trkpt>
      <trkpt lat="46.51382" lon="5.87328">
        <ele>855.4</ele>
        <time>2022-08-06T08:26:22Z</time>
      </trkpt>
      <trkpt lat="46.51398" lon="5.87311">
        <ele>855</ele>
        <time>2022-08-06T08:26:24Z</time>
      </trkpt>
      <trkpt lat="46.51407" lon="5.87305">
        <ele>854.4</ele>
        <time>2022-08-06T08:26:25Z</time>
      </trkpt>
      <trkpt lat="46.51452" lon="5.87263">
        <ele>853.2</ele>
        <time>2022-08-06T08:26:31Z</time>
      </trkpt>
      <trkpt lat="46.51459" lon="5.87255">
        <ele>853</ele>
        <time>2022-08-06T08:26:32Z</time>
      </trkpt>
      <trkpt lat="46.515" lon="5.87193">
        <ele>852.8</ele>
        <time>2022-08-06T08:26:39Z</time>
      </trkpt>
      <trkpt lat="46.51506" lon="5.87184">
        <ele>852.8</ele>
        <time>2022-08-06T08:26:40Z</time>
      </trkpt>
      <trkpt lat="46.51544" lon="5.87122">
        <ele>852.6</ele>
        <time>2022-08-06T08:26:47Z</time>
      </trkpt>
      <trkpt lat="46.51553" lon="5.87108">
        <ele>852.6</ele>
        <time>2022-08-06T08:26:49Z</time>
      </trkpt>
      <trkpt lat="46.51598" lon="5.8705">
        <ele>853.2</ele>
        <time>2022-08-06T08:26:57Z</time>
      </trkpt>
      <trkpt lat="46.51605" lon="5.87044">
        <ele>853.2</ele>
        <time>2022-08-06T08:26:58Z</time>
      </trkpt>
      <trkpt lat="46.51619" lon="5.87036">
        <ele>853</ele>
        <time>2022-08-06T08:27:00Z</time>
      </trkpt>
      <trkpt lat="46.51627" lon="5.87034">
        <ele>853</ele>
        <time>2022-08-06T08:27:01Z</time>
      </trkpt>
      <trkpt lat="46.51662" lon="5.87029">
        <ele>852.6</ele>
        <time>2022-08-06T08:27:06Z</time>
      </trkpt>
      <trkpt lat="46.51708" lon="5.87022">
        <ele>853.2</ele>
        <time>2022-08-06T08:27:13Z</time>
      </trkpt>
      <trkpt lat="46.51739" lon="5.87018">
        <ele>854.2</ele>
        <time>2022-08-06T08:27:19Z</time>
      </trkpt>
      <trkpt lat="46.51744" lon="5.87017">
        <ele>854.4</ele>
        <time>2022-08-06T08:27:20Z</time>
      </trkpt>
      <trkpt lat="46.51773" lon="5.87012">
        <ele>855.6</ele>
        <time>2022-08-06T08:27:26Z</time>
      </trkpt>
      <trkpt lat="46.51778" lon="5.87012">
        <ele>855.8</ele>
        <time>2022-08-06T08:27:27Z</time>
      </trkpt>
      <trkpt lat="46.51782" lon="5.87013">
        <ele>856</ele>
        <time>2022-08-06T08:27:28Z</time>
      </trkpt>
      <trkpt lat="46.51801" lon="5.87013">
        <ele>857</ele>
        <time>2022-08-06T08:27:32Z</time>
      </trkpt>
      <trkpt lat="46.51819" lon="5.87013">
        <ele>857.8</ele>
        <time>2022-08-06T08:27:36Z</time>
      </trkpt>
      <trkpt lat="46.51823" lon="5.87014">
        <ele>858</ele>
        <time>2022-08-06T08:27:37Z</time>
      </trkpt>
      <trkpt lat="46.51827" lon="5.87014">
        <ele>858</ele>
        <time>2022-08-06T08:27:38Z</time>
      </trkpt>
      <trkpt lat="46.51845" lon="5.87016">
        <ele>859</ele>
        <time>2022-08-06T08:27:42Z</time>
      </trkpt>
      <trkpt lat="46.51854" lon="5.87017">
        <ele>860</ele>
        <time>2022-08-06T08:27:44Z</time>
      </trkpt>
      <trkpt lat="46.51859" lon="5.87017">
        <ele>860</ele>
        <time>2022-08-06T08:27:45Z</time>
      </trkpt>
      <trkpt lat="46.51881" lon="5.87015">
        <ele>861.2</ele>
        <time>2022-08-06T08:27:50Z</time>
      </trkpt>
      <trkpt lat="46.51897" lon="5.87012">
        <ele>861.6</ele>
        <time>2022-08-06T08:27:54Z</time>
      </trkpt>
      <trkpt lat="46.51908" lon="5.87006">
        <ele>862.2</ele>
        <time>2022-08-06T08:27:57Z</time>
      </trkpt>
      <trkpt lat="46.51927" lon="5.86994">
        <ele>863.4</ele>
        <time>2022-08-06T08:28:02Z</time>
      </trkpt>
      <trkpt lat="46.51935" lon="5.86989">
        <ele>863.8</ele>
        <time>2022-08-06T08:28:04Z</time>
      </trkpt>
      <trkpt lat="46.51947" lon="5.8698">
        <ele>864.6</ele>
        <time>2022-08-06T08:28:07Z</time>
      </trkpt>
      <trkpt lat="46.51958" lon="5.86971">
        <ele>864.8</ele>
        <time>2022-08-06T08:28:10Z</time>
      </trkpt>
      <trkpt lat="46.51971" lon="5.86958">
        <ele>865.8</ele>
        <time>2022-08-06T08:28:14Z</time>
      </trkpt>
      <trkpt lat="46.51983" lon="5.86942">
        <ele>866.8</ele>
        <time>2022-08-06T08:28:18Z</time>
      </trkpt>
      <trkpt lat="46.51988" lon="5.86934">
        <ele>866.8</ele>
        <time>2022-08-06T08:28:20Z</time>
      </trkpt>
      <trkpt lat="46.51998" lon="5.86911">
        <ele>868.2</ele>
        <time>2022-08-06T08:28:25Z</time>
      </trkpt>
      <trkpt lat="46.52" lon="5.86906">
        <ele>868.4</ele>
        <time>2022-08-06T08:28:26Z</time>
      </trkpt>
      <trkpt lat="46.52006" lon="5.86887">
        <ele>869.4</ele>
        <time>2022-08-06T08:28:30Z</time>
      </trkpt>
      <trkpt lat="46.52014" lon="5.86866">
        <ele>870.2</ele>
        <time>2022-08-06T08:28:35Z</time>
      </trkpt>
      <trkpt lat="46.52016" lon="5.8686">
        <ele>870.4</ele>
        <time>2022-08-06T08:28:36Z</time>
      </trkpt>
      <trkpt lat="46.52025" lon="5.86838">
        <ele>871.8</ele>
        <time>2022-08-06T08:28:41Z</time>
      </trkpt>
      <trkpt lat="46.52033" lon="5.86822">
        <ele>872.4</ele>
        <time>2022-08-06T08:28:45Z</time>
      </trkpt>
      <trkpt lat="46.52036" lon="5.86814">
        <ele>872.8</ele>
        <time>2022-08-06T08:28:47Z</time>
      </trkpt>
      <trkpt lat="46.52046" lon="5.86788">
        <ele>873.8</ele>
        <time>2022-08-06T08:28:52Z</time>
      </trkpt>
      <trkpt lat="46.52051" lon="5.86769">
        <ele>874.2</ele>
        <time>2022-08-06T08:28:55Z</time>
      </trkpt>
      <trkpt lat="46.52055" lon="5.86749">
        <ele>874.6</ele>
        <time>2022-08-06T08:28:58Z</time>
      </trkpt>
      <trkpt lat="46.52055" lon="5.86729">
        <ele>874.8</ele>
        <time>2022-08-06T08:29:01Z</time>
      </trkpt>
      <trkpt lat="46.52055" lon="5.86722">
        <ele>875</ele>
        <time>2022-08-06T08:29:02Z</time>
      </trkpt>
      <trkpt lat="46.52047" lon="5.86685">
        <ele>875.2</ele>
        <time>2022-08-06T08:29:07Z</time>
      </trkpt>
      <trkpt lat="46.52034" lon="5.86636">
        <ele>875.2</ele>
        <time>2022-08-06T08:29:14Z</time>
      </trkpt>
      <trkpt lat="46.52032" lon="5.86618">
        <ele>875.2</ele>
        <time>2022-08-06T08:29:16Z</time>
      </trkpt>
      <trkpt lat="46.52032" lon="5.86594">
        <ele>875.2</ele>
        <time>2022-08-06T08:29:19Z</time>
      </trkpt>
      <trkpt lat="46.52033" lon="5.86584">
        <ele>875.2</ele>
        <time>2022-08-06T08:29:20Z</time>
      </trkpt>
      <trkpt lat="46.52041" lon="5.86553">
        <ele>875.2</ele>
        <time>2022-08-06T08:29:24Z</time>
      </trkpt>
      <trkpt lat="46.52048" lon="5.86524">
        <ele>875</ele>
        <time>2022-08-06T08:29:27Z</time>
      </trkpt>
      <trkpt lat="46.5205" lon="5.86505">
        <ele>875</ele>
        <time>2022-08-06T08:29:29Z</time>
      </trkpt>
      <trkpt lat="46.5205" lon="5.86495">
        <ele>875</ele>
        <time>2022-08-06T08:29:30Z</time>
      </trkpt>
      <trkpt lat="46.52048" lon="5.86463">
        <ele>874.6</ele>
        <time>2022-08-06T08:29:33Z</time>
      </trkpt>
      <trkpt lat="46.52043" lon="5.86417">
        <ele>874.2</ele>
        <time>2022-08-06T08:29:37Z</time>
      </trkpt>
      <trkpt lat="46.52043" lon="5.86406">
        <ele>874.2</ele>
        <time>2022-08-06T08:29:38Z</time>
      </trkpt>
      <trkpt lat="46.52044" lon="5.86394">
        <ele>874</ele>
        <time>2022-08-06T08:29:39Z</time>
      </trkpt>
      <trkpt lat="46.52049" lon="5.86372">
        <ele>873.8</ele>
        <time>2022-08-06T08:29:41Z</time>
      </trkpt>
      <trkpt lat="46.52051" lon="5.86361">
        <ele>873.4</ele>
        <time>2022-08-06T08:29:42Z</time>
      </trkpt>
      <trkpt lat="46.52054" lon="5.8635">
        <ele>873.2</ele>
        <time>2022-08-06T08:29:43Z</time>
      </trkpt>
      <trkpt lat="46.52057" lon="5.86326">
        <ele>872.6</ele>
        <time>2022-08-06T08:29:45Z</time>
      </trkpt>
      <trkpt lat="46.52058" lon="5.863">
        <ele>872.2</ele>
        <time>2022-08-06T08:29:47Z</time>
      </trkpt>
      <trkpt lat="46.5206" lon="5.8626">
        <ele>871.6</ele>
        <time>2022-08-06T08:29:50Z</time>
      </trkpt>
      <trkpt lat="46.52063" lon="5.86219">
        <ele>871</ele>
        <time>2022-08-06T08:29:53Z</time>
      </trkpt>
      <trkpt lat="46.52069" lon="5.86193">
        <ele>870</ele>
        <time>2022-08-06T08:29:55Z</time>
      </trkpt>
      <trkpt lat="46.52075" lon="5.86169">
        <ele>868.4</ele>
        <time>2022-08-06T08:29:57Z</time>
      </trkpt>
      <trkpt lat="46.52084" lon="5.86148">
        <ele>867.6</ele>
        <time>2022-08-06T08:29:59Z</time>
      </trkpt>
      <trkpt lat="46.52089" lon="5.86141">
        <ele>867.2</ele>
        <time>2022-08-06T08:30:00Z</time>
      </trkpt>
      <trkpt lat="46.52097" lon="5.86132">
        <ele>867</ele>
        <time>2022-08-06T08:30:01Z</time>
      </trkpt>
      <trkpt lat="46.52116" lon="5.86115">
        <ele>866.4</ele>
        <time>2022-08-06T08:30:04Z</time>
      </trkpt>
      <trkpt lat="46.52124" lon="5.8611">
        <ele>866.4</ele>
        <time>2022-08-06T08:30:05Z</time>
      </trkpt>
      <trkpt lat="46.52151" lon="5.86098">
        <ele>866.6</ele>
        <time>2022-08-06T08:30:09Z</time>
      </trkpt>
      <trkpt lat="46.52158" lon="5.86097">
        <ele>866.6</ele>
        <time>2022-08-06T08:30:10Z</time>
      </trkpt>
      <trkpt lat="46.52219" lon="5.8609">
        <ele>867.2</ele>
        <time>2022-08-06T08:30:18Z</time>
      </trkpt>
      <trkpt lat="46.52225" lon="5.86089">
        <ele>867.2</ele>
        <time>2022-08-06T08:30:19Z</time>
      </trkpt>
      <trkpt lat="46.52281" lon="5.86073">
        <ele>867</ele>
        <time>2022-08-06T08:30:27Z</time>
      </trkpt>
      <trkpt lat="46.52294" lon="5.86067">
        <ele>867</ele>
        <time>2022-08-06T08:30:29Z</time>
      </trkpt>
      <trkpt lat="46.52315" lon="5.86054">
        <ele>866.8</ele>
        <time>2022-08-06T08:30:32Z</time>
      </trkpt>
      <trkpt lat="46.52327" lon="5.86043">
        <ele>867</ele>
        <time>2022-08-06T08:30:34Z</time>
      </trkpt>
      <trkpt lat="46.52369" lon="5.8599">
        <ele>866.4</ele>
        <time>2022-08-06T08:30:42Z</time>
      </trkpt>
      <trkpt lat="46.52374" lon="5.85983">
        <ele>866.4</ele>
        <time>2022-08-06T08:30:43Z</time>
      </trkpt>
      <trkpt lat="46.524" lon="5.85958">
        <ele>866.6</ele>
        <time>2022-08-06T08:30:48Z</time>
      </trkpt>
      <trkpt lat="46.52428" lon="5.85945">
        <ele>867.2</ele>
        <time>2022-08-06T08:30:53Z</time>
      </trkpt>
      <trkpt lat="46.52444" lon="5.85943">
        <ele>868</ele>
        <time>2022-08-06T08:30:56Z</time>
      </trkpt>
      <trkpt lat="46.52451" lon="5.85943">
        <ele>868.2</ele>
        <time>2022-08-06T08:30:57Z</time>
      </trkpt>
      <trkpt lat="46.52456" lon="5.85943">
        <ele>868.4</ele>
        <time>2022-08-06T08:30:58Z</time>
      </trkpt>
      <trkpt lat="46.52468" lon="5.85945">
        <ele>868.6</ele>
        <time>2022-08-06T08:31:00Z</time>
      </trkpt>
      <trkpt lat="46.52488" lon="5.8595">
        <ele>869</ele>
        <time>2022-08-06T08:31:03Z</time>
      </trkpt>
      <trkpt lat="46.52514" lon="5.85952">
        <ele>869</ele>
        <time>2022-08-06T08:31:07Z</time>
      </trkpt>
      <trkpt lat="46.52521" lon="5.85951">
        <ele>869</ele>
        <time>2022-08-06T08:31:08Z</time>
      </trkpt>
      <trkpt lat="46.52534" lon="5.85946">
        <ele>869</ele>
        <time>2022-08-06T08:31:10Z</time>
      </trkpt>
      <trkpt lat="46.5254" lon="5.85941">
        <ele>868.8</ele>
        <time>2022-08-06T08:31:11Z</time>
      </trkpt>
      <trkpt lat="46.52547" lon="5.85934">
        <ele>868.8</ele>
        <time>2022-08-06T08:31:12Z</time>
      </trkpt>
      <trkpt lat="46.5256" lon="5.85914">
        <ele>868.4</ele>
        <time>2022-08-06T08:31:15Z</time>
      </trkpt>
      <trkpt lat="46.52569" lon="5.85889">
        <ele>867.8</ele>
        <time>2022-08-06T08:31:18Z</time>
      </trkpt>
      <trkpt lat="46.52574" lon="5.85872">
        <ele>867.6</ele>
        <time>2022-08-06T08:31:20Z</time>
      </trkpt>
      <trkpt lat="46.52594" lon="5.85807">
        <ele>867.4</ele>
        <time>2022-08-06T08:31:28Z</time>
      </trkpt>
      <trkpt lat="46.52603" lon="5.85767">
        <ele>867.8</ele>
        <time>2022-08-06T08:31:33Z</time>
      </trkpt>
      <trkpt lat="46.52604" lon="5.85759">
        <ele>868</ele>
        <time>2022-08-06T08:31:34Z</time>
      </trkpt>
      <trkpt lat="46.52604" lon="5.85742">
        <ele>868</ele>
        <time>2022-08-06T08:31:36Z</time>
      </trkpt>
      <trkpt lat="46.52603" lon="5.85719">
        <ele>868.4</ele>
        <time>2022-08-06T08:31:39Z</time>
      </trkpt>
      <trkpt lat="46.52603" lon="5.85712">
        <ele>868.4</ele>
        <time>2022-08-06T08:31:40Z</time>
      </trkpt>
      <trkpt lat="46.52602" lon="5.85705">
        <ele>868.8</ele>
        <time>2022-08-06T08:31:41Z</time>
      </trkpt>
      <trkpt lat="46.52601" lon="5.85698">
        <ele>869.4</ele>
        <time>2022-08-06T08:31:42Z</time>
      </trkpt>
      <trkpt lat="46.52596" lon="5.85671">
        <ele>870.2</ele>
        <time>2022-08-06T08:31:46Z</time>
      </trkpt>
      <trkpt lat="46.52595" lon="5.85664">
        <ele>870.4</ele>
        <time>2022-08-06T08:31:47Z</time>
      </trkpt>
      <trkpt lat="46.52588" lon="5.8562">
        <ele>871.4</ele>
        <time>2022-08-06T08:31:54Z</time>
      </trkpt>
      <trkpt lat="46.52584" lon="5.85599">
        <ele>873</ele>
        <time>2022-08-06T08:31:58Z</time>
      </trkpt>
      <trkpt lat="46.52582" lon="5.85589">
        <ele>873.6</ele>
        <time>2022-08-06T08:32:00Z</time>
      </trkpt>
      <trkpt lat="46.52581" lon="5.85584">
        <ele>874</ele>
        <time>2022-08-06T08:32:01Z</time>
      </trkpt>
      <trkpt lat="46.52577" lon="5.8557">
        <ele>875.2</ele>
        <time>2022-08-06T08:32:04Z</time>
      </trkpt>
      <trkpt lat="46.52573" lon="5.85556">
        <ele>876.2</ele>
        <time>2022-08-06T08:32:07Z</time>
      </trkpt>
      <trkpt lat="46.52572" lon="5.85552">
        <ele>876.4</ele>
        <time>2022-08-06T08:32:08Z</time>
      </trkpt>
      <trkpt lat="46.52569" lon="5.85538">
        <ele>877.4</ele>
        <time>2022-08-06T08:32:11Z</time>
      </trkpt>
      <trkpt lat="46.52563" lon="5.85517">
        <ele>878.6</ele>
        <time>2022-08-06T08:32:16Z</time>
      </trkpt>
      <trkpt lat="46.52556" lon="5.85494">
        <ele>880</ele>
        <time>2022-08-06T08:32:21Z</time>
      </trkpt>
      <trkpt lat="46.5255" lon="5.85475">
        <ele>881.2</ele>
        <time>2022-08-06T08:32:25Z</time>
      </trkpt>
      <trkpt lat="46.52546" lon="5.85451">
        <ele>882</ele>
        <time>2022-08-06T08:32:30Z</time>
      </trkpt>
      <trkpt lat="46.52546" lon="5.85442">
        <ele>882.4</ele>
        <time>2022-08-06T08:32:32Z</time>
      </trkpt>
      <trkpt lat="46.52539" lon="5.85415">
        <ele>883</ele>
        <time>2022-08-06T08:32:37Z</time>
      </trkpt>
      <trkpt lat="46.52536" lon="5.85405">
        <ele>883.4</ele>
        <time>2022-08-06T08:32:39Z</time>
      </trkpt>
      <trkpt lat="46.52525" lon="5.85374">
        <ele>884.2</ele>
        <time>2022-08-06T08:32:45Z</time>
      </trkpt>
      <trkpt lat="46.52515" lon="5.85353">
        <ele>884.4</ele>
        <time>2022-08-06T08:32:49Z</time>
      </trkpt>
      <trkpt lat="46.52503" lon="5.85324">
        <ele>884.8</ele>
        <time>2022-08-06T08:32:54Z</time>
      </trkpt>
      <trkpt lat="46.52489" lon="5.85285">
        <ele>885</ele>
        <time>2022-08-06T08:33:00Z</time>
      </trkpt>
      <trkpt lat="46.52476" lon="5.85235">
        <ele>884.4</ele>
        <time>2022-08-06T08:33:06Z</time>
      </trkpt>
      <trkpt lat="46.52465" lon="5.85184">
        <ele>884.4</ele>
        <time>2022-08-06T08:33:12Z</time>
      </trkpt>
      <trkpt lat="46.52454" lon="5.85109">
        <ele>884.4</ele>
        <time>2022-08-06T08:33:20Z</time>
      </trkpt>
      <trkpt lat="46.52453" lon="5.851">
        <ele>884.8</ele>
        <time>2022-08-06T08:33:21Z</time>
      </trkpt>
      <trkpt lat="46.52449" lon="5.85082">
        <ele>885</ele>
        <time>2022-08-06T08:33:23Z</time>
      </trkpt>
      <trkpt lat="46.5244" lon="5.8506">
        <ele>885</ele>
        <time>2022-08-06T08:33:26Z</time>
      </trkpt>
      <trkpt lat="46.52415" lon="5.85019">
        <ele>885.2</ele>
        <time>2022-08-06T08:33:32Z</time>
      </trkpt>
      <trkpt lat="46.52399" lon="5.85004">
        <ele>885.4</ele>
        <time>2022-08-06T08:33:35Z</time>
      </trkpt>
      <trkpt lat="46.52378" lon="5.84985">
        <ele>886</ele>
        <time>2022-08-06T08:33:39Z</time>
      </trkpt>
      <trkpt lat="46.52359" lon="5.84965">
        <ele>886.6</ele>
        <time>2022-08-06T08:33:43Z</time>
      </trkpt>
      <trkpt lat="46.52351" lon="5.84955">
        <ele>886.6</ele>
        <time>2022-08-06T08:33:45Z</time>
      </trkpt>
      <trkpt lat="46.52338" lon="5.84937">
        <ele>887.6</ele>
        <time>2022-08-06T08:33:49Z</time>
      </trkpt>
      <trkpt lat="46.52332" lon="5.84929">
        <ele>888.8</ele>
        <time>2022-08-06T08:33:51Z</time>
      </trkpt>
      <trkpt lat="46.5233" lon="5.84924">
        <ele>889.2</ele>
        <time>2022-08-06T08:33:52Z</time>
      </trkpt>
      <trkpt lat="46.52322" lon="5.84912">
        <ele>890</ele>
        <time>2022-08-06T08:33:55Z</time>
      </trkpt>
      <trkpt lat="46.52313" lon="5.84899">
        <ele>891</ele>
        <time>2022-08-06T08:33:58Z</time>
      </trkpt>
      <trkpt lat="46.52309" lon="5.84891">
        <ele>891.4</ele>
        <time>2022-08-06T08:34:00Z</time>
      </trkpt>
      <trkpt lat="46.523" lon="5.84872">
        <ele>892.6</ele>
        <time>2022-08-06T08:34:04Z</time>
      </trkpt>
      <trkpt lat="46.52297" lon="5.84862">
        <ele>893.2</ele>
        <time>2022-08-06T08:34:06Z</time>
      </trkpt>
      <trkpt lat="46.52292" lon="5.84848">
        <ele>894</ele>
        <time>2022-08-06T08:34:09Z</time>
      </trkpt>
      <trkpt lat="46.52285" lon="5.84827">
        <ele>895.2</ele>
        <time>2022-08-06T08:34:13Z</time>
      </trkpt>
      <trkpt lat="46.52281" lon="5.84821">
        <ele>895.4</ele>
        <time>2022-08-06T08:34:14Z</time>
      </trkpt>
      <trkpt lat="46.52278" lon="5.84816">
        <ele>895.4</ele>
        <time>2022-08-06T08:34:15Z</time>
      </trkpt>
      <trkpt lat="46.52269" lon="5.84806">
        <ele>895.4</ele>
        <time>2022-08-06T08:34:17Z</time>
      </trkpt>
      <trkpt lat="46.52263" lon="5.84801">
        <ele>895.4</ele>
        <time>2022-08-06T08:34:18Z</time>
      </trkpt>
      <trkpt lat="46.52225" lon="5.84781">
        <ele>895.4</ele>
        <time>2022-08-06T08:34:24Z</time>
      </trkpt>
      <trkpt lat="46.52177" lon="5.84756">
        <ele>894.8</ele>
        <time>2022-08-06T08:34:31Z</time>
      </trkpt>
      <trkpt lat="46.52125" lon="5.84734">
        <ele>894.6</ele>
        <time>2022-08-06T08:34:38Z</time>
      </trkpt>
      <trkpt lat="46.52109" lon="5.84734">
        <ele>894.4</ele>
        <time>2022-08-06T08:34:40Z</time>
      </trkpt>
      <trkpt lat="46.52093" lon="5.84739">
        <ele>894.4</ele>
        <time>2022-08-06T08:34:42Z</time>
      </trkpt>
      <trkpt lat="46.52086" lon="5.84743">
        <ele>894</ele>
        <time>2022-08-06T08:34:43Z</time>
      </trkpt>
      <trkpt lat="46.52072" lon="5.84754">
        <ele>893.6</ele>
        <time>2022-08-06T08:34:45Z</time>
      </trkpt>
      <trkpt lat="46.52065" lon="5.84761">
        <ele>893.4</ele>
        <time>2022-08-06T08:34:46Z</time>
      </trkpt>
      <trkpt lat="46.52047" lon="5.84785">
        <ele>893</ele>
        <time>2022-08-06T08:34:49Z</time>
      </trkpt>
      <trkpt lat="46.52037" lon="5.84803">
        <ele>892.6</ele>
        <time>2022-08-06T08:34:51Z</time>
      </trkpt>
      <trkpt lat="46.51998" lon="5.84866">
        <ele>892.2</ele>
        <time>2022-08-06T08:34:58Z</time>
      </trkpt>
      <trkpt lat="46.5197" lon="5.84891">
        <ele>892.8</ele>
        <time>2022-08-06T08:35:02Z</time>
      </trkpt>
      <trkpt lat="46.51963" lon="5.84895">
        <ele>892.8</ele>
        <time>2022-08-06T08:35:03Z</time>
      </trkpt>
      <trkpt lat="46.51955" lon="5.84898">
        <ele>892.6</ele>
        <time>2022-08-06T08:35:04Z</time>
      </trkpt>
      <trkpt lat="46.51938" lon="5.84901">
        <ele>892.6</ele>
        <time>2022-08-06T08:35:06Z</time>
      </trkpt>
      <trkpt lat="46.5193" lon="5.849">
        <ele>892.8</ele>
        <time>2022-08-06T08:35:07Z</time>
      </trkpt>
      <trkpt lat="46.51897" lon="5.84887">
        <ele>893.4</ele>
        <time>2022-08-06T08:35:11Z</time>
      </trkpt>
      <trkpt lat="46.51845" lon="5.84844">
        <ele>892.4</ele>
        <time>2022-08-06T08:35:18Z</time>
      </trkpt>
      <trkpt lat="46.51799" lon="5.848">
        <ele>892</ele>
        <time>2022-08-06T08:35:24Z</time>
      </trkpt>
      <trkpt lat="46.51779" lon="5.8478">
        <ele>892</ele>
        <time>2022-08-06T08:35:27Z</time>
      </trkpt>
      <trkpt lat="46.51765" lon="5.84763">
        <ele>891.8</ele>
        <time>2022-08-06T08:35:29Z</time>
      </trkpt>
      <trkpt lat="46.51755" lon="5.84746">
        <ele>892</ele>
        <time>2022-08-06T08:35:31Z</time>
      </trkpt>
      <trkpt lat="46.5174" lon="5.84704">
        <ele>891.6</ele>
        <time>2022-08-06T08:35:35Z</time>
      </trkpt>
      <trkpt lat="46.51737" lon="5.84691">
        <ele>891.4</ele>
        <time>2022-08-06T08:35:36Z</time>
      </trkpt>
      <trkpt lat="46.51732" lon="5.84659">
        <ele>891.2</ele>
        <time>2022-08-06T08:35:39Z</time>
      </trkpt>
      <trkpt lat="46.51734" lon="5.84602">
        <ele>890.8</ele>
        <time>2022-08-06T08:35:44Z</time>
      </trkpt>
      <trkpt lat="46.51737" lon="5.84579">
        <ele>891</ele>
        <time>2022-08-06T08:35:46Z</time>
      </trkpt>
      <trkpt lat="46.51743" lon="5.84521">
        <ele>891</ele>
        <time>2022-08-06T08:35:51Z</time>
      </trkpt>
      <trkpt lat="46.51743" lon="5.84443">
        <ele>890.4</ele>
        <time>2022-08-06T08:35:58Z</time>
      </trkpt>
      <trkpt lat="46.51737" lon="5.84422">
        <ele>890.6</ele>
        <time>2022-08-06T08:36:00Z</time>
      </trkpt>
      <trkpt lat="46.51729" lon="5.84403">
        <ele>890.6</ele>
        <time>2022-08-06T08:36:02Z</time>
      </trkpt>
      <trkpt lat="46.51717" lon="5.84389">
        <ele>890.6</ele>
        <time>2022-08-06T08:36:04Z</time>
      </trkpt>
      <trkpt lat="46.5171" lon="5.84383">
        <ele>890.6</ele>
        <time>2022-08-06T08:36:05Z</time>
      </trkpt>
      <trkpt lat="46.51663" lon="5.84344">
        <ele>890.8</ele>
        <time>2022-08-06T08:36:12Z</time>
      </trkpt>
      <trkpt lat="46.51657" lon="5.84338">
        <ele>890.6</ele>
        <time>2022-08-06T08:36:13Z</time>
      </trkpt>
      <trkpt lat="46.51614" lon="5.84295">
        <ele>891.2</ele>
        <time>2022-08-06T08:36:20Z</time>
      </trkpt>
      <trkpt lat="46.5157" lon="5.8426">
        <ele>891.6</ele>
        <time>2022-08-06T08:36:27Z</time>
      </trkpt>
      <trkpt lat="46.51552" lon="5.84242">
        <ele>891.8</ele>
        <time>2022-08-06T08:36:30Z</time>
      </trkpt>
      <trkpt lat="46.51532" lon="5.84215">
        <ele>892.4</ele>
        <time>2022-08-06T08:36:34Z</time>
      </trkpt>
      <trkpt lat="46.51513" lon="5.84192">
        <ele>892.4</ele>
        <time>2022-08-06T08:36:38Z</time>
      </trkpt>
      <trkpt lat="46.51501" lon="5.84184">
        <ele>892.4</ele>
        <time>2022-08-06T08:36:40Z</time>
      </trkpt>
      <trkpt lat="46.51488" lon="5.84179">
        <ele>892.8</ele>
        <time>2022-08-06T08:36:42Z</time>
      </trkpt>
      <trkpt lat="46.51481" lon="5.84178">
        <ele>893</ele>
        <time>2022-08-06T08:36:43Z</time>
      </trkpt>
      <trkpt lat="46.51444" lon="5.8417">
        <ele>893.2</ele>
        <time>2022-08-06T08:36:48Z</time>
      </trkpt>
      <trkpt lat="46.51409" lon="5.84145">
        <ele>892.8</ele>
        <time>2022-08-06T08:36:53Z</time>
      </trkpt>
      <trkpt lat="46.51364" lon="5.84112">
        <ele>891.4</ele>
        <time>2022-08-06T08:36:59Z</time>
      </trkpt>
      <trkpt lat="46.51333" lon="5.84091">
        <ele>890.8</ele>
        <time>2022-08-06T08:37:03Z</time>
      </trkpt>
      <trkpt lat="46.51327" lon="5.84082">
        <ele>890.8</ele>
        <time>2022-08-06T08:37:04Z</time>
      </trkpt>
      <trkpt lat="46.51323" lon="5.84071">
        <ele>890.8</ele>
        <time>2022-08-06T08:37:05Z</time>
      </trkpt>
      <trkpt lat="46.5132" lon="5.84046">
        <ele>890.4</ele>
        <time>2022-08-06T08:37:07Z</time>
      </trkpt>
      <trkpt lat="46.51321" lon="5.84021">
        <ele>890.2</ele>
        <time>2022-08-06T08:37:09Z</time>
      </trkpt>
      <trkpt lat="46.51317" lon="5.83997">
        <ele>890</ele>
        <time>2022-08-06T08:37:11Z</time>
      </trkpt>
      <trkpt lat="46.51307" lon="5.83976">
        <ele>889.4</ele>
        <time>2022-08-06T08:37:13Z</time>
      </trkpt>
      <trkpt lat="46.51301" lon="5.83968">
        <ele>889.2</ele>
        <time>2022-08-06T08:37:14Z</time>
      </trkpt>
      <trkpt lat="46.51294" lon="5.83962">
        <ele>889.2</ele>
        <time>2022-08-06T08:37:15Z</time>
      </trkpt>
      <trkpt lat="46.51273" lon="5.83948">
        <ele>889.2</ele>
        <time>2022-08-06T08:37:18Z</time>
      </trkpt>
      <trkpt lat="46.51242" lon="5.83936">
        <ele>889.6</ele>
        <time>2022-08-06T08:37:22Z</time>
      </trkpt>
      <trkpt lat="46.51227" lon="5.83937">
        <ele>889.6</ele>
        <time>2022-08-06T08:37:24Z</time>
      </trkpt>
      <trkpt lat="46.51212" lon="5.83944">
        <ele>889.8</ele>
        <time>2022-08-06T08:37:26Z</time>
      </trkpt>
      <trkpt lat="46.51206" lon="5.8395">
        <ele>890</ele>
        <time>2022-08-06T08:37:27Z</time>
      </trkpt>
      <trkpt lat="46.51194" lon="5.8396">
        <ele>890</ele>
        <time>2022-08-06T08:37:29Z</time>
      </trkpt>
      <trkpt lat="46.51182" lon="5.83966">
        <ele>890.2</ele>
        <time>2022-08-06T08:37:31Z</time>
      </trkpt>
      <trkpt lat="46.51177" lon="5.83967">
        <ele>890.4</ele>
        <time>2022-08-06T08:37:32Z</time>
      </trkpt>
      <trkpt lat="46.51172" lon="5.83966">
        <ele>890.6</ele>
        <time>2022-08-06T08:37:33Z</time>
      </trkpt>
      <trkpt lat="46.51168" lon="5.83962">
        <ele>891</ele>
        <time>2022-08-06T08:37:34Z</time>
      </trkpt>
      <trkpt lat="46.51166" lon="5.83957">
        <ele>891.2</ele>
        <time>2022-08-06T08:37:35Z</time>
      </trkpt>
      <trkpt lat="46.51165" lon="5.83949">
        <ele>891.6</ele>
        <time>2022-08-06T08:37:36Z</time>
      </trkpt>
      <trkpt lat="46.51165" lon="5.83943">
        <ele>892</ele>
        <time>2022-08-06T08:37:37Z</time>
      </trkpt>
      <trkpt lat="46.51169" lon="5.83929">
        <ele>892.6</ele>
        <time>2022-08-06T08:37:39Z</time>
      </trkpt>
      <trkpt lat="46.51178" lon="5.83904">
        <ele>893.2</ele>
        <time>2022-08-06T08:37:43Z</time>
      </trkpt>
      <trkpt lat="46.51183" lon="5.83892">
        <ele>893.6</ele>
        <time>2022-08-06T08:37:45Z</time>
      </trkpt>
      <trkpt lat="46.5119" lon="5.83876">
        <ele>895.2</ele>
        <time>2022-08-06T08:37:48Z</time>
      </trkpt>
      <trkpt lat="46.51192" lon="5.83871">
        <ele>895.4</ele>
        <time>2022-08-06T08:37:49Z</time>
      </trkpt>
      <trkpt lat="46.51197" lon="5.83854">
        <ele>896.6</ele>
        <time>2022-08-06T08:37:52Z</time>
      </trkpt>
      <trkpt lat="46.51198" lon="5.83847">
        <ele>897.2</ele>
        <time>2022-08-06T08:37:53Z</time>
      </trkpt>
      <trkpt lat="46.51198" lon="5.83834">
        <ele>897.8</ele>
        <time>2022-08-06T08:37:55Z</time>
      </trkpt>
      <trkpt lat="46.51196" lon="5.83822">
        <ele>898.2</ele>
        <time>2022-08-06T08:37:57Z</time>
      </trkpt>
      <trkpt lat="46.51192" lon="5.8381">
        <ele>898.6</ele>
        <time>2022-08-06T08:37:59Z</time>
      </trkpt>
      <trkpt lat="46.5119" lon="5.83805">
        <ele>898.8</ele>
        <time>2022-08-06T08:38:00Z</time>
      </trkpt>
      <trkpt lat="46.51182" lon="5.83794">
        <ele>899.6</ele>
        <time>2022-08-06T08:38:03Z</time>
      </trkpt>
      <trkpt lat="46.51178" lon="5.83792">
        <ele>899.8</ele>
        <time>2022-08-06T08:38:04Z</time>
      </trkpt>
      <trkpt lat="46.51158" lon="5.83784">
        <ele>901</ele>
        <time>2022-08-06T08:38:09Z</time>
      </trkpt>
      <trkpt lat="46.51145" lon="5.83781">
        <ele>901.4</ele>
        <time>2022-08-06T08:38:12Z</time>
      </trkpt>
      <trkpt lat="46.51133" lon="5.83775">
        <ele>902</ele>
        <time>2022-08-06T08:38:15Z</time>
      </trkpt>
      <trkpt lat="46.5113" lon="5.83772">
        <ele>902.2</ele>
        <time>2022-08-06T08:38:16Z</time>
      </trkpt>
      <trkpt lat="46.51127" lon="5.83769">
        <ele>902</ele>
        <time>2022-08-06T08:38:17Z</time>
      </trkpt>
      <trkpt lat="46.51124" lon="5.83764">
        <ele>902.2</ele>
        <time>2022-08-06T08:38:18Z</time>
      </trkpt>
      <trkpt lat="46.51121" lon="5.8376">
        <ele>902.4</ele>
        <time>2022-08-06T08:38:19Z</time>
      </trkpt>
      <trkpt lat="46.51117" lon="5.83744">
        <ele>902.8</ele>
        <time>2022-08-06T08:38:22Z</time>
      </trkpt>
      <trkpt lat="46.51116" lon="5.83734">
        <ele>903</ele>
        <time>2022-08-06T08:38:24Z</time>
      </trkpt>
      <trkpt lat="46.51119" lon="5.83719">
        <ele>903.8</ele>
        <time>2022-08-06T08:38:27Z</time>
      </trkpt>
      <trkpt lat="46.51121" lon="5.83715">
        <ele>904.2</ele>
        <time>2022-08-06T08:38:28Z</time>
      </trkpt>
      <trkpt lat="46.51127" lon="5.83704">
        <ele>905.2</ele>
        <time>2022-08-06T08:38:31Z</time>
      </trkpt>
      <trkpt lat="46.51129" lon="5.83699">
        <ele>905.6</ele>
        <time>2022-08-06T08:38:32Z</time>
      </trkpt>
      <trkpt lat="46.51132" lon="5.83691">
        <ele>906.4</ele>
        <time>2022-08-06T08:38:34Z</time>
      </trkpt>
      <trkpt lat="46.51139" lon="5.83675">
        <ele>907</ele>
        <time>2022-08-06T08:38:38Z</time>
      </trkpt>
      <trkpt lat="46.51145" lon="5.83663">
        <ele>907.6</ele>
        <time>2022-08-06T08:38:41Z</time>
      </trkpt>
      <trkpt lat="46.51147" lon="5.83659">
        <ele>907.6</ele>
        <time>2022-08-06T08:38:42Z</time>
      </trkpt>
      <trkpt lat="46.51155" lon="5.83648">
        <ele>908.8</ele>
        <time>2022-08-06T08:38:45Z</time>
      </trkpt>
      <trkpt lat="46.51162" lon="5.83639">
        <ele>909.2</ele>
        <time>2022-08-06T08:38:47Z</time>
      </trkpt>
      <trkpt lat="46.51182" lon="5.83622">
        <ele>909.8</ele>
        <time>2022-08-06T08:38:52Z</time>
      </trkpt>
      <trkpt lat="46.51187" lon="5.83617">
        <ele>909.8</ele>
        <time>2022-08-06T08:38:53Z</time>
      </trkpt>
      <trkpt lat="46.51207" lon="5.83595">
        <ele>909.8</ele>
        <time>2022-08-06T08:38:57Z</time>
      </trkpt>
      <trkpt lat="46.51221" lon="5.83576">
        <ele>909.8</ele>
        <time>2022-08-06T08:39:00Z</time>
      </trkpt>
      <trkpt lat="46.51234" lon="5.8355">
        <ele>909.4</ele>
        <time>2022-08-06T08:39:04Z</time>
      </trkpt>
      <trkpt lat="46.51242" lon="5.83538">
        <ele>909.4</ele>
        <time>2022-08-06T08:39:06Z</time>
      </trkpt>
      <trkpt lat="46.51257" lon="5.8352">
        <ele>910</ele>
        <time>2022-08-06T08:39:10Z</time>
      </trkpt>
      <trkpt lat="46.51273" lon="5.83499">
        <ele>910.6</ele>
        <time>2022-08-06T08:39:14Z</time>
      </trkpt>
      <trkpt lat="46.51276" lon="5.83494">
        <ele>911</ele>
        <time>2022-08-06T08:39:15Z</time>
      </trkpt>
      <trkpt lat="46.51286" lon="5.83479">
        <ele>911.8</ele>
        <time>2022-08-06T08:39:18Z</time>
      </trkpt>
      <trkpt lat="46.513" lon="5.8345">
        <ele>912.6</ele>
        <time>2022-08-06T08:39:23Z</time>
      </trkpt>
      <trkpt lat="46.51308" lon="5.83433">
        <ele>912.8</ele>
        <time>2022-08-06T08:39:26Z</time>
      </trkpt>
      <trkpt lat="46.51315" lon="5.8342">
        <ele>913</ele>
        <time>2022-08-06T08:39:28Z</time>
      </trkpt>
      <trkpt lat="46.51328" lon="5.83401">
        <ele>913.6</ele>
        <time>2022-08-06T08:39:32Z</time>
      </trkpt>
      <trkpt lat="46.51331" lon="5.83396">
        <ele>913.8</ele>
        <time>2022-08-06T08:39:33Z</time>
      </trkpt>
      <trkpt lat="46.51334" lon="5.83391">
        <ele>914</ele>
        <time>2022-08-06T08:39:34Z</time>
      </trkpt>
      <trkpt lat="46.51347" lon="5.83366">
        <ele>914.4</ele>
        <time>2022-08-06T08:39:38Z</time>
      </trkpt>
      <trkpt lat="46.51349" lon="5.83359">
        <ele>914.6</ele>
        <time>2022-08-06T08:39:39Z</time>
      </trkpt>
      <trkpt lat="46.51357" lon="5.83339">
        <ele>915</ele>
        <time>2022-08-06T08:39:42Z</time>
      </trkpt>
      <trkpt lat="46.51366" lon="5.83309">
        <ele>915.6</ele>
        <time>2022-08-06T08:39:46Z</time>
      </trkpt>
      <trkpt lat="46.51379" lon="5.83267">
        <ele>916.2</ele>
        <time>2022-08-06T08:39:52Z</time>
      </trkpt>
      <trkpt lat="46.51388" lon="5.83239">
        <ele>916.4</ele>
        <time>2022-08-06T08:39:56Z</time>
      </trkpt>
      <trkpt lat="46.51399" lon="5.83206">
        <ele>917</ele>
        <time>2022-08-06T08:40:01Z</time>
      </trkpt>
      <trkpt lat="46.51407" lon="5.83178">
        <ele>917.6</ele>
        <time>2022-08-06T08:40:05Z</time>
      </trkpt>
      <trkpt lat="46.51411" lon="5.83154">
        <ele>918</ele>
        <time>2022-08-06T08:40:08Z</time>
      </trkpt>
      <trkpt lat="46.51412" lon="5.83146">
        <ele>918</ele>
        <time>2022-08-06T08:40:09Z</time>
      </trkpt>
      <trkpt lat="46.51414" lon="5.83123">
        <ele>918.2</ele>
        <time>2022-08-06T08:40:12Z</time>
      </trkpt>
      <trkpt lat="46.51414" lon="5.83115">
        <ele>918.4</ele>
        <time>2022-08-06T08:40:13Z</time>
      </trkpt>
      <trkpt lat="46.51411" lon="5.83092">
        <ele>919</ele>
        <time>2022-08-06T08:40:16Z</time>
      </trkpt>
      <trkpt lat="46.51409" lon="5.83084">
        <ele>919</ele>
        <time>2022-08-06T08:40:17Z</time>
      </trkpt>
      <trkpt lat="46.51406" lon="5.83076">
        <ele>919.2</ele>
        <time>2022-08-06T08:40:18Z</time>
      </trkpt>
      <trkpt lat="46.514" lon="5.83063">
        <ele>919</ele>
        <time>2022-08-06T08:40:20Z</time>
      </trkpt>
      <trkpt lat="46.51377" lon="5.83038">
        <ele>919.2</ele>
        <time>2022-08-06T08:40:25Z</time>
      </trkpt>
      <trkpt lat="46.51352" lon="5.83016">
        <ele>919.8</ele>
        <time>2022-08-06T08:40:30Z</time>
      </trkpt>
      <trkpt lat="46.51347" lon="5.83011">
        <ele>919.8</ele>
        <time>2022-08-06T08:40:31Z</time>
      </trkpt>
      <trkpt lat="46.51344" lon="5.83006">
        <ele>920</ele>
        <time>2022-08-06T08:40:32Z</time>
      </trkpt>
      <trkpt lat="46.51336" lon="5.82991">
        <ele>920.2</ele>
        <time>2022-08-06T08:40:34Z</time>
      </trkpt>
      <trkpt lat="46.51332" lon="5.82976">
        <ele>920.4</ele>
        <time>2022-08-06T08:40:36Z</time>
      </trkpt>
      <trkpt lat="46.5133" lon="5.82969">
        <ele>920.4</ele>
        <time>2022-08-06T08:40:37Z</time>
      </trkpt>
      <trkpt lat="46.51329" lon="5.82961">
        <ele>920.6</ele>
        <time>2022-08-06T08:40:38Z</time>
      </trkpt>
      <trkpt lat="46.51329" lon="5.82953">
        <ele>921</ele>
        <time>2022-08-06T08:40:39Z</time>
      </trkpt>
      <trkpt lat="46.5133" lon="5.82939">
        <ele>921.2</ele>
        <time>2022-08-06T08:40:41Z</time>
      </trkpt>
      <trkpt lat="46.51334" lon="5.82897">
        <ele>922</ele>
        <time>2022-08-06T08:40:46Z</time>
      </trkpt>
      <trkpt lat="46.51335" lon="5.82889">
        <ele>922.2</ele>
        <time>2022-08-06T08:40:47Z</time>
      </trkpt>
      <trkpt lat="46.51335" lon="5.82874">
        <ele>922.4</ele>
        <time>2022-08-06T08:40:49Z</time>
      </trkpt>
      <trkpt lat="46.51332" lon="5.8285">
        <ele>922.6</ele>
        <time>2022-08-06T08:40:52Z</time>
      </trkpt>
      <trkpt lat="46.51328" lon="5.82835">
        <ele>922.8</ele>
        <time>2022-08-06T08:40:54Z</time>
      </trkpt>
      <trkpt lat="46.51323" lon="5.82821">
        <ele>922.8</ele>
        <time>2022-08-06T08:40:56Z</time>
      </trkpt>
      <trkpt lat="46.51304" lon="5.82773">
        <ele>923</ele>
        <time>2022-08-06T08:41:02Z</time>
      </trkpt>
      <trkpt lat="46.51271" lon="5.82717">
        <ele>923</ele>
        <time>2022-08-06T08:41:10Z</time>
      </trkpt>
      <trkpt lat="46.51247" lon="5.82668">
        <ele>922.8</ele>
        <time>2022-08-06T08:41:16Z</time>
      </trkpt>
      <trkpt lat="46.51225" lon="5.82636">
        <ele>923</ele>
        <time>2022-08-06T08:41:21Z</time>
      </trkpt>
      <trkpt lat="46.5122" lon="5.8263">
        <ele>923.2</ele>
        <time>2022-08-06T08:41:22Z</time>
      </trkpt>
      <trkpt lat="46.51194" lon="5.82612">
        <ele>923.6</ele>
        <time>2022-08-06T08:41:27Z</time>
      </trkpt>
      <trkpt lat="46.51189" lon="5.82609">
        <ele>923.8</ele>
        <time>2022-08-06T08:41:28Z</time>
      </trkpt>
      <trkpt lat="46.51158" lon="5.82598">
        <ele>924.6</ele>
        <time>2022-08-06T08:41:33Z</time>
      </trkpt>
      <trkpt lat="46.51153" lon="5.82597">
        <ele>924.8</ele>
        <time>2022-08-06T08:41:34Z</time>
      </trkpt>
      <trkpt lat="46.51146" lon="5.82596">
        <ele>924.8</ele>
        <time>2022-08-06T08:41:35Z</time>
      </trkpt>
      <trkpt lat="46.51109" lon="5.82589">
        <ele>925.6</ele>
        <time>2022-08-06T08:41:41Z</time>
      </trkpt>
      <trkpt lat="46.51104" lon="5.82587">
        <ele>925.6</ele>
        <time>2022-08-06T08:41:42Z</time>
      </trkpt>
      <trkpt lat="46.51092" lon="5.82578">
        <ele>925.8</ele>
        <time>2022-08-06T08:41:44Z</time>
      </trkpt>
      <trkpt lat="46.51088" lon="5.82573">
        <ele>925.8</ele>
        <time>2022-08-06T08:41:45Z</time>
      </trkpt>
      <trkpt lat="46.51083" lon="5.82565">
        <ele>925.8</ele>
        <time>2022-08-06T08:41:46Z</time>
      </trkpt>
      <trkpt lat="46.51077" lon="5.8255">
        <ele>925.8</ele>
        <time>2022-08-06T08:41:48Z</time>
      </trkpt>
      <trkpt lat="46.51069" lon="5.82522">
        <ele>925.8</ele>
        <time>2022-08-06T08:41:51Z</time>
      </trkpt>
      <trkpt lat="46.51056" lon="5.82474">
        <ele>925.4</ele>
        <time>2022-08-06T08:41:56Z</time>
      </trkpt>
      <trkpt lat="46.51031" lon="5.82432">
        <ele>925</ele>
        <time>2022-08-06T08:42:02Z</time>
      </trkpt>
      <trkpt lat="46.51023" lon="5.82415">
        <ele>924.8</ele>
        <time>2022-08-06T08:42:04Z</time>
      </trkpt>
      <trkpt lat="46.51019" lon="5.82399">
        <ele>924.8</ele>
        <time>2022-08-06T08:42:06Z</time>
      </trkpt>
      <trkpt lat="46.51016" lon="5.82372">
        <ele>924.2</ele>
        <time>2022-08-06T08:42:09Z</time>
      </trkpt>
      <trkpt lat="46.51018" lon="5.82356">
        <ele>924.2</ele>
        <time>2022-08-06T08:42:11Z</time>
      </trkpt>
      <trkpt lat="46.5102" lon="5.82345">
        <ele>924</ele>
        <time>2022-08-06T08:42:12Z</time>
      </trkpt>
      <trkpt lat="46.51029" lon="5.82322">
        <ele>923.6</ele>
        <time>2022-08-06T08:42:15Z</time>
      </trkpt>
      <trkpt lat="46.51032" lon="5.82315">
        <ele>923.2</ele>
        <time>2022-08-06T08:42:16Z</time>
      </trkpt>
      <trkpt lat="46.51036" lon="5.82306">
        <ele>923</ele>
        <time>2022-08-06T08:42:17Z</time>
      </trkpt>
      <trkpt lat="46.51044" lon="5.82292">
        <ele>923</ele>
        <time>2022-08-06T08:42:19Z</time>
      </trkpt>
      <trkpt lat="46.51049" lon="5.82285">
        <ele>923</ele>
        <time>2022-08-06T08:42:20Z</time>
      </trkpt>
      <trkpt lat="46.51061" lon="5.82271">
        <ele>923</ele>
        <time>2022-08-06T08:42:22Z</time>
      </trkpt>
      <trkpt lat="46.51074" lon="5.82261">
        <ele>923</ele>
        <time>2022-08-06T08:42:24Z</time>
      </trkpt>
      <trkpt lat="46.51081" lon="5.82256">
        <ele>923</ele>
        <time>2022-08-06T08:42:25Z</time>
      </trkpt>
      <trkpt lat="46.51118" lon="5.82228">
        <ele>922.6</ele>
        <time>2022-08-06T08:42:30Z</time>
      </trkpt>
      <trkpt lat="46.5115" lon="5.8219">
        <ele>922.6</ele>
        <time>2022-08-06T08:42:35Z</time>
      </trkpt>
      <trkpt lat="46.5117" lon="5.82171">
        <ele>922.6</ele>
        <time>2022-08-06T08:42:38Z</time>
      </trkpt>
      <trkpt lat="46.51183" lon="5.82154">
        <ele>922.6</ele>
        <time>2022-08-06T08:42:40Z</time>
      </trkpt>
      <trkpt lat="46.51192" lon="5.82134">
        <ele>922.6</ele>
        <time>2022-08-06T08:42:42Z</time>
      </trkpt>
      <trkpt lat="46.51198" lon="5.82112">
        <ele>922.6</ele>
        <time>2022-08-06T08:42:44Z</time>
      </trkpt>
      <trkpt lat="46.51205" lon="5.82092">
        <ele>922.8</ele>
        <time>2022-08-06T08:42:46Z</time>
      </trkpt>
      <trkpt lat="46.51211" lon="5.82074">
        <ele>922.8</ele>
        <time>2022-08-06T08:42:48Z</time>
      </trkpt>
      <trkpt lat="46.51214" lon="5.82066">
        <ele>922.4</ele>
        <time>2022-08-06T08:42:49Z</time>
      </trkpt>
      <trkpt lat="46.51223" lon="5.82048">
        <ele>922.4</ele>
        <time>2022-08-06T08:42:51Z</time>
      </trkpt>
      <trkpt lat="46.51233" lon="5.82038">
        <ele>922.4</ele>
        <time>2022-08-06T08:42:53Z</time>
      </trkpt>
      <trkpt lat="46.51257" lon="5.8202">
        <ele>922.6</ele>
        <time>2022-08-06T08:42:57Z</time>
      </trkpt>
      <trkpt lat="46.51263" lon="5.82015">
        <ele>922.6</ele>
        <time>2022-08-06T08:42:58Z</time>
      </trkpt>
      <trkpt lat="46.51294" lon="5.81977">
        <ele>923.4</ele>
        <time>2022-08-06T08:43:04Z</time>
      </trkpt>
      <trkpt lat="46.51316" lon="5.81944">
        <ele>923.4</ele>
        <time>2022-08-06T08:43:08Z</time>
      </trkpt>
      <trkpt lat="46.5133" lon="5.81928">
        <ele>923.4</ele>
        <time>2022-08-06T08:43:10Z</time>
      </trkpt>
      <trkpt lat="46.51347" lon="5.81916">
        <ele>922.8</ele>
        <time>2022-08-06T08:43:12Z</time>
      </trkpt>
      <trkpt lat="46.51355" lon="5.81912">
        <ele>922.4</ele>
        <time>2022-08-06T08:43:13Z</time>
      </trkpt>
      <trkpt lat="46.51364" lon="5.81909">
        <ele>921.8</ele>
        <time>2022-08-06T08:43:14Z</time>
      </trkpt>
      <trkpt lat="46.51371" lon="5.81909">
        <ele>921.4</ele>
        <time>2022-08-06T08:43:15Z</time>
      </trkpt>
      <trkpt lat="46.51381" lon="5.81909">
        <ele>920.6</ele>
        <time>2022-08-06T08:43:16Z</time>
      </trkpt>
      <trkpt lat="46.51392" lon="5.81911">
        <ele>919.6</ele>
        <time>2022-08-06T08:43:17Z</time>
      </trkpt>
      <trkpt lat="46.5142" lon="5.8192">
        <ele>918.4</ele>
        <time>2022-08-06T08:43:20Z</time>
      </trkpt>
      <trkpt lat="46.51438" lon="5.81926">
        <ele>917.4</ele>
        <time>2022-08-06T08:43:22Z</time>
      </trkpt>
      <trkpt lat="46.51466" lon="5.81935">
        <ele>916.2</ele>
        <time>2022-08-06T08:43:25Z</time>
      </trkpt>
      <trkpt lat="46.51488" lon="5.81944">
        <ele>915</ele>
        <time>2022-08-06T08:43:27Z</time>
      </trkpt>
      <trkpt lat="46.51501" lon="5.81958">
        <ele>914.4</ele>
        <time>2022-08-06T08:43:29Z</time>
      </trkpt>
      <trkpt lat="46.51513" lon="5.81982">
        <ele>914</ele>
        <time>2022-08-06T08:43:31Z</time>
      </trkpt>
      <trkpt lat="46.51519" lon="5.81996">
        <ele>913</ele>
        <time>2022-08-06T08:43:32Z</time>
      </trkpt>
      <trkpt lat="46.51523" lon="5.82011">
        <ele>912.8</ele>
        <time>2022-08-06T08:43:33Z</time>
      </trkpt>
      <trkpt lat="46.51525" lon="5.82026">
        <ele>912.2</ele>
        <time>2022-08-06T08:43:34Z</time>
      </trkpt>
      <trkpt lat="46.51528" lon="5.82041">
        <ele>912</ele>
        <time>2022-08-06T08:43:35Z</time>
      </trkpt>
      <trkpt lat="46.51533" lon="5.8207">
        <ele>910.8</ele>
        <time>2022-08-06T08:43:37Z</time>
      </trkpt>
      <trkpt lat="46.51544" lon="5.82091">
        <ele>909.4</ele>
        <time>2022-08-06T08:43:39Z</time>
      </trkpt>
      <trkpt lat="46.51569" lon="5.82104">
        <ele>908.4</ele>
        <time>2022-08-06T08:43:41Z</time>
      </trkpt>
      <trkpt lat="46.51581" lon="5.82108">
        <ele>908.2</ele>
        <time>2022-08-06T08:43:42Z</time>
      </trkpt>
      <trkpt lat="46.51591" lon="5.82109">
        <ele>907.6</ele>
        <time>2022-08-06T08:43:43Z</time>
      </trkpt>
      <trkpt lat="46.51601" lon="5.8211">
        <ele>907.2</ele>
        <time>2022-08-06T08:43:44Z</time>
      </trkpt>
      <trkpt lat="46.51611" lon="5.82111">
        <ele>906.6</ele>
        <time>2022-08-06T08:43:45Z</time>
      </trkpt>
      <trkpt lat="46.51631" lon="5.82111">
        <ele>905.6</ele>
        <time>2022-08-06T08:43:47Z</time>
      </trkpt>
      <trkpt lat="46.51662" lon="5.82105">
        <ele>904.4</ele>
        <time>2022-08-06T08:43:50Z</time>
      </trkpt>
      <trkpt lat="46.51682" lon="5.82097">
        <ele>902.8</ele>
        <time>2022-08-06T08:43:52Z</time>
      </trkpt>
      <trkpt lat="46.517" lon="5.82083">
        <ele>901.8</ele>
        <time>2022-08-06T08:43:54Z</time>
      </trkpt>
      <trkpt lat="46.51708" lon="5.82074">
        <ele>901.4</ele>
        <time>2022-08-06T08:43:55Z</time>
      </trkpt>
      <trkpt lat="46.51742" lon="5.8204">
        <ele>900.2</ele>
        <time>2022-08-06T08:43:59Z</time>
      </trkpt>
      <trkpt lat="46.51751" lon="5.82034">
        <ele>900</ele>
        <time>2022-08-06T08:44:00Z</time>
      </trkpt>
      <trkpt lat="46.5176" lon="5.82033">
        <ele>899.6</ele>
        <time>2022-08-06T08:44:01Z</time>
      </trkpt>
      <trkpt lat="46.51768" lon="5.82036">
        <ele>899.2</ele>
        <time>2022-08-06T08:44:02Z</time>
      </trkpt>
      <trkpt lat="46.51787" lon="5.82047">
        <ele>897.6</ele>
        <time>2022-08-06T08:44:04Z</time>
      </trkpt>
      <trkpt lat="46.51797" lon="5.82051">
        <ele>897</ele>
        <time>2022-08-06T08:44:05Z</time>
      </trkpt>
      <trkpt lat="46.51808" lon="5.82053">
        <ele>896</ele>
        <time>2022-08-06T08:44:06Z</time>
      </trkpt>
      <trkpt lat="46.51831" lon="5.82053">
        <ele>895</ele>
        <time>2022-08-06T08:44:08Z</time>
      </trkpt>
      <trkpt lat="46.51842" lon="5.82051">
        <ele>894.6</ele>
        <time>2022-08-06T08:44:09Z</time>
      </trkpt>
      <trkpt lat="46.51862" lon="5.82046">
        <ele>893.6</ele>
        <time>2022-08-06T08:44:11Z</time>
      </trkpt>
      <trkpt lat="46.51873" lon="5.82044">
        <ele>893.4</ele>
        <time>2022-08-06T08:44:12Z</time>
      </trkpt>
      <trkpt lat="46.51884" lon="5.82043">
        <ele>892.8</ele>
        <time>2022-08-06T08:44:13Z</time>
      </trkpt>
      <trkpt lat="46.51895" lon="5.82042">
        <ele>892.2</ele>
        <time>2022-08-06T08:44:14Z</time>
      </trkpt>
      <trkpt lat="46.51924" lon="5.82048">
        <ele>890.8</ele>
        <time>2022-08-06T08:44:17Z</time>
      </trkpt>
      <trkpt lat="46.51943" lon="5.82053">
        <ele>889.6</ele>
        <time>2022-08-06T08:44:19Z</time>
      </trkpt>
      <trkpt lat="46.51963" lon="5.82057">
        <ele>888.6</ele>
        <time>2022-08-06T08:44:21Z</time>
      </trkpt>
      <trkpt lat="46.51993" lon="5.82064">
        <ele>887</ele>
        <time>2022-08-06T08:44:24Z</time>
      </trkpt>
      <trkpt lat="46.52015" lon="5.82068">
        <ele>886</ele>
        <time>2022-08-06T08:44:26Z</time>
      </trkpt>
      <trkpt lat="46.52031" lon="5.82067">
        <ele>885.2</ele>
        <time>2022-08-06T08:44:27Z</time>
      </trkpt>
      <trkpt lat="46.52052" lon="5.8206">
        <ele>884</ele>
        <time>2022-08-06T08:44:29Z</time>
      </trkpt>
      <trkpt lat="46.52066" lon="5.82053">
        <ele>883.4</ele>
        <time>2022-08-06T08:44:30Z</time>
      </trkpt>
      <trkpt lat="46.52076" lon="5.82046">
        <ele>882.2</ele>
        <time>2022-08-06T08:44:31Z</time>
      </trkpt>
      <trkpt lat="46.52096" lon="5.82031">
        <ele>880.8</ele>
        <time>2022-08-06T08:44:33Z</time>
      </trkpt>
      <trkpt lat="46.52106" lon="5.82026">
        <ele>880.2</ele>
        <time>2022-08-06T08:44:34Z</time>
      </trkpt>
      <trkpt lat="46.52115" lon="5.82023">
        <ele>879.8</ele>
        <time>2022-08-06T08:44:35Z</time>
      </trkpt>
      <trkpt lat="46.52128" lon="5.82019">
        <ele>879</ele>
        <time>2022-08-06T08:44:36Z</time>
      </trkpt>
      <trkpt lat="46.5215" lon="5.82015">
        <ele>878.2</ele>
        <time>2022-08-06T08:44:38Z</time>
      </trkpt>
      <trkpt lat="46.52187" lon="5.82007">
        <ele>876.6</ele>
        <time>2022-08-06T08:44:41Z</time>
      </trkpt>
      <trkpt lat="46.52198" lon="5.82002">
        <ele>876.4</ele>
        <time>2022-08-06T08:44:42Z</time>
      </trkpt>
      <trkpt lat="46.52209" lon="5.81996">
        <ele>875.6</ele>
        <time>2022-08-06T08:44:43Z</time>
      </trkpt>
      <trkpt lat="46.52219" lon="5.8199">
        <ele>875.4</ele>
        <time>2022-08-06T08:44:44Z</time>
      </trkpt>
      <trkpt lat="46.52228" lon="5.81985">
        <ele>875.2</ele>
        <time>2022-08-06T08:44:45Z</time>
      </trkpt>
      <trkpt lat="46.52237" lon="5.81984">
        <ele>875</ele>
        <time>2022-08-06T08:44:46Z</time>
      </trkpt>
      <trkpt lat="46.52246" lon="5.81987">
        <ele>874.4</ele>
        <time>2022-08-06T08:44:47Z</time>
      </trkpt>
      <trkpt lat="46.52256" lon="5.81994">
        <ele>874</ele>
        <time>2022-08-06T08:44:48Z</time>
      </trkpt>
      <trkpt lat="46.52263" lon="5.82005">
        <ele>873.4</ele>
        <time>2022-08-06T08:44:49Z</time>
      </trkpt>
      <trkpt lat="46.5227" lon="5.82015">
        <ele>872.2</ele>
        <time>2022-08-06T08:44:50Z</time>
      </trkpt>
      <trkpt lat="46.52279" lon="5.8203">
        <ele>871.8</ele>
        <time>2022-08-06T08:44:51Z</time>
      </trkpt>
      <trkpt lat="46.52287" lon="5.82041">
        <ele>871.2</ele>
        <time>2022-08-06T08:44:52Z</time>
      </trkpt>
      <trkpt lat="46.52308" lon="5.82058">
        <ele>870.2</ele>
        <time>2022-08-06T08:44:54Z</time>
      </trkpt>
      <trkpt lat="46.5232" lon="5.82062">
        <ele>869.4</ele>
        <time>2022-08-06T08:44:55Z</time>
      </trkpt>
      <trkpt lat="46.52333" lon="5.82061">
        <ele>869</ele>
        <time>2022-08-06T08:44:56Z</time>
      </trkpt>
      <trkpt lat="46.52339" lon="5.82055">
        <ele>868</ele>
        <time>2022-08-06T08:44:57Z</time>
      </trkpt>
      <trkpt lat="46.52341" lon="5.82043">
        <ele>867.6</ele>
        <time>2022-08-06T08:44:58Z</time>
      </trkpt>
      <trkpt lat="46.5234" lon="5.8203">
        <ele>867</ele>
        <time>2022-08-06T08:44:59Z</time>
      </trkpt>
      <trkpt lat="46.52336" lon="5.82018">
        <ele>866.6</ele>
        <time>2022-08-06T08:45:00Z</time>
      </trkpt>
      <trkpt lat="46.52332" lon="5.82011">
        <ele>866</ele>
        <time>2022-08-06T08:45:01Z</time>
      </trkpt>
      <trkpt lat="46.52325" lon="5.82005">
        <ele>865.8</ele>
        <time>2022-08-06T08:45:02Z</time>
      </trkpt>
      <trkpt lat="46.52309" lon="5.81998">
        <ele>865.4</ele>
        <time>2022-08-06T08:45:04Z</time>
      </trkpt>
      <trkpt lat="46.52301" lon="5.81997">
        <ele>865.4</ele>
        <time>2022-08-06T08:45:05Z</time>
      </trkpt>
      <trkpt lat="46.52292" lon="5.81995">
        <ele>865</ele>
        <time>2022-08-06T08:45:06Z</time>
      </trkpt>
      <trkpt lat="46.52284" lon="5.81993">
        <ele>865</ele>
        <time>2022-08-06T08:45:07Z</time>
      </trkpt>
      <trkpt lat="46.52276" lon="5.8199">
        <ele>865</ele>
        <time>2022-08-06T08:45:08Z</time>
      </trkpt>
      <trkpt lat="46.52269" lon="5.8198">
        <ele>864.8</ele>
        <time>2022-08-06T08:45:09Z</time>
      </trkpt>
      <trkpt lat="46.5224" lon="5.81934">
        <ele>863.8</ele>
        <time>2022-08-06T08:45:13Z</time>
      </trkpt>
      <trkpt lat="46.52231" lon="5.81924">
        <ele>863.6</ele>
        <time>2022-08-06T08:45:14Z</time>
      </trkpt>
      <trkpt lat="46.52203" lon="5.81903">
        <ele>862.8</ele>
        <time>2022-08-06T08:45:17Z</time>
      </trkpt>
      <trkpt lat="46.52193" lon="5.81899">
        <ele>862.6</ele>
        <time>2022-08-06T08:45:18Z</time>
      </trkpt>
      <trkpt lat="46.52183" lon="5.81898">
        <ele>862.4</ele>
        <time>2022-08-06T08:45:19Z</time>
      </trkpt>
      <trkpt lat="46.52171" lon="5.81898">
        <ele>861.8</ele>
        <time>2022-08-06T08:45:20Z</time>
      </trkpt>
      <trkpt lat="46.5216" lon="5.81898">
        <ele>861.4</ele>
        <time>2022-08-06T08:45:21Z</time>
      </trkpt>
      <trkpt lat="46.52149" lon="5.81896">
        <ele>861</ele>
        <time>2022-08-06T08:45:22Z</time>
      </trkpt>
      <trkpt lat="46.52127" lon="5.81887">
        <ele>860.2</ele>
        <time>2022-08-06T08:45:24Z</time>
      </trkpt>
      <trkpt lat="46.52115" lon="5.81885">
        <ele>859.4</ele>
        <time>2022-08-06T08:45:25Z</time>
      </trkpt>
      <trkpt lat="46.52103" lon="5.81885">
        <ele>859.2</ele>
        <time>2022-08-06T08:45:26Z</time>
      </trkpt>
      <trkpt lat="46.52093" lon="5.81883">
        <ele>858.8</ele>
        <time>2022-08-06T08:45:27Z</time>
      </trkpt>
      <trkpt lat="46.52083" lon="5.81878">
        <ele>858.2</ele>
        <time>2022-08-06T08:45:28Z</time>
      </trkpt>
      <trkpt lat="46.52074" lon="5.81868">
        <ele>857.4</ele>
        <time>2022-08-06T08:45:29Z</time>
      </trkpt>
      <trkpt lat="46.52066" lon="5.81855">
        <ele>857</ele>
        <time>2022-08-06T08:45:30Z</time>
      </trkpt>
      <trkpt lat="46.52056" lon="5.81825">
        <ele>856.2</ele>
        <time>2022-08-06T08:45:32Z</time>
      </trkpt>
      <trkpt lat="46.52052" lon="5.81811">
        <ele>855.4</ele>
        <time>2022-08-06T08:45:33Z</time>
      </trkpt>
      <trkpt lat="46.52041" lon="5.81782">
        <ele>854.4</ele>
        <time>2022-08-06T08:45:35Z</time>
      </trkpt>
      <trkpt lat="46.52034" lon="5.81766">
        <ele>853.6</ele>
        <time>2022-08-06T08:45:36Z</time>
      </trkpt>
      <trkpt lat="46.52027" lon="5.81751">
        <ele>853.2</ele>
        <time>2022-08-06T08:45:37Z</time>
      </trkpt>
      <trkpt lat="46.52005" lon="5.81707">
        <ele>851.2</ele>
        <time>2022-08-06T08:45:40Z</time>
      </trkpt>
      <trkpt lat="46.51997" lon="5.81692">
        <ele>849.4</ele>
        <time>2022-08-06T08:45:41Z</time>
      </trkpt>
      <trkpt lat="46.5198" lon="5.81664">
        <ele>847</ele>
        <time>2022-08-06T08:45:43Z</time>
      </trkpt>
      <trkpt lat="46.5197" lon="5.8165">
        <ele>846</ele>
        <time>2022-08-06T08:45:44Z</time>
      </trkpt>
      <trkpt lat="46.51961" lon="5.81637">
        <ele>844.4</ele>
        <time>2022-08-06T08:45:45Z</time>
      </trkpt>
      <trkpt lat="46.51941" lon="5.81613">
        <ele>842.6</ele>
        <time>2022-08-06T08:45:47Z</time>
      </trkpt>
      <trkpt lat="46.5193" lon="5.81603">
        <ele>841.8</ele>
        <time>2022-08-06T08:45:48Z</time>
      </trkpt>
      <trkpt lat="46.51918" lon="5.81593">
        <ele>841.2</ele>
        <time>2022-08-06T08:45:49Z</time>
      </trkpt>
      <trkpt lat="46.51906" lon="5.81583">
        <ele>840</ele>
        <time>2022-08-06T08:45:50Z</time>
      </trkpt>
      <trkpt lat="46.51895" lon="5.81572">
        <ele>839.6</ele>
        <time>2022-08-06T08:45:51Z</time>
      </trkpt>
      <trkpt lat="46.51886" lon="5.81558">
        <ele>839</ele>
        <time>2022-08-06T08:45:52Z</time>
      </trkpt>
      <trkpt lat="46.51878" lon="5.81542">
        <ele>838.8</ele>
        <time>2022-08-06T08:45:53Z</time>
      </trkpt>
      <trkpt lat="46.51871" lon="5.81521">
        <ele>837.8</ele>
        <time>2022-08-06T08:45:54Z</time>
      </trkpt>
      <trkpt lat="46.51866" lon="5.81508">
        <ele>837</ele>
        <time>2022-08-06T08:45:55Z</time>
      </trkpt>
      <trkpt lat="46.51858" lon="5.81492">
        <ele>835.6</ele>
        <time>2022-08-06T08:45:56Z</time>
      </trkpt>
      <trkpt lat="46.5185" lon="5.81479">
        <ele>834</ele>
        <time>2022-08-06T08:45:57Z</time>
      </trkpt>
      <trkpt lat="46.51843" lon="5.81468">
        <ele>833.6</ele>
        <time>2022-08-06T08:45:58Z</time>
      </trkpt>
      <trkpt lat="46.51837" lon="5.8146">
        <ele>832.4</ele>
        <time>2022-08-06T08:45:59Z</time>
      </trkpt>
      <trkpt lat="46.51829" lon="5.81453">
        <ele>832.2</ele>
        <time>2022-08-06T08:46:00Z</time>
      </trkpt>
      <trkpt lat="46.5182" lon="5.81445">
        <ele>830.8</ele>
        <time>2022-08-06T08:46:01Z</time>
      </trkpt>
      <trkpt lat="46.518" lon="5.81431">
        <ele>828.4</ele>
        <time>2022-08-06T08:46:03Z</time>
      </trkpt>
      <trkpt lat="46.5179" lon="5.81424">
        <ele>827.2</ele>
        <time>2022-08-06T08:46:04Z</time>
      </trkpt>
      <trkpt lat="46.51779" lon="5.81415">
        <ele>826.6</ele>
        <time>2022-08-06T08:46:05Z</time>
      </trkpt>
      <trkpt lat="46.51767" lon="5.81406">
        <ele>825.8</ele>
        <time>2022-08-06T08:46:06Z</time>
      </trkpt>
      <trkpt lat="46.51743" lon="5.81388">
        <ele>824.2</ele>
        <time>2022-08-06T08:46:08Z</time>
      </trkpt>
      <trkpt lat="46.51734" lon="5.8138">
        <ele>823.8</ele>
        <time>2022-08-06T08:46:09Z</time>
      </trkpt>
      <trkpt lat="46.51723" lon="5.81372">
        <ele>823.2</ele>
        <time>2022-08-06T08:46:10Z</time>
      </trkpt>
      <trkpt lat="46.51688" lon="5.81352">
        <ele>821.6</ele>
        <time>2022-08-06T08:46:13Z</time>
      </trkpt>
      <trkpt lat="46.51676" lon="5.81344">
        <ele>821</ele>
        <time>2022-08-06T08:46:14Z</time>
      </trkpt>
      <trkpt lat="46.51665" lon="5.81335">
        <ele>820.4</ele>
        <time>2022-08-06T08:46:15Z</time>
      </trkpt>
      <trkpt lat="46.51655" lon="5.81322">
        <ele>820</ele>
        <time>2022-08-06T08:46:16Z</time>
      </trkpt>
      <trkpt lat="46.51638" lon="5.81296">
        <ele>819.2</ele>
        <time>2022-08-06T08:46:18Z</time>
      </trkpt>
      <trkpt lat="46.51626" lon="5.81283">
        <ele>819</ele>
        <time>2022-08-06T08:46:19Z</time>
      </trkpt>
      <trkpt lat="46.51615" lon="5.81271">
        <ele>817.8</ele>
        <time>2022-08-06T08:46:20Z</time>
      </trkpt>
      <trkpt lat="46.51594" lon="5.81247">
        <ele>816.4</ele>
        <time>2022-08-06T08:46:22Z</time>
      </trkpt>
      <trkpt lat="46.51574" lon="5.81223">
        <ele>815.2</ele>
        <time>2022-08-06T08:46:24Z</time>
      </trkpt>
      <trkpt lat="46.51542" lon="5.81191">
        <ele>813.6</ele>
        <time>2022-08-06T08:46:27Z</time>
      </trkpt>
      <trkpt lat="46.5152" lon="5.81168">
        <ele>811.8</ele>
        <time>2022-08-06T08:46:29Z</time>
      </trkpt>
      <trkpt lat="46.5151" lon="5.81153">
        <ele>811</ele>
        <time>2022-08-06T08:46:30Z</time>
      </trkpt>
      <trkpt lat="46.51501" lon="5.81137">
        <ele>810</ele>
        <time>2022-08-06T08:46:31Z</time>
      </trkpt>
      <trkpt lat="46.51493" lon="5.8112">
        <ele>809.4</ele>
        <time>2022-08-06T08:46:32Z</time>
      </trkpt>
      <trkpt lat="46.51485" lon="5.81103">
        <ele>807.8</ele>
        <time>2022-08-06T08:46:33Z</time>
      </trkpt>
      <trkpt lat="46.51476" lon="5.81086">
        <ele>806.4</ele>
        <time>2022-08-06T08:46:34Z</time>
      </trkpt>
      <trkpt lat="46.51455" lon="5.81056">
        <ele>804.6</ele>
        <time>2022-08-06T08:46:36Z</time>
      </trkpt>
      <trkpt lat="46.51432" lon="5.81029">
        <ele>802.8</ele>
        <time>2022-08-06T08:46:38Z</time>
      </trkpt>
      <trkpt lat="46.51409" lon="5.81002">
        <ele>800.8</ele>
        <time>2022-08-06T08:46:40Z</time>
      </trkpt>
      <trkpt lat="46.51397" lon="5.80986">
        <ele>799.4</ele>
        <time>2022-08-06T08:46:41Z</time>
      </trkpt>
      <trkpt lat="46.5139" lon="5.80974">
        <ele>798.2</ele>
        <time>2022-08-06T08:46:42Z</time>
      </trkpt>
      <trkpt lat="46.5138" lon="5.8096">
        <ele>796.8</ele>
        <time>2022-08-06T08:46:43Z</time>
      </trkpt>
      <trkpt lat="46.51371" lon="5.80944">
        <ele>795.8</ele>
        <time>2022-08-06T08:46:44Z</time>
      </trkpt>
      <trkpt lat="46.51363" lon="5.80922">
        <ele>794.2</ele>
        <time>2022-08-06T08:46:45Z</time>
      </trkpt>
      <trkpt lat="46.51361" lon="5.80901">
        <ele>793.8</ele>
        <time>2022-08-06T08:46:46Z</time>
      </trkpt>
      <trkpt lat="46.51364" lon="5.8088">
        <ele>792.4</ele>
        <time>2022-08-06T08:46:47Z</time>
      </trkpt>
      <trkpt lat="46.51368" lon="5.80857">
        <ele>792</ele>
        <time>2022-08-06T08:46:48Z</time>
      </trkpt>
      <trkpt lat="46.51374" lon="5.80837">
        <ele>790.6</ele>
        <time>2022-08-06T08:46:49Z</time>
      </trkpt>
      <trkpt lat="46.5138" lon="5.80817">
        <ele>789</ele>
        <time>2022-08-06T08:46:50Z</time>
      </trkpt>
      <trkpt lat="46.51392" lon="5.80779">
        <ele>786.6</ele>
        <time>2022-08-06T08:46:52Z</time>
      </trkpt>
      <trkpt lat="46.51402" lon="5.80742">
        <ele>784.6</ele>
        <time>2022-08-06T08:46:54Z</time>
      </trkpt>
      <trkpt lat="46.51407" lon="5.80723">
        <ele>784</ele>
        <time>2022-08-06T08:46:55Z</time>
      </trkpt>
      <trkpt lat="46.51411" lon="5.80706">
        <ele>783.4</ele>
        <time>2022-08-06T08:46:56Z</time>
      </trkpt>
      <trkpt lat="46.51421" lon="5.80671">
        <ele>782</ele>
        <time>2022-08-06T08:46:58Z</time>
      </trkpt>
      <trkpt lat="46.51425" lon="5.80653">
        <ele>780.8</ele>
        <time>2022-08-06T08:46:59Z</time>
      </trkpt>
      <trkpt lat="46.51433" lon="5.80619">
        <ele>779.4</ele>
        <time>2022-08-06T08:47:01Z</time>
      </trkpt>
      <trkpt lat="46.51439" lon="5.80585">
        <ele>778.2</ele>
        <time>2022-08-06T08:47:03Z</time>
      </trkpt>
      <trkpt lat="46.51451" lon="5.80534">
        <ele>777.2</ele>
        <time>2022-08-06T08:47:06Z</time>
      </trkpt>
      <trkpt lat="46.51455" lon="5.80518">
        <ele>776.8</ele>
        <time>2022-08-06T08:47:07Z</time>
      </trkpt>
      <trkpt lat="46.51462" lon="5.80484">
        <ele>775.8</ele>
        <time>2022-08-06T08:47:09Z</time>
      </trkpt>
      <trkpt lat="46.51475" lon="5.80419">
        <ele>774.4</ele>
        <time>2022-08-06T08:47:13Z</time>
      </trkpt>
      <trkpt lat="46.51482" lon="5.80386">
        <ele>773.2</ele>
        <time>2022-08-06T08:47:15Z</time>
      </trkpt>
      <trkpt lat="46.51497" lon="5.80312">
        <ele>772.2</ele>
        <time>2022-08-06T08:47:20Z</time>
      </trkpt>
      <trkpt lat="46.51517" lon="5.80249">
        <ele>771.8</ele>
        <time>2022-08-06T08:47:25Z</time>
      </trkpt>
      <trkpt lat="46.51547" lon="5.80189">
        <ele>772.2</ele>
        <time>2022-08-06T08:47:31Z</time>
      </trkpt>
      <trkpt lat="46.5158" lon="5.80122">
        <ele>772.8</ele>
        <time>2022-08-06T08:47:39Z</time>
      </trkpt>
      <trkpt lat="46.51599" lon="5.80065">
        <ele>772.2</ele>
        <time>2022-08-06T08:47:44Z</time>
      </trkpt>
      <trkpt lat="46.51605" lon="5.80051">
        <ele>772</ele>
        <time>2022-08-06T08:47:45Z</time>
      </trkpt>
      <trkpt lat="46.51618" lon="5.8003">
        <ele>771.8</ele>
        <time>2022-08-06T08:47:47Z</time>
      </trkpt>
      <trkpt lat="46.51624" lon="5.80024">
        <ele>771</ele>
        <time>2022-08-06T08:47:48Z</time>
      </trkpt>
      <trkpt lat="46.51648" lon="5.80005">
        <ele>769.6</ele>
        <time>2022-08-06T08:47:51Z</time>
      </trkpt>
      <trkpt lat="46.51657" lon="5.80003">
        <ele>769.2</ele>
        <time>2022-08-06T08:47:52Z</time>
      </trkpt>
      <trkpt lat="46.51685" lon="5.8">
        <ele>768.4</ele>
        <time>2022-08-06T08:47:55Z</time>
      </trkpt>
      <trkpt lat="46.51705" lon="5.79999">
        <ele>768.2</ele>
        <time>2022-08-06T08:47:57Z</time>
      </trkpt>
      <trkpt lat="46.51758" lon="5.79988">
        <ele>768</ele>
        <time>2022-08-06T08:48:03Z</time>
      </trkpt>
      <trkpt lat="46.51799" lon="5.7999">
        <ele>768</ele>
        <time>2022-08-06T08:48:08Z</time>
      </trkpt>
      <trkpt lat="46.51831" lon="5.79988">
        <ele>768</ele>
        <time>2022-08-06T08:48:12Z</time>
      </trkpt>
      <trkpt lat="46.51838" lon="5.79985">
        <ele>768</ele>
        <time>2022-08-06T08:48:13Z</time>
      </trkpt>
      <trkpt lat="46.51851" lon="5.79978">
        <ele>768.2</ele>
        <time>2022-08-06T08:48:15Z</time>
      </trkpt>
      <trkpt lat="46.51864" lon="5.79964">
        <ele>768.4</ele>
        <time>2022-08-06T08:48:17Z</time>
      </trkpt>
      <trkpt lat="46.51884" lon="5.79938">
        <ele>769</ele>
        <time>2022-08-06T08:48:21Z</time>
      </trkpt>
      <trkpt lat="46.51891" lon="5.79923">
        <ele>769.4</ele>
        <time>2022-08-06T08:48:23Z</time>
      </trkpt>
      <trkpt lat="46.51912" lon="5.7989">
        <ele>770.2</ele>
        <time>2022-08-06T08:48:28Z</time>
      </trkpt>
      <trkpt lat="46.51926" lon="5.79871">
        <ele>770.6</ele>
        <time>2022-08-06T08:48:31Z</time>
      </trkpt>
      <trkpt lat="46.51939" lon="5.79853">
        <ele>771</ele>
        <time>2022-08-06T08:48:34Z</time>
      </trkpt>
      <trkpt lat="46.51953" lon="5.79835">
        <ele>771.2</ele>
        <time>2022-08-06T08:48:37Z</time>
      </trkpt>
      <trkpt lat="46.5196" lon="5.79824">
        <ele>771.6</ele>
        <time>2022-08-06T08:48:39Z</time>
      </trkpt>
      <trkpt lat="46.51963" lon="5.79819">
        <ele>771.6</ele>
        <time>2022-08-06T08:48:40Z</time>
      </trkpt>
      <trkpt lat="46.51968" lon="5.79813">
        <ele>771.8</ele>
        <time>2022-08-06T08:48:41Z</time>
      </trkpt>
      <trkpt lat="46.5198" lon="5.79795">
        <ele>772</ele>
        <time>2022-08-06T08:48:44Z</time>
      </trkpt>
      <trkpt lat="46.51987" lon="5.79781">
        <ele>772.2</ele>
        <time>2022-08-06T08:48:46Z</time>
      </trkpt>
      <trkpt lat="46.51994" lon="5.79764">
        <ele>772.4</ele>
        <time>2022-08-06T08:48:48Z</time>
      </trkpt>
      <trkpt lat="46.51999" lon="5.79744">
        <ele>772.8</ele>
        <time>2022-08-06T08:48:50Z</time>
      </trkpt>
      <trkpt lat="46.52008" lon="5.79733">
        <ele>773</ele>
        <time>2022-08-06T08:48:52Z</time>
      </trkpt>
      <trkpt lat="46.52013" lon="5.79727">
        <ele>773.2</ele>
        <time>2022-08-06T08:48:53Z</time>
      </trkpt>
      <trkpt lat="46.52021" lon="5.79715">
        <ele>773.2</ele>
        <time>2022-08-06T08:48:55Z</time>
      </trkpt>
      <trkpt lat="46.52035" lon="5.79689">
        <ele>773.6</ele>
        <time>2022-08-06T08:48:59Z</time>
      </trkpt>
      <trkpt lat="46.52045" lon="5.79668">
        <ele>774</ele>
        <time>2022-08-06T08:49:02Z</time>
      </trkpt>
      <trkpt lat="46.52053" lon="5.79655">
        <ele>774.2</ele>
        <time>2022-08-06T08:49:04Z</time>
      </trkpt>
      <trkpt lat="46.52057" lon="5.79649">
        <ele>774.4</ele>
        <time>2022-08-06T08:49:05Z</time>
      </trkpt>
      <trkpt lat="46.52074" lon="5.79622">
        <ele>774.6</ele>
        <time>2022-08-06T08:49:09Z</time>
      </trkpt>
      <trkpt lat="46.52082" lon="5.79607">
        <ele>774.6</ele>
        <time>2022-08-06T08:49:11Z</time>
      </trkpt>
      <trkpt lat="46.521" lon="5.79575">
        <ele>775</ele>
        <time>2022-08-06T08:49:16Z</time>
      </trkpt>
      <trkpt lat="46.52104" lon="5.79568">
        <ele>775</ele>
        <time>2022-08-06T08:49:17Z</time>
      </trkpt>
      <trkpt lat="46.52116" lon="5.7955">
        <ele>775.2</ele>
        <time>2022-08-06T08:49:20Z</time>
      </trkpt>
      <trkpt lat="46.52129" lon="5.7954">
        <ele>775.2</ele>
        <time>2022-08-06T08:49:22Z</time>
      </trkpt>
      <trkpt lat="46.52153" lon="5.79527">
        <ele>775.2</ele>
        <time>2022-08-06T08:49:26Z</time>
      </trkpt>
      <trkpt lat="46.5216" lon="5.79526">
        <ele>775</ele>
        <time>2022-08-06T08:49:27Z</time>
      </trkpt>
      <trkpt lat="46.52202" lon="5.79512">
        <ele>774</ele>
        <time>2022-08-06T08:49:33Z</time>
      </trkpt>
      <trkpt lat="46.52209" lon="5.79509">
        <ele>773.6</ele>
        <time>2022-08-06T08:49:34Z</time>
      </trkpt>
      <trkpt lat="46.52217" lon="5.79506">
        <ele>773.4</ele>
        <time>2022-08-06T08:49:35Z</time>
      </trkpt>
      <trkpt lat="46.52239" lon="5.79495">
        <ele>773</ele>
        <time>2022-08-06T08:49:38Z</time>
      </trkpt>
      <trkpt lat="46.52252" lon="5.79495">
        <ele>772.8</ele>
        <time>2022-08-06T08:49:40Z</time>
      </trkpt>
      <trkpt lat="46.5226" lon="5.79498">
        <ele>772.6</ele>
        <time>2022-08-06T08:49:41Z</time>
      </trkpt>
      <trkpt lat="46.52268" lon="5.79503">
        <ele>772.4</ele>
        <time>2022-08-06T08:49:42Z</time>
      </trkpt>
      <trkpt lat="46.52281" lon="5.79517">
        <ele>772.2</ele>
        <time>2022-08-06T08:49:44Z</time>
      </trkpt>
      <trkpt lat="46.52294" lon="5.79532">
        <ele>771.4</ele>
        <time>2022-08-06T08:49:46Z</time>
      </trkpt>
      <trkpt lat="46.52302" lon="5.79538">
        <ele>771.2</ele>
        <time>2022-08-06T08:49:47Z</time>
      </trkpt>
      <trkpt lat="46.52311" lon="5.79542">
        <ele>771</ele>
        <time>2022-08-06T08:49:48Z</time>
      </trkpt>
      <trkpt lat="46.52319" lon="5.79544">
        <ele>771</ele>
        <time>2022-08-06T08:49:49Z</time>
      </trkpt>
      <trkpt lat="46.5234" lon="5.79544">
        <ele>770.8</ele>
        <time>2022-08-06T08:49:51Z</time>
      </trkpt>
      <trkpt lat="46.5235" lon="5.79543">
        <ele>770.2</ele>
        <time>2022-08-06T08:49:52Z</time>
      </trkpt>
      <trkpt lat="46.52383" lon="5.79545">
        <ele>768.8</ele>
        <time>2022-08-06T08:49:55Z</time>
      </trkpt>
      <trkpt lat="46.52404" lon="5.79556">
        <ele>767.4</ele>
        <time>2022-08-06T08:49:57Z</time>
      </trkpt>
      <trkpt lat="46.52415" lon="5.79564">
        <ele>767</ele>
        <time>2022-08-06T08:49:58Z</time>
      </trkpt>
      <trkpt lat="46.52425" lon="5.79573">
        <ele>766.2</ele>
        <time>2022-08-06T08:49:59Z</time>
      </trkpt>
      <trkpt lat="46.52444" lon="5.79592">
        <ele>765</ele>
        <time>2022-08-06T08:50:01Z</time>
      </trkpt>
      <trkpt lat="46.52465" lon="5.7961">
        <ele>763.8</ele>
        <time>2022-08-06T08:50:03Z</time>
      </trkpt>
      <trkpt lat="46.52475" lon="5.79618">
        <ele>762.6</ele>
        <time>2022-08-06T08:50:04Z</time>
      </trkpt>
      <trkpt lat="46.52494" lon="5.79636">
        <ele>761.4</ele>
        <time>2022-08-06T08:50:06Z</time>
      </trkpt>
      <trkpt lat="46.52512" lon="5.7965">
        <ele>760.4</ele>
        <time>2022-08-06T08:50:08Z</time>
      </trkpt>
      <trkpt lat="46.52532" lon="5.79652">
        <ele>759</ele>
        <time>2022-08-06T08:50:10Z</time>
      </trkpt>
      <trkpt lat="46.5255" lon="5.79638">
        <ele>757.8</ele>
        <time>2022-08-06T08:50:12Z</time>
      </trkpt>
      <trkpt lat="46.52573" lon="5.79608">
        <ele>756.8</ele>
        <time>2022-08-06T08:50:15Z</time>
      </trkpt>
      <trkpt lat="46.52589" lon="5.7959">
        <ele>755.8</ele>
        <time>2022-08-06T08:50:17Z</time>
      </trkpt>
      <trkpt lat="46.52598" lon="5.79581">
        <ele>754.8</ele>
        <time>2022-08-06T08:50:18Z</time>
      </trkpt>
      <trkpt lat="46.52607" lon="5.79574">
        <ele>754.4</ele>
        <time>2022-08-06T08:50:19Z</time>
      </trkpt>
      <trkpt lat="46.52636" lon="5.79555">
        <ele>752.8</ele>
        <time>2022-08-06T08:50:22Z</time>
      </trkpt>
      <trkpt lat="46.52652" lon="5.79536">
        <ele>751.6</ele>
        <time>2022-08-06T08:50:24Z</time>
      </trkpt>
      <trkpt lat="46.52658" lon="5.79524">
        <ele>751</ele>
        <time>2022-08-06T08:50:25Z</time>
      </trkpt>
      <trkpt lat="46.52664" lon="5.7951">
        <ele>750.6</ele>
        <time>2022-08-06T08:50:26Z</time>
      </trkpt>
      <trkpt lat="46.52668" lon="5.79496">
        <ele>749.2</ele>
        <time>2022-08-06T08:50:27Z</time>
      </trkpt>
      <trkpt lat="46.52671" lon="5.79481">
        <ele>748.6</ele>
        <time>2022-08-06T08:50:28Z</time>
      </trkpt>
      <trkpt lat="46.52672" lon="5.79467">
        <ele>748</ele>
        <time>2022-08-06T08:50:29Z</time>
      </trkpt>
      <trkpt lat="46.52671" lon="5.79452">
        <ele>747.6</ele>
        <time>2022-08-06T08:50:30Z</time>
      </trkpt>
      <trkpt lat="46.52669" lon="5.79437">
        <ele>747.2</ele>
        <time>2022-08-06T08:50:31Z</time>
      </trkpt>
      <trkpt lat="46.52666" lon="5.79423">
        <ele>746.8</ele>
        <time>2022-08-06T08:50:32Z</time>
      </trkpt>
      <trkpt lat="46.52665" lon="5.79408">
        <ele>746.4</ele>
        <time>2022-08-06T08:50:33Z</time>
      </trkpt>
      <trkpt lat="46.52665" lon="5.79392">
        <ele>745.6</ele>
        <time>2022-08-06T08:50:34Z</time>
      </trkpt>
      <trkpt lat="46.52668" lon="5.79378">
        <ele>745.4</ele>
        <time>2022-08-06T08:50:35Z</time>
      </trkpt>
      <trkpt lat="46.52682" lon="5.79338">
        <ele>744.2</ele>
        <time>2022-08-06T08:50:38Z</time>
      </trkpt>
      <trkpt lat="46.52693" lon="5.79313">
        <ele>743</ele>
        <time>2022-08-06T08:50:40Z</time>
      </trkpt>
      <trkpt lat="46.52709" lon="5.79281">
        <ele>741.6</ele>
        <time>2022-08-06T08:50:43Z</time>
      </trkpt>
      <trkpt lat="46.52715" lon="5.79269">
        <ele>741.6</ele>
        <time>2022-08-06T08:50:44Z</time>
      </trkpt>
      <trkpt lat="46.52728" lon="5.79224">
        <ele>741.4</ele>
        <time>2022-08-06T08:50:48Z</time>
      </trkpt>
      <trkpt lat="46.52743" lon="5.79165">
        <ele>741.6</ele>
        <time>2022-08-06T08:50:53Z</time>
      </trkpt>
      <trkpt lat="46.52748" lon="5.79153">
        <ele>741.6</ele>
        <time>2022-08-06T08:50:54Z</time>
      </trkpt>
      <trkpt lat="46.52754" lon="5.79144">
        <ele>741.2</ele>
        <time>2022-08-06T08:50:55Z</time>
      </trkpt>
      <trkpt lat="46.52769" lon="5.79129">
        <ele>740.8</ele>
        <time>2022-08-06T08:50:57Z</time>
      </trkpt>
      <trkpt lat="46.52777" lon="5.79123">
        <ele>740.4</ele>
        <time>2022-08-06T08:50:58Z</time>
      </trkpt>
      <trkpt lat="46.52785" lon="5.79121">
        <ele>739.8</ele>
        <time>2022-08-06T08:50:59Z</time>
      </trkpt>
      <trkpt lat="46.52793" lon="5.7912">
        <ele>739.6</ele>
        <time>2022-08-06T08:51:00Z</time>
      </trkpt>
      <trkpt lat="46.52799" lon="5.7912">
        <ele>739</ele>
        <time>2022-08-06T08:51:01Z</time>
      </trkpt>
      <trkpt lat="46.52809" lon="5.79123">
        <ele>738.8</ele>
        <time>2022-08-06T08:51:02Z</time>
      </trkpt>
      <trkpt lat="46.5282" lon="5.79126">
        <ele>737.8</ele>
        <time>2022-08-06T08:51:03Z</time>
      </trkpt>
      <trkpt lat="46.52841" lon="5.79129">
        <ele>736.6</ele>
        <time>2022-08-06T08:51:05Z</time>
      </trkpt>
      <trkpt lat="46.52854" lon="5.79129">
        <ele>736</ele>
        <time>2022-08-06T08:51:06Z</time>
      </trkpt>
      <trkpt lat="46.52865" lon="5.79127">
        <ele>735.6</ele>
        <time>2022-08-06T08:51:07Z</time>
      </trkpt>
      <trkpt lat="46.52897" lon="5.79115">
        <ele>734.4</ele>
        <time>2022-08-06T08:51:10Z</time>
      </trkpt>
      <trkpt lat="46.52908" lon="5.79108">
        <ele>733.4</ele>
        <time>2022-08-06T08:51:11Z</time>
      </trkpt>
      <trkpt lat="46.52921" lon="5.791">
        <ele>733</ele>
        <time>2022-08-06T08:51:12Z</time>
      </trkpt>
      <trkpt lat="46.52931" lon="5.79092">
        <ele>732.4</ele>
        <time>2022-08-06T08:51:13Z</time>
      </trkpt>
      <trkpt lat="46.5295" lon="5.79071">
        <ele>731.6</ele>
        <time>2022-08-06T08:51:15Z</time>
      </trkpt>
      <trkpt lat="46.5296" lon="5.79062">
        <ele>731.4</ele>
        <time>2022-08-06T08:51:16Z</time>
      </trkpt>
      <trkpt lat="46.52981" lon="5.79053">
        <ele>730.8</ele>
        <time>2022-08-06T08:51:18Z</time>
      </trkpt>
      <trkpt lat="46.52991" lon="5.79053">
        <ele>730.4</ele>
        <time>2022-08-06T08:51:19Z</time>
      </trkpt>
      <trkpt lat="46.53014" lon="5.79056">
        <ele>729.8</ele>
        <time>2022-08-06T08:51:21Z</time>
      </trkpt>
      <trkpt lat="46.53051" lon="5.79065">
        <ele>729.4</ele>
        <time>2022-08-06T08:51:25Z</time>
      </trkpt>
      <trkpt lat="46.53078" lon="5.79073">
        <ele>729.4</ele>
        <time>2022-08-06T08:51:28Z</time>
      </trkpt>
      <trkpt lat="46.53122" lon="5.79093">
        <ele>729.8</ele>
        <time>2022-08-06T08:51:33Z</time>
      </trkpt>
      <trkpt lat="46.53173" lon="5.79118">
        <ele>729.2</ele>
        <time>2022-08-06T08:51:39Z</time>
      </trkpt>
      <trkpt lat="46.53192" lon="5.79129">
        <ele>728.6</ele>
        <time>2022-08-06T08:51:41Z</time>
      </trkpt>
      <trkpt lat="46.5321" lon="5.7914">
        <ele>728.2</ele>
        <time>2022-08-06T08:51:43Z</time>
      </trkpt>
      <trkpt lat="46.53242" lon="5.79165">
        <ele>727.4</ele>
        <time>2022-08-06T08:51:47Z</time>
      </trkpt>
      <trkpt lat="46.53266" lon="5.79191">
        <ele>726.8</ele>
        <time>2022-08-06T08:51:50Z</time>
      </trkpt>
      <trkpt lat="46.53305" lon="5.79224">
        <ele>726</ele>
        <time>2022-08-06T08:51:55Z</time>
      </trkpt>
      <trkpt lat="46.53321" lon="5.79235">
        <ele>725.6</ele>
        <time>2022-08-06T08:51:57Z</time>
      </trkpt>
      <trkpt lat="46.53352" lon="5.79258">
        <ele>724.4</ele>
        <time>2022-08-06T08:52:01Z</time>
      </trkpt>
      <trkpt lat="46.53359" lon="5.79265">
        <ele>724.2</ele>
        <time>2022-08-06T08:52:02Z</time>
      </trkpt>
      <trkpt lat="46.53391" lon="5.79311">
        <ele>723.4</ele>
        <time>2022-08-06T08:52:07Z</time>
      </trkpt>
      <trkpt lat="46.53396" lon="5.79321">
        <ele>723.2</ele>
        <time>2022-08-06T08:52:08Z</time>
      </trkpt>
      <trkpt lat="46.53422" lon="5.79357">
        <ele>722.4</ele>
        <time>2022-08-06T08:52:12Z</time>
      </trkpt>
      <trkpt lat="46.5343" lon="5.79364">
        <ele>722.2</ele>
        <time>2022-08-06T08:52:13Z</time>
      </trkpt>
      <trkpt lat="46.53464" lon="5.79386">
        <ele>722</ele>
        <time>2022-08-06T08:52:17Z</time>
      </trkpt>
      <trkpt lat="46.53518" lon="5.79407">
        <ele>721.4</ele>
        <time>2022-08-06T08:52:23Z</time>
      </trkpt>
      <trkpt lat="46.53528" lon="5.7941">
        <ele>721.2</ele>
        <time>2022-08-06T08:52:24Z</time>
      </trkpt>
      <trkpt lat="46.53552" lon="5.79418">
        <ele>720.4</ele>
        <time>2022-08-06T08:52:27Z</time>
      </trkpt>
      <trkpt lat="46.53561" lon="5.7942">
        <ele>720</ele>
        <time>2022-08-06T08:52:28Z</time>
      </trkpt>
      <trkpt lat="46.53572" lon="5.79421">
        <ele>719.8</ele>
        <time>2022-08-06T08:52:29Z</time>
      </trkpt>
      <trkpt lat="46.53583" lon="5.79421">
        <ele>719.8</ele>
        <time>2022-08-06T08:52:30Z</time>
      </trkpt>
      <trkpt lat="46.53602" lon="5.79421">
        <ele>719.2</ele>
        <time>2022-08-06T08:52:32Z</time>
      </trkpt>
      <trkpt lat="46.53615" lon="5.79419">
        <ele>718.6</ele>
        <time>2022-08-06T08:52:33Z</time>
      </trkpt>
      <trkpt lat="46.53634" lon="5.79417">
        <ele>717.6</ele>
        <time>2022-08-06T08:52:35Z</time>
      </trkpt>
      <trkpt lat="46.53668" lon="5.79414">
        <ele>716.6</ele>
        <time>2022-08-06T08:52:38Z</time>
      </trkpt>
      <trkpt lat="46.5369" lon="5.79413">
        <ele>716</ele>
        <time>2022-08-06T08:52:40Z</time>
      </trkpt>
      <trkpt lat="46.53698" lon="5.79413">
        <ele>716</ele>
        <time>2022-08-06T08:52:41Z</time>
      </trkpt>
      <trkpt lat="46.53721" lon="5.79415">
        <ele>715.4</ele>
        <time>2022-08-06T08:52:43Z</time>
      </trkpt>
      <trkpt lat="46.53743" lon="5.7942">
        <ele>714.4</ele>
        <time>2022-08-06T08:52:45Z</time>
      </trkpt>
      <trkpt lat="46.53752" lon="5.79423">
        <ele>714.2</ele>
        <time>2022-08-06T08:52:46Z</time>
      </trkpt>
      <trkpt lat="46.53781" lon="5.79434">
        <ele>713</ele>
        <time>2022-08-06T08:52:49Z</time>
      </trkpt>
      <trkpt lat="46.5379" lon="5.79438">
        <ele>712.6</ele>
        <time>2022-08-06T08:52:50Z</time>
      </trkpt>
      <trkpt lat="46.5381" lon="5.79448">
        <ele>712.2</ele>
        <time>2022-08-06T08:52:52Z</time>
      </trkpt>
      <trkpt lat="46.53833" lon="5.79454">
        <ele>712.2</ele>
        <time>2022-08-06T08:52:54Z</time>
      </trkpt>
      <trkpt lat="46.53878" lon="5.79466">
        <ele>712.4</ele>
        <time>2022-08-06T08:52:59Z</time>
      </trkpt>
      <trkpt lat="46.53922" lon="5.79478">
        <ele>713</ele>
        <time>2022-08-06T08:53:05Z</time>
      </trkpt>
      <trkpt lat="46.53963" lon="5.795">
        <ele>713.8</ele>
        <time>2022-08-06T08:53:11Z</time>
      </trkpt>
      <trkpt lat="46.53971" lon="5.79505">
        <ele>714</ele>
        <time>2022-08-06T08:53:12Z</time>
      </trkpt>
      <trkpt lat="46.54" lon="5.79533">
        <ele>714.8</ele>
        <time>2022-08-06T08:53:17Z</time>
      </trkpt>
      <trkpt lat="46.54007" lon="5.79537">
        <ele>714.8</ele>
        <time>2022-08-06T08:53:18Z</time>
      </trkpt>
      <trkpt lat="46.54029" lon="5.79548">
        <ele>715</ele>
        <time>2022-08-06T08:53:21Z</time>
      </trkpt>
      <trkpt lat="46.54042" lon="5.79552">
        <ele>715</ele>
        <time>2022-08-06T08:53:23Z</time>
      </trkpt>
      <trkpt lat="46.5405" lon="5.79554">
        <ele>715</ele>
        <time>2022-08-06T08:53:24Z</time>
      </trkpt>
      <trkpt lat="46.54075" lon="5.79555">
        <ele>715</ele>
        <time>2022-08-06T08:53:27Z</time>
      </trkpt>
      <trkpt lat="46.54083" lon="5.79555">
        <ele>715</ele>
        <time>2022-08-06T08:53:28Z</time>
      </trkpt>
      <trkpt lat="46.54116" lon="5.79545">
        <ele>714.4</ele>
        <time>2022-08-06T08:53:32Z</time>
      </trkpt>
      <trkpt lat="46.5416" lon="5.79514">
        <ele>713.8</ele>
        <time>2022-08-06T08:53:38Z</time>
      </trkpt>
      <trkpt lat="46.54167" lon="5.79508">
        <ele>713.8</ele>
        <time>2022-08-06T08:53:39Z</time>
      </trkpt>
      <trkpt lat="46.54204" lon="5.79469">
        <ele>713.2</ele>
        <time>2022-08-06T08:53:45Z</time>
      </trkpt>
      <trkpt lat="46.5421" lon="5.79462">
        <ele>713.2</ele>
        <time>2022-08-06T08:53:46Z</time>
      </trkpt>
      <trkpt lat="46.54227" lon="5.79437">
        <ele>712.8</ele>
        <time>2022-08-06T08:53:49Z</time>
      </trkpt>
      <trkpt lat="46.54241" lon="5.79422">
        <ele>712.8</ele>
        <time>2022-08-06T08:53:51Z</time>
      </trkpt>
      <trkpt lat="46.54249" lon="5.79416">
        <ele>712.6</ele>
        <time>2022-08-06T08:53:52Z</time>
      </trkpt>
      <trkpt lat="46.54257" lon="5.79412">
        <ele>712.2</ele>
        <time>2022-08-06T08:53:53Z</time>
      </trkpt>
      <trkpt lat="46.54274" lon="5.7941">
        <ele>711.4</ele>
        <time>2022-08-06T08:53:55Z</time>
      </trkpt>
      <trkpt lat="46.54284" lon="5.79412">
        <ele>710.6</ele>
        <time>2022-08-06T08:53:56Z</time>
      </trkpt>
      <trkpt lat="46.54296" lon="5.79414">
        <ele>710.2</ele>
        <time>2022-08-06T08:53:57Z</time>
      </trkpt>
      <trkpt lat="46.54306" lon="5.79416">
        <ele>709</ele>
        <time>2022-08-06T08:53:58Z</time>
      </trkpt>
      <trkpt lat="46.54324" lon="5.79418">
        <ele>708</ele>
        <time>2022-08-06T08:54:00Z</time>
      </trkpt>
      <trkpt lat="46.54336" lon="5.79418">
        <ele>707.6</ele>
        <time>2022-08-06T08:54:01Z</time>
      </trkpt>
      <trkpt lat="46.54368" lon="5.79414">
        <ele>706.8</ele>
        <time>2022-08-06T08:54:04Z</time>
      </trkpt>
      <trkpt lat="46.54379" lon="5.7941">
        <ele>705.8</ele>
        <time>2022-08-06T08:54:05Z</time>
      </trkpt>
      <trkpt lat="46.54401" lon="5.79398">
        <ele>704.8</ele>
        <time>2022-08-06T08:54:07Z</time>
      </trkpt>
      <trkpt lat="46.54423" lon="5.79385">
        <ele>703.8</ele>
        <time>2022-08-06T08:54:09Z</time>
      </trkpt>
      <trkpt lat="46.54433" lon="5.79379">
        <ele>703.2</ele>
        <time>2022-08-06T08:54:10Z</time>
      </trkpt>
      <trkpt lat="46.54452" lon="5.79361">
        <ele>702.4</ele>
        <time>2022-08-06T08:54:12Z</time>
      </trkpt>
      <trkpt lat="46.54459" lon="5.79354">
        <ele>702</ele>
        <time>2022-08-06T08:54:13Z</time>
      </trkpt>
      <trkpt lat="46.54474" lon="5.79335">
        <ele>700.4</ele>
        <time>2022-08-06T08:54:15Z</time>
      </trkpt>
      <trkpt lat="46.54491" lon="5.79317">
        <ele>699.2</ele>
        <time>2022-08-06T08:54:17Z</time>
      </trkpt>
      <trkpt lat="46.54501" lon="5.79305">
        <ele>698.6</ele>
        <time>2022-08-06T08:54:18Z</time>
      </trkpt>
      <trkpt lat="46.54508" lon="5.79294">
        <ele>698</ele>
        <time>2022-08-06T08:54:19Z</time>
      </trkpt>
      <trkpt lat="46.54515" lon="5.79282">
        <ele>697.8</ele>
        <time>2022-08-06T08:54:20Z</time>
      </trkpt>
      <trkpt lat="46.54531" lon="5.79262">
        <ele>696.8</ele>
        <time>2022-08-06T08:54:22Z</time>
      </trkpt>
      <trkpt lat="46.54538" lon="5.79257">
        <ele>696.6</ele>
        <time>2022-08-06T08:54:23Z</time>
      </trkpt>
      <trkpt lat="46.54546" lon="5.79252">
        <ele>696.4</ele>
        <time>2022-08-06T08:54:24Z</time>
      </trkpt>
      <trkpt lat="46.54557" lon="5.79252">
        <ele>696.2</ele>
        <time>2022-08-06T08:54:25Z</time>
      </trkpt>
      <trkpt lat="46.5457" lon="5.79253">
        <ele>695.6</ele>
        <time>2022-08-06T08:54:26Z</time>
      </trkpt>
      <trkpt lat="46.54596" lon="5.79249">
        <ele>694.8</ele>
        <time>2022-08-06T08:54:28Z</time>
      </trkpt>
      <trkpt lat="46.54617" lon="5.79236">
        <ele>694.2</ele>
        <time>2022-08-06T08:54:30Z</time>
      </trkpt>
      <trkpt lat="46.54662" lon="5.79195">
        <ele>693.2</ele>
        <time>2022-08-06T08:54:35Z</time>
      </trkpt>
      <trkpt lat="46.54679" lon="5.79179">
        <ele>693</ele>
        <time>2022-08-06T08:54:37Z</time>
      </trkpt>
      <trkpt lat="46.54705" lon="5.79155">
        <ele>691.6</ele>
        <time>2022-08-06T08:54:40Z</time>
      </trkpt>
      <trkpt lat="46.54713" lon="5.7915">
        <ele>691.2</ele>
        <time>2022-08-06T08:54:41Z</time>
      </trkpt>
      <trkpt lat="46.54723" lon="5.79145">
        <ele>690.6</ele>
        <time>2022-08-06T08:54:42Z</time>
      </trkpt>
      <trkpt lat="46.54753" lon="5.79131">
        <ele>689.8</ele>
        <time>2022-08-06T08:54:45Z</time>
      </trkpt>
      <trkpt lat="46.54763" lon="5.79124">
        <ele>689.6</ele>
        <time>2022-08-06T08:54:46Z</time>
      </trkpt>
      <trkpt lat="46.54772" lon="5.79115">
        <ele>689</ele>
        <time>2022-08-06T08:54:47Z</time>
      </trkpt>
      <trkpt lat="46.5478" lon="5.79103">
        <ele>688.8</ele>
        <time>2022-08-06T08:54:48Z</time>
      </trkpt>
      <trkpt lat="46.54787" lon="5.79091">
        <ele>688.2</ele>
        <time>2022-08-06T08:54:49Z</time>
      </trkpt>
      <trkpt lat="46.54791" lon="5.79063">
        <ele>687.4</ele>
        <time>2022-08-06T08:54:51Z</time>
      </trkpt>
      <trkpt lat="46.54783" lon="5.7903">
        <ele>686.4</ele>
        <time>2022-08-06T08:54:53Z</time>
      </trkpt>
      <trkpt lat="46.54771" lon="5.7898">
        <ele>684.8</ele>
        <time>2022-08-06T08:54:56Z</time>
      </trkpt>
      <trkpt lat="46.54759" lon="5.7893">
        <ele>683.6</ele>
        <time>2022-08-06T08:54:59Z</time>
      </trkpt>
      <trkpt lat="46.54756" lon="5.78914">
        <ele>683</ele>
        <time>2022-08-06T08:55:00Z</time>
      </trkpt>
      <trkpt lat="46.54752" lon="5.78899">
        <ele>682.4</ele>
        <time>2022-08-06T08:55:01Z</time>
      </trkpt>
      <trkpt lat="46.54745" lon="5.78853">
        <ele>681.6</ele>
        <time>2022-08-06T08:55:04Z</time>
      </trkpt>
      <trkpt lat="46.54743" lon="5.78838">
        <ele>681.4</ele>
        <time>2022-08-06T08:55:05Z</time>
      </trkpt>
      <trkpt lat="46.54744" lon="5.78823">
        <ele>681.2</ele>
        <time>2022-08-06T08:55:06Z</time>
      </trkpt>
      <trkpt lat="46.54746" lon="5.78794">
        <ele>681</ele>
        <time>2022-08-06T08:55:08Z</time>
      </trkpt>
      <trkpt lat="46.54749" lon="5.78781">
        <ele>680.8</ele>
        <time>2022-08-06T08:55:09Z</time>
      </trkpt>
      <trkpt lat="46.54757" lon="5.78754">
        <ele>680.8</ele>
        <time>2022-08-06T08:55:11Z</time>
      </trkpt>
      <trkpt lat="46.54767" lon="5.78737">
        <ele>680.6</ele>
        <time>2022-08-06T08:55:13Z</time>
      </trkpt>
      <trkpt lat="46.54774" lon="5.78732">
        <ele>680.6</ele>
        <time>2022-08-06T08:55:14Z</time>
      </trkpt>
      <trkpt lat="46.54781" lon="5.78727">
        <ele>680.6</ele>
        <time>2022-08-06T08:55:15Z</time>
      </trkpt>
      <trkpt lat="46.54801" lon="5.78712">
        <ele>680.8</ele>
        <time>2022-08-06T08:55:18Z</time>
      </trkpt>
      <trkpt lat="46.54821" lon="5.78702">
        <ele>681.2</ele>
        <time>2022-08-06T08:55:21Z</time>
      </trkpt>
      <trkpt lat="46.54836" lon="5.78699">
        <ele>681.6</ele>
        <time>2022-08-06T08:55:23Z</time>
      </trkpt>
      <trkpt lat="46.54864" lon="5.78694">
        <ele>682.4</ele>
        <time>2022-08-06T08:55:27Z</time>
      </trkpt>
      <trkpt lat="46.54878" lon="5.78691">
        <ele>683</ele>
        <time>2022-08-06T08:55:29Z</time>
      </trkpt>
      <trkpt lat="46.54898" lon="5.78685">
        <ele>683.4</ele>
        <time>2022-08-06T08:55:32Z</time>
      </trkpt>
      <trkpt lat="46.54911" lon="5.7868">
        <ele>683.8</ele>
        <time>2022-08-06T08:55:34Z</time>
      </trkpt>
      <trkpt lat="46.54944" lon="5.7867">
        <ele>684.2</ele>
        <time>2022-08-06T08:55:39Z</time>
      </trkpt>
      <trkpt lat="46.5495" lon="5.78667">
        <ele>684.6</ele>
        <time>2022-08-06T08:55:40Z</time>
      </trkpt>
      <trkpt lat="46.54968" lon="5.78657">
        <ele>685</ele>
        <time>2022-08-06T08:55:43Z</time>
      </trkpt>
      <trkpt lat="46.54973" lon="5.78651">
        <ele>685</ele>
        <time>2022-08-06T08:55:44Z</time>
      </trkpt>
      <trkpt lat="46.54983" lon="5.78639">
        <ele>685.4</ele>
        <time>2022-08-06T08:55:46Z</time>
      </trkpt>
      <trkpt lat="46.54992" lon="5.78624">
        <ele>685.4</ele>
        <time>2022-08-06T08:55:48Z</time>
      </trkpt>
      <trkpt lat="46.54995" lon="5.78615">
        <ele>685.6</ele>
        <time>2022-08-06T08:55:49Z</time>
      </trkpt>
      <trkpt lat="46.55001" lon="5.78588">
        <ele>685.6</ele>
        <time>2022-08-06T08:55:52Z</time>
      </trkpt>
      <trkpt lat="46.55002" lon="5.78578">
        <ele>685.6</ele>
        <time>2022-08-06T08:55:53Z</time>
      </trkpt>
      <trkpt lat="46.55005" lon="5.7855">
        <ele>685.6</ele>
        <time>2022-08-06T08:55:56Z</time>
      </trkpt>
      <trkpt lat="46.55007" lon="5.78521">
        <ele>685.6</ele>
        <time>2022-08-06T08:55:59Z</time>
      </trkpt>
      <trkpt lat="46.5501" lon="5.78446">
        <ele>685.2</ele>
        <time>2022-08-06T08:56:06Z</time>
      </trkpt>
      <trkpt lat="46.55023" lon="5.78393">
        <ele>684.8</ele>
        <time>2022-08-06T08:56:11Z</time>
      </trkpt>
      <trkpt lat="46.55041" lon="5.78326">
        <ele>684.2</ele>
        <time>2022-08-06T08:56:17Z</time>
      </trkpt>
      <trkpt lat="46.55044" lon="5.783">
        <ele>683.4</ele>
        <time>2022-08-06T08:56:19Z</time>
      </trkpt>
      <trkpt lat="46.55046" lon="5.7826">
        <ele>682.8</ele>
        <time>2022-08-06T08:56:22Z</time>
      </trkpt>
      <trkpt lat="46.55047" lon="5.78247">
        <ele>682.4</ele>
        <time>2022-08-06T08:56:23Z</time>
      </trkpt>
      <trkpt lat="46.5505" lon="5.78219">
        <ele>682</ele>
        <time>2022-08-06T08:56:25Z</time>
      </trkpt>
      <trkpt lat="46.55054" lon="5.78206">
        <ele>681.6</ele>
        <time>2022-08-06T08:56:26Z</time>
      </trkpt>
      <trkpt lat="46.55058" lon="5.78194">
        <ele>681.2</ele>
        <time>2022-08-06T08:56:27Z</time>
      </trkpt>
      <trkpt lat="46.55074" lon="5.78158">
        <ele>680</ele>
        <time>2022-08-06T08:56:30Z</time>
      </trkpt>
      <trkpt lat="46.5509" lon="5.78123">
        <ele>678.8</ele>
        <time>2022-08-06T08:56:33Z</time>
      </trkpt>
      <trkpt lat="46.55108" lon="5.7809">
        <ele>677.6</ele>
        <time>2022-08-06T08:56:36Z</time>
      </trkpt>
      <trkpt lat="46.55124" lon="5.78054">
        <ele>676.8</ele>
        <time>2022-08-06T08:56:39Z</time>
      </trkpt>
      <trkpt lat="46.55128" lon="5.7804">
        <ele>676.4</ele>
        <time>2022-08-06T08:56:40Z</time>
      </trkpt>
      <trkpt lat="46.55141" lon="5.78">
        <ele>675.2</ele>
        <time>2022-08-06T08:56:43Z</time>
      </trkpt>
      <trkpt lat="46.55149" lon="5.77973">
        <ele>674.6</ele>
        <time>2022-08-06T08:56:45Z</time>
      </trkpt>
      <trkpt lat="46.55158" lon="5.77932">
        <ele>673.8</ele>
        <time>2022-08-06T08:56:48Z</time>
      </trkpt>
      <trkpt lat="46.55167" lon="5.77903">
        <ele>673</ele>
        <time>2022-08-06T08:56:50Z</time>
      </trkpt>
      <trkpt lat="46.55174" lon="5.77891">
        <ele>672.2</ele>
        <time>2022-08-06T08:56:51Z</time>
      </trkpt>
      <trkpt lat="46.55181" lon="5.77879">
        <ele>672</ele>
        <time>2022-08-06T08:56:52Z</time>
      </trkpt>
      <trkpt lat="46.55196" lon="5.77858">
        <ele>671.6</ele>
        <time>2022-08-06T08:56:54Z</time>
      </trkpt>
      <trkpt lat="46.55211" lon="5.77837">
        <ele>670.8</ele>
        <time>2022-08-06T08:56:56Z</time>
      </trkpt>
      <trkpt lat="46.55233" lon="5.77807">
        <ele>670</ele>
        <time>2022-08-06T08:56:59Z</time>
      </trkpt>
      <trkpt lat="46.55242" lon="5.778">
        <ele>669.6</ele>
        <time>2022-08-06T08:57:00Z</time>
      </trkpt>
      <trkpt lat="46.55269" lon="5.77785">
        <ele>668.4</ele>
        <time>2022-08-06T08:57:03Z</time>
      </trkpt>
      <trkpt lat="46.55279" lon="5.77781">
        <ele>668.2</ele>
        <time>2022-08-06T08:57:04Z</time>
      </trkpt>
      <trkpt lat="46.55309" lon="5.77765">
        <ele>667</ele>
        <time>2022-08-06T08:57:07Z</time>
      </trkpt>
      <trkpt lat="46.55329" lon="5.77755">
        <ele>666.2</ele>
        <time>2022-08-06T08:57:09Z</time>
      </trkpt>
      <trkpt lat="46.55339" lon="5.77748">
        <ele>666</ele>
        <time>2022-08-06T08:57:10Z</time>
      </trkpt>
      <trkpt lat="46.55351" lon="5.77739">
        <ele>665.4</ele>
        <time>2022-08-06T08:57:11Z</time>
      </trkpt>
      <trkpt lat="46.55369" lon="5.77723">
        <ele>664.8</ele>
        <time>2022-08-06T08:57:13Z</time>
      </trkpt>
      <trkpt lat="46.55379" lon="5.77714">
        <ele>664.2</ele>
        <time>2022-08-06T08:57:14Z</time>
      </trkpt>
      <trkpt lat="46.55399" lon="5.777">
        <ele>663.2</ele>
        <time>2022-08-06T08:57:16Z</time>
      </trkpt>
      <trkpt lat="46.55409" lon="5.77694">
        <ele>663</ele>
        <time>2022-08-06T08:57:17Z</time>
      </trkpt>
      <trkpt lat="46.55422" lon="5.77689">
        <ele>662.4</ele>
        <time>2022-08-06T08:57:18Z</time>
      </trkpt>
      <trkpt lat="46.55431" lon="5.77687">
        <ele>661.8</ele>
        <time>2022-08-06T08:57:19Z</time>
      </trkpt>
      <trkpt lat="46.55453" lon="5.77677">
        <ele>660.6</ele>
        <time>2022-08-06T08:57:21Z</time>
      </trkpt>
      <trkpt lat="46.5547" lon="5.77657">
        <ele>659.4</ele>
        <time>2022-08-06T08:57:23Z</time>
      </trkpt>
      <trkpt lat="46.55478" lon="5.77645">
        <ele>659.2</ele>
        <time>2022-08-06T08:57:24Z</time>
      </trkpt>
      <trkpt lat="46.55498" lon="5.77606">
        <ele>658.4</ele>
        <time>2022-08-06T08:57:27Z</time>
      </trkpt>
      <trkpt lat="46.5551" lon="5.77578">
        <ele>656.8</ele>
        <time>2022-08-06T08:57:29Z</time>
      </trkpt>
      <trkpt lat="46.55525" lon="5.77552">
        <ele>656.4</ele>
        <time>2022-08-06T08:57:31Z</time>
      </trkpt>
      <trkpt lat="46.55532" lon="5.7754">
        <ele>655.8</ele>
        <time>2022-08-06T08:57:32Z</time>
      </trkpt>
      <trkpt lat="46.5554" lon="5.77528">
        <ele>655.4</ele>
        <time>2022-08-06T08:57:33Z</time>
      </trkpt>
      <trkpt lat="46.55557" lon="5.77505">
        <ele>654.6</ele>
        <time>2022-08-06T08:57:35Z</time>
      </trkpt>
      <trkpt lat="46.55572" lon="5.77479">
        <ele>653.6</ele>
        <time>2022-08-06T08:57:37Z</time>
      </trkpt>
      <trkpt lat="46.55579" lon="5.77462">
        <ele>653.4</ele>
        <time>2022-08-06T08:57:38Z</time>
      </trkpt>
      <trkpt lat="46.55582" lon="5.7745">
        <ele>652.6</ele>
        <time>2022-08-06T08:57:39Z</time>
      </trkpt>
      <trkpt lat="46.55586" lon="5.77434">
        <ele>652.4</ele>
        <time>2022-08-06T08:57:40Z</time>
      </trkpt>
      <trkpt lat="46.55595" lon="5.77405">
        <ele>651.2</ele>
        <time>2022-08-06T08:57:42Z</time>
      </trkpt>
      <trkpt lat="46.5561" lon="5.77383">
        <ele>650.4</ele>
        <time>2022-08-06T08:57:44Z</time>
      </trkpt>
      <trkpt lat="46.55618" lon="5.77374">
        <ele>650.2</ele>
        <time>2022-08-06T08:57:45Z</time>
      </trkpt>
      <trkpt lat="46.55628" lon="5.77366">
        <ele>649.8</ele>
        <time>2022-08-06T08:57:46Z</time>
      </trkpt>
      <trkpt lat="46.55647" lon="5.77347">
        <ele>648</ele>
        <time>2022-08-06T08:57:48Z</time>
      </trkpt>
      <trkpt lat="46.55655" lon="5.77336">
        <ele>647.6</ele>
        <time>2022-08-06T08:57:49Z</time>
      </trkpt>
      <trkpt lat="46.55663" lon="5.77324">
        <ele>646.6</ele>
        <time>2022-08-06T08:57:50Z</time>
      </trkpt>
      <trkpt lat="46.55676" lon="5.77298">
        <ele>645.4</ele>
        <time>2022-08-06T08:57:52Z</time>
      </trkpt>
      <trkpt lat="46.55682" lon="5.77283">
        <ele>645</ele>
        <time>2022-08-06T08:57:53Z</time>
      </trkpt>
      <trkpt lat="46.55692" lon="5.77251">
        <ele>644</ele>
        <time>2022-08-06T08:57:55Z</time>
      </trkpt>
      <trkpt lat="46.55701" lon="5.77219">
        <ele>642.6</ele>
        <time>2022-08-06T08:57:57Z</time>
      </trkpt>
      <trkpt lat="46.55711" lon="5.77187">
        <ele>641.4</ele>
        <time>2022-08-06T08:57:59Z</time>
      </trkpt>
      <trkpt lat="46.55722" lon="5.77155">
        <ele>640</ele>
        <time>2022-08-06T08:58:01Z</time>
      </trkpt>
      <trkpt lat="46.55733" lon="5.77123">
        <ele>638.8</ele>
        <time>2022-08-06T08:58:03Z</time>
      </trkpt>
      <trkpt lat="46.55746" lon="5.77092">
        <ele>636.8</ele>
        <time>2022-08-06T08:58:05Z</time>
      </trkpt>
      <trkpt lat="46.55752" lon="5.77077">
        <ele>636.4</ele>
        <time>2022-08-06T08:58:06Z</time>
      </trkpt>
      <trkpt lat="46.55762" lon="5.77046">
        <ele>635.6</ele>
        <time>2022-08-06T08:58:08Z</time>
      </trkpt>
      <trkpt lat="46.55765" lon="5.77029">
        <ele>634.6</ele>
        <time>2022-08-06T08:58:09Z</time>
      </trkpt>
      <trkpt lat="46.55766" lon="5.77012">
        <ele>634.2</ele>
        <time>2022-08-06T08:58:10Z</time>
      </trkpt>
      <trkpt lat="46.55767" lon="5.76977">
        <ele>633.4</ele>
        <time>2022-08-06T08:58:12Z</time>
      </trkpt>
      <trkpt lat="46.55767" lon="5.7696">
        <ele>633</ele>
        <time>2022-08-06T08:58:13Z</time>
      </trkpt>
      <trkpt lat="46.55769" lon="5.76925">
        <ele>631.8</ele>
        <time>2022-08-06T08:58:15Z</time>
      </trkpt>
      <trkpt lat="46.55771" lon="5.76908">
        <ele>629.8</ele>
        <time>2022-08-06T08:58:16Z</time>
      </trkpt>
      <trkpt lat="46.55776" lon="5.76873">
        <ele>627.8</ele>
        <time>2022-08-06T08:58:18Z</time>
      </trkpt>
      <trkpt lat="46.55779" lon="5.76838">
        <ele>626.8</ele>
        <time>2022-08-06T08:58:20Z</time>
      </trkpt>
      <trkpt lat="46.55779" lon="5.7682">
        <ele>625.8</ele>
        <time>2022-08-06T08:58:21Z</time>
      </trkpt>
      <trkpt lat="46.55779" lon="5.76801">
        <ele>625.4</ele>
        <time>2022-08-06T08:58:22Z</time>
      </trkpt>
      <trkpt lat="46.55782" lon="5.76765">
        <ele>624.2</ele>
        <time>2022-08-06T08:58:24Z</time>
      </trkpt>
      <trkpt lat="46.55785" lon="5.76731">
        <ele>623.2</ele>
        <time>2022-08-06T08:58:26Z</time>
      </trkpt>
      <trkpt lat="46.55786" lon="5.76713">
        <ele>622</ele>
        <time>2022-08-06T08:58:27Z</time>
      </trkpt>
      <trkpt lat="46.55787" lon="5.7666">
        <ele>620.4</ele>
        <time>2022-08-06T08:58:30Z</time>
      </trkpt>
      <trkpt lat="46.55783" lon="5.76642">
        <ele>620.2</ele>
        <time>2022-08-06T08:58:31Z</time>
      </trkpt>
      <trkpt lat="46.55774" lon="5.76611">
        <ele>619.4</ele>
        <time>2022-08-06T08:58:33Z</time>
      </trkpt>
      <trkpt lat="46.55765" lon="5.76577">
        <ele>618.2</ele>
        <time>2022-08-06T08:58:35Z</time>
      </trkpt>
      <trkpt lat="46.55762" lon="5.76559">
        <ele>617.6</ele>
        <time>2022-08-06T08:58:36Z</time>
      </trkpt>
      <trkpt lat="46.55761" lon="5.7654">
        <ele>617.4</ele>
        <time>2022-08-06T08:58:37Z</time>
      </trkpt>
      <trkpt lat="46.55763" lon="5.76521">
        <ele>617</ele>
        <time>2022-08-06T08:58:38Z</time>
      </trkpt>
      <trkpt lat="46.55767" lon="5.765">
        <ele>616</ele>
        <time>2022-08-06T08:58:39Z</time>
      </trkpt>
      <trkpt lat="46.5578" lon="5.76468">
        <ele>613.8</ele>
        <time>2022-08-06T08:58:41Z</time>
      </trkpt>
      <trkpt lat="46.55795" lon="5.7644">
        <ele>612.4</ele>
        <time>2022-08-06T08:58:43Z</time>
      </trkpt>
      <trkpt lat="46.5581" lon="5.76415">
        <ele>611</ele>
        <time>2022-08-06T08:58:45Z</time>
      </trkpt>
      <trkpt lat="46.55827" lon="5.76385">
        <ele>610</ele>
        <time>2022-08-06T08:58:47Z</time>
      </trkpt>
      <trkpt lat="46.55841" lon="5.76361">
        <ele>608.8</ele>
        <time>2022-08-06T08:58:49Z</time>
      </trkpt>
      <trkpt lat="46.55858" lon="5.76333">
        <ele>606.4</ele>
        <time>2022-08-06T08:58:51Z</time>
      </trkpt>
      <trkpt lat="46.55867" lon="5.76321">
        <ele>605.8</ele>
        <time>2022-08-06T08:58:52Z</time>
      </trkpt>
      <trkpt lat="46.55878" lon="5.76311">
        <ele>604.8</ele>
        <time>2022-08-06T08:58:53Z</time>
      </trkpt>
      <trkpt lat="46.559" lon="5.76297">
        <ele>602.8</ele>
        <time>2022-08-06T08:58:55Z</time>
      </trkpt>
      <trkpt lat="46.55934" lon="5.76284">
        <ele>601.6</ele>
        <time>2022-08-06T08:58:58Z</time>
      </trkpt>
      <trkpt lat="46.55957" lon="5.76273">
        <ele>600</ele>
        <time>2022-08-06T08:59:00Z</time>
      </trkpt>
      <trkpt lat="46.55981" lon="5.76262">
        <ele>598.4</ele>
        <time>2022-08-06T08:59:02Z</time>
      </trkpt>
      <trkpt lat="46.56007" lon="5.76245">
        <ele>596.4</ele>
        <time>2022-08-06T08:59:04Z</time>
      </trkpt>
      <trkpt lat="46.56028" lon="5.76227">
        <ele>595</ele>
        <time>2022-08-06T08:59:06Z</time>
      </trkpt>
      <trkpt lat="46.56059" lon="5.76199">
        <ele>593</ele>
        <time>2022-08-06T08:59:09Z</time>
      </trkpt>
      <trkpt lat="46.56097" lon="5.76164">
        <ele>591.8</ele>
        <time>2022-08-06T08:59:13Z</time>
      </trkpt>
      <trkpt lat="46.56109" lon="5.76158">
        <ele>591.6</ele>
        <time>2022-08-06T08:59:14Z</time>
      </trkpt>
      <trkpt lat="46.56131" lon="5.76146">
        <ele>590</ele>
        <time>2022-08-06T08:59:16Z</time>
      </trkpt>
      <trkpt lat="46.56155" lon="5.76139">
        <ele>588.8</ele>
        <time>2022-08-06T08:59:18Z</time>
      </trkpt>
      <trkpt lat="46.56178" lon="5.7614">
        <ele>587</ele>
        <time>2022-08-06T08:59:20Z</time>
      </trkpt>
      <trkpt lat="46.5619" lon="5.76144">
        <ele>586.4</ele>
        <time>2022-08-06T08:59:21Z</time>
      </trkpt>
      <trkpt lat="46.56204" lon="5.76147">
        <ele>585.2</ele>
        <time>2022-08-06T08:59:22Z</time>
      </trkpt>
      <trkpt lat="46.56229" lon="5.76154">
        <ele>583.6</ele>
        <time>2022-08-06T08:59:24Z</time>
      </trkpt>
      <trkpt lat="46.56243" lon="5.76156">
        <ele>582.6</ele>
        <time>2022-08-06T08:59:25Z</time>
      </trkpt>
      <trkpt lat="46.5627" lon="5.76159">
        <ele>581</ele>
        <time>2022-08-06T08:59:27Z</time>
      </trkpt>
      <trkpt lat="46.56297" lon="5.76153">
        <ele>578.6</ele>
        <time>2022-08-06T08:59:29Z</time>
      </trkpt>
      <trkpt lat="46.56309" lon="5.76147">
        <ele>577.2</ele>
        <time>2022-08-06T08:59:30Z</time>
      </trkpt>
      <trkpt lat="46.56318" lon="5.7614">
        <ele>576.6</ele>
        <time>2022-08-06T08:59:31Z</time>
      </trkpt>
      <trkpt lat="46.56331" lon="5.76127">
        <ele>575.2</ele>
        <time>2022-08-06T08:59:32Z</time>
      </trkpt>
      <trkpt lat="46.5634" lon="5.76115">
        <ele>574.4</ele>
        <time>2022-08-06T08:59:33Z</time>
      </trkpt>
      <trkpt lat="46.56347" lon="5.76105">
        <ele>573.6</ele>
        <time>2022-08-06T08:59:34Z</time>
      </trkpt>
      <trkpt lat="46.56364" lon="5.76075">
        <ele>572.2</ele>
        <time>2022-08-06T08:59:36Z</time>
      </trkpt>
      <trkpt lat="46.56371" lon="5.7606">
        <ele>571.8</ele>
        <time>2022-08-06T08:59:37Z</time>
      </trkpt>
      <trkpt lat="46.56377" lon="5.76046">
        <ele>571.2</ele>
        <time>2022-08-06T08:59:38Z</time>
      </trkpt>
      <trkpt lat="46.56383" lon="5.76035">
        <ele>570</ele>
        <time>2022-08-06T08:59:39Z</time>
      </trkpt>
      <trkpt lat="46.56396" lon="5.76008">
        <ele>568.6</ele>
        <time>2022-08-06T08:59:41Z</time>
      </trkpt>
      <trkpt lat="46.56403" lon="5.75991">
        <ele>568.2</ele>
        <time>2022-08-06T08:59:42Z</time>
      </trkpt>
      <trkpt lat="46.56409" lon="5.75977">
        <ele>567.4</ele>
        <time>2022-08-06T08:59:43Z</time>
      </trkpt>
      <trkpt lat="46.56427" lon="5.7594">
        <ele>566</ele>
        <time>2022-08-06T08:59:46Z</time>
      </trkpt>
      <trkpt lat="46.5645" lon="5.75904">
        <ele>564.8</ele>
        <time>2022-08-06T08:59:49Z</time>
      </trkpt>
      <trkpt lat="46.56469" lon="5.75879">
        <ele>564</ele>
        <time>2022-08-06T08:59:51Z</time>
      </trkpt>
      <trkpt lat="46.56493" lon="5.7585">
        <ele>562.8</ele>
        <time>2022-08-06T08:59:54Z</time>
      </trkpt>
      <trkpt lat="46.5652" lon="5.75821">
        <ele>561</ele>
        <time>2022-08-06T08:59:57Z</time>
      </trkpt>
      <trkpt lat="46.5654" lon="5.758">
        <ele>559.8</ele>
        <time>2022-08-06T08:59:59Z</time>
      </trkpt>
      <trkpt lat="46.56559" lon="5.75782">
        <ele>558.6</ele>
        <time>2022-08-06T09:00:01Z</time>
      </trkpt>
      <trkpt lat="46.56588" lon="5.75759">
        <ele>557.2</ele>
        <time>2022-08-06T09:00:04Z</time>
      </trkpt>
      <trkpt lat="46.56598" lon="5.75752">
        <ele>556.8</ele>
        <time>2022-08-06T09:00:05Z</time>
      </trkpt>
      <trkpt lat="46.56606" lon="5.75746">
        <ele>556.4</ele>
        <time>2022-08-06T09:00:06Z</time>
      </trkpt>
      <trkpt lat="46.56627" lon="5.75735">
        <ele>555.2</ele>
        <time>2022-08-06T09:00:08Z</time>
      </trkpt>
      <trkpt lat="46.56659" lon="5.7572">
        <ele>554</ele>
        <time>2022-08-06T09:00:11Z</time>
      </trkpt>
      <trkpt lat="46.56681" lon="5.75712">
        <ele>552.8</ele>
        <time>2022-08-06T09:00:13Z</time>
      </trkpt>
      <trkpt lat="46.56714" lon="5.75699">
        <ele>550.4</ele>
        <time>2022-08-06T09:00:16Z</time>
      </trkpt>
      <trkpt lat="46.56735" lon="5.75692">
        <ele>549.2</ele>
        <time>2022-08-06T09:00:18Z</time>
      </trkpt>
      <trkpt lat="46.56755" lon="5.75684">
        <ele>548.6</ele>
        <time>2022-08-06T09:00:20Z</time>
      </trkpt>
      <trkpt lat="46.56776" lon="5.75675">
        <ele>548.2</ele>
        <time>2022-08-06T09:00:22Z</time>
      </trkpt>
      <trkpt lat="46.568" lon="5.75659">
        <ele>547</ele>
        <time>2022-08-06T09:00:25Z</time>
      </trkpt>
      <trkpt lat="46.56836" lon="5.75621">
        <ele>546.8</ele>
        <time>2022-08-06T09:00:30Z</time>
      </trkpt>
      <trkpt lat="46.56876" lon="5.75582">
        <ele>547</ele>
        <time>2022-08-06T09:00:36Z</time>
      </trkpt>
      <trkpt lat="46.56891" lon="5.75573">
        <ele>547</ele>
        <time>2022-08-06T09:00:38Z</time>
      </trkpt>
      <trkpt lat="46.56921" lon="5.75559">
        <ele>547</ele>
        <time>2022-08-06T09:00:42Z</time>
      </trkpt>
      <trkpt lat="46.56973" lon="5.75536">
        <ele>546.6</ele>
        <time>2022-08-06T09:00:49Z</time>
      </trkpt>
      <trkpt lat="46.56988" lon="5.75529">
        <ele>546.6</ele>
        <time>2022-08-06T09:00:51Z</time>
      </trkpt>
      <trkpt lat="46.57041" lon="5.75506">
        <ele>546.6</ele>
        <time>2022-08-06T09:00:58Z</time>
      </trkpt>
      <trkpt lat="46.57049" lon="5.75503">
        <ele>546.4</ele>
        <time>2022-08-06T09:00:59Z</time>
      </trkpt>
      <trkpt lat="46.57056" lon="5.75499">
        <ele>546.4</ele>
        <time>2022-08-06T09:01:00Z</time>
      </trkpt>
      <trkpt lat="46.57109" lon="5.75474">
        <ele>545.6</ele>
        <time>2022-08-06T09:01:07Z</time>
      </trkpt>
      <trkpt lat="46.57138" lon="5.75459">
        <ele>545.2</ele>
        <time>2022-08-06T09:01:11Z</time>
      </trkpt>
      <trkpt lat="46.57173" lon="5.75443">
        <ele>544.8</ele>
        <time>2022-08-06T09:01:16Z</time>
      </trkpt>
      <trkpt lat="46.57218" lon="5.75425">
        <ele>544.4</ele>
        <time>2022-08-06T09:01:22Z</time>
      </trkpt>
      <trkpt lat="46.57232" lon="5.75418">
        <ele>544</ele>
        <time>2022-08-06T09:01:24Z</time>
      </trkpt>
      <trkpt lat="46.57246" lon="5.75406">
        <ele>543.8</ele>
        <time>2022-08-06T09:01:26Z</time>
      </trkpt>
      <trkpt lat="46.57258" lon="5.75393">
        <ele>543.6</ele>
        <time>2022-08-06T09:01:28Z</time>
      </trkpt>
      <trkpt lat="46.5727" lon="5.75378">
        <ele>543.4</ele>
        <time>2022-08-06T09:01:30Z</time>
      </trkpt>
      <trkpt lat="46.57298" lon="5.75346">
        <ele>542.8</ele>
        <time>2022-08-06T09:01:35Z</time>
      </trkpt>
      <trkpt lat="46.57315" lon="5.75328">
        <ele>542.6</ele>
        <time>2022-08-06T09:01:38Z</time>
      </trkpt>
      <trkpt lat="46.57331" lon="5.75309">
        <ele>542.2</ele>
        <time>2022-08-06T09:01:41Z</time>
      </trkpt>
      <trkpt lat="46.57375" lon="5.75257">
        <ele>541.6</ele>
        <time>2022-08-06T09:01:49Z</time>
      </trkpt>
      <trkpt lat="46.5738" lon="5.75251">
        <ele>541.4</ele>
        <time>2022-08-06T09:01:50Z</time>
      </trkpt>
      <trkpt lat="46.57399" lon="5.75228">
        <ele>540.6</ele>
        <time>2022-08-06T09:01:54Z</time>
      </trkpt>
      <trkpt lat="46.57414" lon="5.7521">
        <ele>540.2</ele>
        <time>2022-08-06T09:01:57Z</time>
      </trkpt>
      <trkpt lat="46.5744" lon="5.7518">
        <ele>539.8</ele>
        <time>2022-08-06T09:02:02Z</time>
      </trkpt>
      <trkpt lat="46.57445" lon="5.75174">
        <ele>539.6</ele>
        <time>2022-08-06T09:02:03Z</time>
      </trkpt>
      <trkpt lat="46.57478" lon="5.75132">
        <ele>538.4</ele>
        <time>2022-08-06T09:02:10Z</time>
      </trkpt>
      <trkpt lat="46.57496" lon="5.75109">
        <ele>538</ele>
        <time>2022-08-06T09:02:15Z</time>
      </trkpt>
      <trkpt lat="46.57505" lon="5.75096">
        <ele>537.8</ele>
        <time>2022-08-06T09:02:19Z</time>
      </trkpt>
      <trkpt lat="46.57511" lon="5.75088">
        <ele>537.6</ele>
        <time>2022-08-06T09:02:21Z</time>
      </trkpt>
      <trkpt lat="46.57515" lon="5.75083">
        <ele>537.6</ele>
        <time>2022-08-06T09:02:22Z</time>
      </trkpt>
      <trkpt lat="46.5752" lon="5.75074">
        <ele>537.4</ele>
        <time>2022-08-06T09:02:24Z</time>
      </trkpt>
      <trkpt lat="46.57521" lon="5.7507">
        <ele>537.2</ele>
        <time>2022-08-06T09:02:25Z</time>
      </trkpt>
      <trkpt lat="46.57519" lon="5.75066">
        <ele>537.2</ele>
        <time>2022-08-06T09:02:26Z</time>
      </trkpt>
      <trkpt lat="46.57513" lon="5.75061">
        <ele>537</ele>
        <time>2022-08-06T09:02:27Z</time>
      </trkpt>
      <trkpt lat="46.57494" lon="5.75045">
        <ele>536.4</ele>
        <time>2022-08-06T09:02:30Z</time>
      </trkpt>
      <trkpt lat="46.57488" lon="5.75037">
        <ele>536</ele>
        <time>2022-08-06T09:02:31Z</time>
      </trkpt>
      <trkpt lat="46.57474" lon="5.75018">
        <ele>535</ele>
        <time>2022-08-06T09:02:33Z</time>
      </trkpt>
      <trkpt lat="46.57467" lon="5.75008">
        <ele>534</ele>
        <time>2022-08-06T09:02:34Z</time>
      </trkpt>
      <trkpt lat="46.5746" lon="5.74998">
        <ele>533.6</ele>
        <time>2022-08-06T09:02:35Z</time>
      </trkpt>
      <trkpt lat="46.57455" lon="5.74989">
        <ele>532.4</ele>
        <time>2022-08-06T09:02:36Z</time>
      </trkpt>
      <trkpt lat="46.57449" lon="5.7498">
        <ele>531.2</ele>
        <time>2022-08-06T09:02:37Z</time>
      </trkpt>
      <trkpt lat="46.57443" lon="5.74971">
        <ele>530</ele>
        <time>2022-08-06T09:02:38Z</time>
      </trkpt>
      <trkpt lat="46.57438" lon="5.74963">
        <ele>529.4</ele>
        <time>2022-08-06T09:02:39Z</time>
      </trkpt>
      <trkpt lat="46.57432" lon="5.74953">
        <ele>528.4</ele>
        <time>2022-08-06T09:02:40Z</time>
      </trkpt>
      <trkpt lat="46.57427" lon="5.74944">
        <ele>527.2</ele>
        <time>2022-08-06T09:02:41Z</time>
      </trkpt>
      <trkpt lat="46.57419" lon="5.74925">
        <ele>526.4</ele>
        <time>2022-08-06T09:02:43Z</time>
      </trkpt>
      <trkpt lat="46.57416" lon="5.74914">
        <ele>526.2</ele>
        <time>2022-08-06T09:02:44Z</time>
      </trkpt>
      <trkpt lat="46.57414" lon="5.74904">
        <ele>525.6</ele>
        <time>2022-08-06T09:02:45Z</time>
      </trkpt>
      <trkpt lat="46.57413" lon="5.74894">
        <ele>525.2</ele>
        <time>2022-08-06T09:02:46Z</time>
      </trkpt>
      <trkpt lat="46.57413" lon="5.74886">
        <ele>524.6</ele>
        <time>2022-08-06T09:02:47Z</time>
      </trkpt>
      <trkpt lat="46.57413" lon="5.74874">
        <ele>524</ele>
        <time>2022-08-06T09:02:49Z</time>
      </trkpt>
      <trkpt lat="46.57413" lon="5.7487">
        <ele>523.6</ele>
        <time>2022-08-06T09:02:50Z</time>
      </trkpt>
      <trkpt lat="46.57414" lon="5.74865">
        <ele>523.2</ele>
        <time>2022-08-06T09:02:52Z</time>
      </trkpt>
      <trkpt lat="46.57419" lon="5.74845">
        <ele>522.8</ele>
        <time>2022-08-06T09:02:58Z</time>
      </trkpt>
      <trkpt lat="46.57421" lon="5.74826">
        <ele>523</ele>
        <time>2022-08-06T09:03:03Z</time>
      </trkpt>
      <trkpt lat="46.57423" lon="5.74821">
        <ele>523.6</ele>
        <time>2022-08-06T09:03:07Z</time>
      </trkpt>
      <trkpt lat="46.57423" lon="5.74821">
        <ele>524</ele>
        <time>2022-08-06T09:03:09Z</time>
      </trkpt>
      <trkpt lat="46.57425" lon="5.74819">
        <ele>524.4</ele>
        <time>2022-08-06T09:03:21Z</time>
      </trkpt>
      <trkpt lat="46.57425" lon="5.74815">
        <ele>524.4</ele>
        <time>2022-08-06T09:03:22Z</time>
      </trkpt>
      <trkpt lat="46.57425" lon="5.7481">
        <ele>524.4</ele>
        <time>2022-08-06T09:03:23Z</time>
      </trkpt>
      <trkpt lat="46.57423" lon="5.74795">
        <ele>524.4</ele>
        <time>2022-08-06T09:03:26Z</time>
      </trkpt>
      <trkpt lat="46.57423" lon="5.74777">
        <ele>524.4</ele>
        <time>2022-08-06T09:03:29Z</time>
      </trkpt>
      <trkpt lat="46.57425" lon="5.74771">
        <ele>524.4</ele>
        <time>2022-08-06T09:03:30Z</time>
      </trkpt>
      <trkpt lat="46.57429" lon="5.74752">
        <ele>524.4</ele>
        <time>2022-08-06T09:03:33Z</time>
      </trkpt>
      <trkpt lat="46.5743" lon="5.74739">
        <ele>524.4</ele>
        <time>2022-08-06T09:03:35Z</time>
      </trkpt>
      <trkpt lat="46.57425" lon="5.74726">
        <ele>524.4</ele>
        <time>2022-08-06T09:03:37Z</time>
      </trkpt>
      <trkpt lat="46.57421" lon="5.74723">
        <ele>524.8</ele>
        <time>2022-08-06T09:03:38Z</time>
      </trkpt>
      <trkpt lat="46.57417" lon="5.74721">
        <ele>524.8</ele>
        <time>2022-08-06T09:03:39Z</time>
      </trkpt>
      <trkpt lat="46.57408" lon="5.74718">
        <ele>525</ele>
        <time>2022-08-06T09:03:42Z</time>
      </trkpt>
      <trkpt lat="46.57401" lon="5.74714">
        <ele>525</ele>
        <time>2022-08-06T09:03:44Z</time>
      </trkpt>
      <trkpt lat="46.57392" lon="5.74706">
        <ele>524.8</ele>
        <time>2022-08-06T09:03:46Z</time>
      </trkpt>
      <trkpt lat="46.57371" lon="5.74686">
        <ele>524.4</ele>
        <time>2022-08-06T09:03:50Z</time>
      </trkpt>
      <trkpt lat="46.57365" lon="5.74681">
        <ele>524.2</ele>
        <time>2022-08-06T09:03:51Z</time>
      </trkpt>
      <trkpt lat="46.57324" lon="5.74645">
        <ele>523.8</ele>
        <time>2022-08-06T09:03:58Z</time>
      </trkpt>
      <trkpt lat="46.57318" lon="5.74642">
        <ele>523.8</ele>
        <time>2022-08-06T09:03:59Z</time>
      </trkpt>
      <trkpt lat="46.57311" lon="5.74638">
        <ele>523.8</ele>
        <time>2022-08-06T09:04:00Z</time>
      </trkpt>
      <trkpt lat="46.57293" lon="5.74626">
        <ele>524</ele>
        <time>2022-08-06T09:04:03Z</time>
      </trkpt>
      <trkpt lat="46.57267" lon="5.74611">
        <ele>524.4</ele>
        <time>2022-08-06T09:04:07Z</time>
      </trkpt>
      <trkpt lat="46.57259" lon="5.74608">
        <ele>524.4</ele>
        <time>2022-08-06T09:04:08Z</time>
      </trkpt>
      <trkpt lat="46.57204" lon="5.74585">
        <ele>524.4</ele>
        <time>2022-08-06T09:04:16Z</time>
      </trkpt>
      <trkpt lat="46.57161" lon="5.74571">
        <ele>524.4</ele>
        <time>2022-08-06T09:04:22Z</time>
      </trkpt>
      <trkpt lat="46.57106" lon="5.74553">
        <ele>524.2</ele>
        <time>2022-08-06T09:04:29Z</time>
      </trkpt>
      <trkpt lat="46.57099" lon="5.7455">
        <ele>524.2</ele>
        <time>2022-08-06T09:04:30Z</time>
      </trkpt>
      <trkpt lat="46.57084" lon="5.74545">
        <ele>524.4</ele>
        <time>2022-08-06T09:04:32Z</time>
      </trkpt>
      <trkpt lat="46.57046" lon="5.74533">
        <ele>524.6</ele>
        <time>2022-08-06T09:04:37Z</time>
      </trkpt>
      <trkpt lat="46.56989" lon="5.74514">
        <ele>525</ele>
        <time>2022-08-06T09:04:45Z</time>
      </trkpt>
      <trkpt lat="46.56974" lon="5.74508">
        <ele>525.2</ele>
        <time>2022-08-06T09:04:47Z</time>
      </trkpt>
      <trkpt lat="46.56953" lon="5.74501">
        <ele>525.6</ele>
        <time>2022-08-06T09:04:50Z</time>
      </trkpt>
      <trkpt lat="46.56918" lon="5.74487">
        <ele>525.6</ele>
        <time>2022-08-06T09:04:55Z</time>
      </trkpt>
      <trkpt lat="46.56896" lon="5.7448">
        <ele>525.6</ele>
        <time>2022-08-06T09:04:58Z</time>
      </trkpt>
      <trkpt lat="46.56888" lon="5.74478">
        <ele>525.6</ele>
        <time>2022-08-06T09:04:59Z</time>
      </trkpt>
      <trkpt lat="46.56881" lon="5.74476">
        <ele>525.6</ele>
        <time>2022-08-06T09:05:00Z</time>
      </trkpt>
      <trkpt lat="46.56823" lon="5.7446">
        <ele>526.2</ele>
        <time>2022-08-06T09:05:08Z</time>
      </trkpt>
      <trkpt lat="46.56765" lon="5.74443">
        <ele>526.6</ele>
        <time>2022-08-06T09:05:16Z</time>
      </trkpt>
      <trkpt lat="46.5675" lon="5.7444">
        <ele>526.6</ele>
        <time>2022-08-06T09:05:18Z</time>
      </trkpt>
      <trkpt lat="46.56735" lon="5.74437">
        <ele>526.8</ele>
        <time>2022-08-06T09:05:20Z</time>
      </trkpt>
      <trkpt lat="46.56713" lon="5.74433">
        <ele>527</ele>
        <time>2022-08-06T09:05:23Z</time>
      </trkpt>
      <trkpt lat="46.56698" lon="5.74431">
        <ele>527.2</ele>
        <time>2022-08-06T09:05:25Z</time>
      </trkpt>
      <trkpt lat="46.5664" lon="5.74422">
        <ele>527.2</ele>
        <time>2022-08-06T09:05:33Z</time>
      </trkpt>
      <trkpt lat="46.56583" lon="5.74414">
        <ele>527.8</ele>
        <time>2022-08-06T09:05:41Z</time>
      </trkpt>
      <trkpt lat="46.56568" lon="5.74412">
        <ele>528.2</ele>
        <time>2022-08-06T09:05:43Z</time>
      </trkpt>
      <trkpt lat="46.56511" lon="5.74404">
        <ele>528</ele>
        <time>2022-08-06T09:05:51Z</time>
      </trkpt>
      <trkpt lat="46.56504" lon="5.74403">
        <ele>528</ele>
        <time>2022-08-06T09:05:52Z</time>
      </trkpt>
      <trkpt lat="46.56448" lon="5.74395">
        <ele>528.2</ele>
        <time>2022-08-06T09:06:00Z</time>
      </trkpt>
      <trkpt lat="46.56434" lon="5.74393">
        <ele>528.2</ele>
        <time>2022-08-06T09:06:02Z</time>
      </trkpt>
      <trkpt lat="46.56392" lon="5.74388">
        <ele>528.8</ele>
        <time>2022-08-06T09:06:08Z</time>
      </trkpt>
      <trkpt lat="46.56372" lon="5.74385">
        <ele>529.4</ele>
        <time>2022-08-06T09:06:11Z</time>
      </trkpt>
      <trkpt lat="46.56323" lon="5.74378">
        <ele>530.2</ele>
        <time>2022-08-06T09:06:19Z</time>
      </trkpt>
      <trkpt lat="46.5631" lon="5.74377">
        <ele>530.4</ele>
        <time>2022-08-06T09:06:21Z</time>
      </trkpt>
      <trkpt lat="46.56281" lon="5.74377">
        <ele>531.4</ele>
        <time>2022-08-06T09:06:26Z</time>
      </trkpt>
      <trkpt lat="46.56275" lon="5.74377">
        <ele>531.6</ele>
        <time>2022-08-06T09:06:27Z</time>
      </trkpt>
      <trkpt lat="46.56234" lon="5.74384">
        <ele>532.6</ele>
        <time>2022-08-06T09:06:34Z</time>
      </trkpt>
      <trkpt lat="46.56228" lon="5.74385">
        <ele>532.8</ele>
        <time>2022-08-06T09:06:35Z</time>
      </trkpt>
      <trkpt lat="46.56187" lon="5.74397">
        <ele>533.8</ele>
        <time>2022-08-06T09:06:42Z</time>
      </trkpt>
      <trkpt lat="46.56164" lon="5.74405">
        <ele>534.2</ele>
        <time>2022-08-06T09:06:46Z</time>
      </trkpt>
      <trkpt lat="46.56136" lon="5.74413">
        <ele>534.8</ele>
        <time>2022-08-06T09:06:51Z</time>
      </trkpt>
      <trkpt lat="46.5613" lon="5.74415">
        <ele>535</ele>
        <time>2022-08-06T09:06:52Z</time>
      </trkpt>
      <trkpt lat="46.56112" lon="5.7442">
        <ele>535.2</ele>
        <time>2022-08-06T09:06:55Z</time>
      </trkpt>
      <trkpt lat="46.5609" lon="5.74427">
        <ele>535.8</ele>
        <time>2022-08-06T09:06:59Z</time>
      </trkpt>
      <trkpt lat="46.56051" lon="5.74438">
        <ele>537</ele>
        <time>2022-08-06T09:07:06Z</time>
      </trkpt>
      <trkpt lat="46.56046" lon="5.7444">
        <ele>537</ele>
        <time>2022-08-06T09:07:07Z</time>
      </trkpt>
      <trkpt lat="46.56014" lon="5.74449">
        <ele>538</ele>
        <time>2022-08-06T09:07:13Z</time>
      </trkpt>
      <trkpt lat="46.55988" lon="5.74457">
        <ele>539</ele>
        <time>2022-08-06T09:07:18Z</time>
      </trkpt>
      <trkpt lat="46.55978" lon="5.7446">
        <ele>539.4</ele>
        <time>2022-08-06T09:07:20Z</time>
      </trkpt>
      <trkpt lat="46.55924" lon="5.74476">
        <ele>540.2</ele>
        <time>2022-08-06T09:07:30Z</time>
      </trkpt>
      <trkpt lat="46.55919" lon="5.74478">
        <ele>540.6</ele>
        <time>2022-08-06T09:07:31Z</time>
      </trkpt>
      <trkpt lat="46.55892" lon="5.74485">
        <ele>541.6</ele>
        <time>2022-08-06T09:07:36Z</time>
      </trkpt>
      <trkpt lat="46.55886" lon="5.74487">
        <ele>541.6</ele>
        <time>2022-08-06T09:07:37Z</time>
      </trkpt>
      <trkpt lat="46.55856" lon="5.74493">
        <ele>541.8</ele>
        <time>2022-08-06T09:07:42Z</time>
      </trkpt>
      <trkpt lat="46.5581" lon="5.74492">
        <ele>541.8</ele>
        <time>2022-08-06T09:07:49Z</time>
      </trkpt>
      <trkpt lat="46.5575" lon="5.74487">
        <ele>542</ele>
        <time>2022-08-06T09:07:58Z</time>
      </trkpt>
      <trkpt lat="46.55743" lon="5.74487">
        <ele>542</ele>
        <time>2022-08-06T09:07:59Z</time>
      </trkpt>
      <trkpt lat="46.55685" lon="5.74482">
        <ele>542.2</ele>
        <time>2022-08-06T09:08:08Z</time>
      </trkpt>
      <trkpt lat="46.5568" lon="5.74481">
        <ele>542.2</ele>
        <time>2022-08-06T09:08:09Z</time>
      </trkpt>
      <trkpt lat="46.55655" lon="5.74479">
        <ele>542.8</ele>
        <time>2022-08-06T09:08:13Z</time>
      </trkpt>
      <trkpt lat="46.55649" lon="5.74479">
        <ele>542.8</ele>
        <time>2022-08-06T09:08:14Z</time>
      </trkpt>
      <trkpt lat="46.55624" lon="5.74477">
        <ele>543.4</ele>
        <time>2022-08-06T09:08:18Z</time>
      </trkpt>
      <trkpt lat="46.55612" lon="5.74468">
        <ele>543.6</ele>
        <time>2022-08-06T09:08:20Z</time>
      </trkpt>
      <trkpt lat="46.55608" lon="5.74464">
        <ele>543.6</ele>
        <time>2022-08-06T09:08:21Z</time>
      </trkpt>
      <trkpt lat="46.55603" lon="5.74459">
        <ele>543.8</ele>
        <time>2022-08-06T09:08:22Z</time>
      </trkpt>
      <trkpt lat="46.55589" lon="5.74452">
        <ele>543.8</ele>
        <time>2022-08-06T09:08:24Z</time>
      </trkpt>
      <trkpt lat="46.55581" lon="5.74452">
        <ele>544</ele>
        <time>2022-08-06T09:08:25Z</time>
      </trkpt>
      <trkpt lat="46.55574" lon="5.74454">
        <ele>544</ele>
        <time>2022-08-06T09:08:26Z</time>
      </trkpt>
      <trkpt lat="46.55555" lon="5.74462">
        <ele>543.8</ele>
        <time>2022-08-06T09:08:29Z</time>
      </trkpt>
      <trkpt lat="46.55505" lon="5.74485">
        <ele>543.8</ele>
        <time>2022-08-06T09:08:36Z</time>
      </trkpt>
      <trkpt lat="46.5545" lon="5.74505">
        <ele>543.6</ele>
        <time>2022-08-06T09:08:43Z</time>
      </trkpt>
      <trkpt lat="46.55442" lon="5.74505">
        <ele>543.6</ele>
        <time>2022-08-06T09:08:44Z</time>
      </trkpt>
      <trkpt lat="46.55411" lon="5.74495">
        <ele>543.4</ele>
        <time>2022-08-06T09:08:48Z</time>
      </trkpt>
      <trkpt lat="46.55397" lon="5.74485">
        <ele>543.4</ele>
        <time>2022-08-06T09:08:50Z</time>
      </trkpt>
      <trkpt lat="46.55384" lon="5.74471">
        <ele>543.4</ele>
        <time>2022-08-06T09:08:52Z</time>
      </trkpt>
      <trkpt lat="46.55366" lon="5.74434">
        <ele>543.2</ele>
        <time>2022-08-06T09:08:56Z</time>
      </trkpt>
      <trkpt lat="46.55339" lon="5.74368">
        <ele>543.4</ele>
        <time>2022-08-06T09:09:03Z</time>
      </trkpt>
      <trkpt lat="46.55312" lon="5.74311">
        <ele>543.2</ele>
        <time>2022-08-06T09:09:10Z</time>
      </trkpt>
      <trkpt lat="46.55291" lon="5.74253">
        <ele>544.4</ele>
        <time>2022-08-06T09:09:17Z</time>
      </trkpt>
      <trkpt lat="46.55289" lon="5.74244">
        <ele>544.4</ele>
        <time>2022-08-06T09:09:18Z</time>
      </trkpt>
      <trkpt lat="46.55287" lon="5.74233">
        <ele>544.4</ele>
        <time>2022-08-06T09:09:19Z</time>
      </trkpt>
      <trkpt lat="46.55288" lon="5.74213">
        <ele>544.6</ele>
        <time>2022-08-06T09:09:21Z</time>
      </trkpt>
      <trkpt lat="46.55296" lon="5.74161">
        <ele>544.2</ele>
        <time>2022-08-06T09:09:25Z</time>
      </trkpt>
      <trkpt lat="46.55296" lon="5.74134">
        <ele>543.8</ele>
        <time>2022-08-06T09:09:27Z</time>
      </trkpt>
      <trkpt lat="46.55293" lon="5.74121">
        <ele>543.4</ele>
        <time>2022-08-06T09:09:28Z</time>
      </trkpt>
      <trkpt lat="46.55284" lon="5.74081">
        <ele>541.8</ele>
        <time>2022-08-06T09:09:31Z</time>
      </trkpt>
      <trkpt lat="46.5528" lon="5.74066">
        <ele>540.8</ele>
        <time>2022-08-06T09:09:32Z</time>
      </trkpt>
      <trkpt lat="46.55278" lon="5.74051">
        <ele>540.6</ele>
        <time>2022-08-06T09:09:33Z</time>
      </trkpt>
      <trkpt lat="46.55274" lon="5.74021">
        <ele>539.8</ele>
        <time>2022-08-06T09:09:35Z</time>
      </trkpt>
      <trkpt lat="46.5527" lon="5.74006">
        <ele>539.2</ele>
        <time>2022-08-06T09:09:36Z</time>
      </trkpt>
      <trkpt lat="46.55266" lon="5.73994">
        <ele>538.6</ele>
        <time>2022-08-06T09:09:37Z</time>
      </trkpt>
      <trkpt lat="46.5526" lon="5.73977">
        <ele>536.6</ele>
        <time>2022-08-06T09:09:38Z</time>
      </trkpt>
      <trkpt lat="46.55254" lon="5.73962">
        <ele>535.4</ele>
        <time>2022-08-06T09:09:39Z</time>
      </trkpt>
      <trkpt lat="46.55244" lon="5.7393">
        <ele>534</ele>
        <time>2022-08-06T09:09:41Z</time>
      </trkpt>
      <trkpt lat="46.55238" lon="5.73896">
        <ele>532.2</ele>
        <time>2022-08-06T09:09:43Z</time>
      </trkpt>
      <trkpt lat="46.55237" lon="5.73878">
        <ele>531.6</ele>
        <time>2022-08-06T09:09:44Z</time>
      </trkpt>
      <trkpt lat="46.55236" lon="5.73861">
        <ele>530.6</ele>
        <time>2022-08-06T09:09:45Z</time>
      </trkpt>
      <trkpt lat="46.55236" lon="5.73843">
        <ele>529</ele>
        <time>2022-08-06T09:09:46Z</time>
      </trkpt>
      <trkpt lat="46.55236" lon="5.73808">
        <ele>526.8</ele>
        <time>2022-08-06T09:09:48Z</time>
      </trkpt>
      <trkpt lat="46.55237" lon="5.7379">
        <ele>526</ele>
        <time>2022-08-06T09:09:49Z</time>
      </trkpt>
      <trkpt lat="46.55238" lon="5.73772">
        <ele>524.4</ele>
        <time>2022-08-06T09:09:50Z</time>
      </trkpt>
      <trkpt lat="46.55239" lon="5.73739">
        <ele>523.2</ele>
        <time>2022-08-06T09:09:52Z</time>
      </trkpt>
      <trkpt lat="46.55237" lon="5.73723">
        <ele>522.2</ele>
        <time>2022-08-06T09:09:53Z</time>
      </trkpt>
      <trkpt lat="46.55235" lon="5.73707">
        <ele>521.6</ele>
        <time>2022-08-06T09:09:54Z</time>
      </trkpt>
      <trkpt lat="46.55231" lon="5.73677">
        <ele>520.4</ele>
        <time>2022-08-06T09:09:56Z</time>
      </trkpt>
      <trkpt lat="46.55229" lon="5.73662">
        <ele>519.2</ele>
        <time>2022-08-06T09:09:57Z</time>
      </trkpt>
      <trkpt lat="46.55231" lon="5.73631">
        <ele>517.8</ele>
        <time>2022-08-06T09:09:59Z</time>
      </trkpt>
      <trkpt lat="46.55234" lon="5.73616">
        <ele>517</ele>
        <time>2022-08-06T09:10:00Z</time>
      </trkpt>
      <trkpt lat="46.55237" lon="5.73601">
        <ele>516.4</ele>
        <time>2022-08-06T09:10:01Z</time>
      </trkpt>
      <trkpt lat="46.55239" lon="5.73585">
        <ele>515.2</ele>
        <time>2022-08-06T09:10:02Z</time>
      </trkpt>
      <trkpt lat="46.55246" lon="5.73541">
        <ele>513.4</ele>
        <time>2022-08-06T09:10:05Z</time>
      </trkpt>
      <trkpt lat="46.55248" lon="5.73525">
        <ele>512.4</ele>
        <time>2022-08-06T09:10:06Z</time>
      </trkpt>
      <trkpt lat="46.5525" lon="5.7351">
        <ele>512</ele>
        <time>2022-08-06T09:10:07Z</time>
      </trkpt>
      <trkpt lat="46.55251" lon="5.73496">
        <ele>511.2</ele>
        <time>2022-08-06T09:10:08Z</time>
      </trkpt>
      <trkpt lat="46.55252" lon="5.73481">
        <ele>509.8</ele>
        <time>2022-08-06T09:10:09Z</time>
      </trkpt>
      <trkpt lat="46.55251" lon="5.73462">
        <ele>509.2</ele>
        <time>2022-08-06T09:10:10Z</time>
      </trkpt>
      <trkpt lat="46.5525" lon="5.73447">
        <ele>508.6</ele>
        <time>2022-08-06T09:10:11Z</time>
      </trkpt>
      <trkpt lat="46.55247" lon="5.73415">
        <ele>507.2</ele>
        <time>2022-08-06T09:10:13Z</time>
      </trkpt>
      <trkpt lat="46.55246" lon="5.73388">
        <ele>505.8</ele>
        <time>2022-08-06T09:10:15Z</time>
      </trkpt>
      <trkpt lat="46.55245" lon="5.7337">
        <ele>504.2</ele>
        <time>2022-08-06T09:10:16Z</time>
      </trkpt>
      <trkpt lat="46.55244" lon="5.7334">
        <ele>503</ele>
        <time>2022-08-06T09:10:18Z</time>
      </trkpt>
      <trkpt lat="46.55245" lon="5.73311">
        <ele>502.4</ele>
        <time>2022-08-06T09:10:20Z</time>
      </trkpt>
      <trkpt lat="46.55248" lon="5.73297">
        <ele>502.2</ele>
        <time>2022-08-06T09:10:21Z</time>
      </trkpt>
      <trkpt lat="46.55253" lon="5.73285">
        <ele>502</ele>
        <time>2022-08-06T09:10:22Z</time>
      </trkpt>
      <trkpt lat="46.5527" lon="5.7325">
        <ele>501</ele>
        <time>2022-08-06T09:10:25Z</time>
      </trkpt>
      <trkpt lat="46.55274" lon="5.73238">
        <ele>500.8</ele>
        <time>2022-08-06T09:10:26Z</time>
      </trkpt>
      <trkpt lat="46.55285" lon="5.73202">
        <ele>500.2</ele>
        <time>2022-08-06T09:10:29Z</time>
      </trkpt>
      <trkpt lat="46.55294" lon="5.73166">
        <ele>500</ele>
        <time>2022-08-06T09:10:32Z</time>
      </trkpt>
      <trkpt lat="46.55304" lon="5.73146">
        <ele>499.8</ele>
        <time>2022-08-06T09:10:34Z</time>
      </trkpt>
      <trkpt lat="46.55318" lon="5.73138">
        <ele>499.8</ele>
        <time>2022-08-06T09:10:36Z</time>
      </trkpt>
      <trkpt lat="46.5535" lon="5.73145">
        <ele>499.8</ele>
        <time>2022-08-06T09:10:40Z</time>
      </trkpt>
      <trkpt lat="46.55383" lon="5.73156">
        <ele>499.8</ele>
        <time>2022-08-06T09:10:44Z</time>
      </trkpt>
      <trkpt lat="46.554" lon="5.73154">
        <ele>499.8</ele>
        <time>2022-08-06T09:10:46Z</time>
      </trkpt>
      <trkpt lat="46.55415" lon="5.73142">
        <ele>499.8</ele>
        <time>2022-08-06T09:10:48Z</time>
      </trkpt>
      <trkpt lat="46.55422" lon="5.73132">
        <ele>499.6</ele>
        <time>2022-08-06T09:10:49Z</time>
      </trkpt>
      <trkpt lat="46.55435" lon="5.73112">
        <ele>499.4</ele>
        <time>2022-08-06T09:10:51Z</time>
      </trkpt>
      <trkpt lat="46.55443" lon="5.73104">
        <ele>499.2</ele>
        <time>2022-08-06T09:10:52Z</time>
      </trkpt>
      <trkpt lat="46.55451" lon="5.73098">
        <ele>498.2</ele>
        <time>2022-08-06T09:10:53Z</time>
      </trkpt>
      <trkpt lat="46.55468" lon="5.73092">
        <ele>497.2</ele>
        <time>2022-08-06T09:10:55Z</time>
      </trkpt>
      <trkpt lat="46.55479" lon="5.73087">
        <ele>497</ele>
        <time>2022-08-06T09:10:56Z</time>
      </trkpt>
      <trkpt lat="46.55497" lon="5.73075">
        <ele>496.4</ele>
        <time>2022-08-06T09:10:58Z</time>
      </trkpt>
      <trkpt lat="46.55506" lon="5.73067">
        <ele>496</ele>
        <time>2022-08-06T09:10:59Z</time>
      </trkpt>
      <trkpt lat="46.5552" lon="5.73049">
        <ele>495</ele>
        <time>2022-08-06T09:11:01Z</time>
      </trkpt>
      <trkpt lat="46.55528" lon="5.73038">
        <ele>494.6</ele>
        <time>2022-08-06T09:11:02Z</time>
      </trkpt>
      <trkpt lat="46.55541" lon="5.73018">
        <ele>494</ele>
        <time>2022-08-06T09:11:04Z</time>
      </trkpt>
      <trkpt lat="46.55566" lon="5.72977">
        <ele>493</ele>
        <time>2022-08-06T09:11:08Z</time>
      </trkpt>
      <trkpt lat="46.55596" lon="5.72931">
        <ele>492.8</ele>
        <time>2022-08-06T09:11:13Z</time>
      </trkpt>
      <trkpt lat="46.55638" lon="5.72874">
        <ele>492.6</ele>
        <time>2022-08-06T09:11:20Z</time>
      </trkpt>
      <trkpt lat="46.55651" lon="5.72855">
        <ele>492.6</ele>
        <time>2022-08-06T09:11:22Z</time>
      </trkpt>
      <trkpt lat="46.55679" lon="5.72815">
        <ele>492</ele>
        <time>2022-08-06T09:11:27Z</time>
      </trkpt>
      <trkpt lat="46.55696" lon="5.72795">
        <ele>491.8</ele>
        <time>2022-08-06T09:11:30Z</time>
      </trkpt>
      <trkpt lat="46.55708" lon="5.72783">
        <ele>491.8</ele>
        <time>2022-08-06T09:11:32Z</time>
      </trkpt>
      <trkpt lat="46.55741" lon="5.72759">
        <ele>491.6</ele>
        <time>2022-08-06T09:11:37Z</time>
      </trkpt>
      <trkpt lat="46.55796" lon="5.72723">
        <ele>491.8</ele>
        <time>2022-08-06T09:11:45Z</time>
      </trkpt>
      <trkpt lat="46.55803" lon="5.72719">
        <ele>491.6</ele>
        <time>2022-08-06T09:11:46Z</time>
      </trkpt>
      <trkpt lat="46.55854" lon="5.72686">
        <ele>491.2</ele>
        <time>2022-08-06T09:11:53Z</time>
      </trkpt>
      <trkpt lat="46.55862" lon="5.72681">
        <ele>491</ele>
        <time>2022-08-06T09:11:54Z</time>
      </trkpt>
      <trkpt lat="46.55886" lon="5.72665">
        <ele>490.2</ele>
        <time>2022-08-06T09:11:57Z</time>
      </trkpt>
      <trkpt lat="46.55902" lon="5.72655">
        <ele>489.4</ele>
        <time>2022-08-06T09:11:59Z</time>
      </trkpt>
      <trkpt lat="46.5591" lon="5.72649">
        <ele>488.8</ele>
        <time>2022-08-06T09:12:00Z</time>
      </trkpt>
      <trkpt lat="46.55936" lon="5.72633">
        <ele>487.8</ele>
        <time>2022-08-06T09:12:03Z</time>
      </trkpt>
      <trkpt lat="46.55961" lon="5.72616">
        <ele>486.8</ele>
        <time>2022-08-06T09:12:06Z</time>
      </trkpt>
      <trkpt lat="46.55969" lon="5.72611">
        <ele>486.6</ele>
        <time>2022-08-06T09:12:07Z</time>
      </trkpt>
      <trkpt lat="46.55986" lon="5.726">
        <ele>485.6</ele>
        <time>2022-08-06T09:12:09Z</time>
      </trkpt>
      <trkpt lat="46.5601" lon="5.72584">
        <ele>484.4</ele>
        <time>2022-08-06T09:12:12Z</time>
      </trkpt>
      <trkpt lat="46.56036" lon="5.72567">
        <ele>483</ele>
        <time>2022-08-06T09:12:15Z</time>
      </trkpt>
      <trkpt lat="46.56044" lon="5.72561">
        <ele>482.4</ele>
        <time>2022-08-06T09:12:16Z</time>
      </trkpt>
      <trkpt lat="46.56063" lon="5.72549">
        <ele>481.8</ele>
        <time>2022-08-06T09:12:18Z</time>
      </trkpt>
      <trkpt lat="46.56105" lon="5.72521">
        <ele>480.6</ele>
        <time>2022-08-06T09:12:23Z</time>
      </trkpt>
      <trkpt lat="46.56119" lon="5.72512">
        <ele>480.6</ele>
        <time>2022-08-06T09:12:25Z</time>
      </trkpt>
      <trkpt lat="46.56176" lon="5.72475">
        <ele>480.4</ele>
        <time>2022-08-06T09:12:32Z</time>
      </trkpt>
      <trkpt lat="46.56184" lon="5.7247">
        <ele>480.4</ele>
        <time>2022-08-06T09:12:33Z</time>
      </trkpt>
      <trkpt lat="46.56206" lon="5.72455">
        <ele>479.8</ele>
        <time>2022-08-06T09:12:36Z</time>
      </trkpt>
      <trkpt lat="46.56249" lon="5.72426">
        <ele>479.4</ele>
        <time>2022-08-06T09:12:42Z</time>
      </trkpt>
      <trkpt lat="46.56285" lon="5.72402">
        <ele>478.8</ele>
        <time>2022-08-06T09:12:47Z</time>
      </trkpt>
      <trkpt lat="46.56329" lon="5.72373">
        <ele>478.4</ele>
        <time>2022-08-06T09:12:53Z</time>
      </trkpt>
      <trkpt lat="46.5638" lon="5.72338">
        <ele>478</ele>
        <time>2022-08-06T09:13:00Z</time>
      </trkpt>
      <trkpt lat="46.56395" lon="5.72327">
        <ele>478</ele>
        <time>2022-08-06T09:13:02Z</time>
      </trkpt>
      <trkpt lat="46.56402" lon="5.72323">
        <ele>478</ele>
        <time>2022-08-06T09:13:03Z</time>
      </trkpt>
      <trkpt lat="46.56435" lon="5.723">
        <ele>477.2</ele>
        <time>2022-08-06T09:13:08Z</time>
      </trkpt>
      <trkpt lat="46.56483" lon="5.72266">
        <ele>477.4</ele>
        <time>2022-08-06T09:13:15Z</time>
      </trkpt>
      <trkpt lat="46.56521" lon="5.7224">
        <ele>478.2</ele>
        <time>2022-08-06T09:13:21Z</time>
      </trkpt>
      <trkpt lat="46.56556" lon="5.72214">
        <ele>478.4</ele>
        <time>2022-08-06T09:13:26Z</time>
      </trkpt>
      <trkpt lat="46.56596" lon="5.72168">
        <ele>478.4</ele>
        <time>2022-08-06T09:13:33Z</time>
      </trkpt>
      <trkpt lat="46.56639" lon="5.72111">
        <ele>478.6</ele>
        <time>2022-08-06T09:13:41Z</time>
      </trkpt>
      <trkpt lat="46.56643" lon="5.72105">
        <ele>478.6</ele>
        <time>2022-08-06T09:13:42Z</time>
      </trkpt>
      <trkpt lat="46.56671" lon="5.72056">
        <ele>478.2</ele>
        <time>2022-08-06T09:13:48Z</time>
      </trkpt>
      <trkpt lat="46.56681" lon="5.72037">
        <ele>478</ele>
        <time>2022-08-06T09:13:50Z</time>
      </trkpt>
      <trkpt lat="46.56711" lon="5.71972">
        <ele>478</ele>
        <time>2022-08-06T09:13:57Z</time>
      </trkpt>
      <trkpt lat="46.56724" lon="5.71943">
        <ele>477.8</ele>
        <time>2022-08-06T09:14:00Z</time>
      </trkpt>
      <trkpt lat="46.56752" lon="5.71884">
        <ele>477.4</ele>
        <time>2022-08-06T09:14:07Z</time>
      </trkpt>
      <trkpt lat="46.56781" lon="5.71819">
        <ele>478.4</ele>
        <time>2022-08-06T09:14:15Z</time>
      </trkpt>
      <trkpt lat="46.56812" lon="5.7175">
        <ele>479.4</ele>
        <time>2022-08-06T09:14:24Z</time>
      </trkpt>
      <trkpt lat="46.56816" lon="5.71743">
        <ele>479.4</ele>
        <time>2022-08-06T09:14:25Z</time>
      </trkpt>
      <trkpt lat="46.56822" lon="5.71727">
        <ele>479.6</ele>
        <time>2022-08-06T09:14:27Z</time>
      </trkpt>
      <trkpt lat="46.56842" lon="5.71683">
        <ele>479.8</ele>
        <time>2022-08-06T09:14:33Z</time>
      </trkpt>
      <trkpt lat="46.56863" lon="5.71639">
        <ele>480.2</ele>
        <time>2022-08-06T09:14:39Z</time>
      </trkpt>
      <trkpt lat="46.56894" lon="5.71571">
        <ele>480.8</ele>
        <time>2022-08-06T09:14:48Z</time>
      </trkpt>
      <trkpt lat="46.56897" lon="5.71564">
        <ele>480.8</ele>
        <time>2022-08-06T09:14:49Z</time>
      </trkpt>
      <trkpt lat="46.56901" lon="5.71557">
        <ele>480.8</ele>
        <time>2022-08-06T09:14:50Z</time>
      </trkpt>
      <trkpt lat="46.56923" lon="5.71507">
        <ele>481.8</ele>
        <time>2022-08-06T09:14:57Z</time>
      </trkpt>
      <trkpt lat="46.56936" lon="5.71478">
        <ele>482.2</ele>
        <time>2022-08-06T09:15:01Z</time>
      </trkpt>
      <trkpt lat="46.56961" lon="5.71402">
        <ele>482.6</ele>
        <time>2022-08-06T09:15:10Z</time>
      </trkpt>
      <trkpt lat="46.5697" lon="5.71353">
        <ele>482</ele>
        <time>2022-08-06T09:15:15Z</time>
      </trkpt>
      <trkpt lat="46.56976" lon="5.71266">
        <ele>480.8</ele>
        <time>2022-08-06T09:15:23Z</time>
      </trkpt>
      <trkpt lat="46.5698" lon="5.71188">
        <ele>480.2</ele>
        <time>2022-08-06T09:15:30Z</time>
      </trkpt>
      <trkpt lat="46.56982" lon="5.71145">
        <ele>480</ele>
        <time>2022-08-06T09:15:34Z</time>
      </trkpt>
      <trkpt lat="46.56985" lon="5.71061">
        <ele>480.4</ele>
        <time>2022-08-06T09:15:42Z</time>
      </trkpt>
      <trkpt lat="46.56991" lon="5.71041">
        <ele>480.4</ele>
        <time>2022-08-06T09:15:44Z</time>
      </trkpt>
      <trkpt lat="46.57" lon="5.71026">
        <ele>480.4</ele>
        <time>2022-08-06T09:15:46Z</time>
      </trkpt>
      <trkpt lat="46.57013" lon="5.71019">
        <ele>480.4</ele>
        <time>2022-08-06T09:15:48Z</time>
      </trkpt>
      <trkpt lat="46.57019" lon="5.71018">
        <ele>480.4</ele>
        <time>2022-08-06T09:15:49Z</time>
      </trkpt>
      <trkpt lat="46.57045" lon="5.71008">
        <ele>480.8</ele>
        <time>2022-08-06T09:15:53Z</time>
      </trkpt>
      <trkpt lat="46.5706" lon="5.71003">
        <ele>481</ele>
        <time>2022-08-06T09:15:55Z</time>
      </trkpt>
      <trkpt lat="46.57117" lon="5.70979">
        <ele>480.6</ele>
        <time>2022-08-06T09:16:03Z</time>
      </trkpt>
      <trkpt lat="46.57146" lon="5.70965">
        <ele>480</ele>
        <time>2022-08-06T09:16:07Z</time>
      </trkpt>
      <trkpt lat="46.57185" lon="5.70947">
        <ele>479.4</ele>
        <time>2022-08-06T09:16:12Z</time>
      </trkpt>
      <trkpt lat="46.57201" lon="5.70939">
        <ele>479.2</ele>
        <time>2022-08-06T09:16:14Z</time>
      </trkpt>
      <trkpt lat="46.57221" lon="5.70928">
        <ele>478.2</ele>
        <time>2022-08-06T09:16:17Z</time>
      </trkpt>
      <trkpt lat="46.57249" lon="5.70911">
        <ele>477</ele>
        <time>2022-08-06T09:16:21Z</time>
      </trkpt>
      <trkpt lat="46.57298" lon="5.70875">
        <ele>476.2</ele>
        <time>2022-08-06T09:16:28Z</time>
      </trkpt>
      <trkpt lat="46.5731" lon="5.70866">
        <ele>476</ele>
        <time>2022-08-06T09:16:30Z</time>
      </trkpt>
      <trkpt lat="46.57358" lon="5.70829">
        <ele>476</ele>
        <time>2022-08-06T09:16:37Z</time>
      </trkpt>
      <trkpt lat="46.57365" lon="5.70823">
        <ele>476</ele>
        <time>2022-08-06T09:16:38Z</time>
      </trkpt>
      <trkpt lat="46.57413" lon="5.70785">
        <ele>475.4</ele>
        <time>2022-08-06T09:16:45Z</time>
      </trkpt>
      <trkpt lat="46.5742" lon="5.70779">
        <ele>475.2</ele>
        <time>2022-08-06T09:16:46Z</time>
      </trkpt>
      <trkpt lat="46.57441" lon="5.7076">
        <ele>473.8</ele>
        <time>2022-08-06T09:16:49Z</time>
      </trkpt>
      <trkpt lat="46.57455" lon="5.70748">
        <ele>472.8</ele>
        <time>2022-08-06T09:16:51Z</time>
      </trkpt>
      <trkpt lat="46.57462" lon="5.70742">
        <ele>472.4</ele>
        <time>2022-08-06T09:16:52Z</time>
      </trkpt>
      <trkpt lat="46.57486" lon="5.70722">
        <ele>471.4</ele>
        <time>2022-08-06T09:16:55Z</time>
      </trkpt>
      <trkpt lat="46.5751" lon="5.70705">
        <ele>470.4</ele>
        <time>2022-08-06T09:16:58Z</time>
      </trkpt>
      <trkpt lat="46.57529" lon="5.70697">
        <ele>469.2</ele>
        <time>2022-08-06T09:17:00Z</time>
      </trkpt>
      <trkpt lat="46.57549" lon="5.70689">
        <ele>467.6</ele>
        <time>2022-08-06T09:17:02Z</time>
      </trkpt>
      <trkpt lat="46.57559" lon="5.70685">
        <ele>467.2</ele>
        <time>2022-08-06T09:17:03Z</time>
      </trkpt>
      <trkpt lat="46.57569" lon="5.70679">
        <ele>466.2</ele>
        <time>2022-08-06T09:17:04Z</time>
      </trkpt>
      <trkpt lat="46.57587" lon="5.70664">
        <ele>465.2</ele>
        <time>2022-08-06T09:17:06Z</time>
      </trkpt>
      <trkpt lat="46.57624" lon="5.70625">
        <ele>464</ele>
        <time>2022-08-06T09:17:10Z</time>
      </trkpt>
      <trkpt lat="46.57632" lon="5.70616">
        <ele>463</ele>
        <time>2022-08-06T09:17:11Z</time>
      </trkpt>
      <trkpt lat="46.57648" lon="5.70601">
        <ele>461.8</ele>
        <time>2022-08-06T09:17:13Z</time>
      </trkpt>
      <trkpt lat="46.57665" lon="5.70583">
        <ele>460.8</ele>
        <time>2022-08-06T09:17:15Z</time>
      </trkpt>
      <trkpt lat="46.57691" lon="5.70557">
        <ele>459.2</ele>
        <time>2022-08-06T09:17:18Z</time>
      </trkpt>
      <trkpt lat="46.57709" lon="5.70538">
        <ele>457.8</ele>
        <time>2022-08-06T09:17:20Z</time>
      </trkpt>
      <trkpt lat="46.57724" lon="5.70522">
        <ele>457</ele>
        <time>2022-08-06T09:17:22Z</time>
      </trkpt>
      <trkpt lat="46.57734" lon="5.70512">
        <ele>456.8</ele>
        <time>2022-08-06T09:17:23Z</time>
      </trkpt>
      <trkpt lat="46.57751" lon="5.70499">
        <ele>455.4</ele>
        <time>2022-08-06T09:17:25Z</time>
      </trkpt>
      <trkpt lat="46.57761" lon="5.70494">
        <ele>455</ele>
        <time>2022-08-06T09:17:26Z</time>
      </trkpt>
      <trkpt lat="46.57773" lon="5.70491">
        <ele>454.6</ele>
        <time>2022-08-06T09:17:27Z</time>
      </trkpt>
      <trkpt lat="46.57784" lon="5.70491">
        <ele>454.4</ele>
        <time>2022-08-06T09:17:28Z</time>
      </trkpt>
      <trkpt lat="46.57793" lon="5.7049">
        <ele>453.8</ele>
        <time>2022-08-06T09:17:29Z</time>
      </trkpt>
      <trkpt lat="46.57807" lon="5.7049">
        <ele>453.6</ele>
        <time>2022-08-06T09:17:30Z</time>
      </trkpt>
      <trkpt lat="46.57832" lon="5.70486">
        <ele>452.2</ele>
        <time>2022-08-06T09:17:32Z</time>
      </trkpt>
      <trkpt lat="46.57843" lon="5.70482">
        <ele>452</ele>
        <time>2022-08-06T09:17:33Z</time>
      </trkpt>
      <trkpt lat="46.57852" lon="5.70477">
        <ele>450.6</ele>
        <time>2022-08-06T09:17:34Z</time>
      </trkpt>
      <trkpt lat="46.57875" lon="5.70464">
        <ele>448.6</ele>
        <time>2022-08-06T09:17:36Z</time>
      </trkpt>
      <trkpt lat="46.57883" lon="5.70459">
        <ele>447.8</ele>
        <time>2022-08-06T09:17:37Z</time>
      </trkpt>
      <trkpt lat="46.57894" lon="5.70451">
        <ele>446.2</ele>
        <time>2022-08-06T09:17:38Z</time>
      </trkpt>
      <trkpt lat="46.57911" lon="5.70439">
        <ele>445.2</ele>
        <time>2022-08-06T09:17:40Z</time>
      </trkpt>
      <trkpt lat="46.57922" lon="5.70433">
        <ele>444.6</ele>
        <time>2022-08-06T09:17:41Z</time>
      </trkpt>
      <trkpt lat="46.57931" lon="5.70429">
        <ele>444.4</ele>
        <time>2022-08-06T09:17:42Z</time>
      </trkpt>
      <trkpt lat="46.57939" lon="5.70426">
        <ele>444</ele>
        <time>2022-08-06T09:17:43Z</time>
      </trkpt>
      <trkpt lat="46.5796" lon="5.70422">
        <ele>443</ele>
        <time>2022-08-06T09:17:45Z</time>
      </trkpt>
      <trkpt lat="46.5797" lon="5.70421">
        <ele>442.6</ele>
        <time>2022-08-06T09:17:46Z</time>
      </trkpt>
      <trkpt lat="46.57989" lon="5.70419">
        <ele>442</ele>
        <time>2022-08-06T09:17:48Z</time>
      </trkpt>
      <trkpt lat="46.58033" lon="5.70414">
        <ele>440.4</ele>
        <time>2022-08-06T09:17:52Z</time>
      </trkpt>
      <trkpt lat="46.58052" lon="5.70411">
        <ele>439</ele>
        <time>2022-08-06T09:17:54Z</time>
      </trkpt>
      <trkpt lat="46.58065" lon="5.70409">
        <ele>438</ele>
        <time>2022-08-06T09:17:55Z</time>
      </trkpt>
      <trkpt lat="46.58073" lon="5.70408">
        <ele>437.6</ele>
        <time>2022-08-06T09:17:56Z</time>
      </trkpt>
      <trkpt lat="46.58083" lon="5.70407">
        <ele>437</ele>
        <time>2022-08-06T09:17:57Z</time>
      </trkpt>
      <trkpt lat="46.58115" lon="5.70399">
        <ele>436</ele>
        <time>2022-08-06T09:18:00Z</time>
      </trkpt>
      <trkpt lat="46.58122" lon="5.70395">
        <ele>435.8</ele>
        <time>2022-08-06T09:18:01Z</time>
      </trkpt>
      <trkpt lat="46.58157" lon="5.70368">
        <ele>435.4</ele>
        <time>2022-08-06T09:18:05Z</time>
      </trkpt>
      <trkpt lat="46.58203" lon="5.70333">
        <ele>435</ele>
        <time>2022-08-06T09:18:11Z</time>
      </trkpt>
      <trkpt lat="46.58252" lon="5.70295">
        <ele>434.6</ele>
        <time>2022-08-06T09:18:17Z</time>
      </trkpt>
      <trkpt lat="46.58259" lon="5.70289">
        <ele>434.4</ele>
        <time>2022-08-06T09:18:18Z</time>
      </trkpt>
      <trkpt lat="46.58266" lon="5.70283">
        <ele>434</ele>
        <time>2022-08-06T09:18:19Z</time>
      </trkpt>
      <trkpt lat="46.58304" lon="5.70253">
        <ele>433.2</ele>
        <time>2022-08-06T09:18:24Z</time>
      </trkpt>
      <trkpt lat="46.58353" lon="5.70214">
        <ele>433.8</ele>
        <time>2022-08-06T09:18:31Z</time>
      </trkpt>
      <trkpt lat="46.58378" lon="5.70197">
        <ele>434.4</ele>
        <time>2022-08-06T09:18:35Z</time>
      </trkpt>
      <trkpt lat="46.5839" lon="5.7019">
        <ele>435</ele>
        <time>2022-08-06T09:18:37Z</time>
      </trkpt>
      <trkpt lat="46.58404" lon="5.70183">
        <ele>435.2</ele>
        <time>2022-08-06T09:18:39Z</time>
      </trkpt>
      <trkpt lat="46.58426" lon="5.70173">
        <ele>436</ele>
        <time>2022-08-06T09:18:43Z</time>
      </trkpt>
      <trkpt lat="46.58438" lon="5.70169">
        <ele>436.4</ele>
        <time>2022-08-06T09:18:45Z</time>
      </trkpt>
      <trkpt lat="46.58455" lon="5.70165">
        <ele>437</ele>
        <time>2022-08-06T09:18:48Z</time>
      </trkpt>
      <trkpt lat="46.58478" lon="5.70163">
        <ele>437.4</ele>
        <time>2022-08-06T09:18:52Z</time>
      </trkpt>
      <trkpt lat="46.5849" lon="5.70162">
        <ele>437.6</ele>
        <time>2022-08-06T09:18:54Z</time>
      </trkpt>
      <trkpt lat="46.58496" lon="5.70162">
        <ele>437.6</ele>
        <time>2022-08-06T09:18:55Z</time>
      </trkpt>
      <trkpt lat="46.58511" lon="5.70159">
        <ele>437.8</ele>
        <time>2022-08-06T09:18:58Z</time>
      </trkpt>
      <trkpt lat="46.58513" lon="5.70159">
        <ele>438</ele>
        <time>2022-08-06T09:18:59Z</time>
      </trkpt>
      <trkpt lat="46.58514" lon="5.7016">
        <ele>438.4</ele>
        <time>2022-08-06T09:19:02Z</time>
      </trkpt>
      <trkpt lat="46.58517" lon="5.70152">
        <ele>438.6</ele>
        <time>2022-08-06T09:19:05Z</time>
      </trkpt>
      <trkpt lat="46.58514" lon="5.70139">
        <ele>438.6</ele>
        <time>2022-08-06T09:19:07Z</time>
      </trkpt>
      <trkpt lat="46.58509" lon="5.70096">
        <ele>437.8</ele>
        <time>2022-08-06T09:19:12Z</time>
      </trkpt>
      <trkpt lat="46.58508" lon="5.70088">
        <ele>437.6</ele>
        <time>2022-08-06T09:19:13Z</time>
      </trkpt>
      <trkpt lat="46.58504" lon="5.70035">
        <ele>437.6</ele>
        <time>2022-08-06T09:19:19Z</time>
      </trkpt>
      <trkpt lat="46.585" lon="5.69969">
        <ele>437.6</ele>
        <time>2022-08-06T09:19:26Z</time>
      </trkpt>
      <trkpt lat="46.58501" lon="5.69946">
        <ele>437</ele>
        <time>2022-08-06T09:19:28Z</time>
      </trkpt>
      <trkpt lat="46.58503" lon="5.69935">
        <ele>436.8</ele>
        <time>2022-08-06T09:19:29Z</time>
      </trkpt>
      <trkpt lat="46.58506" lon="5.69925">
        <ele>436.4</ele>
        <time>2022-08-06T09:19:30Z</time>
      </trkpt>
      <trkpt lat="46.58509" lon="5.69916">
        <ele>435.6</ele>
        <time>2022-08-06T09:19:31Z</time>
      </trkpt>
      <trkpt lat="46.58515" lon="5.69898">
        <ele>435</ele>
        <time>2022-08-06T09:19:33Z</time>
      </trkpt>
      <trkpt lat="46.58518" lon="5.69891">
        <ele>434.8</ele>
        <time>2022-08-06T09:19:34Z</time>
      </trkpt>
      <trkpt lat="46.58525" lon="5.69866">
        <ele>434.8</ele>
        <time>2022-08-06T09:19:38Z</time>
      </trkpt>
      <trkpt lat="46.58526" lon="5.69861">
        <ele>434.8</ele>
        <time>2022-08-06T09:19:39Z</time>
      </trkpt>
      <trkpt lat="46.58534" lon="5.69838">
        <ele>435.2</ele>
        <time>2022-08-06T09:19:44Z</time>
      </trkpt>
      <trkpt lat="46.58543" lon="5.69804">
        <ele>435.2</ele>
        <time>2022-08-06T09:19:50Z</time>
      </trkpt>
      <trkpt lat="46.58556" lon="5.6976">
        <ele>435.2</ele>
        <time>2022-08-06T09:19:57Z</time>
      </trkpt>
      <trkpt lat="46.58565" lon="5.69726">
        <ele>435.8</ele>
        <time>2022-08-06T09:20:03Z</time>
      </trkpt>
      <trkpt lat="46.58563" lon="5.69721">
        <ele>435.8</ele>
        <time>2022-08-06T09:20:04Z</time>
      </trkpt>
      <trkpt lat="46.58556" lon="5.69713">
        <ele>435.8</ele>
        <time>2022-08-06T09:20:06Z</time>
      </trkpt>
      <trkpt lat="46.58533" lon="5.69689">
        <ele>435.6</ele>
        <time>2022-08-06T09:20:11Z</time>
      </trkpt>
      <trkpt lat="46.58529" lon="5.69683">
        <ele>435.6</ele>
        <time>2022-08-06T09:20:12Z</time>
      </trkpt>
      <trkpt lat="46.58503" lon="5.69652">
        <ele>436.2</ele>
        <time>2022-08-06T09:20:18Z</time>
      </trkpt>
      <trkpt lat="46.58466" lon="5.69609">
        <ele>437</ele>
        <time>2022-08-06T09:20:27Z</time>
      </trkpt>
      <trkpt lat="46.58441" lon="5.69581">
        <ele>438.2</ele>
        <time>2022-08-06T09:20:33Z</time>
      </trkpt>
      <trkpt lat="46.5843" lon="5.69567">
        <ele>438.4</ele>
        <time>2022-08-06T09:20:36Z</time>
      </trkpt>
      <trkpt lat="46.58413" lon="5.69548">
        <ele>439.2</ele>
        <time>2022-08-06T09:20:40Z</time>
      </trkpt>
      <trkpt lat="46.58388" lon="5.69517">
        <ele>440.2</ele>
        <time>2022-08-06T09:20:46Z</time>
      </trkpt>
      <trkpt lat="46.58383" lon="5.69512">
        <ele>440.6</ele>
        <time>2022-08-06T09:20:47Z</time>
      </trkpt>
      <trkpt lat="46.58371" lon="5.69498">
        <ele>441.6</ele>
        <time>2022-08-06T09:20:50Z</time>
      </trkpt>
      <trkpt lat="46.58355" lon="5.6948">
        <ele>442.4</ele>
        <time>2022-08-06T09:20:54Z</time>
      </trkpt>
      <trkpt lat="46.58344" lon="5.69467">
        <ele>443</ele>
        <time>2022-08-06T09:20:57Z</time>
      </trkpt>
      <trkpt lat="46.58334" lon="5.69455">
        <ele>443.4</ele>
        <time>2022-08-06T09:21:00Z</time>
      </trkpt>
      <trkpt lat="46.58327" lon="5.69446">
        <ele>444</ele>
        <time>2022-08-06T09:21:02Z</time>
      </trkpt>
      <trkpt lat="46.58305" lon="5.6942">
        <ele>445.2</ele>
        <time>2022-08-06T09:21:08Z</time>
      </trkpt>
      <trkpt lat="46.58295" lon="5.69409">
        <ele>445.6</ele>
        <time>2022-08-06T09:21:11Z</time>
      </trkpt>
      <trkpt lat="46.58282" lon="5.69393">
        <ele>446.4</ele>
        <time>2022-08-06T09:21:15Z</time>
      </trkpt>
      <trkpt lat="46.58265" lon="5.69373">
        <ele>447.6</ele>
        <time>2022-08-06T09:21:20Z</time>
      </trkpt>
      <trkpt lat="46.58261" lon="5.69369">
        <ele>447.6</ele>
        <time>2022-08-06T09:21:21Z</time>
      </trkpt>
      <trkpt lat="46.58241" lon="5.69345">
        <ele>448.8</ele>
        <time>2022-08-06T09:21:27Z</time>
      </trkpt>
      <trkpt lat="46.58227" lon="5.69329">
        <ele>449.6</ele>
        <time>2022-08-06T09:21:31Z</time>
      </trkpt>
      <trkpt lat="46.58223" lon="5.69325">
        <ele>449.6</ele>
        <time>2022-08-06T09:21:32Z</time>
      </trkpt>
      <trkpt lat="46.58215" lon="5.69318">
        <ele>450.6</ele>
        <time>2022-08-06T09:21:34Z</time>
      </trkpt>
      <trkpt lat="46.58212" lon="5.69314">
        <ele>450.8</ele>
        <time>2022-08-06T09:21:35Z</time>
      </trkpt>
      <trkpt lat="46.58208" lon="5.6931">
        <ele>451</ele>
        <time>2022-08-06T09:21:36Z</time>
      </trkpt>
      <trkpt lat="46.58204" lon="5.69305">
        <ele>451</ele>
        <time>2022-08-06T09:21:37Z</time>
      </trkpt>
      <trkpt lat="46.58197" lon="5.69295">
        <ele>451.4</ele>
        <time>2022-08-06T09:21:39Z</time>
      </trkpt>
      <trkpt lat="46.58182" lon="5.69274">
        <ele>451.8</ele>
        <time>2022-08-06T09:21:43Z</time>
      </trkpt>
      <trkpt lat="46.58174" lon="5.69265">
        <ele>452</ele>
        <time>2022-08-06T09:21:45Z</time>
      </trkpt>
      <trkpt lat="46.58151" lon="5.69238">
        <ele>452.8</ele>
        <time>2022-08-06T09:21:51Z</time>
      </trkpt>
      <trkpt lat="46.5814" lon="5.69224">
        <ele>453.2</ele>
        <time>2022-08-06T09:21:54Z</time>
      </trkpt>
      <trkpt lat="46.58133" lon="5.69215">
        <ele>453.6</ele>
        <time>2022-08-06T09:21:56Z</time>
      </trkpt>
      <trkpt lat="46.58121" lon="5.69202">
        <ele>454.4</ele>
        <time>2022-08-06T09:21:59Z</time>
      </trkpt>
      <trkpt lat="46.58097" lon="5.69171">
        <ele>455.4</ele>
        <time>2022-08-06T09:22:05Z</time>
      </trkpt>
      <trkpt lat="46.58081" lon="5.6915">
        <ele>456</ele>
        <time>2022-08-06T09:22:09Z</time>
      </trkpt>
      <trkpt lat="46.58063" lon="5.69129">
        <ele>456.4</ele>
        <time>2022-08-06T09:22:13Z</time>
      </trkpt>
      <trkpt lat="46.58042" lon="5.69102">
        <ele>457</ele>
        <time>2022-08-06T09:22:18Z</time>
      </trkpt>
      <trkpt lat="46.58013" lon="5.69066">
        <ele>457.8</ele>
        <time>2022-08-06T09:22:25Z</time>
      </trkpt>
      <trkpt lat="46.58004" lon="5.69055">
        <ele>458.2</ele>
        <time>2022-08-06T09:22:27Z</time>
      </trkpt>
      <trkpt lat="46.57971" lon="5.69014">
        <ele>458.8</ele>
        <time>2022-08-06T09:22:35Z</time>
      </trkpt>
      <trkpt lat="46.57967" lon="5.69009">
        <ele>459</ele>
        <time>2022-08-06T09:22:36Z</time>
      </trkpt>
      <trkpt lat="46.57963" lon="5.69004">
        <ele>459</ele>
        <time>2022-08-06T09:22:37Z</time>
      </trkpt>
      <trkpt lat="46.57939" lon="5.68974">
        <ele>460.2</ele>
        <time>2022-08-06T09:22:43Z</time>
      </trkpt>
      <trkpt lat="46.57935" lon="5.68968">
        <ele>460.4</ele>
        <time>2022-08-06T09:22:44Z</time>
      </trkpt>
      <trkpt lat="46.57892" lon="5.68916">
        <ele>461.4</ele>
        <time>2022-08-06T09:22:53Z</time>
      </trkpt>
      <trkpt lat="46.57849" lon="5.68862">
        <ele>460.8</ele>
        <time>2022-08-06T09:23:02Z</time>
      </trkpt>
      <trkpt lat="46.57843" lon="5.68856">
        <ele>460.6</ele>
        <time>2022-08-06T09:23:03Z</time>
      </trkpt>
      <trkpt lat="46.5781" lon="5.68813">
        <ele>460</ele>
        <time>2022-08-06T09:23:09Z</time>
      </trkpt>
      <trkpt lat="46.5777" lon="5.68762">
        <ele>459.6</ele>
        <time>2022-08-06T09:23:16Z</time>
      </trkpt>
      <trkpt lat="46.57726" lon="5.68707">
        <ele>459.8</ele>
        <time>2022-08-06T09:23:24Z</time>
      </trkpt>
      <trkpt lat="46.57711" lon="5.68687">
        <ele>460.6</ele>
        <time>2022-08-06T09:23:27Z</time>
      </trkpt>
      <trkpt lat="46.57679" lon="5.68647">
        <ele>460.8</ele>
        <time>2022-08-06T09:23:33Z</time>
      </trkpt>
      <trkpt lat="46.57636" lon="5.68593">
        <ele>460.6</ele>
        <time>2022-08-06T09:23:41Z</time>
      </trkpt>
      <trkpt lat="46.57631" lon="5.68586">
        <ele>460.6</ele>
        <time>2022-08-06T09:23:42Z</time>
      </trkpt>
      <trkpt lat="46.57589" lon="5.68535">
        <ele>460.2</ele>
        <time>2022-08-06T09:23:49Z</time>
      </trkpt>
      <trkpt lat="46.57577" lon="5.6852">
        <ele>460.2</ele>
        <time>2022-08-06T09:23:51Z</time>
      </trkpt>
      <trkpt lat="46.57536" lon="5.68468">
        <ele>459.8</ele>
        <time>2022-08-06T09:23:58Z</time>
      </trkpt>
      <trkpt lat="46.57529" lon="5.68459">
        <ele>459.6</ele>
        <time>2022-08-06T09:23:59Z</time>
      </trkpt>
      <trkpt lat="46.57514" lon="5.68441">
        <ele>459.6</ele>
        <time>2022-08-06T09:24:02Z</time>
      </trkpt>
      <trkpt lat="46.5749" lon="5.68411">
        <ele>460.2</ele>
        <time>2022-08-06T09:24:07Z</time>
      </trkpt>
      <trkpt lat="46.57472" lon="5.68389">
        <ele>460.8</ele>
        <time>2022-08-06T09:24:11Z</time>
      </trkpt>
      <trkpt lat="46.57463" lon="5.68378">
        <ele>461.2</ele>
        <time>2022-08-06T09:24:13Z</time>
      </trkpt>
      <trkpt lat="46.57448" lon="5.6836">
        <ele>462</ele>
        <time>2022-08-06T09:24:16Z</time>
      </trkpt>
      <trkpt lat="46.57423" lon="5.68326">
        <ele>462.8</ele>
        <time>2022-08-06T09:24:22Z</time>
      </trkpt>
      <trkpt lat="46.57414" lon="5.68315">
        <ele>463</ele>
        <time>2022-08-06T09:24:24Z</time>
      </trkpt>
      <trkpt lat="46.57392" lon="5.68289">
        <ele>464.4</ele>
        <time>2022-08-06T09:24:29Z</time>
      </trkpt>
      <trkpt lat="46.57383" lon="5.68277">
        <ele>465</ele>
        <time>2022-08-06T09:24:31Z</time>
      </trkpt>
      <trkpt lat="46.57371" lon="5.68261">
        <ele>465.4</ele>
        <time>2022-08-06T09:24:34Z</time>
      </trkpt>
      <trkpt lat="46.57355" lon="5.68242">
        <ele>466</ele>
        <time>2022-08-06T09:24:38Z</time>
      </trkpt>
      <trkpt lat="46.57352" lon="5.68238">
        <ele>466.4</ele>
        <time>2022-08-06T09:24:39Z</time>
      </trkpt>
      <trkpt lat="46.57324" lon="5.68202">
        <ele>467.8</ele>
        <time>2022-08-06T09:24:46Z</time>
      </trkpt>
      <trkpt lat="46.57312" lon="5.68187">
        <ele>468.4</ele>
        <time>2022-08-06T09:24:49Z</time>
      </trkpt>
      <trkpt lat="46.573" lon="5.68172">
        <ele>468.8</ele>
        <time>2022-08-06T09:24:52Z</time>
      </trkpt>
      <trkpt lat="46.57269" lon="5.6813">
        <ele>470</ele>
        <time>2022-08-06T09:25:00Z</time>
      </trkpt>
      <trkpt lat="46.57244" lon="5.68096">
        <ele>470.4</ele>
        <time>2022-08-06T09:25:05Z</time>
      </trkpt>
      <trkpt lat="46.57207" lon="5.68045">
        <ele>470.2</ele>
        <time>2022-08-06T09:25:12Z</time>
      </trkpt>
      <trkpt lat="46.57164" lon="5.67987">
        <ele>469.4</ele>
        <time>2022-08-06T09:25:20Z</time>
      </trkpt>
      <trkpt lat="46.57152" lon="5.6797">
        <ele>469.2</ele>
        <time>2022-08-06T09:25:22Z</time>
      </trkpt>
      <trkpt lat="46.57114" lon="5.6792">
        <ele>469</ele>
        <time>2022-08-06T09:25:29Z</time>
      </trkpt>
      <trkpt lat="46.57075" lon="5.67866">
        <ele>469.2</ele>
        <time>2022-08-06T09:25:37Z</time>
      </trkpt>
      <trkpt lat="46.57069" lon="5.67857">
        <ele>469.4</ele>
        <time>2022-08-06T09:25:38Z</time>
      </trkpt>
      <trkpt lat="46.57025" lon="5.67798">
        <ele>469.8</ele>
        <time>2022-08-06T09:25:47Z</time>
      </trkpt>
      <trkpt lat="46.57005" lon="5.67772">
        <ele>470</ele>
        <time>2022-08-06T09:25:51Z</time>
      </trkpt>
      <trkpt lat="46.56963" lon="5.67715">
        <ele>470.4</ele>
        <time>2022-08-06T09:26:00Z</time>
      </trkpt>
      <trkpt lat="46.56958" lon="5.67708">
        <ele>470.4</ele>
        <time>2022-08-06T09:26:01Z</time>
      </trkpt>
      <trkpt lat="46.56953" lon="5.67702">
        <ele>470.6</ele>
        <time>2022-08-06T09:26:02Z</time>
      </trkpt>
      <trkpt lat="46.5691" lon="5.67643">
        <ele>471.4</ele>
        <time>2022-08-06T09:26:11Z</time>
      </trkpt>
      <trkpt lat="46.56907" lon="5.67638">
        <ele>471.4</ele>
        <time>2022-08-06T09:26:12Z</time>
      </trkpt>
      <trkpt lat="46.56888" lon="5.67613">
        <ele>471.4</ele>
        <time>2022-08-06T09:26:16Z</time>
      </trkpt>
      <trkpt lat="46.56856" lon="5.67569">
        <ele>471.8</ele>
        <time>2022-08-06T09:26:23Z</time>
      </trkpt>
      <trkpt lat="46.56829" lon="5.67532">
        <ele>472.4</ele>
        <time>2022-08-06T09:26:29Z</time>
      </trkpt>
      <trkpt lat="46.56811" lon="5.67507">
        <ele>472.8</ele>
        <time>2022-08-06T09:26:33Z</time>
      </trkpt>
      <trkpt lat="46.56769" lon="5.67449">
        <ele>473.6</ele>
        <time>2022-08-06T09:26:42Z</time>
      </trkpt>
      <trkpt lat="46.56763" lon="5.67441">
        <ele>473.6</ele>
        <time>2022-08-06T09:26:43Z</time>
      </trkpt>
      <trkpt lat="46.56721" lon="5.67387">
        <ele>473.6</ele>
        <time>2022-08-06T09:26:51Z</time>
      </trkpt>
      <trkpt lat="46.56674" lon="5.67339">
        <ele>473.4</ele>
        <time>2022-08-06T09:26:59Z</time>
      </trkpt>
      <trkpt lat="46.56625" lon="5.67292">
        <ele>473.4</ele>
        <time>2022-08-06T09:27:07Z</time>
      </trkpt>
      <trkpt lat="46.56613" lon="5.6728">
        <ele>473.4</ele>
        <time>2022-08-06T09:27:09Z</time>
      </trkpt>
      <trkpt lat="46.56597" lon="5.67263">
        <ele>473.8</ele>
        <time>2022-08-06T09:27:12Z</time>
      </trkpt>
      <trkpt lat="46.56566" lon="5.67224">
        <ele>474.6</ele>
        <time>2022-08-06T09:27:18Z</time>
      </trkpt>
      <trkpt lat="46.5656" lon="5.67217">
        <ele>474.8</ele>
        <time>2022-08-06T09:27:19Z</time>
      </trkpt>
      <trkpt lat="46.56532" lon="5.67178">
        <ele>475</ele>
        <time>2022-08-06T09:27:24Z</time>
      </trkpt>
      <trkpt lat="46.56491" lon="5.67121">
        <ele>475.2</ele>
        <time>2022-08-06T09:27:31Z</time>
      </trkpt>
      <trkpt lat="46.56485" lon="5.67113">
        <ele>475</ele>
        <time>2022-08-06T09:27:32Z</time>
      </trkpt>
      <trkpt lat="46.56445" lon="5.67057">
        <ele>474.4</ele>
        <time>2022-08-06T09:27:39Z</time>
      </trkpt>
      <trkpt lat="46.56428" lon="5.67033">
        <ele>474.2</ele>
        <time>2022-08-06T09:27:42Z</time>
      </trkpt>
      <trkpt lat="46.56383" lon="5.66972">
        <ele>474.4</ele>
        <time>2022-08-06T09:27:50Z</time>
      </trkpt>
      <trkpt lat="46.56351" lon="5.66927">
        <ele>474.6</ele>
        <time>2022-08-06T09:27:56Z</time>
      </trkpt>
      <trkpt lat="46.56309" lon="5.66874">
        <ele>475</ele>
        <time>2022-08-06T09:28:04Z</time>
      </trkpt>
      <trkpt lat="46.56272" lon="5.66841">
        <ele>475.6</ele>
        <time>2022-08-06T09:28:10Z</time>
      </trkpt>
      <trkpt lat="46.56239" lon="5.66821">
        <ele>476.2</ele>
        <time>2022-08-06T09:28:15Z</time>
      </trkpt>
      <trkpt lat="46.56227" lon="5.66813">
        <ele>476.4</ele>
        <time>2022-08-06T09:28:17Z</time>
      </trkpt>
      <trkpt lat="46.56191" lon="5.66794">
        <ele>477.2</ele>
        <time>2022-08-06T09:28:23Z</time>
      </trkpt>
      <trkpt lat="46.56168" lon="5.66783">
        <ele>478.2</ele>
        <time>2022-08-06T09:28:27Z</time>
      </trkpt>
      <trkpt lat="46.56152" lon="5.66775">
        <ele>478.6</ele>
        <time>2022-08-06T09:28:30Z</time>
      </trkpt>
      <trkpt lat="46.56141" lon="5.66768">
        <ele>479</ele>
        <time>2022-08-06T09:28:32Z</time>
      </trkpt>
      <trkpt lat="46.56115" lon="5.66749">
        <ele>479.4</ele>
        <time>2022-08-06T09:28:37Z</time>
      </trkpt>
      <trkpt lat="46.5611" lon="5.66745">
        <ele>479.4</ele>
        <time>2022-08-06T09:28:38Z</time>
      </trkpt>
      <trkpt lat="46.56068" lon="5.66703">
        <ele>480</ele>
        <time>2022-08-06T09:28:46Z</time>
      </trkpt>
      <trkpt lat="46.56044" lon="5.66656">
        <ele>480.2</ele>
        <time>2022-08-06T09:28:52Z</time>
      </trkpt>
      <trkpt lat="46.5602" lon="5.66599">
        <ele>480.2</ele>
        <time>2022-08-06T09:28:59Z</time>
      </trkpt>
      <trkpt lat="46.56017" lon="5.66591">
        <ele>480.4</ele>
        <time>2022-08-06T09:29:00Z</time>
      </trkpt>
      <trkpt lat="46.55994" lon="5.66545">
        <ele>481.4</ele>
        <time>2022-08-06T09:29:06Z</time>
      </trkpt>
      <trkpt lat="46.55983" lon="5.66521">
        <ele>481.8</ele>
        <time>2022-08-06T09:29:09Z</time>
      </trkpt>
      <trkpt lat="46.55959" lon="5.6646">
        <ele>482.4</ele>
        <time>2022-08-06T09:29:17Z</time>
      </trkpt>
      <trkpt lat="46.55932" lon="5.66402">
        <ele>482.8</ele>
        <time>2022-08-06T09:29:24Z</time>
      </trkpt>
      <trkpt lat="46.55899" lon="5.66362">
        <ele>481.6</ele>
        <time>2022-08-06T09:29:30Z</time>
      </trkpt>
      <trkpt lat="46.55888" lon="5.66351">
        <ele>481.4</ele>
        <time>2022-08-06T09:29:32Z</time>
      </trkpt>
      <trkpt lat="46.55854" lon="5.66316">
        <ele>480.8</ele>
        <time>2022-08-06T09:29:38Z</time>
      </trkpt>
      <trkpt lat="46.55807" lon="5.66269">
        <ele>480.6</ele>
        <time>2022-08-06T09:29:46Z</time>
      </trkpt>
      <trkpt lat="46.55761" lon="5.66222">
        <ele>480.8</ele>
        <time>2022-08-06T09:29:54Z</time>
      </trkpt>
      <trkpt lat="46.55756" lon="5.66217">
        <ele>480.8</ele>
        <time>2022-08-06T09:29:55Z</time>
      </trkpt>
      <trkpt lat="46.55733" lon="5.66193">
        <ele>481.8</ele>
        <time>2022-08-06T09:30:00Z</time>
      </trkpt>
      <trkpt lat="46.55725" lon="5.66185">
        <ele>482.4</ele>
        <time>2022-08-06T09:30:02Z</time>
      </trkpt>
      <trkpt lat="46.55705" lon="5.66165">
        <ele>483.4</ele>
        <time>2022-08-06T09:30:07Z</time>
      </trkpt>
      <trkpt lat="46.55698" lon="5.66157">
        <ele>483.6</ele>
        <time>2022-08-06T09:30:09Z</time>
      </trkpt>
      <trkpt lat="46.55667" lon="5.66122">
        <ele>484.6</ele>
        <time>2022-08-06T09:30:17Z</time>
      </trkpt>
      <trkpt lat="46.5566" lon="5.66111">
        <ele>485</ele>
        <time>2022-08-06T09:30:19Z</time>
      </trkpt>
      <trkpt lat="46.55649" lon="5.66085">
        <ele>485.2</ele>
        <time>2022-08-06T09:30:23Z</time>
      </trkpt>
      <trkpt lat="46.55647" lon="5.66071">
        <ele>485.4</ele>
        <time>2022-08-06T09:30:25Z</time>
      </trkpt>
      <trkpt lat="46.55646" lon="5.66057">
        <ele>485.8</ele>
        <time>2022-08-06T09:30:27Z</time>
      </trkpt>
      <trkpt lat="46.55646" lon="5.6605">
        <ele>485.8</ele>
        <time>2022-08-06T09:30:28Z</time>
      </trkpt>
      <trkpt lat="46.55646" lon="5.66036">
        <ele>486.2</ele>
        <time>2022-08-06T09:30:30Z</time>
      </trkpt>
      <trkpt lat="46.55649" lon="5.66016">
        <ele>486.8</ele>
        <time>2022-08-06T09:30:33Z</time>
      </trkpt>
      <trkpt lat="46.5565" lon="5.6601">
        <ele>487</ele>
        <time>2022-08-06T09:30:34Z</time>
      </trkpt>
      <trkpt lat="46.5566" lon="5.65983">
        <ele>487.8</ele>
        <time>2022-08-06T09:30:39Z</time>
      </trkpt>
      <trkpt lat="46.55662" lon="5.65978">
        <ele>488.2</ele>
        <time>2022-08-06T09:30:40Z</time>
      </trkpt>
      <trkpt lat="46.55664" lon="5.65973">
        <ele>488.6</ele>
        <time>2022-08-06T09:30:41Z</time>
      </trkpt>
      <trkpt lat="46.55666" lon="5.65968">
        <ele>489.2</ele>
        <time>2022-08-06T09:30:42Z</time>
      </trkpt>
      <trkpt lat="46.55673" lon="5.65953">
        <ele>490.2</ele>
        <time>2022-08-06T09:30:45Z</time>
      </trkpt>
      <trkpt lat="46.55679" lon="5.65934">
        <ele>491.6</ele>
        <time>2022-08-06T09:30:49Z</time>
      </trkpt>
      <trkpt lat="46.55681" lon="5.65929">
        <ele>491.8</ele>
        <time>2022-08-06T09:30:50Z</time>
      </trkpt>
      <trkpt lat="46.55684" lon="5.65908">
        <ele>492.6</ele>
        <time>2022-08-06T09:30:54Z</time>
      </trkpt>
      <trkpt lat="46.55684" lon="5.65891">
        <ele>493.2</ele>
        <time>2022-08-06T09:30:57Z</time>
      </trkpt>
      <trkpt lat="46.55683" lon="5.6588">
        <ele>493.6</ele>
        <time>2022-08-06T09:30:59Z</time>
      </trkpt>
      <trkpt lat="46.55676" lon="5.65855">
        <ele>494.8</ele>
        <time>2022-08-06T09:31:04Z</time>
      </trkpt>
      <trkpt lat="46.55661" lon="5.65832">
        <ele>495.8</ele>
        <time>2022-08-06T09:31:10Z</time>
      </trkpt>
      <trkpt lat="46.55646" lon="5.65819">
        <ele>497</ele>
        <time>2022-08-06T09:31:15Z</time>
      </trkpt>
      <trkpt lat="46.55635" lon="5.65812">
        <ele>497.4</ele>
        <time>2022-08-06T09:31:18Z</time>
      </trkpt>
      <trkpt lat="46.55621" lon="5.65804">
        <ele>498</ele>
        <time>2022-08-06T09:31:22Z</time>
      </trkpt>
      <trkpt lat="46.55603" lon="5.65794">
        <ele>499.4</ele>
        <time>2022-08-06T09:31:27Z</time>
      </trkpt>
      <trkpt lat="46.556" lon="5.65792">
        <ele>499.6</ele>
        <time>2022-08-06T09:31:28Z</time>
      </trkpt>
      <trkpt lat="46.55589" lon="5.65785">
        <ele>500.4</ele>
        <time>2022-08-06T09:31:31Z</time>
      </trkpt>
      <trkpt lat="46.55573" lon="5.65775">
        <ele>501.6</ele>
        <time>2022-08-06T09:31:36Z</time>
      </trkpt>
      <trkpt lat="46.55562" lon="5.65769">
        <ele>502</ele>
        <time>2022-08-06T09:31:39Z</time>
      </trkpt>
      <trkpt lat="46.55546" lon="5.65758">
        <ele>502.8</ele>
        <time>2022-08-06T09:31:44Z</time>
      </trkpt>
      <trkpt lat="46.55533" lon="5.65749">
        <ele>503.8</ele>
        <time>2022-08-06T09:31:48Z</time>
      </trkpt>
      <trkpt lat="46.55527" lon="5.65745">
        <ele>504</ele>
        <time>2022-08-06T09:31:50Z</time>
      </trkpt>
      <trkpt lat="46.55514" lon="5.65736">
        <ele>505</ele>
        <time>2022-08-06T09:31:54Z</time>
      </trkpt>
      <trkpt lat="46.55497" lon="5.65724">
        <ele>505.4</ele>
        <time>2022-08-06T09:31:59Z</time>
      </trkpt>
      <trkpt lat="46.55486" lon="5.65716">
        <ele>506</ele>
        <time>2022-08-06T09:32:02Z</time>
      </trkpt>
      <trkpt lat="46.55466" lon="5.65701">
        <ele>507.2</ele>
        <time>2022-08-06T09:32:08Z</time>
      </trkpt>
      <trkpt lat="46.55462" lon="5.65699">
        <ele>507.6</ele>
        <time>2022-08-06T09:32:09Z</time>
      </trkpt>
      <trkpt lat="46.55444" lon="5.65687">
        <ele>508.4</ele>
        <time>2022-08-06T09:32:14Z</time>
      </trkpt>
      <trkpt lat="46.55429" lon="5.65676">
        <ele>509.6</ele>
        <time>2022-08-06T09:32:18Z</time>
      </trkpt>
      <trkpt lat="46.55417" lon="5.65669">
        <ele>509.8</ele>
        <time>2022-08-06T09:32:21Z</time>
      </trkpt>
      <trkpt lat="46.55397" lon="5.65655">
        <ele>510.6</ele>
        <time>2022-08-06T09:32:26Z</time>
      </trkpt>
      <trkpt lat="46.55377" lon="5.65643">
        <ele>511.8</ele>
        <time>2022-08-06T09:32:31Z</time>
      </trkpt>
      <trkpt lat="46.55351" lon="5.6563">
        <ele>513</ele>
        <time>2022-08-06T09:32:37Z</time>
      </trkpt>
      <trkpt lat="46.55339" lon="5.65623">
        <ele>513.4</ele>
        <time>2022-08-06T09:32:40Z</time>
      </trkpt>
      <trkpt lat="46.55317" lon="5.6561">
        <ele>514.2</ele>
        <time>2022-08-06T09:32:45Z</time>
      </trkpt>
      <trkpt lat="46.55297" lon="5.65596">
        <ele>515.2</ele>
        <time>2022-08-06T09:32:50Z</time>
      </trkpt>
      <trkpt lat="46.55292" lon="5.65594">
        <ele>515.4</ele>
        <time>2022-08-06T09:32:51Z</time>
      </trkpt>
      <trkpt lat="46.55268" lon="5.65576">
        <ele>516.6</ele>
        <time>2022-08-06T09:32:57Z</time>
      </trkpt>
      <trkpt lat="46.55256" lon="5.65568">
        <ele>517</ele>
        <time>2022-08-06T09:33:00Z</time>
      </trkpt>
      <trkpt lat="46.55244" lon="5.6556">
        <ele>517.6</ele>
        <time>2022-08-06T09:33:03Z</time>
      </trkpt>
      <trkpt lat="46.55219" lon="5.65543">
        <ele>518.6</ele>
        <time>2022-08-06T09:33:09Z</time>
      </trkpt>
      <trkpt lat="46.55199" lon="5.65529">
        <ele>519.6</ele>
        <time>2022-08-06T09:33:14Z</time>
      </trkpt>
      <trkpt lat="46.55168" lon="5.65514">
        <ele>520.2</ele>
        <time>2022-08-06T09:33:21Z</time>
      </trkpt>
      <trkpt lat="46.55143" lon="5.65508">
        <ele>520.6</ele>
        <time>2022-08-06T09:33:26Z</time>
      </trkpt>
      <trkpt lat="46.55123" lon="5.65505">
        <ele>521.2</ele>
        <time>2022-08-06T09:33:30Z</time>
      </trkpt>
      <trkpt lat="46.55096" lon="5.655">
        <ele>521.6</ele>
        <time>2022-08-06T09:33:35Z</time>
      </trkpt>
      <trkpt lat="46.55065" lon="5.65494">
        <ele>522.6</ele>
        <time>2022-08-06T09:33:41Z</time>
      </trkpt>
      <trkpt lat="46.55054" lon="5.65492">
        <ele>522.8</ele>
        <time>2022-08-06T09:33:43Z</time>
      </trkpt>
      <trkpt lat="46.55016" lon="5.65485">
        <ele>523.8</ele>
        <time>2022-08-06T09:33:50Z</time>
      </trkpt>
      <trkpt lat="46.55005" lon="5.65483">
        <ele>524</ele>
        <time>2022-08-06T09:33:52Z</time>
      </trkpt>
      <trkpt lat="46.54961" lon="5.6548">
        <ele>524.8</ele>
        <time>2022-08-06T09:34:00Z</time>
      </trkpt>
      <trkpt lat="46.54955" lon="5.65479">
        <ele>525</ele>
        <time>2022-08-06T09:34:01Z</time>
      </trkpt>
      <trkpt lat="46.54896" lon="5.65482">
        <ele>526</ele>
        <time>2022-08-06T09:34:11Z</time>
      </trkpt>
      <trkpt lat="46.5489" lon="5.65482">
        <ele>526.2</ele>
        <time>2022-08-06T09:34:12Z</time>
      </trkpt>
      <trkpt lat="46.54859" lon="5.65482">
        <ele>526.8</ele>
        <time>2022-08-06T09:34:17Z</time>
      </trkpt>
      <trkpt lat="46.54802" lon="5.65483">
        <ele>527</ele>
        <time>2022-08-06T09:34:26Z</time>
      </trkpt>
      <trkpt lat="46.54796" lon="5.65483">
        <ele>527.2</ele>
        <time>2022-08-06T09:34:27Z</time>
      </trkpt>
      <trkpt lat="46.54751" lon="5.6549">
        <ele>528.2</ele>
        <time>2022-08-06T09:34:34Z</time>
      </trkpt>
      <trkpt lat="46.54732" lon="5.65495">
        <ele>528.4</ele>
        <time>2022-08-06T09:34:37Z</time>
      </trkpt>
      <trkpt lat="46.54675" lon="5.65513">
        <ele>528.6</ele>
        <time>2022-08-06T09:34:45Z</time>
      </trkpt>
      <trkpt lat="46.54661" lon="5.65517">
        <ele>528.4</ele>
        <time>2022-08-06T09:34:47Z</time>
      </trkpt>
      <trkpt lat="46.54609" lon="5.65522">
        <ele>528.6</ele>
        <time>2022-08-06T09:34:54Z</time>
      </trkpt>
      <trkpt lat="46.54592" lon="5.65518">
        <ele>528.6</ele>
        <time>2022-08-06T09:34:56Z</time>
      </trkpt>
      <trkpt lat="46.54579" lon="5.65512">
        <ele>528.6</ele>
        <time>2022-08-06T09:34:58Z</time>
      </trkpt>
      <trkpt lat="46.54529" lon="5.65476">
        <ele>528.4</ele>
        <time>2022-08-06T09:35:05Z</time>
      </trkpt>
      <trkpt lat="46.54479" lon="5.65439">
        <ele>528.2</ele>
        <time>2022-08-06T09:35:12Z</time>
      </trkpt>
      <trkpt lat="46.54453" lon="5.65421">
        <ele>528.4</ele>
        <time>2022-08-06T09:35:16Z</time>
      </trkpt>
      <trkpt lat="46.54424" lon="5.654">
        <ele>529.4</ele>
        <time>2022-08-06T09:35:21Z</time>
      </trkpt>
      <trkpt lat="46.54413" lon="5.65392">
        <ele>529.8</ele>
        <time>2022-08-06T09:35:23Z</time>
      </trkpt>
      <trkpt lat="46.54402" lon="5.65383">
        <ele>530.4</ele>
        <time>2022-08-06T09:35:25Z</time>
      </trkpt>
      <trkpt lat="46.54377" lon="5.65362">
        <ele>531.6</ele>
        <time>2022-08-06T09:35:30Z</time>
      </trkpt>
      <trkpt lat="46.5436" lon="5.65343">
        <ele>532.6</ele>
        <time>2022-08-06T09:35:34Z</time>
      </trkpt>
      <trkpt lat="46.54342" lon="5.65321">
        <ele>533.8</ele>
        <time>2022-08-06T09:35:38Z</time>
      </trkpt>
      <trkpt lat="46.54328" lon="5.65305">
        <ele>535</ele>
        <time>2022-08-06T09:35:41Z</time>
      </trkpt>
      <trkpt lat="46.54315" lon="5.6529">
        <ele>536.2</ele>
        <time>2022-08-06T09:35:44Z</time>
      </trkpt>
      <trkpt lat="46.54297" lon="5.6527">
        <ele>536.8</ele>
        <time>2022-08-06T09:35:48Z</time>
      </trkpt>
      <trkpt lat="46.54284" lon="5.65255">
        <ele>537.4</ele>
        <time>2022-08-06T09:35:51Z</time>
      </trkpt>
      <trkpt lat="46.54255" lon="5.65219">
        <ele>538.4</ele>
        <time>2022-08-06T09:35:58Z</time>
      </trkpt>
      <trkpt lat="46.54239" lon="5.65197">
        <ele>539.4</ele>
        <time>2022-08-06T09:36:02Z</time>
      </trkpt>
      <trkpt lat="46.54203" lon="5.65148">
        <ele>540</ele>
        <time>2022-08-06T09:36:10Z</time>
      </trkpt>
      <trkpt lat="46.54163" lon="5.65095">
        <ele>539.2</ele>
        <time>2022-08-06T09:36:18Z</time>
      </trkpt>
      <trkpt lat="46.54143" lon="5.65074">
        <ele>538</ele>
        <time>2022-08-06T09:36:21Z</time>
      </trkpt>
      <trkpt lat="46.54129" lon="5.65061">
        <ele>537</ele>
        <time>2022-08-06T09:36:23Z</time>
      </trkpt>
      <trkpt lat="46.54122" lon="5.65054">
        <ele>536.8</ele>
        <time>2022-08-06T09:36:24Z</time>
      </trkpt>
      <trkpt lat="46.54069" lon="5.65013">
        <ele>536.2</ele>
        <time>2022-08-06T09:36:31Z</time>
      </trkpt>
      <trkpt lat="46.54022" lon="5.64973">
        <ele>536.6</ele>
        <time>2022-08-06T09:36:38Z</time>
      </trkpt>
      <trkpt lat="46.54006" lon="5.64959">
        <ele>536.6</ele>
        <time>2022-08-06T09:36:40Z</time>
      </trkpt>
      <trkpt lat="46.53972" lon="5.6493">
        <ele>536</ele>
        <time>2022-08-06T09:36:44Z</time>
      </trkpt>
      <trkpt lat="46.53954" lon="5.64914">
        <ele>535.6</ele>
        <time>2022-08-06T09:36:46Z</time>
      </trkpt>
      <trkpt lat="46.53935" lon="5.64898">
        <ele>534.8</ele>
        <time>2022-08-06T09:36:48Z</time>
      </trkpt>
      <trkpt lat="46.53916" lon="5.64881">
        <ele>533.4</ele>
        <time>2022-08-06T09:36:50Z</time>
      </trkpt>
      <trkpt lat="46.53887" lon="5.64856">
        <ele>532.6</ele>
        <time>2022-08-06T09:36:53Z</time>
      </trkpt>
      <trkpt lat="46.53878" lon="5.64847">
        <ele>532.4</ele>
        <time>2022-08-06T09:36:54Z</time>
      </trkpt>
      <trkpt lat="46.53827" lon="5.64803">
        <ele>531.8</ele>
        <time>2022-08-06T09:37:00Z</time>
      </trkpt>
      <trkpt lat="46.53784" lon="5.64766">
        <ele>532.4</ele>
        <time>2022-08-06T09:37:06Z</time>
      </trkpt>
      <trkpt lat="46.5375" lon="5.64735">
        <ele>533.4</ele>
        <time>2022-08-06T09:37:11Z</time>
      </trkpt>
      <trkpt lat="46.53743" lon="5.64728">
        <ele>533.8</ele>
        <time>2022-08-06T09:37:12Z</time>
      </trkpt>
      <trkpt lat="46.53696" lon="5.64688">
        <ele>534</ele>
        <time>2022-08-06T09:37:18Z</time>
      </trkpt>
      <trkpt lat="46.53681" lon="5.64675">
        <ele>534</ele>
        <time>2022-08-06T09:37:20Z</time>
      </trkpt>
      <trkpt lat="46.53627" lon="5.64628">
        <ele>533.6</ele>
        <time>2022-08-06T09:37:27Z</time>
      </trkpt>
      <trkpt lat="46.53605" lon="5.64609">
        <ele>533.4</ele>
        <time>2022-08-06T09:37:30Z</time>
      </trkpt>
      <trkpt lat="46.53553" lon="5.64563">
        <ele>533.8</ele>
        <time>2022-08-06T09:37:37Z</time>
      </trkpt>
      <trkpt lat="46.53535" lon="5.64549">
        <ele>534</ele>
        <time>2022-08-06T09:37:39Z</time>
      </trkpt>
      <trkpt lat="46.53482" lon="5.64503">
        <ele>534.4</ele>
        <time>2022-08-06T09:37:46Z</time>
      </trkpt>
      <trkpt lat="46.53467" lon="5.64491">
        <ele>534.8</ele>
        <time>2022-08-06T09:37:48Z</time>
      </trkpt>
      <trkpt lat="46.53451" lon="5.64477">
        <ele>535.2</ele>
        <time>2022-08-06T09:37:50Z</time>
      </trkpt>
      <trkpt lat="46.53402" lon="5.64436">
        <ele>535.4</ele>
        <time>2022-08-06T09:37:56Z</time>
      </trkpt>
      <trkpt lat="46.53393" lon="5.64429">
        <ele>535.4</ele>
        <time>2022-08-06T09:37:57Z</time>
      </trkpt>
      <trkpt lat="46.53344" lon="5.64388">
        <ele>533.8</ele>
        <time>2022-08-06T09:38:03Z</time>
      </trkpt>
      <trkpt lat="46.53335" lon="5.6438">
        <ele>533.8</ele>
        <time>2022-08-06T09:38:04Z</time>
      </trkpt>
      <trkpt lat="46.53326" lon="5.64374">
        <ele>533.6</ele>
        <time>2022-08-06T09:38:05Z</time>
      </trkpt>
      <trkpt lat="46.53278" lon="5.64335">
        <ele>533</ele>
        <time>2022-08-06T09:38:11Z</time>
      </trkpt>
      <trkpt lat="46.5327" lon="5.64329">
        <ele>533.2</ele>
        <time>2022-08-06T09:38:12Z</time>
      </trkpt>
      <trkpt lat="46.5322" lon="5.64288">
        <ele>533.6</ele>
        <time>2022-08-06T09:38:19Z</time>
      </trkpt>
      <trkpt lat="46.53206" lon="5.64277">
        <ele>533.8</ele>
        <time>2022-08-06T09:38:21Z</time>
      </trkpt>
      <trkpt lat="46.53154" lon="5.64236">
        <ele>534.4</ele>
        <time>2022-08-06T09:38:28Z</time>
      </trkpt>
      <trkpt lat="46.53139" lon="5.64223">
        <ele>534.2</ele>
        <time>2022-08-06T09:38:30Z</time>
      </trkpt>
      <trkpt lat="46.53092" lon="5.64188">
        <ele>533.6</ele>
        <time>2022-08-06T09:38:36Z</time>
      </trkpt>
      <trkpt lat="46.53061" lon="5.64169">
        <ele>532.8</ele>
        <time>2022-08-06T09:38:40Z</time>
      </trkpt>
      <trkpt lat="46.53034" lon="5.64155">
        <ele>532</ele>
        <time>2022-08-06T09:38:43Z</time>
      </trkpt>
      <trkpt lat="46.53024" lon="5.64149">
        <ele>531.4</ele>
        <time>2022-08-06T09:38:44Z</time>
      </trkpt>
      <trkpt lat="46.53" lon="5.64136">
        <ele>530.4</ele>
        <time>2022-08-06T09:38:47Z</time>
      </trkpt>
      <trkpt lat="46.52966" lon="5.64119">
        <ele>530</ele>
        <time>2022-08-06T09:38:51Z</time>
      </trkpt>
      <trkpt lat="46.52925" lon="5.64096">
        <ele>529</ele>
        <time>2022-08-06T09:38:56Z</time>
      </trkpt>
      <trkpt lat="46.52916" lon="5.64091">
        <ele>528.8</ele>
        <time>2022-08-06T09:38:57Z</time>
      </trkpt>
      <trkpt lat="46.5289" lon="5.64075">
        <ele>528</ele>
        <time>2022-08-06T09:39:00Z</time>
      </trkpt>
      <trkpt lat="46.52861" lon="5.64057">
        <ele>526.2</ele>
        <time>2022-08-06T09:39:03Z</time>
      </trkpt>
      <trkpt lat="46.52841" lon="5.64044">
        <ele>525</ele>
        <time>2022-08-06T09:39:05Z</time>
      </trkpt>
      <trkpt lat="46.52822" lon="5.64031">
        <ele>523.8</ele>
        <time>2022-08-06T09:39:07Z</time>
      </trkpt>
      <trkpt lat="46.52809" lon="5.64024">
        <ele>522.4</ele>
        <time>2022-08-06T09:39:08Z</time>
      </trkpt>
      <trkpt lat="46.52801" lon="5.6402">
        <ele>521.8</ele>
        <time>2022-08-06T09:39:09Z</time>
      </trkpt>
      <trkpt lat="46.52791" lon="5.64018">
        <ele>520.8</ele>
        <time>2022-08-06T09:39:10Z</time>
      </trkpt>
      <trkpt lat="46.52772" lon="5.6402">
        <ele>519</ele>
        <time>2022-08-06T09:39:12Z</time>
      </trkpt>
      <trkpt lat="46.52754" lon="5.64026">
        <ele>518.2</ele>
        <time>2022-08-06T09:39:14Z</time>
      </trkpt>
      <trkpt lat="46.52746" lon="5.64024">
        <ele>517.6</ele>
        <time>2022-08-06T09:39:15Z</time>
      </trkpt>
      <trkpt lat="46.52739" lon="5.64017">
        <ele>517.4</ele>
        <time>2022-08-06T09:39:16Z</time>
      </trkpt>
      <trkpt lat="46.52727" lon="5.64">
        <ele>516.6</ele>
        <time>2022-08-06T09:39:18Z</time>
      </trkpt>
      <trkpt lat="46.52687" lon="5.63943">
        <ele>516</ele>
        <time>2022-08-06T09:39:25Z</time>
      </trkpt>
      <trkpt lat="46.52674" lon="5.63917">
        <ele>516.6</ele>
        <time>2022-08-06T09:39:28Z</time>
      </trkpt>
      <trkpt lat="46.52666" lon="5.63897">
        <ele>516.8</ele>
        <time>2022-08-06T09:39:30Z</time>
      </trkpt>
      <trkpt lat="46.52658" lon="5.63879">
        <ele>516.8</ele>
        <time>2022-08-06T09:39:32Z</time>
      </trkpt>
      <trkpt lat="46.52652" lon="5.63871">
        <ele>517</ele>
        <time>2022-08-06T09:39:33Z</time>
      </trkpt>
      <trkpt lat="46.52636" lon="5.63757">
        <ele>517.4</ele>
        <time>2022-08-06T09:39:43Z</time>
      </trkpt>
      <trkpt lat="46.52644" lon="5.63751">
        <ele>517.6</ele>
        <time>2022-08-06T09:39:44Z</time>
      </trkpt>
      <trkpt lat="46.52646" lon="5.6373">
        <ele>517.4</ele>
        <time>2022-08-06T09:39:46Z</time>
      </trkpt>
      <trkpt lat="46.52649" lon="5.63719">
        <ele>517.2</ele>
        <time>2022-08-06T09:39:47Z</time>
      </trkpt>
      <trkpt lat="46.52667" lon="5.63654">
        <ele>517</ele>
        <time>2022-08-06T09:39:53Z</time>
      </trkpt>
      <trkpt lat="46.52682" lon="5.63574">
        <ele>515.8</ele>
        <time>2022-08-06T09:40:00Z</time>
      </trkpt>
      <trkpt lat="46.52687" lon="5.63536">
        <ele>515.2</ele>
        <time>2022-08-06T09:40:03Z</time>
      </trkpt>
      <trkpt lat="46.52689" lon="5.63509">
        <ele>514.6</ele>
        <time>2022-08-06T09:40:05Z</time>
      </trkpt>
      <trkpt lat="46.5269" lon="5.63482">
        <ele>514</ele>
        <time>2022-08-06T09:40:07Z</time>
      </trkpt>
      <trkpt lat="46.5269" lon="5.63469">
        <ele>513.2</ele>
        <time>2022-08-06T09:40:08Z</time>
      </trkpt>
      <trkpt lat="46.52689" lon="5.63454">
        <ele>513</ele>
        <time>2022-08-06T09:40:09Z</time>
      </trkpt>
      <trkpt lat="46.52688" lon="5.63439">
        <ele>512.4</ele>
        <time>2022-08-06T09:40:10Z</time>
      </trkpt>
      <trkpt lat="46.52684" lon="5.6341">
        <ele>511.6</ele>
        <time>2022-08-06T09:40:12Z</time>
      </trkpt>
      <trkpt lat="46.52679" lon="5.63369">
        <ele>510.6</ele>
        <time>2022-08-06T09:40:15Z</time>
      </trkpt>
      <trkpt lat="46.52674" lon="5.63335">
        <ele>509.2</ele>
        <time>2022-08-06T09:40:17Z</time>
      </trkpt>
      <trkpt lat="46.52668" lon="5.63295">
        <ele>507.8</ele>
        <time>2022-08-06T09:40:20Z</time>
      </trkpt>
      <trkpt lat="46.52662" lon="5.63253">
        <ele>506.8</ele>
        <time>2022-08-06T09:40:23Z</time>
      </trkpt>
      <trkpt lat="46.5266" lon="5.6324">
        <ele>506.6</ele>
        <time>2022-08-06T09:40:24Z</time>
      </trkpt>
      <trkpt lat="46.52646" lon="5.63177">
        <ele>506.2</ele>
        <time>2022-08-06T09:40:29Z</time>
      </trkpt>
      <trkpt lat="46.52626" lon="5.63099">
        <ele>506.8</ele>
        <time>2022-08-06T09:40:36Z</time>
      </trkpt>
      <trkpt lat="46.52608" lon="5.63023">
        <ele>507.2</ele>
        <time>2022-08-06T09:40:43Z</time>
      </trkpt>
      <trkpt lat="46.52605" lon="5.63012">
        <ele>507.2</ele>
        <time>2022-08-06T09:40:44Z</time>
      </trkpt>
      <trkpt lat="46.52586" lon="5.62934">
        <ele>507.2</ele>
        <time>2022-08-06T09:40:51Z</time>
      </trkpt>
      <trkpt lat="46.52577" lon="5.62901">
        <ele>506.8</ele>
        <time>2022-08-06T09:40:54Z</time>
      </trkpt>
      <trkpt lat="46.52555" lon="5.62821">
        <ele>505.4</ele>
        <time>2022-08-06T09:41:01Z</time>
      </trkpt>
      <trkpt lat="46.52544" lon="5.62784">
        <ele>505</ele>
        <time>2022-08-06T09:41:04Z</time>
      </trkpt>
      <trkpt lat="46.52532" lon="5.62745">
        <ele>504.4</ele>
        <time>2022-08-06T09:41:07Z</time>
      </trkpt>
      <trkpt lat="46.5252" lon="5.62705">
        <ele>502.8</ele>
        <time>2022-08-06T09:41:10Z</time>
      </trkpt>
      <trkpt lat="46.52512" lon="5.6268">
        <ele>501.8</ele>
        <time>2022-08-06T09:41:12Z</time>
      </trkpt>
      <trkpt lat="46.52499" lon="5.62635">
        <ele>500.6</ele>
        <time>2022-08-06T09:41:15Z</time>
      </trkpt>
      <trkpt lat="46.52495" lon="5.62621">
        <ele>500.4</ele>
        <time>2022-08-06T09:41:16Z</time>
      </trkpt>
      <trkpt lat="46.52485" lon="5.62593">
        <ele>499</ele>
        <time>2022-08-06T09:41:18Z</time>
      </trkpt>
      <trkpt lat="46.52473" lon="5.62568">
        <ele>497.2</ele>
        <time>2022-08-06T09:41:20Z</time>
      </trkpt>
      <trkpt lat="46.52459" lon="5.62543">
        <ele>496</ele>
        <time>2022-08-06T09:41:22Z</time>
      </trkpt>
      <trkpt lat="46.52438" lon="5.6251">
        <ele>494.2</ele>
        <time>2022-08-06T09:41:25Z</time>
      </trkpt>
      <trkpt lat="46.52421" lon="5.62484">
        <ele>493.2</ele>
        <time>2022-08-06T09:41:27Z</time>
      </trkpt>
      <trkpt lat="46.52405" lon="5.62457">
        <ele>492</ele>
        <time>2022-08-06T09:41:29Z</time>
      </trkpt>
      <trkpt lat="46.52398" lon="5.62441">
        <ele>491.6</ele>
        <time>2022-08-06T09:41:30Z</time>
      </trkpt>
      <trkpt lat="46.52392" lon="5.62425">
        <ele>490.4</ele>
        <time>2022-08-06T09:41:31Z</time>
      </trkpt>
      <trkpt lat="46.52387" lon="5.62408">
        <ele>488.4</ele>
        <time>2022-08-06T09:41:32Z</time>
      </trkpt>
      <trkpt lat="46.52378" lon="5.62372">
        <ele>486</ele>
        <time>2022-08-06T09:41:34Z</time>
      </trkpt>
      <trkpt lat="46.52373" lon="5.62335">
        <ele>484.6</ele>
        <time>2022-08-06T09:41:36Z</time>
      </trkpt>
      <trkpt lat="46.52371" lon="5.62298">
        <ele>483</ele>
        <time>2022-08-06T09:41:38Z</time>
      </trkpt>
      <trkpt lat="46.52372" lon="5.6228">
        <ele>481.8</ele>
        <time>2022-08-06T09:41:39Z</time>
      </trkpt>
      <trkpt lat="46.52374" lon="5.62243">
        <ele>480.4</ele>
        <time>2022-08-06T09:41:41Z</time>
      </trkpt>
      <trkpt lat="46.52376" lon="5.62207">
        <ele>478.8</ele>
        <time>2022-08-06T09:41:43Z</time>
      </trkpt>
      <trkpt lat="46.52377" lon="5.62189">
        <ele>478.6</ele>
        <time>2022-08-06T09:41:44Z</time>
      </trkpt>
      <trkpt lat="46.52379" lon="5.62155">
        <ele>477.8</ele>
        <time>2022-08-06T09:41:46Z</time>
      </trkpt>
      <trkpt lat="46.52383" lon="5.62107">
        <ele>476.8</ele>
        <time>2022-08-06T09:41:49Z</time>
      </trkpt>
      <trkpt lat="46.52388" lon="5.62033">
        <ele>475.8</ele>
        <time>2022-08-06T09:41:54Z</time>
      </trkpt>
      <trkpt lat="46.5239" lon="5.62009">
        <ele>475.8</ele>
        <time>2022-08-06T09:41:56Z</time>
      </trkpt>
      <trkpt lat="46.52394" lon="5.61947">
        <ele>476</ele>
        <time>2022-08-06T09:42:01Z</time>
      </trkpt>
      <trkpt lat="46.52397" lon="5.61896">
        <ele>476.8</ele>
        <time>2022-08-06T09:42:06Z</time>
      </trkpt>
      <trkpt lat="46.52397" lon="5.61887">
        <ele>477.4</ele>
        <time>2022-08-06T09:42:07Z</time>
      </trkpt>
      <trkpt lat="46.52397" lon="5.61869">
        <ele>478.2</ele>
        <time>2022-08-06T09:42:09Z</time>
      </trkpt>
      <trkpt lat="46.52395" lon="5.61846">
        <ele>479</ele>
        <time>2022-08-06T09:42:12Z</time>
      </trkpt>
      <trkpt lat="46.52394" lon="5.61839">
        <ele>479.4</ele>
        <time>2022-08-06T09:42:13Z</time>
      </trkpt>
      <trkpt lat="46.52389" lon="5.61808">
        <ele>480.6</ele>
        <time>2022-08-06T09:42:18Z</time>
      </trkpt>
      <trkpt lat="46.52386" lon="5.61795">
        <ele>481.8</ele>
        <time>2022-08-06T09:42:20Z</time>
      </trkpt>
      <trkpt lat="46.52384" lon="5.61785">
        <ele>482.8</ele>
        <time>2022-08-06T09:42:22Z</time>
      </trkpt>
      <trkpt lat="46.52381" lon="5.61772">
        <ele>483.2</ele>
        <time>2022-08-06T09:42:24Z</time>
      </trkpt>
      <trkpt lat="46.5238" lon="5.61766">
        <ele>483.6</ele>
        <time>2022-08-06T09:42:25Z</time>
      </trkpt>
      <trkpt lat="46.52378" lon="5.61755">
        <ele>484</ele>
        <time>2022-08-06T09:42:27Z</time>
      </trkpt>
      <trkpt lat="46.52378" lon="5.6175">
        <ele>484.2</ele>
        <time>2022-08-06T09:42:28Z</time>
      </trkpt>
      <trkpt lat="46.52376" lon="5.61739">
        <ele>485.2</ele>
        <time>2022-08-06T09:42:30Z</time>
      </trkpt>
      <trkpt lat="46.52374" lon="5.61727">
        <ele>486</ele>
        <time>2022-08-06T09:42:32Z</time>
      </trkpt>
      <trkpt lat="46.52371" lon="5.61716">
        <ele>486.2</ele>
        <time>2022-08-06T09:42:34Z</time>
      </trkpt>
      <trkpt lat="46.52366" lon="5.61688">
        <ele>486.8</ele>
        <time>2022-08-06T09:42:39Z</time>
      </trkpt>
      <trkpt lat="46.52364" lon="5.61677">
        <ele>487.2</ele>
        <time>2022-08-06T09:42:41Z</time>
      </trkpt>
      <trkpt lat="46.52358" lon="5.6166">
        <ele>488.2</ele>
        <time>2022-08-06T09:42:44Z</time>
      </trkpt>
      <trkpt lat="46.52357" lon="5.61655">
        <ele>488.4</ele>
        <time>2022-08-06T09:42:45Z</time>
      </trkpt>
      <trkpt lat="46.52349" lon="5.61641">
        <ele>489.6</ele>
        <time>2022-08-06T09:42:48Z</time>
      </trkpt>
      <trkpt lat="46.52343" lon="5.61632">
        <ele>490.2</ele>
        <time>2022-08-06T09:42:50Z</time>
      </trkpt>
      <trkpt lat="46.52339" lon="5.61628">
        <ele>490.6</ele>
        <time>2022-08-06T09:42:51Z</time>
      </trkpt>
      <trkpt lat="46.52323" lon="5.61614">
        <ele>491.8</ele>
        <time>2022-08-06T09:42:55Z</time>
      </trkpt>
      <trkpt lat="46.52313" lon="5.61608">
        <ele>492.2</ele>
        <time>2022-08-06T09:42:57Z</time>
      </trkpt>
      <trkpt lat="46.5228" lon="5.6158">
        <ele>492.6</ele>
        <time>2022-08-06T09:43:04Z</time>
      </trkpt>
      <trkpt lat="46.52245" lon="5.61542">
        <ele>492.2</ele>
        <time>2022-08-06T09:43:11Z</time>
      </trkpt>
      <trkpt lat="46.5221" lon="5.61503">
        <ele>491.8</ele>
        <time>2022-08-06T09:43:18Z</time>
      </trkpt>
      <trkpt lat="46.52205" lon="5.61498">
        <ele>491.8</ele>
        <time>2022-08-06T09:43:19Z</time>
      </trkpt>
      <trkpt lat="46.52178" lon="5.61472">
        <ele>492.2</ele>
        <time>2022-08-06T09:43:24Z</time>
      </trkpt>
      <trkpt lat="46.52152" lon="5.6144">
        <ele>493</ele>
        <time>2022-08-06T09:43:30Z</time>
      </trkpt>
      <trkpt lat="46.52147" lon="5.61435">
        <ele>493.2</ele>
        <time>2022-08-06T09:43:31Z</time>
      </trkpt>
      <trkpt lat="46.52125" lon="5.61407">
        <ele>494</ele>
        <time>2022-08-06T09:43:36Z</time>
      </trkpt>
      <trkpt lat="46.52121" lon="5.614">
        <ele>494.2</ele>
        <time>2022-08-06T09:43:37Z</time>
      </trkpt>
      <trkpt lat="46.52119" lon="5.61394">
        <ele>494.2</ele>
        <time>2022-08-06T09:43:38Z</time>
      </trkpt>
      <trkpt lat="46.52116" lon="5.61378">
        <ele>494.2</ele>
        <time>2022-08-06T09:43:40Z</time>
      </trkpt>
      <trkpt lat="46.52114" lon="5.6137">
        <ele>494.2</ele>
        <time>2022-08-06T09:43:41Z</time>
      </trkpt>
      <trkpt lat="46.52103" lon="5.61303">
        <ele>495.2</ele>
        <time>2022-08-06T09:43:49Z</time>
      </trkpt>
      <trkpt lat="46.52102" lon="5.61294">
        <ele>495.4</ele>
        <time>2022-08-06T09:43:50Z</time>
      </trkpt>
      <trkpt lat="46.52101" lon="5.61277">
        <ele>495.6</ele>
        <time>2022-08-06T09:43:52Z</time>
      </trkpt>
      <trkpt lat="46.52102" lon="5.61253">
        <ele>496</ele>
        <time>2022-08-06T09:43:55Z</time>
      </trkpt>
      <trkpt lat="46.52103" lon="5.61237">
        <ele>496.2</ele>
        <time>2022-08-06T09:43:57Z</time>
      </trkpt>
      <trkpt lat="46.52103" lon="5.61221">
        <ele>496.4</ele>
        <time>2022-08-06T09:43:59Z</time>
      </trkpt>
      <trkpt lat="46.52102" lon="5.61196">
        <ele>496.8</ele>
        <time>2022-08-06T09:44:02Z</time>
      </trkpt>
      <trkpt lat="46.52098" lon="5.61155">
        <ele>497.4</ele>
        <time>2022-08-06T09:44:07Z</time>
      </trkpt>
      <trkpt lat="46.52097" lon="5.6113">
        <ele>497.8</ele>
        <time>2022-08-06T09:44:10Z</time>
      </trkpt>
      <trkpt lat="46.52097" lon="5.61113">
        <ele>498.2</ele>
        <time>2022-08-06T09:44:12Z</time>
      </trkpt>
      <trkpt lat="46.52099" lon="5.61099">
        <ele>498.4</ele>
        <time>2022-08-06T09:44:14Z</time>
      </trkpt>
      <trkpt lat="46.521" lon="5.61092">
        <ele>498.4</ele>
        <time>2022-08-06T09:44:15Z</time>
      </trkpt>
      <trkpt lat="46.52104" lon="5.61073">
        <ele>498.8</ele>
        <time>2022-08-06T09:44:18Z</time>
      </trkpt>
      <trkpt lat="46.52104" lon="5.61058">
        <ele>499</ele>
        <time>2022-08-06T09:44:20Z</time>
      </trkpt>
      <trkpt lat="46.52101" lon="5.61042">
        <ele>499.2</ele>
        <time>2022-08-06T09:44:22Z</time>
      </trkpt>
      <trkpt lat="46.52105" lon="5.61025">
        <ele>499.2</ele>
        <time>2022-08-06T09:44:24Z</time>
      </trkpt>
      <trkpt lat="46.52119" lon="5.61007">
        <ele>499.2</ele>
        <time>2022-08-06T09:44:27Z</time>
      </trkpt>
      <trkpt lat="46.52128" lon="5.60997">
        <ele>499.2</ele>
        <time>2022-08-06T09:44:29Z</time>
      </trkpt>
      <trkpt lat="46.52136" lon="5.60983">
        <ele>499.2</ele>
        <time>2022-08-06T09:44:31Z</time>
      </trkpt>
      <trkpt lat="46.52139" lon="5.60976">
        <ele>499.4</ele>
        <time>2022-08-06T09:44:32Z</time>
      </trkpt>
      <trkpt lat="46.52141" lon="5.60968">
        <ele>499.6</ele>
        <time>2022-08-06T09:44:33Z</time>
      </trkpt>
      <trkpt lat="46.52146" lon="5.60953">
        <ele>500.2</ele>
        <time>2022-08-06T09:44:35Z</time>
      </trkpt>
      <trkpt lat="46.52147" lon="5.60945">
        <ele>500.4</ele>
        <time>2022-08-06T09:44:36Z</time>
      </trkpt>
      <trkpt lat="46.52148" lon="5.60937">
        <ele>500.6</ele>
        <time>2022-08-06T09:44:37Z</time>
      </trkpt>
      <trkpt lat="46.5215" lon="5.60887">
        <ele>501</ele>
        <time>2022-08-06T09:44:43Z</time>
      </trkpt>
      <trkpt lat="46.52158" lon="5.60841">
        <ele>501.6</ele>
        <time>2022-08-06T09:44:49Z</time>
      </trkpt>
      <trkpt lat="46.52159" lon="5.60834">
        <ele>501.8</ele>
        <time>2022-08-06T09:44:50Z</time>
      </trkpt>
      <trkpt lat="46.52162" lon="5.60798">
        <ele>503</ele>
        <time>2022-08-06T09:44:55Z</time>
      </trkpt>
      <trkpt lat="46.52161" lon="5.60752">
        <ele>503.8</ele>
        <time>2022-08-06T09:45:01Z</time>
      </trkpt>
      <trkpt lat="46.52166" lon="5.60735">
        <ele>503.8</ele>
        <time>2022-08-06T09:45:03Z</time>
      </trkpt>
      <trkpt lat="46.52177" lon="5.60722">
        <ele>503.6</ele>
        <time>2022-08-06T09:45:05Z</time>
      </trkpt>
      <trkpt lat="46.52184" lon="5.60719">
        <ele>503.4</ele>
        <time>2022-08-06T09:45:06Z</time>
      </trkpt>
      <trkpt lat="46.52192" lon="5.60717">
        <ele>502.8</ele>
        <time>2022-08-06T09:45:07Z</time>
      </trkpt>
      <trkpt lat="46.52209" lon="5.60714">
        <ele>501.4</ele>
        <time>2022-08-06T09:45:09Z</time>
      </trkpt>
      <trkpt lat="46.52217" lon="5.60713">
        <ele>500.4</ele>
        <time>2022-08-06T09:45:10Z</time>
      </trkpt>
      <trkpt lat="46.52225" lon="5.60711">
        <ele>500</ele>
        <time>2022-08-06T09:45:11Z</time>
      </trkpt>
      <trkpt lat="46.52247" lon="5.60695">
        <ele>499</ele>
        <time>2022-08-06T09:45:14Z</time>
      </trkpt>
      <trkpt lat="46.52257" lon="5.60678">
        <ele>498.6</ele>
        <time>2022-08-06T09:45:16Z</time>
      </trkpt>
      <trkpt lat="46.52261" lon="5.60664">
        <ele>498.2</ele>
        <time>2022-08-06T09:45:17Z</time>
      </trkpt>
      <trkpt lat="46.52265" lon="5.60639">
        <ele>497.4</ele>
        <time>2022-08-06T09:45:19Z</time>
      </trkpt>
      <trkpt lat="46.52268" lon="5.606">
        <ele>496.6</ele>
        <time>2022-08-06T09:45:22Z</time>
      </trkpt>
      <trkpt lat="46.52269" lon="5.60587">
        <ele>496.2</ele>
        <time>2022-08-06T09:45:23Z</time>
      </trkpt>
      <trkpt lat="46.52273" lon="5.60548">
        <ele>495.2</ele>
        <time>2022-08-06T09:45:26Z</time>
      </trkpt>
      <trkpt lat="46.52276" lon="5.60508">
        <ele>494</ele>
        <time>2022-08-06T09:45:29Z</time>
      </trkpt>
      <trkpt lat="46.52278" lon="5.60483">
        <ele>493.6</ele>
        <time>2022-08-06T09:45:31Z</time>
      </trkpt>
      <trkpt lat="46.5228" lon="5.60458">
        <ele>493</ele>
        <time>2022-08-06T09:45:33Z</time>
      </trkpt>
      <trkpt lat="46.52288" lon="5.60372">
        <ele>492.4</ele>
        <time>2022-08-06T09:45:40Z</time>
      </trkpt>
      <trkpt lat="46.52289" lon="5.6036">
        <ele>492.4</ele>
        <time>2022-08-06T09:45:41Z</time>
      </trkpt>
      <trkpt lat="46.52296" lon="5.60272">
        <ele>492.4</ele>
        <time>2022-08-06T09:45:48Z</time>
      </trkpt>
      <trkpt lat="46.52299" lon="5.60235">
        <ele>492.2</ele>
        <time>2022-08-06T09:45:51Z</time>
      </trkpt>
      <trkpt lat="46.52301" lon="5.60211">
        <ele>491.8</ele>
        <time>2022-08-06T09:45:53Z</time>
      </trkpt>
      <trkpt lat="46.52308" lon="5.60128">
        <ele>491</ele>
        <time>2022-08-06T09:46:00Z</time>
      </trkpt>
      <trkpt lat="46.52309" lon="5.60104">
        <ele>491</ele>
        <time>2022-08-06T09:46:02Z</time>
      </trkpt>
      <trkpt lat="46.52316" lon="5.60022">
        <ele>491.6</ele>
        <time>2022-08-06T09:46:09Z</time>
      </trkpt>
      <trkpt lat="46.52318" lon="5.59988">
        <ele>491.6</ele>
        <time>2022-08-06T09:46:12Z</time>
      </trkpt>
      <trkpt lat="46.52323" lon="5.59927">
        <ele>490.4</ele>
        <time>2022-08-06T09:46:17Z</time>
      </trkpt>
      <trkpt lat="46.52327" lon="5.59879">
        <ele>489.8</ele>
        <time>2022-08-06T09:46:21Z</time>
      </trkpt>
      <trkpt lat="46.52333" lon="5.59794">
        <ele>489.6</ele>
        <time>2022-08-06T09:46:28Z</time>
      </trkpt>
      <trkpt lat="46.52335" lon="5.59768">
        <ele>489.4</ele>
        <time>2022-08-06T09:46:30Z</time>
      </trkpt>
      <trkpt lat="46.52338" lon="5.59733">
        <ele>489</ele>
        <time>2022-08-06T09:46:33Z</time>
      </trkpt>
      <trkpt lat="46.52343" lon="5.59651">
        <ele>488.8</ele>
        <time>2022-08-06T09:46:40Z</time>
      </trkpt>
      <trkpt lat="46.52346" lon="5.59616">
        <ele>488.2</ele>
        <time>2022-08-06T09:46:43Z</time>
      </trkpt>
      <trkpt lat="46.52347" lon="5.59604">
        <ele>488.4</ele>
        <time>2022-08-06T09:46:44Z</time>
      </trkpt>
      <trkpt lat="46.52353" lon="5.59522">
        <ele>488.4</ele>
        <time>2022-08-06T09:46:51Z</time>
      </trkpt>
      <trkpt lat="46.52356" lon="5.59488">
        <ele>488</ele>
        <time>2022-08-06T09:46:54Z</time>
      </trkpt>
      <trkpt lat="46.5236" lon="5.59434">
        <ele>487.4</ele>
        <time>2022-08-06T09:46:58Z</time>
      </trkpt>
      <trkpt lat="46.52363" lon="5.59394">
        <ele>486.4</ele>
        <time>2022-08-06T09:47:01Z</time>
      </trkpt>
      <trkpt lat="46.52365" lon="5.59367">
        <ele>486</ele>
        <time>2022-08-06T09:47:03Z</time>
      </trkpt>
      <trkpt lat="46.52369" lon="5.59313">
        <ele>484.6</ele>
        <time>2022-08-06T09:47:07Z</time>
      </trkpt>
      <trkpt lat="46.52371" lon="5.59284">
        <ele>483.8</ele>
        <time>2022-08-06T09:47:09Z</time>
      </trkpt>
      <trkpt lat="46.52372" lon="5.5927">
        <ele>482.8</ele>
        <time>2022-08-06T09:47:10Z</time>
      </trkpt>
      <trkpt lat="46.52374" lon="5.59241">
        <ele>481.8</ele>
        <time>2022-08-06T09:47:12Z</time>
      </trkpt>
      <trkpt lat="46.5238" lon="5.59169">
        <ele>480.6</ele>
        <time>2022-08-06T09:47:17Z</time>
      </trkpt>
      <trkpt lat="46.52383" lon="5.59126">
        <ele>480</ele>
        <time>2022-08-06T09:47:20Z</time>
      </trkpt>
      <trkpt lat="46.52387" lon="5.59069">
        <ele>479.6</ele>
        <time>2022-08-06T09:47:24Z</time>
      </trkpt>
      <trkpt lat="46.52392" lon="5.59014">
        <ele>478.6</ele>
        <time>2022-08-06T09:47:28Z</time>
      </trkpt>
      <trkpt lat="46.52395" lon="5.58987">
        <ele>478.4</ele>
        <time>2022-08-06T09:47:30Z</time>
      </trkpt>
      <trkpt lat="46.52401" lon="5.58903">
        <ele>477.8</ele>
        <time>2022-08-06T09:47:36Z</time>
      </trkpt>
      <trkpt lat="46.52404" lon="5.58854">
        <ele>477.4</ele>
        <time>2022-08-06T09:47:40Z</time>
      </trkpt>
      <trkpt lat="46.5241" lon="5.58778">
        <ele>477.2</ele>
        <time>2022-08-06T09:47:46Z</time>
      </trkpt>
      <trkpt lat="46.52416" lon="5.58695">
        <ele>477.2</ele>
        <time>2022-08-06T09:47:53Z</time>
      </trkpt>
      <trkpt lat="46.52417" lon="5.58684">
        <ele>477.2</ele>
        <time>2022-08-06T09:47:54Z</time>
      </trkpt>
      <trkpt lat="46.52423" lon="5.58606">
        <ele>477.6</ele>
        <time>2022-08-06T09:48:01Z</time>
      </trkpt>
      <trkpt lat="46.52425" lon="5.58586">
        <ele>477.6</ele>
        <time>2022-08-06T09:48:03Z</time>
      </trkpt>
      <trkpt lat="46.52431" lon="5.58502">
        <ele>477.6</ele>
        <time>2022-08-06T09:48:11Z</time>
      </trkpt>
      <trkpt lat="46.52433" lon="5.58472">
        <ele>477.6</ele>
        <time>2022-08-06T09:48:14Z</time>
      </trkpt>
      <trkpt lat="46.52439" lon="5.58393">
        <ele>478.2</ele>
        <time>2022-08-06T09:48:22Z</time>
      </trkpt>
      <trkpt lat="46.52445" lon="5.5831">
        <ele>478.4</ele>
        <time>2022-08-06T09:48:30Z</time>
      </trkpt>
      <trkpt lat="46.52445" lon="5.58301">
        <ele>478.6</ele>
        <time>2022-08-06T09:48:31Z</time>
      </trkpt>
      <trkpt lat="46.52448" lon="5.58267">
        <ele>478.6</ele>
        <time>2022-08-06T09:48:34Z</time>
      </trkpt>
      <trkpt lat="46.52454" lon="5.58185">
        <ele>478.2</ele>
        <time>2022-08-06T09:48:42Z</time>
      </trkpt>
      <trkpt lat="46.52457" lon="5.58151">
        <ele>477.4</ele>
        <time>2022-08-06T09:48:45Z</time>
      </trkpt>
      <trkpt lat="46.52459" lon="5.5812">
        <ele>477.4</ele>
        <time>2022-08-06T09:48:48Z</time>
      </trkpt>
      <trkpt lat="46.52465" lon="5.58039">
        <ele>476.8</ele>
        <time>2022-08-06T09:48:56Z</time>
      </trkpt>
      <trkpt lat="46.52467" lon="5.58019">
        <ele>476.8</ele>
        <time>2022-08-06T09:48:58Z</time>
      </trkpt>
      <trkpt lat="46.52471" lon="5.57974">
        <ele>476.4</ele>
        <time>2022-08-06T09:49:03Z</time>
      </trkpt>
      <trkpt lat="46.52473" lon="5.57936">
        <ele>476.4</ele>
        <time>2022-08-06T09:49:07Z</time>
      </trkpt>
      <trkpt lat="46.5248" lon="5.57849">
        <ele>477.2</ele>
        <time>2022-08-06T09:49:16Z</time>
      </trkpt>
      <trkpt lat="46.52483" lon="5.57807">
        <ele>477</ele>
        <time>2022-08-06T09:49:20Z</time>
      </trkpt>
      <trkpt lat="46.52489" lon="5.57725">
        <ele>477</ele>
        <time>2022-08-06T09:49:28Z</time>
      </trkpt>
      <trkpt lat="46.52491" lon="5.57705">
        <ele>477</ele>
        <time>2022-08-06T09:49:30Z</time>
      </trkpt>
      <trkpt lat="46.52497" lon="5.57625">
        <ele>476.8</ele>
        <time>2022-08-06T09:49:38Z</time>
      </trkpt>
      <trkpt lat="46.52499" lon="5.57605">
        <ele>476.8</ele>
        <time>2022-08-06T09:49:40Z</time>
      </trkpt>
      <trkpt lat="46.52505" lon="5.57526">
        <ele>477.4</ele>
        <time>2022-08-06T09:49:48Z</time>
      </trkpt>
      <trkpt lat="46.52508" lon="5.57494">
        <ele>477.4</ele>
        <time>2022-08-06T09:49:51Z</time>
      </trkpt>
      <trkpt lat="46.52513" lon="5.57424">
        <ele>477.6</ele>
        <time>2022-08-06T09:49:58Z</time>
      </trkpt>
      <trkpt lat="46.52516" lon="5.57383">
        <ele>477.8</ele>
        <time>2022-08-06T09:50:02Z</time>
      </trkpt>
      <trkpt lat="46.52523" lon="5.573">
        <ele>477.6</ele>
        <time>2022-08-06T09:50:10Z</time>
      </trkpt>
      <trkpt lat="46.52526" lon="5.57251">
        <ele>477.4</ele>
        <time>2022-08-06T09:50:15Z</time>
      </trkpt>
      <trkpt lat="46.52533" lon="5.57169">
        <ele>477.4</ele>
        <time>2022-08-06T09:50:23Z</time>
      </trkpt>
      <trkpt lat="46.52535" lon="5.57137">
        <ele>477.4</ele>
        <time>2022-08-06T09:50:26Z</time>
      </trkpt>
      <trkpt lat="46.52541" lon="5.57057">
        <ele>477.2</ele>
        <time>2022-08-06T09:50:34Z</time>
      </trkpt>
      <trkpt lat="46.52542" lon="5.57037">
        <ele>477</ele>
        <time>2022-08-06T09:50:36Z</time>
      </trkpt>
      <trkpt lat="46.52549" lon="5.56957">
        <ele>477</ele>
        <time>2022-08-06T09:50:44Z</time>
      </trkpt>
      <trkpt lat="46.52553" lon="5.56909">
        <ele>477</ele>
        <time>2022-08-06T09:50:49Z</time>
      </trkpt>
      <trkpt lat="46.52559" lon="5.56824">
        <ele>477</ele>
        <time>2022-08-06T09:50:58Z</time>
      </trkpt>
      <trkpt lat="46.5256" lon="5.56815">
        <ele>477.2</ele>
        <time>2022-08-06T09:50:59Z</time>
      </trkpt>
      <trkpt lat="46.52567" lon="5.56732">
        <ele>478</ele>
        <time>2022-08-06T09:51:08Z</time>
      </trkpt>
      <trkpt lat="46.52568" lon="5.56722">
        <ele>478</ele>
        <time>2022-08-06T09:51:09Z</time>
      </trkpt>
      <trkpt lat="46.52574" lon="5.5664">
        <ele>478.2</ele>
        <time>2022-08-06T09:51:18Z</time>
      </trkpt>
      <trkpt lat="46.52574" lon="5.56631">
        <ele>478.2</ele>
        <time>2022-08-06T09:51:19Z</time>
      </trkpt>
      <trkpt lat="46.5258" lon="5.56566">
        <ele>479.2</ele>
        <time>2022-08-06T09:51:26Z</time>
      </trkpt>
      <trkpt lat="46.52581" lon="5.56556">
        <ele>479.4</ele>
        <time>2022-08-06T09:51:27Z</time>
      </trkpt>
      <trkpt lat="46.52586" lon="5.56504">
        <ele>479.8</ele>
        <time>2022-08-06T09:51:33Z</time>
      </trkpt>
      <trkpt lat="46.52589" lon="5.56459">
        <ele>480.4</ele>
        <time>2022-08-06T09:51:38Z</time>
      </trkpt>
      <trkpt lat="46.52593" lon="5.56406">
        <ele>481</ele>
        <time>2022-08-06T09:51:44Z</time>
      </trkpt>
      <trkpt lat="46.52598" lon="5.56336">
        <ele>481</ele>
        <time>2022-08-06T09:51:51Z</time>
      </trkpt>
      <trkpt lat="46.52603" lon="5.56266">
        <ele>480.4</ele>
        <time>2022-08-06T09:51:57Z</time>
      </trkpt>
      <trkpt lat="46.52606" lon="5.56226">
        <ele>479.2</ele>
        <time>2022-08-06T09:52:00Z</time>
      </trkpt>
      <trkpt lat="46.52608" lon="5.56188">
        <ele>478</ele>
        <time>2022-08-06T09:52:03Z</time>
      </trkpt>
      <trkpt lat="46.5261" lon="5.56165">
        <ele>477.6</ele>
        <time>2022-08-06T09:52:05Z</time>
      </trkpt>
      <trkpt lat="46.52614" lon="5.56125">
        <ele>476.6</ele>
        <time>2022-08-06T09:52:08Z</time>
      </trkpt>
      <trkpt lat="46.5262" lon="5.56053">
        <ele>476</ele>
        <time>2022-08-06T09:52:14Z</time>
      </trkpt>
      <trkpt lat="46.52625" lon="5.55991">
        <ele>475.6</ele>
        <time>2022-08-06T09:52:19Z</time>
      </trkpt>
      <trkpt lat="46.52629" lon="5.55946">
        <ele>475</ele>
        <time>2022-08-06T09:52:23Z</time>
      </trkpt>
      <trkpt lat="46.52636" lon="5.55866">
        <ele>474.8</ele>
        <time>2022-08-06T09:52:30Z</time>
      </trkpt>
      <trkpt lat="46.52637" lon="5.55845">
        <ele>474.8</ele>
        <time>2022-08-06T09:52:32Z</time>
      </trkpt>
      <trkpt lat="46.5264" lon="5.55811">
        <ele>474.4</ele>
        <time>2022-08-06T09:52:35Z</time>
      </trkpt>
      <trkpt lat="46.52645" lon="5.55751">
        <ele>474.8</ele>
        <time>2022-08-06T09:52:41Z</time>
      </trkpt>
      <trkpt lat="46.52651" lon="5.55671">
        <ele>475</ele>
        <time>2022-08-06T09:52:49Z</time>
      </trkpt>
      <trkpt lat="46.52653" lon="5.55632">
        <ele>475</ele>
        <time>2022-08-06T09:52:53Z</time>
      </trkpt>
      <trkpt lat="46.52659" lon="5.55554">
        <ele>475.4</ele>
        <time>2022-08-06T09:53:01Z</time>
      </trkpt>
      <trkpt lat="46.52661" lon="5.55534">
        <ele>475.4</ele>
        <time>2022-08-06T09:53:03Z</time>
      </trkpt>
      <trkpt lat="46.52667" lon="5.55451">
        <ele>475.4</ele>
        <time>2022-08-06T09:53:12Z</time>
      </trkpt>
      <trkpt lat="46.5267" lon="5.55414">
        <ele>475.4</ele>
        <time>2022-08-06T09:53:16Z</time>
      </trkpt>
      <trkpt lat="46.52672" lon="5.55389">
        <ele>475.8</ele>
        <time>2022-08-06T09:53:19Z</time>
      </trkpt>
      <trkpt lat="46.52677" lon="5.55326">
        <ele>476.8</ele>
        <time>2022-08-06T09:53:26Z</time>
      </trkpt>
      <trkpt lat="46.52679" lon="5.553">
        <ele>477.4</ele>
        <time>2022-08-06T09:53:29Z</time>
      </trkpt>
      <trkpt lat="46.52681" lon="5.55274">
        <ele>477.8</ele>
        <time>2022-08-06T09:53:32Z</time>
      </trkpt>
      <trkpt lat="46.52684" lon="5.55238">
        <ele>478.4</ele>
        <time>2022-08-06T09:53:36Z</time>
      </trkpt>
      <trkpt lat="46.52687" lon="5.55194">
        <ele>478.4</ele>
        <time>2022-08-06T09:53:41Z</time>
      </trkpt>
      <trkpt lat="46.52688" lon="5.55185">
        <ele>478.4</ele>
        <time>2022-08-06T09:53:42Z</time>
      </trkpt>
      <trkpt lat="46.52693" lon="5.55123">
        <ele>478.6</ele>
        <time>2022-08-06T09:53:49Z</time>
      </trkpt>
      <trkpt lat="46.52694" lon="5.55108">
        <ele>478.8</ele>
        <time>2022-08-06T09:53:51Z</time>
      </trkpt>
      <trkpt lat="46.52696" lon="5.55088">
        <ele>479</ele>
        <time>2022-08-06T09:53:54Z</time>
      </trkpt>
      <trkpt lat="46.52696" lon="5.55082">
        <ele>479</ele>
        <time>2022-08-06T09:53:55Z</time>
      </trkpt>
      <trkpt lat="46.52694" lon="5.5508">
        <ele>479</ele>
        <time>2022-08-06T09:53:56Z</time>
      </trkpt>
      <trkpt lat="46.52692" lon="5.5508">
        <ele>479.2</ele>
        <time>2022-08-06T09:53:57Z</time>
      </trkpt>
      <trkpt lat="46.5269" lon="5.55086">
        <ele>479.2</ele>
        <time>2022-08-06T09:53:59Z</time>
      </trkpt>
      <trkpt lat="46.52688" lon="5.5511">
        <ele>479.4</ele>
        <time>2022-08-06T09:54:02Z</time>
      </trkpt>
      <trkpt lat="46.52686" lon="5.55139">
        <ele>479</ele>
        <time>2022-08-06T09:54:05Z</time>
      </trkpt>
    </trkseg>
  </trk>
</gpx>